<?xml version='1.0' encoding='UTF-8' standalone='yes' ?>
<gpx xmlns="http://www.topografix.com/GPX/1/1" xmlns:geotracker="http://ilyabogdanovich.com/gpx/extensions/geotracker" xmlns:xsi="http://www.w3.org/2001/XMLSchema-instance" xsi:schemaLocation="http://www.topografix.com/GPX/1/1 http://www.topografix.com/GPX/1/1/gpx.xsd" version="1.1" creator="Enregistré par Geo Tracker pour Android de Ilya Bogdanovich">
  <metadata>
    <name>Brinon-8Kms3</name>
    <author>
      <name>gpx.studio</name>
      <link href="https://gpx.studio" />
    </author>
    <link href="https://gpx.studio" />
    <time>2022-05-12T07:04:03Z</time>
  </metadata>
  <trk>
    <name>Brinon-8Kms3</name>
    <extensions>
      <geotracker:meta>
        <geotracker:length>8339.34</geotracker:length>
        <geotracker:duration>7420919</geotracker:duration>
        <geotracker:creationtime>2022-05-12T07:04:03Z</geotracker:creationtime>
        <geotracker:activity>0</geotracker:activity>
      </geotracker:meta>
    </extensions>
    <trkseg>
      <trkpt lat="47.57612" lon="2.2280679">
        <ele>192</ele>
        <time>2022-05-12T07:04:03Z</time>
      </trkpt>
      <trkpt lat="47.5761" lon="2.2280748">
        <ele>190</ele>
        <time>2022-05-12T07:04:05Z</time>
      </trkpt>
      <trkpt lat="47.5761" lon="2.2280748">
        <ele>190</ele>
        <time>2022-05-12T07:04:06Z</time>
      </trkpt>
      <trkpt lat="47.5761" lon="2.2280748">
        <ele>190</ele>
        <time>2022-05-12T07:04:07Z</time>
      </trkpt>
      <trkpt lat="47.5761" lon="2.2280748">
        <ele>190</ele>
        <time>2022-05-12T07:04:08Z</time>
      </trkpt>
      <trkpt lat="47.5761" lon="2.2280748">
        <ele>190</ele>
        <time>2022-05-12T07:04:09Z</time>
      </trkpt>
      <trkpt lat="47.5761" lon="2.2280643">
        <ele>191</ele>
        <time>2022-05-12T07:04:10Z</time>
      </trkpt>
      <trkpt lat="47.576084" lon="2.228036">
        <ele>189</ele>
        <time>2022-05-12T07:04:12Z</time>
      </trkpt>
      <trkpt lat="47.576077" lon="2.2280269">
        <ele>188</ele>
        <time>2022-05-12T07:04:14Z</time>
      </trkpt>
      <trkpt lat="47.57608" lon="2.2280304">
        <ele>187</ele>
        <time>2022-05-12T07:04:16Z</time>
      </trkpt>
      <trkpt lat="47.57608" lon="2.2280304">
        <ele>187</ele>
        <time>2022-05-12T07:04:16Z</time>
      </trkpt>
      <trkpt lat="47.57608" lon="2.2280304">
        <ele>187</ele>
        <time>2022-05-12T07:04:16Z</time>
      </trkpt>
      <trkpt lat="47.57604" lon="2.227983">
        <ele>188</ele>
        <time>2022-05-12T07:04:24Z</time>
      </trkpt>
      <trkpt lat="47.576027" lon="2.227972">
        <ele>189</ele>
        <time>2022-05-12T07:04:25Z</time>
      </trkpt>
      <trkpt lat="47.576015" lon="2.2279515">
        <ele>188</ele>
        <time>2022-05-12T07:04:27Z</time>
      </trkpt>
      <trkpt lat="47.576004" lon="2.227943">
        <ele>188</ele>
        <time>2022-05-12T07:04:28Z</time>
      </trkpt>
      <trkpt lat="47.575996" lon="2.2279325">
        <ele>188</ele>
        <time>2022-05-12T07:04:29Z</time>
      </trkpt>
      <trkpt lat="47.57599" lon="2.227921">
        <ele>188</ele>
        <time>2022-05-12T07:04:30Z</time>
      </trkpt>
      <trkpt lat="47.575974" lon="2.2279038">
        <ele>189</ele>
        <time>2022-05-12T07:04:32Z</time>
      </trkpt>
      <trkpt lat="47.57595" lon="2.227876">
        <ele>189</ele>
        <time>2022-05-12T07:04:34Z</time>
      </trkpt>
      <trkpt lat="47.57593" lon="2.2278495">
        <ele>189</ele>
        <time>2022-05-12T07:04:36Z</time>
      </trkpt>
      <trkpt lat="47.57592" lon="2.227831">
        <ele>189</ele>
        <time>2022-05-12T07:04:38Z</time>
      </trkpt>
      <trkpt lat="47.575905" lon="2.2278237">
        <ele>189</ele>
        <time>2022-05-12T07:04:39Z</time>
      </trkpt>
      <trkpt lat="47.575897" lon="2.2278028">
        <ele>188</ele>
        <time>2022-05-12T07:04:41Z</time>
      </trkpt>
      <trkpt lat="47.575886" lon="2.2277896">
        <ele>188</ele>
        <time>2022-05-12T07:04:42Z</time>
      </trkpt>
      <trkpt lat="47.57588" lon="2.227778">
        <ele>188</ele>
        <time>2022-05-12T07:04:43Z</time>
      </trkpt>
      <trkpt lat="47.575863" lon="2.2277653">
        <ele>187</ele>
        <time>2022-05-12T07:04:44Z</time>
      </trkpt>
      <trkpt lat="47.575844" lon="2.227738">
        <ele>187</ele>
        <time>2022-05-12T07:04:46Z</time>
      </trkpt>
      <trkpt lat="47.57582" lon="2.2277088">
        <ele>187</ele>
        <time>2022-05-12T07:04:48Z</time>
      </trkpt>
      <trkpt lat="47.5758" lon="2.2276857">
        <ele>187</ele>
        <time>2022-05-12T07:04:50Z</time>
      </trkpt>
      <trkpt lat="47.57579" lon="2.2276716">
        <ele>187</ele>
        <time>2022-05-12T07:04:51Z</time>
      </trkpt>
      <trkpt lat="47.57577" lon="2.2276366">
        <ele>187</ele>
        <time>2022-05-12T07:04:53Z</time>
      </trkpt>
      <trkpt lat="47.575745" lon="2.2276049">
        <ele>187</ele>
        <time>2022-05-12T07:04:55Z</time>
      </trkpt>
      <trkpt lat="47.575733" lon="2.2275867">
        <ele>187</ele>
        <time>2022-05-12T07:04:57Z</time>
      </trkpt>
      <trkpt lat="47.575726" lon="2.2275715">
        <ele>186</ele>
        <time>2022-05-12T07:04:58Z</time>
      </trkpt>
      <trkpt lat="47.57572" lon="2.2275627">
        <ele>186</ele>
        <time>2022-05-12T07:04:59Z</time>
      </trkpt>
      <trkpt lat="47.575718" lon="2.2275524">
        <ele>186</ele>
        <time>2022-05-12T07:05:00Z</time>
      </trkpt>
      <trkpt lat="47.57571" lon="2.2275398">
        <ele>186</ele>
        <time>2022-05-12T07:05:01Z</time>
      </trkpt>
      <trkpt lat="47.5757" lon="2.227523">
        <ele>186</ele>
        <time>2022-05-12T07:05:02Z</time>
      </trkpt>
      <trkpt lat="47.57569" lon="2.2275097">
        <ele>187</ele>
        <time>2022-05-12T07:05:03Z</time>
      </trkpt>
      <trkpt lat="47.575684" lon="2.2274976">
        <ele>186</ele>
        <time>2022-05-12T07:05:04Z</time>
      </trkpt>
      <trkpt lat="47.575672" lon="2.2274854">
        <ele>187</ele>
        <time>2022-05-12T07:05:05Z</time>
      </trkpt>
      <trkpt lat="47.575665" lon="2.2274709">
        <ele>187</ele>
        <time>2022-05-12T07:05:06Z</time>
      </trkpt>
      <trkpt lat="47.575657" lon="2.2274587">
        <ele>187</ele>
        <time>2022-05-12T07:05:07Z</time>
      </trkpt>
      <trkpt lat="47.575638" lon="2.2274501">
        <ele>186</ele>
        <time>2022-05-12T07:05:08Z</time>
      </trkpt>
      <trkpt lat="47.57563" lon="2.2274473">
        <ele>186</ele>
        <time>2022-05-12T07:05:09Z</time>
      </trkpt>
      <trkpt lat="47.57562" lon="2.227442">
        <ele>186</ele>
        <time>2022-05-12T07:05:10Z</time>
      </trkpt>
      <trkpt lat="47.57561" lon="2.2274299">
        <ele>186</ele>
        <time>2022-05-12T07:05:11Z</time>
      </trkpt>
      <trkpt lat="47.575603" lon="2.2274177">
        <ele>185</ele>
        <time>2022-05-12T07:05:12Z</time>
      </trkpt>
      <trkpt lat="47.575596" lon="2.227405">
        <ele>185</ele>
        <time>2022-05-12T07:05:13Z</time>
      </trkpt>
      <trkpt lat="47.575592" lon="2.2273922">
        <ele>184</ele>
        <time>2022-05-12T07:05:14Z</time>
      </trkpt>
      <trkpt lat="47.575584" lon="2.2273827">
        <ele>184</ele>
        <time>2022-05-12T07:05:15Z</time>
      </trkpt>
      <trkpt lat="47.575577" lon="2.2273722">
        <ele>184</ele>
        <time>2022-05-12T07:05:16Z</time>
      </trkpt>
      <trkpt lat="47.57557" lon="2.2273612">
        <ele>184</ele>
        <time>2022-05-12T07:05:17Z</time>
      </trkpt>
      <trkpt lat="47.575565" lon="2.2273514">
        <ele>184</ele>
        <time>2022-05-12T07:05:18Z</time>
      </trkpt>
      <trkpt lat="47.575558" lon="2.2273412">
        <ele>184</ele>
        <time>2022-05-12T07:05:19Z</time>
      </trkpt>
      <trkpt lat="47.575554" lon="2.227332">
        <ele>184</ele>
        <time>2022-05-12T07:05:20Z</time>
      </trkpt>
      <trkpt lat="47.575546" lon="2.2273233">
        <ele>184</ele>
        <time>2022-05-12T07:05:21Z</time>
      </trkpt>
      <trkpt lat="47.57554" lon="2.227312">
        <ele>184</ele>
        <time>2022-05-12T07:05:22Z</time>
      </trkpt>
      <trkpt lat="47.57553" lon="2.2272985">
        <ele>184</ele>
        <time>2022-05-12T07:05:23Z</time>
      </trkpt>
      <trkpt lat="47.57552" lon="2.2272868">
        <ele>184</ele>
        <time>2022-05-12T07:05:24Z</time>
      </trkpt>
      <trkpt lat="47.575512" lon="2.227276">
        <ele>184</ele>
        <time>2022-05-12T07:05:25Z</time>
      </trkpt>
      <trkpt lat="47.5755" lon="2.227267">
        <ele>184</ele>
        <time>2022-05-12T07:05:26Z</time>
      </trkpt>
      <trkpt lat="47.575493" lon="2.2272573">
        <ele>184</ele>
        <time>2022-05-12T07:05:27Z</time>
      </trkpt>
      <trkpt lat="47.57548" lon="2.2272453">
        <ele>184</ele>
        <time>2022-05-12T07:05:28Z</time>
      </trkpt>
      <trkpt lat="47.575466" lon="2.227237">
        <ele>184</ele>
        <time>2022-05-12T07:05:29Z</time>
      </trkpt>
      <trkpt lat="47.57546" lon="2.2272263">
        <ele>184</ele>
        <time>2022-05-12T07:05:30Z</time>
      </trkpt>
      <trkpt lat="47.57545" lon="2.2272131">
        <ele>184</ele>
        <time>2022-05-12T07:05:31Z</time>
      </trkpt>
      <trkpt lat="47.575447" lon="2.2272027">
        <ele>184</ele>
        <time>2022-05-12T07:05:32Z</time>
      </trkpt>
      <trkpt lat="47.575436" lon="2.227193">
        <ele>184</ele>
        <time>2022-05-12T07:05:33Z</time>
      </trkpt>
      <trkpt lat="47.575428" lon="2.2271817">
        <ele>183</ele>
        <time>2022-05-12T07:05:34Z</time>
      </trkpt>
      <trkpt lat="47.57542" lon="2.2271698">
        <ele>183</ele>
        <time>2022-05-12T07:05:35Z</time>
      </trkpt>
      <trkpt lat="47.57541" lon="2.2271569">
        <ele>182</ele>
        <time>2022-05-12T07:05:36Z</time>
      </trkpt>
      <trkpt lat="47.575397" lon="2.2271466">
        <ele>183</ele>
        <time>2022-05-12T07:05:37Z</time>
      </trkpt>
      <trkpt lat="47.575394" lon="2.227134">
        <ele>183</ele>
        <time>2022-05-12T07:05:38Z</time>
      </trkpt>
      <trkpt lat="47.575386" lon="2.2271185">
        <ele>183</ele>
        <time>2022-05-12T07:05:39Z</time>
      </trkpt>
      <trkpt lat="47.57538" lon="2.2271042">
        <ele>183</ele>
        <time>2022-05-12T07:05:40Z</time>
      </trkpt>
      <trkpt lat="47.57537" lon="2.227093">
        <ele>183</ele>
        <time>2022-05-12T07:05:41Z</time>
      </trkpt>
      <trkpt lat="47.575363" lon="2.2270842">
        <ele>183</ele>
        <time>2022-05-12T07:05:42Z</time>
      </trkpt>
      <trkpt lat="47.575356" lon="2.2270668">
        <ele>184</ele>
        <time>2022-05-12T07:05:43Z</time>
      </trkpt>
      <trkpt lat="47.575344" lon="2.2270567">
        <ele>184</ele>
        <time>2022-05-12T07:05:44Z</time>
      </trkpt>
      <trkpt lat="47.575333" lon="2.2270343">
        <ele>184</ele>
        <time>2022-05-12T07:05:45Z</time>
      </trkpt>
      <trkpt lat="47.575325" lon="2.2270231">
        <ele>184</ele>
        <time>2022-05-12T07:05:46Z</time>
      </trkpt>
      <trkpt lat="47.575314" lon="2.2270112">
        <ele>184</ele>
        <time>2022-05-12T07:05:47Z</time>
      </trkpt>
      <trkpt lat="47.575306" lon="2.2270026">
        <ele>184</ele>
        <time>2022-05-12T07:05:48Z</time>
      </trkpt>
      <trkpt lat="47.5753" lon="2.226994">
        <ele>184</ele>
        <time>2022-05-12T07:05:49Z</time>
      </trkpt>
      <trkpt lat="47.575294" lon="2.2269845">
        <ele>184</ele>
        <time>2022-05-12T07:05:50Z</time>
      </trkpt>
      <trkpt lat="47.575287" lon="2.2269754">
        <ele>183</ele>
        <time>2022-05-12T07:05:51Z</time>
      </trkpt>
      <trkpt lat="47.575283" lon="2.2269666">
        <ele>183</ele>
        <time>2022-05-12T07:05:52Z</time>
      </trkpt>
      <trkpt lat="47.57527" lon="2.2269504">
        <ele>183</ele>
        <time>2022-05-12T07:05:53Z</time>
      </trkpt>
      <trkpt lat="47.575264" lon="2.2269337">
        <ele>184</ele>
        <time>2022-05-12T07:05:54Z</time>
      </trkpt>
      <trkpt lat="47.575256" lon="2.2269182">
        <ele>184</ele>
        <time>2022-05-12T07:05:55Z</time>
      </trkpt>
      <trkpt lat="47.57525" lon="2.2269046">
        <ele>184</ele>
        <time>2022-05-12T07:05:56Z</time>
      </trkpt>
      <trkpt lat="47.575245" lon="2.2268958">
        <ele>185</ele>
        <time>2022-05-12T07:05:57Z</time>
      </trkpt>
      <trkpt lat="47.575233" lon="2.2268817">
        <ele>185</ele>
        <time>2022-05-12T07:05:58Z</time>
      </trkpt>
      <trkpt lat="47.57523" lon="2.226871">
        <ele>185</ele>
        <time>2022-05-12T07:05:59Z</time>
      </trkpt>
      <trkpt lat="47.575222" lon="2.2268589">
        <ele>185</ele>
        <time>2022-05-12T07:06:00Z</time>
      </trkpt>
      <trkpt lat="47.575214" lon="2.226842">
        <ele>185</ele>
        <time>2022-05-12T07:06:01Z</time>
      </trkpt>
      <trkpt lat="47.575207" lon="2.2268333">
        <ele>185</ele>
        <time>2022-05-12T07:06:02Z</time>
      </trkpt>
      <trkpt lat="47.575203" lon="2.226822">
        <ele>186</ele>
        <time>2022-05-12T07:06:03Z</time>
      </trkpt>
      <trkpt lat="47.575195" lon="2.2268097">
        <ele>186</ele>
        <time>2022-05-12T07:06:04Z</time>
      </trkpt>
      <trkpt lat="47.57519" lon="2.226797">
        <ele>186</ele>
        <time>2022-05-12T07:06:05Z</time>
      </trkpt>
      <trkpt lat="47.575188" lon="2.2267847">
        <ele>185</ele>
        <time>2022-05-12T07:06:06Z</time>
      </trkpt>
      <trkpt lat="47.575184" lon="2.226771">
        <ele>185</ele>
        <time>2022-05-12T07:06:07Z</time>
      </trkpt>
      <trkpt lat="47.57518" lon="2.226756">
        <ele>185</ele>
        <time>2022-05-12T07:06:08Z</time>
      </trkpt>
      <trkpt lat="47.575176" lon="2.2267418">
        <ele>185</ele>
        <time>2022-05-12T07:06:09Z</time>
      </trkpt>
      <trkpt lat="47.57517" lon="2.226723">
        <ele>185</ele>
        <time>2022-05-12T07:06:10Z</time>
      </trkpt>
      <trkpt lat="47.57517" lon="2.2267025">
        <ele>185</ele>
        <time>2022-05-12T07:06:11Z</time>
      </trkpt>
      <trkpt lat="47.575165" lon="2.2266858">
        <ele>185</ele>
        <time>2022-05-12T07:06:12Z</time>
      </trkpt>
      <trkpt lat="47.57517" lon="2.2266738">
        <ele>186</ele>
        <time>2022-05-12T07:06:13Z</time>
      </trkpt>
      <trkpt lat="47.575172" lon="2.2266614">
        <ele>186</ele>
        <time>2022-05-12T07:06:14Z</time>
      </trkpt>
      <trkpt lat="47.575172" lon="2.2266452">
        <ele>186</ele>
        <time>2022-05-12T07:06:15Z</time>
      </trkpt>
      <trkpt lat="47.575172" lon="2.226626">
        <ele>186</ele>
        <time>2022-05-12T07:06:16Z</time>
      </trkpt>
      <trkpt lat="47.57517" lon="2.2266111">
        <ele>186</ele>
        <time>2022-05-12T07:06:17Z</time>
      </trkpt>
      <trkpt lat="47.57516" lon="2.2265983">
        <ele>186</ele>
        <time>2022-05-12T07:06:18Z</time>
      </trkpt>
      <trkpt lat="47.575157" lon="2.2265913">
        <ele>186</ele>
        <time>2022-05-12T07:06:19Z</time>
      </trkpt>
      <trkpt lat="47.575157" lon="2.2265763">
        <ele>186</ele>
        <time>2022-05-12T07:06:20Z</time>
      </trkpt>
      <trkpt lat="47.575153" lon="2.2265644">
        <ele>186</ele>
        <time>2022-05-12T07:06:21Z</time>
      </trkpt>
      <trkpt lat="47.575153" lon="2.2265568">
        <ele>186</ele>
        <time>2022-05-12T07:06:22Z</time>
      </trkpt>
      <trkpt lat="47.575153" lon="2.2265508">
        <ele>185</ele>
        <time>2022-05-12T07:06:23Z</time>
      </trkpt>
      <trkpt lat="47.57515" lon="2.2265377">
        <ele>186</ele>
        <time>2022-05-12T07:06:24Z</time>
      </trkpt>
      <trkpt lat="47.57515" lon="2.2265217">
        <ele>186</ele>
        <time>2022-05-12T07:06:25Z</time>
      </trkpt>
      <trkpt lat="47.575146" lon="2.2265067">
        <ele>186</ele>
        <time>2022-05-12T07:06:26Z</time>
      </trkpt>
      <trkpt lat="47.575146" lon="2.2264926">
        <ele>186</ele>
        <time>2022-05-12T07:06:27Z</time>
      </trkpt>
      <trkpt lat="47.575146" lon="2.2264822">
        <ele>186</ele>
        <time>2022-05-12T07:06:28Z</time>
      </trkpt>
      <trkpt lat="47.57514" lon="2.226467">
        <ele>187</ele>
        <time>2022-05-12T07:06:29Z</time>
      </trkpt>
      <trkpt lat="47.57514" lon="2.226447">
        <ele>187</ele>
        <time>2022-05-12T07:06:30Z</time>
      </trkpt>
      <trkpt lat="47.575138" lon="2.2264245">
        <ele>187</ele>
        <time>2022-05-12T07:06:31Z</time>
      </trkpt>
      <trkpt lat="47.575134" lon="2.2264001">
        <ele>187</ele>
        <time>2022-05-12T07:06:32Z</time>
      </trkpt>
      <trkpt lat="47.57513" lon="2.226375">
        <ele>187</ele>
        <time>2022-05-12T07:06:33Z</time>
      </trkpt>
      <trkpt lat="47.575127" lon="2.2263434">
        <ele>187</ele>
        <time>2022-05-12T07:06:34Z</time>
      </trkpt>
      <trkpt lat="47.57512" lon="2.2263165">
        <ele>187</ele>
        <time>2022-05-12T07:06:35Z</time>
      </trkpt>
      <trkpt lat="47.57512" lon="2.2262926">
        <ele>187</ele>
        <time>2022-05-12T07:06:36Z</time>
      </trkpt>
      <trkpt lat="47.575115" lon="2.2262714">
        <ele>188</ele>
        <time>2022-05-12T07:06:37Z</time>
      </trkpt>
      <trkpt lat="47.57511" lon="2.2262514">
        <ele>188</ele>
        <time>2022-05-12T07:06:38Z</time>
      </trkpt>
      <trkpt lat="47.575115" lon="2.2262363">
        <ele>188</ele>
        <time>2022-05-12T07:06:39Z</time>
      </trkpt>
      <trkpt lat="47.575115" lon="2.2262225">
        <ele>188</ele>
        <time>2022-05-12T07:06:40Z</time>
      </trkpt>
      <trkpt lat="47.575115" lon="2.2262092">
        <ele>188</ele>
        <time>2022-05-12T07:06:41Z</time>
      </trkpt>
      <trkpt lat="47.575108" lon="2.2261925">
        <ele>189</ele>
        <time>2022-05-12T07:06:42Z</time>
      </trkpt>
      <trkpt lat="47.575104" lon="2.22618">
        <ele>189</ele>
        <time>2022-05-12T07:06:43Z</time>
      </trkpt>
      <trkpt lat="47.575104" lon="2.2261655">
        <ele>189</ele>
        <time>2022-05-12T07:06:44Z</time>
      </trkpt>
      <trkpt lat="47.5751" lon="2.2261484">
        <ele>190</ele>
        <time>2022-05-12T07:06:45Z</time>
      </trkpt>
      <trkpt lat="47.575092" lon="2.2261298">
        <ele>190</ele>
        <time>2022-05-12T07:06:46Z</time>
      </trkpt>
      <trkpt lat="47.575085" lon="2.2261178">
        <ele>189</ele>
        <time>2022-05-12T07:06:47Z</time>
      </trkpt>
      <trkpt lat="47.575085" lon="2.2261074">
        <ele>189</ele>
        <time>2022-05-12T07:06:48Z</time>
      </trkpt>
      <trkpt lat="47.57508" lon="2.2260935">
        <ele>189</ele>
        <time>2022-05-12T07:06:49Z</time>
      </trkpt>
      <trkpt lat="47.57508" lon="2.226079">
        <ele>189</ele>
        <time>2022-05-12T07:06:50Z</time>
      </trkpt>
      <trkpt lat="47.575077" lon="2.22606">
        <ele>189</ele>
        <time>2022-05-12T07:06:51Z</time>
      </trkpt>
      <trkpt lat="47.575077" lon="2.2260442">
        <ele>190</ele>
        <time>2022-05-12T07:06:52Z</time>
      </trkpt>
      <trkpt lat="47.575077" lon="2.2260244">
        <ele>190</ele>
        <time>2022-05-12T07:06:53Z</time>
      </trkpt>
      <trkpt lat="47.575077" lon="2.226001">
        <ele>191</ele>
        <time>2022-05-12T07:06:54Z</time>
      </trkpt>
      <trkpt lat="47.575077" lon="2.2259777">
        <ele>191</ele>
        <time>2022-05-12T07:06:55Z</time>
      </trkpt>
      <trkpt lat="47.575077" lon="2.225956">
        <ele>191</ele>
        <time>2022-05-12T07:06:56Z</time>
      </trkpt>
      <trkpt lat="47.575077" lon="2.2259378">
        <ele>191</ele>
        <time>2022-05-12T07:06:57Z</time>
      </trkpt>
      <trkpt lat="47.575077" lon="2.2259238">
        <ele>191</ele>
        <time>2022-05-12T07:06:58Z</time>
      </trkpt>
      <trkpt lat="47.575073" lon="2.2259088">
        <ele>191</ele>
        <time>2022-05-12T07:06:59Z</time>
      </trkpt>
      <trkpt lat="47.575077" lon="2.2258885">
        <ele>191</ele>
        <time>2022-05-12T07:07:00Z</time>
      </trkpt>
      <trkpt lat="47.575077" lon="2.2258642">
        <ele>191</ele>
        <time>2022-05-12T07:07:01Z</time>
      </trkpt>
      <trkpt lat="47.575073" lon="2.2258413">
        <ele>191</ele>
        <time>2022-05-12T07:07:02Z</time>
      </trkpt>
      <trkpt lat="47.57507" lon="2.225819">
        <ele>191</ele>
        <time>2022-05-12T07:07:03Z</time>
      </trkpt>
      <trkpt lat="47.575066" lon="2.225797">
        <ele>191</ele>
        <time>2022-05-12T07:07:04Z</time>
      </trkpt>
      <trkpt lat="47.57506" lon="2.2257764">
        <ele>191</ele>
        <time>2022-05-12T07:07:05Z</time>
      </trkpt>
      <trkpt lat="47.575066" lon="2.2257583">
        <ele>191</ele>
        <time>2022-05-12T07:07:06Z</time>
      </trkpt>
      <trkpt lat="47.57507" lon="2.2257397">
        <ele>191</ele>
        <time>2022-05-12T07:07:07Z</time>
      </trkpt>
      <trkpt lat="47.575073" lon="2.2257226">
        <ele>191</ele>
        <time>2022-05-12T07:07:08Z</time>
      </trkpt>
      <trkpt lat="47.575077" lon="2.2257059">
        <ele>191</ele>
        <time>2022-05-12T07:07:09Z</time>
      </trkpt>
      <trkpt lat="47.575077" lon="2.2256873">
        <ele>191</ele>
        <time>2022-05-12T07:07:10Z</time>
      </trkpt>
      <trkpt lat="47.575073" lon="2.2256691">
        <ele>191</ele>
        <time>2022-05-12T07:07:11Z</time>
      </trkpt>
      <trkpt lat="47.575073" lon="2.225652">
        <ele>192</ele>
        <time>2022-05-12T07:07:12Z</time>
      </trkpt>
      <trkpt lat="47.57507" lon="2.225637">
        <ele>192</ele>
        <time>2022-05-12T07:07:13Z</time>
      </trkpt>
      <trkpt lat="47.575066" lon="2.2256238">
        <ele>192</ele>
        <time>2022-05-12T07:07:14Z</time>
      </trkpt>
      <trkpt lat="47.57506" lon="2.225609">
        <ele>192</ele>
        <time>2022-05-12T07:07:15Z</time>
      </trkpt>
      <trkpt lat="47.575054" lon="2.2255929">
        <ele>192</ele>
        <time>2022-05-12T07:07:16Z</time>
      </trkpt>
      <trkpt lat="47.575043" lon="2.2255774">
        <ele>192</ele>
        <time>2022-05-12T07:07:17Z</time>
      </trkpt>
      <trkpt lat="47.57504" lon="2.2255585">
        <ele>192</ele>
        <time>2022-05-12T07:07:18Z</time>
      </trkpt>
      <trkpt lat="47.57503" lon="2.2255402">
        <ele>192</ele>
        <time>2022-05-12T07:07:19Z</time>
      </trkpt>
      <trkpt lat="47.575024" lon="2.2255216">
        <ele>192</ele>
        <time>2022-05-12T07:07:20Z</time>
      </trkpt>
      <trkpt lat="47.57502" lon="2.2254996">
        <ele>192</ele>
        <time>2022-05-12T07:07:21Z</time>
      </trkpt>
      <trkpt lat="47.575016" lon="2.2254827">
        <ele>193</ele>
        <time>2022-05-12T07:07:22Z</time>
      </trkpt>
      <trkpt lat="47.575016" lon="2.2254653">
        <ele>193</ele>
        <time>2022-05-12T07:07:23Z</time>
      </trkpt>
      <trkpt lat="47.575012" lon="2.2254472">
        <ele>193</ele>
        <time>2022-05-12T07:07:24Z</time>
      </trkpt>
      <trkpt lat="47.57501" lon="2.225426">
        <ele>193</ele>
        <time>2022-05-12T07:07:25Z</time>
      </trkpt>
      <trkpt lat="47.575005" lon="2.2254026">
        <ele>193</ele>
        <time>2022-05-12T07:07:26Z</time>
      </trkpt>
      <trkpt lat="47.575005" lon="2.2253873">
        <ele>193</ele>
        <time>2022-05-12T07:07:27Z</time>
      </trkpt>
      <trkpt lat="47.574997" lon="2.225371">
        <ele>193</ele>
        <time>2022-05-12T07:07:28Z</time>
      </trkpt>
      <trkpt lat="47.574993" lon="2.225351">
        <ele>193</ele>
        <time>2022-05-12T07:07:29Z</time>
      </trkpt>
      <trkpt lat="47.57499" lon="2.22533">
        <ele>194</ele>
        <time>2022-05-12T07:07:30Z</time>
      </trkpt>
      <trkpt lat="47.57498" lon="2.2253098">
        <ele>194</ele>
        <time>2022-05-12T07:07:31Z</time>
      </trkpt>
      <trkpt lat="47.57498" lon="2.225297">
        <ele>194</ele>
        <time>2022-05-12T07:07:32Z</time>
      </trkpt>
      <trkpt lat="47.57498" lon="2.225279">
        <ele>194</ele>
        <time>2022-05-12T07:07:33Z</time>
      </trkpt>
      <trkpt lat="47.57498" lon="2.2252629">
        <ele>194</ele>
        <time>2022-05-12T07:07:34Z</time>
      </trkpt>
      <trkpt lat="47.57498" lon="2.225243">
        <ele>194</ele>
        <time>2022-05-12T07:07:35Z</time>
      </trkpt>
      <trkpt lat="47.57498" lon="2.2252254">
        <ele>194</ele>
        <time>2022-05-12T07:07:36Z</time>
      </trkpt>
      <trkpt lat="47.574986" lon="2.2252064">
        <ele>194</ele>
        <time>2022-05-12T07:07:37Z</time>
      </trkpt>
      <trkpt lat="47.57499" lon="2.2251842">
        <ele>194</ele>
        <time>2022-05-12T07:07:38Z</time>
      </trkpt>
      <trkpt lat="47.574993" lon="2.2251596">
        <ele>194</ele>
        <time>2022-05-12T07:07:39Z</time>
      </trkpt>
      <trkpt lat="47.574993" lon="2.2251406">
        <ele>194</ele>
        <time>2022-05-12T07:07:40Z</time>
      </trkpt>
      <trkpt lat="47.574997" lon="2.225119">
        <ele>194</ele>
        <time>2022-05-12T07:07:41Z</time>
      </trkpt>
      <trkpt lat="47.574997" lon="2.2250998">
        <ele>194</ele>
        <time>2022-05-12T07:07:42Z</time>
      </trkpt>
      <trkpt lat="47.574997" lon="2.225081">
        <ele>194</ele>
        <time>2022-05-12T07:07:43Z</time>
      </trkpt>
      <trkpt lat="47.574997" lon="2.225066">
        <ele>194</ele>
        <time>2022-05-12T07:07:44Z</time>
      </trkpt>
      <trkpt lat="47.57499" lon="2.2250516">
        <ele>194</ele>
        <time>2022-05-12T07:07:45Z</time>
      </trkpt>
      <trkpt lat="47.574993" lon="2.2250311">
        <ele>194</ele>
        <time>2022-05-12T07:07:46Z</time>
      </trkpt>
      <trkpt lat="47.574997" lon="2.225012">
        <ele>194</ele>
        <time>2022-05-12T07:07:47Z</time>
      </trkpt>
      <trkpt lat="47.574993" lon="2.2249925">
        <ele>194</ele>
        <time>2022-05-12T07:07:48Z</time>
      </trkpt>
      <trkpt lat="47.57499" lon="2.224975">
        <ele>194</ele>
        <time>2022-05-12T07:07:49Z</time>
      </trkpt>
      <trkpt lat="47.574986" lon="2.2249596">
        <ele>194</ele>
        <time>2022-05-12T07:07:50Z</time>
      </trkpt>
      <trkpt lat="47.57498" lon="2.2249444">
        <ele>194</ele>
        <time>2022-05-12T07:07:51Z</time>
      </trkpt>
      <trkpt lat="47.57498" lon="2.2249272">
        <ele>194</ele>
        <time>2022-05-12T07:07:52Z</time>
      </trkpt>
      <trkpt lat="47.574986" lon="2.2249084">
        <ele>194</ele>
        <time>2022-05-12T07:07:53Z</time>
      </trkpt>
      <trkpt lat="47.574986" lon="2.2248988">
        <ele>194</ele>
        <time>2022-05-12T07:07:54Z</time>
      </trkpt>
      <trkpt lat="47.574986" lon="2.2248898">
        <ele>194</ele>
        <time>2022-05-12T07:07:55Z</time>
      </trkpt>
      <trkpt lat="47.57498" lon="2.2248785">
        <ele>193</ele>
        <time>2022-05-12T07:07:56Z</time>
      </trkpt>
      <trkpt lat="47.574986" lon="2.2248633">
        <ele>193</ele>
        <time>2022-05-12T07:07:57Z</time>
      </trkpt>
      <trkpt lat="47.574986" lon="2.224846">
        <ele>193</ele>
        <time>2022-05-12T07:07:58Z</time>
      </trkpt>
      <trkpt lat="47.57498" lon="2.2248278">
        <ele>193</ele>
        <time>2022-05-12T07:07:59Z</time>
      </trkpt>
      <trkpt lat="47.574978" lon="2.2248034">
        <ele>193</ele>
        <time>2022-05-12T07:08:00Z</time>
      </trkpt>
      <trkpt lat="47.574978" lon="2.2247834">
        <ele>193</ele>
        <time>2022-05-12T07:08:01Z</time>
      </trkpt>
      <trkpt lat="47.57498" lon="2.2247624">
        <ele>193</ele>
        <time>2022-05-12T07:08:02Z</time>
      </trkpt>
      <trkpt lat="47.574978" lon="2.2247458">
        <ele>193</ele>
        <time>2022-05-12T07:08:03Z</time>
      </trkpt>
      <trkpt lat="47.574978" lon="2.2247286">
        <ele>192</ele>
        <time>2022-05-12T07:08:04Z</time>
      </trkpt>
      <trkpt lat="47.574974" lon="2.22471">
        <ele>192</ele>
        <time>2022-05-12T07:08:05Z</time>
      </trkpt>
      <trkpt lat="47.57497" lon="2.22469">
        <ele>192</ele>
        <time>2022-05-12T07:08:06Z</time>
      </trkpt>
      <trkpt lat="47.57497" lon="2.2246697">
        <ele>192</ele>
        <time>2022-05-12T07:08:07Z</time>
      </trkpt>
      <trkpt lat="47.57497" lon="2.2246473">
        <ele>192</ele>
        <time>2022-05-12T07:08:08Z</time>
      </trkpt>
      <trkpt lat="47.574974" lon="2.2246323">
        <ele>192</ele>
        <time>2022-05-12T07:08:09Z</time>
      </trkpt>
      <trkpt lat="47.574974" lon="2.2246132">
        <ele>191</ele>
        <time>2022-05-12T07:08:10Z</time>
      </trkpt>
      <trkpt lat="47.574974" lon="2.2245977">
        <ele>191</ele>
        <time>2022-05-12T07:08:11Z</time>
      </trkpt>
      <trkpt lat="47.57497" lon="2.224575">
        <ele>191</ele>
        <time>2022-05-12T07:08:12Z</time>
      </trkpt>
      <trkpt lat="47.57497" lon="2.2245533">
        <ele>191</ele>
        <time>2022-05-12T07:08:13Z</time>
      </trkpt>
      <trkpt lat="47.57497" lon="2.2245324">
        <ele>192</ele>
        <time>2022-05-12T07:08:14Z</time>
      </trkpt>
      <trkpt lat="47.57497" lon="2.224514">
        <ele>192</ele>
        <time>2022-05-12T07:08:15Z</time>
      </trkpt>
      <trkpt lat="47.574966" lon="2.2245004">
        <ele>192</ele>
        <time>2022-05-12T07:08:16Z</time>
      </trkpt>
      <trkpt lat="47.57497" lon="2.2244852">
        <ele>193</ele>
        <time>2022-05-12T07:08:17Z</time>
      </trkpt>
      <trkpt lat="47.574974" lon="2.2244706">
        <ele>193</ele>
        <time>2022-05-12T07:08:18Z</time>
      </trkpt>
      <trkpt lat="47.574974" lon="2.2244537">
        <ele>193</ele>
        <time>2022-05-12T07:08:19Z</time>
      </trkpt>
      <trkpt lat="47.574974" lon="2.2244365">
        <ele>193</ele>
        <time>2022-05-12T07:08:20Z</time>
      </trkpt>
      <trkpt lat="47.574974" lon="2.2244186">
        <ele>194</ele>
        <time>2022-05-12T07:08:21Z</time>
      </trkpt>
      <trkpt lat="47.574978" lon="2.2244015">
        <ele>193</ele>
        <time>2022-05-12T07:08:22Z</time>
      </trkpt>
      <trkpt lat="47.574978" lon="2.224383">
        <ele>193</ele>
        <time>2022-05-12T07:08:23Z</time>
      </trkpt>
      <trkpt lat="47.574978" lon="2.2243643">
        <ele>193</ele>
        <time>2022-05-12T07:08:24Z</time>
      </trkpt>
      <trkpt lat="47.574978" lon="2.2243438">
        <ele>193</ele>
        <time>2022-05-12T07:08:25Z</time>
      </trkpt>
      <trkpt lat="47.57497" lon="2.2243237">
        <ele>193</ele>
        <time>2022-05-12T07:08:26Z</time>
      </trkpt>
      <trkpt lat="47.57497" lon="2.2243042">
        <ele>193</ele>
        <time>2022-05-12T07:08:27Z</time>
      </trkpt>
      <trkpt lat="47.574966" lon="2.2242825">
        <ele>193</ele>
        <time>2022-05-12T07:08:28Z</time>
      </trkpt>
      <trkpt lat="47.574963" lon="2.2242599">
        <ele>193</ele>
        <time>2022-05-12T07:08:29Z</time>
      </trkpt>
      <trkpt lat="47.574955" lon="2.2242396">
        <ele>193</ele>
        <time>2022-05-12T07:08:30Z</time>
      </trkpt>
      <trkpt lat="47.574955" lon="2.2242255">
        <ele>193</ele>
        <time>2022-05-12T07:08:31Z</time>
      </trkpt>
      <trkpt lat="47.574955" lon="2.2242088">
        <ele>193</ele>
        <time>2022-05-12T07:08:32Z</time>
      </trkpt>
      <trkpt lat="47.57496" lon="2.2241936">
        <ele>193</ele>
        <time>2022-05-12T07:08:33Z</time>
      </trkpt>
      <trkpt lat="47.57496" lon="2.2241776">
        <ele>193</ele>
        <time>2022-05-12T07:08:34Z</time>
      </trkpt>
      <trkpt lat="47.574963" lon="2.2241561">
        <ele>194</ele>
        <time>2022-05-12T07:08:35Z</time>
      </trkpt>
      <trkpt lat="47.574966" lon="2.224138">
        <ele>194</ele>
        <time>2022-05-12T07:08:36Z</time>
      </trkpt>
      <trkpt lat="47.574966" lon="2.2241194">
        <ele>194</ele>
        <time>2022-05-12T07:08:37Z</time>
      </trkpt>
      <trkpt lat="47.574966" lon="2.2241013">
        <ele>194</ele>
        <time>2022-05-12T07:08:38Z</time>
      </trkpt>
      <trkpt lat="47.574963" lon="2.2240834">
        <ele>194</ele>
        <time>2022-05-12T07:08:39Z</time>
      </trkpt>
      <trkpt lat="47.57496" lon="2.2240627">
        <ele>194</ele>
        <time>2022-05-12T07:08:40Z</time>
      </trkpt>
      <trkpt lat="47.57496" lon="2.2240407">
        <ele>194</ele>
        <time>2022-05-12T07:08:41Z</time>
      </trkpt>
      <trkpt lat="47.57496" lon="2.2240212">
        <ele>194</ele>
        <time>2022-05-12T07:08:42Z</time>
      </trkpt>
      <trkpt lat="47.57496" lon="2.224003">
        <ele>194</ele>
        <time>2022-05-12T07:08:43Z</time>
      </trkpt>
      <trkpt lat="47.574955" lon="2.2239847">
        <ele>194</ele>
        <time>2022-05-12T07:08:44Z</time>
      </trkpt>
      <trkpt lat="47.574955" lon="2.223969">
        <ele>194</ele>
        <time>2022-05-12T07:08:45Z</time>
      </trkpt>
      <trkpt lat="47.574955" lon="2.22395">
        <ele>195</ele>
        <time>2022-05-12T07:08:46Z</time>
      </trkpt>
      <trkpt lat="47.574955" lon="2.2239316">
        <ele>195</ele>
        <time>2022-05-12T07:08:47Z</time>
      </trkpt>
      <trkpt lat="47.574955" lon="2.2239192">
        <ele>195</ele>
        <time>2022-05-12T07:08:48Z</time>
      </trkpt>
      <trkpt lat="47.574955" lon="2.2239056">
        <ele>195</ele>
        <time>2022-05-12T07:08:49Z</time>
      </trkpt>
      <trkpt lat="47.574955" lon="2.2238903">
        <ele>195</ele>
        <time>2022-05-12T07:08:50Z</time>
      </trkpt>
      <trkpt lat="47.57496" lon="2.223874">
        <ele>195</ele>
        <time>2022-05-12T07:08:51Z</time>
      </trkpt>
      <trkpt lat="47.574963" lon="2.2238588">
        <ele>195</ele>
        <time>2022-05-12T07:08:52Z</time>
      </trkpt>
      <trkpt lat="47.574966" lon="2.2238452">
        <ele>195</ele>
        <time>2022-05-12T07:08:53Z</time>
      </trkpt>
      <trkpt lat="47.574966" lon="2.2238314">
        <ele>195</ele>
        <time>2022-05-12T07:08:54Z</time>
      </trkpt>
      <trkpt lat="47.574966" lon="2.2238104">
        <ele>195</ele>
        <time>2022-05-12T07:08:55Z</time>
      </trkpt>
      <trkpt lat="47.574974" lon="2.2237911">
        <ele>196</ele>
        <time>2022-05-12T07:08:56Z</time>
      </trkpt>
      <trkpt lat="47.57497" lon="2.22377">
        <ele>196</ele>
        <time>2022-05-12T07:08:57Z</time>
      </trkpt>
      <trkpt lat="47.57497" lon="2.2237484">
        <ele>195</ele>
        <time>2022-05-12T07:08:58Z</time>
      </trkpt>
      <trkpt lat="47.57497" lon="2.2237282">
        <ele>195</ele>
        <time>2022-05-12T07:08:59Z</time>
      </trkpt>
      <trkpt lat="47.57497" lon="2.2237115">
        <ele>195</ele>
        <time>2022-05-12T07:09:00Z</time>
      </trkpt>
      <trkpt lat="47.574966" lon="2.2236943">
        <ele>195</ele>
        <time>2022-05-12T07:09:01Z</time>
      </trkpt>
      <trkpt lat="47.57497" lon="2.223677">
        <ele>195</ele>
        <time>2022-05-12T07:09:02Z</time>
      </trkpt>
      <trkpt lat="47.57497" lon="2.2236602">
        <ele>195</ele>
        <time>2022-05-12T07:09:03Z</time>
      </trkpt>
      <trkpt lat="47.57497" lon="2.2236438">
        <ele>195</ele>
        <time>2022-05-12T07:09:04Z</time>
      </trkpt>
      <trkpt lat="47.574974" lon="2.2236285">
        <ele>195</ele>
        <time>2022-05-12T07:09:05Z</time>
      </trkpt>
      <trkpt lat="47.574978" lon="2.2236142">
        <ele>195</ele>
        <time>2022-05-12T07:09:06Z</time>
      </trkpt>
      <trkpt lat="47.574978" lon="2.2236004">
        <ele>195</ele>
        <time>2022-05-12T07:09:07Z</time>
      </trkpt>
      <trkpt lat="47.57498" lon="2.2235868">
        <ele>195</ele>
        <time>2022-05-12T07:09:08Z</time>
      </trkpt>
      <trkpt lat="47.57498" lon="2.223575">
        <ele>195</ele>
        <time>2022-05-12T07:09:09Z</time>
      </trkpt>
      <trkpt lat="47.574978" lon="2.2235577">
        <ele>194</ele>
        <time>2022-05-12T07:09:10Z</time>
      </trkpt>
      <trkpt lat="47.574974" lon="2.2235413">
        <ele>194</ele>
        <time>2022-05-12T07:09:11Z</time>
      </trkpt>
      <trkpt lat="47.57497" lon="2.2235234">
        <ele>194</ele>
        <time>2022-05-12T07:09:12Z</time>
      </trkpt>
      <trkpt lat="47.57497" lon="2.2235057">
        <ele>193</ele>
        <time>2022-05-12T07:09:13Z</time>
      </trkpt>
      <trkpt lat="47.57497" lon="2.223485">
        <ele>193</ele>
        <time>2022-05-12T07:09:14Z</time>
      </trkpt>
      <trkpt lat="47.574966" lon="2.2234628">
        <ele>193</ele>
        <time>2022-05-12T07:09:15Z</time>
      </trkpt>
      <trkpt lat="47.574966" lon="2.2234411">
        <ele>193</ele>
        <time>2022-05-12T07:09:16Z</time>
      </trkpt>
      <trkpt lat="47.574963" lon="2.2234216">
        <ele>193</ele>
        <time>2022-05-12T07:09:17Z</time>
      </trkpt>
      <trkpt lat="47.57496" lon="2.2233994">
        <ele>192</ele>
        <time>2022-05-12T07:09:18Z</time>
      </trkpt>
      <trkpt lat="47.574955" lon="2.2233796">
        <ele>193</ele>
        <time>2022-05-12T07:09:19Z</time>
      </trkpt>
      <trkpt lat="47.57495" lon="2.223362">
        <ele>193</ele>
        <time>2022-05-12T07:09:20Z</time>
      </trkpt>
      <trkpt lat="47.574947" lon="2.2233422">
        <ele>193</ele>
        <time>2022-05-12T07:09:21Z</time>
      </trkpt>
      <trkpt lat="47.574947" lon="2.223326">
        <ele>193</ele>
        <time>2022-05-12T07:09:22Z</time>
      </trkpt>
      <trkpt lat="47.574944" lon="2.2233074">
        <ele>193</ele>
        <time>2022-05-12T07:09:23Z</time>
      </trkpt>
      <trkpt lat="47.574944" lon="2.2232828">
        <ele>192</ele>
        <time>2022-05-12T07:09:24Z</time>
      </trkpt>
      <trkpt lat="47.574936" lon="2.2232633">
        <ele>193</ele>
        <time>2022-05-12T07:09:25Z</time>
      </trkpt>
      <trkpt lat="47.574936" lon="2.223242">
        <ele>193</ele>
        <time>2022-05-12T07:09:26Z</time>
      </trkpt>
      <trkpt lat="47.57494" lon="2.223225">
        <ele>193</ele>
        <time>2022-05-12T07:09:27Z</time>
      </trkpt>
      <trkpt lat="47.57494" lon="2.2232077">
        <ele>194</ele>
        <time>2022-05-12T07:09:28Z</time>
      </trkpt>
      <trkpt lat="47.57494" lon="2.223193">
        <ele>194</ele>
        <time>2022-05-12T07:09:29Z</time>
      </trkpt>
      <trkpt lat="47.57494" lon="2.2231755">
        <ele>194</ele>
        <time>2022-05-12T07:09:30Z</time>
      </trkpt>
      <trkpt lat="47.57494" lon="2.2231636">
        <ele>194</ele>
        <time>2022-05-12T07:09:31Z</time>
      </trkpt>
      <trkpt lat="47.57494" lon="2.2231474">
        <ele>194</ele>
        <time>2022-05-12T07:09:32Z</time>
      </trkpt>
      <trkpt lat="47.574947" lon="2.2231317">
        <ele>194</ele>
        <time>2022-05-12T07:09:33Z</time>
      </trkpt>
      <trkpt lat="47.574947" lon="2.223112">
        <ele>194</ele>
        <time>2022-05-12T07:09:34Z</time>
      </trkpt>
      <trkpt lat="47.574944" lon="2.223094">
        <ele>195</ele>
        <time>2022-05-12T07:09:35Z</time>
      </trkpt>
      <trkpt lat="47.57494" lon="2.2230792">
        <ele>195</ele>
        <time>2022-05-12T07:09:36Z</time>
      </trkpt>
      <trkpt lat="47.574944" lon="2.2230597">
        <ele>194</ele>
        <time>2022-05-12T07:09:37Z</time>
      </trkpt>
      <trkpt lat="47.574944" lon="2.2230408">
        <ele>194</ele>
        <time>2022-05-12T07:09:38Z</time>
      </trkpt>
      <trkpt lat="47.574944" lon="2.2230184">
        <ele>194</ele>
        <time>2022-05-12T07:09:39Z</time>
      </trkpt>
      <trkpt lat="47.57494" lon="2.223">
        <ele>194</ele>
        <time>2022-05-12T07:09:40Z</time>
      </trkpt>
      <trkpt lat="47.57494" lon="2.2229753">
        <ele>194</ele>
        <time>2022-05-12T07:09:41Z</time>
      </trkpt>
      <trkpt lat="47.57494" lon="2.2229583">
        <ele>194</ele>
        <time>2022-05-12T07:09:42Z</time>
      </trkpt>
      <trkpt lat="47.57494" lon="2.2229402">
        <ele>194</ele>
        <time>2022-05-12T07:09:43Z</time>
      </trkpt>
      <trkpt lat="47.57494" lon="2.2229233">
        <ele>194</ele>
        <time>2022-05-12T07:09:44Z</time>
      </trkpt>
      <trkpt lat="47.574944" lon="2.2229066">
        <ele>193</ele>
        <time>2022-05-12T07:09:45Z</time>
      </trkpt>
      <trkpt lat="47.574944" lon="2.2228904">
        <ele>193</ele>
        <time>2022-05-12T07:09:46Z</time>
      </trkpt>
      <trkpt lat="47.574944" lon="2.222874">
        <ele>193</ele>
        <time>2022-05-12T07:09:47Z</time>
      </trkpt>
      <trkpt lat="47.574947" lon="2.222858">
        <ele>193</ele>
        <time>2022-05-12T07:09:48Z</time>
      </trkpt>
      <trkpt lat="47.57495" lon="2.2228389">
        <ele>193</ele>
        <time>2022-05-12T07:09:49Z</time>
      </trkpt>
      <trkpt lat="47.57495" lon="2.2228158">
        <ele>193</ele>
        <time>2022-05-12T07:09:50Z</time>
      </trkpt>
      <trkpt lat="47.57495" lon="2.2227979">
        <ele>193</ele>
        <time>2022-05-12T07:09:51Z</time>
      </trkpt>
      <trkpt lat="47.57495" lon="2.2227788">
        <ele>193</ele>
        <time>2022-05-12T07:09:52Z</time>
      </trkpt>
      <trkpt lat="47.574947" lon="2.2227585">
        <ele>193</ele>
        <time>2022-05-12T07:09:53Z</time>
      </trkpt>
      <trkpt lat="47.574947" lon="2.2227387">
        <ele>193</ele>
        <time>2022-05-12T07:09:54Z</time>
      </trkpt>
      <trkpt lat="47.57495" lon="2.222721">
        <ele>193</ele>
        <time>2022-05-12T07:09:55Z</time>
      </trkpt>
      <trkpt lat="47.57495" lon="2.2227066">
        <ele>193</ele>
        <time>2022-05-12T07:09:56Z</time>
      </trkpt>
      <trkpt lat="47.57495" lon="2.2226899">
        <ele>193</ele>
        <time>2022-05-12T07:09:57Z</time>
      </trkpt>
      <trkpt lat="47.574947" lon="2.222668">
        <ele>193</ele>
        <time>2022-05-12T07:09:58Z</time>
      </trkpt>
      <trkpt lat="47.574947" lon="2.2226474">
        <ele>193</ele>
        <time>2022-05-12T07:09:59Z</time>
      </trkpt>
      <trkpt lat="47.574947" lon="2.2226307">
        <ele>193</ele>
        <time>2022-05-12T07:10:00Z</time>
      </trkpt>
      <trkpt lat="47.574947" lon="2.2226145">
        <ele>193</ele>
        <time>2022-05-12T07:10:01Z</time>
      </trkpt>
      <trkpt lat="47.574947" lon="2.2225971">
        <ele>193</ele>
        <time>2022-05-12T07:10:02Z</time>
      </trkpt>
      <trkpt lat="47.574944" lon="2.2225797">
        <ele>193</ele>
        <time>2022-05-12T07:10:03Z</time>
      </trkpt>
      <trkpt lat="47.574944" lon="2.222563">
        <ele>193</ele>
        <time>2022-05-12T07:10:04Z</time>
      </trkpt>
      <trkpt lat="47.574944" lon="2.2225473">
        <ele>192</ele>
        <time>2022-05-12T07:10:05Z</time>
      </trkpt>
      <trkpt lat="47.574944" lon="2.2225275">
        <ele>193</ele>
        <time>2022-05-12T07:10:06Z</time>
      </trkpt>
      <trkpt lat="47.574944" lon="2.2225096">
        <ele>192</ele>
        <time>2022-05-12T07:10:07Z</time>
      </trkpt>
      <trkpt lat="47.574944" lon="2.2224925">
        <ele>192</ele>
        <time>2022-05-12T07:10:08Z</time>
      </trkpt>
      <trkpt lat="47.574944" lon="2.2224762">
        <ele>193</ele>
        <time>2022-05-12T07:10:09Z</time>
      </trkpt>
      <trkpt lat="47.574947" lon="2.222461">
        <ele>192</ele>
        <time>2022-05-12T07:10:10Z</time>
      </trkpt>
      <trkpt lat="47.574947" lon="2.2224479">
        <ele>192</ele>
        <time>2022-05-12T07:10:11Z</time>
      </trkpt>
      <trkpt lat="47.574947" lon="2.2224352">
        <ele>192</ele>
        <time>2022-05-12T07:10:12Z</time>
      </trkpt>
      <trkpt lat="47.574947" lon="2.2224188">
        <ele>192</ele>
        <time>2022-05-12T07:10:13Z</time>
      </trkpt>
      <trkpt lat="47.574947" lon="2.222401">
        <ele>192</ele>
        <time>2022-05-12T07:10:14Z</time>
      </trkpt>
      <trkpt lat="47.574944" lon="2.22238">
        <ele>192</ele>
        <time>2022-05-12T07:10:15Z</time>
      </trkpt>
      <trkpt lat="47.574944" lon="2.222356">
        <ele>192</ele>
        <time>2022-05-12T07:10:16Z</time>
      </trkpt>
      <trkpt lat="47.57494" lon="2.2223346">
        <ele>192</ele>
        <time>2022-05-12T07:10:17Z</time>
      </trkpt>
      <trkpt lat="47.57494" lon="2.2223127">
        <ele>192</ele>
        <time>2022-05-12T07:10:18Z</time>
      </trkpt>
      <trkpt lat="47.57494" lon="2.2222965">
        <ele>191</ele>
        <time>2022-05-12T07:10:19Z</time>
      </trkpt>
      <trkpt lat="47.574944" lon="2.2222834">
        <ele>192</ele>
        <time>2022-05-12T07:10:20Z</time>
      </trkpt>
      <trkpt lat="47.574944" lon="2.2222633">
        <ele>192</ele>
        <time>2022-05-12T07:10:21Z</time>
      </trkpt>
      <trkpt lat="47.574944" lon="2.2222447">
        <ele>192</ele>
        <time>2022-05-12T07:10:22Z</time>
      </trkpt>
      <trkpt lat="47.574947" lon="2.222228">
        <ele>192</ele>
        <time>2022-05-12T07:10:23Z</time>
      </trkpt>
      <trkpt lat="47.57495" lon="2.2222064">
        <ele>192</ele>
        <time>2022-05-12T07:10:24Z</time>
      </trkpt>
      <trkpt lat="47.57495" lon="2.2221894">
        <ele>192</ele>
        <time>2022-05-12T07:10:25Z</time>
      </trkpt>
      <trkpt lat="47.574955" lon="2.2221699">
        <ele>193</ele>
        <time>2022-05-12T07:10:26Z</time>
      </trkpt>
      <trkpt lat="47.57496" lon="2.2221527">
        <ele>192</ele>
        <time>2022-05-12T07:10:27Z</time>
      </trkpt>
      <trkpt lat="47.57496" lon="2.2221339">
        <ele>193</ele>
        <time>2022-05-12T07:10:28Z</time>
      </trkpt>
      <trkpt lat="47.574955" lon="2.2221158">
        <ele>193</ele>
        <time>2022-05-12T07:10:29Z</time>
      </trkpt>
      <trkpt lat="47.574955" lon="2.2220984">
        <ele>193</ele>
        <time>2022-05-12T07:10:30Z</time>
      </trkpt>
      <trkpt lat="47.574955" lon="2.2220836">
        <ele>194</ele>
        <time>2022-05-12T07:10:31Z</time>
      </trkpt>
      <trkpt lat="47.574955" lon="2.2220685">
        <ele>194</ele>
        <time>2022-05-12T07:10:32Z</time>
      </trkpt>
      <trkpt lat="47.574963" lon="2.2220545">
        <ele>194</ele>
        <time>2022-05-12T07:10:33Z</time>
      </trkpt>
      <trkpt lat="47.574966" lon="2.2220397">
        <ele>194</ele>
        <time>2022-05-12T07:10:34Z</time>
      </trkpt>
      <trkpt lat="47.574963" lon="2.2220218">
        <ele>194</ele>
        <time>2022-05-12T07:10:35Z</time>
      </trkpt>
      <trkpt lat="47.574963" lon="2.222005">
        <ele>194</ele>
        <time>2022-05-12T07:10:36Z</time>
      </trkpt>
      <trkpt lat="47.574963" lon="2.2219853">
        <ele>194</ele>
        <time>2022-05-12T07:10:37Z</time>
      </trkpt>
      <trkpt lat="47.57496" lon="2.2219682">
        <ele>194</ele>
        <time>2022-05-12T07:10:38Z</time>
      </trkpt>
      <trkpt lat="47.574955" lon="2.2219465">
        <ele>194</ele>
        <time>2022-05-12T07:10:39Z</time>
      </trkpt>
      <trkpt lat="47.57496" lon="2.2219286">
        <ele>194</ele>
        <time>2022-05-12T07:10:40Z</time>
      </trkpt>
      <trkpt lat="47.574963" lon="2.2219098">
        <ele>193</ele>
        <time>2022-05-12T07:10:41Z</time>
      </trkpt>
      <trkpt lat="47.574963" lon="2.221888">
        <ele>193</ele>
        <time>2022-05-12T07:10:42Z</time>
      </trkpt>
      <trkpt lat="47.574963" lon="2.2218673">
        <ele>193</ele>
        <time>2022-05-12T07:10:43Z</time>
      </trkpt>
      <trkpt lat="47.574966" lon="2.2218487">
        <ele>193</ele>
        <time>2022-05-12T07:10:44Z</time>
      </trkpt>
      <trkpt lat="47.574963" lon="2.221832">
        <ele>193</ele>
        <time>2022-05-12T07:10:45Z</time>
      </trkpt>
      <trkpt lat="47.57496" lon="2.221816">
        <ele>193</ele>
        <time>2022-05-12T07:10:46Z</time>
      </trkpt>
      <trkpt lat="47.574955" lon="2.2218008">
        <ele>193</ele>
        <time>2022-05-12T07:10:47Z</time>
      </trkpt>
      <trkpt lat="47.574955" lon="2.2217839">
        <ele>193</ele>
        <time>2022-05-12T07:10:48Z</time>
      </trkpt>
      <trkpt lat="47.57496" lon="2.2217667">
        <ele>193</ele>
        <time>2022-05-12T07:10:49Z</time>
      </trkpt>
      <trkpt lat="47.574963" lon="2.2217488">
        <ele>193</ele>
        <time>2022-05-12T07:10:50Z</time>
      </trkpt>
      <trkpt lat="47.574963" lon="2.22173">
        <ele>193</ele>
        <time>2022-05-12T07:10:51Z</time>
      </trkpt>
      <trkpt lat="47.574963" lon="2.2217102">
        <ele>193</ele>
        <time>2022-05-12T07:10:52Z</time>
      </trkpt>
      <trkpt lat="47.57496" lon="2.2216892">
        <ele>192</ele>
        <time>2022-05-12T07:10:53Z</time>
      </trkpt>
      <trkpt lat="47.574963" lon="2.2216673">
        <ele>192</ele>
        <time>2022-05-12T07:10:54Z</time>
      </trkpt>
      <trkpt lat="47.574963" lon="2.221646">
        <ele>193</ele>
        <time>2022-05-12T07:10:55Z</time>
      </trkpt>
      <trkpt lat="47.574966" lon="2.2216291">
        <ele>193</ele>
        <time>2022-05-12T07:10:56Z</time>
      </trkpt>
      <trkpt lat="47.574966" lon="2.2216148">
        <ele>192</ele>
        <time>2022-05-12T07:10:57Z</time>
      </trkpt>
      <trkpt lat="47.574966" lon="2.2216008">
        <ele>192</ele>
        <time>2022-05-12T07:10:58Z</time>
      </trkpt>
      <trkpt lat="47.574966" lon="2.221585">
        <ele>192</ele>
        <time>2022-05-12T07:10:59Z</time>
      </trkpt>
      <trkpt lat="47.574966" lon="2.2215633">
        <ele>192</ele>
        <time>2022-05-12T07:11:00Z</time>
      </trkpt>
      <trkpt lat="47.574963" lon="2.2215455">
        <ele>192</ele>
        <time>2022-05-12T07:11:01Z</time>
      </trkpt>
      <trkpt lat="47.574955" lon="2.2215252">
        <ele>192</ele>
        <time>2022-05-12T07:11:02Z</time>
      </trkpt>
      <trkpt lat="47.574955" lon="2.2215087">
        <ele>191</ele>
        <time>2022-05-12T07:11:03Z</time>
      </trkpt>
      <trkpt lat="47.57495" lon="2.2214935">
        <ele>191</ele>
        <time>2022-05-12T07:11:04Z</time>
      </trkpt>
      <trkpt lat="47.574955" lon="2.2214794">
        <ele>191</ele>
        <time>2022-05-12T07:11:05Z</time>
      </trkpt>
      <trkpt lat="47.57496" lon="2.22146">
        <ele>191</ele>
        <time>2022-05-12T07:11:06Z</time>
      </trkpt>
      <trkpt lat="47.57496" lon="2.2214403">
        <ele>191</ele>
        <time>2022-05-12T07:11:07Z</time>
      </trkpt>
      <trkpt lat="47.57496" lon="2.2214217">
        <ele>191</ele>
        <time>2022-05-12T07:11:08Z</time>
      </trkpt>
      <trkpt lat="47.57496" lon="2.221407">
        <ele>192</ele>
        <time>2022-05-12T07:11:09Z</time>
      </trkpt>
      <trkpt lat="47.574955" lon="2.2213857">
        <ele>192</ele>
        <time>2022-05-12T07:11:10Z</time>
      </trkpt>
      <trkpt lat="47.574955" lon="2.221369">
        <ele>192</ele>
        <time>2022-05-12T07:11:11Z</time>
      </trkpt>
      <trkpt lat="47.57496" lon="2.2213504">
        <ele>192</ele>
        <time>2022-05-12T07:11:12Z</time>
      </trkpt>
      <trkpt lat="47.57496" lon="2.2213318">
        <ele>192</ele>
        <time>2022-05-12T07:11:13Z</time>
      </trkpt>
      <trkpt lat="47.57496" lon="2.2213151">
        <ele>193</ele>
        <time>2022-05-12T07:11:14Z</time>
      </trkpt>
      <trkpt lat="47.574963" lon="2.2212975">
        <ele>192</ele>
        <time>2022-05-12T07:11:15Z</time>
      </trkpt>
      <trkpt lat="47.574966" lon="2.2212863">
        <ele>192</ele>
        <time>2022-05-12T07:11:16Z</time>
      </trkpt>
      <trkpt lat="47.574966" lon="2.221274">
        <ele>192</ele>
        <time>2022-05-12T07:11:17Z</time>
      </trkpt>
      <trkpt lat="47.574963" lon="2.2212546">
        <ele>192</ele>
        <time>2022-05-12T07:11:18Z</time>
      </trkpt>
      <trkpt lat="47.574963" lon="2.2212386">
        <ele>192</ele>
        <time>2022-05-12T07:11:19Z</time>
      </trkpt>
      <trkpt lat="47.574963" lon="2.2212217">
        <ele>192</ele>
        <time>2022-05-12T07:11:20Z</time>
      </trkpt>
      <trkpt lat="47.57496" lon="2.221208">
        <ele>192</ele>
        <time>2022-05-12T07:11:21Z</time>
      </trkpt>
      <trkpt lat="47.57496" lon="2.2211878">
        <ele>192</ele>
        <time>2022-05-12T07:11:22Z</time>
      </trkpt>
      <trkpt lat="47.574955" lon="2.221166">
        <ele>192</ele>
        <time>2022-05-12T07:11:23Z</time>
      </trkpt>
      <trkpt lat="47.574955" lon="2.2211454">
        <ele>192</ele>
        <time>2022-05-12T07:11:24Z</time>
      </trkpt>
      <trkpt lat="47.574955" lon="2.2211294">
        <ele>192</ele>
        <time>2022-05-12T07:11:25Z</time>
      </trkpt>
      <trkpt lat="47.574955" lon="2.221113">
        <ele>192</ele>
        <time>2022-05-12T07:11:26Z</time>
      </trkpt>
      <trkpt lat="47.57496" lon="2.221094">
        <ele>192</ele>
        <time>2022-05-12T07:11:27Z</time>
      </trkpt>
      <trkpt lat="47.57496" lon="2.2210789">
        <ele>192</ele>
        <time>2022-05-12T07:11:28Z</time>
      </trkpt>
      <trkpt lat="47.574955" lon="2.2210627">
        <ele>192</ele>
        <time>2022-05-12T07:11:29Z</time>
      </trkpt>
      <trkpt lat="47.574947" lon="2.2210438">
        <ele>191</ele>
        <time>2022-05-12T07:11:30Z</time>
      </trkpt>
      <trkpt lat="47.57494" lon="2.221021">
        <ele>192</ele>
        <time>2022-05-12T07:11:31Z</time>
      </trkpt>
      <trkpt lat="47.574936" lon="2.2209983">
        <ele>192</ele>
        <time>2022-05-12T07:11:32Z</time>
      </trkpt>
      <trkpt lat="47.574932" lon="2.2209785">
        <ele>192</ele>
        <time>2022-05-12T07:11:33Z</time>
      </trkpt>
      <trkpt lat="47.57493" lon="2.2209582">
        <ele>192</ele>
        <time>2022-05-12T07:11:34Z</time>
      </trkpt>
      <trkpt lat="47.57492" lon="2.2209451">
        <ele>192</ele>
        <time>2022-05-12T07:11:35Z</time>
      </trkpt>
      <trkpt lat="47.574913" lon="2.2209322">
        <ele>192</ele>
        <time>2022-05-12T07:11:36Z</time>
      </trkpt>
      <trkpt lat="47.57491" lon="2.2209146">
        <ele>192</ele>
        <time>2022-05-12T07:11:37Z</time>
      </trkpt>
      <trkpt lat="47.5749" lon="2.2209">
        <ele>192</ele>
        <time>2022-05-12T07:11:38Z</time>
      </trkpt>
      <trkpt lat="47.5749" lon="2.2208843">
        <ele>192</ele>
        <time>2022-05-12T07:11:39Z</time>
      </trkpt>
      <trkpt lat="47.574894" lon="2.2208655">
        <ele>191</ele>
        <time>2022-05-12T07:11:40Z</time>
      </trkpt>
      <trkpt lat="47.57489" lon="2.2208474">
        <ele>192</ele>
        <time>2022-05-12T07:11:41Z</time>
      </trkpt>
      <trkpt lat="47.574886" lon="2.2208343">
        <ele>192</ele>
        <time>2022-05-12T07:11:42Z</time>
      </trkpt>
      <trkpt lat="47.57489" lon="2.220814">
        <ele>192</ele>
        <time>2022-05-12T07:11:43Z</time>
      </trkpt>
      <trkpt lat="47.574886" lon="2.2207956">
        <ele>192</ele>
        <time>2022-05-12T07:11:44Z</time>
      </trkpt>
      <trkpt lat="47.574886" lon="2.2207756">
        <ele>192</ele>
        <time>2022-05-12T07:11:45Z</time>
      </trkpt>
      <trkpt lat="47.574883" lon="2.2207541">
        <ele>192</ele>
        <time>2022-05-12T07:11:46Z</time>
      </trkpt>
      <trkpt lat="47.574875" lon="2.2207353">
        <ele>191</ele>
        <time>2022-05-12T07:11:47Z</time>
      </trkpt>
      <trkpt lat="47.57487" lon="2.2207217">
        <ele>191</ele>
        <time>2022-05-12T07:11:48Z</time>
      </trkpt>
      <trkpt lat="47.574867" lon="2.2207067">
        <ele>192</ele>
        <time>2022-05-12T07:11:49Z</time>
      </trkpt>
      <trkpt lat="47.574867" lon="2.2206895">
        <ele>192</ele>
        <time>2022-05-12T07:11:50Z</time>
      </trkpt>
      <trkpt lat="47.574867" lon="2.2206748">
        <ele>191</ele>
        <time>2022-05-12T07:11:51Z</time>
      </trkpt>
      <trkpt lat="47.574867" lon="2.220661">
        <ele>191</ele>
        <time>2022-05-12T07:11:52Z</time>
      </trkpt>
      <trkpt lat="47.574867" lon="2.220645">
        <ele>191</ele>
        <time>2022-05-12T07:11:53Z</time>
      </trkpt>
      <trkpt lat="47.574867" lon="2.2206273">
        <ele>191</ele>
        <time>2022-05-12T07:11:54Z</time>
      </trkpt>
      <trkpt lat="47.57487" lon="2.22061">
        <ele>191</ele>
        <time>2022-05-12T07:11:55Z</time>
      </trkpt>
      <trkpt lat="47.57487" lon="2.2205997">
        <ele>191</ele>
        <time>2022-05-12T07:11:56Z</time>
      </trkpt>
      <trkpt lat="47.57487" lon="2.2205906">
        <ele>191</ele>
        <time>2022-05-12T07:11:57Z</time>
      </trkpt>
      <trkpt lat="47.574867" lon="2.2205784">
        <ele>191</ele>
        <time>2022-05-12T07:11:58Z</time>
      </trkpt>
      <trkpt lat="47.57486" lon="2.2205622">
        <ele>191</ele>
        <time>2022-05-12T07:11:59Z</time>
      </trkpt>
      <trkpt lat="47.574852" lon="2.2205424">
        <ele>190</ele>
        <time>2022-05-12T07:12:00Z</time>
      </trkpt>
      <trkpt lat="47.574844" lon="2.2205222">
        <ele>190</ele>
        <time>2022-05-12T07:12:01Z</time>
      </trkpt>
      <trkpt lat="47.574844" lon="2.2204978">
        <ele>190</ele>
        <time>2022-05-12T07:12:02Z</time>
      </trkpt>
      <trkpt lat="47.57485" lon="2.220475">
        <ele>190</ele>
        <time>2022-05-12T07:12:03Z</time>
      </trkpt>
      <trkpt lat="47.57485" lon="2.2204483">
        <ele>190</ele>
        <time>2022-05-12T07:12:04Z</time>
      </trkpt>
      <trkpt lat="47.57485" lon="2.22042">
        <ele>190</ele>
        <time>2022-05-12T07:12:05Z</time>
      </trkpt>
      <trkpt lat="47.574844" lon="2.2203984">
        <ele>190</ele>
        <time>2022-05-12T07:12:06Z</time>
      </trkpt>
      <trkpt lat="47.574844" lon="2.2203817">
        <ele>191</ele>
        <time>2022-05-12T07:12:07Z</time>
      </trkpt>
      <trkpt lat="47.57484" lon="2.2203636">
        <ele>191</ele>
        <time>2022-05-12T07:12:08Z</time>
      </trkpt>
      <trkpt lat="47.574837" lon="2.2203488">
        <ele>191</ele>
        <time>2022-05-12T07:12:09Z</time>
      </trkpt>
      <trkpt lat="47.574833" lon="2.2203338">
        <ele>191</ele>
        <time>2022-05-12T07:12:10Z</time>
      </trkpt>
      <trkpt lat="47.57483" lon="2.220317">
        <ele>191</ele>
        <time>2022-05-12T07:12:11Z</time>
      </trkpt>
      <trkpt lat="47.574825" lon="2.2202976">
        <ele>191</ele>
        <time>2022-05-12T07:12:12Z</time>
      </trkpt>
      <trkpt lat="47.574825" lon="2.220278">
        <ele>191</ele>
        <time>2022-05-12T07:12:13Z</time>
      </trkpt>
      <trkpt lat="47.57483" lon="2.2202592">
        <ele>191</ele>
        <time>2022-05-12T07:12:14Z</time>
      </trkpt>
      <trkpt lat="47.57483" lon="2.220242">
        <ele>191</ele>
        <time>2022-05-12T07:12:15Z</time>
      </trkpt>
      <trkpt lat="47.574833" lon="2.2202218">
        <ele>191</ele>
        <time>2022-05-12T07:12:16Z</time>
      </trkpt>
      <trkpt lat="47.574833" lon="2.220204">
        <ele>192</ele>
        <time>2022-05-12T07:12:17Z</time>
      </trkpt>
      <trkpt lat="47.574833" lon="2.2201872">
        <ele>191</ele>
        <time>2022-05-12T07:12:18Z</time>
      </trkpt>
      <trkpt lat="47.574837" lon="2.22017">
        <ele>191</ele>
        <time>2022-05-12T07:12:19Z</time>
      </trkpt>
      <trkpt lat="47.574837" lon="2.2201543">
        <ele>192</ele>
        <time>2022-05-12T07:12:20Z</time>
      </trkpt>
      <trkpt lat="47.574833" lon="2.220139">
        <ele>192</ele>
        <time>2022-05-12T07:12:21Z</time>
      </trkpt>
      <trkpt lat="47.574833" lon="2.2201257">
        <ele>192</ele>
        <time>2022-05-12T07:12:22Z</time>
      </trkpt>
      <trkpt lat="47.57483" lon="2.2201173">
        <ele>192</ele>
        <time>2022-05-12T07:12:23Z</time>
      </trkpt>
      <trkpt lat="47.574833" lon="2.2201107">
        <ele>192</ele>
        <time>2022-05-12T07:12:24Z</time>
      </trkpt>
      <trkpt lat="47.574833" lon="2.220106">
        <ele>192</ele>
        <time>2022-05-12T07:12:25Z</time>
      </trkpt>
      <trkpt lat="47.57483" lon="2.2200947">
        <ele>193</ele>
        <time>2022-05-12T07:12:26Z</time>
      </trkpt>
      <trkpt lat="47.57483" lon="2.2200859">
        <ele>193</ele>
        <time>2022-05-12T07:12:27Z</time>
      </trkpt>
      <trkpt lat="47.57483" lon="2.2200706">
        <ele>193</ele>
        <time>2022-05-12T07:12:28Z</time>
      </trkpt>
      <trkpt lat="47.57483" lon="2.220053">
        <ele>194</ele>
        <time>2022-05-12T07:12:29Z</time>
      </trkpt>
      <trkpt lat="47.574833" lon="2.220035">
        <ele>194</ele>
        <time>2022-05-12T07:12:30Z</time>
      </trkpt>
      <trkpt lat="47.574837" lon="2.220019">
        <ele>194</ele>
        <time>2022-05-12T07:12:31Z</time>
      </trkpt>
      <trkpt lat="47.574844" lon="2.220005">
        <ele>194</ele>
        <time>2022-05-12T07:12:32Z</time>
      </trkpt>
      <trkpt lat="47.57485" lon="2.2199895">
        <ele>194</ele>
        <time>2022-05-12T07:12:33Z</time>
      </trkpt>
      <trkpt lat="47.574844" lon="2.2199714">
        <ele>194</ele>
        <time>2022-05-12T07:12:34Z</time>
      </trkpt>
      <trkpt lat="47.57485" lon="2.219954">
        <ele>194</ele>
        <time>2022-05-12T07:12:35Z</time>
      </trkpt>
      <trkpt lat="47.57485" lon="2.219938">
        <ele>194</ele>
        <time>2022-05-12T07:12:36Z</time>
      </trkpt>
      <trkpt lat="47.574852" lon="2.2199283">
        <ele>194</ele>
        <time>2022-05-12T07:12:37Z</time>
      </trkpt>
      <trkpt lat="47.57486" lon="2.2199137">
        <ele>194</ele>
        <time>2022-05-12T07:12:38Z</time>
      </trkpt>
      <trkpt lat="47.574863" lon="2.2198951">
        <ele>194</ele>
        <time>2022-05-12T07:12:39Z</time>
      </trkpt>
      <trkpt lat="47.574863" lon="2.2198749">
        <ele>194</ele>
        <time>2022-05-12T07:12:40Z</time>
      </trkpt>
      <trkpt lat="47.574867" lon="2.2198534">
        <ele>194</ele>
        <time>2022-05-12T07:12:41Z</time>
      </trkpt>
      <trkpt lat="47.574867" lon="2.219833">
        <ele>194</ele>
        <time>2022-05-12T07:12:42Z</time>
      </trkpt>
      <trkpt lat="47.574867" lon="2.2198112">
        <ele>193</ele>
        <time>2022-05-12T07:12:43Z</time>
      </trkpt>
      <trkpt lat="47.574875" lon="2.21979">
        <ele>193</ele>
        <time>2022-05-12T07:12:44Z</time>
      </trkpt>
      <trkpt lat="47.574875" lon="2.2197707">
        <ele>193</ele>
        <time>2022-05-12T07:12:45Z</time>
      </trkpt>
      <trkpt lat="47.574875" lon="2.219751">
        <ele>192</ele>
        <time>2022-05-12T07:12:46Z</time>
      </trkpt>
      <trkpt lat="47.57487" lon="2.2197309">
        <ele>192</ele>
        <time>2022-05-12T07:12:47Z</time>
      </trkpt>
      <trkpt lat="47.57487" lon="2.2197144">
        <ele>192</ele>
        <time>2022-05-12T07:12:48Z</time>
      </trkpt>
      <trkpt lat="47.574875" lon="2.219697">
        <ele>192</ele>
        <time>2022-05-12T07:12:49Z</time>
      </trkpt>
      <trkpt lat="47.574883" lon="2.2196796">
        <ele>192</ele>
        <time>2022-05-12T07:12:50Z</time>
      </trkpt>
      <trkpt lat="47.57489" lon="2.2196627">
        <ele>192</ele>
        <time>2022-05-12T07:12:51Z</time>
      </trkpt>
      <trkpt lat="47.574898" lon="2.2196457">
        <ele>192</ele>
        <time>2022-05-12T07:12:52Z</time>
      </trkpt>
      <trkpt lat="47.5749" lon="2.2196286">
        <ele>193</ele>
        <time>2022-05-12T07:12:53Z</time>
      </trkpt>
      <trkpt lat="47.57491" lon="2.21961">
        <ele>193</ele>
        <time>2022-05-12T07:12:54Z</time>
      </trkpt>
      <trkpt lat="47.574917" lon="2.219588">
        <ele>194</ele>
        <time>2022-05-12T07:12:55Z</time>
      </trkpt>
      <trkpt lat="47.574924" lon="2.219571">
        <ele>194</ele>
        <time>2022-05-12T07:12:56Z</time>
      </trkpt>
      <trkpt lat="47.57493" lon="2.219553">
        <ele>194</ele>
        <time>2022-05-12T07:12:57Z</time>
      </trkpt>
      <trkpt lat="47.57494" lon="2.2195377">
        <ele>194</ele>
        <time>2022-05-12T07:12:58Z</time>
      </trkpt>
      <trkpt lat="47.574947" lon="2.21952">
        <ele>195</ele>
        <time>2022-05-12T07:12:59Z</time>
      </trkpt>
      <trkpt lat="47.574947" lon="2.2194989">
        <ele>195</ele>
        <time>2022-05-12T07:13:00Z</time>
      </trkpt>
      <trkpt lat="47.57495" lon="2.2194843">
        <ele>195</ele>
        <time>2022-05-12T07:13:01Z</time>
      </trkpt>
      <trkpt lat="47.57496" lon="2.2194655">
        <ele>196</ele>
        <time>2022-05-12T07:13:02Z</time>
      </trkpt>
      <trkpt lat="47.574963" lon="2.2194467">
        <ele>196</ele>
        <time>2022-05-12T07:13:03Z</time>
      </trkpt>
      <trkpt lat="47.574966" lon="2.219433">
        <ele>196</ele>
        <time>2022-05-12T07:13:04Z</time>
      </trkpt>
      <trkpt lat="47.57497" lon="2.2194192">
        <ele>197</ele>
        <time>2022-05-12T07:13:05Z</time>
      </trkpt>
      <trkpt lat="47.574978" lon="2.2194014">
        <ele>196</ele>
        <time>2022-05-12T07:13:06Z</time>
      </trkpt>
      <trkpt lat="47.57498" lon="2.219383">
        <ele>196</ele>
        <time>2022-05-12T07:13:07Z</time>
      </trkpt>
      <trkpt lat="47.57498" lon="2.2193692">
        <ele>196</ele>
        <time>2022-05-12T07:13:08Z</time>
      </trkpt>
      <trkpt lat="47.57498" lon="2.2193525">
        <ele>196</ele>
        <time>2022-05-12T07:13:09Z</time>
      </trkpt>
      <trkpt lat="47.574986" lon="2.2193382">
        <ele>196</ele>
        <time>2022-05-12T07:13:10Z</time>
      </trkpt>
      <trkpt lat="47.57499" lon="2.219325">
        <ele>196</ele>
        <time>2022-05-12T07:13:11Z</time>
      </trkpt>
      <trkpt lat="47.574997" lon="2.219309">
        <ele>196</ele>
        <time>2022-05-12T07:13:12Z</time>
      </trkpt>
      <trkpt lat="47.575005" lon="2.2192929">
        <ele>196</ele>
        <time>2022-05-12T07:13:13Z</time>
      </trkpt>
      <trkpt lat="47.575012" lon="2.2192748">
        <ele>196</ele>
        <time>2022-05-12T07:13:14Z</time>
      </trkpt>
      <trkpt lat="47.575016" lon="2.2192533">
        <ele>196</ele>
        <time>2022-05-12T07:13:15Z</time>
      </trkpt>
      <trkpt lat="47.575024" lon="2.219232">
        <ele>195</ele>
        <time>2022-05-12T07:13:16Z</time>
      </trkpt>
      <trkpt lat="47.57503" lon="2.2192152">
        <ele>196</ele>
        <time>2022-05-12T07:13:17Z</time>
      </trkpt>
      <trkpt lat="47.57504" lon="2.2192004">
        <ele>196</ele>
        <time>2022-05-12T07:13:18Z</time>
      </trkpt>
      <trkpt lat="47.57504" lon="2.219179">
        <ele>196</ele>
        <time>2022-05-12T07:13:19Z</time>
      </trkpt>
      <trkpt lat="47.575043" lon="2.219162">
        <ele>196</ele>
        <time>2022-05-12T07:13:20Z</time>
      </trkpt>
      <trkpt lat="47.575047" lon="2.2191446">
        <ele>197</ele>
        <time>2022-05-12T07:13:21Z</time>
      </trkpt>
      <trkpt lat="47.575054" lon="2.219131">
        <ele>197</ele>
        <time>2022-05-12T07:13:22Z</time>
      </trkpt>
      <trkpt lat="47.57506" lon="2.219113">
        <ele>197</ele>
        <time>2022-05-12T07:13:23Z</time>
      </trkpt>
      <trkpt lat="47.575066" lon="2.2190967">
        <ele>198</ele>
        <time>2022-05-12T07:13:24Z</time>
      </trkpt>
      <trkpt lat="47.575066" lon="2.2190793">
        <ele>198</ele>
        <time>2022-05-12T07:13:25Z</time>
      </trkpt>
      <trkpt lat="47.57507" lon="2.2190638">
        <ele>198</ele>
        <time>2022-05-12T07:13:26Z</time>
      </trkpt>
      <trkpt lat="47.57507" lon="2.2190483">
        <ele>198</ele>
        <time>2022-05-12T07:13:27Z</time>
      </trkpt>
      <trkpt lat="47.57507" lon="2.219029">
        <ele>197</ele>
        <time>2022-05-12T07:13:28Z</time>
      </trkpt>
      <trkpt lat="47.575073" lon="2.21901">
        <ele>197</ele>
        <time>2022-05-12T07:13:29Z</time>
      </trkpt>
      <trkpt lat="47.575073" lon="2.2189946">
        <ele>197</ele>
        <time>2022-05-12T07:13:30Z</time>
      </trkpt>
      <trkpt lat="47.575077" lon="2.2189791">
        <ele>197</ele>
        <time>2022-05-12T07:13:31Z</time>
      </trkpt>
      <trkpt lat="47.57508" lon="2.2189608">
        <ele>197</ele>
        <time>2022-05-12T07:13:32Z</time>
      </trkpt>
      <trkpt lat="47.575085" lon="2.218947">
        <ele>197</ele>
        <time>2022-05-12T07:13:33Z</time>
      </trkpt>
      <trkpt lat="47.575085" lon="2.2189274">
        <ele>197</ele>
        <time>2022-05-12T07:13:34Z</time>
      </trkpt>
      <trkpt lat="47.575085" lon="2.2189093">
        <ele>196</ele>
        <time>2022-05-12T07:13:35Z</time>
      </trkpt>
      <trkpt lat="47.575092" lon="2.2188933">
        <ele>196</ele>
        <time>2022-05-12T07:13:36Z</time>
      </trkpt>
      <trkpt lat="47.575092" lon="2.2188754">
        <ele>196</ele>
        <time>2022-05-12T07:13:37Z</time>
      </trkpt>
      <trkpt lat="47.575092" lon="2.2188575">
        <ele>196</ele>
        <time>2022-05-12T07:13:38Z</time>
      </trkpt>
      <trkpt lat="47.575096" lon="2.2188394">
        <ele>196</ele>
        <time>2022-05-12T07:13:39Z</time>
      </trkpt>
      <trkpt lat="47.575096" lon="2.2188175">
        <ele>196</ele>
        <time>2022-05-12T07:13:40Z</time>
      </trkpt>
      <trkpt lat="47.5751" lon="2.2187977">
        <ele>195</ele>
        <time>2022-05-12T07:13:41Z</time>
      </trkpt>
      <trkpt lat="47.575104" lon="2.218776">
        <ele>195</ele>
        <time>2022-05-12T07:13:42Z</time>
      </trkpt>
      <trkpt lat="47.575104" lon="2.2187567">
        <ele>195</ele>
        <time>2022-05-12T07:13:43Z</time>
      </trkpt>
      <trkpt lat="47.5751" lon="2.2187364">
        <ele>195</ele>
        <time>2022-05-12T07:13:44Z</time>
      </trkpt>
      <trkpt lat="47.575104" lon="2.2187152">
        <ele>195</ele>
        <time>2022-05-12T07:13:45Z</time>
      </trkpt>
      <trkpt lat="47.575104" lon="2.218696">
        <ele>195</ele>
        <time>2022-05-12T07:13:46Z</time>
      </trkpt>
      <trkpt lat="47.575104" lon="2.2186809">
        <ele>196</ele>
        <time>2022-05-12T07:13:47Z</time>
      </trkpt>
      <trkpt lat="47.575108" lon="2.21866">
        <ele>195</ele>
        <time>2022-05-12T07:13:48Z</time>
      </trkpt>
      <trkpt lat="47.57511" lon="2.2186406">
        <ele>195</ele>
        <time>2022-05-12T07:13:49Z</time>
      </trkpt>
      <trkpt lat="47.57512" lon="2.2186182">
        <ele>196</ele>
        <time>2022-05-12T07:13:50Z</time>
      </trkpt>
      <trkpt lat="47.575127" lon="2.218595">
        <ele>195</ele>
        <time>2022-05-12T07:13:51Z</time>
      </trkpt>
      <trkpt lat="47.575134" lon="2.2185776">
        <ele>195</ele>
        <time>2022-05-12T07:13:52Z</time>
      </trkpt>
      <trkpt lat="47.575138" lon="2.2185595">
        <ele>195</ele>
        <time>2022-05-12T07:13:53Z</time>
      </trkpt>
      <trkpt lat="47.575146" lon="2.218542">
        <ele>195</ele>
        <time>2022-05-12T07:13:54Z</time>
      </trkpt>
      <trkpt lat="47.575153" lon="2.2185237">
        <ele>196</ele>
        <time>2022-05-12T07:13:55Z</time>
      </trkpt>
      <trkpt lat="47.575157" lon="2.2185059">
        <ele>196</ele>
        <time>2022-05-12T07:13:56Z</time>
      </trkpt>
      <trkpt lat="47.575165" lon="2.2184906">
        <ele>197</ele>
        <time>2022-05-12T07:13:57Z</time>
      </trkpt>
      <trkpt lat="47.575172" lon="2.2184784">
        <ele>197</ele>
        <time>2022-05-12T07:13:58Z</time>
      </trkpt>
      <trkpt lat="47.575176" lon="2.2184658">
        <ele>197</ele>
        <time>2022-05-12T07:13:59Z</time>
      </trkpt>
      <trkpt lat="47.575184" lon="2.2184503">
        <ele>197</ele>
        <time>2022-05-12T07:14:00Z</time>
      </trkpt>
      <trkpt lat="47.575188" lon="2.218435">
        <ele>197</ele>
        <time>2022-05-12T07:14:01Z</time>
      </trkpt>
      <trkpt lat="47.575195" lon="2.218422">
        <ele>197</ele>
        <time>2022-05-12T07:14:02Z</time>
      </trkpt>
      <trkpt lat="47.575203" lon="2.2184095">
        <ele>196</ele>
        <time>2022-05-12T07:14:03Z</time>
      </trkpt>
      <trkpt lat="47.575207" lon="2.218395">
        <ele>196</ele>
        <time>2022-05-12T07:14:04Z</time>
      </trkpt>
      <trkpt lat="47.575214" lon="2.2183797">
        <ele>196</ele>
        <time>2022-05-12T07:14:05Z</time>
      </trkpt>
      <trkpt lat="47.575222" lon="2.2183602">
        <ele>196</ele>
        <time>2022-05-12T07:14:06Z</time>
      </trkpt>
      <trkpt lat="47.57523" lon="2.2183483">
        <ele>195</ele>
        <time>2022-05-12T07:14:07Z</time>
      </trkpt>
      <trkpt lat="47.575237" lon="2.2183359">
        <ele>195</ele>
        <time>2022-05-12T07:14:08Z</time>
      </trkpt>
      <trkpt lat="47.575245" lon="2.2183244">
        <ele>194</ele>
        <time>2022-05-12T07:14:09Z</time>
      </trkpt>
      <trkpt lat="47.575256" lon="2.2183177">
        <ele>194</ele>
        <time>2022-05-12T07:14:10Z</time>
      </trkpt>
      <trkpt lat="47.575264" lon="2.2183108">
        <ele>195</ele>
        <time>2022-05-12T07:14:11Z</time>
      </trkpt>
      <trkpt lat="47.57527" lon="2.2182968">
        <ele>195</ele>
        <time>2022-05-12T07:14:12Z</time>
      </trkpt>
      <trkpt lat="47.57528" lon="2.2182822">
        <ele>195</ele>
        <time>2022-05-12T07:14:13Z</time>
      </trkpt>
      <trkpt lat="47.575287" lon="2.218267">
        <ele>194</ele>
        <time>2022-05-12T07:14:14Z</time>
      </trkpt>
      <trkpt lat="47.57529" lon="2.218256">
        <ele>194</ele>
        <time>2022-05-12T07:14:15Z</time>
      </trkpt>
      <trkpt lat="47.575302" lon="2.2182436">
        <ele>194</ele>
        <time>2022-05-12T07:14:16Z</time>
      </trkpt>
      <trkpt lat="47.575306" lon="2.2182293">
        <ele>194</ele>
        <time>2022-05-12T07:14:17Z</time>
      </trkpt>
      <trkpt lat="47.575317" lon="2.2182164">
        <ele>194</ele>
        <time>2022-05-12T07:14:18Z</time>
      </trkpt>
      <trkpt lat="47.575325" lon="2.2182035">
        <ele>194</ele>
        <time>2022-05-12T07:14:19Z</time>
      </trkpt>
      <trkpt lat="47.575336" lon="2.218192">
        <ele>193</ele>
        <time>2022-05-12T07:14:20Z</time>
      </trkpt>
      <trkpt lat="47.575348" lon="2.218179">
        <ele>193</ele>
        <time>2022-05-12T07:14:21Z</time>
      </trkpt>
      <trkpt lat="47.57536" lon="2.2181642">
        <ele>194</ele>
        <time>2022-05-12T07:14:22Z</time>
      </trkpt>
      <trkpt lat="47.575363" lon="2.2181551">
        <ele>193</ele>
        <time>2022-05-12T07:14:23Z</time>
      </trkpt>
      <trkpt lat="47.57537" lon="2.2181432">
        <ele>194</ele>
        <time>2022-05-12T07:14:24Z</time>
      </trkpt>
      <trkpt lat="47.57538" lon="2.2181344">
        <ele>193</ele>
        <time>2022-05-12T07:14:25Z</time>
      </trkpt>
      <trkpt lat="47.575386" lon="2.218122">
        <ele>193</ele>
        <time>2022-05-12T07:14:26Z</time>
      </trkpt>
      <trkpt lat="47.575394" lon="2.2181118">
        <ele>193</ele>
        <time>2022-05-12T07:14:27Z</time>
      </trkpt>
      <trkpt lat="47.5754" lon="2.2181025">
        <ele>193</ele>
        <time>2022-05-12T07:14:28Z</time>
      </trkpt>
      <trkpt lat="47.57541" lon="2.2180848">
        <ele>192</ele>
        <time>2022-05-12T07:14:29Z</time>
      </trkpt>
      <trkpt lat="47.57542" lon="2.2180734">
        <ele>192</ele>
        <time>2022-05-12T07:14:30Z</time>
      </trkpt>
      <trkpt lat="47.575428" lon="2.2180634">
        <ele>193</ele>
        <time>2022-05-12T07:14:31Z</time>
      </trkpt>
      <trkpt lat="47.575436" lon="2.218051">
        <ele>193</ele>
        <time>2022-05-12T07:14:32Z</time>
      </trkpt>
      <trkpt lat="47.575443" lon="2.2180402">
        <ele>193</ele>
        <time>2022-05-12T07:14:33Z</time>
      </trkpt>
      <trkpt lat="47.57545" lon="2.2180302">
        <ele>193</ele>
        <time>2022-05-12T07:14:34Z</time>
      </trkpt>
      <trkpt lat="47.575455" lon="2.2180145">
        <ele>193</ele>
        <time>2022-05-12T07:14:35Z</time>
      </trkpt>
      <trkpt lat="47.575466" lon="2.2180033">
        <ele>193</ele>
        <time>2022-05-12T07:14:36Z</time>
      </trkpt>
      <trkpt lat="47.575474" lon="2.2179914">
        <ele>193</ele>
        <time>2022-05-12T07:14:37Z</time>
      </trkpt>
      <trkpt lat="47.575485" lon="2.2179768">
        <ele>193</ele>
        <time>2022-05-12T07:14:38Z</time>
      </trkpt>
      <trkpt lat="47.575497" lon="2.217966">
        <ele>192</ele>
        <time>2022-05-12T07:14:39Z</time>
      </trkpt>
      <trkpt lat="47.575504" lon="2.2179506">
        <ele>193</ele>
        <time>2022-05-12T07:14:40Z</time>
      </trkpt>
      <trkpt lat="47.575516" lon="2.2179384">
        <ele>192</ele>
        <time>2022-05-12T07:14:41Z</time>
      </trkpt>
      <trkpt lat="47.575523" lon="2.2179222">
        <ele>192</ele>
        <time>2022-05-12T07:14:42Z</time>
      </trkpt>
      <trkpt lat="47.575527" lon="2.2179053">
        <ele>192</ele>
        <time>2022-05-12T07:14:43Z</time>
      </trkpt>
      <trkpt lat="47.57554" lon="2.217891">
        <ele>192</ele>
        <time>2022-05-12T07:14:44Z</time>
      </trkpt>
      <trkpt lat="47.575542" lon="2.2178786">
        <ele>192</ele>
        <time>2022-05-12T07:14:45Z</time>
      </trkpt>
      <trkpt lat="47.57555" lon="2.2178657">
        <ele>191</ele>
        <time>2022-05-12T07:14:46Z</time>
      </trkpt>
      <trkpt lat="47.575558" lon="2.217853">
        <ele>191</ele>
        <time>2022-05-12T07:14:47Z</time>
      </trkpt>
      <trkpt lat="47.575565" lon="2.2178407">
        <ele>191</ele>
        <time>2022-05-12T07:14:48Z</time>
      </trkpt>
      <trkpt lat="47.575577" lon="2.2178261">
        <ele>191</ele>
        <time>2022-05-12T07:14:49Z</time>
      </trkpt>
      <trkpt lat="47.57559" lon="2.217815">
        <ele>192</ele>
        <time>2022-05-12T07:14:50Z</time>
      </trkpt>
      <trkpt lat="47.575596" lon="2.2178032">
        <ele>192</ele>
        <time>2022-05-12T07:14:51Z</time>
      </trkpt>
      <trkpt lat="47.5756" lon="2.217787">
        <ele>192</ele>
        <time>2022-05-12T07:14:52Z</time>
      </trkpt>
      <trkpt lat="47.57561" lon="2.2177699">
        <ele>191</ele>
        <time>2022-05-12T07:14:53Z</time>
      </trkpt>
      <trkpt lat="47.57562" lon="2.217756">
        <ele>192</ele>
        <time>2022-05-12T07:14:54Z</time>
      </trkpt>
      <trkpt lat="47.575626" lon="2.2177415">
        <ele>192</ele>
        <time>2022-05-12T07:14:55Z</time>
      </trkpt>
      <trkpt lat="47.575634" lon="2.217724">
        <ele>192</ele>
        <time>2022-05-12T07:14:56Z</time>
      </trkpt>
      <trkpt lat="47.575645" lon="2.2177098">
        <ele>192</ele>
        <time>2022-05-12T07:14:57Z</time>
      </trkpt>
      <trkpt lat="47.575653" lon="2.2177005">
        <ele>192</ele>
        <time>2022-05-12T07:14:58Z</time>
      </trkpt>
      <trkpt lat="47.575657" lon="2.21769">
        <ele>193</ele>
        <time>2022-05-12T07:14:59Z</time>
      </trkpt>
      <trkpt lat="47.575665" lon="2.217681">
        <ele>193</ele>
        <time>2022-05-12T07:15:00Z</time>
      </trkpt>
      <trkpt lat="47.575672" lon="2.2176688">
        <ele>193</ele>
        <time>2022-05-12T07:15:01Z</time>
      </trkpt>
      <trkpt lat="47.575684" lon="2.2176542">
        <ele>193</ele>
        <time>2022-05-12T07:15:02Z</time>
      </trkpt>
      <trkpt lat="47.575695" lon="2.2176378">
        <ele>194</ele>
        <time>2022-05-12T07:15:03Z</time>
      </trkpt>
      <trkpt lat="47.575703" lon="2.2176235">
        <ele>194</ele>
        <time>2022-05-12T07:15:04Z</time>
      </trkpt>
      <trkpt lat="47.57571" lon="2.2176058">
        <ele>194</ele>
        <time>2022-05-12T07:15:05Z</time>
      </trkpt>
      <trkpt lat="47.575714" lon="2.2175903">
        <ele>194</ele>
        <time>2022-05-12T07:15:06Z</time>
      </trkpt>
      <trkpt lat="47.57572" lon="2.2175727">
        <ele>194</ele>
        <time>2022-05-12T07:15:07Z</time>
      </trkpt>
      <trkpt lat="47.57573" lon="2.2175572">
        <ele>195</ele>
        <time>2022-05-12T07:15:08Z</time>
      </trkpt>
      <trkpt lat="47.575737" lon="2.2175438">
        <ele>195</ele>
        <time>2022-05-12T07:15:09Z</time>
      </trkpt>
      <trkpt lat="47.575745" lon="2.2175255">
        <ele>194</ele>
        <time>2022-05-12T07:15:10Z</time>
      </trkpt>
      <trkpt lat="47.575752" lon="2.2175076">
        <ele>194</ele>
        <time>2022-05-12T07:15:11Z</time>
      </trkpt>
      <trkpt lat="47.575764" lon="2.217493">
        <ele>194</ele>
        <time>2022-05-12T07:15:12Z</time>
      </trkpt>
      <trkpt lat="47.57577" lon="2.2174845">
        <ele>194</ele>
        <time>2022-05-12T07:15:13Z</time>
      </trkpt>
      <trkpt lat="47.575783" lon="2.2174752">
        <ele>194</ele>
        <time>2022-05-12T07:15:14Z</time>
      </trkpt>
      <trkpt lat="47.57579" lon="2.2174644">
        <ele>194</ele>
        <time>2022-05-12T07:15:15Z</time>
      </trkpt>
      <trkpt lat="47.575806" lon="2.2174554">
        <ele>195</ele>
        <time>2022-05-12T07:15:16Z</time>
      </trkpt>
      <trkpt lat="47.575817" lon="2.2174478">
        <ele>195</ele>
        <time>2022-05-12T07:15:17Z</time>
      </trkpt>
      <trkpt lat="47.57583" lon="2.2174387">
        <ele>194</ele>
        <time>2022-05-12T07:15:18Z</time>
      </trkpt>
      <trkpt lat="47.57584" lon="2.21743">
        <ele>194</ele>
        <time>2022-05-12T07:15:19Z</time>
      </trkpt>
      <trkpt lat="47.57585" lon="2.2174242">
        <ele>195</ele>
        <time>2022-05-12T07:15:20Z</time>
      </trkpt>
      <trkpt lat="47.575863" lon="2.2174134">
        <ele>195</ele>
        <time>2022-05-12T07:15:21Z</time>
      </trkpt>
      <trkpt lat="47.57587" lon="2.217407">
        <ele>195</ele>
        <time>2022-05-12T07:15:22Z</time>
      </trkpt>
      <trkpt lat="47.575882" lon="2.2174032">
        <ele>195</ele>
        <time>2022-05-12T07:15:23Z</time>
      </trkpt>
      <trkpt lat="47.575897" lon="2.2173998">
        <ele>196</ele>
        <time>2022-05-12T07:15:24Z</time>
      </trkpt>
      <trkpt lat="47.57591" lon="2.217392">
        <ele>196</ele>
        <time>2022-05-12T07:15:25Z</time>
      </trkpt>
      <trkpt lat="47.575924" lon="2.2173843">
        <ele>196</ele>
        <time>2022-05-12T07:15:26Z</time>
      </trkpt>
      <trkpt lat="47.575935" lon="2.217374">
        <ele>196</ele>
        <time>2022-05-12T07:15:27Z</time>
      </trkpt>
      <trkpt lat="47.57595" lon="2.217365">
        <ele>196</ele>
        <time>2022-05-12T07:15:28Z</time>
      </trkpt>
      <trkpt lat="47.575966" lon="2.2173605">
        <ele>197</ele>
        <time>2022-05-12T07:15:29Z</time>
      </trkpt>
      <trkpt lat="47.575977" lon="2.217355">
        <ele>197</ele>
        <time>2022-05-12T07:15:30Z</time>
      </trkpt>
      <trkpt lat="47.575993" lon="2.2173507">
        <ele>198</ele>
        <time>2022-05-12T07:15:31Z</time>
      </trkpt>
      <trkpt lat="47.576008" lon="2.2173488">
        <ele>198</ele>
        <time>2022-05-12T07:15:32Z</time>
      </trkpt>
      <trkpt lat="47.57602" lon="2.2173393">
        <ele>198</ele>
        <time>2022-05-12T07:15:33Z</time>
      </trkpt>
      <trkpt lat="47.57603" lon="2.217334">
        <ele>199</ele>
        <time>2022-05-12T07:15:34Z</time>
      </trkpt>
      <trkpt lat="47.576042" lon="2.217327">
        <ele>199</ele>
        <time>2022-05-12T07:15:35Z</time>
      </trkpt>
      <trkpt lat="47.576054" lon="2.2173207">
        <ele>199</ele>
        <time>2022-05-12T07:15:36Z</time>
      </trkpt>
      <trkpt lat="47.576065" lon="2.2173173">
        <ele>199</ele>
        <time>2022-05-12T07:15:37Z</time>
      </trkpt>
      <trkpt lat="47.576077" lon="2.2173119">
        <ele>199</ele>
        <time>2022-05-12T07:15:38Z</time>
      </trkpt>
      <trkpt lat="47.576088" lon="2.2173097">
        <ele>199</ele>
        <time>2022-05-12T07:15:39Z</time>
      </trkpt>
      <trkpt lat="47.576096" lon="2.2173052">
        <ele>198</ele>
        <time>2022-05-12T07:15:40Z</time>
      </trkpt>
      <trkpt lat="47.576107" lon="2.217298">
        <ele>198</ele>
        <time>2022-05-12T07:15:41Z</time>
      </trkpt>
      <trkpt lat="47.576122" lon="2.217293">
        <ele>198</ele>
        <time>2022-05-12T07:15:42Z</time>
      </trkpt>
      <trkpt lat="47.57613" lon="2.217288">
        <ele>198</ele>
        <time>2022-05-12T07:15:43Z</time>
      </trkpt>
      <trkpt lat="47.57614" lon="2.2172835">
        <ele>198</ele>
        <time>2022-05-12T07:15:44Z</time>
      </trkpt>
      <trkpt lat="47.57615" lon="2.2172816">
        <ele>198</ele>
        <time>2022-05-12T07:15:45Z</time>
      </trkpt>
      <trkpt lat="47.57616" lon="2.217276">
        <ele>197</ele>
        <time>2022-05-12T07:15:46Z</time>
      </trkpt>
      <trkpt lat="47.57617" lon="2.2172737">
        <ele>197</ele>
        <time>2022-05-12T07:15:47Z</time>
      </trkpt>
      <trkpt lat="47.576183" lon="2.217271">
        <ele>197</ele>
        <time>2022-05-12T07:15:48Z</time>
      </trkpt>
      <trkpt lat="47.5762" lon="2.21727">
        <ele>197</ele>
        <time>2022-05-12T07:15:49Z</time>
      </trkpt>
      <trkpt lat="47.57621" lon="2.2172675">
        <ele>198</ele>
        <time>2022-05-12T07:15:50Z</time>
      </trkpt>
      <trkpt lat="47.57622" lon="2.2172647">
        <ele>198</ele>
        <time>2022-05-12T07:15:51Z</time>
      </trkpt>
      <trkpt lat="47.576237" lon="2.2172592">
        <ele>198</ele>
        <time>2022-05-12T07:15:52Z</time>
      </trkpt>
      <trkpt lat="47.57625" lon="2.2172534">
        <ele>198</ele>
        <time>2022-05-12T07:15:53Z</time>
      </trkpt>
      <trkpt lat="47.576263" lon="2.2172472">
        <ele>198</ele>
        <time>2022-05-12T07:15:54Z</time>
      </trkpt>
      <trkpt lat="47.576275" lon="2.2172458">
        <ele>198</ele>
        <time>2022-05-12T07:15:55Z</time>
      </trkpt>
      <trkpt lat="47.576286" lon="2.2172425">
        <ele>198</ele>
        <time>2022-05-12T07:15:56Z</time>
      </trkpt>
      <trkpt lat="47.576298" lon="2.2172368">
        <ele>198</ele>
        <time>2022-05-12T07:15:57Z</time>
      </trkpt>
      <trkpt lat="47.576313" lon="2.2172294">
        <ele>198</ele>
        <time>2022-05-12T07:15:58Z</time>
      </trkpt>
      <trkpt lat="47.57633" lon="2.2172227">
        <ele>198</ele>
        <time>2022-05-12T07:15:59Z</time>
      </trkpt>
      <trkpt lat="47.57634" lon="2.2172163">
        <ele>198</ele>
        <time>2022-05-12T07:16:00Z</time>
      </trkpt>
      <trkpt lat="47.57635" lon="2.217213">
        <ele>198</ele>
        <time>2022-05-12T07:16:01Z</time>
      </trkpt>
      <trkpt lat="47.576363" lon="2.2172081">
        <ele>198</ele>
        <time>2022-05-12T07:16:02Z</time>
      </trkpt>
      <trkpt lat="47.576374" lon="2.2172055">
        <ele>198</ele>
        <time>2022-05-12T07:16:03Z</time>
      </trkpt>
      <trkpt lat="47.576385" lon="2.2171965">
        <ele>198</ele>
        <time>2022-05-12T07:16:04Z</time>
      </trkpt>
      <trkpt lat="47.576397" lon="2.2171881">
        <ele>198</ele>
        <time>2022-05-12T07:16:05Z</time>
      </trkpt>
      <trkpt lat="47.57641" lon="2.2171803">
        <ele>198</ele>
        <time>2022-05-12T07:16:06Z</time>
      </trkpt>
      <trkpt lat="47.57642" lon="2.217175">
        <ele>197</ele>
        <time>2022-05-12T07:16:07Z</time>
      </trkpt>
      <trkpt lat="47.57643" lon="2.2171705">
        <ele>197</ele>
        <time>2022-05-12T07:16:08Z</time>
      </trkpt>
      <trkpt lat="47.57644" lon="2.2171621">
        <ele>197</ele>
        <time>2022-05-12T07:16:09Z</time>
      </trkpt>
      <trkpt lat="47.57645" lon="2.2171588">
        <ele>197</ele>
        <time>2022-05-12T07:16:10Z</time>
      </trkpt>
      <trkpt lat="47.57646" lon="2.2171555">
        <ele>197</ele>
        <time>2022-05-12T07:16:11Z</time>
      </trkpt>
      <trkpt lat="47.57647" lon="2.2171516">
        <ele>197</ele>
        <time>2022-05-12T07:16:12Z</time>
      </trkpt>
      <trkpt lat="47.576477" lon="2.217147">
        <ele>197</ele>
        <time>2022-05-12T07:16:13Z</time>
      </trkpt>
      <trkpt lat="47.576477" lon="2.21714">
        <ele>197</ele>
        <time>2022-05-12T07:16:14Z</time>
      </trkpt>
      <trkpt lat="47.576485" lon="2.2171347">
        <ele>197</ele>
        <time>2022-05-12T07:16:15Z</time>
      </trkpt>
      <trkpt lat="47.5765" lon="2.2171342">
        <ele>197</ele>
        <time>2022-05-12T07:16:16Z</time>
      </trkpt>
      <trkpt lat="47.57651" lon="2.217132">
        <ele>197</ele>
        <time>2022-05-12T07:16:17Z</time>
      </trkpt>
      <trkpt lat="47.576527" lon="2.2171261">
        <ele>197</ele>
        <time>2022-05-12T07:16:18Z</time>
      </trkpt>
      <trkpt lat="47.576538" lon="2.2171235">
        <ele>197</ele>
        <time>2022-05-12T07:16:19Z</time>
      </trkpt>
      <trkpt lat="47.57655" lon="2.2171125">
        <ele>197</ele>
        <time>2022-05-12T07:16:20Z</time>
      </trkpt>
      <trkpt lat="47.57656" lon="2.2171052">
        <ele>198</ele>
        <time>2022-05-12T07:16:21Z</time>
      </trkpt>
      <trkpt lat="47.576572" lon="2.2170951">
        <ele>198</ele>
        <time>2022-05-12T07:16:22Z</time>
      </trkpt>
      <trkpt lat="47.576584" lon="2.2170904">
        <ele>198</ele>
        <time>2022-05-12T07:16:23Z</time>
      </trkpt>
      <trkpt lat="47.5766" lon="2.2170866">
        <ele>198</ele>
        <time>2022-05-12T07:16:24Z</time>
      </trkpt>
      <trkpt lat="47.576614" lon="2.2170804">
        <ele>198</ele>
        <time>2022-05-12T07:16:25Z</time>
      </trkpt>
      <trkpt lat="47.576626" lon="2.217072">
        <ele>198</ele>
        <time>2022-05-12T07:16:26Z</time>
      </trkpt>
      <trkpt lat="47.576637" lon="2.2170656">
        <ele>198</ele>
        <time>2022-05-12T07:16:27Z</time>
      </trkpt>
      <trkpt lat="47.576645" lon="2.21706">
        <ele>198</ele>
        <time>2022-05-12T07:16:28Z</time>
      </trkpt>
      <trkpt lat="47.576653" lon="2.217053">
        <ele>198</ele>
        <time>2022-05-12T07:16:29Z</time>
      </trkpt>
      <trkpt lat="47.576664" lon="2.2170455">
        <ele>198</ele>
        <time>2022-05-12T07:16:30Z</time>
      </trkpt>
      <trkpt lat="47.576675" lon="2.2170372">
        <ele>198</ele>
        <time>2022-05-12T07:16:31Z</time>
      </trkpt>
      <trkpt lat="47.576687" lon="2.2170293">
        <ele>198</ele>
        <time>2022-05-12T07:16:32Z</time>
      </trkpt>
      <trkpt lat="47.576694" lon="2.2170205">
        <ele>197</ele>
        <time>2022-05-12T07:16:33Z</time>
      </trkpt>
      <trkpt lat="47.576706" lon="2.2170038">
        <ele>197</ele>
        <time>2022-05-12T07:16:34Z</time>
      </trkpt>
      <trkpt lat="47.576714" lon="2.2169893">
        <ele>196</ele>
        <time>2022-05-12T07:16:35Z</time>
      </trkpt>
      <trkpt lat="47.576725" lon="2.2169764">
        <ele>196</ele>
        <time>2022-05-12T07:16:36Z</time>
      </trkpt>
      <trkpt lat="47.57673" lon="2.21697">
        <ele>196</ele>
        <time>2022-05-12T07:16:37Z</time>
      </trkpt>
      <trkpt lat="47.576736" lon="2.2169607">
        <ele>196</ele>
        <time>2022-05-12T07:16:38Z</time>
      </trkpt>
      <trkpt lat="47.576748" lon="2.2169485">
        <ele>196</ele>
        <time>2022-05-12T07:16:39Z</time>
      </trkpt>
      <trkpt lat="47.57675" lon="2.216936">
        <ele>196</ele>
        <time>2022-05-12T07:16:40Z</time>
      </trkpt>
      <trkpt lat="47.57675" lon="2.2169206">
        <ele>195</ele>
        <time>2022-05-12T07:16:41Z</time>
      </trkpt>
      <trkpt lat="47.576756" lon="2.2169023">
        <ele>195</ele>
        <time>2022-05-12T07:16:42Z</time>
      </trkpt>
      <trkpt lat="47.576756" lon="2.2168908">
        <ele>195</ele>
        <time>2022-05-12T07:16:43Z</time>
      </trkpt>
      <trkpt lat="47.57676" lon="2.2168722">
        <ele>196</ele>
        <time>2022-05-12T07:16:44Z</time>
      </trkpt>
      <trkpt lat="47.576763" lon="2.216858">
        <ele>196</ele>
        <time>2022-05-12T07:16:45Z</time>
      </trkpt>
      <trkpt lat="47.576763" lon="2.2168398">
        <ele>196</ele>
        <time>2022-05-12T07:16:46Z</time>
      </trkpt>
      <trkpt lat="47.576767" lon="2.2168195">
        <ele>196</ele>
        <time>2022-05-12T07:16:47Z</time>
      </trkpt>
      <trkpt lat="47.57677" lon="2.2167995">
        <ele>196</ele>
        <time>2022-05-12T07:16:48Z</time>
      </trkpt>
      <trkpt lat="47.57677" lon="2.216784">
        <ele>196</ele>
        <time>2022-05-12T07:16:49Z</time>
      </trkpt>
      <trkpt lat="47.576775" lon="2.2167664">
        <ele>196</ele>
        <time>2022-05-12T07:16:50Z</time>
      </trkpt>
      <trkpt lat="47.576775" lon="2.2167513">
        <ele>196</ele>
        <time>2022-05-12T07:16:51Z</time>
      </trkpt>
      <trkpt lat="47.57678" lon="2.2167351">
        <ele>196</ele>
        <time>2022-05-12T07:16:52Z</time>
      </trkpt>
      <trkpt lat="47.576782" lon="2.2167194">
        <ele>196</ele>
        <time>2022-05-12T07:16:53Z</time>
      </trkpt>
      <trkpt lat="47.576782" lon="2.2167027">
        <ele>196</ele>
        <time>2022-05-12T07:16:54Z</time>
      </trkpt>
      <trkpt lat="47.576782" lon="2.2166858">
        <ele>196</ele>
        <time>2022-05-12T07:16:55Z</time>
      </trkpt>
      <trkpt lat="47.576782" lon="2.2166672">
        <ele>196</ele>
        <time>2022-05-12T07:16:56Z</time>
      </trkpt>
      <trkpt lat="47.576782" lon="2.216654">
        <ele>196</ele>
        <time>2022-05-12T07:16:57Z</time>
      </trkpt>
      <trkpt lat="47.576782" lon="2.2166386">
        <ele>196</ele>
        <time>2022-05-12T07:16:58Z</time>
      </trkpt>
      <trkpt lat="47.576782" lon="2.2166178">
        <ele>196</ele>
        <time>2022-05-12T07:16:59Z</time>
      </trkpt>
      <trkpt lat="47.576782" lon="2.2166004">
        <ele>197</ele>
        <time>2022-05-12T07:17:00Z</time>
      </trkpt>
      <trkpt lat="47.57678" lon="2.21658">
        <ele>197</ele>
        <time>2022-05-12T07:17:01Z</time>
      </trkpt>
      <trkpt lat="47.57678" lon="2.2165625">
        <ele>197</ele>
        <time>2022-05-12T07:17:02Z</time>
      </trkpt>
      <trkpt lat="47.576782" lon="2.216546">
        <ele>197</ele>
        <time>2022-05-12T07:17:03Z</time>
      </trkpt>
      <trkpt lat="47.576782" lon="2.216528">
        <ele>197</ele>
        <time>2022-05-12T07:17:04Z</time>
      </trkpt>
      <trkpt lat="47.576782" lon="2.2165058">
        <ele>197</ele>
        <time>2022-05-12T07:17:05Z</time>
      </trkpt>
      <trkpt lat="47.576782" lon="2.2164865">
        <ele>197</ele>
        <time>2022-05-12T07:17:06Z</time>
      </trkpt>
      <trkpt lat="47.57678" lon="2.2164655">
        <ele>197</ele>
        <time>2022-05-12T07:17:07Z</time>
      </trkpt>
      <trkpt lat="47.57678" lon="2.2164454">
        <ele>198</ele>
        <time>2022-05-12T07:17:08Z</time>
      </trkpt>
      <trkpt lat="47.57678" lon="2.216427">
        <ele>198</ele>
        <time>2022-05-12T07:17:09Z</time>
      </trkpt>
      <trkpt lat="47.57678" lon="2.2164068">
        <ele>197</ele>
        <time>2022-05-12T07:17:10Z</time>
      </trkpt>
      <trkpt lat="47.576782" lon="2.216391">
        <ele>197</ele>
        <time>2022-05-12T07:17:11Z</time>
      </trkpt>
      <trkpt lat="47.576782" lon="2.2163725">
        <ele>197</ele>
        <time>2022-05-12T07:17:12Z</time>
      </trkpt>
      <trkpt lat="47.576782" lon="2.2163503">
        <ele>197</ele>
        <time>2022-05-12T07:17:13Z</time>
      </trkpt>
      <trkpt lat="47.576786" lon="2.216333">
        <ele>196</ele>
        <time>2022-05-12T07:17:14Z</time>
      </trkpt>
      <trkpt lat="47.576786" lon="2.2163134">
        <ele>196</ele>
        <time>2022-05-12T07:17:15Z</time>
      </trkpt>
      <trkpt lat="47.576782" lon="2.2162912">
        <ele>196</ele>
        <time>2022-05-12T07:17:16Z</time>
      </trkpt>
      <trkpt lat="47.57678" lon="2.2162726">
        <ele>196</ele>
        <time>2022-05-12T07:17:17Z</time>
      </trkpt>
      <trkpt lat="47.57678" lon="2.2162542">
        <ele>196</ele>
        <time>2022-05-12T07:17:18Z</time>
      </trkpt>
      <trkpt lat="47.57678" lon="2.2162375">
        <ele>196</ele>
        <time>2022-05-12T07:17:19Z</time>
      </trkpt>
      <trkpt lat="47.576782" lon="2.2162213">
        <ele>197</ele>
        <time>2022-05-12T07:17:20Z</time>
      </trkpt>
      <trkpt lat="47.576786" lon="2.216206">
        <ele>197</ele>
        <time>2022-05-12T07:17:21Z</time>
      </trkpt>
      <trkpt lat="47.576782" lon="2.2161922">
        <ele>196</ele>
        <time>2022-05-12T07:17:22Z</time>
      </trkpt>
      <trkpt lat="47.576782" lon="2.21618">
        <ele>196</ele>
        <time>2022-05-12T07:17:23Z</time>
      </trkpt>
      <trkpt lat="47.576782" lon="2.2161705">
        <ele>196</ele>
        <time>2022-05-12T07:17:24Z</time>
      </trkpt>
      <trkpt lat="47.576786" lon="2.2161648">
        <ele>195</ele>
        <time>2022-05-12T07:17:25Z</time>
      </trkpt>
      <trkpt lat="47.576794" lon="2.2161584">
        <ele>196</ele>
        <time>2022-05-12T07:17:26Z</time>
      </trkpt>
      <trkpt lat="47.576797" lon="2.2161634">
        <ele>196</ele>
        <time>2022-05-12T07:17:27Z</time>
      </trkpt>
      <trkpt lat="47.576805" lon="2.2161655">
        <ele>196</ele>
        <time>2022-05-12T07:17:28Z</time>
      </trkpt>
      <trkpt lat="47.57681" lon="2.2161665">
        <ele>197</ele>
        <time>2022-05-12T07:17:29Z</time>
      </trkpt>
      <trkpt lat="47.57681" lon="2.2161667">
        <ele>196</ele>
        <time>2022-05-12T07:17:30Z</time>
      </trkpt>
      <trkpt lat="47.57681" lon="2.2161667">
        <ele>196</ele>
        <time>2022-05-12T07:17:30Z</time>
      </trkpt>
      <trkpt lat="47.57681" lon="2.2161667">
        <ele>196</ele>
        <time>2022-05-12T07:17:30Z</time>
      </trkpt>
      <trkpt lat="47.576847" lon="2.216099">
        <ele>199</ele>
        <time>2022-05-12T07:18:13Z</time>
      </trkpt>
      <trkpt lat="47.57685" lon="2.216097">
        <ele>199</ele>
        <time>2022-05-12T07:18:14Z</time>
      </trkpt>
      <trkpt lat="47.576855" lon="2.2160916">
        <ele>199</ele>
        <time>2022-05-12T07:18:15Z</time>
      </trkpt>
      <trkpt lat="47.576866" lon="2.2160878">
        <ele>200</ele>
        <time>2022-05-12T07:18:16Z</time>
      </trkpt>
      <trkpt lat="47.576874" lon="2.2160857">
        <ele>200</ele>
        <time>2022-05-12T07:18:17Z</time>
      </trkpt>
      <trkpt lat="47.57688" lon="2.2160826">
        <ele>200</ele>
        <time>2022-05-12T07:18:18Z</time>
      </trkpt>
      <trkpt lat="47.57689" lon="2.2160764">
        <ele>200</ele>
        <time>2022-05-12T07:18:19Z</time>
      </trkpt>
      <trkpt lat="47.5769" lon="2.2160735">
        <ele>200</ele>
        <time>2022-05-12T07:18:20Z</time>
      </trkpt>
      <trkpt lat="47.576912" lon="2.2160742">
        <ele>201</ele>
        <time>2022-05-12T07:18:21Z</time>
      </trkpt>
      <trkpt lat="47.576923" lon="2.2160735">
        <ele>201</ele>
        <time>2022-05-12T07:18:22Z</time>
      </trkpt>
      <trkpt lat="47.57693" lon="2.2160764">
        <ele>200</ele>
        <time>2022-05-12T07:18:23Z</time>
      </trkpt>
      <trkpt lat="47.57694" lon="2.2160776">
        <ele>200</ele>
        <time>2022-05-12T07:18:24Z</time>
      </trkpt>
      <trkpt lat="47.57695" lon="2.216081">
        <ele>200</ele>
        <time>2022-05-12T07:18:25Z</time>
      </trkpt>
      <trkpt lat="47.576958" lon="2.2160866">
        <ele>200</ele>
        <time>2022-05-12T07:18:26Z</time>
      </trkpt>
      <trkpt lat="47.576965" lon="2.2160907">
        <ele>200</ele>
        <time>2022-05-12T07:18:27Z</time>
      </trkpt>
      <trkpt lat="47.576977" lon="2.2160945">
        <ele>201</ele>
        <time>2022-05-12T07:18:28Z</time>
      </trkpt>
      <trkpt lat="47.576984" lon="2.2160962">
        <ele>201</ele>
        <time>2022-05-12T07:18:29Z</time>
      </trkpt>
      <trkpt lat="47.576996" lon="2.2160993">
        <ele>201</ele>
        <time>2022-05-12T07:18:30Z</time>
      </trkpt>
      <trkpt lat="47.577007" lon="2.2161036">
        <ele>202</ele>
        <time>2022-05-12T07:18:31Z</time>
      </trkpt>
      <trkpt lat="47.57702" lon="2.2161083">
        <ele>202</ele>
        <time>2022-05-12T07:18:32Z</time>
      </trkpt>
      <trkpt lat="47.577026" lon="2.216113">
        <ele>202</ele>
        <time>2022-05-12T07:18:33Z</time>
      </trkpt>
      <trkpt lat="47.577034" lon="2.2161205">
        <ele>202</ele>
        <time>2022-05-12T07:18:34Z</time>
      </trkpt>
      <trkpt lat="47.57704" lon="2.2161226">
        <ele>202</ele>
        <time>2022-05-12T07:18:35Z</time>
      </trkpt>
      <trkpt lat="47.577053" lon="2.2161207">
        <ele>202</ele>
        <time>2022-05-12T07:18:36Z</time>
      </trkpt>
      <trkpt lat="47.577065" lon="2.2161188">
        <ele>202</ele>
        <time>2022-05-12T07:18:37Z</time>
      </trkpt>
      <trkpt lat="47.577072" lon="2.2161207">
        <ele>202</ele>
        <time>2022-05-12T07:18:38Z</time>
      </trkpt>
      <trkpt lat="47.577084" lon="2.2161214">
        <ele>202</ele>
        <time>2022-05-12T07:18:39Z</time>
      </trkpt>
      <trkpt lat="47.57709" lon="2.2161243">
        <ele>202</ele>
        <time>2022-05-12T07:18:40Z</time>
      </trkpt>
      <trkpt lat="47.577106" lon="2.2161238">
        <ele>203</ele>
        <time>2022-05-12T07:18:41Z</time>
      </trkpt>
      <trkpt lat="47.577118" lon="2.216126">
        <ele>203</ele>
        <time>2022-05-12T07:18:42Z</time>
      </trkpt>
      <trkpt lat="47.577133" lon="2.2161276">
        <ele>203</ele>
        <time>2022-05-12T07:18:43Z</time>
      </trkpt>
      <trkpt lat="47.577145" lon="2.216129">
        <ele>202</ele>
        <time>2022-05-12T07:18:44Z</time>
      </trkpt>
      <trkpt lat="47.577156" lon="2.2161336">
        <ele>202</ele>
        <time>2022-05-12T07:18:45Z</time>
      </trkpt>
      <trkpt lat="47.577168" lon="2.216141">
        <ele>202</ele>
        <time>2022-05-12T07:18:46Z</time>
      </trkpt>
      <trkpt lat="47.577175" lon="2.2161443">
        <ele>202</ele>
        <time>2022-05-12T07:18:47Z</time>
      </trkpt>
      <trkpt lat="47.577187" lon="2.216149">
        <ele>201</ele>
        <time>2022-05-12T07:18:48Z</time>
      </trkpt>
      <trkpt lat="47.577194" lon="2.21615">
        <ele>201</ele>
        <time>2022-05-12T07:18:49Z</time>
      </trkpt>
      <trkpt lat="47.577198" lon="2.216152">
        <ele>200</ele>
        <time>2022-05-12T07:18:50Z</time>
      </trkpt>
      <trkpt lat="47.577213" lon="2.2161565">
        <ele>199</ele>
        <time>2022-05-12T07:18:51Z</time>
      </trkpt>
      <trkpt lat="47.57722" lon="2.2161634">
        <ele>199</ele>
        <time>2022-05-12T07:18:52Z</time>
      </trkpt>
      <trkpt lat="47.577232" lon="2.216164">
        <ele>200</ele>
        <time>2022-05-12T07:18:53Z</time>
      </trkpt>
      <trkpt lat="47.577248" lon="2.2161639">
        <ele>199</ele>
        <time>2022-05-12T07:18:54Z</time>
      </trkpt>
      <trkpt lat="47.57726" lon="2.2161658">
        <ele>199</ele>
        <time>2022-05-12T07:18:55Z</time>
      </trkpt>
      <trkpt lat="47.57727" lon="2.2161648">
        <ele>199</ele>
        <time>2022-05-12T07:18:56Z</time>
      </trkpt>
      <trkpt lat="47.577282" lon="2.216168">
        <ele>198</ele>
        <time>2022-05-12T07:18:57Z</time>
      </trkpt>
      <trkpt lat="47.577297" lon="2.216176">
        <ele>198</ele>
        <time>2022-05-12T07:18:58Z</time>
      </trkpt>
      <trkpt lat="47.57731" lon="2.2161832">
        <ele>198</ele>
        <time>2022-05-12T07:18:59Z</time>
      </trkpt>
      <trkpt lat="47.577316" lon="2.2161908">
        <ele>198</ele>
        <time>2022-05-12T07:19:00Z</time>
      </trkpt>
      <trkpt lat="47.57733" lon="2.2161973">
        <ele>198</ele>
        <time>2022-05-12T07:19:01Z</time>
      </trkpt>
      <trkpt lat="47.577343" lon="2.2162015">
        <ele>198</ele>
        <time>2022-05-12T07:19:02Z</time>
      </trkpt>
      <trkpt lat="47.57736" lon="2.2162051">
        <ele>198</ele>
        <time>2022-05-12T07:19:03Z</time>
      </trkpt>
      <trkpt lat="47.57737" lon="2.2162144">
        <ele>198</ele>
        <time>2022-05-12T07:19:04Z</time>
      </trkpt>
      <trkpt lat="47.577377" lon="2.21622">
        <ele>198</ele>
        <time>2022-05-12T07:19:05Z</time>
      </trkpt>
      <trkpt lat="47.57739" lon="2.2162266">
        <ele>199</ele>
        <time>2022-05-12T07:19:06Z</time>
      </trkpt>
      <trkpt lat="47.5774" lon="2.2162306">
        <ele>199</ele>
        <time>2022-05-12T07:19:07Z</time>
      </trkpt>
      <trkpt lat="47.577408" lon="2.2162313">
        <ele>199</ele>
        <time>2022-05-12T07:19:08Z</time>
      </trkpt>
      <trkpt lat="47.577415" lon="2.216232">
        <ele>199</ele>
        <time>2022-05-12T07:19:09Z</time>
      </trkpt>
      <trkpt lat="47.577427" lon="2.2162392">
        <ele>199</ele>
        <time>2022-05-12T07:19:10Z</time>
      </trkpt>
      <trkpt lat="47.57744" lon="2.2162426">
        <ele>199</ele>
        <time>2022-05-12T07:19:11Z</time>
      </trkpt>
      <trkpt lat="47.577446" lon="2.2162476">
        <ele>199</ele>
        <time>2022-05-12T07:19:12Z</time>
      </trkpt>
      <trkpt lat="47.577457" lon="2.216253">
        <ele>199</ele>
        <time>2022-05-12T07:19:13Z</time>
      </trkpt>
      <trkpt lat="47.57747" lon="2.2162573">
        <ele>198</ele>
        <time>2022-05-12T07:19:14Z</time>
      </trkpt>
      <trkpt lat="47.577477" lon="2.216259">
        <ele>198</ele>
        <time>2022-05-12T07:19:15Z</time>
      </trkpt>
      <trkpt lat="47.577488" lon="2.2162628">
        <ele>198</ele>
        <time>2022-05-12T07:19:16Z</time>
      </trkpt>
      <trkpt lat="47.577496" lon="2.2162726">
        <ele>198</ele>
        <time>2022-05-12T07:19:17Z</time>
      </trkpt>
      <trkpt lat="47.577507" lon="2.216279">
        <ele>198</ele>
        <time>2022-05-12T07:19:18Z</time>
      </trkpt>
      <trkpt lat="47.57752" lon="2.216286">
        <ele>198</ele>
        <time>2022-05-12T07:19:19Z</time>
      </trkpt>
      <trkpt lat="47.57753" lon="2.216293">
        <ele>198</ele>
        <time>2022-05-12T07:19:20Z</time>
      </trkpt>
      <trkpt lat="47.577538" lon="2.2163">
        <ele>198</ele>
        <time>2022-05-12T07:19:21Z</time>
      </trkpt>
      <trkpt lat="47.57755" lon="2.2163038">
        <ele>198</ele>
        <time>2022-05-12T07:19:22Z</time>
      </trkpt>
      <trkpt lat="47.577564" lon="2.2163072">
        <ele>198</ele>
        <time>2022-05-12T07:19:23Z</time>
      </trkpt>
      <trkpt lat="47.577576" lon="2.2163062">
        <ele>198</ele>
        <time>2022-05-12T07:19:24Z</time>
      </trkpt>
      <trkpt lat="47.57758" lon="2.2162988">
        <ele>198</ele>
        <time>2022-05-12T07:19:25Z</time>
      </trkpt>
      <trkpt lat="47.577583" lon="2.2163005">
        <ele>198</ele>
        <time>2022-05-12T07:19:26Z</time>
      </trkpt>
      <trkpt lat="47.57759" lon="2.2163033">
        <ele>198</ele>
        <time>2022-05-12T07:19:27Z</time>
      </trkpt>
      <trkpt lat="47.577602" lon="2.2163022">
        <ele>199</ele>
        <time>2022-05-12T07:19:28Z</time>
      </trkpt>
      <trkpt lat="47.577614" lon="2.216305">
        <ele>199</ele>
        <time>2022-05-12T07:19:29Z</time>
      </trkpt>
      <trkpt lat="47.57763" lon="2.2163072">
        <ele>199</ele>
        <time>2022-05-12T07:19:30Z</time>
      </trkpt>
      <trkpt lat="47.577644" lon="2.2163181">
        <ele>199</ele>
        <time>2022-05-12T07:19:31Z</time>
      </trkpt>
      <trkpt lat="47.577652" lon="2.2163281">
        <ele>200</ele>
        <time>2022-05-12T07:19:32Z</time>
      </trkpt>
      <trkpt lat="47.57766" lon="2.2163389">
        <ele>200</ele>
        <time>2022-05-12T07:19:33Z</time>
      </trkpt>
      <trkpt lat="47.57767" lon="2.2163403">
        <ele>201</ele>
        <time>2022-05-12T07:19:34Z</time>
      </trkpt>
      <trkpt lat="47.577686" lon="2.2163472">
        <ele>201</ele>
        <time>2022-05-12T07:19:35Z</time>
      </trkpt>
      <trkpt lat="47.577698" lon="2.2163513">
        <ele>201</ele>
        <time>2022-05-12T07:19:36Z</time>
      </trkpt>
      <trkpt lat="47.57771" lon="2.2163575">
        <ele>201</ele>
        <time>2022-05-12T07:19:37Z</time>
      </trkpt>
      <trkpt lat="47.577724" lon="2.2163618">
        <ele>202</ele>
        <time>2022-05-12T07:19:38Z</time>
      </trkpt>
      <trkpt lat="47.577736" lon="2.21637">
        <ele>202</ele>
        <time>2022-05-12T07:19:39Z</time>
      </trkpt>
      <trkpt lat="47.577747" lon="2.2163765">
        <ele>202</ele>
        <time>2022-05-12T07:19:40Z</time>
      </trkpt>
      <trkpt lat="47.577763" lon="2.2163815">
        <ele>202</ele>
        <time>2022-05-12T07:19:41Z</time>
      </trkpt>
      <trkpt lat="47.577774" lon="2.2163858">
        <ele>202</ele>
        <time>2022-05-12T07:19:42Z</time>
      </trkpt>
      <trkpt lat="47.57779" lon="2.2163908">
        <ele>202</ele>
        <time>2022-05-12T07:19:43Z</time>
      </trkpt>
      <trkpt lat="47.577797" lon="2.2163997">
        <ele>202</ele>
        <time>2022-05-12T07:19:44Z</time>
      </trkpt>
      <trkpt lat="47.57781" lon="2.216407">
        <ele>203</ele>
        <time>2022-05-12T07:19:45Z</time>
      </trkpt>
      <trkpt lat="47.577816" lon="2.2164152">
        <ele>203</ele>
        <time>2022-05-12T07:19:46Z</time>
      </trkpt>
      <trkpt lat="47.57782" lon="2.2164228">
        <ele>204</ele>
        <time>2022-05-12T07:19:47Z</time>
      </trkpt>
      <trkpt lat="47.57783" lon="2.2164245">
        <ele>203</ele>
        <time>2022-05-12T07:19:48Z</time>
      </trkpt>
      <trkpt lat="47.577843" lon="2.216432">
        <ele>204</ele>
        <time>2022-05-12T07:19:49Z</time>
      </trkpt>
      <trkpt lat="47.577854" lon="2.2164357">
        <ele>204</ele>
        <time>2022-05-12T07:19:50Z</time>
      </trkpt>
      <trkpt lat="47.57786" lon="2.2164457">
        <ele>204</ele>
        <time>2022-05-12T07:19:51Z</time>
      </trkpt>
      <trkpt lat="47.577873" lon="2.2164567">
        <ele>204</ele>
        <time>2022-05-12T07:19:52Z</time>
      </trkpt>
      <trkpt lat="47.57788" lon="2.2164667">
        <ele>204</ele>
        <time>2022-05-12T07:19:53Z</time>
      </trkpt>
      <trkpt lat="47.577892" lon="2.2164779">
        <ele>205</ele>
        <time>2022-05-12T07:19:54Z</time>
      </trkpt>
      <trkpt lat="47.577904" lon="2.2164848">
        <ele>205</ele>
        <time>2022-05-12T07:19:55Z</time>
      </trkpt>
      <trkpt lat="47.577923" lon="2.2164903">
        <ele>204</ele>
        <time>2022-05-12T07:19:56Z</time>
      </trkpt>
      <trkpt lat="47.57794" lon="2.2165034">
        <ele>204</ele>
        <time>2022-05-12T07:19:58Z</time>
      </trkpt>
      <trkpt lat="47.57795" lon="2.2165103">
        <ele>204</ele>
        <time>2022-05-12T07:19:59Z</time>
      </trkpt>
      <trkpt lat="47.577953" lon="2.2165174">
        <ele>204</ele>
        <time>2022-05-12T07:20:00Z</time>
      </trkpt>
      <trkpt lat="47.577965" lon="2.2165222">
        <ele>204</ele>
        <time>2022-05-12T07:20:01Z</time>
      </trkpt>
      <trkpt lat="47.577976" lon="2.2165275">
        <ele>204</ele>
        <time>2022-05-12T07:20:02Z</time>
      </trkpt>
      <trkpt lat="47.577988" lon="2.2165277">
        <ele>204</ele>
        <time>2022-05-12T07:20:03Z</time>
      </trkpt>
      <trkpt lat="47.577995" lon="2.2165318">
        <ele>204</ele>
        <time>2022-05-12T07:20:04Z</time>
      </trkpt>
      <trkpt lat="47.578007" lon="2.216539">
        <ele>204</ele>
        <time>2022-05-12T07:20:05Z</time>
      </trkpt>
      <trkpt lat="47.57802" lon="2.2165406">
        <ele>204</ele>
        <time>2022-05-12T07:20:06Z</time>
      </trkpt>
      <trkpt lat="47.578033" lon="2.216542">
        <ele>204</ele>
        <time>2022-05-12T07:20:07Z</time>
      </trkpt>
      <trkpt lat="47.57804" lon="2.2165444">
        <ele>204</ele>
        <time>2022-05-12T07:20:08Z</time>
      </trkpt>
      <trkpt lat="47.578056" lon="2.21655">
        <ele>204</ele>
        <time>2022-05-12T07:20:09Z</time>
      </trkpt>
      <trkpt lat="47.578064" lon="2.2165532">
        <ele>204</ele>
        <time>2022-05-12T07:20:10Z</time>
      </trkpt>
      <trkpt lat="47.578075" lon="2.2165563">
        <ele>204</ele>
        <time>2022-05-12T07:20:11Z</time>
      </trkpt>
      <trkpt lat="47.578087" lon="2.2165642">
        <ele>204</ele>
        <time>2022-05-12T07:20:12Z</time>
      </trkpt>
      <trkpt lat="47.5781" lon="2.2165744">
        <ele>204</ele>
        <time>2022-05-12T07:20:13Z</time>
      </trkpt>
      <trkpt lat="47.57811" lon="2.2165802">
        <ele>204</ele>
        <time>2022-05-12T07:20:14Z</time>
      </trkpt>
      <trkpt lat="47.57812" lon="2.2165875">
        <ele>204</ele>
        <time>2022-05-12T07:20:15Z</time>
      </trkpt>
      <trkpt lat="47.57813" lon="2.2165878">
        <ele>204</ele>
        <time>2022-05-12T07:20:16Z</time>
      </trkpt>
      <trkpt lat="47.578136" lon="2.2165873">
        <ele>203</ele>
        <time>2022-05-12T07:20:17Z</time>
      </trkpt>
      <trkpt lat="47.578148" lon="2.2165852">
        <ele>204</ele>
        <time>2022-05-12T07:20:18Z</time>
      </trkpt>
      <trkpt lat="47.57816" lon="2.2165923">
        <ele>203</ele>
        <time>2022-05-12T07:20:19Z</time>
      </trkpt>
      <trkpt lat="47.578167" lon="2.216596">
        <ele>203</ele>
        <time>2022-05-12T07:20:20Z</time>
      </trkpt>
      <trkpt lat="47.57818" lon="2.2165997">
        <ele>203</ele>
        <time>2022-05-12T07:20:21Z</time>
      </trkpt>
      <trkpt lat="47.578194" lon="2.2166054">
        <ele>203</ele>
        <time>2022-05-12T07:20:22Z</time>
      </trkpt>
      <trkpt lat="47.578205" lon="2.2166126">
        <ele>203</ele>
        <time>2022-05-12T07:20:23Z</time>
      </trkpt>
      <trkpt lat="47.578213" lon="2.2166216">
        <ele>203</ele>
        <time>2022-05-12T07:20:24Z</time>
      </trkpt>
      <trkpt lat="47.57822" lon="2.2166307">
        <ele>203</ele>
        <time>2022-05-12T07:20:25Z</time>
      </trkpt>
      <trkpt lat="47.578228" lon="2.2166374">
        <ele>203</ele>
        <time>2022-05-12T07:20:26Z</time>
      </trkpt>
      <trkpt lat="47.578236" lon="2.2166417">
        <ele>203</ele>
        <time>2022-05-12T07:20:27Z</time>
      </trkpt>
      <trkpt lat="47.57825" lon="2.2166512">
        <ele>203</ele>
        <time>2022-05-12T07:20:28Z</time>
      </trkpt>
      <trkpt lat="47.578262" lon="2.2166574">
        <ele>203</ele>
        <time>2022-05-12T07:20:29Z</time>
      </trkpt>
      <trkpt lat="47.57827" lon="2.216662">
        <ele>202</ele>
        <time>2022-05-12T07:20:30Z</time>
      </trkpt>
      <trkpt lat="47.57828" lon="2.2166634">
        <ele>202</ele>
        <time>2022-05-12T07:20:31Z</time>
      </trkpt>
      <trkpt lat="47.578293" lon="2.2166672">
        <ele>202</ele>
        <time>2022-05-12T07:20:32Z</time>
      </trkpt>
      <trkpt lat="47.578304" lon="2.2166705">
        <ele>201</ele>
        <time>2022-05-12T07:20:33Z</time>
      </trkpt>
      <trkpt lat="47.57832" lon="2.2166646">
        <ele>201</ele>
        <time>2022-05-12T07:20:34Z</time>
      </trkpt>
      <trkpt lat="47.57833" lon="2.2166567">
        <ele>200</ele>
        <time>2022-05-12T07:20:35Z</time>
      </trkpt>
      <trkpt lat="47.578346" lon="2.216649">
        <ele>200</ele>
        <time>2022-05-12T07:20:36Z</time>
      </trkpt>
      <trkpt lat="47.578358" lon="2.216646">
        <ele>200</ele>
        <time>2022-05-12T07:20:37Z</time>
      </trkpt>
      <trkpt lat="47.57837" lon="2.2166495">
        <ele>199</ele>
        <time>2022-05-12T07:20:38Z</time>
      </trkpt>
      <trkpt lat="47.578377" lon="2.2166498">
        <ele>198</ele>
        <time>2022-05-12T07:20:39Z</time>
      </trkpt>
      <trkpt lat="47.578384" lon="2.2166514">
        <ele>198</ele>
        <time>2022-05-12T07:20:40Z</time>
      </trkpt>
      <trkpt lat="47.578396" lon="2.2166464">
        <ele>197</ele>
        <time>2022-05-12T07:20:41Z</time>
      </trkpt>
      <trkpt lat="47.578403" lon="2.216646">
        <ele>197</ele>
        <time>2022-05-12T07:20:42Z</time>
      </trkpt>
      <trkpt lat="47.578415" lon="2.216643">
        <ele>197</ele>
        <time>2022-05-12T07:20:43Z</time>
      </trkpt>
      <trkpt lat="47.578426" lon="2.2166343">
        <ele>197</ele>
        <time>2022-05-12T07:20:44Z</time>
      </trkpt>
      <trkpt lat="47.578438" lon="2.216629">
        <ele>197</ele>
        <time>2022-05-12T07:20:45Z</time>
      </trkpt>
      <trkpt lat="47.57845" lon="2.2166295">
        <ele>196</ele>
        <time>2022-05-12T07:20:46Z</time>
      </trkpt>
      <trkpt lat="47.57846" lon="2.2166317">
        <ele>196</ele>
        <time>2022-05-12T07:20:47Z</time>
      </trkpt>
      <trkpt lat="47.578472" lon="2.2166257">
        <ele>196</ele>
        <time>2022-05-12T07:20:48Z</time>
      </trkpt>
      <trkpt lat="47.57848" lon="2.216627">
        <ele>196</ele>
        <time>2022-05-12T07:20:49Z</time>
      </trkpt>
      <trkpt lat="47.57849" lon="2.216623">
        <ele>195</ele>
        <time>2022-05-12T07:20:50Z</time>
      </trkpt>
      <trkpt lat="47.578503" lon="2.2166224">
        <ele>195</ele>
        <time>2022-05-12T07:20:51Z</time>
      </trkpt>
      <trkpt lat="47.578514" lon="2.2166214">
        <ele>196</ele>
        <time>2022-05-12T07:20:52Z</time>
      </trkpt>
      <trkpt lat="47.578526" lon="2.2166193">
        <ele>195</ele>
        <time>2022-05-12T07:20:53Z</time>
      </trkpt>
      <trkpt lat="47.578537" lon="2.216619">
        <ele>195</ele>
        <time>2022-05-12T07:20:54Z</time>
      </trkpt>
      <trkpt lat="47.57855" lon="2.2166078">
        <ele>194</ele>
        <time>2022-05-12T07:20:55Z</time>
      </trkpt>
      <trkpt lat="47.578564" lon="2.2166002">
        <ele>195</ele>
        <time>2022-05-12T07:20:56Z</time>
      </trkpt>
      <trkpt lat="47.578575" lon="2.2165985">
        <ele>195</ele>
        <time>2022-05-12T07:20:57Z</time>
      </trkpt>
      <trkpt lat="47.578587" lon="2.216591">
        <ele>194</ele>
        <time>2022-05-12T07:20:58Z</time>
      </trkpt>
      <trkpt lat="47.578598" lon="2.216581">
        <ele>194</ele>
        <time>2022-05-12T07:20:59Z</time>
      </trkpt>
      <trkpt lat="47.57861" lon="2.2165737">
        <ele>193</ele>
        <time>2022-05-12T07:21:00Z</time>
      </trkpt>
      <trkpt lat="47.578625" lon="2.2165587">
        <ele>193</ele>
        <time>2022-05-12T07:21:01Z</time>
      </trkpt>
      <trkpt lat="47.57864" lon="2.216544">
        <ele>193</ele>
        <time>2022-05-12T07:21:02Z</time>
      </trkpt>
      <trkpt lat="47.578644" lon="2.216537">
        <ele>193</ele>
        <time>2022-05-12T07:21:03Z</time>
      </trkpt>
      <trkpt lat="47.57865" lon="2.2165234">
        <ele>192</ele>
        <time>2022-05-12T07:21:04Z</time>
      </trkpt>
      <trkpt lat="47.57866" lon="2.216514">
        <ele>192</ele>
        <time>2022-05-12T07:21:05Z</time>
      </trkpt>
      <trkpt lat="47.57867" lon="2.2165067">
        <ele>192</ele>
        <time>2022-05-12T07:21:06Z</time>
      </trkpt>
      <trkpt lat="47.578682" lon="2.2164993">
        <ele>192</ele>
        <time>2022-05-12T07:21:07Z</time>
      </trkpt>
      <trkpt lat="47.578693" lon="2.216494">
        <ele>192</ele>
        <time>2022-05-12T07:21:08Z</time>
      </trkpt>
      <trkpt lat="47.578705" lon="2.2164917">
        <ele>193</ele>
        <time>2022-05-12T07:21:09Z</time>
      </trkpt>
      <trkpt lat="47.578712" lon="2.2164881">
        <ele>193</ele>
        <time>2022-05-12T07:21:10Z</time>
      </trkpt>
      <trkpt lat="47.578724" lon="2.2164814">
        <ele>194</ele>
        <time>2022-05-12T07:21:11Z</time>
      </trkpt>
      <trkpt lat="47.578735" lon="2.2164738">
        <ele>194</ele>
        <time>2022-05-12T07:21:12Z</time>
      </trkpt>
      <trkpt lat="47.57875" lon="2.216475">
        <ele>194</ele>
        <time>2022-05-12T07:21:13Z</time>
      </trkpt>
      <trkpt lat="47.57876" lon="2.2164705">
        <ele>195</ele>
        <time>2022-05-12T07:21:14Z</time>
      </trkpt>
      <trkpt lat="47.578766" lon="2.2164683">
        <ele>195</ele>
        <time>2022-05-12T07:21:15Z</time>
      </trkpt>
      <trkpt lat="47.578777" lon="2.2164693">
        <ele>195</ele>
        <time>2022-05-12T07:21:16Z</time>
      </trkpt>
      <trkpt lat="47.578777" lon="2.2164693">
        <ele>195</ele>
        <time>2022-05-12T07:21:17Z</time>
      </trkpt>
      <trkpt lat="47.578777" lon="2.2164693">
        <ele>195</ele>
        <time>2022-05-12T07:21:18Z</time>
      </trkpt>
      <trkpt lat="47.578804" lon="2.216469">
        <ele>194</ele>
        <time>2022-05-12T07:21:19Z</time>
      </trkpt>
      <trkpt lat="47.57881" lon="2.216462">
        <ele>194</ele>
        <time>2022-05-12T07:21:20Z</time>
      </trkpt>
      <trkpt lat="47.57882" lon="2.216451">
        <ele>194</ele>
        <time>2022-05-12T07:21:21Z</time>
      </trkpt>
      <trkpt lat="47.57883" lon="2.2164454">
        <ele>194</ele>
        <time>2022-05-12T07:21:22Z</time>
      </trkpt>
      <trkpt lat="47.578842" lon="2.2164452">
        <ele>194</ele>
        <time>2022-05-12T07:21:23Z</time>
      </trkpt>
      <trkpt lat="47.57885" lon="2.2164397">
        <ele>193</ele>
        <time>2022-05-12T07:21:24Z</time>
      </trkpt>
      <trkpt lat="47.57886" lon="2.2164323">
        <ele>194</ele>
        <time>2022-05-12T07:21:25Z</time>
      </trkpt>
      <trkpt lat="47.578873" lon="2.216432">
        <ele>194</ele>
        <time>2022-05-12T07:21:26Z</time>
      </trkpt>
      <trkpt lat="47.578876" lon="2.2164254">
        <ele>194</ele>
        <time>2022-05-12T07:21:27Z</time>
      </trkpt>
      <trkpt lat="47.578888" lon="2.2164152">
        <ele>194</ele>
        <time>2022-05-12T07:21:28Z</time>
      </trkpt>
      <trkpt lat="47.578896" lon="2.216405">
        <ele>194</ele>
        <time>2022-05-12T07:21:29Z</time>
      </trkpt>
      <trkpt lat="47.578907" lon="2.216398">
        <ele>195</ele>
        <time>2022-05-12T07:21:30Z</time>
      </trkpt>
      <trkpt lat="47.57892" lon="2.2163887">
        <ele>195</ele>
        <time>2022-05-12T07:21:31Z</time>
      </trkpt>
      <trkpt lat="47.578934" lon="2.216388">
        <ele>195</ele>
        <time>2022-05-12T07:21:32Z</time>
      </trkpt>
      <trkpt lat="47.578945" lon="2.2163823">
        <ele>195</ele>
        <time>2022-05-12T07:21:33Z</time>
      </trkpt>
      <trkpt lat="47.578957" lon="2.2163734">
        <ele>194</ele>
        <time>2022-05-12T07:21:34Z</time>
      </trkpt>
      <trkpt lat="47.578968" lon="2.2163682">
        <ele>194</ele>
        <time>2022-05-12T07:21:35Z</time>
      </trkpt>
      <trkpt lat="47.57898" lon="2.2163599">
        <ele>193</ele>
        <time>2022-05-12T07:21:36Z</time>
      </trkpt>
      <trkpt lat="47.57899" lon="2.2163506">
        <ele>193</ele>
        <time>2022-05-12T07:21:37Z</time>
      </trkpt>
      <trkpt lat="47.579002" lon="2.216342">
        <ele>193</ele>
        <time>2022-05-12T07:21:38Z</time>
      </trkpt>
      <trkpt lat="47.579014" lon="2.2163382">
        <ele>193</ele>
        <time>2022-05-12T07:21:39Z</time>
      </trkpt>
      <trkpt lat="47.57902" lon="2.216337">
        <ele>193</ele>
        <time>2022-05-12T07:21:40Z</time>
      </trkpt>
      <trkpt lat="47.579033" lon="2.2163334">
        <ele>193</ele>
        <time>2022-05-12T07:21:41Z</time>
      </trkpt>
      <trkpt lat="47.57905" lon="2.2163239">
        <ele>193</ele>
        <time>2022-05-12T07:21:42Z</time>
      </trkpt>
      <trkpt lat="47.57906" lon="2.2163136">
        <ele>194</ele>
        <time>2022-05-12T07:21:43Z</time>
      </trkpt>
      <trkpt lat="47.579075" lon="2.216303">
        <ele>193</ele>
        <time>2022-05-12T07:21:44Z</time>
      </trkpt>
      <trkpt lat="47.579086" lon="2.2162943">
        <ele>193</ele>
        <time>2022-05-12T07:21:45Z</time>
      </trkpt>
      <trkpt lat="47.579094" lon="2.2162857">
        <ele>193</ele>
        <time>2022-05-12T07:21:46Z</time>
      </trkpt>
      <trkpt lat="47.5791" lon="2.2162821">
        <ele>193</ele>
        <time>2022-05-12T07:21:47Z</time>
      </trkpt>
      <trkpt lat="47.579117" lon="2.2162802">
        <ele>193</ele>
        <time>2022-05-12T07:21:48Z</time>
      </trkpt>
      <trkpt lat="47.57913" lon="2.216279">
        <ele>192</ele>
        <time>2022-05-12T07:21:49Z</time>
      </trkpt>
      <trkpt lat="47.57914" lon="2.2162735">
        <ele>193</ele>
        <time>2022-05-12T07:21:50Z</time>
      </trkpt>
      <trkpt lat="47.579147" lon="2.2162676">
        <ele>193</ele>
        <time>2022-05-12T07:21:51Z</time>
      </trkpt>
      <trkpt lat="47.579163" lon="2.216254">
        <ele>192</ele>
        <time>2022-05-12T07:21:52Z</time>
      </trkpt>
      <trkpt lat="47.579174" lon="2.2162437">
        <ele>192</ele>
        <time>2022-05-12T07:21:53Z</time>
      </trkpt>
      <trkpt lat="47.57919" lon="2.2162378">
        <ele>192</ele>
        <time>2022-05-12T07:21:54Z</time>
      </trkpt>
      <trkpt lat="47.5792" lon="2.2162266">
        <ele>192</ele>
        <time>2022-05-12T07:21:55Z</time>
      </trkpt>
      <trkpt lat="47.579212" lon="2.2162192">
        <ele>192</ele>
        <time>2022-05-12T07:21:56Z</time>
      </trkpt>
      <trkpt lat="47.579227" lon="2.2162147">
        <ele>193</ele>
        <time>2022-05-12T07:21:57Z</time>
      </trkpt>
      <trkpt lat="47.579243" lon="2.2162085">
        <ele>193</ele>
        <time>2022-05-12T07:21:58Z</time>
      </trkpt>
      <trkpt lat="47.579254" lon="2.2162044">
        <ele>193</ele>
        <time>2022-05-12T07:21:59Z</time>
      </trkpt>
      <trkpt lat="47.57926" lon="2.2162018">
        <ele>193</ele>
        <time>2022-05-12T07:22:00Z</time>
      </trkpt>
      <trkpt lat="47.57926" lon="2.2161977">
        <ele>193</ele>
        <time>2022-05-12T07:22:01Z</time>
      </trkpt>
      <trkpt lat="47.57926" lon="2.2161977">
        <ele>193</ele>
        <time>2022-05-12T07:22:02Z</time>
      </trkpt>
      <trkpt lat="47.57926" lon="2.2161977">
        <ele>193</ele>
        <time>2022-05-12T07:22:03Z</time>
      </trkpt>
      <trkpt lat="47.579285" lon="2.216184">
        <ele>193</ele>
        <time>2022-05-12T07:22:04Z</time>
      </trkpt>
      <trkpt lat="47.579292" lon="2.2161777">
        <ele>193</ele>
        <time>2022-05-12T07:22:05Z</time>
      </trkpt>
      <trkpt lat="47.5793" lon="2.216171">
        <ele>192</ele>
        <time>2022-05-12T07:22:06Z</time>
      </trkpt>
      <trkpt lat="47.579308" lon="2.2161663">
        <ele>192</ele>
        <time>2022-05-12T07:22:07Z</time>
      </trkpt>
      <trkpt lat="47.579315" lon="2.2161615">
        <ele>192</ele>
        <time>2022-05-12T07:22:08Z</time>
      </trkpt>
      <trkpt lat="47.579323" lon="2.2161524">
        <ele>192</ele>
        <time>2022-05-12T07:22:09Z</time>
      </trkpt>
      <trkpt lat="47.579334" lon="2.2161436">
        <ele>191</ele>
        <time>2022-05-12T07:22:10Z</time>
      </trkpt>
      <trkpt lat="47.579346" lon="2.2161353">
        <ele>192</ele>
        <time>2022-05-12T07:22:11Z</time>
      </trkpt>
      <trkpt lat="47.579357" lon="2.2161317">
        <ele>192</ele>
        <time>2022-05-12T07:22:12Z</time>
      </trkpt>
      <trkpt lat="47.57937" lon="2.2161248">
        <ele>192</ele>
        <time>2022-05-12T07:22:13Z</time>
      </trkpt>
      <trkpt lat="47.579384" lon="2.2161236">
        <ele>193</ele>
        <time>2022-05-12T07:22:14Z</time>
      </trkpt>
      <trkpt lat="47.579395" lon="2.2161193">
        <ele>193</ele>
        <time>2022-05-12T07:22:15Z</time>
      </trkpt>
      <trkpt lat="47.57941" lon="2.2161152">
        <ele>192</ele>
        <time>2022-05-12T07:22:16Z</time>
      </trkpt>
      <trkpt lat="47.579422" lon="2.2161086">
        <ele>192</ele>
        <time>2022-05-12T07:22:17Z</time>
      </trkpt>
      <trkpt lat="47.579437" lon="2.216102">
        <ele>193</ele>
        <time>2022-05-12T07:22:18Z</time>
      </trkpt>
      <trkpt lat="47.57945" lon="2.216092">
        <ele>193</ele>
        <time>2022-05-12T07:22:19Z</time>
      </trkpt>
      <trkpt lat="47.57946" lon="2.216085">
        <ele>193</ele>
        <time>2022-05-12T07:22:20Z</time>
      </trkpt>
      <trkpt lat="47.57947" lon="2.216078">
        <ele>193</ele>
        <time>2022-05-12T07:22:21Z</time>
      </trkpt>
      <trkpt lat="47.579483" lon="2.216076">
        <ele>193</ele>
        <time>2022-05-12T07:22:22Z</time>
      </trkpt>
      <trkpt lat="47.579494" lon="2.2160769">
        <ele>193</ele>
        <time>2022-05-12T07:22:23Z</time>
      </trkpt>
      <trkpt lat="47.579506" lon="2.21607">
        <ele>192</ele>
        <time>2022-05-12T07:22:24Z</time>
      </trkpt>
      <trkpt lat="47.579514" lon="2.2160628">
        <ele>192</ele>
        <time>2022-05-12T07:22:25Z</time>
      </trkpt>
      <trkpt lat="47.57953" lon="2.2160559">
        <ele>192</ele>
        <time>2022-05-12T07:22:26Z</time>
      </trkpt>
      <trkpt lat="47.57954" lon="2.2160435">
        <ele>192</ele>
        <time>2022-05-12T07:22:27Z</time>
      </trkpt>
      <trkpt lat="47.57955" lon="2.2160327">
        <ele>192</ele>
        <time>2022-05-12T07:22:28Z</time>
      </trkpt>
      <trkpt lat="47.579563" lon="2.2160242">
        <ele>191</ele>
        <time>2022-05-12T07:22:29Z</time>
      </trkpt>
      <trkpt lat="47.579575" lon="2.2160196">
        <ele>191</ele>
        <time>2022-05-12T07:22:30Z</time>
      </trkpt>
      <trkpt lat="47.579586" lon="2.2160156">
        <ele>190</ele>
        <time>2022-05-12T07:22:31Z</time>
      </trkpt>
      <trkpt lat="47.579597" lon="2.2160103">
        <ele>190</ele>
        <time>2022-05-12T07:22:32Z</time>
      </trkpt>
      <trkpt lat="47.57961" lon="2.216009">
        <ele>190</ele>
        <time>2022-05-12T07:22:33Z</time>
      </trkpt>
      <trkpt lat="47.579617" lon="2.2160037">
        <ele>190</ele>
        <time>2022-05-12T07:22:34Z</time>
      </trkpt>
      <trkpt lat="47.579628" lon="2.215996">
        <ele>190</ele>
        <time>2022-05-12T07:22:35Z</time>
      </trkpt>
      <trkpt lat="47.57964" lon="2.2159915">
        <ele>190</ele>
        <time>2022-05-12T07:22:36Z</time>
      </trkpt>
      <trkpt lat="47.57965" lon="2.2159898">
        <ele>190</ele>
        <time>2022-05-12T07:22:37Z</time>
      </trkpt>
      <trkpt lat="47.57966" lon="2.215986">
        <ele>190</ele>
        <time>2022-05-12T07:22:38Z</time>
      </trkpt>
      <trkpt lat="47.57967" lon="2.2159777">
        <ele>190</ele>
        <time>2022-05-12T07:22:39Z</time>
      </trkpt>
      <trkpt lat="47.57968" lon="2.2159722">
        <ele>190</ele>
        <time>2022-05-12T07:22:40Z</time>
      </trkpt>
      <trkpt lat="47.57969" lon="2.2159648">
        <ele>189</ele>
        <time>2022-05-12T07:22:41Z</time>
      </trkpt>
      <trkpt lat="47.5797" lon="2.2159574">
        <ele>189</ele>
        <time>2022-05-12T07:22:42Z</time>
      </trkpt>
      <trkpt lat="47.579716" lon="2.2159448">
        <ele>188</ele>
        <time>2022-05-12T07:22:43Z</time>
      </trkpt>
      <trkpt lat="47.579723" lon="2.2159362">
        <ele>188</ele>
        <time>2022-05-12T07:22:44Z</time>
      </trkpt>
      <trkpt lat="47.579727" lon="2.215926">
        <ele>188</ele>
        <time>2022-05-12T07:22:45Z</time>
      </trkpt>
      <trkpt lat="47.57974" lon="2.2159195">
        <ele>188</ele>
        <time>2022-05-12T07:22:46Z</time>
      </trkpt>
      <trkpt lat="47.57975" lon="2.2159133">
        <ele>187</ele>
        <time>2022-05-12T07:22:47Z</time>
      </trkpt>
      <trkpt lat="47.579758" lon="2.215909">
        <ele>187</ele>
        <time>2022-05-12T07:22:48Z</time>
      </trkpt>
      <trkpt lat="47.57977" lon="2.2159002">
        <ele>187</ele>
        <time>2022-05-12T07:22:49Z</time>
      </trkpt>
      <trkpt lat="47.579777" lon="2.2158983">
        <ele>187</ele>
        <time>2022-05-12T07:22:50Z</time>
      </trkpt>
      <trkpt lat="47.579792" lon="2.2158973">
        <ele>188</ele>
        <time>2022-05-12T07:22:51Z</time>
      </trkpt>
      <trkpt lat="47.579803" lon="2.2158923">
        <ele>188</ele>
        <time>2022-05-12T07:22:52Z</time>
      </trkpt>
      <trkpt lat="47.579815" lon="2.2158868">
        <ele>188</ele>
        <time>2022-05-12T07:22:53Z</time>
      </trkpt>
      <trkpt lat="47.57983" lon="2.2158804">
        <ele>188</ele>
        <time>2022-05-12T07:22:54Z</time>
      </trkpt>
      <trkpt lat="47.57984" lon="2.2158692">
        <ele>188</ele>
        <time>2022-05-12T07:22:55Z</time>
      </trkpt>
      <trkpt lat="47.579853" lon="2.2158637">
        <ele>188</ele>
        <time>2022-05-12T07:22:56Z</time>
      </trkpt>
      <trkpt lat="47.579865" lon="2.2158585">
        <ele>188</ele>
        <time>2022-05-12T07:22:57Z</time>
      </trkpt>
      <trkpt lat="47.579876" lon="2.215853">
        <ele>188</ele>
        <time>2022-05-12T07:22:58Z</time>
      </trkpt>
      <trkpt lat="47.57989" lon="2.2158475">
        <ele>189</ele>
        <time>2022-05-12T07:22:59Z</time>
      </trkpt>
      <trkpt lat="47.579903" lon="2.2158422">
        <ele>189</ele>
        <time>2022-05-12T07:23:00Z</time>
      </trkpt>
      <trkpt lat="47.579918" lon="2.2158308">
        <ele>189</ele>
        <time>2022-05-12T07:23:01Z</time>
      </trkpt>
      <trkpt lat="47.57993" lon="2.2158241">
        <ele>190</ele>
        <time>2022-05-12T07:23:02Z</time>
      </trkpt>
      <trkpt lat="47.57994" lon="2.2158186">
        <ele>190</ele>
        <time>2022-05-12T07:23:03Z</time>
      </trkpt>
      <trkpt lat="47.579956" lon="2.2158077">
        <ele>190</ele>
        <time>2022-05-12T07:23:04Z</time>
      </trkpt>
      <trkpt lat="47.579967" lon="2.2157998">
        <ele>190</ele>
        <time>2022-05-12T07:23:05Z</time>
      </trkpt>
      <trkpt lat="47.57998" lon="2.2157907">
        <ele>190</ele>
        <time>2022-05-12T07:23:06Z</time>
      </trkpt>
      <trkpt lat="47.579987" lon="2.2157838">
        <ele>189</ele>
        <time>2022-05-12T07:23:07Z</time>
      </trkpt>
      <trkpt lat="47.579998" lon="2.2157757">
        <ele>189</ele>
        <time>2022-05-12T07:23:08Z</time>
      </trkpt>
      <trkpt lat="47.58001" lon="2.2157698">
        <ele>189</ele>
        <time>2022-05-12T07:23:09Z</time>
      </trkpt>
      <trkpt lat="47.580025" lon="2.2157614">
        <ele>189</ele>
        <time>2022-05-12T07:23:10Z</time>
      </trkpt>
      <trkpt lat="47.580036" lon="2.2157533">
        <ele>189</ele>
        <time>2022-05-12T07:23:11Z</time>
      </trkpt>
      <trkpt lat="47.580048" lon="2.2157452">
        <ele>189</ele>
        <time>2022-05-12T07:23:12Z</time>
      </trkpt>
      <trkpt lat="47.580055" lon="2.2157385">
        <ele>189</ele>
        <time>2022-05-12T07:23:13Z</time>
      </trkpt>
      <trkpt lat="47.580063" lon="2.2157364">
        <ele>188</ele>
        <time>2022-05-12T07:23:14Z</time>
      </trkpt>
      <trkpt lat="47.580074" lon="2.2157357">
        <ele>189</ele>
        <time>2022-05-12T07:23:15Z</time>
      </trkpt>
      <trkpt lat="47.580093" lon="2.2157328">
        <ele>189</ele>
        <time>2022-05-12T07:23:16Z</time>
      </trkpt>
      <trkpt lat="47.580105" lon="2.2157316">
        <ele>189</ele>
        <time>2022-05-12T07:23:17Z</time>
      </trkpt>
      <trkpt lat="47.580116" lon="2.21573">
        <ele>189</ele>
        <time>2022-05-12T07:23:18Z</time>
      </trkpt>
      <trkpt lat="47.580128" lon="2.2157247">
        <ele>189</ele>
        <time>2022-05-12T07:23:19Z</time>
      </trkpt>
      <trkpt lat="47.580135" lon="2.2157133">
        <ele>189</ele>
        <time>2022-05-12T07:23:20Z</time>
      </trkpt>
      <trkpt lat="47.580143" lon="2.215711">
        <ele>189</ele>
        <time>2022-05-12T07:23:21Z</time>
      </trkpt>
      <trkpt lat="47.580154" lon="2.2157059">
        <ele>189</ele>
        <time>2022-05-12T07:23:22Z</time>
      </trkpt>
      <trkpt lat="47.580166" lon="2.2157006">
        <ele>189</ele>
        <time>2022-05-12T07:23:23Z</time>
      </trkpt>
      <trkpt lat="47.580185" lon="2.2156992">
        <ele>188</ele>
        <time>2022-05-12T07:23:24Z</time>
      </trkpt>
      <trkpt lat="47.5802" lon="2.2156973">
        <ele>188</ele>
        <time>2022-05-12T07:23:25Z</time>
      </trkpt>
      <trkpt lat="47.58021" lon="2.2156944">
        <ele>187</ele>
        <time>2022-05-12T07:23:26Z</time>
      </trkpt>
      <trkpt lat="47.58022" lon="2.215685">
        <ele>188</ele>
        <time>2022-05-12T07:23:27Z</time>
      </trkpt>
      <trkpt lat="47.58023" lon="2.2156782">
        <ele>188</ele>
        <time>2022-05-12T07:23:28Z</time>
      </trkpt>
      <trkpt lat="47.580246" lon="2.2156715">
        <ele>188</ele>
        <time>2022-05-12T07:23:29Z</time>
      </trkpt>
      <trkpt lat="47.58026" lon="2.2156692">
        <ele>188</ele>
        <time>2022-05-12T07:23:30Z</time>
      </trkpt>
      <trkpt lat="47.580273" lon="2.215665">
        <ele>188</ele>
        <time>2022-05-12T07:23:31Z</time>
      </trkpt>
      <trkpt lat="47.580288" lon="2.2156606">
        <ele>188</ele>
        <time>2022-05-12T07:23:32Z</time>
      </trkpt>
      <trkpt lat="47.580296" lon="2.2156596">
        <ele>188</ele>
        <time>2022-05-12T07:23:33Z</time>
      </trkpt>
      <trkpt lat="47.580307" lon="2.2156625">
        <ele>187</ele>
        <time>2022-05-12T07:23:34Z</time>
      </trkpt>
      <trkpt lat="47.58032" lon="2.2156656">
        <ele>187</ele>
        <time>2022-05-12T07:23:35Z</time>
      </trkpt>
      <trkpt lat="47.580334" lon="2.2156644">
        <ele>188</ele>
        <time>2022-05-12T07:23:36Z</time>
      </trkpt>
      <trkpt lat="47.580345" lon="2.2156644">
        <ele>187</ele>
        <time>2022-05-12T07:23:37Z</time>
      </trkpt>
      <trkpt lat="47.580357" lon="2.2156634">
        <ele>187</ele>
        <time>2022-05-12T07:23:38Z</time>
      </trkpt>
      <trkpt lat="47.580368" lon="2.2156649">
        <ele>187</ele>
        <time>2022-05-12T07:23:39Z</time>
      </trkpt>
      <trkpt lat="47.58038" lon="2.215661">
        <ele>187</ele>
        <time>2022-05-12T07:23:40Z</time>
      </trkpt>
      <trkpt lat="47.580395" lon="2.2156572">
        <ele>187</ele>
        <time>2022-05-12T07:23:41Z</time>
      </trkpt>
      <trkpt lat="47.58041" lon="2.2156515">
        <ele>187</ele>
        <time>2022-05-12T07:23:42Z</time>
      </trkpt>
      <trkpt lat="47.580425" lon="2.2156484">
        <ele>188</ele>
        <time>2022-05-12T07:23:43Z</time>
      </trkpt>
      <trkpt lat="47.580437" lon="2.2156498">
        <ele>188</ele>
        <time>2022-05-12T07:23:44Z</time>
      </trkpt>
      <trkpt lat="47.58045" lon="2.2156498">
        <ele>188</ele>
        <time>2022-05-12T07:23:45Z</time>
      </trkpt>
      <trkpt lat="47.58046" lon="2.2156463">
        <ele>188</ele>
        <time>2022-05-12T07:23:46Z</time>
      </trkpt>
      <trkpt lat="47.58047" lon="2.2156444">
        <ele>187</ele>
        <time>2022-05-12T07:23:47Z</time>
      </trkpt>
      <trkpt lat="47.580486" lon="2.2156436">
        <ele>187</ele>
        <time>2022-05-12T07:23:48Z</time>
      </trkpt>
      <trkpt lat="47.580498" lon="2.2156396">
        <ele>187</ele>
        <time>2022-05-12T07:23:49Z</time>
      </trkpt>
      <trkpt lat="47.58051" lon="2.215637">
        <ele>187</ele>
        <time>2022-05-12T07:23:50Z</time>
      </trkpt>
      <trkpt lat="47.580517" lon="2.2156303">
        <ele>186</ele>
        <time>2022-05-12T07:23:51Z</time>
      </trkpt>
      <trkpt lat="47.58053" lon="2.2156222">
        <ele>186</ele>
        <time>2022-05-12T07:23:52Z</time>
      </trkpt>
      <trkpt lat="47.58054" lon="2.2156167">
        <ele>186</ele>
        <time>2022-05-12T07:23:53Z</time>
      </trkpt>
      <trkpt lat="47.58055" lon="2.2156107">
        <ele>186</ele>
        <time>2022-05-12T07:23:54Z</time>
      </trkpt>
      <trkpt lat="47.580563" lon="2.215603">
        <ele>186</ele>
        <time>2022-05-12T07:23:55Z</time>
      </trkpt>
      <trkpt lat="47.580574" lon="2.2156">
        <ele>185</ele>
        <time>2022-05-12T07:23:56Z</time>
      </trkpt>
      <trkpt lat="47.58059" lon="2.2155952">
        <ele>185</ele>
        <time>2022-05-12T07:23:57Z</time>
      </trkpt>
      <trkpt lat="47.580605" lon="2.2155955">
        <ele>184</ele>
        <time>2022-05-12T07:23:58Z</time>
      </trkpt>
      <trkpt lat="47.580616" lon="2.2155952">
        <ele>184</ele>
        <time>2022-05-12T07:23:59Z</time>
      </trkpt>
      <trkpt lat="47.58063" lon="2.2155964">
        <ele>185</ele>
        <time>2022-05-12T07:24:00Z</time>
      </trkpt>
      <trkpt lat="47.580643" lon="2.2155967">
        <ele>185</ele>
        <time>2022-05-12T07:24:01Z</time>
      </trkpt>
      <trkpt lat="47.58065" lon="2.2155914">
        <ele>185</ele>
        <time>2022-05-12T07:24:02Z</time>
      </trkpt>
      <trkpt lat="47.58065" lon="2.2155914">
        <ele>185</ele>
        <time>2022-05-12T07:24:03Z</time>
      </trkpt>
      <trkpt lat="47.58067" lon="2.2155917">
        <ele>184</ele>
        <time>2022-05-12T07:24:04Z</time>
      </trkpt>
      <trkpt lat="47.580685" lon="2.2155952">
        <ele>185</ele>
        <time>2022-05-12T07:24:05Z</time>
      </trkpt>
      <trkpt lat="47.5807" lon="2.2155955">
        <ele>185</ele>
        <time>2022-05-12T07:24:06Z</time>
      </trkpt>
      <trkpt lat="47.58071" lon="2.2156003">
        <ele>185</ele>
        <time>2022-05-12T07:24:07Z</time>
      </trkpt>
      <trkpt lat="47.580723" lon="2.2156045">
        <ele>185</ele>
        <time>2022-05-12T07:24:08Z</time>
      </trkpt>
      <trkpt lat="47.58073" lon="2.215604">
        <ele>186</ele>
        <time>2022-05-12T07:24:09Z</time>
      </trkpt>
      <trkpt lat="47.58074" lon="2.2156024">
        <ele>186</ele>
        <time>2022-05-12T07:24:10Z</time>
      </trkpt>
      <trkpt lat="47.58076" lon="2.2156045">
        <ele>186</ele>
        <time>2022-05-12T07:24:11Z</time>
      </trkpt>
      <trkpt lat="47.580772" lon="2.2156048">
        <ele>186</ele>
        <time>2022-05-12T07:24:12Z</time>
      </trkpt>
      <trkpt lat="47.580772" lon="2.2156048">
        <ele>186</ele>
        <time>2022-05-12T07:24:12Z</time>
      </trkpt>
      <trkpt lat="47.58078" lon="2.2156014">
        <ele>186</ele>
        <time>2022-05-12T07:24:14Z</time>
      </trkpt>
      <trkpt lat="47.580795" lon="2.2155998">
        <ele>186</ele>
        <time>2022-05-12T07:24:15Z</time>
      </trkpt>
      <trkpt lat="47.580807" lon="2.2155976">
        <ele>186</ele>
        <time>2022-05-12T07:24:16Z</time>
      </trkpt>
      <trkpt lat="47.580826" lon="2.2156003">
        <ele>187</ele>
        <time>2022-05-12T07:24:17Z</time>
      </trkpt>
      <trkpt lat="47.58086" lon="2.2155948">
        <ele>187</ele>
        <time>2022-05-12T07:24:18Z</time>
      </trkpt>
      <trkpt lat="47.58088" lon="2.2155957">
        <ele>187</ele>
        <time>2022-05-12T07:24:19Z</time>
      </trkpt>
      <trkpt lat="47.580894" lon="2.2155967">
        <ele>187</ele>
        <time>2022-05-12T07:24:20Z</time>
      </trkpt>
      <trkpt lat="47.58091" lon="2.2155914">
        <ele>187</ele>
        <time>2022-05-12T07:24:21Z</time>
      </trkpt>
      <trkpt lat="47.580925" lon="2.2155862">
        <ele>187</ele>
        <time>2022-05-12T07:24:22Z</time>
      </trkpt>
      <trkpt lat="47.580936" lon="2.215589">
        <ele>187</ele>
        <time>2022-05-12T07:24:23Z</time>
      </trkpt>
      <trkpt lat="47.580948" lon="2.215587">
        <ele>187</ele>
        <time>2022-05-12T07:24:24Z</time>
      </trkpt>
      <trkpt lat="47.580963" lon="2.2155876">
        <ele>188</ele>
        <time>2022-05-12T07:24:25Z</time>
      </trkpt>
      <trkpt lat="47.58097" lon="2.215586">
        <ele>188</ele>
        <time>2022-05-12T07:24:26Z</time>
      </trkpt>
      <trkpt lat="47.580982" lon="2.215576">
        <ele>188</ele>
        <time>2022-05-12T07:24:27Z</time>
      </trkpt>
      <trkpt lat="47.580994" lon="2.21557">
        <ele>188</ele>
        <time>2022-05-12T07:24:28Z</time>
      </trkpt>
      <trkpt lat="47.581005" lon="2.2155735">
        <ele>188</ele>
        <time>2022-05-12T07:24:29Z</time>
      </trkpt>
      <trkpt lat="47.58102" lon="2.21557">
        <ele>188</ele>
        <time>2022-05-12T07:24:30Z</time>
      </trkpt>
      <trkpt lat="47.58103" lon="2.2155724">
        <ele>188</ele>
        <time>2022-05-12T07:24:31Z</time>
      </trkpt>
      <trkpt lat="47.581043" lon="2.2155716">
        <ele>188</ele>
        <time>2022-05-12T07:24:32Z</time>
      </trkpt>
      <trkpt lat="47.58105" lon="2.2155676">
        <ele>187</ele>
        <time>2022-05-12T07:24:33Z</time>
      </trkpt>
      <trkpt lat="47.581062" lon="2.215561">
        <ele>187</ele>
        <time>2022-05-12T07:24:34Z</time>
      </trkpt>
      <trkpt lat="47.58107" lon="2.2155585">
        <ele>188</ele>
        <time>2022-05-12T07:24:35Z</time>
      </trkpt>
      <trkpt lat="47.58108" lon="2.2155511">
        <ele>187</ele>
        <time>2022-05-12T07:24:36Z</time>
      </trkpt>
      <trkpt lat="47.58109" lon="2.2155454">
        <ele>187</ele>
        <time>2022-05-12T07:24:37Z</time>
      </trkpt>
      <trkpt lat="47.581097" lon="2.215535">
        <ele>187</ele>
        <time>2022-05-12T07:24:38Z</time>
      </trkpt>
      <trkpt lat="47.581104" lon="2.2155294">
        <ele>187</ele>
        <time>2022-05-12T07:24:39Z</time>
      </trkpt>
      <trkpt lat="47.58112" lon="2.2155302">
        <ele>187</ele>
        <time>2022-05-12T07:24:40Z</time>
      </trkpt>
      <trkpt lat="47.58113" lon="2.2155292">
        <ele>187</ele>
        <time>2022-05-12T07:24:41Z</time>
      </trkpt>
      <trkpt lat="47.581146" lon="2.2155287">
        <ele>187</ele>
        <time>2022-05-12T07:24:42Z</time>
      </trkpt>
      <trkpt lat="47.581158" lon="2.215524">
        <ele>187</ele>
        <time>2022-05-12T07:24:43Z</time>
      </trkpt>
      <trkpt lat="47.581173" lon="2.2155147">
        <ele>186</ele>
        <time>2022-05-12T07:24:44Z</time>
      </trkpt>
      <trkpt lat="47.581184" lon="2.2155113">
        <ele>186</ele>
        <time>2022-05-12T07:24:45Z</time>
      </trkpt>
      <trkpt lat="47.581192" lon="2.2155094">
        <ele>186</ele>
        <time>2022-05-12T07:24:46Z</time>
      </trkpt>
      <trkpt lat="47.5812" lon="2.2155042">
        <ele>186</ele>
        <time>2022-05-12T07:24:47Z</time>
      </trkpt>
      <trkpt lat="47.581207" lon="2.2155008">
        <ele>186</ele>
        <time>2022-05-12T07:24:48Z</time>
      </trkpt>
      <trkpt lat="47.581215" lon="2.2154963">
        <ele>185</ele>
        <time>2022-05-12T07:24:49Z</time>
      </trkpt>
      <trkpt lat="47.581215" lon="2.2154963">
        <ele>185</ele>
        <time>2022-05-12T07:24:50Z</time>
      </trkpt>
      <trkpt lat="47.581238" lon="2.2154915">
        <ele>184</ele>
        <time>2022-05-12T07:24:51Z</time>
      </trkpt>
      <trkpt lat="47.58125" lon="2.2154844">
        <ele>184</ele>
        <time>2022-05-12T07:24:52Z</time>
      </trkpt>
      <trkpt lat="47.58126" lon="2.2154806">
        <ele>184</ele>
        <time>2022-05-12T07:24:53Z</time>
      </trkpt>
      <trkpt lat="47.58126" lon="2.2154806">
        <ele>184</ele>
        <time>2022-05-12T07:24:53Z</time>
      </trkpt>
      <trkpt lat="47.581284" lon="2.2154799">
        <ele>184</ele>
        <time>2022-05-12T07:24:55Z</time>
      </trkpt>
      <trkpt lat="47.58129" lon="2.2154758">
        <ele>183</ele>
        <time>2022-05-12T07:24:56Z</time>
      </trkpt>
      <trkpt lat="47.58129" lon="2.2154758">
        <ele>183</ele>
        <time>2022-05-12T07:24:56Z</time>
      </trkpt>
      <trkpt lat="47.58132" lon="2.215466">
        <ele>183</ele>
        <time>2022-05-12T07:24:58Z</time>
      </trkpt>
      <trkpt lat="47.581337" lon="2.2154646">
        <ele>183</ele>
        <time>2022-05-12T07:24:59Z</time>
      </trkpt>
      <trkpt lat="47.581352" lon="2.2154589">
        <ele>183</ele>
        <time>2022-05-12T07:25:00Z</time>
      </trkpt>
      <trkpt lat="47.581367" lon="2.2154539">
        <ele>182</ele>
        <time>2022-05-12T07:25:01Z</time>
      </trkpt>
      <trkpt lat="47.58138" lon="2.21545">
        <ele>182</ele>
        <time>2022-05-12T07:25:02Z</time>
      </trkpt>
      <trkpt lat="47.58139" lon="2.2154481">
        <ele>182</ele>
        <time>2022-05-12T07:25:03Z</time>
      </trkpt>
      <trkpt lat="47.581406" lon="2.2154493">
        <ele>181</ele>
        <time>2022-05-12T07:25:04Z</time>
      </trkpt>
      <trkpt lat="47.581417" lon="2.2154462">
        <ele>181</ele>
        <time>2022-05-12T07:25:05Z</time>
      </trkpt>
      <trkpt lat="47.581432" lon="2.2154481">
        <ele>181</ele>
        <time>2022-05-12T07:25:06Z</time>
      </trkpt>
      <trkpt lat="47.581444" lon="2.2154467">
        <ele>181</ele>
        <time>2022-05-12T07:25:07Z</time>
      </trkpt>
      <trkpt lat="47.58146" lon="2.215443">
        <ele>181</ele>
        <time>2022-05-12T07:25:08Z</time>
      </trkpt>
      <trkpt lat="47.58147" lon="2.2154381">
        <ele>181</ele>
        <time>2022-05-12T07:25:09Z</time>
      </trkpt>
      <trkpt lat="47.58148" lon="2.215436">
        <ele>180</ele>
        <time>2022-05-12T07:25:10Z</time>
      </trkpt>
      <trkpt lat="47.581497" lon="2.2154438">
        <ele>181</ele>
        <time>2022-05-12T07:25:11Z</time>
      </trkpt>
      <trkpt lat="47.581512" lon="2.215446">
        <ele>181</ele>
        <time>2022-05-12T07:25:12Z</time>
      </trkpt>
      <trkpt lat="47.581524" lon="2.2154453">
        <ele>181</ele>
        <time>2022-05-12T07:25:13Z</time>
      </trkpt>
      <trkpt lat="47.58154" lon="2.2154417">
        <ele>180</ele>
        <time>2022-05-12T07:25:14Z</time>
      </trkpt>
      <trkpt lat="47.581547" lon="2.215437">
        <ele>181</ele>
        <time>2022-05-12T07:25:15Z</time>
      </trkpt>
      <trkpt lat="47.581562" lon="2.215432">
        <ele>181</ele>
        <time>2022-05-12T07:25:16Z</time>
      </trkpt>
      <trkpt lat="47.58157" lon="2.2154274">
        <ele>182</ele>
        <time>2022-05-12T07:25:17Z</time>
      </trkpt>
      <trkpt lat="47.58158" lon="2.2154243">
        <ele>181</ele>
        <time>2022-05-12T07:25:18Z</time>
      </trkpt>
      <trkpt lat="47.5816" lon="2.2154272">
        <ele>182</ele>
        <time>2022-05-12T07:25:19Z</time>
      </trkpt>
      <trkpt lat="47.58161" lon="2.215429">
        <ele>181</ele>
        <time>2022-05-12T07:25:20Z</time>
      </trkpt>
      <trkpt lat="47.581627" lon="2.2154298">
        <ele>181</ele>
        <time>2022-05-12T07:25:21Z</time>
      </trkpt>
      <trkpt lat="47.581642" lon="2.2154264">
        <ele>180</ele>
        <time>2022-05-12T07:25:22Z</time>
      </trkpt>
      <trkpt lat="47.58165" lon="2.2154253">
        <ele>180</ele>
        <time>2022-05-12T07:25:23Z</time>
      </trkpt>
      <trkpt lat="47.581657" lon="2.2154264">
        <ele>180</ele>
        <time>2022-05-12T07:25:24Z</time>
      </trkpt>
      <trkpt lat="47.58167" lon="2.2154284">
        <ele>179</ele>
        <time>2022-05-12T07:25:25Z</time>
      </trkpt>
      <trkpt lat="47.581684" lon="2.2154315">
        <ele>179</ele>
        <time>2022-05-12T07:25:26Z</time>
      </trkpt>
      <trkpt lat="47.5817" lon="2.21543">
        <ele>179</ele>
        <time>2022-05-12T07:25:27Z</time>
      </trkpt>
      <trkpt lat="47.58171" lon="2.2154284">
        <ele>179</ele>
        <time>2022-05-12T07:25:28Z</time>
      </trkpt>
      <trkpt lat="47.581722" lon="2.2154255">
        <ele>179</ele>
        <time>2022-05-12T07:25:29Z</time>
      </trkpt>
      <trkpt lat="47.581738" lon="2.2154262">
        <ele>179</ele>
        <time>2022-05-12T07:25:30Z</time>
      </trkpt>
      <trkpt lat="47.58175" lon="2.2154229">
        <ele>179</ele>
        <time>2022-05-12T07:25:31Z</time>
      </trkpt>
      <trkpt lat="47.581757" lon="2.2154207">
        <ele>179</ele>
        <time>2022-05-12T07:25:32Z</time>
      </trkpt>
      <trkpt lat="47.581768" lon="2.2154188">
        <ele>179</ele>
        <time>2022-05-12T07:25:33Z</time>
      </trkpt>
      <trkpt lat="47.58178" lon="2.2154124">
        <ele>179</ele>
        <time>2022-05-12T07:25:34Z</time>
      </trkpt>
      <trkpt lat="47.581795" lon="2.2154093">
        <ele>179</ele>
        <time>2022-05-12T07:25:35Z</time>
      </trkpt>
      <trkpt lat="47.58181" lon="2.2154078">
        <ele>179</ele>
        <time>2022-05-12T07:25:36Z</time>
      </trkpt>
      <trkpt lat="47.581818" lon="2.2154047">
        <ele>179</ele>
        <time>2022-05-12T07:25:37Z</time>
      </trkpt>
      <trkpt lat="47.58183" lon="2.2153986">
        <ele>179</ele>
        <time>2022-05-12T07:25:38Z</time>
      </trkpt>
      <trkpt lat="47.58184" lon="2.2153933">
        <ele>180</ele>
        <time>2022-05-12T07:25:39Z</time>
      </trkpt>
      <trkpt lat="47.581852" lon="2.2153912">
        <ele>179</ele>
        <time>2022-05-12T07:25:40Z</time>
      </trkpt>
      <trkpt lat="47.58186" lon="2.2153862">
        <ele>179</ele>
        <time>2022-05-12T07:25:41Z</time>
      </trkpt>
      <trkpt lat="47.58187" lon="2.215383">
        <ele>179</ele>
        <time>2022-05-12T07:25:42Z</time>
      </trkpt>
      <trkpt lat="47.581882" lon="2.2153842">
        <ele>179</ele>
        <time>2022-05-12T07:25:43Z</time>
      </trkpt>
      <trkpt lat="47.581894" lon="2.215383">
        <ele>180</ele>
        <time>2022-05-12T07:25:44Z</time>
      </trkpt>
      <trkpt lat="47.581905" lon="2.2153788">
        <ele>180</ele>
        <time>2022-05-12T07:25:45Z</time>
      </trkpt>
      <trkpt lat="47.581913" lon="2.2153718">
        <ele>180</ele>
        <time>2022-05-12T07:25:46Z</time>
      </trkpt>
      <trkpt lat="47.581924" lon="2.2153683">
        <ele>180</ele>
        <time>2022-05-12T07:25:47Z</time>
      </trkpt>
      <trkpt lat="47.581932" lon="2.2153656">
        <ele>180</ele>
        <time>2022-05-12T07:25:48Z</time>
      </trkpt>
      <trkpt lat="47.581944" lon="2.2153635">
        <ele>179</ele>
        <time>2022-05-12T07:25:49Z</time>
      </trkpt>
      <trkpt lat="47.58195" lon="2.2153604">
        <ele>179</ele>
        <time>2022-05-12T07:25:50Z</time>
      </trkpt>
      <trkpt lat="47.581963" lon="2.215357">
        <ele>180</ele>
        <time>2022-05-12T07:25:51Z</time>
      </trkpt>
      <trkpt lat="47.581974" lon="2.2153597">
        <ele>180</ele>
        <time>2022-05-12T07:25:52Z</time>
      </trkpt>
      <trkpt lat="47.581985" lon="2.21537">
        <ele>180</ele>
        <time>2022-05-12T07:25:53Z</time>
      </trkpt>
      <trkpt lat="47.581997" lon="2.2153733">
        <ele>180</ele>
        <time>2022-05-12T07:25:54Z</time>
      </trkpt>
      <trkpt lat="47.58201" lon="2.2153833">
        <ele>180</ele>
        <time>2022-05-12T07:25:55Z</time>
      </trkpt>
      <trkpt lat="47.58202" lon="2.215386">
        <ele>180</ele>
        <time>2022-05-12T07:25:56Z</time>
      </trkpt>
      <trkpt lat="47.58203" lon="2.2153876">
        <ele>180</ele>
        <time>2022-05-12T07:25:57Z</time>
      </trkpt>
      <trkpt lat="47.582043" lon="2.215389">
        <ele>180</ele>
        <time>2022-05-12T07:25:58Z</time>
      </trkpt>
      <trkpt lat="47.582054" lon="2.2153869">
        <ele>180</ele>
        <time>2022-05-12T07:25:59Z</time>
      </trkpt>
      <trkpt lat="47.582066" lon="2.2153826">
        <ele>180</ele>
        <time>2022-05-12T07:26:00Z</time>
      </trkpt>
      <trkpt lat="47.58208" lon="2.2153776">
        <ele>180</ele>
        <time>2022-05-12T07:26:01Z</time>
      </trkpt>
      <trkpt lat="47.582092" lon="2.2153752">
        <ele>180</ele>
        <time>2022-05-12T07:26:02Z</time>
      </trkpt>
      <trkpt lat="47.582108" lon="2.2153842">
        <ele>180</ele>
        <time>2022-05-12T07:26:03Z</time>
      </trkpt>
      <trkpt lat="47.58212" lon="2.215395">
        <ele>181</ele>
        <time>2022-05-12T07:26:04Z</time>
      </trkpt>
      <trkpt lat="47.582134" lon="2.2154078">
        <ele>181</ele>
        <time>2022-05-12T07:26:05Z</time>
      </trkpt>
      <trkpt lat="47.582146" lon="2.2154167">
        <ele>181</ele>
        <time>2022-05-12T07:26:06Z</time>
      </trkpt>
      <trkpt lat="47.582157" lon="2.215427">
        <ele>181</ele>
        <time>2022-05-12T07:26:07Z</time>
      </trkpt>
      <trkpt lat="47.582165" lon="2.2154386">
        <ele>181</ele>
        <time>2022-05-12T07:26:08Z</time>
      </trkpt>
      <trkpt lat="47.58217" lon="2.21545">
        <ele>181</ele>
        <time>2022-05-12T07:26:09Z</time>
      </trkpt>
      <trkpt lat="47.58218" lon="2.215457">
        <ele>181</ele>
        <time>2022-05-12T07:26:10Z</time>
      </trkpt>
      <trkpt lat="47.58219" lon="2.2154684">
        <ele>181</ele>
        <time>2022-05-12T07:26:11Z</time>
      </trkpt>
      <trkpt lat="47.582203" lon="2.2154782">
        <ele>182</ele>
        <time>2022-05-12T07:26:12Z</time>
      </trkpt>
      <trkpt lat="47.582214" lon="2.2154841">
        <ele>182</ele>
        <time>2022-05-12T07:26:13Z</time>
      </trkpt>
      <trkpt lat="47.582222" lon="2.2154956">
        <ele>182</ele>
        <time>2022-05-12T07:26:14Z</time>
      </trkpt>
      <trkpt lat="47.582237" lon="2.2155118">
        <ele>182</ele>
        <time>2022-05-12T07:26:15Z</time>
      </trkpt>
      <trkpt lat="47.582253" lon="2.215521">
        <ele>181</ele>
        <time>2022-05-12T07:26:16Z</time>
      </trkpt>
      <trkpt lat="47.582264" lon="2.2155292">
        <ele>181</ele>
        <time>2022-05-12T07:26:17Z</time>
      </trkpt>
      <trkpt lat="47.582275" lon="2.2155328">
        <ele>181</ele>
        <time>2022-05-12T07:26:18Z</time>
      </trkpt>
      <trkpt lat="47.58229" lon="2.215542">
        <ele>181</ele>
        <time>2022-05-12T07:26:19Z</time>
      </trkpt>
      <trkpt lat="47.582302" lon="2.2155504">
        <ele>180</ele>
        <time>2022-05-12T07:26:20Z</time>
      </trkpt>
      <trkpt lat="47.58231" lon="2.2155566">
        <ele>180</ele>
        <time>2022-05-12T07:26:21Z</time>
      </trkpt>
      <trkpt lat="47.58232" lon="2.2155619">
        <ele>180</ele>
        <time>2022-05-12T07:26:22Z</time>
      </trkpt>
      <trkpt lat="47.582333" lon="2.215574">
        <ele>180</ele>
        <time>2022-05-12T07:26:23Z</time>
      </trkpt>
      <trkpt lat="47.582344" lon="2.2155783">
        <ele>181</ele>
        <time>2022-05-12T07:26:24Z</time>
      </trkpt>
      <trkpt lat="47.582355" lon="2.2155857">
        <ele>181</ele>
        <time>2022-05-12T07:26:25Z</time>
      </trkpt>
      <trkpt lat="47.582367" lon="2.215596">
        <ele>181</ele>
        <time>2022-05-12T07:26:26Z</time>
      </trkpt>
      <trkpt lat="47.582375" lon="2.2156024">
        <ele>181</ele>
        <time>2022-05-12T07:26:27Z</time>
      </trkpt>
      <trkpt lat="47.582386" lon="2.2156074">
        <ele>181</ele>
        <time>2022-05-12T07:26:28Z</time>
      </trkpt>
      <trkpt lat="47.582397" lon="2.2156138">
        <ele>182</ele>
        <time>2022-05-12T07:26:29Z</time>
      </trkpt>
      <trkpt lat="47.58241" lon="2.2156177">
        <ele>182</ele>
        <time>2022-05-12T07:26:30Z</time>
      </trkpt>
      <trkpt lat="47.58242" lon="2.2156274">
        <ele>182</ele>
        <time>2022-05-12T07:26:31Z</time>
      </trkpt>
      <trkpt lat="47.582428" lon="2.2156303">
        <ele>182</ele>
        <time>2022-05-12T07:26:32Z</time>
      </trkpt>
      <trkpt lat="47.582436" lon="2.2156389">
        <ele>181</ele>
        <time>2022-05-12T07:26:33Z</time>
      </trkpt>
      <trkpt lat="47.582443" lon="2.2156515">
        <ele>181</ele>
        <time>2022-05-12T07:26:34Z</time>
      </trkpt>
      <trkpt lat="47.58245" lon="2.2156608">
        <ele>181</ele>
        <time>2022-05-12T07:26:35Z</time>
      </trkpt>
      <trkpt lat="47.582462" lon="2.2156646">
        <ele>181</ele>
        <time>2022-05-12T07:26:36Z</time>
      </trkpt>
      <trkpt lat="47.582474" lon="2.21567">
        <ele>182</ele>
        <time>2022-05-12T07:26:37Z</time>
      </trkpt>
      <trkpt lat="47.582485" lon="2.2156763">
        <ele>182</ele>
        <time>2022-05-12T07:26:38Z</time>
      </trkpt>
      <trkpt lat="47.582497" lon="2.2156832">
        <ele>182</ele>
        <time>2022-05-12T07:26:39Z</time>
      </trkpt>
      <trkpt lat="47.582508" lon="2.2156897">
        <ele>182</ele>
        <time>2022-05-12T07:26:40Z</time>
      </trkpt>
      <trkpt lat="47.582516" lon="2.2156963">
        <ele>182</ele>
        <time>2022-05-12T07:26:41Z</time>
      </trkpt>
      <trkpt lat="47.582523" lon="2.2157056">
        <ele>181</ele>
        <time>2022-05-12T07:26:42Z</time>
      </trkpt>
      <trkpt lat="47.582535" lon="2.2157109">
        <ele>181</ele>
        <time>2022-05-12T07:26:43Z</time>
      </trkpt>
      <trkpt lat="47.58255" lon="2.2157164">
        <ele>182</ele>
        <time>2022-05-12T07:26:44Z</time>
      </trkpt>
      <trkpt lat="47.582558" lon="2.2157245">
        <ele>182</ele>
        <time>2022-05-12T07:26:45Z</time>
      </trkpt>
      <trkpt lat="47.582565" lon="2.2157354">
        <ele>182</ele>
        <time>2022-05-12T07:26:46Z</time>
      </trkpt>
      <trkpt lat="47.582577" lon="2.2157414">
        <ele>182</ele>
        <time>2022-05-12T07:26:47Z</time>
      </trkpt>
      <trkpt lat="47.58259" lon="2.2157478">
        <ele>182</ele>
        <time>2022-05-12T07:26:48Z</time>
      </trkpt>
      <trkpt lat="47.5826" lon="2.2157526">
        <ele>181</ele>
        <time>2022-05-12T07:26:49Z</time>
      </trkpt>
      <trkpt lat="47.582607" lon="2.2157552">
        <ele>181</ele>
        <time>2022-05-12T07:26:50Z</time>
      </trkpt>
      <trkpt lat="47.582623" lon="2.215764">
        <ele>181</ele>
        <time>2022-05-12T07:26:51Z</time>
      </trkpt>
      <trkpt lat="47.582638" lon="2.215774">
        <ele>181</ele>
        <time>2022-05-12T07:26:52Z</time>
      </trkpt>
      <trkpt lat="47.582653" lon="2.215783">
        <ele>181</ele>
        <time>2022-05-12T07:26:53Z</time>
      </trkpt>
      <trkpt lat="47.58267" lon="2.2157898">
        <ele>181</ele>
        <time>2022-05-12T07:26:54Z</time>
      </trkpt>
      <trkpt lat="47.58268" lon="2.2157948">
        <ele>181</ele>
        <time>2022-05-12T07:26:55Z</time>
      </trkpt>
      <trkpt lat="47.58269" lon="2.2157948">
        <ele>181</ele>
        <time>2022-05-12T07:26:56Z</time>
      </trkpt>
      <trkpt lat="47.582703" lon="2.2157936">
        <ele>181</ele>
        <time>2022-05-12T07:26:57Z</time>
      </trkpt>
      <trkpt lat="47.58271" lon="2.2157938">
        <ele>180</ele>
        <time>2022-05-12T07:26:58Z</time>
      </trkpt>
      <trkpt lat="47.58272" lon="2.2157958">
        <ele>180</ele>
        <time>2022-05-12T07:26:59Z</time>
      </trkpt>
      <trkpt lat="47.582733" lon="2.2157974">
        <ele>180</ele>
        <time>2022-05-12T07:27:00Z</time>
      </trkpt>
      <trkpt lat="47.58275" lon="2.215797">
        <ele>180</ele>
        <time>2022-05-12T07:27:01Z</time>
      </trkpt>
      <trkpt lat="47.58276" lon="2.2157931">
        <ele>179</ele>
        <time>2022-05-12T07:27:02Z</time>
      </trkpt>
      <trkpt lat="47.58277" lon="2.215792">
        <ele>179</ele>
        <time>2022-05-12T07:27:03Z</time>
      </trkpt>
      <trkpt lat="47.582787" lon="2.2157938">
        <ele>179</ele>
        <time>2022-05-12T07:27:04Z</time>
      </trkpt>
      <trkpt lat="47.582798" lon="2.215797">
        <ele>179</ele>
        <time>2022-05-12T07:27:05Z</time>
      </trkpt>
      <trkpt lat="47.58281" lon="2.2157965">
        <ele>179</ele>
        <time>2022-05-12T07:27:06Z</time>
      </trkpt>
      <trkpt lat="47.58282" lon="2.215794">
        <ele>179</ele>
        <time>2022-05-12T07:27:07Z</time>
      </trkpt>
      <trkpt lat="47.582832" lon="2.2157917">
        <ele>178</ele>
        <time>2022-05-12T07:27:08Z</time>
      </trkpt>
      <trkpt lat="47.582844" lon="2.2157855">
        <ele>178</ele>
        <time>2022-05-12T07:27:09Z</time>
      </trkpt>
      <trkpt lat="47.58285" lon="2.2157826">
        <ele>178</ele>
        <time>2022-05-12T07:27:10Z</time>
      </trkpt>
      <trkpt lat="47.582863" lon="2.2157805">
        <ele>177</ele>
        <time>2022-05-12T07:27:11Z</time>
      </trkpt>
      <trkpt lat="47.582874" lon="2.2157776">
        <ele>177</ele>
        <time>2022-05-12T07:27:12Z</time>
      </trkpt>
      <trkpt lat="47.582886" lon="2.2157784">
        <ele>177</ele>
        <time>2022-05-12T07:27:13Z</time>
      </trkpt>
      <trkpt lat="47.582893" lon="2.2157707">
        <ele>176</ele>
        <time>2022-05-12T07:27:14Z</time>
      </trkpt>
      <trkpt lat="47.582905" lon="2.2157667">
        <ele>176</ele>
        <time>2022-05-12T07:27:15Z</time>
      </trkpt>
      <trkpt lat="47.582912" lon="2.2157652">
        <ele>176</ele>
        <time>2022-05-12T07:27:16Z</time>
      </trkpt>
      <trkpt lat="47.582924" lon="2.215764">
        <ele>176</ele>
        <time>2022-05-12T07:27:17Z</time>
      </trkpt>
      <trkpt lat="47.582935" lon="2.2157664">
        <ele>176</ele>
        <time>2022-05-12T07:27:18Z</time>
      </trkpt>
      <trkpt lat="47.582947" lon="2.2157729">
        <ele>176</ele>
        <time>2022-05-12T07:27:19Z</time>
      </trkpt>
      <trkpt lat="47.58296" lon="2.215781">
        <ele>176</ele>
        <time>2022-05-12T07:27:20Z</time>
      </trkpt>
      <trkpt lat="47.582973" lon="2.2157822">
        <ele>176</ele>
        <time>2022-05-12T07:27:21Z</time>
      </trkpt>
      <trkpt lat="47.582985" lon="2.2157795">
        <ele>176</ele>
        <time>2022-05-12T07:27:22Z</time>
      </trkpt>
      <trkpt lat="47.582996" lon="2.215773">
        <ele>176</ele>
        <time>2022-05-12T07:27:23Z</time>
      </trkpt>
      <trkpt lat="47.583008" lon="2.215762">
        <ele>175</ele>
        <time>2022-05-12T07:27:24Z</time>
      </trkpt>
      <trkpt lat="47.583015" lon="2.21576">
        <ele>176</ele>
        <time>2022-05-12T07:27:25Z</time>
      </trkpt>
      <trkpt lat="47.583027" lon="2.2157547">
        <ele>176</ele>
        <time>2022-05-12T07:27:26Z</time>
      </trkpt>
      <trkpt lat="47.583035" lon="2.2157576">
        <ele>176</ele>
        <time>2022-05-12T07:27:27Z</time>
      </trkpt>
      <trkpt lat="47.583046" lon="2.21576">
        <ele>176</ele>
        <time>2022-05-12T07:27:28Z</time>
      </trkpt>
      <trkpt lat="47.583057" lon="2.2157602">
        <ele>176</ele>
        <time>2022-05-12T07:27:29Z</time>
      </trkpt>
      <trkpt lat="47.583065" lon="2.2157605">
        <ele>175</ele>
        <time>2022-05-12T07:27:30Z</time>
      </trkpt>
      <trkpt lat="47.58308" lon="2.2157662">
        <ele>175</ele>
        <time>2022-05-12T07:27:31Z</time>
      </trkpt>
      <trkpt lat="47.58309" lon="2.2157688">
        <ele>175</ele>
        <time>2022-05-12T07:27:32Z</time>
      </trkpt>
      <trkpt lat="47.583107" lon="2.215768">
        <ele>175</ele>
        <time>2022-05-12T07:27:33Z</time>
      </trkpt>
      <trkpt lat="47.583115" lon="2.2157648">
        <ele>175</ele>
        <time>2022-05-12T07:27:34Z</time>
      </trkpt>
      <trkpt lat="47.58313" lon="2.215761">
        <ele>175</ele>
        <time>2022-05-12T07:27:35Z</time>
      </trkpt>
      <trkpt lat="47.58314" lon="2.2157538">
        <ele>175</ele>
        <time>2022-05-12T07:27:36Z</time>
      </trkpt>
      <trkpt lat="47.583157" lon="2.2157516">
        <ele>175</ele>
        <time>2022-05-12T07:27:37Z</time>
      </trkpt>
      <trkpt lat="47.583168" lon="2.2157495">
        <ele>175</ele>
        <time>2022-05-12T07:27:38Z</time>
      </trkpt>
      <trkpt lat="47.58318" lon="2.2157469">
        <ele>175</ele>
        <time>2022-05-12T07:27:39Z</time>
      </trkpt>
      <trkpt lat="47.58319" lon="2.2157433">
        <ele>175</ele>
        <time>2022-05-12T07:27:40Z</time>
      </trkpt>
      <trkpt lat="47.583202" lon="2.2157443">
        <ele>174</ele>
        <time>2022-05-12T07:27:41Z</time>
      </trkpt>
      <trkpt lat="47.583214" lon="2.2157452">
        <ele>174</ele>
        <time>2022-05-12T07:27:42Z</time>
      </trkpt>
      <trkpt lat="47.583225" lon="2.2157476">
        <ele>174</ele>
        <time>2022-05-12T07:27:43Z</time>
      </trkpt>
      <trkpt lat="47.583233" lon="2.215746">
        <ele>174</ele>
        <time>2022-05-12T07:27:44Z</time>
      </trkpt>
      <trkpt lat="47.583244" lon="2.215738">
        <ele>174</ele>
        <time>2022-05-12T07:27:45Z</time>
      </trkpt>
      <trkpt lat="47.583256" lon="2.2157314">
        <ele>174</ele>
        <time>2022-05-12T07:27:46Z</time>
      </trkpt>
      <trkpt lat="47.583267" lon="2.2157269">
        <ele>174</ele>
        <time>2022-05-12T07:27:47Z</time>
      </trkpt>
      <trkpt lat="47.58328" lon="2.2157218">
        <ele>174</ele>
        <time>2022-05-12T07:27:48Z</time>
      </trkpt>
      <trkpt lat="47.58329" lon="2.2157187">
        <ele>174</ele>
        <time>2022-05-12T07:27:49Z</time>
      </trkpt>
      <trkpt lat="47.5833" lon="2.215711">
        <ele>173</ele>
        <time>2022-05-12T07:27:50Z</time>
      </trkpt>
      <trkpt lat="47.583313" lon="2.215708">
        <ele>174</ele>
        <time>2022-05-12T07:27:51Z</time>
      </trkpt>
      <trkpt lat="47.583324" lon="2.2157106">
        <ele>174</ele>
        <time>2022-05-12T07:27:52Z</time>
      </trkpt>
      <trkpt lat="47.58334" lon="2.215704">
        <ele>175</ele>
        <time>2022-05-12T07:27:53Z</time>
      </trkpt>
      <trkpt lat="47.58335" lon="2.2157025">
        <ele>175</ele>
        <time>2022-05-12T07:27:54Z</time>
      </trkpt>
      <trkpt lat="47.583363" lon="2.2157">
        <ele>175</ele>
        <time>2022-05-12T07:27:55Z</time>
      </trkpt>
      <trkpt lat="47.583374" lon="2.2157023">
        <ele>175</ele>
        <time>2022-05-12T07:27:56Z</time>
      </trkpt>
      <trkpt lat="47.58339" lon="2.2157001">
        <ele>175</ele>
        <time>2022-05-12T07:27:57Z</time>
      </trkpt>
      <trkpt lat="47.5834" lon="2.2156992">
        <ele>175</ele>
        <time>2022-05-12T07:27:58Z</time>
      </trkpt>
      <trkpt lat="47.583412" lon="2.215698">
        <ele>175</ele>
        <time>2022-05-12T07:27:59Z</time>
      </trkpt>
      <trkpt lat="47.583424" lon="2.2157013">
        <ele>175</ele>
        <time>2022-05-12T07:28:00Z</time>
      </trkpt>
      <trkpt lat="47.58344" lon="2.215702">
        <ele>175</ele>
        <time>2022-05-12T07:28:01Z</time>
      </trkpt>
      <trkpt lat="47.58345" lon="2.2157044">
        <ele>175</ele>
        <time>2022-05-12T07:28:02Z</time>
      </trkpt>
      <trkpt lat="47.58346" lon="2.2157075">
        <ele>175</ele>
        <time>2022-05-12T07:28:03Z</time>
      </trkpt>
      <trkpt lat="47.583477" lon="2.2157114">
        <ele>175</ele>
        <time>2022-05-12T07:28:04Z</time>
      </trkpt>
      <trkpt lat="47.58349" lon="2.2157145">
        <ele>176</ele>
        <time>2022-05-12T07:28:05Z</time>
      </trkpt>
      <trkpt lat="47.583504" lon="2.2157185">
        <ele>176</ele>
        <time>2022-05-12T07:28:06Z</time>
      </trkpt>
      <trkpt lat="47.583515" lon="2.2157204">
        <ele>175</ele>
        <time>2022-05-12T07:28:07Z</time>
      </trkpt>
      <trkpt lat="47.583527" lon="2.215717">
        <ele>175</ele>
        <time>2022-05-12T07:28:08Z</time>
      </trkpt>
      <trkpt lat="47.583538" lon="2.215711">
        <ele>175</ele>
        <time>2022-05-12T07:28:09Z</time>
      </trkpt>
      <trkpt lat="47.583546" lon="2.2157042">
        <ele>174</ele>
        <time>2022-05-12T07:28:10Z</time>
      </trkpt>
      <trkpt lat="47.583553" lon="2.215699">
        <ele>174</ele>
        <time>2022-05-12T07:28:11Z</time>
      </trkpt>
      <trkpt lat="47.58356" lon="2.2156992">
        <ele>174</ele>
        <time>2022-05-12T07:28:12Z</time>
      </trkpt>
      <trkpt lat="47.583572" lon="2.215698">
        <ele>174</ele>
        <time>2022-05-12T07:28:13Z</time>
      </trkpt>
      <trkpt lat="47.583588" lon="2.215694">
        <ele>174</ele>
        <time>2022-05-12T07:28:14Z</time>
      </trkpt>
      <trkpt lat="47.5836" lon="2.215695">
        <ele>174</ele>
        <time>2022-05-12T07:28:15Z</time>
      </trkpt>
      <trkpt lat="47.58361" lon="2.2156956">
        <ele>174</ele>
        <time>2022-05-12T07:28:16Z</time>
      </trkpt>
      <trkpt lat="47.583622" lon="2.2156882">
        <ele>174</ele>
        <time>2022-05-12T07:28:17Z</time>
      </trkpt>
      <trkpt lat="47.583633" lon="2.2156777">
        <ele>175</ele>
        <time>2022-05-12T07:28:18Z</time>
      </trkpt>
      <trkpt lat="47.583645" lon="2.2156708">
        <ele>176</ele>
        <time>2022-05-12T07:28:19Z</time>
      </trkpt>
      <trkpt lat="47.583656" lon="2.2156677">
        <ele>176</ele>
        <time>2022-05-12T07:28:20Z</time>
      </trkpt>
      <trkpt lat="47.583668" lon="2.215667">
        <ele>176</ele>
        <time>2022-05-12T07:28:21Z</time>
      </trkpt>
      <trkpt lat="47.583683" lon="2.215665">
        <ele>176</ele>
        <time>2022-05-12T07:28:22Z</time>
      </trkpt>
      <trkpt lat="47.583694" lon="2.2156668">
        <ele>177</ele>
        <time>2022-05-12T07:28:23Z</time>
      </trkpt>
      <trkpt lat="47.58371" lon="2.2156756">
        <ele>178</ele>
        <time>2022-05-12T07:28:24Z</time>
      </trkpt>
      <trkpt lat="47.583725" lon="2.21568">
        <ele>178</ele>
        <time>2022-05-12T07:28:25Z</time>
      </trkpt>
      <trkpt lat="47.583736" lon="2.2156827">
        <ele>178</ele>
        <time>2022-05-12T07:28:26Z</time>
      </trkpt>
      <trkpt lat="47.58375" lon="2.2156878">
        <ele>178</ele>
        <time>2022-05-12T07:28:27Z</time>
      </trkpt>
      <trkpt lat="47.58376" lon="2.2156825">
        <ele>178</ele>
        <time>2022-05-12T07:28:28Z</time>
      </trkpt>
      <trkpt lat="47.58377" lon="2.2156744">
        <ele>178</ele>
        <time>2022-05-12T07:28:29Z</time>
      </trkpt>
      <trkpt lat="47.58378" lon="2.2156696">
        <ele>179</ele>
        <time>2022-05-12T07:28:30Z</time>
      </trkpt>
      <trkpt lat="47.58379" lon="2.2156723">
        <ele>179</ele>
        <time>2022-05-12T07:28:31Z</time>
      </trkpt>
      <trkpt lat="47.583797" lon="2.2156754">
        <ele>179</ele>
        <time>2022-05-12T07:28:32Z</time>
      </trkpt>
      <trkpt lat="47.58381" lon="2.2156749">
        <ele>179</ele>
        <time>2022-05-12T07:28:33Z</time>
      </trkpt>
      <trkpt lat="47.583817" lon="2.2156696">
        <ele>178</ele>
        <time>2022-05-12T07:28:34Z</time>
      </trkpt>
      <trkpt lat="47.583824" lon="2.2156687">
        <ele>179</ele>
        <time>2022-05-12T07:28:35Z</time>
      </trkpt>
      <trkpt lat="47.58383" lon="2.2156606">
        <ele>179</ele>
        <time>2022-05-12T07:28:36Z</time>
      </trkpt>
      <trkpt lat="47.583843" lon="2.215658">
        <ele>178</ele>
        <time>2022-05-12T07:28:37Z</time>
      </trkpt>
      <trkpt lat="47.583855" lon="2.2156518">
        <ele>178</ele>
        <time>2022-05-12T07:28:38Z</time>
      </trkpt>
      <trkpt lat="47.583866" lon="2.2156444">
        <ele>178</ele>
        <time>2022-05-12T07:28:39Z</time>
      </trkpt>
      <trkpt lat="47.58387" lon="2.215639">
        <ele>177</ele>
        <time>2022-05-12T07:28:40Z</time>
      </trkpt>
      <trkpt lat="47.583878" lon="2.2156315">
        <ele>177</ele>
        <time>2022-05-12T07:28:41Z</time>
      </trkpt>
      <trkpt lat="47.58389" lon="2.2156157">
        <ele>177</ele>
        <time>2022-05-12T07:28:42Z</time>
      </trkpt>
      <trkpt lat="47.5839" lon="2.2156055">
        <ele>177</ele>
        <time>2022-05-12T07:28:43Z</time>
      </trkpt>
      <trkpt lat="47.583904" lon="2.2155945">
        <ele>177</ele>
        <time>2022-05-12T07:28:44Z</time>
      </trkpt>
      <trkpt lat="47.58391" lon="2.2155828">
        <ele>178</ele>
        <time>2022-05-12T07:28:45Z</time>
      </trkpt>
      <trkpt lat="47.583916" lon="2.21557">
        <ele>179</ele>
        <time>2022-05-12T07:28:46Z</time>
      </trkpt>
      <trkpt lat="47.583923" lon="2.2155583">
        <ele>179</ele>
        <time>2022-05-12T07:28:47Z</time>
      </trkpt>
      <trkpt lat="47.58393" lon="2.215545">
        <ele>179</ele>
        <time>2022-05-12T07:28:48Z</time>
      </trkpt>
      <trkpt lat="47.583935" lon="2.215531">
        <ele>179</ele>
        <time>2022-05-12T07:28:49Z</time>
      </trkpt>
      <trkpt lat="47.58394" lon="2.21552">
        <ele>179</ele>
        <time>2022-05-12T07:28:50Z</time>
      </trkpt>
      <trkpt lat="47.583942" lon="2.2155063">
        <ele>179</ele>
        <time>2022-05-12T07:28:51Z</time>
      </trkpt>
      <trkpt lat="47.583946" lon="2.215491">
        <ele>179</ele>
        <time>2022-05-12T07:28:52Z</time>
      </trkpt>
      <trkpt lat="47.583954" lon="2.2154713">
        <ele>179</ele>
        <time>2022-05-12T07:28:53Z</time>
      </trkpt>
      <trkpt lat="47.583958" lon="2.215457">
        <ele>179</ele>
        <time>2022-05-12T07:28:54Z</time>
      </trkpt>
      <trkpt lat="47.583965" lon="2.2154408">
        <ele>179</ele>
        <time>2022-05-12T07:28:55Z</time>
      </trkpt>
      <trkpt lat="47.58397" lon="2.2154253">
        <ele>179</ele>
        <time>2022-05-12T07:28:56Z</time>
      </trkpt>
      <trkpt lat="47.583973" lon="2.2154124">
        <ele>179</ele>
        <time>2022-05-12T07:28:57Z</time>
      </trkpt>
      <trkpt lat="47.58398" lon="2.2153995">
        <ele>179</ele>
        <time>2022-05-12T07:28:58Z</time>
      </trkpt>
      <trkpt lat="47.583984" lon="2.2153895">
        <ele>178</ele>
        <time>2022-05-12T07:28:59Z</time>
      </trkpt>
      <trkpt lat="47.583992" lon="2.2153745">
        <ele>178</ele>
        <time>2022-05-12T07:29:00Z</time>
      </trkpt>
      <trkpt lat="47.583996" lon="2.2153592">
        <ele>179</ele>
        <time>2022-05-12T07:29:01Z</time>
      </trkpt>
      <trkpt lat="47.584003" lon="2.2153475">
        <ele>179</ele>
        <time>2022-05-12T07:29:02Z</time>
      </trkpt>
      <trkpt lat="47.58401" lon="2.2153375">
        <ele>179</ele>
        <time>2022-05-12T07:29:03Z</time>
      </trkpt>
      <trkpt lat="47.584015" lon="2.2153256">
        <ele>179</ele>
        <time>2022-05-12T07:29:04Z</time>
      </trkpt>
      <trkpt lat="47.58402" lon="2.2153084">
        <ele>179</ele>
        <time>2022-05-12T07:29:05Z</time>
      </trkpt>
      <trkpt lat="47.584026" lon="2.2152915">
        <ele>179</ele>
        <time>2022-05-12T07:29:06Z</time>
      </trkpt>
      <trkpt lat="47.58403" lon="2.215274">
        <ele>179</ele>
        <time>2022-05-12T07:29:07Z</time>
      </trkpt>
      <trkpt lat="47.584034" lon="2.2152555">
        <ele>179</ele>
        <time>2022-05-12T07:29:08Z</time>
      </trkpt>
      <trkpt lat="47.584038" lon="2.215241">
        <ele>179</ele>
        <time>2022-05-12T07:29:09Z</time>
      </trkpt>
      <trkpt lat="47.584045" lon="2.215226">
        <ele>179</ele>
        <time>2022-05-12T07:29:10Z</time>
      </trkpt>
      <trkpt lat="47.584053" lon="2.215214">
        <ele>179</ele>
        <time>2022-05-12T07:29:11Z</time>
      </trkpt>
      <trkpt lat="47.58406" lon="2.2151988">
        <ele>178</ele>
        <time>2022-05-12T07:29:12Z</time>
      </trkpt>
      <trkpt lat="47.584064" lon="2.2151804">
        <ele>178</ele>
        <time>2022-05-12T07:29:13Z</time>
      </trkpt>
      <trkpt lat="47.584076" lon="2.215161">
        <ele>179</ele>
        <time>2022-05-12T07:29:14Z</time>
      </trkpt>
      <trkpt lat="47.58408" lon="2.2151554">
        <ele>179</ele>
        <time>2022-05-12T07:29:15Z</time>
      </trkpt>
      <trkpt lat="47.584084" lon="2.2151523">
        <ele>179</ele>
        <time>2022-05-12T07:29:16Z</time>
      </trkpt>
      <trkpt lat="47.584087" lon="2.215142">
        <ele>178</ele>
        <time>2022-05-12T07:29:17Z</time>
      </trkpt>
      <trkpt lat="47.584095" lon="2.2151265">
        <ele>178</ele>
        <time>2022-05-12T07:29:18Z</time>
      </trkpt>
      <trkpt lat="47.5841" lon="2.2151089">
        <ele>178</ele>
        <time>2022-05-12T07:29:19Z</time>
      </trkpt>
      <trkpt lat="47.584103" lon="2.2150948">
        <ele>179</ele>
        <time>2022-05-12T07:29:20Z</time>
      </trkpt>
      <trkpt lat="47.58411" lon="2.2150762">
        <ele>178</ele>
        <time>2022-05-12T07:29:21Z</time>
      </trkpt>
      <trkpt lat="47.584114" lon="2.2150605">
        <ele>178</ele>
        <time>2022-05-12T07:29:22Z</time>
      </trkpt>
      <trkpt lat="47.58412" lon="2.2150533">
        <ele>178</ele>
        <time>2022-05-12T07:29:23Z</time>
      </trkpt>
      <trkpt lat="47.584126" lon="2.2150388">
        <ele>178</ele>
        <time>2022-05-12T07:29:24Z</time>
      </trkpt>
      <trkpt lat="47.58413" lon="2.2150269">
        <ele>177</ele>
        <time>2022-05-12T07:29:25Z</time>
      </trkpt>
      <trkpt lat="47.58413" lon="2.2150154">
        <ele>177</ele>
        <time>2022-05-12T07:29:26Z</time>
      </trkpt>
      <trkpt lat="47.584133" lon="2.215">
        <ele>178</ele>
        <time>2022-05-12T07:29:27Z</time>
      </trkpt>
      <trkpt lat="47.58414" lon="2.2149837">
        <ele>178</ele>
        <time>2022-05-12T07:29:28Z</time>
      </trkpt>
      <trkpt lat="47.58415" lon="2.2149687">
        <ele>178</ele>
        <time>2022-05-12T07:29:29Z</time>
      </trkpt>
      <trkpt lat="47.584156" lon="2.2149518">
        <ele>178</ele>
        <time>2022-05-12T07:29:30Z</time>
      </trkpt>
      <trkpt lat="47.584164" lon="2.2149339">
        <ele>178</ele>
        <time>2022-05-12T07:29:31Z</time>
      </trkpt>
      <trkpt lat="47.58417" lon="2.2149198">
        <ele>177</ele>
        <time>2022-05-12T07:29:32Z</time>
      </trkpt>
      <trkpt lat="47.58418" lon="2.2149088">
        <ele>177</ele>
        <time>2022-05-12T07:29:33Z</time>
      </trkpt>
      <trkpt lat="47.584183" lon="2.2148972">
        <ele>177</ele>
        <time>2022-05-12T07:29:34Z</time>
      </trkpt>
      <trkpt lat="47.58419" lon="2.2148852">
        <ele>177</ele>
        <time>2022-05-12T07:29:35Z</time>
      </trkpt>
      <trkpt lat="47.5842" lon="2.2148685">
        <ele>177</ele>
        <time>2022-05-12T07:29:36Z</time>
      </trkpt>
      <trkpt lat="47.58421" lon="2.2148523">
        <ele>177</ele>
        <time>2022-05-12T07:29:37Z</time>
      </trkpt>
      <trkpt lat="47.584217" lon="2.214836">
        <ele>177</ele>
        <time>2022-05-12T07:29:38Z</time>
      </trkpt>
      <trkpt lat="47.584217" lon="2.2148206">
        <ele>177</ele>
        <time>2022-05-12T07:29:39Z</time>
      </trkpt>
      <trkpt lat="47.584225" lon="2.2148018">
        <ele>177</ele>
        <time>2022-05-12T07:29:40Z</time>
      </trkpt>
      <trkpt lat="47.58423" lon="2.2147868">
        <ele>177</ele>
        <time>2022-05-12T07:29:41Z</time>
      </trkpt>
      <trkpt lat="47.584232" lon="2.214773">
        <ele>178</ele>
        <time>2022-05-12T07:29:42Z</time>
      </trkpt>
      <trkpt lat="47.584236" lon="2.2147574">
        <ele>178</ele>
        <time>2022-05-12T07:29:43Z</time>
      </trkpt>
      <trkpt lat="47.584244" lon="2.214742">
        <ele>178</ele>
        <time>2022-05-12T07:29:44Z</time>
      </trkpt>
      <trkpt lat="47.58425" lon="2.2147334">
        <ele>178</ele>
        <time>2022-05-12T07:29:45Z</time>
      </trkpt>
      <trkpt lat="47.584255" lon="2.2147186">
        <ele>178</ele>
        <time>2022-05-12T07:29:46Z</time>
      </trkpt>
      <trkpt lat="47.584267" lon="2.2147074">
        <ele>178</ele>
        <time>2022-05-12T07:29:47Z</time>
      </trkpt>
      <trkpt lat="47.584274" lon="2.2146978">
        <ele>178</ele>
        <time>2022-05-12T07:29:48Z</time>
      </trkpt>
      <trkpt lat="47.584282" lon="2.214687">
        <ele>178</ele>
        <time>2022-05-12T07:29:49Z</time>
      </trkpt>
      <trkpt lat="47.584286" lon="2.2146738">
        <ele>178</ele>
        <time>2022-05-12T07:29:50Z</time>
      </trkpt>
      <trkpt lat="47.584293" lon="2.2146616">
        <ele>178</ele>
        <time>2022-05-12T07:29:51Z</time>
      </trkpt>
      <trkpt lat="47.5843" lon="2.214648">
        <ele>178</ele>
        <time>2022-05-12T07:29:52Z</time>
      </trkpt>
      <trkpt lat="47.584305" lon="2.2146337">
        <ele>178</ele>
        <time>2022-05-12T07:29:53Z</time>
      </trkpt>
      <trkpt lat="47.58431" lon="2.2146177">
        <ele>177</ele>
        <time>2022-05-12T07:29:54Z</time>
      </trkpt>
      <trkpt lat="47.584316" lon="2.2146096">
        <ele>178</ele>
        <time>2022-05-12T07:29:55Z</time>
      </trkpt>
      <trkpt lat="47.58432" lon="2.2145953">
        <ele>178</ele>
        <time>2022-05-12T07:29:56Z</time>
      </trkpt>
      <trkpt lat="47.584328" lon="2.2145796">
        <ele>178</ele>
        <time>2022-05-12T07:29:57Z</time>
      </trkpt>
      <trkpt lat="47.58433" lon="2.2145624">
        <ele>179</ele>
        <time>2022-05-12T07:29:58Z</time>
      </trkpt>
      <trkpt lat="47.584335" lon="2.2145474">
        <ele>179</ele>
        <time>2022-05-12T07:29:59Z</time>
      </trkpt>
      <trkpt lat="47.58434" lon="2.214533">
        <ele>179</ele>
        <time>2022-05-12T07:30:00Z</time>
      </trkpt>
      <trkpt lat="47.584343" lon="2.2145188">
        <ele>180</ele>
        <time>2022-05-12T07:30:01Z</time>
      </trkpt>
      <trkpt lat="47.58435" lon="2.2145104">
        <ele>180</ele>
        <time>2022-05-12T07:30:02Z</time>
      </trkpt>
      <trkpt lat="47.58436" lon="2.214494">
        <ele>180</ele>
        <time>2022-05-12T07:30:03Z</time>
      </trkpt>
      <trkpt lat="47.584362" lon="2.2144787">
        <ele>181</ele>
        <time>2022-05-12T07:30:04Z</time>
      </trkpt>
      <trkpt lat="47.58437" lon="2.2144604">
        <ele>180</ele>
        <time>2022-05-12T07:30:05Z</time>
      </trkpt>
      <trkpt lat="47.584377" lon="2.2144454">
        <ele>181</ele>
        <time>2022-05-12T07:30:06Z</time>
      </trkpt>
      <trkpt lat="47.584385" lon="2.2144275">
        <ele>181</ele>
        <time>2022-05-12T07:30:07Z</time>
      </trkpt>
      <trkpt lat="47.584393" lon="2.214415">
        <ele>181</ele>
        <time>2022-05-12T07:30:08Z</time>
      </trkpt>
      <trkpt lat="47.5844" lon="2.2143989">
        <ele>181</ele>
        <time>2022-05-12T07:30:09Z</time>
      </trkpt>
      <trkpt lat="47.584408" lon="2.2143886">
        <ele>182</ele>
        <time>2022-05-12T07:30:10Z</time>
      </trkpt>
      <trkpt lat="47.584415" lon="2.2143753">
        <ele>182</ele>
        <time>2022-05-12T07:30:11Z</time>
      </trkpt>
      <trkpt lat="47.584423" lon="2.2143588">
        <ele>182</ele>
        <time>2022-05-12T07:30:12Z</time>
      </trkpt>
      <trkpt lat="47.584427" lon="2.2143455">
        <ele>182</ele>
        <time>2022-05-12T07:30:13Z</time>
      </trkpt>
      <trkpt lat="47.584435" lon="2.2143326">
        <ele>182</ele>
        <time>2022-05-12T07:30:14Z</time>
      </trkpt>
      <trkpt lat="47.584442" lon="2.214315">
        <ele>183</ele>
        <time>2022-05-12T07:30:15Z</time>
      </trkpt>
      <trkpt lat="47.584446" lon="2.2143">
        <ele>182</ele>
        <time>2022-05-12T07:30:16Z</time>
      </trkpt>
      <trkpt lat="47.584457" lon="2.2142878">
        <ele>183</ele>
        <time>2022-05-12T07:30:17Z</time>
      </trkpt>
      <trkpt lat="47.58447" lon="2.2142806">
        <ele>183</ele>
        <time>2022-05-12T07:30:18Z</time>
      </trkpt>
      <trkpt lat="47.584473" lon="2.2142615">
        <ele>182</ele>
        <time>2022-05-12T07:30:19Z</time>
      </trkpt>
      <trkpt lat="47.584476" lon="2.214243">
        <ele>182</ele>
        <time>2022-05-12T07:30:20Z</time>
      </trkpt>
      <trkpt lat="47.58448" lon="2.2142313">
        <ele>183</ele>
        <time>2022-05-12T07:30:21Z</time>
      </trkpt>
      <trkpt lat="47.584488" lon="2.2142184">
        <ele>183</ele>
        <time>2022-05-12T07:30:22Z</time>
      </trkpt>
      <trkpt lat="47.584496" lon="2.2142115">
        <ele>182</ele>
        <time>2022-05-12T07:30:23Z</time>
      </trkpt>
      <trkpt lat="47.5845" lon="2.2141995">
        <ele>182</ele>
        <time>2022-05-12T07:30:24Z</time>
      </trkpt>
      <trkpt lat="47.58451" lon="2.2141886">
        <ele>182</ele>
        <time>2022-05-12T07:30:25Z</time>
      </trkpt>
      <trkpt lat="47.58452" lon="2.21418">
        <ele>181</ele>
        <time>2022-05-12T07:30:26Z</time>
      </trkpt>
      <trkpt lat="47.584522" lon="2.2141685">
        <ele>181</ele>
        <time>2022-05-12T07:30:27Z</time>
      </trkpt>
      <trkpt lat="47.58453" lon="2.2141602">
        <ele>182</ele>
        <time>2022-05-12T07:30:28Z</time>
      </trkpt>
      <trkpt lat="47.584538" lon="2.214146">
        <ele>182</ele>
        <time>2022-05-12T07:30:29Z</time>
      </trkpt>
      <trkpt lat="47.58454" lon="2.2141337">
        <ele>183</ele>
        <time>2022-05-12T07:30:30Z</time>
      </trkpt>
      <trkpt lat="47.584545" lon="2.2141187">
        <ele>183</ele>
        <time>2022-05-12T07:30:31Z</time>
      </trkpt>
      <trkpt lat="47.58455" lon="2.2140987">
        <ele>183</ele>
        <time>2022-05-12T07:30:32Z</time>
      </trkpt>
      <trkpt lat="47.584553" lon="2.2140813">
        <ele>183</ele>
        <time>2022-05-12T07:30:33Z</time>
      </trkpt>
      <trkpt lat="47.58456" lon="2.2140713">
        <ele>183</ele>
        <time>2022-05-12T07:30:34Z</time>
      </trkpt>
      <trkpt lat="47.584564" lon="2.2140622">
        <ele>183</ele>
        <time>2022-05-12T07:30:35Z</time>
      </trkpt>
      <trkpt lat="47.58457" lon="2.2140484">
        <ele>183</ele>
        <time>2022-05-12T07:30:36Z</time>
      </trkpt>
      <trkpt lat="47.584576" lon="2.2140336">
        <ele>183</ele>
        <time>2022-05-12T07:30:37Z</time>
      </trkpt>
      <trkpt lat="47.58458" lon="2.2140183">
        <ele>183</ele>
        <time>2022-05-12T07:30:38Z</time>
      </trkpt>
      <trkpt lat="47.58459" lon="2.2140076">
        <ele>183</ele>
        <time>2022-05-12T07:30:39Z</time>
      </trkpt>
      <trkpt lat="47.584602" lon="2.2139957">
        <ele>184</ele>
        <time>2022-05-12T07:30:40Z</time>
      </trkpt>
      <trkpt lat="47.584602" lon="2.213983">
        <ele>184</ele>
        <time>2022-05-12T07:30:41Z</time>
      </trkpt>
      <trkpt lat="47.584602" lon="2.2139733">
        <ele>184</ele>
        <time>2022-05-12T07:30:42Z</time>
      </trkpt>
      <trkpt lat="47.584606" lon="2.2139573">
        <ele>183</ele>
        <time>2022-05-12T07:30:43Z</time>
      </trkpt>
      <trkpt lat="47.584618" lon="2.2139437">
        <ele>184</ele>
        <time>2022-05-12T07:30:44Z</time>
      </trkpt>
      <trkpt lat="47.58462" lon="2.2139316">
        <ele>183</ele>
        <time>2022-05-12T07:30:45Z</time>
      </trkpt>
      <trkpt lat="47.58463" lon="2.2139168">
        <ele>183</ele>
        <time>2022-05-12T07:30:46Z</time>
      </trkpt>
      <trkpt lat="47.58463" lon="2.213898">
        <ele>183</ele>
        <time>2022-05-12T07:30:47Z</time>
      </trkpt>
      <trkpt lat="47.584637" lon="2.213883">
        <ele>183</ele>
        <time>2022-05-12T07:30:48Z</time>
      </trkpt>
      <trkpt lat="47.584644" lon="2.2138655">
        <ele>183</ele>
        <time>2022-05-12T07:30:49Z</time>
      </trkpt>
      <trkpt lat="47.584656" lon="2.2138507">
        <ele>182</ele>
        <time>2022-05-12T07:30:50Z</time>
      </trkpt>
      <trkpt lat="47.584663" lon="2.2138405">
        <ele>182</ele>
        <time>2022-05-12T07:30:51Z</time>
      </trkpt>
      <trkpt lat="47.584675" lon="2.2138329">
        <ele>183</ele>
        <time>2022-05-12T07:30:52Z</time>
      </trkpt>
      <trkpt lat="47.584686" lon="2.2138238">
        <ele>183</ele>
        <time>2022-05-12T07:30:53Z</time>
      </trkpt>
      <trkpt lat="47.584698" lon="2.2138233">
        <ele>183</ele>
        <time>2022-05-12T07:30:54Z</time>
      </trkpt>
      <trkpt lat="47.5847" lon="2.2138252">
        <ele>183</ele>
        <time>2022-05-12T07:30:55Z</time>
      </trkpt>
      <trkpt lat="47.584713" lon="2.2138278">
        <ele>183</ele>
        <time>2022-05-12T07:30:56Z</time>
      </trkpt>
      <trkpt lat="47.58472" lon="2.2138329">
        <ele>183</ele>
        <time>2022-05-12T07:30:57Z</time>
      </trkpt>
      <trkpt lat="47.584732" lon="2.2138417">
        <ele>182</ele>
        <time>2022-05-12T07:30:58Z</time>
      </trkpt>
      <trkpt lat="47.58474" lon="2.2138505">
        <ele>182</ele>
        <time>2022-05-12T07:30:59Z</time>
      </trkpt>
      <trkpt lat="47.584755" lon="2.213857">
        <ele>182</ele>
        <time>2022-05-12T07:31:00Z</time>
      </trkpt>
      <trkpt lat="47.584766" lon="2.2138698">
        <ele>182</ele>
        <time>2022-05-12T07:31:01Z</time>
      </trkpt>
      <trkpt lat="47.584778" lon="2.2138743">
        <ele>181</ele>
        <time>2022-05-12T07:31:02Z</time>
      </trkpt>
      <trkpt lat="47.58478" lon="2.213879">
        <ele>181</ele>
        <time>2022-05-12T07:31:03Z</time>
      </trkpt>
      <trkpt lat="47.58479" lon="2.2138846">
        <ele>180</ele>
        <time>2022-05-12T07:31:04Z</time>
      </trkpt>
      <trkpt lat="47.5848" lon="2.2138963">
        <ele>180</ele>
        <time>2022-05-12T07:31:05Z</time>
      </trkpt>
      <trkpt lat="47.584812" lon="2.2138946">
        <ele>180</ele>
        <time>2022-05-12T07:31:06Z</time>
      </trkpt>
      <trkpt lat="47.584827" lon="2.213907">
        <ele>180</ele>
        <time>2022-05-12T07:31:07Z</time>
      </trkpt>
      <trkpt lat="47.584843" lon="2.2139196">
        <ele>179</ele>
        <time>2022-05-12T07:31:08Z</time>
      </trkpt>
      <trkpt lat="47.584854" lon="2.2139297">
        <ele>179</ele>
        <time>2022-05-12T07:31:09Z</time>
      </trkpt>
      <trkpt lat="47.584866" lon="2.2139401">
        <ele>179</ele>
        <time>2022-05-12T07:31:10Z</time>
      </trkpt>
      <trkpt lat="47.584877" lon="2.2139502">
        <ele>179</ele>
        <time>2022-05-12T07:31:11Z</time>
      </trkpt>
      <trkpt lat="47.58489" lon="2.2139661">
        <ele>179</ele>
        <time>2022-05-12T07:31:12Z</time>
      </trkpt>
      <trkpt lat="47.584896" lon="2.213972">
        <ele>179</ele>
        <time>2022-05-12T07:31:13Z</time>
      </trkpt>
      <trkpt lat="47.584904" lon="2.213977">
        <ele>179</ele>
        <time>2022-05-12T07:31:14Z</time>
      </trkpt>
      <trkpt lat="47.58491" lon="2.2139814">
        <ele>179</ele>
        <time>2022-05-12T07:31:15Z</time>
      </trkpt>
      <trkpt lat="47.584923" lon="2.2139893">
        <ele>179</ele>
        <time>2022-05-12T07:31:16Z</time>
      </trkpt>
      <trkpt lat="47.58493" lon="2.2139952">
        <ele>179</ele>
        <time>2022-05-12T07:31:17Z</time>
      </trkpt>
      <trkpt lat="47.584938" lon="2.2140024">
        <ele>179</ele>
        <time>2022-05-12T07:31:18Z</time>
      </trkpt>
      <trkpt lat="47.58495" lon="2.2140114">
        <ele>178</ele>
        <time>2022-05-12T07:31:19Z</time>
      </trkpt>
      <trkpt lat="47.584953" lon="2.2140217">
        <ele>178</ele>
        <time>2022-05-12T07:31:20Z</time>
      </trkpt>
      <trkpt lat="47.58496" lon="2.2140374">
        <ele>178</ele>
        <time>2022-05-12T07:31:21Z</time>
      </trkpt>
      <trkpt lat="47.58497" lon="2.2140453">
        <ele>178</ele>
        <time>2022-05-12T07:31:22Z</time>
      </trkpt>
      <trkpt lat="47.58498" lon="2.2140532">
        <ele>178</ele>
        <time>2022-05-12T07:31:23Z</time>
      </trkpt>
      <trkpt lat="47.584988" lon="2.2140584">
        <ele>178</ele>
        <time>2022-05-12T07:31:24Z</time>
      </trkpt>
      <trkpt lat="47.585" lon="2.2140596">
        <ele>178</ele>
        <time>2022-05-12T07:31:25Z</time>
      </trkpt>
      <trkpt lat="47.58501" lon="2.2140636">
        <ele>179</ele>
        <time>2022-05-12T07:31:26Z</time>
      </trkpt>
      <trkpt lat="47.58502" lon="2.2140713">
        <ele>178</ele>
        <time>2022-05-12T07:31:27Z</time>
      </trkpt>
      <trkpt lat="47.585022" lon="2.214079">
        <ele>178</ele>
        <time>2022-05-12T07:31:28Z</time>
      </trkpt>
      <trkpt lat="47.585026" lon="2.2140918">
        <ele>178</ele>
        <time>2022-05-12T07:31:29Z</time>
      </trkpt>
      <trkpt lat="47.585033" lon="2.2140975">
        <ele>178</ele>
        <time>2022-05-12T07:31:30Z</time>
      </trkpt>
      <trkpt lat="47.58504" lon="2.2141087">
        <ele>178</ele>
        <time>2022-05-12T07:31:31Z</time>
      </trkpt>
      <trkpt lat="47.58505" lon="2.214119">
        <ele>178</ele>
        <time>2022-05-12T07:31:32Z</time>
      </trkpt>
      <trkpt lat="47.585056" lon="2.2141275">
        <ele>177</ele>
        <time>2022-05-12T07:31:33Z</time>
      </trkpt>
      <trkpt lat="47.585068" lon="2.2141316">
        <ele>178</ele>
        <time>2022-05-12T07:31:34Z</time>
      </trkpt>
      <trkpt lat="47.58508" lon="2.2141318">
        <ele>177</ele>
        <time>2022-05-12T07:31:35Z</time>
      </trkpt>
      <trkpt lat="47.585087" lon="2.2141416">
        <ele>177</ele>
        <time>2022-05-12T07:31:36Z</time>
      </trkpt>
      <trkpt lat="47.585094" lon="2.2141528">
        <ele>177</ele>
        <time>2022-05-12T07:31:37Z</time>
      </trkpt>
      <trkpt lat="47.585102" lon="2.214161">
        <ele>177</ele>
        <time>2022-05-12T07:31:38Z</time>
      </trkpt>
      <trkpt lat="47.58511" lon="2.2141738">
        <ele>176</ele>
        <time>2022-05-12T07:31:39Z</time>
      </trkpt>
      <trkpt lat="47.58512" lon="2.2141821">
        <ele>176</ele>
        <time>2022-05-12T07:31:40Z</time>
      </trkpt>
      <trkpt lat="47.58513" lon="2.2141976">
        <ele>176</ele>
        <time>2022-05-12T07:31:41Z</time>
      </trkpt>
      <trkpt lat="47.58514" lon="2.2142057">
        <ele>177</ele>
        <time>2022-05-12T07:31:42Z</time>
      </trkpt>
      <trkpt lat="47.58515" lon="2.2142143">
        <ele>177</ele>
        <time>2022-05-12T07:31:43Z</time>
      </trkpt>
      <trkpt lat="47.58516" lon="2.214229">
        <ele>178</ele>
        <time>2022-05-12T07:31:44Z</time>
      </trkpt>
      <trkpt lat="47.585167" lon="2.2142372">
        <ele>178</ele>
        <time>2022-05-12T07:31:45Z</time>
      </trkpt>
      <trkpt lat="47.585186" lon="2.214248">
        <ele>178</ele>
        <time>2022-05-12T07:31:46Z</time>
      </trkpt>
      <trkpt lat="47.585197" lon="2.214254">
        <ele>177</ele>
        <time>2022-05-12T07:31:47Z</time>
      </trkpt>
      <trkpt lat="47.58521" lon="2.2142644">
        <ele>177</ele>
        <time>2022-05-12T07:31:48Z</time>
      </trkpt>
      <trkpt lat="47.58522" lon="2.2142758">
        <ele>178</ele>
        <time>2022-05-12T07:31:49Z</time>
      </trkpt>
      <trkpt lat="47.58522" lon="2.2142758">
        <ele>178</ele>
        <time>2022-05-12T07:31:49Z</time>
      </trkpt>
      <trkpt lat="47.58534" lon="2.2143161">
        <ele>204</ele>
        <time>2022-05-12T07:31:54Z</time>
      </trkpt>
      <trkpt lat="47.585335" lon="2.2143369">
        <ele>191</ele>
        <time>2022-05-12T07:31:55Z</time>
      </trkpt>
      <trkpt lat="47.585415" lon="2.2143657">
        <ele>194</ele>
        <time>2022-05-12T07:31:56Z</time>
      </trkpt>
      <trkpt lat="47.58535" lon="2.2143693">
        <ele>180</ele>
        <time>2022-05-12T07:31:57Z</time>
      </trkpt>
      <trkpt lat="47.585377" lon="2.2143624">
        <ele>184</ele>
        <time>2022-05-12T07:31:58Z</time>
      </trkpt>
      <trkpt lat="47.585373" lon="2.2143757">
        <ele>183</ele>
        <time>2022-05-12T07:31:59Z</time>
      </trkpt>
      <trkpt lat="47.585365" lon="2.2143815">
        <ele>183</ele>
        <time>2022-05-12T07:32:00Z</time>
      </trkpt>
      <trkpt lat="47.585373" lon="2.214394">
        <ele>182</ele>
        <time>2022-05-12T07:32:01Z</time>
      </trkpt>
      <trkpt lat="47.58538" lon="2.2144039">
        <ele>182</ele>
        <time>2022-05-12T07:32:02Z</time>
      </trkpt>
      <trkpt lat="47.585392" lon="2.2144105">
        <ele>180</ele>
        <time>2022-05-12T07:32:03Z</time>
      </trkpt>
      <trkpt lat="47.585396" lon="2.214418">
        <ele>181</ele>
        <time>2022-05-12T07:32:04Z</time>
      </trkpt>
      <trkpt lat="47.585403" lon="2.2144241">
        <ele>181</ele>
        <time>2022-05-12T07:32:05Z</time>
      </trkpt>
      <trkpt lat="47.585415" lon="2.214437">
        <ele>181</ele>
        <time>2022-05-12T07:32:06Z</time>
      </trkpt>
      <trkpt lat="47.58543" lon="2.2144516">
        <ele>182</ele>
        <time>2022-05-12T07:32:07Z</time>
      </trkpt>
      <trkpt lat="47.585445" lon="2.2144601">
        <ele>182</ele>
        <time>2022-05-12T07:32:08Z</time>
      </trkpt>
      <trkpt lat="47.585464" lon="2.2144735">
        <ele>182</ele>
        <time>2022-05-12T07:32:09Z</time>
      </trkpt>
      <trkpt lat="47.58547" lon="2.214484">
        <ele>182</ele>
        <time>2022-05-12T07:32:10Z</time>
      </trkpt>
      <trkpt lat="47.585476" lon="2.2144978">
        <ele>181</ele>
        <time>2022-05-12T07:32:11Z</time>
      </trkpt>
      <trkpt lat="47.58548" lon="2.2145143">
        <ele>181</ele>
        <time>2022-05-12T07:32:12Z</time>
      </trkpt>
      <trkpt lat="47.58549" lon="2.214525">
        <ele>180</ele>
        <time>2022-05-12T07:32:13Z</time>
      </trkpt>
      <trkpt lat="47.585503" lon="2.2145386">
        <ele>180</ele>
        <time>2022-05-12T07:32:14Z</time>
      </trkpt>
      <trkpt lat="47.585514" lon="2.21455">
        <ele>180</ele>
        <time>2022-05-12T07:32:15Z</time>
      </trkpt>
      <trkpt lat="47.58552" lon="2.2145581">
        <ele>179</ele>
        <time>2022-05-12T07:32:16Z</time>
      </trkpt>
      <trkpt lat="47.585533" lon="2.2145665">
        <ele>179</ele>
        <time>2022-05-12T07:32:17Z</time>
      </trkpt>
      <trkpt lat="47.585537" lon="2.2145765">
        <ele>179</ele>
        <time>2022-05-12T07:32:18Z</time>
      </trkpt>
      <trkpt lat="47.58555" lon="2.2145846">
        <ele>179</ele>
        <time>2022-05-12T07:32:19Z</time>
      </trkpt>
      <trkpt lat="47.585556" lon="2.2145896">
        <ele>179</ele>
        <time>2022-05-12T07:32:20Z</time>
      </trkpt>
      <trkpt lat="47.585564" lon="2.214598">
        <ele>179</ele>
        <time>2022-05-12T07:32:21Z</time>
      </trkpt>
      <trkpt lat="47.58557" lon="2.2146046">
        <ele>179</ele>
        <time>2022-05-12T07:32:22Z</time>
      </trkpt>
      <trkpt lat="47.585575" lon="2.2146099">
        <ele>179</ele>
        <time>2022-05-12T07:32:23Z</time>
      </trkpt>
      <trkpt lat="47.585583" lon="2.214619">
        <ele>180</ele>
        <time>2022-05-12T07:32:24Z</time>
      </trkpt>
      <trkpt lat="47.58559" lon="2.21463">
        <ele>180</ele>
        <time>2022-05-12T07:32:25Z</time>
      </trkpt>
      <trkpt lat="47.585598" lon="2.2146416">
        <ele>179</ele>
        <time>2022-05-12T07:32:26Z</time>
      </trkpt>
      <trkpt lat="47.58561" lon="2.2146506">
        <ele>179</ele>
        <time>2022-05-12T07:32:27Z</time>
      </trkpt>
      <trkpt lat="47.58562" lon="2.2146606">
        <ele>180</ele>
        <time>2022-05-12T07:32:28Z</time>
      </trkpt>
      <trkpt lat="47.585632" lon="2.2146652">
        <ele>180</ele>
        <time>2022-05-12T07:32:29Z</time>
      </trkpt>
      <trkpt lat="47.585644" lon="2.2146719">
        <ele>179</ele>
        <time>2022-05-12T07:32:30Z</time>
      </trkpt>
      <trkpt lat="47.58565" lon="2.214677">
        <ele>179</ele>
        <time>2022-05-12T07:32:31Z</time>
      </trkpt>
      <trkpt lat="47.58566" lon="2.2146811">
        <ele>179</ele>
        <time>2022-05-12T07:32:32Z</time>
      </trkpt>
      <trkpt lat="47.585667" lon="2.2146847">
        <ele>179</ele>
        <time>2022-05-12T07:32:33Z</time>
      </trkpt>
      <trkpt lat="47.58567" lon="2.2146935">
        <ele>178</ele>
        <time>2022-05-12T07:32:34Z</time>
      </trkpt>
      <trkpt lat="47.585682" lon="2.2147026">
        <ele>178</ele>
        <time>2022-05-12T07:32:35Z</time>
      </trkpt>
      <trkpt lat="47.58569" lon="2.2147138">
        <ele>178</ele>
        <time>2022-05-12T07:32:36Z</time>
      </trkpt>
      <trkpt lat="47.585697" lon="2.214723">
        <ele>178</ele>
        <time>2022-05-12T07:32:37Z</time>
      </trkpt>
      <trkpt lat="47.58571" lon="2.2147288">
        <ele>178</ele>
        <time>2022-05-12T07:32:38Z</time>
      </trkpt>
      <trkpt lat="47.58572" lon="2.2147348">
        <ele>178</ele>
        <time>2022-05-12T07:32:39Z</time>
      </trkpt>
      <trkpt lat="47.58573" lon="2.2147431">
        <ele>178</ele>
        <time>2022-05-12T07:32:40Z</time>
      </trkpt>
      <trkpt lat="47.585743" lon="2.2147505">
        <ele>178</ele>
        <time>2022-05-12T07:32:41Z</time>
      </trkpt>
      <trkpt lat="47.585754" lon="2.214755">
        <ele>178</ele>
        <time>2022-05-12T07:32:42Z</time>
      </trkpt>
      <trkpt lat="47.585766" lon="2.2147648">
        <ele>177</ele>
        <time>2022-05-12T07:32:43Z</time>
      </trkpt>
      <trkpt lat="47.585773" lon="2.214775">
        <ele>177</ele>
        <time>2022-05-12T07:32:44Z</time>
      </trkpt>
      <trkpt lat="47.585785" lon="2.214783">
        <ele>177</ele>
        <time>2022-05-12T07:32:45Z</time>
      </trkpt>
      <trkpt lat="47.585796" lon="2.2147896">
        <ele>177</ele>
        <time>2022-05-12T07:32:46Z</time>
      </trkpt>
      <trkpt lat="47.585808" lon="2.214795">
        <ele>177</ele>
        <time>2022-05-12T07:32:47Z</time>
      </trkpt>
      <trkpt lat="47.58582" lon="2.2148013">
        <ele>178</ele>
        <time>2022-05-12T07:32:48Z</time>
      </trkpt>
      <trkpt lat="47.585827" lon="2.2148108">
        <ele>178</ele>
        <time>2022-05-12T07:32:49Z</time>
      </trkpt>
      <trkpt lat="47.585835" lon="2.2148213">
        <ele>178</ele>
        <time>2022-05-12T07:32:50Z</time>
      </trkpt>
      <trkpt lat="47.585846" lon="2.214833">
        <ele>178</ele>
        <time>2022-05-12T07:32:51Z</time>
      </trkpt>
      <trkpt lat="47.585857" lon="2.214844">
        <ele>178</ele>
        <time>2022-05-12T07:32:52Z</time>
      </trkpt>
      <trkpt lat="47.585865" lon="2.2148542">
        <ele>178</ele>
        <time>2022-05-12T07:32:53Z</time>
      </trkpt>
      <trkpt lat="47.585876" lon="2.214864">
        <ele>178</ele>
        <time>2022-05-12T07:32:54Z</time>
      </trkpt>
      <trkpt lat="47.585888" lon="2.2148702">
        <ele>178</ele>
        <time>2022-05-12T07:32:55Z</time>
      </trkpt>
      <trkpt lat="47.5859" lon="2.2148745">
        <ele>178</ele>
        <time>2022-05-12T07:32:56Z</time>
      </trkpt>
      <trkpt lat="47.585907" lon="2.214884">
        <ele>178</ele>
        <time>2022-05-12T07:32:57Z</time>
      </trkpt>
      <trkpt lat="47.585915" lon="2.214887">
        <ele>178</ele>
        <time>2022-05-12T07:32:58Z</time>
      </trkpt>
      <trkpt lat="47.58592" lon="2.2148938">
        <ele>178</ele>
        <time>2022-05-12T07:32:59Z</time>
      </trkpt>
      <trkpt lat="47.58593" lon="2.2149036">
        <ele>178</ele>
        <time>2022-05-12T07:33:00Z</time>
      </trkpt>
      <trkpt lat="47.585938" lon="2.214913">
        <ele>177</ele>
        <time>2022-05-12T07:33:01Z</time>
      </trkpt>
      <trkpt lat="47.58595" lon="2.2149158">
        <ele>177</ele>
        <time>2022-05-12T07:33:02Z</time>
      </trkpt>
      <trkpt lat="47.585957" lon="2.2149189">
        <ele>177</ele>
        <time>2022-05-12T07:33:03Z</time>
      </trkpt>
      <trkpt lat="47.585964" lon="2.2149293">
        <ele>177</ele>
        <time>2022-05-12T07:33:04Z</time>
      </trkpt>
      <trkpt lat="47.58597" lon="2.21494">
        <ele>177</ele>
        <time>2022-05-12T07:33:05Z</time>
      </trkpt>
      <trkpt lat="47.585983" lon="2.2149546">
        <ele>177</ele>
        <time>2022-05-12T07:33:06Z</time>
      </trkpt>
      <trkpt lat="47.585995" lon="2.214965">
        <ele>177</ele>
        <time>2022-05-12T07:33:07Z</time>
      </trkpt>
      <trkpt lat="47.586006" lon="2.2149763">
        <ele>178</ele>
        <time>2022-05-12T07:33:08Z</time>
      </trkpt>
      <trkpt lat="47.586018" lon="2.2149847">
        <ele>178</ele>
        <time>2022-05-12T07:33:09Z</time>
      </trkpt>
      <trkpt lat="47.586025" lon="2.214993">
        <ele>178</ele>
        <time>2022-05-12T07:33:10Z</time>
      </trkpt>
      <trkpt lat="47.586037" lon="2.2150018">
        <ele>178</ele>
        <time>2022-05-12T07:33:11Z</time>
      </trkpt>
      <trkpt lat="47.586052" lon="2.2150078">
        <ele>178</ele>
        <time>2022-05-12T07:33:12Z</time>
      </trkpt>
      <trkpt lat="47.586063" lon="2.2150164">
        <ele>178</ele>
        <time>2022-05-12T07:33:13Z</time>
      </trkpt>
      <trkpt lat="47.586075" lon="2.2150269">
        <ele>178</ele>
        <time>2022-05-12T07:33:14Z</time>
      </trkpt>
      <trkpt lat="47.586086" lon="2.2150385">
        <ele>178</ele>
        <time>2022-05-12T07:33:15Z</time>
      </trkpt>
      <trkpt lat="47.586098" lon="2.2150471">
        <ele>178</ele>
        <time>2022-05-12T07:33:16Z</time>
      </trkpt>
      <trkpt lat="47.586105" lon="2.215056">
        <ele>177</ele>
        <time>2022-05-12T07:33:17Z</time>
      </trkpt>
      <trkpt lat="47.586117" lon="2.215066">
        <ele>177</ele>
        <time>2022-05-12T07:33:18Z</time>
      </trkpt>
      <trkpt lat="47.58613" lon="2.2150774">
        <ele>178</ele>
        <time>2022-05-12T07:33:19Z</time>
      </trkpt>
      <trkpt lat="47.586136" lon="2.2150886">
        <ele>178</ele>
        <time>2022-05-12T07:33:20Z</time>
      </trkpt>
      <trkpt lat="47.586147" lon="2.215094">
        <ele>177</ele>
        <time>2022-05-12T07:33:21Z</time>
      </trkpt>
      <trkpt lat="47.586155" lon="2.2151031">
        <ele>177</ele>
        <time>2022-05-12T07:33:22Z</time>
      </trkpt>
      <trkpt lat="47.58616" lon="2.2151148">
        <ele>177</ele>
        <time>2022-05-12T07:33:23Z</time>
      </trkpt>
      <trkpt lat="47.586166" lon="2.215124">
        <ele>177</ele>
        <time>2022-05-12T07:33:24Z</time>
      </trkpt>
      <trkpt lat="47.58617" lon="2.2151372">
        <ele>176</ele>
        <time>2022-05-12T07:33:25Z</time>
      </trkpt>
      <trkpt lat="47.586178" lon="2.2151499">
        <ele>175</ele>
        <time>2022-05-12T07:33:26Z</time>
      </trkpt>
      <trkpt lat="47.58619" lon="2.2151628">
        <ele>176</ele>
        <time>2022-05-12T07:33:27Z</time>
      </trkpt>
      <trkpt lat="47.5862" lon="2.2151744">
        <ele>176</ele>
        <time>2022-05-12T07:33:28Z</time>
      </trkpt>
      <trkpt lat="47.58621" lon="2.2151864">
        <ele>177</ele>
        <time>2022-05-12T07:33:29Z</time>
      </trkpt>
      <trkpt lat="47.58622" lon="2.2151976">
        <ele>177</ele>
        <time>2022-05-12T07:33:30Z</time>
      </trkpt>
      <trkpt lat="47.586227" lon="2.2152119">
        <ele>177</ele>
        <time>2022-05-12T07:33:31Z</time>
      </trkpt>
      <trkpt lat="47.586235" lon="2.2152228">
        <ele>176</ele>
        <time>2022-05-12T07:33:32Z</time>
      </trkpt>
      <trkpt lat="47.586246" lon="2.2152305">
        <ele>176</ele>
        <time>2022-05-12T07:33:33Z</time>
      </trkpt>
      <trkpt lat="47.586258" lon="2.215237">
        <ele>177</ele>
        <time>2022-05-12T07:33:34Z</time>
      </trkpt>
      <trkpt lat="47.586266" lon="2.2152429">
        <ele>177</ele>
        <time>2022-05-12T07:33:35Z</time>
      </trkpt>
      <trkpt lat="47.586273" lon="2.2152522">
        <ele>178</ele>
        <time>2022-05-12T07:33:36Z</time>
      </trkpt>
      <trkpt lat="47.58628" lon="2.2152605">
        <ele>178</ele>
        <time>2022-05-12T07:33:37Z</time>
      </trkpt>
      <trkpt lat="47.586292" lon="2.215272">
        <ele>178</ele>
        <time>2022-05-12T07:33:38Z</time>
      </trkpt>
      <trkpt lat="47.586296" lon="2.2152865">
        <ele>178</ele>
        <time>2022-05-12T07:33:39Z</time>
      </trkpt>
      <trkpt lat="47.586308" lon="2.2153022">
        <ele>179</ele>
        <time>2022-05-12T07:33:40Z</time>
      </trkpt>
      <trkpt lat="47.586315" lon="2.2153099">
        <ele>179</ele>
        <time>2022-05-12T07:33:41Z</time>
      </trkpt>
      <trkpt lat="47.586323" lon="2.2153146">
        <ele>178</ele>
        <time>2022-05-12T07:33:42Z</time>
      </trkpt>
      <trkpt lat="47.586323" lon="2.2153208">
        <ele>178</ele>
        <time>2022-05-12T07:33:43Z</time>
      </trkpt>
      <trkpt lat="47.586327" lon="2.2153294">
        <ele>178</ele>
        <time>2022-05-12T07:33:44Z</time>
      </trkpt>
      <trkpt lat="47.586334" lon="2.2153306">
        <ele>177</ele>
        <time>2022-05-12T07:33:45Z</time>
      </trkpt>
      <trkpt lat="47.586346" lon="2.2153363">
        <ele>177</ele>
        <time>2022-05-12T07:33:46Z</time>
      </trkpt>
      <trkpt lat="47.58636" lon="2.2153425">
        <ele>176</ele>
        <time>2022-05-12T07:33:47Z</time>
      </trkpt>
      <trkpt lat="47.586372" lon="2.2153447">
        <ele>176</ele>
        <time>2022-05-12T07:33:48Z</time>
      </trkpt>
      <trkpt lat="47.586384" lon="2.2153513">
        <ele>176</ele>
        <time>2022-05-12T07:33:49Z</time>
      </trkpt>
      <trkpt lat="47.58639" lon="2.215357">
        <ele>175</ele>
        <time>2022-05-12T07:33:50Z</time>
      </trkpt>
      <trkpt lat="47.586403" lon="2.2153637">
        <ele>176</ele>
        <time>2022-05-12T07:33:51Z</time>
      </trkpt>
      <trkpt lat="47.586414" lon="2.2153697">
        <ele>176</ele>
        <time>2022-05-12T07:33:52Z</time>
      </trkpt>
      <trkpt lat="47.586426" lon="2.2153757">
        <ele>176</ele>
        <time>2022-05-12T07:33:53Z</time>
      </trkpt>
      <trkpt lat="47.586433" lon="2.2153873">
        <ele>175</ele>
        <time>2022-05-12T07:33:54Z</time>
      </trkpt>
      <trkpt lat="47.58645" lon="2.2154028">
        <ele>175</ele>
        <time>2022-05-12T07:33:55Z</time>
      </trkpt>
      <trkpt lat="47.58646" lon="2.2154136">
        <ele>175</ele>
        <time>2022-05-12T07:33:56Z</time>
      </trkpt>
      <trkpt lat="47.586464" lon="2.2154226">
        <ele>175</ele>
        <time>2022-05-12T07:33:57Z</time>
      </trkpt>
      <trkpt lat="47.58647" lon="2.2154293">
        <ele>175</ele>
        <time>2022-05-12T07:33:58Z</time>
      </trkpt>
      <trkpt lat="47.586475" lon="2.215436">
        <ele>175</ele>
        <time>2022-05-12T07:33:59Z</time>
      </trkpt>
      <trkpt lat="47.586483" lon="2.2154405">
        <ele>175</ele>
        <time>2022-05-12T07:34:00Z</time>
      </trkpt>
      <trkpt lat="47.586487" lon="2.2154438">
        <ele>175</ele>
        <time>2022-05-12T07:34:01Z</time>
      </trkpt>
      <trkpt lat="47.58649" lon="2.2154467">
        <ele>174</ele>
        <time>2022-05-12T07:34:02Z</time>
      </trkpt>
      <trkpt lat="47.5865" lon="2.2154539">
        <ele>174</ele>
        <time>2022-05-12T07:34:03Z</time>
      </trkpt>
      <trkpt lat="47.586506" lon="2.215462">
        <ele>174</ele>
        <time>2022-05-12T07:34:04Z</time>
      </trkpt>
      <trkpt lat="47.586517" lon="2.2154715">
        <ele>175</ele>
        <time>2022-05-12T07:34:05Z</time>
      </trkpt>
      <trkpt lat="47.586533" lon="2.2154813">
        <ele>175</ele>
        <time>2022-05-12T07:34:06Z</time>
      </trkpt>
      <trkpt lat="47.586544" lon="2.2154877">
        <ele>175</ele>
        <time>2022-05-12T07:34:07Z</time>
      </trkpt>
      <trkpt lat="47.58656" lon="2.2154982">
        <ele>175</ele>
        <time>2022-05-12T07:34:08Z</time>
      </trkpt>
      <trkpt lat="47.58657" lon="2.215508">
        <ele>176</ele>
        <time>2022-05-12T07:34:09Z</time>
      </trkpt>
      <trkpt lat="47.58658" lon="2.2155209">
        <ele>176</ele>
        <time>2022-05-12T07:34:10Z</time>
      </trkpt>
      <trkpt lat="47.586582" lon="2.21553">
        <ele>177</ele>
        <time>2022-05-12T07:34:11Z</time>
      </trkpt>
      <trkpt lat="47.58659" lon="2.215535">
        <ele>177</ele>
        <time>2022-05-12T07:34:12Z</time>
      </trkpt>
      <trkpt lat="47.586594" lon="2.2155378">
        <ele>177</ele>
        <time>2022-05-12T07:34:13Z</time>
      </trkpt>
      <trkpt lat="47.586605" lon="2.215542">
        <ele>177</ele>
        <time>2022-05-12T07:34:14Z</time>
      </trkpt>
      <trkpt lat="47.58661" lon="2.2155461">
        <ele>177</ele>
        <time>2022-05-12T07:34:15Z</time>
      </trkpt>
      <trkpt lat="47.586617" lon="2.215552">
        <ele>177</ele>
        <time>2022-05-12T07:34:16Z</time>
      </trkpt>
      <trkpt lat="47.586628" lon="2.2155638">
        <ele>177</ele>
        <time>2022-05-12T07:34:17Z</time>
      </trkpt>
      <trkpt lat="47.58664" lon="2.2155716">
        <ele>177</ele>
        <time>2022-05-12T07:34:18Z</time>
      </trkpt>
      <trkpt lat="47.58665" lon="2.2155786">
        <ele>178</ele>
        <time>2022-05-12T07:34:19Z</time>
      </trkpt>
      <trkpt lat="47.586655" lon="2.2155828">
        <ele>178</ele>
        <time>2022-05-12T07:34:20Z</time>
      </trkpt>
      <trkpt lat="47.586666" lon="2.2155833">
        <ele>178</ele>
        <time>2022-05-12T07:34:21Z</time>
      </trkpt>
      <trkpt lat="47.586678" lon="2.215586">
        <ele>179</ele>
        <time>2022-05-12T07:34:22Z</time>
      </trkpt>
      <trkpt lat="47.58669" lon="2.2155938">
        <ele>179</ele>
        <time>2022-05-12T07:34:23Z</time>
      </trkpt>
      <trkpt lat="47.586704" lon="2.215606">
        <ele>179</ele>
        <time>2022-05-12T07:34:24Z</time>
      </trkpt>
      <trkpt lat="47.586716" lon="2.2156174">
        <ele>179</ele>
        <time>2022-05-12T07:34:25Z</time>
      </trkpt>
      <trkpt lat="47.586727" lon="2.215624">
        <ele>179</ele>
        <time>2022-05-12T07:34:26Z</time>
      </trkpt>
      <trkpt lat="47.586742" lon="2.2156312">
        <ele>178</ele>
        <time>2022-05-12T07:34:27Z</time>
      </trkpt>
      <trkpt lat="47.58675" lon="2.2156398">
        <ele>178</ele>
        <time>2022-05-12T07:34:28Z</time>
      </trkpt>
      <trkpt lat="47.58676" lon="2.2156487">
        <ele>177</ele>
        <time>2022-05-12T07:34:29Z</time>
      </trkpt>
      <trkpt lat="47.586765" lon="2.2156522">
        <ele>177</ele>
        <time>2022-05-12T07:34:30Z</time>
      </trkpt>
      <trkpt lat="47.586773" lon="2.2156596">
        <ele>177</ele>
        <time>2022-05-12T07:34:31Z</time>
      </trkpt>
      <trkpt lat="47.58678" lon="2.2156663">
        <ele>177</ele>
        <time>2022-05-12T07:34:32Z</time>
      </trkpt>
      <trkpt lat="47.58679" lon="2.2156737">
        <ele>176</ele>
        <time>2022-05-12T07:34:33Z</time>
      </trkpt>
      <trkpt lat="47.586796" lon="2.215677">
        <ele>176</ele>
        <time>2022-05-12T07:34:34Z</time>
      </trkpt>
      <trkpt lat="47.586803" lon="2.2156837">
        <ele>176</ele>
        <time>2022-05-12T07:34:35Z</time>
      </trkpt>
      <trkpt lat="47.58681" lon="2.2156909">
        <ele>177</ele>
        <time>2022-05-12T07:34:36Z</time>
      </trkpt>
      <trkpt lat="47.58682" lon="2.2156975">
        <ele>176</ele>
        <time>2022-05-12T07:34:37Z</time>
      </trkpt>
      <trkpt lat="47.58683" lon="2.215709">
        <ele>176</ele>
        <time>2022-05-12T07:34:38Z</time>
      </trkpt>
      <trkpt lat="47.58684" lon="2.2157204">
        <ele>176</ele>
        <time>2022-05-12T07:34:39Z</time>
      </trkpt>
      <trkpt lat="47.58685" lon="2.2157283">
        <ele>175</ele>
        <time>2022-05-12T07:34:40Z</time>
      </trkpt>
      <trkpt lat="47.586864" lon="2.2157357">
        <ele>176</ele>
        <time>2022-05-12T07:34:41Z</time>
      </trkpt>
      <trkpt lat="47.58688" lon="2.2157497">
        <ele>176</ele>
        <time>2022-05-12T07:34:42Z</time>
      </trkpt>
      <trkpt lat="47.586895" lon="2.2157652">
        <ele>176</ele>
        <time>2022-05-12T07:34:43Z</time>
      </trkpt>
      <trkpt lat="47.58691" lon="2.2157795">
        <ele>176</ele>
        <time>2022-05-12T07:34:44Z</time>
      </trkpt>
      <trkpt lat="47.586926" lon="2.2157867">
        <ele>176</ele>
        <time>2022-05-12T07:34:45Z</time>
      </trkpt>
      <trkpt lat="47.586937" lon="2.2157938">
        <ele>176</ele>
        <time>2022-05-12T07:34:46Z</time>
      </trkpt>
      <trkpt lat="47.58695" lon="2.215802">
        <ele>176</ele>
        <time>2022-05-12T07:34:47Z</time>
      </trkpt>
      <trkpt lat="47.586956" lon="2.2158117">
        <ele>176</ele>
        <time>2022-05-12T07:34:48Z</time>
      </trkpt>
      <trkpt lat="47.586967" lon="2.2158191">
        <ele>176</ele>
        <time>2022-05-12T07:34:49Z</time>
      </trkpt>
      <trkpt lat="47.586975" lon="2.2158291">
        <ele>176</ele>
        <time>2022-05-12T07:34:50Z</time>
      </trkpt>
      <trkpt lat="47.586987" lon="2.2158422">
        <ele>176</ele>
        <time>2022-05-12T07:34:51Z</time>
      </trkpt>
      <trkpt lat="47.586994" lon="2.2158527">
        <ele>175</ele>
        <time>2022-05-12T07:34:52Z</time>
      </trkpt>
      <trkpt lat="47.587006" lon="2.2158632">
        <ele>176</ele>
        <time>2022-05-12T07:34:53Z</time>
      </trkpt>
      <trkpt lat="47.587013" lon="2.2158775">
        <ele>176</ele>
        <time>2022-05-12T07:34:54Z</time>
      </trkpt>
      <trkpt lat="47.587025" lon="2.2158875">
        <ele>176</ele>
        <time>2022-05-12T07:34:55Z</time>
      </trkpt>
      <trkpt lat="47.58704" lon="2.215902">
        <ele>176</ele>
        <time>2022-05-12T07:34:56Z</time>
      </trkpt>
      <trkpt lat="47.58705" lon="2.215914">
        <ele>177</ele>
        <time>2022-05-12T07:34:57Z</time>
      </trkpt>
      <trkpt lat="47.587067" lon="2.2159293">
        <ele>177</ele>
        <time>2022-05-12T07:34:58Z</time>
      </trkpt>
      <trkpt lat="47.58708" lon="2.2159352">
        <ele>177</ele>
        <time>2022-05-12T07:34:59Z</time>
      </trkpt>
      <trkpt lat="47.587086" lon="2.2159417">
        <ele>177</ele>
        <time>2022-05-12T07:35:00Z</time>
      </trkpt>
      <trkpt lat="47.587097" lon="2.2159483">
        <ele>177</ele>
        <time>2022-05-12T07:35:01Z</time>
      </trkpt>
      <trkpt lat="47.58711" lon="2.2159586">
        <ele>176</ele>
        <time>2022-05-12T07:35:02Z</time>
      </trkpt>
      <trkpt lat="47.587116" lon="2.21597">
        <ele>177</ele>
        <time>2022-05-12T07:35:03Z</time>
      </trkpt>
      <trkpt lat="47.587124" lon="2.2159762">
        <ele>176</ele>
        <time>2022-05-12T07:35:04Z</time>
      </trkpt>
      <trkpt lat="47.58713" lon="2.2159822">
        <ele>176</ele>
        <time>2022-05-12T07:35:05Z</time>
      </trkpt>
      <trkpt lat="47.587143" lon="2.2159889">
        <ele>176</ele>
        <time>2022-05-12T07:35:06Z</time>
      </trkpt>
      <trkpt lat="47.587154" lon="2.2159972">
        <ele>176</ele>
        <time>2022-05-12T07:35:07Z</time>
      </trkpt>
      <trkpt lat="47.587162" lon="2.2160056">
        <ele>176</ele>
        <time>2022-05-12T07:35:08Z</time>
      </trkpt>
      <trkpt lat="47.587173" lon="2.2160149">
        <ele>176</ele>
        <time>2022-05-12T07:35:09Z</time>
      </trkpt>
      <trkpt lat="47.58719" lon="2.2160246">
        <ele>176</ele>
        <time>2022-05-12T07:35:10Z</time>
      </trkpt>
      <trkpt lat="47.5872" lon="2.216032">
        <ele>176</ele>
        <time>2022-05-12T07:35:11Z</time>
      </trkpt>
      <trkpt lat="47.58721" lon="2.216039">
        <ele>176</ele>
        <time>2022-05-12T07:35:12Z</time>
      </trkpt>
      <trkpt lat="47.58722" lon="2.2160466">
        <ele>176</ele>
        <time>2022-05-12T07:35:13Z</time>
      </trkpt>
      <trkpt lat="47.58723" lon="2.2160606">
        <ele>176</ele>
        <time>2022-05-12T07:35:14Z</time>
      </trkpt>
      <trkpt lat="47.58724" lon="2.2160773">
        <ele>176</ele>
        <time>2022-05-12T07:35:15Z</time>
      </trkpt>
      <trkpt lat="47.587246" lon="2.2160938">
        <ele>176</ele>
        <time>2022-05-12T07:35:16Z</time>
      </trkpt>
      <trkpt lat="47.587254" lon="2.216105">
        <ele>176</ele>
        <time>2022-05-12T07:35:17Z</time>
      </trkpt>
      <trkpt lat="47.58726" lon="2.216116">
        <ele>177</ele>
        <time>2022-05-12T07:35:18Z</time>
      </trkpt>
      <trkpt lat="47.58727" lon="2.2161257">
        <ele>177</ele>
        <time>2022-05-12T07:35:19Z</time>
      </trkpt>
      <trkpt lat="47.587284" lon="2.216135">
        <ele>177</ele>
        <time>2022-05-12T07:35:20Z</time>
      </trkpt>
      <trkpt lat="47.58729" lon="2.2161427">
        <ele>177</ele>
        <time>2022-05-12T07:35:21Z</time>
      </trkpt>
      <trkpt lat="47.5873" lon="2.2161481">
        <ele>177</ele>
        <time>2022-05-12T07:35:22Z</time>
      </trkpt>
      <trkpt lat="47.58731" lon="2.2161562">
        <ele>177</ele>
        <time>2022-05-12T07:35:23Z</time>
      </trkpt>
      <trkpt lat="47.587326" lon="2.2161646">
        <ele>177</ele>
        <time>2022-05-12T07:35:24Z</time>
      </trkpt>
      <trkpt lat="47.587337" lon="2.2161722">
        <ele>177</ele>
        <time>2022-05-12T07:35:25Z</time>
      </trkpt>
      <trkpt lat="47.58735" lon="2.216186">
        <ele>177</ele>
        <time>2022-05-12T07:35:26Z</time>
      </trkpt>
      <trkpt lat="47.58736" lon="2.2161982">
        <ele>177</ele>
        <time>2022-05-12T07:35:27Z</time>
      </trkpt>
      <trkpt lat="47.587368" lon="2.216208">
        <ele>177</ele>
        <time>2022-05-12T07:35:28Z</time>
      </trkpt>
      <trkpt lat="47.587376" lon="2.2162187">
        <ele>177</ele>
        <time>2022-05-12T07:35:29Z</time>
      </trkpt>
      <trkpt lat="47.58739" lon="2.216226">
        <ele>177</ele>
        <time>2022-05-12T07:35:30Z</time>
      </trkpt>
      <trkpt lat="47.587402" lon="2.216229">
        <ele>177</ele>
        <time>2022-05-12T07:35:31Z</time>
      </trkpt>
      <trkpt lat="47.58741" lon="2.2162383">
        <ele>178</ele>
        <time>2022-05-12T07:35:32Z</time>
      </trkpt>
      <trkpt lat="47.58742" lon="2.2162464">
        <ele>178</ele>
        <time>2022-05-12T07:35:33Z</time>
      </trkpt>
      <trkpt lat="47.58743" lon="2.2162542">
        <ele>177</ele>
        <time>2022-05-12T07:35:34Z</time>
      </trkpt>
      <trkpt lat="47.587437" lon="2.2162662">
        <ele>177</ele>
        <time>2022-05-12T07:35:35Z</time>
      </trkpt>
      <trkpt lat="47.587444" lon="2.216274">
        <ele>177</ele>
        <time>2022-05-12T07:35:36Z</time>
      </trkpt>
      <trkpt lat="47.587452" lon="2.2162821">
        <ele>177</ele>
        <time>2022-05-12T07:35:37Z</time>
      </trkpt>
      <trkpt lat="47.587463" lon="2.216289">
        <ele>177</ele>
        <time>2022-05-12T07:35:38Z</time>
      </trkpt>
      <trkpt lat="47.587475" lon="2.216296">
        <ele>177</ele>
        <time>2022-05-12T07:35:39Z</time>
      </trkpt>
      <trkpt lat="47.587486" lon="2.2163036">
        <ele>178</ele>
        <time>2022-05-12T07:35:40Z</time>
      </trkpt>
      <trkpt lat="47.587494" lon="2.2163174">
        <ele>178</ele>
        <time>2022-05-12T07:35:41Z</time>
      </trkpt>
      <trkpt lat="47.587498" lon="2.216329">
        <ele>178</ele>
        <time>2022-05-12T07:35:42Z</time>
      </trkpt>
      <trkpt lat="47.58751" lon="2.2163389">
        <ele>178</ele>
        <time>2022-05-12T07:35:43Z</time>
      </trkpt>
      <trkpt lat="47.58752" lon="2.2163472">
        <ele>178</ele>
        <time>2022-05-12T07:35:44Z</time>
      </trkpt>
      <trkpt lat="47.587532" lon="2.2163548">
        <ele>178</ele>
        <time>2022-05-12T07:35:45Z</time>
      </trkpt>
      <trkpt lat="47.587536" lon="2.2163653">
        <ele>178</ele>
        <time>2022-05-12T07:35:46Z</time>
      </trkpt>
      <trkpt lat="47.587547" lon="2.2163723">
        <ele>177</ele>
        <time>2022-05-12T07:35:47Z</time>
      </trkpt>
      <trkpt lat="47.587555" lon="2.2163835">
        <ele>177</ele>
        <time>2022-05-12T07:35:48Z</time>
      </trkpt>
      <trkpt lat="47.58757" lon="2.2163944">
        <ele>177</ele>
        <time>2022-05-12T07:35:49Z</time>
      </trkpt>
      <trkpt lat="47.587585" lon="2.2164063">
        <ele>176</ele>
        <time>2022-05-12T07:35:50Z</time>
      </trkpt>
      <trkpt lat="47.5876" lon="2.216418">
        <ele>177</ele>
        <time>2022-05-12T07:35:51Z</time>
      </trkpt>
      <trkpt lat="47.587612" lon="2.2164292">
        <ele>177</ele>
        <time>2022-05-12T07:35:52Z</time>
      </trkpt>
      <trkpt lat="47.587627" lon="2.216436">
        <ele>176</ele>
        <time>2022-05-12T07:35:53Z</time>
      </trkpt>
      <trkpt lat="47.587635" lon="2.216445">
        <ele>176</ele>
        <time>2022-05-12T07:35:54Z</time>
      </trkpt>
      <trkpt lat="47.587646" lon="2.216452">
        <ele>176</ele>
        <time>2022-05-12T07:35:55Z</time>
      </trkpt>
      <trkpt lat="47.587658" lon="2.2164617">
        <ele>175</ele>
        <time>2022-05-12T07:35:56Z</time>
      </trkpt>
      <trkpt lat="47.587666" lon="2.2164712">
        <ele>175</ele>
        <time>2022-05-12T07:35:57Z</time>
      </trkpt>
      <trkpt lat="47.587677" lon="2.216481">
        <ele>175</ele>
        <time>2022-05-12T07:35:58Z</time>
      </trkpt>
      <trkpt lat="47.587685" lon="2.2164872">
        <ele>176</ele>
        <time>2022-05-12T07:35:59Z</time>
      </trkpt>
      <trkpt lat="47.587692" lon="2.2164965">
        <ele>176</ele>
        <time>2022-05-12T07:36:00Z</time>
      </trkpt>
      <trkpt lat="47.587708" lon="2.216503">
        <ele>176</ele>
        <time>2022-05-12T07:36:01Z</time>
      </trkpt>
      <trkpt lat="47.58772" lon="2.216515">
        <ele>176</ele>
        <time>2022-05-12T07:36:02Z</time>
      </trkpt>
      <trkpt lat="47.587727" lon="2.2165232">
        <ele>175</ele>
        <time>2022-05-12T07:36:03Z</time>
      </trkpt>
      <trkpt lat="47.587738" lon="2.2165334">
        <ele>175</ele>
        <time>2022-05-12T07:36:04Z</time>
      </trkpt>
      <trkpt lat="47.58775" lon="2.2165408">
        <ele>176</ele>
        <time>2022-05-12T07:36:05Z</time>
      </trkpt>
      <trkpt lat="47.58776" lon="2.2165475">
        <ele>175</ele>
        <time>2022-05-12T07:36:06Z</time>
      </trkpt>
      <trkpt lat="47.587772" lon="2.216554">
        <ele>175</ele>
        <time>2022-05-12T07:36:07Z</time>
      </trkpt>
      <trkpt lat="47.587784" lon="2.216563">
        <ele>175</ele>
        <time>2022-05-12T07:36:08Z</time>
      </trkpt>
      <trkpt lat="47.587795" lon="2.2165775">
        <ele>174</ele>
        <time>2022-05-12T07:36:09Z</time>
      </trkpt>
      <trkpt lat="47.587807" lon="2.216586">
        <ele>174</ele>
        <time>2022-05-12T07:36:10Z</time>
      </trkpt>
      <trkpt lat="47.587814" lon="2.2165947">
        <ele>173</ele>
        <time>2022-05-12T07:36:11Z</time>
      </trkpt>
      <trkpt lat="47.587822" lon="2.2166004">
        <ele>173</ele>
        <time>2022-05-12T07:36:12Z</time>
      </trkpt>
      <trkpt lat="47.587833" lon="2.21661">
        <ele>172</ele>
        <time>2022-05-12T07:36:13Z</time>
      </trkpt>
      <trkpt lat="47.587845" lon="2.2166176">
        <ele>172</ele>
        <time>2022-05-12T07:36:14Z</time>
      </trkpt>
      <trkpt lat="47.587856" lon="2.2166243">
        <ele>172</ele>
        <time>2022-05-12T07:36:15Z</time>
      </trkpt>
      <trkpt lat="47.58787" lon="2.2166288">
        <ele>173</ele>
        <time>2022-05-12T07:36:16Z</time>
      </trkpt>
      <trkpt lat="47.587883" lon="2.2166357">
        <ele>173</ele>
        <time>2022-05-12T07:36:17Z</time>
      </trkpt>
      <trkpt lat="47.58789" lon="2.2166436">
        <ele>173</ele>
        <time>2022-05-12T07:36:18Z</time>
      </trkpt>
      <trkpt lat="47.5879" lon="2.2166522">
        <ele>173</ele>
        <time>2022-05-12T07:36:19Z</time>
      </trkpt>
      <trkpt lat="47.587906" lon="2.2166607">
        <ele>173</ele>
        <time>2022-05-12T07:36:20Z</time>
      </trkpt>
      <trkpt lat="47.587906" lon="2.2166662">
        <ele>173</ele>
        <time>2022-05-12T07:36:21Z</time>
      </trkpt>
      <trkpt lat="47.587914" lon="2.2166743">
        <ele>173</ele>
        <time>2022-05-12T07:36:22Z</time>
      </trkpt>
      <trkpt lat="47.58792" lon="2.2166846">
        <ele>174</ele>
        <time>2022-05-12T07:36:23Z</time>
      </trkpt>
      <trkpt lat="47.58793" lon="2.2166913">
        <ele>174</ele>
        <time>2022-05-12T07:36:24Z</time>
      </trkpt>
      <trkpt lat="47.587936" lon="2.216699">
        <ele>174</ele>
        <time>2022-05-12T07:36:25Z</time>
      </trkpt>
      <trkpt lat="47.587948" lon="2.2167072">
        <ele>175</ele>
        <time>2022-05-12T07:36:26Z</time>
      </trkpt>
      <trkpt lat="47.587955" lon="2.2167137">
        <ele>175</ele>
        <time>2022-05-12T07:36:27Z</time>
      </trkpt>
      <trkpt lat="47.587963" lon="2.2167244">
        <ele>175</ele>
        <time>2022-05-12T07:36:28Z</time>
      </trkpt>
      <trkpt lat="47.587975" lon="2.2167337">
        <ele>175</ele>
        <time>2022-05-12T07:36:29Z</time>
      </trkpt>
      <trkpt lat="47.587986" lon="2.2167418">
        <ele>175</ele>
        <time>2022-05-12T07:36:30Z</time>
      </trkpt>
      <trkpt lat="47.587994" lon="2.2167532">
        <ele>175</ele>
        <time>2022-05-12T07:36:31Z</time>
      </trkpt>
      <trkpt lat="47.588" lon="2.216759">
        <ele>176</ele>
        <time>2022-05-12T07:36:32Z</time>
      </trkpt>
      <trkpt lat="47.58801" lon="2.2167647">
        <ele>176</ele>
        <time>2022-05-12T07:36:33Z</time>
      </trkpt>
      <trkpt lat="47.588017" lon="2.2167702">
        <ele>176</ele>
        <time>2022-05-12T07:36:34Z</time>
      </trkpt>
      <trkpt lat="47.588028" lon="2.2167773">
        <ele>176</ele>
        <time>2022-05-12T07:36:35Z</time>
      </trkpt>
      <trkpt lat="47.58804" lon="2.2167828">
        <ele>176</ele>
        <time>2022-05-12T07:36:36Z</time>
      </trkpt>
      <trkpt lat="47.588047" lon="2.2167902">
        <ele>176</ele>
        <time>2022-05-12T07:36:37Z</time>
      </trkpt>
      <trkpt lat="47.58806" lon="2.2168007">
        <ele>176</ele>
        <time>2022-05-12T07:36:38Z</time>
      </trkpt>
      <trkpt lat="47.588074" lon="2.2168114">
        <ele>176</ele>
        <time>2022-05-12T07:36:39Z</time>
      </trkpt>
      <trkpt lat="47.58808" lon="2.2168179">
        <ele>176</ele>
        <time>2022-05-12T07:36:40Z</time>
      </trkpt>
      <trkpt lat="47.588093" lon="2.2168221">
        <ele>176</ele>
        <time>2022-05-12T07:36:41Z</time>
      </trkpt>
      <trkpt lat="47.5881" lon="2.2168276">
        <ele>176</ele>
        <time>2022-05-12T07:36:42Z</time>
      </trkpt>
      <trkpt lat="47.588108" lon="2.2168345">
        <ele>176</ele>
        <time>2022-05-12T07:36:43Z</time>
      </trkpt>
      <trkpt lat="47.58812" lon="2.2168393">
        <ele>177</ele>
        <time>2022-05-12T07:36:44Z</time>
      </trkpt>
      <trkpt lat="47.588127" lon="2.2168465">
        <ele>177</ele>
        <time>2022-05-12T07:36:45Z</time>
      </trkpt>
      <trkpt lat="47.58813" lon="2.2168531">
        <ele>177</ele>
        <time>2022-05-12T07:36:46Z</time>
      </trkpt>
      <trkpt lat="47.58814" lon="2.2168577">
        <ele>177</ele>
        <time>2022-05-12T07:36:47Z</time>
      </trkpt>
      <trkpt lat="47.58815" lon="2.2168636">
        <ele>177</ele>
        <time>2022-05-12T07:36:48Z</time>
      </trkpt>
      <trkpt lat="47.588158" lon="2.2168708">
        <ele>178</ele>
        <time>2022-05-12T07:36:49Z</time>
      </trkpt>
      <trkpt lat="47.588165" lon="2.216878">
        <ele>178</ele>
        <time>2022-05-12T07:36:50Z</time>
      </trkpt>
      <trkpt lat="47.588177" lon="2.2168887">
        <ele>178</ele>
        <time>2022-05-12T07:36:51Z</time>
      </trkpt>
      <trkpt lat="47.58818" lon="2.2168999">
        <ele>177</ele>
        <time>2022-05-12T07:36:52Z</time>
      </trkpt>
      <trkpt lat="47.58819" lon="2.2169137">
        <ele>177</ele>
        <time>2022-05-12T07:36:53Z</time>
      </trkpt>
      <trkpt lat="47.5882" lon="2.2169287">
        <ele>177</ele>
        <time>2022-05-12T07:36:54Z</time>
      </trkpt>
      <trkpt lat="47.58821" lon="2.2169404">
        <ele>177</ele>
        <time>2022-05-12T07:36:55Z</time>
      </trkpt>
      <trkpt lat="47.58822" lon="2.2169495">
        <ele>177</ele>
        <time>2022-05-12T07:36:56Z</time>
      </trkpt>
      <trkpt lat="47.588234" lon="2.2169602">
        <ele>178</ele>
        <time>2022-05-12T07:36:57Z</time>
      </trkpt>
      <trkpt lat="47.588245" lon="2.2169688">
        <ele>177</ele>
        <time>2022-05-12T07:36:58Z</time>
      </trkpt>
      <trkpt lat="47.588253" lon="2.216977">
        <ele>177</ele>
        <time>2022-05-12T07:36:59Z</time>
      </trkpt>
      <trkpt lat="47.58826" lon="2.2169857">
        <ele>177</ele>
        <time>2022-05-12T07:37:00Z</time>
      </trkpt>
      <trkpt lat="47.588276" lon="2.2169998">
        <ele>177</ele>
        <time>2022-05-12T07:37:01Z</time>
      </trkpt>
      <trkpt lat="47.588284" lon="2.217013">
        <ele>178</ele>
        <time>2022-05-12T07:37:02Z</time>
      </trkpt>
      <trkpt lat="47.588295" lon="2.2170262">
        <ele>178</ele>
        <time>2022-05-12T07:37:03Z</time>
      </trkpt>
      <trkpt lat="47.588306" lon="2.2170336">
        <ele>178</ele>
        <time>2022-05-12T07:37:04Z</time>
      </trkpt>
      <trkpt lat="47.588314" lon="2.2170432">
        <ele>179</ele>
        <time>2022-05-12T07:37:05Z</time>
      </trkpt>
      <trkpt lat="47.588326" lon="2.2170525">
        <ele>179</ele>
        <time>2022-05-12T07:37:06Z</time>
      </trkpt>
      <trkpt lat="47.588333" lon="2.2170625">
        <ele>179</ele>
        <time>2022-05-12T07:37:07Z</time>
      </trkpt>
      <trkpt lat="47.588337" lon="2.217072">
        <ele>179</ele>
        <time>2022-05-12T07:37:08Z</time>
      </trkpt>
      <trkpt lat="47.58834" lon="2.2170806">
        <ele>179</ele>
        <time>2022-05-12T07:37:09Z</time>
      </trkpt>
      <trkpt lat="47.588345" lon="2.217089">
        <ele>179</ele>
        <time>2022-05-12T07:37:10Z</time>
      </trkpt>
      <trkpt lat="47.588345" lon="2.217089">
        <ele>179</ele>
        <time>2022-05-12T07:37:11Z</time>
      </trkpt>
      <trkpt lat="47.588345" lon="2.217089">
        <ele>179</ele>
        <time>2022-05-12T07:37:12Z</time>
      </trkpt>
      <trkpt lat="47.588356" lon="2.2171004">
        <ele>179</ele>
        <time>2022-05-12T07:37:13Z</time>
      </trkpt>
      <trkpt lat="47.588364" lon="2.2171037">
        <ele>179</ele>
        <time>2022-05-12T07:37:14Z</time>
      </trkpt>
      <trkpt lat="47.588375" lon="2.2171078">
        <ele>179</ele>
        <time>2022-05-12T07:37:15Z</time>
      </trkpt>
      <trkpt lat="47.588387" lon="2.2171135">
        <ele>178</ele>
        <time>2022-05-12T07:37:16Z</time>
      </trkpt>
      <trkpt lat="47.588394" lon="2.217123">
        <ele>178</ele>
        <time>2022-05-12T07:37:17Z</time>
      </trkpt>
      <trkpt lat="47.588406" lon="2.2171323">
        <ele>178</ele>
        <time>2022-05-12T07:37:18Z</time>
      </trkpt>
      <trkpt lat="47.588413" lon="2.2171369">
        <ele>178</ele>
        <time>2022-05-12T07:37:19Z</time>
      </trkpt>
      <trkpt lat="47.588425" lon="2.2171419">
        <ele>178</ele>
        <time>2022-05-12T07:37:20Z</time>
      </trkpt>
      <trkpt lat="47.588425" lon="2.2171419">
        <ele>178</ele>
        <time>2022-05-12T07:37:21Z</time>
      </trkpt>
      <trkpt lat="47.588444" lon="2.2171566">
        <ele>178</ele>
        <time>2022-05-12T07:37:22Z</time>
      </trkpt>
      <trkpt lat="47.588463" lon="2.217168">
        <ele>178</ele>
        <time>2022-05-12T07:37:23Z</time>
      </trkpt>
      <trkpt lat="47.588478" lon="2.2171779">
        <ele>177</ele>
        <time>2022-05-12T07:37:24Z</time>
      </trkpt>
      <trkpt lat="47.58849" lon="2.217188">
        <ele>177</ele>
        <time>2022-05-12T07:37:25Z</time>
      </trkpt>
      <trkpt lat="47.5885" lon="2.217199">
        <ele>177</ele>
        <time>2022-05-12T07:37:26Z</time>
      </trkpt>
      <trkpt lat="47.588512" lon="2.2172024">
        <ele>177</ele>
        <time>2022-05-12T07:37:27Z</time>
      </trkpt>
      <trkpt lat="47.588528" lon="2.2172048">
        <ele>177</ele>
        <time>2022-05-12T07:37:28Z</time>
      </trkpt>
      <trkpt lat="47.588543" lon="2.2172132">
        <ele>177</ele>
        <time>2022-05-12T07:37:29Z</time>
      </trkpt>
      <trkpt lat="47.58855" lon="2.2172234">
        <ele>176</ele>
        <time>2022-05-12T07:37:30Z</time>
      </trkpt>
      <trkpt lat="47.588562" lon="2.2172358">
        <ele>176</ele>
        <time>2022-05-12T07:37:31Z</time>
      </trkpt>
      <trkpt lat="47.588573" lon="2.2172425">
        <ele>177</ele>
        <time>2022-05-12T07:37:32Z</time>
      </trkpt>
      <trkpt lat="47.588585" lon="2.217254">
        <ele>177</ele>
        <time>2022-05-12T07:37:33Z</time>
      </trkpt>
      <trkpt lat="47.588604" lon="2.2172642">
        <ele>177</ele>
        <time>2022-05-12T07:37:34Z</time>
      </trkpt>
      <trkpt lat="47.58862" lon="2.2172737">
        <ele>177</ele>
        <time>2022-05-12T07:37:35Z</time>
      </trkpt>
      <trkpt lat="47.58863" lon="2.2172859">
        <ele>176</ele>
        <time>2022-05-12T07:37:36Z</time>
      </trkpt>
      <trkpt lat="47.588646" lon="2.2173026">
        <ele>176</ele>
        <time>2022-05-12T07:37:37Z</time>
      </trkpt>
      <trkpt lat="47.588657" lon="2.2173154">
        <ele>177</ele>
        <time>2022-05-12T07:37:38Z</time>
      </trkpt>
      <trkpt lat="47.58867" lon="2.217325">
        <ele>177</ele>
        <time>2022-05-12T07:37:39Z</time>
      </trkpt>
      <trkpt lat="47.58868" lon="2.2173328">
        <ele>176</ele>
        <time>2022-05-12T07:37:40Z</time>
      </trkpt>
      <trkpt lat="47.588688" lon="2.2173429">
        <ele>176</ele>
        <time>2022-05-12T07:37:41Z</time>
      </trkpt>
      <trkpt lat="47.588696" lon="2.2173543">
        <ele>176</ele>
        <time>2022-05-12T07:37:42Z</time>
      </trkpt>
      <trkpt lat="47.588707" lon="2.2173655">
        <ele>176</ele>
        <time>2022-05-12T07:37:43Z</time>
      </trkpt>
      <trkpt lat="47.588715" lon="2.2173765">
        <ele>176</ele>
        <time>2022-05-12T07:37:44Z</time>
      </trkpt>
      <trkpt lat="47.588715" lon="2.2173765">
        <ele>176</ele>
        <time>2022-05-12T07:37:45Z</time>
      </trkpt>
      <trkpt lat="47.588715" lon="2.2173765">
        <ele>176</ele>
        <time>2022-05-12T07:37:46Z</time>
      </trkpt>
      <trkpt lat="47.58874" lon="2.2174044">
        <ele>176</ele>
        <time>2022-05-12T07:37:47Z</time>
      </trkpt>
      <trkpt lat="47.58875" lon="2.2174146">
        <ele>177</ele>
        <time>2022-05-12T07:37:48Z</time>
      </trkpt>
      <trkpt lat="47.58876" lon="2.217424">
        <ele>177</ele>
        <time>2022-05-12T07:37:49Z</time>
      </trkpt>
      <trkpt lat="47.588768" lon="2.217433">
        <ele>177</ele>
        <time>2022-05-12T07:37:50Z</time>
      </trkpt>
      <trkpt lat="47.58878" lon="2.2174373">
        <ele>177</ele>
        <time>2022-05-12T07:37:51Z</time>
      </trkpt>
      <trkpt lat="47.58879" lon="2.217444">
        <ele>177</ele>
        <time>2022-05-12T07:37:52Z</time>
      </trkpt>
      <trkpt lat="47.588806" lon="2.217455">
        <ele>177</ele>
        <time>2022-05-12T07:37:53Z</time>
      </trkpt>
      <trkpt lat="47.588814" lon="2.2174644">
        <ele>178</ele>
        <time>2022-05-12T07:37:54Z</time>
      </trkpt>
      <trkpt lat="47.588825" lon="2.217472">
        <ele>178</ele>
        <time>2022-05-12T07:37:55Z</time>
      </trkpt>
      <trkpt lat="47.58884" lon="2.217477">
        <ele>178</ele>
        <time>2022-05-12T07:37:56Z</time>
      </trkpt>
      <trkpt lat="47.588852" lon="2.2174857">
        <ele>177</ele>
        <time>2022-05-12T07:37:57Z</time>
      </trkpt>
      <trkpt lat="47.588863" lon="2.2174919">
        <ele>177</ele>
        <time>2022-05-12T07:37:58Z</time>
      </trkpt>
      <trkpt lat="47.588875" lon="2.2174952">
        <ele>178</ele>
        <time>2022-05-12T07:37:59Z</time>
      </trkpt>
      <trkpt lat="47.58889" lon="2.2175028">
        <ele>177</ele>
        <time>2022-05-12T07:38:00Z</time>
      </trkpt>
      <trkpt lat="47.5889" lon="2.2175124">
        <ele>177</ele>
        <time>2022-05-12T07:38:01Z</time>
      </trkpt>
      <trkpt lat="47.588917" lon="2.2175186">
        <ele>176</ele>
        <time>2022-05-12T07:38:02Z</time>
      </trkpt>
      <trkpt lat="47.58893" lon="2.217525">
        <ele>175</ele>
        <time>2022-05-12T07:38:03Z</time>
      </trkpt>
      <trkpt lat="47.58894" lon="2.217524">
        <ele>174</ele>
        <time>2022-05-12T07:38:04Z</time>
      </trkpt>
      <trkpt lat="47.588955" lon="2.2175305">
        <ele>174</ele>
        <time>2022-05-12T07:38:05Z</time>
      </trkpt>
      <trkpt lat="47.588966" lon="2.2175367">
        <ele>174</ele>
        <time>2022-05-12T07:38:06Z</time>
      </trkpt>
      <trkpt lat="47.58898" lon="2.2175424">
        <ele>174</ele>
        <time>2022-05-12T07:38:07Z</time>
      </trkpt>
      <trkpt lat="47.588997" lon="2.2175512">
        <ele>173</ele>
        <time>2022-05-12T07:38:08Z</time>
      </trkpt>
      <trkpt lat="47.589005" lon="2.2175634">
        <ele>173</ele>
        <time>2022-05-12T07:38:09Z</time>
      </trkpt>
      <trkpt lat="47.589016" lon="2.2175734">
        <ele>173</ele>
        <time>2022-05-12T07:38:10Z</time>
      </trkpt>
      <trkpt lat="47.589027" lon="2.2175841">
        <ele>172</ele>
        <time>2022-05-12T07:38:11Z</time>
      </trkpt>
      <trkpt lat="47.589043" lon="2.21759">
        <ele>172</ele>
        <time>2022-05-12T07:38:12Z</time>
      </trkpt>
      <trkpt lat="47.589054" lon="2.217597">
        <ele>172</ele>
        <time>2022-05-12T07:38:13Z</time>
      </trkpt>
      <trkpt lat="47.58906" lon="2.2176082">
        <ele>172</ele>
        <time>2022-05-12T07:38:14Z</time>
      </trkpt>
      <trkpt lat="47.589073" lon="2.2176178">
        <ele>172</ele>
        <time>2022-05-12T07:38:15Z</time>
      </trkpt>
      <trkpt lat="47.589085" lon="2.2176292">
        <ele>172</ele>
        <time>2022-05-12T07:38:16Z</time>
      </trkpt>
      <trkpt lat="47.589096" lon="2.2176373">
        <ele>172</ele>
        <time>2022-05-12T07:38:17Z</time>
      </trkpt>
      <trkpt lat="47.589108" lon="2.2176406">
        <ele>172</ele>
        <time>2022-05-12T07:38:18Z</time>
      </trkpt>
      <trkpt lat="47.58912" lon="2.2176442">
        <ele>172</ele>
        <time>2022-05-12T07:38:19Z</time>
      </trkpt>
      <trkpt lat="47.58913" lon="2.2176516">
        <ele>171</ele>
        <time>2022-05-12T07:38:20Z</time>
      </trkpt>
      <trkpt lat="47.58914" lon="2.217656">
        <ele>171</ele>
        <time>2022-05-12T07:38:21Z</time>
      </trkpt>
      <trkpt lat="47.589153" lon="2.2176626">
        <ele>171</ele>
        <time>2022-05-12T07:38:22Z</time>
      </trkpt>
      <trkpt lat="47.589165" lon="2.21767">
        <ele>170</ele>
        <time>2022-05-12T07:38:23Z</time>
      </trkpt>
      <trkpt lat="47.589176" lon="2.2176769">
        <ele>170</ele>
        <time>2022-05-12T07:38:24Z</time>
      </trkpt>
      <trkpt lat="47.589188" lon="2.2176862">
        <ele>171</ele>
        <time>2022-05-12T07:38:25Z</time>
      </trkpt>
      <trkpt lat="47.5892" lon="2.217696">
        <ele>171</ele>
        <time>2022-05-12T07:38:26Z</time>
      </trkpt>
      <trkpt lat="47.58921" lon="2.2177105">
        <ele>171</ele>
        <time>2022-05-12T07:38:27Z</time>
      </trkpt>
      <trkpt lat="47.589222" lon="2.2177231">
        <ele>171</ele>
        <time>2022-05-12T07:38:28Z</time>
      </trkpt>
      <trkpt lat="47.589233" lon="2.2177367">
        <ele>171</ele>
        <time>2022-05-12T07:38:29Z</time>
      </trkpt>
      <trkpt lat="47.58925" lon="2.2177482">
        <ele>171</ele>
        <time>2022-05-12T07:38:30Z</time>
      </trkpt>
      <trkpt lat="47.589256" lon="2.2177572">
        <ele>171</ele>
        <time>2022-05-12T07:38:31Z</time>
      </trkpt>
      <trkpt lat="47.589268" lon="2.2177684">
        <ele>171</ele>
        <time>2022-05-12T07:38:32Z</time>
      </trkpt>
      <trkpt lat="47.58928" lon="2.2177792">
        <ele>171</ele>
        <time>2022-05-12T07:38:33Z</time>
      </trkpt>
      <trkpt lat="47.589287" lon="2.2177935">
        <ele>171</ele>
        <time>2022-05-12T07:38:34Z</time>
      </trkpt>
      <trkpt lat="47.5893" lon="2.2178028">
        <ele>171</ele>
        <time>2022-05-12T07:38:35Z</time>
      </trkpt>
      <trkpt lat="47.58931" lon="2.2178125">
        <ele>171</ele>
        <time>2022-05-12T07:38:36Z</time>
      </trkpt>
      <trkpt lat="47.58932" lon="2.2178237">
        <ele>172</ele>
        <time>2022-05-12T07:38:37Z</time>
      </trkpt>
      <trkpt lat="47.58933" lon="2.2178338">
        <ele>172</ele>
        <time>2022-05-12T07:38:38Z</time>
      </trkpt>
      <trkpt lat="47.58934" lon="2.2178447">
        <ele>172</ele>
        <time>2022-05-12T07:38:39Z</time>
      </trkpt>
      <trkpt lat="47.589348" lon="2.217848">
        <ele>172</ele>
        <time>2022-05-12T07:38:40Z</time>
      </trkpt>
      <trkpt lat="47.589355" lon="2.2178543">
        <ele>172</ele>
        <time>2022-05-12T07:38:41Z</time>
      </trkpt>
      <trkpt lat="47.589367" lon="2.2178643">
        <ele>172</ele>
        <time>2022-05-12T07:38:42Z</time>
      </trkpt>
      <trkpt lat="47.58938" lon="2.2178745">
        <ele>172</ele>
        <time>2022-05-12T07:38:43Z</time>
      </trkpt>
      <trkpt lat="47.589386" lon="2.217886">
        <ele>171</ele>
        <time>2022-05-12T07:38:44Z</time>
      </trkpt>
      <trkpt lat="47.589394" lon="2.2178953">
        <ele>171</ele>
        <time>2022-05-12T07:38:45Z</time>
      </trkpt>
      <trkpt lat="47.589405" lon="2.2179034">
        <ele>171</ele>
        <time>2022-05-12T07:38:46Z</time>
      </trkpt>
      <trkpt lat="47.58942" lon="2.2179136">
        <ele>171</ele>
        <time>2022-05-12T07:38:47Z</time>
      </trkpt>
      <trkpt lat="47.58943" lon="2.2179255">
        <ele>171</ele>
        <time>2022-05-12T07:38:48Z</time>
      </trkpt>
      <trkpt lat="47.589443" lon="2.217941">
        <ele>172</ele>
        <time>2022-05-12T07:38:49Z</time>
      </trkpt>
      <trkpt lat="47.58945" lon="2.2179568">
        <ele>172</ele>
        <time>2022-05-12T07:38:50Z</time>
      </trkpt>
      <trkpt lat="47.589466" lon="2.21797">
        <ele>172</ele>
        <time>2022-05-12T07:38:51Z</time>
      </trkpt>
      <trkpt lat="47.589474" lon="2.2179813">
        <ele>172</ele>
        <time>2022-05-12T07:38:52Z</time>
      </trkpt>
      <trkpt lat="47.589485" lon="2.2179904">
        <ele>173</ele>
        <time>2022-05-12T07:38:53Z</time>
      </trkpt>
      <trkpt lat="47.589497" lon="2.217996">
        <ele>173</ele>
        <time>2022-05-12T07:38:54Z</time>
      </trkpt>
      <trkpt lat="47.589504" lon="2.2180057">
        <ele>174</ele>
        <time>2022-05-12T07:38:55Z</time>
      </trkpt>
      <trkpt lat="47.589516" lon="2.218014">
        <ele>174</ele>
        <time>2022-05-12T07:38:56Z</time>
      </trkpt>
      <trkpt lat="47.589523" lon="2.2180245">
        <ele>174</ele>
        <time>2022-05-12T07:38:57Z</time>
      </trkpt>
      <trkpt lat="47.589535" lon="2.218035">
        <ele>174</ele>
        <time>2022-05-12T07:38:58Z</time>
      </trkpt>
      <trkpt lat="47.589546" lon="2.2180443">
        <ele>174</ele>
        <time>2022-05-12T07:38:59Z</time>
      </trkpt>
      <trkpt lat="47.589558" lon="2.2180545">
        <ele>174</ele>
        <time>2022-05-12T07:39:00Z</time>
      </trkpt>
      <trkpt lat="47.589565" lon="2.2180657">
        <ele>174</ele>
        <time>2022-05-12T07:39:01Z</time>
      </trkpt>
      <trkpt lat="47.589573" lon="2.2180734">
        <ele>174</ele>
        <time>2022-05-12T07:39:02Z</time>
      </trkpt>
      <trkpt lat="47.58958" lon="2.2180798">
        <ele>174</ele>
        <time>2022-05-12T07:39:03Z</time>
      </trkpt>
      <trkpt lat="47.58959" lon="2.2180848">
        <ele>174</ele>
        <time>2022-05-12T07:39:04Z</time>
      </trkpt>
      <trkpt lat="47.589596" lon="2.218089">
        <ele>174</ele>
        <time>2022-05-12T07:39:05Z</time>
      </trkpt>
      <trkpt lat="47.589603" lon="2.2180934">
        <ele>174</ele>
        <time>2022-05-12T07:39:06Z</time>
      </trkpt>
      <trkpt lat="47.589615" lon="2.2180989">
        <ele>174</ele>
        <time>2022-05-12T07:39:07Z</time>
      </trkpt>
      <trkpt lat="47.589622" lon="2.2181017">
        <ele>174</ele>
        <time>2022-05-12T07:39:08Z</time>
      </trkpt>
      <trkpt lat="47.58963" lon="2.218106">
        <ele>174</ele>
        <time>2022-05-12T07:39:09Z</time>
      </trkpt>
      <trkpt lat="47.589638" lon="2.2181153">
        <ele>175</ele>
        <time>2022-05-12T07:39:10Z</time>
      </trkpt>
      <trkpt lat="47.58965" lon="2.218123">
        <ele>175</ele>
        <time>2022-05-12T07:39:11Z</time>
      </trkpt>
      <trkpt lat="47.58966" lon="2.2181313">
        <ele>175</ele>
        <time>2022-05-12T07:39:12Z</time>
      </trkpt>
      <trkpt lat="47.589672" lon="2.2181435">
        <ele>175</ele>
        <time>2022-05-12T07:39:13Z</time>
      </trkpt>
      <trkpt lat="47.58968" lon="2.218156">
        <ele>175</ele>
        <time>2022-05-12T07:39:14Z</time>
      </trkpt>
      <trkpt lat="47.58969" lon="2.2181692">
        <ele>176</ele>
        <time>2022-05-12T07:39:15Z</time>
      </trkpt>
      <trkpt lat="47.589703" lon="2.2181804">
        <ele>176</ele>
        <time>2022-05-12T07:39:16Z</time>
      </trkpt>
      <trkpt lat="47.58971" lon="2.2181876">
        <ele>176</ele>
        <time>2022-05-12T07:39:17Z</time>
      </trkpt>
      <trkpt lat="47.589718" lon="2.218191">
        <ele>177</ele>
        <time>2022-05-12T07:39:18Z</time>
      </trkpt>
      <trkpt lat="47.58973" lon="2.218193">
        <ele>177</ele>
        <time>2022-05-12T07:39:19Z</time>
      </trkpt>
      <trkpt lat="47.58974" lon="2.2182002">
        <ele>178</ele>
        <time>2022-05-12T07:39:20Z</time>
      </trkpt>
      <trkpt lat="47.589752" lon="2.2182064">
        <ele>178</ele>
        <time>2022-05-12T07:39:21Z</time>
      </trkpt>
      <trkpt lat="47.589764" lon="2.2182138">
        <ele>179</ele>
        <time>2022-05-12T07:39:22Z</time>
      </trkpt>
      <trkpt lat="47.589775" lon="2.2182214">
        <ele>179</ele>
        <time>2022-05-12T07:39:23Z</time>
      </trkpt>
      <trkpt lat="47.589783" lon="2.2182312">
        <ele>180</ele>
        <time>2022-05-12T07:39:24Z</time>
      </trkpt>
      <trkpt lat="47.589794" lon="2.218239">
        <ele>180</ele>
        <time>2022-05-12T07:39:25Z</time>
      </trkpt>
      <trkpt lat="47.589806" lon="2.2182407">
        <ele>180</ele>
        <time>2022-05-12T07:39:26Z</time>
      </trkpt>
      <trkpt lat="47.589817" lon="2.2182484">
        <ele>180</ele>
        <time>2022-05-12T07:39:27Z</time>
      </trkpt>
      <trkpt lat="47.58983" lon="2.2182562">
        <ele>180</ele>
        <time>2022-05-12T07:39:28Z</time>
      </trkpt>
      <trkpt lat="47.58984" lon="2.2182693">
        <ele>180</ele>
        <time>2022-05-12T07:39:29Z</time>
      </trkpt>
      <trkpt lat="47.589848" lon="2.2182727">
        <ele>180</ele>
        <time>2022-05-12T07:39:30Z</time>
      </trkpt>
      <trkpt lat="47.58986" lon="2.2182767">
        <ele>180</ele>
        <time>2022-05-12T07:39:31Z</time>
      </trkpt>
      <trkpt lat="47.58987" lon="2.2182825">
        <ele>180</ele>
        <time>2022-05-12T07:39:32Z</time>
      </trkpt>
      <trkpt lat="47.58988" lon="2.218289">
        <ele>181</ele>
        <time>2022-05-12T07:39:33Z</time>
      </trkpt>
      <trkpt lat="47.58989" lon="2.218295">
        <ele>181</ele>
        <time>2022-05-12T07:39:34Z</time>
      </trkpt>
      <trkpt lat="47.589897" lon="2.2183053">
        <ele>181</ele>
        <time>2022-05-12T07:39:35Z</time>
      </trkpt>
      <trkpt lat="47.58991" lon="2.2183166">
        <ele>181</ele>
        <time>2022-05-12T07:39:36Z</time>
      </trkpt>
      <trkpt lat="47.589916" lon="2.2183254">
        <ele>181</ele>
        <time>2022-05-12T07:39:37Z</time>
      </trkpt>
      <trkpt lat="47.589924" lon="2.2183356">
        <ele>181</ele>
        <time>2022-05-12T07:39:38Z</time>
      </trkpt>
      <trkpt lat="47.58993" lon="2.2183437">
        <ele>180</ele>
        <time>2022-05-12T07:39:39Z</time>
      </trkpt>
      <trkpt lat="47.589943" lon="2.2183528">
        <ele>180</ele>
        <time>2022-05-12T07:39:40Z</time>
      </trkpt>
      <trkpt lat="47.58995" lon="2.2183602">
        <ele>180</ele>
        <time>2022-05-12T07:39:41Z</time>
      </trkpt>
      <trkpt lat="47.589966" lon="2.2183664">
        <ele>180</ele>
        <time>2022-05-12T07:39:42Z</time>
      </trkpt>
      <trkpt lat="47.589977" lon="2.2183723">
        <ele>180</ele>
        <time>2022-05-12T07:39:43Z</time>
      </trkpt>
      <trkpt lat="47.589985" lon="2.2183785">
        <ele>180</ele>
        <time>2022-05-12T07:39:44Z</time>
      </trkpt>
      <trkpt lat="47.589993" lon="2.2183867">
        <ele>180</ele>
        <time>2022-05-12T07:39:45Z</time>
      </trkpt>
      <trkpt lat="47.59" lon="2.2183948">
        <ele>180</ele>
        <time>2022-05-12T07:39:46Z</time>
      </trkpt>
      <trkpt lat="47.590008" lon="2.2184024">
        <ele>180</ele>
        <time>2022-05-12T07:39:47Z</time>
      </trkpt>
      <trkpt lat="47.59002" lon="2.2184138">
        <ele>180</ele>
        <time>2022-05-12T07:39:48Z</time>
      </trkpt>
      <trkpt lat="47.59003" lon="2.2184255">
        <ele>180</ele>
        <time>2022-05-12T07:39:49Z</time>
      </trkpt>
      <trkpt lat="47.590042" lon="2.2184365">
        <ele>179</ele>
        <time>2022-05-12T07:39:50Z</time>
      </trkpt>
      <trkpt lat="47.590054" lon="2.2184465">
        <ele>179</ele>
        <time>2022-05-12T07:39:51Z</time>
      </trkpt>
      <trkpt lat="47.59006" lon="2.218454">
        <ele>179</ele>
        <time>2022-05-12T07:39:52Z</time>
      </trkpt>
      <trkpt lat="47.590073" lon="2.218459">
        <ele>179</ele>
        <time>2022-05-12T07:39:53Z</time>
      </trkpt>
      <trkpt lat="47.590084" lon="2.2184603">
        <ele>179</ele>
        <time>2022-05-12T07:39:54Z</time>
      </trkpt>
      <trkpt lat="47.59009" lon="2.2184625">
        <ele>178</ele>
        <time>2022-05-12T07:39:55Z</time>
      </trkpt>
      <trkpt lat="47.590103" lon="2.218468">
        <ele>178</ele>
        <time>2022-05-12T07:39:56Z</time>
      </trkpt>
      <trkpt lat="47.59012" lon="2.218478">
        <ele>178</ele>
        <time>2022-05-12T07:39:57Z</time>
      </trkpt>
      <trkpt lat="47.590126" lon="2.2184927">
        <ele>178</ele>
        <time>2022-05-12T07:39:58Z</time>
      </trkpt>
      <trkpt lat="47.590134" lon="2.2185094">
        <ele>178</ele>
        <time>2022-05-12T07:39:59Z</time>
      </trkpt>
      <trkpt lat="47.590145" lon="2.2185228">
        <ele>178</ele>
        <time>2022-05-12T07:40:00Z</time>
      </trkpt>
      <trkpt lat="47.590153" lon="2.2185354">
        <ele>177</ele>
        <time>2022-05-12T07:40:01Z</time>
      </trkpt>
      <trkpt lat="47.59016" lon="2.2185426">
        <ele>177</ele>
        <time>2022-05-12T07:40:02Z</time>
      </trkpt>
      <trkpt lat="47.59017" lon="2.2185485">
        <ele>177</ele>
        <time>2022-05-12T07:40:03Z</time>
      </trkpt>
      <trkpt lat="47.59018" lon="2.218558">
        <ele>177</ele>
        <time>2022-05-12T07:40:04Z</time>
      </trkpt>
      <trkpt lat="47.590187" lon="2.2185664">
        <ele>177</ele>
        <time>2022-05-12T07:40:05Z</time>
      </trkpt>
      <trkpt lat="47.5902" lon="2.2185729">
        <ele>178</ele>
        <time>2022-05-12T07:40:06Z</time>
      </trkpt>
      <trkpt lat="47.59021" lon="2.2185776">
        <ele>178</ele>
        <time>2022-05-12T07:40:07Z</time>
      </trkpt>
      <trkpt lat="47.590218" lon="2.2185836">
        <ele>178</ele>
        <time>2022-05-12T07:40:08Z</time>
      </trkpt>
      <trkpt lat="47.59023" lon="2.218592">
        <ele>178</ele>
        <time>2022-05-12T07:40:09Z</time>
      </trkpt>
      <trkpt lat="47.59024" lon="2.2185984">
        <ele>178</ele>
        <time>2022-05-12T07:40:10Z</time>
      </trkpt>
      <trkpt lat="47.590252" lon="2.218608">
        <ele>178</ele>
        <time>2022-05-12T07:40:11Z</time>
      </trkpt>
      <trkpt lat="47.59026" lon="2.2186146">
        <ele>178</ele>
        <time>2022-05-12T07:40:12Z</time>
      </trkpt>
      <trkpt lat="47.590267" lon="2.2186244">
        <ele>178</ele>
        <time>2022-05-12T07:40:13Z</time>
      </trkpt>
      <trkpt lat="47.59028" lon="2.2186322">
        <ele>179</ele>
        <time>2022-05-12T07:40:14Z</time>
      </trkpt>
      <trkpt lat="47.59029" lon="2.218636">
        <ele>178</ele>
        <time>2022-05-12T07:40:15Z</time>
      </trkpt>
      <trkpt lat="47.590298" lon="2.2186472">
        <ele>178</ele>
        <time>2022-05-12T07:40:16Z</time>
      </trkpt>
      <trkpt lat="47.59031" lon="2.2186604">
        <ele>178</ele>
        <time>2022-05-12T07:40:17Z</time>
      </trkpt>
      <trkpt lat="47.590317" lon="2.2186708">
        <ele>178</ele>
        <time>2022-05-12T07:40:18Z</time>
      </trkpt>
      <trkpt lat="47.590324" lon="2.2186718">
        <ele>178</ele>
        <time>2022-05-12T07:40:19Z</time>
      </trkpt>
      <trkpt lat="47.590336" lon="2.2186751">
        <ele>178</ele>
        <time>2022-05-12T07:40:20Z</time>
      </trkpt>
      <trkpt lat="47.590343" lon="2.2186813">
        <ele>178</ele>
        <time>2022-05-12T07:40:21Z</time>
      </trkpt>
      <trkpt lat="47.590355" lon="2.2186875">
        <ele>178</ele>
        <time>2022-05-12T07:40:22Z</time>
      </trkpt>
      <trkpt lat="47.590363" lon="2.218695">
        <ele>178</ele>
        <time>2022-05-12T07:40:23Z</time>
      </trkpt>
      <trkpt lat="47.590378" lon="2.2187052">
        <ele>178</ele>
        <time>2022-05-12T07:40:24Z</time>
      </trkpt>
      <trkpt lat="47.59039" lon="2.2187152">
        <ele>177</ele>
        <time>2022-05-12T07:40:25Z</time>
      </trkpt>
      <trkpt lat="47.5904" lon="2.2187269">
        <ele>177</ele>
        <time>2022-05-12T07:40:26Z</time>
      </trkpt>
      <trkpt lat="47.590412" lon="2.218737">
        <ele>177</ele>
        <time>2022-05-12T07:40:27Z</time>
      </trkpt>
      <trkpt lat="47.590424" lon="2.2187507">
        <ele>177</ele>
        <time>2022-05-12T07:40:28Z</time>
      </trkpt>
      <trkpt lat="47.590435" lon="2.218763">
        <ele>177</ele>
        <time>2022-05-12T07:40:29Z</time>
      </trkpt>
      <trkpt lat="47.590443" lon="2.218777">
        <ele>178</ele>
        <time>2022-05-12T07:40:30Z</time>
      </trkpt>
      <trkpt lat="47.590454" lon="2.2187884">
        <ele>178</ele>
        <time>2022-05-12T07:40:31Z</time>
      </trkpt>
      <trkpt lat="47.59046" lon="2.218797">
        <ele>178</ele>
        <time>2022-05-12T07:40:32Z</time>
      </trkpt>
      <trkpt lat="47.59047" lon="2.218807">
        <ele>177</ele>
        <time>2022-05-12T07:40:33Z</time>
      </trkpt>
      <trkpt lat="47.590477" lon="2.2188132">
        <ele>178</ele>
        <time>2022-05-12T07:40:34Z</time>
      </trkpt>
      <trkpt lat="47.59049" lon="2.2188234">
        <ele>178</ele>
        <time>2022-05-12T07:40:35Z</time>
      </trkpt>
      <trkpt lat="47.590496" lon="2.2188318">
        <ele>178</ele>
        <time>2022-05-12T07:40:36Z</time>
      </trkpt>
      <trkpt lat="47.590504" lon="2.2188392">
        <ele>178</ele>
        <time>2022-05-12T07:40:37Z</time>
      </trkpt>
      <trkpt lat="47.590515" lon="2.218851">
        <ele>179</ele>
        <time>2022-05-12T07:40:38Z</time>
      </trkpt>
      <trkpt lat="47.590527" lon="2.2188635">
        <ele>180</ele>
        <time>2022-05-12T07:40:39Z</time>
      </trkpt>
      <trkpt lat="47.590538" lon="2.2188718">
        <ele>180</ele>
        <time>2022-05-12T07:40:40Z</time>
      </trkpt>
      <trkpt lat="47.590546" lon="2.2188828">
        <ele>180</ele>
        <time>2022-05-12T07:40:41Z</time>
      </trkpt>
      <trkpt lat="47.590553" lon="2.2188938">
        <ele>180</ele>
        <time>2022-05-12T07:40:42Z</time>
      </trkpt>
      <trkpt lat="47.590565" lon="2.2189074">
        <ele>180</ele>
        <time>2022-05-12T07:40:43Z</time>
      </trkpt>
      <trkpt lat="47.590572" lon="2.2189136">
        <ele>181</ele>
        <time>2022-05-12T07:40:44Z</time>
      </trkpt>
      <trkpt lat="47.590584" lon="2.218921">
        <ele>181</ele>
        <time>2022-05-12T07:40:45Z</time>
      </trkpt>
      <trkpt lat="47.590595" lon="2.2189293">
        <ele>181</ele>
        <time>2022-05-12T07:40:46Z</time>
      </trkpt>
      <trkpt lat="47.590603" lon="2.2189345">
        <ele>181</ele>
        <time>2022-05-12T07:40:47Z</time>
      </trkpt>
      <trkpt lat="47.59061" lon="2.2189405">
        <ele>181</ele>
        <time>2022-05-12T07:40:48Z</time>
      </trkpt>
      <trkpt lat="47.59062" lon="2.2189467">
        <ele>181</ele>
        <time>2022-05-12T07:40:49Z</time>
      </trkpt>
      <trkpt lat="47.590633" lon="2.2189531">
        <ele>180</ele>
        <time>2022-05-12T07:40:50Z</time>
      </trkpt>
      <trkpt lat="47.590645" lon="2.2189589">
        <ele>179</ele>
        <time>2022-05-12T07:40:51Z</time>
      </trkpt>
      <trkpt lat="47.59066" lon="2.2189648">
        <ele>180</ele>
        <time>2022-05-12T07:40:52Z</time>
      </trkpt>
      <trkpt lat="47.590668" lon="2.2189767">
        <ele>180</ele>
        <time>2022-05-12T07:40:53Z</time>
      </trkpt>
      <trkpt lat="47.59068" lon="2.2189856">
        <ele>180</ele>
        <time>2022-05-12T07:40:54Z</time>
      </trkpt>
      <trkpt lat="47.590687" lon="2.2189927">
        <ele>180</ele>
        <time>2022-05-12T07:40:55Z</time>
      </trkpt>
      <trkpt lat="47.590694" lon="2.2189991">
        <ele>179</ele>
        <time>2022-05-12T07:40:56Z</time>
      </trkpt>
      <trkpt lat="47.590702" lon="2.21901">
        <ele>179</ele>
        <time>2022-05-12T07:40:57Z</time>
      </trkpt>
      <trkpt lat="47.59071" lon="2.219018">
        <ele>179</ele>
        <time>2022-05-12T07:40:58Z</time>
      </trkpt>
      <trkpt lat="47.59072" lon="2.2190225">
        <ele>179</ele>
        <time>2022-05-12T07:40:59Z</time>
      </trkpt>
      <trkpt lat="47.59073" lon="2.219032">
        <ele>179</ele>
        <time>2022-05-12T07:41:00Z</time>
      </trkpt>
      <trkpt lat="47.590733" lon="2.2190409">
        <ele>179</ele>
        <time>2022-05-12T07:41:01Z</time>
      </trkpt>
      <trkpt lat="47.59074" lon="2.21905">
        <ele>178</ele>
        <time>2022-05-12T07:41:02Z</time>
      </trkpt>
      <trkpt lat="47.59075" lon="2.2190573">
        <ele>177</ele>
        <time>2022-05-12T07:41:03Z</time>
      </trkpt>
      <trkpt lat="47.59076" lon="2.2190645">
        <ele>177</ele>
        <time>2022-05-12T07:41:04Z</time>
      </trkpt>
      <trkpt lat="47.59077" lon="2.2190769">
        <ele>177</ele>
        <time>2022-05-12T07:41:05Z</time>
      </trkpt>
      <trkpt lat="47.590782" lon="2.2190855">
        <ele>177</ele>
        <time>2022-05-12T07:41:06Z</time>
      </trkpt>
      <trkpt lat="47.590797" lon="2.2190971">
        <ele>176</ele>
        <time>2022-05-12T07:41:07Z</time>
      </trkpt>
      <trkpt lat="47.590813" lon="2.219107">
        <ele>176</ele>
        <time>2022-05-12T07:41:08Z</time>
      </trkpt>
      <trkpt lat="47.590824" lon="2.2191164">
        <ele>176</ele>
        <time>2022-05-12T07:41:09Z</time>
      </trkpt>
      <trkpt lat="47.59084" lon="2.2191281">
        <ele>175</ele>
        <time>2022-05-12T07:41:10Z</time>
      </trkpt>
      <trkpt lat="47.59085" lon="2.2191372">
        <ele>175</ele>
        <time>2022-05-12T07:41:11Z</time>
      </trkpt>
      <trkpt lat="47.59086" lon="2.2191455">
        <ele>174</ele>
        <time>2022-05-12T07:41:12Z</time>
      </trkpt>
      <trkpt lat="47.590866" lon="2.2191575">
        <ele>174</ele>
        <time>2022-05-12T07:41:13Z</time>
      </trkpt>
      <trkpt lat="47.590878" lon="2.219162">
        <ele>173</ele>
        <time>2022-05-12T07:41:14Z</time>
      </trkpt>
      <trkpt lat="47.59089" lon="2.2191703">
        <ele>173</ele>
        <time>2022-05-12T07:41:15Z</time>
      </trkpt>
      <trkpt lat="47.590904" lon="2.2191815">
        <ele>173</ele>
        <time>2022-05-12T07:41:16Z</time>
      </trkpt>
      <trkpt lat="47.590916" lon="2.2191927">
        <ele>173</ele>
        <time>2022-05-12T07:41:17Z</time>
      </trkpt>
      <trkpt lat="47.590927" lon="2.2192092">
        <ele>173</ele>
        <time>2022-05-12T07:41:18Z</time>
      </trkpt>
      <trkpt lat="47.59094" lon="2.2192235">
        <ele>174</ele>
        <time>2022-05-12T07:41:19Z</time>
      </trkpt>
      <trkpt lat="47.59095" lon="2.2192352">
        <ele>174</ele>
        <time>2022-05-12T07:41:20Z</time>
      </trkpt>
      <trkpt lat="47.590958" lon="2.219248">
        <ele>174</ele>
        <time>2022-05-12T07:41:21Z</time>
      </trkpt>
      <trkpt lat="47.59097" lon="2.2192562">
        <ele>174</ele>
        <time>2022-05-12T07:41:22Z</time>
      </trkpt>
      <trkpt lat="47.59098" lon="2.2192671">
        <ele>175</ele>
        <time>2022-05-12T07:41:23Z</time>
      </trkpt>
      <trkpt lat="47.590992" lon="2.2192779">
        <ele>175</ele>
        <time>2022-05-12T07:41:24Z</time>
      </trkpt>
      <trkpt lat="47.591003" lon="2.219288">
        <ele>175</ele>
        <time>2022-05-12T07:41:25Z</time>
      </trkpt>
      <trkpt lat="47.59101" lon="2.2192988">
        <ele>175</ele>
        <time>2022-05-12T07:41:26Z</time>
      </trkpt>
      <trkpt lat="47.591022" lon="2.2193084">
        <ele>175</ele>
        <time>2022-05-12T07:41:27Z</time>
      </trkpt>
      <trkpt lat="47.59103" lon="2.219317">
        <ele>176</ele>
        <time>2022-05-12T07:41:28Z</time>
      </trkpt>
      <trkpt lat="47.59104" lon="2.2193248">
        <ele>175</ele>
        <time>2022-05-12T07:41:29Z</time>
      </trkpt>
      <trkpt lat="47.591053" lon="2.2193313">
        <ele>175</ele>
        <time>2022-05-12T07:41:30Z</time>
      </trkpt>
      <trkpt lat="47.591064" lon="2.219338">
        <ele>175</ele>
        <time>2022-05-12T07:41:31Z</time>
      </trkpt>
      <trkpt lat="47.591072" lon="2.219345">
        <ele>175</ele>
        <time>2022-05-12T07:41:32Z</time>
      </trkpt>
      <trkpt lat="47.591084" lon="2.2193515">
        <ele>175</ele>
        <time>2022-05-12T07:41:33Z</time>
      </trkpt>
      <trkpt lat="47.591095" lon="2.2193587">
        <ele>175</ele>
        <time>2022-05-12T07:41:34Z</time>
      </trkpt>
      <trkpt lat="47.591106" lon="2.2193644">
        <ele>175</ele>
        <time>2022-05-12T07:41:35Z</time>
      </trkpt>
      <trkpt lat="47.591118" lon="2.2193696">
        <ele>174</ele>
        <time>2022-05-12T07:41:36Z</time>
      </trkpt>
      <trkpt lat="47.591125" lon="2.2193763">
        <ele>174</ele>
        <time>2022-05-12T07:41:37Z</time>
      </trkpt>
      <trkpt lat="47.591137" lon="2.2193832">
        <ele>174</ele>
        <time>2022-05-12T07:41:38Z</time>
      </trkpt>
      <trkpt lat="47.59115" lon="2.219387">
        <ele>174</ele>
        <time>2022-05-12T07:41:39Z</time>
      </trkpt>
      <trkpt lat="47.591156" lon="2.2193933">
        <ele>174</ele>
        <time>2022-05-12T07:41:40Z</time>
      </trkpt>
      <trkpt lat="47.591167" lon="2.2193944">
        <ele>174</ele>
        <time>2022-05-12T07:41:41Z</time>
      </trkpt>
      <trkpt lat="47.591175" lon="2.2194002">
        <ele>174</ele>
        <time>2022-05-12T07:41:42Z</time>
      </trkpt>
      <trkpt lat="47.59119" lon="2.2194068">
        <ele>173</ele>
        <time>2022-05-12T07:41:43Z</time>
      </trkpt>
      <trkpt lat="47.591198" lon="2.219413">
        <ele>173</ele>
        <time>2022-05-12T07:41:44Z</time>
      </trkpt>
      <trkpt lat="47.59121" lon="2.2194188">
        <ele>174</ele>
        <time>2022-05-12T07:41:45Z</time>
      </trkpt>
      <trkpt lat="47.591217" lon="2.2194228">
        <ele>174</ele>
        <time>2022-05-12T07:41:46Z</time>
      </trkpt>
      <trkpt lat="47.59123" lon="2.2194293">
        <ele>174</ele>
        <time>2022-05-12T07:41:47Z</time>
      </trkpt>
      <trkpt lat="47.59124" lon="2.2194371">
        <ele>174</ele>
        <time>2022-05-12T07:41:48Z</time>
      </trkpt>
      <trkpt lat="47.591248" lon="2.2194457">
        <ele>174</ele>
        <time>2022-05-12T07:41:49Z</time>
      </trkpt>
      <trkpt lat="47.591263" lon="2.2194571">
        <ele>174</ele>
        <time>2022-05-12T07:41:50Z</time>
      </trkpt>
      <trkpt lat="47.591274" lon="2.2194638">
        <ele>175</ele>
        <time>2022-05-12T07:41:51Z</time>
      </trkpt>
      <trkpt lat="47.59129" lon="2.2194633">
        <ele>175</ele>
        <time>2022-05-12T07:41:52Z</time>
      </trkpt>
      <trkpt lat="47.591297" lon="2.219471">
        <ele>175</ele>
        <time>2022-05-12T07:41:53Z</time>
      </trkpt>
      <trkpt lat="47.59131" lon="2.219479">
        <ele>175</ele>
        <time>2022-05-12T07:41:54Z</time>
      </trkpt>
      <trkpt lat="47.591316" lon="2.2194886">
        <ele>175</ele>
        <time>2022-05-12T07:41:55Z</time>
      </trkpt>
      <trkpt lat="47.591324" lon="2.2194974">
        <ele>176</ele>
        <time>2022-05-12T07:41:56Z</time>
      </trkpt>
      <trkpt lat="47.59133" lon="2.2195027">
        <ele>176</ele>
        <time>2022-05-12T07:41:57Z</time>
      </trkpt>
      <trkpt lat="47.591343" lon="2.219511">
        <ele>176</ele>
        <time>2022-05-12T07:41:58Z</time>
      </trkpt>
      <trkpt lat="47.591354" lon="2.2195194">
        <ele>175</ele>
        <time>2022-05-12T07:41:59Z</time>
      </trkpt>
      <trkpt lat="47.591362" lon="2.2195277">
        <ele>175</ele>
        <time>2022-05-12T07:42:00Z</time>
      </trkpt>
      <trkpt lat="47.591373" lon="2.219539">
        <ele>175</ele>
        <time>2022-05-12T07:42:01Z</time>
      </trkpt>
      <trkpt lat="47.591385" lon="2.2195554">
        <ele>176</ele>
        <time>2022-05-12T07:42:02Z</time>
      </trkpt>
      <trkpt lat="47.5914" lon="2.219571">
        <ele>176</ele>
        <time>2022-05-12T07:42:03Z</time>
      </trkpt>
      <trkpt lat="47.59141" lon="2.2195807">
        <ele>176</ele>
        <time>2022-05-12T07:42:04Z</time>
      </trkpt>
      <trkpt lat="47.591423" lon="2.219594">
        <ele>176</ele>
        <time>2022-05-12T07:42:05Z</time>
      </trkpt>
      <trkpt lat="47.591434" lon="2.2196038">
        <ele>176</ele>
        <time>2022-05-12T07:42:06Z</time>
      </trkpt>
      <trkpt lat="47.591446" lon="2.2196164">
        <ele>176</ele>
        <time>2022-05-12T07:42:07Z</time>
      </trkpt>
      <trkpt lat="47.59146" lon="2.219625">
        <ele>176</ele>
        <time>2022-05-12T07:42:08Z</time>
      </trkpt>
      <trkpt lat="47.591473" lon="2.2196336">
        <ele>176</ele>
        <time>2022-05-12T07:42:09Z</time>
      </trkpt>
      <trkpt lat="47.591484" lon="2.219643">
        <ele>176</ele>
        <time>2022-05-12T07:42:10Z</time>
      </trkpt>
      <trkpt lat="47.59149" lon="2.2196553">
        <ele>176</ele>
        <time>2022-05-12T07:42:11Z</time>
      </trkpt>
      <trkpt lat="47.591503" lon="2.2196653">
        <ele>176</ele>
        <time>2022-05-12T07:42:12Z</time>
      </trkpt>
      <trkpt lat="47.59151" lon="2.219672">
        <ele>176</ele>
        <time>2022-05-12T07:42:13Z</time>
      </trkpt>
      <trkpt lat="47.591522" lon="2.2196789">
        <ele>176</ele>
        <time>2022-05-12T07:42:14Z</time>
      </trkpt>
      <trkpt lat="47.591534" lon="2.2196841">
        <ele>175</ele>
        <time>2022-05-12T07:42:15Z</time>
      </trkpt>
      <trkpt lat="47.59154" lon="2.2196918">
        <ele>175</ele>
        <time>2022-05-12T07:42:16Z</time>
      </trkpt>
      <trkpt lat="47.59155" lon="2.2196958">
        <ele>175</ele>
        <time>2022-05-12T07:42:17Z</time>
      </trkpt>
      <trkpt lat="47.591557" lon="2.2197018">
        <ele>175</ele>
        <time>2022-05-12T07:42:18Z</time>
      </trkpt>
      <trkpt lat="47.591564" lon="2.2197137">
        <ele>175</ele>
        <time>2022-05-12T07:42:19Z</time>
      </trkpt>
      <trkpt lat="47.59157" lon="2.219722">
        <ele>174</ele>
        <time>2022-05-12T07:42:20Z</time>
      </trkpt>
      <trkpt lat="47.59158" lon="2.2197275">
        <ele>174</ele>
        <time>2022-05-12T07:42:21Z</time>
      </trkpt>
      <trkpt lat="47.59159" lon="2.219737">
        <ele>174</ele>
        <time>2022-05-12T07:42:22Z</time>
      </trkpt>
      <trkpt lat="47.5916" lon="2.219746">
        <ele>174</ele>
        <time>2022-05-12T07:42:23Z</time>
      </trkpt>
      <trkpt lat="47.591606" lon="2.2197547">
        <ele>174</ele>
        <time>2022-05-12T07:42:24Z</time>
      </trkpt>
      <trkpt lat="47.591618" lon="2.2197676">
        <ele>174</ele>
        <time>2022-05-12T07:42:25Z</time>
      </trkpt>
      <trkpt lat="47.591625" lon="2.21978">
        <ele>174</ele>
        <time>2022-05-12T07:42:26Z</time>
      </trkpt>
      <trkpt lat="47.591637" lon="2.2197912">
        <ele>174</ele>
        <time>2022-05-12T07:42:27Z</time>
      </trkpt>
      <trkpt lat="47.591644" lon="2.219803">
        <ele>173</ele>
        <time>2022-05-12T07:42:28Z</time>
      </trkpt>
      <trkpt lat="47.591656" lon="2.21981">
        <ele>173</ele>
        <time>2022-05-12T07:42:29Z</time>
      </trkpt>
      <trkpt lat="47.591663" lon="2.2198155">
        <ele>173</ele>
        <time>2022-05-12T07:42:30Z</time>
      </trkpt>
      <trkpt lat="47.591675" lon="2.2198236">
        <ele>173</ele>
        <time>2022-05-12T07:42:31Z</time>
      </trkpt>
      <trkpt lat="47.591682" lon="2.2198343">
        <ele>173</ele>
        <time>2022-05-12T07:42:32Z</time>
      </trkpt>
      <trkpt lat="47.591694" lon="2.2198448">
        <ele>173</ele>
        <time>2022-05-12T07:42:33Z</time>
      </trkpt>
      <trkpt lat="47.591698" lon="2.2198563">
        <ele>173</ele>
        <time>2022-05-12T07:42:34Z</time>
      </trkpt>
      <trkpt lat="47.59171" lon="2.2198637">
        <ele>174</ele>
        <time>2022-05-12T07:42:35Z</time>
      </trkpt>
      <trkpt lat="47.59172" lon="2.2198696">
        <ele>174</ele>
        <time>2022-05-12T07:42:36Z</time>
      </trkpt>
      <trkpt lat="47.591732" lon="2.2198749">
        <ele>174</ele>
        <time>2022-05-12T07:42:37Z</time>
      </trkpt>
      <trkpt lat="47.59174" lon="2.2198782">
        <ele>174</ele>
        <time>2022-05-12T07:42:38Z</time>
      </trkpt>
      <trkpt lat="47.59175" lon="2.2198849">
        <ele>174</ele>
        <time>2022-05-12T07:42:39Z</time>
      </trkpt>
      <trkpt lat="47.591763" lon="2.2198908">
        <ele>174</ele>
        <time>2022-05-12T07:42:40Z</time>
      </trkpt>
      <trkpt lat="47.591774" lon="2.2198956">
        <ele>174</ele>
        <time>2022-05-12T07:42:41Z</time>
      </trkpt>
      <trkpt lat="47.59179" lon="2.219897">
        <ele>174</ele>
        <time>2022-05-12T07:42:42Z</time>
      </trkpt>
      <trkpt lat="47.5918" lon="2.2199066">
        <ele>174</ele>
        <time>2022-05-12T07:42:43Z</time>
      </trkpt>
      <trkpt lat="47.591816" lon="2.2199137">
        <ele>174</ele>
        <time>2022-05-12T07:42:44Z</time>
      </trkpt>
      <trkpt lat="47.591824" lon="2.219919">
        <ele>174</ele>
        <time>2022-05-12T07:42:45Z</time>
      </trkpt>
      <trkpt lat="47.591835" lon="2.2199326">
        <ele>174</ele>
        <time>2022-05-12T07:42:46Z</time>
      </trkpt>
      <trkpt lat="47.591846" lon="2.219935">
        <ele>174</ele>
        <time>2022-05-12T07:42:47Z</time>
      </trkpt>
      <trkpt lat="47.591854" lon="2.2199416">
        <ele>174</ele>
        <time>2022-05-12T07:42:48Z</time>
      </trkpt>
      <trkpt lat="47.591866" lon="2.2199469">
        <ele>174</ele>
        <time>2022-05-12T07:42:49Z</time>
      </trkpt>
      <trkpt lat="47.591873" lon="2.2199545">
        <ele>174</ele>
        <time>2022-05-12T07:42:50Z</time>
      </trkpt>
      <trkpt lat="47.591885" lon="2.219962">
        <ele>173</ele>
        <time>2022-05-12T07:42:51Z</time>
      </trkpt>
      <trkpt lat="47.591892" lon="2.2199686">
        <ele>173</ele>
        <time>2022-05-12T07:42:52Z</time>
      </trkpt>
      <trkpt lat="47.591904" lon="2.2199738">
        <ele>173</ele>
        <time>2022-05-12T07:42:53Z</time>
      </trkpt>
      <trkpt lat="47.59191" lon="2.21998">
        <ele>173</ele>
        <time>2022-05-12T07:42:54Z</time>
      </trkpt>
      <trkpt lat="47.59192" lon="2.2199843">
        <ele>173</ele>
        <time>2022-05-12T07:42:55Z</time>
      </trkpt>
      <trkpt lat="47.591927" lon="2.2199898">
        <ele>173</ele>
        <time>2022-05-12T07:42:56Z</time>
      </trkpt>
      <trkpt lat="47.591938" lon="2.219996">
        <ele>173</ele>
        <time>2022-05-12T07:42:57Z</time>
      </trkpt>
      <trkpt lat="47.59194" lon="2.220009">
        <ele>172</ele>
        <time>2022-05-12T07:42:58Z</time>
      </trkpt>
      <trkpt lat="47.591953" lon="2.2200227">
        <ele>172</ele>
        <time>2022-05-12T07:42:59Z</time>
      </trkpt>
      <trkpt lat="47.59196" lon="2.2200303">
        <ele>172</ele>
        <time>2022-05-12T07:43:00Z</time>
      </trkpt>
      <trkpt lat="47.591972" lon="2.2200406">
        <ele>171</ele>
        <time>2022-05-12T07:43:01Z</time>
      </trkpt>
      <trkpt lat="47.591988" lon="2.2200458">
        <ele>171</ele>
        <time>2022-05-12T07:43:02Z</time>
      </trkpt>
      <trkpt lat="47.591995" lon="2.2200549">
        <ele>171</ele>
        <time>2022-05-12T07:43:03Z</time>
      </trkpt>
      <trkpt lat="47.592003" lon="2.2200584">
        <ele>171</ele>
        <time>2022-05-12T07:43:04Z</time>
      </trkpt>
      <trkpt lat="47.592014" lon="2.2200625">
        <ele>171</ele>
        <time>2022-05-12T07:43:05Z</time>
      </trkpt>
      <trkpt lat="47.592022" lon="2.220071">
        <ele>171</ele>
        <time>2022-05-12T07:43:06Z</time>
      </trkpt>
      <trkpt lat="47.592033" lon="2.2200823">
        <ele>171</ele>
        <time>2022-05-12T07:43:07Z</time>
      </trkpt>
      <trkpt lat="47.59205" lon="2.2200863">
        <ele>171</ele>
        <time>2022-05-12T07:43:08Z</time>
      </trkpt>
      <trkpt lat="47.59206" lon="2.2200947">
        <ele>172</ele>
        <time>2022-05-12T07:43:09Z</time>
      </trkpt>
      <trkpt lat="47.59207" lon="2.2201052">
        <ele>172</ele>
        <time>2022-05-12T07:43:10Z</time>
      </trkpt>
      <trkpt lat="47.59208" lon="2.220116">
        <ele>172</ele>
        <time>2022-05-12T07:43:11Z</time>
      </trkpt>
      <trkpt lat="47.59209" lon="2.22013">
        <ele>172</ele>
        <time>2022-05-12T07:43:12Z</time>
      </trkpt>
      <trkpt lat="47.592102" lon="2.2201426">
        <ele>172</ele>
        <time>2022-05-12T07:43:13Z</time>
      </trkpt>
      <trkpt lat="47.592113" lon="2.220154">
        <ele>173</ele>
        <time>2022-05-12T07:43:14Z</time>
      </trkpt>
      <trkpt lat="47.59212" lon="2.2201548">
        <ele>173</ele>
        <time>2022-05-12T07:43:15Z</time>
      </trkpt>
      <trkpt lat="47.592125" lon="2.2201557">
        <ele>173</ele>
        <time>2022-05-12T07:43:16Z</time>
      </trkpt>
      <trkpt lat="47.592133" lon="2.22016">
        <ele>173</ele>
        <time>2022-05-12T07:43:17Z</time>
      </trkpt>
      <trkpt lat="47.59214" lon="2.2201629">
        <ele>173</ele>
        <time>2022-05-12T07:43:18Z</time>
      </trkpt>
      <trkpt lat="47.59215" lon="2.2201674">
        <ele>173</ele>
        <time>2022-05-12T07:43:19Z</time>
      </trkpt>
      <trkpt lat="47.59216" lon="2.220176">
        <ele>173</ele>
        <time>2022-05-12T07:43:20Z</time>
      </trkpt>
      <trkpt lat="47.59217" lon="2.220184">
        <ele>174</ele>
        <time>2022-05-12T07:43:21Z</time>
      </trkpt>
      <trkpt lat="47.592182" lon="2.2201908">
        <ele>174</ele>
        <time>2022-05-12T07:43:22Z</time>
      </trkpt>
      <trkpt lat="47.592194" lon="2.2201989">
        <ele>174</ele>
        <time>2022-05-12T07:43:23Z</time>
      </trkpt>
      <trkpt lat="47.592205" lon="2.220211">
        <ele>174</ele>
        <time>2022-05-12T07:43:24Z</time>
      </trkpt>
      <trkpt lat="47.59222" lon="2.2202206">
        <ele>175</ele>
        <time>2022-05-12T07:43:25Z</time>
      </trkpt>
      <trkpt lat="47.592228" lon="2.2202344">
        <ele>175</ele>
        <time>2022-05-12T07:43:26Z</time>
      </trkpt>
      <trkpt lat="47.59224" lon="2.220247">
        <ele>175</ele>
        <time>2022-05-12T07:43:27Z</time>
      </trkpt>
      <trkpt lat="47.59225" lon="2.2202587">
        <ele>175</ele>
        <time>2022-05-12T07:43:28Z</time>
      </trkpt>
      <trkpt lat="47.592262" lon="2.2202725">
        <ele>175</ele>
        <time>2022-05-12T07:43:29Z</time>
      </trkpt>
      <trkpt lat="47.592274" lon="2.220283">
        <ele>176</ele>
        <time>2022-05-12T07:43:30Z</time>
      </trkpt>
      <trkpt lat="47.592285" lon="2.220295">
        <ele>176</ele>
        <time>2022-05-12T07:43:31Z</time>
      </trkpt>
      <trkpt lat="47.5923" lon="2.2203102">
        <ele>176</ele>
        <time>2022-05-12T07:43:32Z</time>
      </trkpt>
      <trkpt lat="47.592316" lon="2.2203221">
        <ele>176</ele>
        <time>2022-05-12T07:43:33Z</time>
      </trkpt>
      <trkpt lat="47.592327" lon="2.220334">
        <ele>177</ele>
        <time>2022-05-12T07:43:34Z</time>
      </trkpt>
      <trkpt lat="47.592342" lon="2.2203467">
        <ele>177</ele>
        <time>2022-05-12T07:43:35Z</time>
      </trkpt>
      <trkpt lat="47.592358" lon="2.2203526">
        <ele>177</ele>
        <time>2022-05-12T07:43:36Z</time>
      </trkpt>
      <trkpt lat="47.592373" lon="2.2203627">
        <ele>178</ele>
        <time>2022-05-12T07:43:37Z</time>
      </trkpt>
      <trkpt lat="47.59239" lon="2.220372">
        <ele>178</ele>
        <time>2022-05-12T07:43:38Z</time>
      </trkpt>
      <trkpt lat="47.592403" lon="2.220382">
        <ele>178</ele>
        <time>2022-05-12T07:43:39Z</time>
      </trkpt>
      <trkpt lat="47.59242" lon="2.2203896">
        <ele>178</ele>
        <time>2022-05-12T07:43:40Z</time>
      </trkpt>
      <trkpt lat="47.59243" lon="2.2203987">
        <ele>179</ele>
        <time>2022-05-12T07:43:41Z</time>
      </trkpt>
      <trkpt lat="47.59244" lon="2.2204108">
        <ele>179</ele>
        <time>2022-05-12T07:43:42Z</time>
      </trkpt>
      <trkpt lat="47.59245" lon="2.2204247">
        <ele>179</ele>
        <time>2022-05-12T07:43:43Z</time>
      </trkpt>
      <trkpt lat="47.592464" lon="2.2204304">
        <ele>179</ele>
        <time>2022-05-12T07:43:44Z</time>
      </trkpt>
      <trkpt lat="47.59248" lon="2.2204323">
        <ele>179</ele>
        <time>2022-05-12T07:43:45Z</time>
      </trkpt>
      <trkpt lat="47.59249" lon="2.220438">
        <ele>179</ele>
        <time>2022-05-12T07:43:46Z</time>
      </trkpt>
      <trkpt lat="47.5925" lon="2.2204447">
        <ele>179</ele>
        <time>2022-05-12T07:43:47Z</time>
      </trkpt>
      <trkpt lat="47.592506" lon="2.22045">
        <ele>179</ele>
        <time>2022-05-12T07:43:48Z</time>
      </trkpt>
      <trkpt lat="47.592518" lon="2.2204587">
        <ele>179</ele>
        <time>2022-05-12T07:43:49Z</time>
      </trkpt>
      <trkpt lat="47.59253" lon="2.2204678">
        <ele>179</ele>
        <time>2022-05-12T07:43:50Z</time>
      </trkpt>
      <trkpt lat="47.592537" lon="2.2204766">
        <ele>179</ele>
        <time>2022-05-12T07:43:51Z</time>
      </trkpt>
      <trkpt lat="47.592545" lon="2.2204797">
        <ele>179</ele>
        <time>2022-05-12T07:43:52Z</time>
      </trkpt>
      <trkpt lat="47.592552" lon="2.2204838">
        <ele>178</ele>
        <time>2022-05-12T07:43:53Z</time>
      </trkpt>
      <trkpt lat="47.592564" lon="2.2204912">
        <ele>178</ele>
        <time>2022-05-12T07:43:54Z</time>
      </trkpt>
      <trkpt lat="47.59257" lon="2.220501">
        <ele>178</ele>
        <time>2022-05-12T07:43:55Z</time>
      </trkpt>
      <trkpt lat="47.592583" lon="2.2205105">
        <ele>179</ele>
        <time>2022-05-12T07:43:56Z</time>
      </trkpt>
      <trkpt lat="47.592594" lon="2.2205198">
        <ele>179</ele>
        <time>2022-05-12T07:43:57Z</time>
      </trkpt>
      <trkpt lat="47.5926" lon="2.2205293">
        <ele>179</ele>
        <time>2022-05-12T07:43:58Z</time>
      </trkpt>
      <trkpt lat="47.59261" lon="2.2205393">
        <ele>179</ele>
        <time>2022-05-12T07:43:59Z</time>
      </trkpt>
      <trkpt lat="47.59262" lon="2.2205524">
        <ele>179</ele>
        <time>2022-05-12T07:44:00Z</time>
      </trkpt>
      <trkpt lat="47.59263" lon="2.220561">
        <ele>179</ele>
        <time>2022-05-12T07:44:01Z</time>
      </trkpt>
      <trkpt lat="47.59264" lon="2.22056">
        <ele>179</ele>
        <time>2022-05-12T07:44:02Z</time>
      </trkpt>
      <trkpt lat="47.592655" lon="2.2205603">
        <ele>179</ele>
        <time>2022-05-12T07:44:03Z</time>
      </trkpt>
      <trkpt lat="47.592674" lon="2.220568">
        <ele>179</ele>
        <time>2022-05-12T07:44:04Z</time>
      </trkpt>
      <trkpt lat="47.59269" lon="2.2205765">
        <ele>179</ele>
        <time>2022-05-12T07:44:05Z</time>
      </trkpt>
      <trkpt lat="47.592705" lon="2.2205849">
        <ele>179</ele>
        <time>2022-05-12T07:44:06Z</time>
      </trkpt>
      <trkpt lat="47.592728" lon="2.2205997">
        <ele>179</ele>
        <time>2022-05-12T07:44:08Z</time>
      </trkpt>
      <trkpt lat="47.592735" lon="2.2206063">
        <ele>179</ele>
        <time>2022-05-12T07:44:09Z</time>
      </trkpt>
      <trkpt lat="47.592747" lon="2.2206192">
        <ele>179</ele>
        <time>2022-05-12T07:44:10Z</time>
      </trkpt>
      <trkpt lat="47.59276" lon="2.2206302">
        <ele>178</ele>
        <time>2022-05-12T07:44:11Z</time>
      </trkpt>
      <trkpt lat="47.592766" lon="2.2206404">
        <ele>178</ele>
        <time>2022-05-12T07:44:12Z</time>
      </trkpt>
      <trkpt lat="47.592777" lon="2.2206554">
        <ele>179</ele>
        <time>2022-05-12T07:44:13Z</time>
      </trkpt>
      <trkpt lat="47.59279" lon="2.2206645">
        <ele>178</ele>
        <time>2022-05-12T07:44:14Z</time>
      </trkpt>
      <trkpt lat="47.592804" lon="2.2206745">
        <ele>178</ele>
        <time>2022-05-12T07:44:15Z</time>
      </trkpt>
      <trkpt lat="47.59282" lon="2.2206838">
        <ele>177</ele>
        <time>2022-05-12T07:44:16Z</time>
      </trkpt>
      <trkpt lat="47.59283" lon="2.2206948">
        <ele>177</ele>
        <time>2022-05-12T07:44:17Z</time>
      </trkpt>
      <trkpt lat="47.592842" lon="2.2207067">
        <ele>177</ele>
        <time>2022-05-12T07:44:18Z</time>
      </trkpt>
      <trkpt lat="47.592854" lon="2.2207167">
        <ele>177</ele>
        <time>2022-05-12T07:44:19Z</time>
      </trkpt>
      <trkpt lat="47.592865" lon="2.2207253">
        <ele>176</ele>
        <time>2022-05-12T07:44:20Z</time>
      </trkpt>
      <trkpt lat="47.592876" lon="2.2207346">
        <ele>176</ele>
        <time>2022-05-12T07:44:21Z</time>
      </trkpt>
      <trkpt lat="47.59288" lon="2.2207422">
        <ele>176</ele>
        <time>2022-05-12T07:44:22Z</time>
      </trkpt>
      <trkpt lat="47.59289" lon="2.220751">
        <ele>175</ele>
        <time>2022-05-12T07:44:23Z</time>
      </trkpt>
      <trkpt lat="47.592903" lon="2.220761">
        <ele>175</ele>
        <time>2022-05-12T07:44:24Z</time>
      </trkpt>
      <trkpt lat="47.592915" lon="2.2207725">
        <ele>175</ele>
        <time>2022-05-12T07:44:25Z</time>
      </trkpt>
      <trkpt lat="47.592926" lon="2.2207868">
        <ele>174</ele>
        <time>2022-05-12T07:44:26Z</time>
      </trkpt>
      <trkpt lat="47.592934" lon="2.2207954">
        <ele>174</ele>
        <time>2022-05-12T07:44:27Z</time>
      </trkpt>
      <trkpt lat="47.592945" lon="2.2208066">
        <ele>175</ele>
        <time>2022-05-12T07:44:28Z</time>
      </trkpt>
      <trkpt lat="47.592953" lon="2.2208204">
        <ele>175</ele>
        <time>2022-05-12T07:44:29Z</time>
      </trkpt>
      <trkpt lat="47.59296" lon="2.2208347">
        <ele>175</ele>
        <time>2022-05-12T07:44:30Z</time>
      </trkpt>
      <trkpt lat="47.59297" lon="2.2208483">
        <ele>176</ele>
        <time>2022-05-12T07:44:31Z</time>
      </trkpt>
      <trkpt lat="47.59298" lon="2.2208583">
        <ele>175</ele>
        <time>2022-05-12T07:44:32Z</time>
      </trkpt>
      <trkpt lat="47.592987" lon="2.2208688">
        <ele>175</ele>
        <time>2022-05-12T07:44:33Z</time>
      </trkpt>
      <trkpt lat="47.592995" lon="2.2208838">
        <ele>175</ele>
        <time>2022-05-12T07:44:34Z</time>
      </trkpt>
      <trkpt lat="47.593002" lon="2.2208996">
        <ele>175</ele>
        <time>2022-05-12T07:44:35Z</time>
      </trkpt>
      <trkpt lat="47.59301" lon="2.220911">
        <ele>175</ele>
        <time>2022-05-12T07:44:36Z</time>
      </trkpt>
      <trkpt lat="47.593018" lon="2.220924">
        <ele>175</ele>
        <time>2022-05-12T07:44:37Z</time>
      </trkpt>
      <trkpt lat="47.593025" lon="2.220932">
        <ele>175</ele>
        <time>2022-05-12T07:44:38Z</time>
      </trkpt>
      <trkpt lat="47.593033" lon="2.2209404">
        <ele>176</ele>
        <time>2022-05-12T07:44:39Z</time>
      </trkpt>
      <trkpt lat="47.59304" lon="2.220947">
        <ele>176</ele>
        <time>2022-05-12T07:44:40Z</time>
      </trkpt>
      <trkpt lat="47.59305" lon="2.220958">
        <ele>176</ele>
        <time>2022-05-12T07:44:41Z</time>
      </trkpt>
      <trkpt lat="47.593056" lon="2.220966">
        <ele>176</ele>
        <time>2022-05-12T07:44:42Z</time>
      </trkpt>
      <trkpt lat="47.593063" lon="2.2209773">
        <ele>176</ele>
        <time>2022-05-12T07:44:43Z</time>
      </trkpt>
      <trkpt lat="47.59307" lon="2.2209883">
        <ele>175</ele>
        <time>2022-05-12T07:44:44Z</time>
      </trkpt>
      <trkpt lat="47.59308" lon="2.2210016">
        <ele>175</ele>
        <time>2022-05-12T07:44:45Z</time>
      </trkpt>
      <trkpt lat="47.593086" lon="2.221014">
        <ele>175</ele>
        <time>2022-05-12T07:44:46Z</time>
      </trkpt>
      <trkpt lat="47.59309" lon="2.2210255">
        <ele>175</ele>
        <time>2022-05-12T07:44:47Z</time>
      </trkpt>
      <trkpt lat="47.593098" lon="2.2210379">
        <ele>175</ele>
        <time>2022-05-12T07:44:48Z</time>
      </trkpt>
      <trkpt lat="47.593105" lon="2.2210493">
        <ele>175</ele>
        <time>2022-05-12T07:44:49Z</time>
      </trkpt>
      <trkpt lat="47.59311" lon="2.2210639">
        <ele>175</ele>
        <time>2022-05-12T07:44:50Z</time>
      </trkpt>
      <trkpt lat="47.593113" lon="2.2210772">
        <ele>175</ele>
        <time>2022-05-12T07:44:51Z</time>
      </trkpt>
      <trkpt lat="47.593113" lon="2.2210927">
        <ele>174</ele>
        <time>2022-05-12T07:44:52Z</time>
      </trkpt>
      <trkpt lat="47.59312" lon="2.2211113">
        <ele>175</ele>
        <time>2022-05-12T07:44:53Z</time>
      </trkpt>
      <trkpt lat="47.59313" lon="2.221123">
        <ele>175</ele>
        <time>2022-05-12T07:44:54Z</time>
      </trkpt>
      <trkpt lat="47.593136" lon="2.2211375">
        <ele>175</ele>
        <time>2022-05-12T07:44:55Z</time>
      </trkpt>
      <trkpt lat="47.593147" lon="2.2211509">
        <ele>174</ele>
        <time>2022-05-12T07:44:56Z</time>
      </trkpt>
      <trkpt lat="47.593155" lon="2.221163">
        <ele>174</ele>
        <time>2022-05-12T07:44:57Z</time>
      </trkpt>
      <trkpt lat="47.593166" lon="2.2211752">
        <ele>174</ele>
        <time>2022-05-12T07:44:58Z</time>
      </trkpt>
      <trkpt lat="47.593174" lon="2.221186">
        <ele>174</ele>
        <time>2022-05-12T07:44:59Z</time>
      </trkpt>
      <trkpt lat="47.59318" lon="2.2211952">
        <ele>173</ele>
        <time>2022-05-12T07:45:00Z</time>
      </trkpt>
      <trkpt lat="47.59319" lon="2.2212086">
        <ele>173</ele>
        <time>2022-05-12T07:45:01Z</time>
      </trkpt>
      <trkpt lat="47.593197" lon="2.2212267">
        <ele>174</ele>
        <time>2022-05-12T07:45:02Z</time>
      </trkpt>
      <trkpt lat="47.593204" lon="2.221244">
        <ele>174</ele>
        <time>2022-05-12T07:45:03Z</time>
      </trkpt>
      <trkpt lat="47.59321" lon="2.221259">
        <ele>174</ele>
        <time>2022-05-12T07:45:04Z</time>
      </trkpt>
      <trkpt lat="47.59322" lon="2.2212725">
        <ele>174</ele>
        <time>2022-05-12T07:45:05Z</time>
      </trkpt>
      <trkpt lat="47.59323" lon="2.2212856">
        <ele>174</ele>
        <time>2022-05-12T07:45:06Z</time>
      </trkpt>
      <trkpt lat="47.59324" lon="2.221299">
        <ele>174</ele>
        <time>2022-05-12T07:45:07Z</time>
      </trkpt>
      <trkpt lat="47.59325" lon="2.2213106">
        <ele>174</ele>
        <time>2022-05-12T07:45:08Z</time>
      </trkpt>
      <trkpt lat="47.59326" lon="2.2213244">
        <ele>174</ele>
        <time>2022-05-12T07:45:09Z</time>
      </trkpt>
      <trkpt lat="47.59327" lon="2.2213356">
        <ele>174</ele>
        <time>2022-05-12T07:45:10Z</time>
      </trkpt>
      <trkpt lat="47.593277" lon="2.2213466">
        <ele>174</ele>
        <time>2022-05-12T07:45:11Z</time>
      </trkpt>
      <trkpt lat="47.59329" lon="2.2213583">
        <ele>174</ele>
        <time>2022-05-12T07:45:12Z</time>
      </trkpt>
      <trkpt lat="47.593296" lon="2.2213695">
        <ele>174</ele>
        <time>2022-05-12T07:45:13Z</time>
      </trkpt>
      <trkpt lat="47.593304" lon="2.2213798">
        <ele>174</ele>
        <time>2022-05-12T07:45:14Z</time>
      </trkpt>
      <trkpt lat="47.593315" lon="2.2213974">
        <ele>174</ele>
        <time>2022-05-12T07:45:15Z</time>
      </trkpt>
      <trkpt lat="47.593327" lon="2.2214122">
        <ele>174</ele>
        <time>2022-05-12T07:45:16Z</time>
      </trkpt>
      <trkpt lat="47.593334" lon="2.2214284">
        <ele>174</ele>
        <time>2022-05-12T07:45:17Z</time>
      </trkpt>
      <trkpt lat="47.59334" lon="2.2214422">
        <ele>174</ele>
        <time>2022-05-12T07:45:18Z</time>
      </trkpt>
      <trkpt lat="47.59335" lon="2.2214541">
        <ele>174</ele>
        <time>2022-05-12T07:45:19Z</time>
      </trkpt>
      <trkpt lat="47.593357" lon="2.2214727">
        <ele>174</ele>
        <time>2022-05-12T07:45:20Z</time>
      </trkpt>
      <trkpt lat="47.59336" lon="2.2214823">
        <ele>174</ele>
        <time>2022-05-12T07:45:21Z</time>
      </trkpt>
      <trkpt lat="47.593372" lon="2.2214942">
        <ele>174</ele>
        <time>2022-05-12T07:45:22Z</time>
      </trkpt>
      <trkpt lat="47.59338" lon="2.221507">
        <ele>175</ele>
        <time>2022-05-12T07:45:23Z</time>
      </trkpt>
      <trkpt lat="47.593384" lon="2.22152">
        <ele>174</ele>
        <time>2022-05-12T07:45:24Z</time>
      </trkpt>
      <trkpt lat="47.59339" lon="2.2215388">
        <ele>175</ele>
        <time>2022-05-12T07:45:25Z</time>
      </trkpt>
      <trkpt lat="47.5934" lon="2.2215471">
        <ele>175</ele>
        <time>2022-05-12T07:45:26Z</time>
      </trkpt>
      <trkpt lat="47.593407" lon="2.2215528">
        <ele>175</ele>
        <time>2022-05-12T07:45:27Z</time>
      </trkpt>
      <trkpt lat="47.593414" lon="2.221562">
        <ele>175</ele>
        <time>2022-05-12T07:45:28Z</time>
      </trkpt>
      <trkpt lat="47.593422" lon="2.2215762">
        <ele>175</ele>
        <time>2022-05-12T07:45:29Z</time>
      </trkpt>
      <trkpt lat="47.59343" lon="2.2215924">
        <ele>175</ele>
        <time>2022-05-12T07:45:30Z</time>
      </trkpt>
      <trkpt lat="47.593437" lon="2.2216053">
        <ele>175</ele>
        <time>2022-05-12T07:45:31Z</time>
      </trkpt>
      <trkpt lat="47.593445" lon="2.2216148">
        <ele>175</ele>
        <time>2022-05-12T07:45:32Z</time>
      </trkpt>
      <trkpt lat="47.593452" lon="2.2216244">
        <ele>175</ele>
        <time>2022-05-12T07:45:33Z</time>
      </trkpt>
      <trkpt lat="47.59346" lon="2.2216346">
        <ele>175</ele>
        <time>2022-05-12T07:45:34Z</time>
      </trkpt>
      <trkpt lat="47.59347" lon="2.2216475">
        <ele>175</ele>
        <time>2022-05-12T07:45:35Z</time>
      </trkpt>
      <trkpt lat="47.59348" lon="2.2216554">
        <ele>175</ele>
        <time>2022-05-12T07:45:36Z</time>
      </trkpt>
      <trkpt lat="47.593487" lon="2.2216692">
        <ele>175</ele>
        <time>2022-05-12T07:45:37Z</time>
      </trkpt>
      <trkpt lat="47.59349" lon="2.2216845">
        <ele>174</ele>
        <time>2022-05-12T07:45:38Z</time>
      </trkpt>
      <trkpt lat="47.5935" lon="2.2217">
        <ele>175</ele>
        <time>2022-05-12T07:45:39Z</time>
      </trkpt>
      <trkpt lat="47.59351" lon="2.2217126">
        <ele>175</ele>
        <time>2022-05-12T07:45:40Z</time>
      </trkpt>
      <trkpt lat="47.593517" lon="2.2217228">
        <ele>175</ele>
        <time>2022-05-12T07:45:41Z</time>
      </trkpt>
      <trkpt lat="47.59353" lon="2.2217379">
        <ele>175</ele>
        <time>2022-05-12T07:45:42Z</time>
      </trkpt>
      <trkpt lat="47.593536" lon="2.2217524">
        <ele>174</ele>
        <time>2022-05-12T07:45:43Z</time>
      </trkpt>
      <trkpt lat="47.593548" lon="2.2217567">
        <ele>174</ele>
        <time>2022-05-12T07:45:44Z</time>
      </trkpt>
      <trkpt lat="47.593555" lon="2.221765">
        <ele>174</ele>
        <time>2022-05-12T07:45:45Z</time>
      </trkpt>
      <trkpt lat="47.593563" lon="2.221776">
        <ele>174</ele>
        <time>2022-05-12T07:45:46Z</time>
      </trkpt>
      <trkpt lat="47.59357" lon="2.221787">
        <ele>174</ele>
        <time>2022-05-12T07:45:47Z</time>
      </trkpt>
      <trkpt lat="47.593575" lon="2.2217965">
        <ele>174</ele>
        <time>2022-05-12T07:45:48Z</time>
      </trkpt>
      <trkpt lat="47.593586" lon="2.221808">
        <ele>174</ele>
        <time>2022-05-12T07:45:49Z</time>
      </trkpt>
      <trkpt lat="47.593594" lon="2.221824">
        <ele>174</ele>
        <time>2022-05-12T07:45:50Z</time>
      </trkpt>
      <trkpt lat="47.5936" lon="2.221836">
        <ele>174</ele>
        <time>2022-05-12T07:45:51Z</time>
      </trkpt>
      <trkpt lat="47.59361" lon="2.2218451">
        <ele>175</ele>
        <time>2022-05-12T07:45:52Z</time>
      </trkpt>
      <trkpt lat="47.593613" lon="2.2218597">
        <ele>175</ele>
        <time>2022-05-12T07:45:53Z</time>
      </trkpt>
      <trkpt lat="47.593624" lon="2.2218702">
        <ele>175</ele>
        <time>2022-05-12T07:45:54Z</time>
      </trkpt>
      <trkpt lat="47.593636" lon="2.221885">
        <ele>175</ele>
        <time>2022-05-12T07:45:55Z</time>
      </trkpt>
      <trkpt lat="47.593643" lon="2.2218988">
        <ele>174</ele>
        <time>2022-05-12T07:45:56Z</time>
      </trkpt>
      <trkpt lat="47.593655" lon="2.2219143">
        <ele>174</ele>
        <time>2022-05-12T07:45:57Z</time>
      </trkpt>
      <trkpt lat="47.593662" lon="2.2219324">
        <ele>173</ele>
        <time>2022-05-12T07:45:58Z</time>
      </trkpt>
      <trkpt lat="47.593666" lon="2.2219503">
        <ele>173</ele>
        <time>2022-05-12T07:45:59Z</time>
      </trkpt>
      <trkpt lat="47.593678" lon="2.221959">
        <ele>173</ele>
        <time>2022-05-12T07:46:00Z</time>
      </trkpt>
      <trkpt lat="47.593685" lon="2.22197">
        <ele>172</ele>
        <time>2022-05-12T07:46:01Z</time>
      </trkpt>
      <trkpt lat="47.593693" lon="2.2219841">
        <ele>172</ele>
        <time>2022-05-12T07:46:02Z</time>
      </trkpt>
      <trkpt lat="47.593697" lon="2.222002">
        <ele>172</ele>
        <time>2022-05-12T07:46:03Z</time>
      </trkpt>
      <trkpt lat="47.593704" lon="2.2220185">
        <ele>171</ele>
        <time>2022-05-12T07:46:04Z</time>
      </trkpt>
      <trkpt lat="47.593704" lon="2.2220318">
        <ele>171</ele>
        <time>2022-05-12T07:46:05Z</time>
      </trkpt>
      <trkpt lat="47.59371" lon="2.222045">
        <ele>171</ele>
        <time>2022-05-12T07:46:06Z</time>
      </trkpt>
      <trkpt lat="47.593723" lon="2.2220583">
        <ele>171</ele>
        <time>2022-05-12T07:46:07Z</time>
      </trkpt>
      <trkpt lat="47.59373" lon="2.2220705">
        <ele>171</ele>
        <time>2022-05-12T07:46:08Z</time>
      </trkpt>
      <trkpt lat="47.59374" lon="2.222083">
        <ele>172</ele>
        <time>2022-05-12T07:46:09Z</time>
      </trkpt>
      <trkpt lat="47.593742" lon="2.2220957">
        <ele>171</ele>
        <time>2022-05-12T07:46:10Z</time>
      </trkpt>
      <trkpt lat="47.59375" lon="2.2221088">
        <ele>171</ele>
        <time>2022-05-12T07:46:11Z</time>
      </trkpt>
      <trkpt lat="47.593754" lon="2.2221231">
        <ele>170</ele>
        <time>2022-05-12T07:46:12Z</time>
      </trkpt>
      <trkpt lat="47.59376" lon="2.2221332">
        <ele>171</ele>
        <time>2022-05-12T07:46:13Z</time>
      </trkpt>
      <trkpt lat="47.593765" lon="2.2221453">
        <ele>171</ele>
        <time>2022-05-12T07:46:14Z</time>
      </trkpt>
      <trkpt lat="47.593773" lon="2.222161">
        <ele>170</ele>
        <time>2022-05-12T07:46:15Z</time>
      </trkpt>
      <trkpt lat="47.59378" lon="2.2221754">
        <ele>170</ele>
        <time>2022-05-12T07:46:16Z</time>
      </trkpt>
      <trkpt lat="47.59379" lon="2.2221851">
        <ele>170</ele>
        <time>2022-05-12T07:46:17Z</time>
      </trkpt>
      <trkpt lat="47.593792" lon="2.2221994">
        <ele>170</ele>
        <time>2022-05-12T07:46:18Z</time>
      </trkpt>
      <trkpt lat="47.5938" lon="2.222209">
        <ele>170</ele>
        <time>2022-05-12T07:46:19Z</time>
      </trkpt>
      <trkpt lat="47.593807" lon="2.2222147">
        <ele>170</ele>
        <time>2022-05-12T07:46:20Z</time>
      </trkpt>
      <trkpt lat="47.59381" lon="2.2222252">
        <ele>170</ele>
        <time>2022-05-12T07:46:21Z</time>
      </trkpt>
      <trkpt lat="47.59382" lon="2.2222352">
        <ele>171</ele>
        <time>2022-05-12T07:46:22Z</time>
      </trkpt>
      <trkpt lat="47.593826" lon="2.2222476">
        <ele>171</ele>
        <time>2022-05-12T07:46:23Z</time>
      </trkpt>
      <trkpt lat="47.593838" lon="2.2222586">
        <ele>171</ele>
        <time>2022-05-12T07:46:24Z</time>
      </trkpt>
      <trkpt lat="47.593845" lon="2.2222688">
        <ele>171</ele>
        <time>2022-05-12T07:46:25Z</time>
      </trkpt>
      <trkpt lat="47.593853" lon="2.222285">
        <ele>171</ele>
        <time>2022-05-12T07:46:26Z</time>
      </trkpt>
      <trkpt lat="47.59386" lon="2.2223017">
        <ele>171</ele>
        <time>2022-05-12T07:46:27Z</time>
      </trkpt>
      <trkpt lat="47.593864" lon="2.2223191">
        <ele>171</ele>
        <time>2022-05-12T07:46:28Z</time>
      </trkpt>
      <trkpt lat="47.593872" lon="2.2223358">
        <ele>171</ele>
        <time>2022-05-12T07:46:29Z</time>
      </trkpt>
      <trkpt lat="47.59388" lon="2.2223492">
        <ele>172</ele>
        <time>2022-05-12T07:46:30Z</time>
      </trkpt>
      <trkpt lat="47.593884" lon="2.2223587">
        <ele>171</ele>
        <time>2022-05-12T07:46:31Z</time>
      </trkpt>
      <trkpt lat="47.59389" lon="2.2223682">
        <ele>171</ele>
        <time>2022-05-12T07:46:32Z</time>
      </trkpt>
      <trkpt lat="47.5939" lon="2.222378">
        <ele>171</ele>
        <time>2022-05-12T07:46:33Z</time>
      </trkpt>
      <trkpt lat="47.593903" lon="2.2223916">
        <ele>171</ele>
        <time>2022-05-12T07:46:34Z</time>
      </trkpt>
      <trkpt lat="47.59391" lon="2.2224033">
        <ele>171</ele>
        <time>2022-05-12T07:46:35Z</time>
      </trkpt>
      <trkpt lat="47.593914" lon="2.2224197">
        <ele>171</ele>
        <time>2022-05-12T07:46:36Z</time>
      </trkpt>
      <trkpt lat="47.59392" lon="2.2224317">
        <ele>172</ele>
        <time>2022-05-12T07:46:37Z</time>
      </trkpt>
      <trkpt lat="47.593933" lon="2.222443">
        <ele>172</ele>
        <time>2022-05-12T07:46:38Z</time>
      </trkpt>
      <trkpt lat="47.59394" lon="2.2224543">
        <ele>172</ele>
        <time>2022-05-12T07:46:39Z</time>
      </trkpt>
      <trkpt lat="47.59395" lon="2.2224646">
        <ele>172</ele>
        <time>2022-05-12T07:46:40Z</time>
      </trkpt>
      <trkpt lat="47.593952" lon="2.2224739">
        <ele>171</ele>
        <time>2022-05-12T07:46:41Z</time>
      </trkpt>
      <trkpt lat="47.593956" lon="2.222488">
        <ele>171</ele>
        <time>2022-05-12T07:46:42Z</time>
      </trkpt>
      <trkpt lat="47.593967" lon="2.2225056">
        <ele>172</ele>
        <time>2022-05-12T07:46:43Z</time>
      </trkpt>
      <trkpt lat="47.59398" lon="2.2225184">
        <ele>171</ele>
        <time>2022-05-12T07:46:44Z</time>
      </trkpt>
      <trkpt lat="47.593983" lon="2.2225368">
        <ele>172</ele>
        <time>2022-05-12T07:46:45Z</time>
      </trkpt>
      <trkpt lat="47.593994" lon="2.2225542">
        <ele>172</ele>
        <time>2022-05-12T07:46:46Z</time>
      </trkpt>
      <trkpt lat="47.594006" lon="2.2225726">
        <ele>172</ele>
        <time>2022-05-12T07:46:47Z</time>
      </trkpt>
      <trkpt lat="47.594013" lon="2.222585">
        <ele>173</ele>
        <time>2022-05-12T07:46:48Z</time>
      </trkpt>
      <trkpt lat="47.59402" lon="2.2225978">
        <ele>173</ele>
        <time>2022-05-12T07:46:49Z</time>
      </trkpt>
      <trkpt lat="47.59403" lon="2.222611">
        <ele>173</ele>
        <time>2022-05-12T07:46:50Z</time>
      </trkpt>
      <trkpt lat="47.59404" lon="2.2226264">
        <ele>173</ele>
        <time>2022-05-12T07:46:51Z</time>
      </trkpt>
      <trkpt lat="47.594048" lon="2.2226427">
        <ele>173</ele>
        <time>2022-05-12T07:46:52Z</time>
      </trkpt>
      <trkpt lat="47.59406" lon="2.22266">
        <ele>174</ele>
        <time>2022-05-12T07:46:53Z</time>
      </trkpt>
      <trkpt lat="47.59407" lon="2.2226765">
        <ele>174</ele>
        <time>2022-05-12T07:46:54Z</time>
      </trkpt>
      <trkpt lat="47.594074" lon="2.2226882">
        <ele>174</ele>
        <time>2022-05-12T07:46:55Z</time>
      </trkpt>
      <trkpt lat="47.594078" lon="2.222702">
        <ele>174</ele>
        <time>2022-05-12T07:46:56Z</time>
      </trkpt>
      <trkpt lat="47.59409" lon="2.2227135">
        <ele>174</ele>
        <time>2022-05-12T07:46:57Z</time>
      </trkpt>
      <trkpt lat="47.5941" lon="2.222723">
        <ele>174</ele>
        <time>2022-05-12T07:46:58Z</time>
      </trkpt>
      <trkpt lat="47.59411" lon="2.2227345">
        <ele>174</ele>
        <time>2022-05-12T07:46:59Z</time>
      </trkpt>
      <trkpt lat="47.594116" lon="2.222747">
        <ele>174</ele>
        <time>2022-05-12T07:47:00Z</time>
      </trkpt>
      <trkpt lat="47.594124" lon="2.2227614">
        <ele>174</ele>
        <time>2022-05-12T07:47:01Z</time>
      </trkpt>
      <trkpt lat="47.59413" lon="2.2227721">
        <ele>174</ele>
        <time>2022-05-12T07:47:02Z</time>
      </trkpt>
      <trkpt lat="47.594143" lon="2.2227883">
        <ele>174</ele>
        <time>2022-05-12T07:47:03Z</time>
      </trkpt>
      <trkpt lat="47.59415" lon="2.2228012">
        <ele>174</ele>
        <time>2022-05-12T07:47:04Z</time>
      </trkpt>
      <trkpt lat="47.594162" lon="2.2228146">
        <ele>174</ele>
        <time>2022-05-12T07:47:05Z</time>
      </trkpt>
      <trkpt lat="47.59417" lon="2.2228286">
        <ele>174</ele>
        <time>2022-05-12T07:47:06Z</time>
      </trkpt>
      <trkpt lat="47.594177" lon="2.2228441">
        <ele>174</ele>
        <time>2022-05-12T07:47:07Z</time>
      </trkpt>
      <trkpt lat="47.59419" lon="2.222862">
        <ele>174</ele>
        <time>2022-05-12T07:47:08Z</time>
      </trkpt>
      <trkpt lat="47.594196" lon="2.2228734">
        <ele>174</ele>
        <time>2022-05-12T07:47:09Z</time>
      </trkpt>
      <trkpt lat="47.594204" lon="2.2228897">
        <ele>174</ele>
        <time>2022-05-12T07:47:10Z</time>
      </trkpt>
      <trkpt lat="47.594208" lon="2.2229075">
        <ele>174</ele>
        <time>2022-05-12T07:47:11Z</time>
      </trkpt>
      <trkpt lat="47.594215" lon="2.2229197">
        <ele>174</ele>
        <time>2022-05-12T07:47:12Z</time>
      </trkpt>
      <trkpt lat="47.59422" lon="2.2229335">
        <ele>173</ele>
        <time>2022-05-12T07:47:13Z</time>
      </trkpt>
      <trkpt lat="47.59422" lon="2.2229335">
        <ele>173</ele>
        <time>2022-05-12T07:47:14Z</time>
      </trkpt>
      <trkpt lat="47.59423" lon="2.222957">
        <ele>173</ele>
        <time>2022-05-12T07:47:15Z</time>
      </trkpt>
      <trkpt lat="47.594242" lon="2.2229745">
        <ele>173</ele>
        <time>2022-05-12T07:47:16Z</time>
      </trkpt>
      <trkpt lat="47.594246" lon="2.2229898">
        <ele>173</ele>
        <time>2022-05-12T07:47:17Z</time>
      </trkpt>
      <trkpt lat="47.594257" lon="2.2230015">
        <ele>172</ele>
        <time>2022-05-12T07:47:18Z</time>
      </trkpt>
      <trkpt lat="47.594273" lon="2.2230182">
        <ele>172</ele>
        <time>2022-05-12T07:47:19Z</time>
      </trkpt>
      <trkpt lat="47.594284" lon="2.2230365">
        <ele>171</ele>
        <time>2022-05-12T07:47:20Z</time>
      </trkpt>
      <trkpt lat="47.594288" lon="2.2230506">
        <ele>171</ele>
        <time>2022-05-12T07:47:21Z</time>
      </trkpt>
      <trkpt lat="47.594296" lon="2.2230606">
        <ele>171</ele>
        <time>2022-05-12T07:47:22Z</time>
      </trkpt>
      <trkpt lat="47.5943" lon="2.223074">
        <ele>171</ele>
        <time>2022-05-12T07:47:23Z</time>
      </trkpt>
      <trkpt lat="47.594307" lon="2.2230892">
        <ele>171</ele>
        <time>2022-05-12T07:47:24Z</time>
      </trkpt>
      <trkpt lat="47.59432" lon="2.223109">
        <ele>171</ele>
        <time>2022-05-12T07:47:25Z</time>
      </trkpt>
      <trkpt lat="47.594326" lon="2.2231264">
        <ele>171</ele>
        <time>2022-05-12T07:47:26Z</time>
      </trkpt>
      <trkpt lat="47.594337" lon="2.2231421">
        <ele>171</ele>
        <time>2022-05-12T07:47:27Z</time>
      </trkpt>
      <trkpt lat="47.59435" lon="2.2231555">
        <ele>171</ele>
        <time>2022-05-12T07:47:28Z</time>
      </trkpt>
      <trkpt lat="47.594357" lon="2.2231693">
        <ele>171</ele>
        <time>2022-05-12T07:47:29Z</time>
      </trkpt>
      <trkpt lat="47.59436" lon="2.2231812">
        <ele>171</ele>
        <time>2022-05-12T07:47:30Z</time>
      </trkpt>
      <trkpt lat="47.59437" lon="2.2231965">
        <ele>171</ele>
        <time>2022-05-12T07:47:31Z</time>
      </trkpt>
      <trkpt lat="47.59438" lon="2.2232065">
        <ele>171</ele>
        <time>2022-05-12T07:47:32Z</time>
      </trkpt>
      <trkpt lat="47.594387" lon="2.2232175">
        <ele>172</ele>
        <time>2022-05-12T07:47:33Z</time>
      </trkpt>
      <trkpt lat="47.594395" lon="2.223232">
        <ele>172</ele>
        <time>2022-05-12T07:47:34Z</time>
      </trkpt>
      <trkpt lat="47.594402" lon="2.223243">
        <ele>172</ele>
        <time>2022-05-12T07:47:35Z</time>
      </trkpt>
      <trkpt lat="47.59441" lon="2.2232559">
        <ele>173</ele>
        <time>2022-05-12T07:47:36Z</time>
      </trkpt>
      <trkpt lat="47.594418" lon="2.2232695">
        <ele>174</ele>
        <time>2022-05-12T07:47:37Z</time>
      </trkpt>
      <trkpt lat="47.594425" lon="2.2232773">
        <ele>174</ele>
        <time>2022-05-12T07:47:38Z</time>
      </trkpt>
      <trkpt lat="47.594433" lon="2.223289">
        <ele>174</ele>
        <time>2022-05-12T07:47:39Z</time>
      </trkpt>
      <trkpt lat="47.59444" lon="2.2233038">
        <ele>174</ele>
        <time>2022-05-12T07:47:40Z</time>
      </trkpt>
      <trkpt lat="47.59445" lon="2.2233183">
        <ele>174</ele>
        <time>2022-05-12T07:47:41Z</time>
      </trkpt>
      <trkpt lat="47.59446" lon="2.223335">
        <ele>174</ele>
        <time>2022-05-12T07:47:42Z</time>
      </trkpt>
      <trkpt lat="47.594467" lon="2.2233517">
        <ele>174</ele>
        <time>2022-05-12T07:47:43Z</time>
      </trkpt>
      <trkpt lat="47.59448" lon="2.223367">
        <ele>175</ele>
        <time>2022-05-12T07:47:44Z</time>
      </trkpt>
      <trkpt lat="47.594486" lon="2.223381">
        <ele>175</ele>
        <time>2022-05-12T07:47:45Z</time>
      </trkpt>
      <trkpt lat="47.594494" lon="2.2233937">
        <ele>174</ele>
        <time>2022-05-12T07:47:46Z</time>
      </trkpt>
      <trkpt lat="47.5945" lon="2.223403">
        <ele>174</ele>
        <time>2022-05-12T07:47:47Z</time>
      </trkpt>
      <trkpt lat="47.594505" lon="2.2234106">
        <ele>174</ele>
        <time>2022-05-12T07:47:48Z</time>
      </trkpt>
      <trkpt lat="47.594513" lon="2.223419">
        <ele>174</ele>
        <time>2022-05-12T07:47:49Z</time>
      </trkpt>
      <trkpt lat="47.59452" lon="2.2234285">
        <ele>174</ele>
        <time>2022-05-12T07:47:50Z</time>
      </trkpt>
      <trkpt lat="47.59453" lon="2.2234426">
        <ele>175</ele>
        <time>2022-05-12T07:47:51Z</time>
      </trkpt>
      <trkpt lat="47.594536" lon="2.2234545">
        <ele>175</ele>
        <time>2022-05-12T07:47:52Z</time>
      </trkpt>
      <trkpt lat="47.594543" lon="2.2234664">
        <ele>175</ele>
        <time>2022-05-12T07:47:53Z</time>
      </trkpt>
      <trkpt lat="47.59455" lon="2.223478">
        <ele>176</ele>
        <time>2022-05-12T07:47:54Z</time>
      </trkpt>
      <trkpt lat="47.594563" lon="2.2234905">
        <ele>176</ele>
        <time>2022-05-12T07:47:55Z</time>
      </trkpt>
      <trkpt lat="47.59457" lon="2.2235026">
        <ele>176</ele>
        <time>2022-05-12T07:47:56Z</time>
      </trkpt>
      <trkpt lat="47.594578" lon="2.2235115">
        <ele>175</ele>
        <time>2022-05-12T07:47:57Z</time>
      </trkpt>
      <trkpt lat="47.59458" lon="2.2235258">
        <ele>175</ele>
        <time>2022-05-12T07:47:58Z</time>
      </trkpt>
      <trkpt lat="47.59459" lon="2.2235444">
        <ele>175</ele>
        <time>2022-05-12T07:47:59Z</time>
      </trkpt>
      <trkpt lat="47.594597" lon="2.223561">
        <ele>175</ele>
        <time>2022-05-12T07:48:00Z</time>
      </trkpt>
      <trkpt lat="47.59461" lon="2.2235725">
        <ele>175</ele>
        <time>2022-05-12T07:48:01Z</time>
      </trkpt>
      <trkpt lat="47.594616" lon="2.2235863">
        <ele>175</ele>
        <time>2022-05-12T07:48:02Z</time>
      </trkpt>
      <trkpt lat="47.594627" lon="2.2236016">
        <ele>175</ele>
        <time>2022-05-12T07:48:03Z</time>
      </trkpt>
      <trkpt lat="47.594635" lon="2.2236154">
        <ele>176</ele>
        <time>2022-05-12T07:48:04Z</time>
      </trkpt>
      <trkpt lat="47.594643" lon="2.2236319">
        <ele>176</ele>
        <time>2022-05-12T07:48:05Z</time>
      </trkpt>
      <trkpt lat="47.594654" lon="2.2236454">
        <ele>176</ele>
        <time>2022-05-12T07:48:06Z</time>
      </trkpt>
      <trkpt lat="47.59466" lon="2.223659">
        <ele>176</ele>
        <time>2022-05-12T07:48:07Z</time>
      </trkpt>
      <trkpt lat="47.59467" lon="2.2236712">
        <ele>176</ele>
        <time>2022-05-12T07:48:08Z</time>
      </trkpt>
      <trkpt lat="47.594673" lon="2.2236784">
        <ele>176</ele>
        <time>2022-05-12T07:48:09Z</time>
      </trkpt>
      <trkpt lat="47.594685" lon="2.223686">
        <ele>176</ele>
        <time>2022-05-12T07:48:10Z</time>
      </trkpt>
      <trkpt lat="47.594692" lon="2.2236974">
        <ele>176</ele>
        <time>2022-05-12T07:48:11Z</time>
      </trkpt>
      <trkpt lat="47.594696" lon="2.22371">
        <ele>176</ele>
        <time>2022-05-12T07:48:12Z</time>
      </trkpt>
      <trkpt lat="47.594704" lon="2.2237232">
        <ele>176</ele>
        <time>2022-05-12T07:48:13Z</time>
      </trkpt>
      <trkpt lat="47.594707" lon="2.2237322">
        <ele>175</ele>
        <time>2022-05-12T07:48:14Z</time>
      </trkpt>
      <trkpt lat="47.594715" lon="2.223745">
        <ele>175</ele>
        <time>2022-05-12T07:48:15Z</time>
      </trkpt>
      <trkpt lat="47.594723" lon="2.2237582">
        <ele>175</ele>
        <time>2022-05-12T07:48:16Z</time>
      </trkpt>
      <trkpt lat="47.59473" lon="2.223771">
        <ele>175</ele>
        <time>2022-05-12T07:48:17Z</time>
      </trkpt>
      <trkpt lat="47.594738" lon="2.2237818">
        <ele>176</ele>
        <time>2022-05-12T07:48:18Z</time>
      </trkpt>
      <trkpt lat="47.594746" lon="2.223793">
        <ele>176</ele>
        <time>2022-05-12T07:48:19Z</time>
      </trkpt>
      <trkpt lat="47.594753" lon="2.2238061">
        <ele>177</ele>
        <time>2022-05-12T07:48:20Z</time>
      </trkpt>
      <trkpt lat="47.594757" lon="2.2238173">
        <ele>177</ele>
        <time>2022-05-12T07:48:21Z</time>
      </trkpt>
      <trkpt lat="47.594765" lon="2.2238314">
        <ele>177</ele>
        <time>2022-05-12T07:48:22Z</time>
      </trkpt>
      <trkpt lat="47.594772" lon="2.2238457">
        <ele>176</ele>
        <time>2022-05-12T07:48:23Z</time>
      </trkpt>
      <trkpt lat="47.59478" lon="2.223855">
        <ele>176</ele>
        <time>2022-05-12T07:48:24Z</time>
      </trkpt>
      <trkpt lat="47.594788" lon="2.223866">
        <ele>176</ele>
        <time>2022-05-12T07:48:25Z</time>
      </trkpt>
      <trkpt lat="47.594795" lon="2.2238767">
        <ele>176</ele>
        <time>2022-05-12T07:48:26Z</time>
      </trkpt>
      <trkpt lat="47.5948" lon="2.2238905">
        <ele>176</ele>
        <time>2022-05-12T07:48:27Z</time>
      </trkpt>
      <trkpt lat="47.594803" lon="2.2239068">
        <ele>176</ele>
        <time>2022-05-12T07:48:28Z</time>
      </trkpt>
      <trkpt lat="47.594814" lon="2.2239206">
        <ele>176</ele>
        <time>2022-05-12T07:48:29Z</time>
      </trkpt>
      <trkpt lat="47.594822" lon="2.223937">
        <ele>175</ele>
        <time>2022-05-12T07:48:30Z</time>
      </trkpt>
      <trkpt lat="47.594826" lon="2.2239501">
        <ele>175</ele>
        <time>2022-05-12T07:48:31Z</time>
      </trkpt>
      <trkpt lat="47.594833" lon="2.2239642">
        <ele>175</ele>
        <time>2022-05-12T07:48:32Z</time>
      </trkpt>
      <trkpt lat="47.59484" lon="2.2239785">
        <ele>175</ele>
        <time>2022-05-12T07:48:33Z</time>
      </trkpt>
      <trkpt lat="47.59485" lon="2.2239919">
        <ele>175</ele>
        <time>2022-05-12T07:48:34Z</time>
      </trkpt>
      <trkpt lat="47.59486" lon="2.2240038">
        <ele>175</ele>
        <time>2022-05-12T07:48:35Z</time>
      </trkpt>
      <trkpt lat="47.59487" lon="2.2240205">
        <ele>174</ele>
        <time>2022-05-12T07:48:36Z</time>
      </trkpt>
      <trkpt lat="47.594875" lon="2.224035">
        <ele>174</ele>
        <time>2022-05-12T07:48:37Z</time>
      </trkpt>
      <trkpt lat="47.59488" lon="2.2240527">
        <ele>174</ele>
        <time>2022-05-12T07:48:38Z</time>
      </trkpt>
      <trkpt lat="47.594887" lon="2.2240605">
        <ele>174</ele>
        <time>2022-05-12T07:48:39Z</time>
      </trkpt>
      <trkpt lat="47.594894" lon="2.2240736">
        <ele>174</ele>
        <time>2022-05-12T07:48:40Z</time>
      </trkpt>
      <trkpt lat="47.594902" lon="2.2240913">
        <ele>174</ele>
        <time>2022-05-12T07:48:41Z</time>
      </trkpt>
      <trkpt lat="47.59491" lon="2.2241035">
        <ele>174</ele>
        <time>2022-05-12T07:48:42Z</time>
      </trkpt>
      <trkpt lat="47.59492" lon="2.2241182">
        <ele>174</ele>
        <time>2022-05-12T07:48:43Z</time>
      </trkpt>
      <trkpt lat="47.59493" lon="2.224136">
        <ele>174</ele>
        <time>2022-05-12T07:48:44Z</time>
      </trkpt>
      <trkpt lat="47.594936" lon="2.2241552">
        <ele>175</ele>
        <time>2022-05-12T07:48:45Z</time>
      </trkpt>
      <trkpt lat="47.594944" lon="2.2241702">
        <ele>175</ele>
        <time>2022-05-12T07:48:46Z</time>
      </trkpt>
      <trkpt lat="47.594948" lon="2.2241845">
        <ele>174</ele>
        <time>2022-05-12T07:48:47Z</time>
      </trkpt>
      <trkpt lat="47.59495" lon="2.2241995">
        <ele>174</ele>
        <time>2022-05-12T07:48:48Z</time>
      </trkpt>
      <trkpt lat="47.59496" lon="2.2242103">
        <ele>174</ele>
        <time>2022-05-12T07:48:49Z</time>
      </trkpt>
      <trkpt lat="47.594967" lon="2.224226">
        <ele>175</ele>
        <time>2022-05-12T07:48:50Z</time>
      </trkpt>
      <trkpt lat="47.594975" lon="2.2242413">
        <ele>175</ele>
        <time>2022-05-12T07:48:51Z</time>
      </trkpt>
      <trkpt lat="47.594982" lon="2.2242527">
        <ele>175</ele>
        <time>2022-05-12T07:48:52Z</time>
      </trkpt>
      <trkpt lat="47.59499" lon="2.2242641">
        <ele>174</ele>
        <time>2022-05-12T07:48:53Z</time>
      </trkpt>
      <trkpt lat="47.594994" lon="2.224275">
        <ele>175</ele>
        <time>2022-05-12T07:48:54Z</time>
      </trkpt>
      <trkpt lat="47.595005" lon="2.224286">
        <ele>175</ele>
        <time>2022-05-12T07:48:55Z</time>
      </trkpt>
      <trkpt lat="47.595013" lon="2.2242973">
        <ele>174</ele>
        <time>2022-05-12T07:48:56Z</time>
      </trkpt>
      <trkpt lat="47.595024" lon="2.224312">
        <ele>174</ele>
        <time>2022-05-12T07:48:57Z</time>
      </trkpt>
      <trkpt lat="47.595028" lon="2.2243276">
        <ele>174</ele>
        <time>2022-05-12T07:48:58Z</time>
      </trkpt>
      <trkpt lat="47.59504" lon="2.224344">
        <ele>175</ele>
        <time>2022-05-12T07:48:59Z</time>
      </trkpt>
      <trkpt lat="47.59505" lon="2.2243571">
        <ele>175</ele>
        <time>2022-05-12T07:49:00Z</time>
      </trkpt>
      <trkpt lat="47.595062" lon="2.2243698">
        <ele>175</ele>
        <time>2022-05-12T07:49:01Z</time>
      </trkpt>
      <trkpt lat="47.59507" lon="2.2243779">
        <ele>175</ele>
        <time>2022-05-12T07:49:02Z</time>
      </trkpt>
      <trkpt lat="47.59508" lon="2.2243888">
        <ele>175</ele>
        <time>2022-05-12T07:49:03Z</time>
      </trkpt>
      <trkpt lat="47.59509" lon="2.2244034">
        <ele>175</ele>
        <time>2022-05-12T07:49:04Z</time>
      </trkpt>
      <trkpt lat="47.595097" lon="2.224414">
        <ele>174</ele>
        <time>2022-05-12T07:49:05Z</time>
      </trkpt>
      <trkpt lat="47.595104" lon="2.2244277">
        <ele>174</ele>
        <time>2022-05-12T07:49:06Z</time>
      </trkpt>
      <trkpt lat="47.595108" lon="2.2244377">
        <ele>174</ele>
        <time>2022-05-12T07:49:07Z</time>
      </trkpt>
      <trkpt lat="47.595116" lon="2.2244473">
        <ele>173</ele>
        <time>2022-05-12T07:49:08Z</time>
      </trkpt>
      <trkpt lat="47.595123" lon="2.2244601">
        <ele>174</ele>
        <time>2022-05-12T07:49:09Z</time>
      </trkpt>
      <trkpt lat="47.595127" lon="2.2244756">
        <ele>174</ele>
        <time>2022-05-12T07:49:10Z</time>
      </trkpt>
      <trkpt lat="47.59514" lon="2.224488">
        <ele>174</ele>
        <time>2022-05-12T07:49:11Z</time>
      </trkpt>
      <trkpt lat="47.595146" lon="2.2245047">
        <ele>174</ele>
        <time>2022-05-12T07:49:12Z</time>
      </trkpt>
      <trkpt lat="47.595154" lon="2.2245176">
        <ele>175</ele>
        <time>2022-05-12T07:49:13Z</time>
      </trkpt>
      <trkpt lat="47.59516" lon="2.2245324">
        <ele>175</ele>
        <time>2022-05-12T07:49:14Z</time>
      </trkpt>
      <trkpt lat="47.595165" lon="2.224541">
        <ele>174</ele>
        <time>2022-05-12T07:49:15Z</time>
      </trkpt>
      <trkpt lat="47.59517" lon="2.224555">
        <ele>174</ele>
        <time>2022-05-12T07:49:16Z</time>
      </trkpt>
      <trkpt lat="47.595173" lon="2.224567">
        <ele>175</ele>
        <time>2022-05-12T07:49:17Z</time>
      </trkpt>
      <trkpt lat="47.59518" lon="2.2245772">
        <ele>175</ele>
        <time>2022-05-12T07:49:18Z</time>
      </trkpt>
      <trkpt lat="47.595192" lon="2.2245874">
        <ele>175</ele>
        <time>2022-05-12T07:49:19Z</time>
      </trkpt>
      <trkpt lat="47.595203" lon="2.224597">
        <ele>175</ele>
        <time>2022-05-12T07:49:20Z</time>
      </trkpt>
      <trkpt lat="47.59521" lon="2.224604">
        <ele>175</ele>
        <time>2022-05-12T07:49:21Z</time>
      </trkpt>
      <trkpt lat="47.595215" lon="2.2246156">
        <ele>175</ele>
        <time>2022-05-12T07:49:22Z</time>
      </trkpt>
      <trkpt lat="47.59522" lon="2.2246258">
        <ele>176</ele>
        <time>2022-05-12T07:49:23Z</time>
      </trkpt>
      <trkpt lat="47.595226" lon="2.22464">
        <ele>176</ele>
        <time>2022-05-12T07:49:24Z</time>
      </trkpt>
      <trkpt lat="47.595234" lon="2.224652">
        <ele>175</ele>
        <time>2022-05-12T07:49:25Z</time>
      </trkpt>
      <trkpt lat="47.595238" lon="2.224665">
        <ele>175</ele>
        <time>2022-05-12T07:49:26Z</time>
      </trkpt>
      <trkpt lat="47.595245" lon="2.224677">
        <ele>175</ele>
        <time>2022-05-12T07:49:27Z</time>
      </trkpt>
      <trkpt lat="47.59525" lon="2.2246952">
        <ele>175</ele>
        <time>2022-05-12T07:49:28Z</time>
      </trkpt>
      <trkpt lat="47.59526" lon="2.2247083">
        <ele>175</ele>
        <time>2022-05-12T07:49:29Z</time>
      </trkpt>
      <trkpt lat="47.595264" lon="2.2247262">
        <ele>175</ele>
        <time>2022-05-12T07:49:30Z</time>
      </trkpt>
      <trkpt lat="47.595272" lon="2.224748">
        <ele>174</ele>
        <time>2022-05-12T07:49:31Z</time>
      </trkpt>
      <trkpt lat="47.59528" lon="2.2247646">
        <ele>174</ele>
        <time>2022-05-12T07:49:32Z</time>
      </trkpt>
      <trkpt lat="47.59529" lon="2.2247803">
        <ele>174</ele>
        <time>2022-05-12T07:49:33Z</time>
      </trkpt>
      <trkpt lat="47.5953" lon="2.2247949">
        <ele>174</ele>
        <time>2022-05-12T07:49:34Z</time>
      </trkpt>
      <trkpt lat="47.595306" lon="2.2248065">
        <ele>174</ele>
        <time>2022-05-12T07:49:35Z</time>
      </trkpt>
      <trkpt lat="47.595314" lon="2.2248185">
        <ele>174</ele>
        <time>2022-05-12T07:49:36Z</time>
      </trkpt>
      <trkpt lat="47.59532" lon="2.2248297">
        <ele>174</ele>
        <time>2022-05-12T07:49:37Z</time>
      </trkpt>
      <trkpt lat="47.59533" lon="2.2248385">
        <ele>175</ele>
        <time>2022-05-12T07:49:38Z</time>
      </trkpt>
      <trkpt lat="47.595337" lon="2.224848">
        <ele>175</ele>
        <time>2022-05-12T07:49:39Z</time>
      </trkpt>
      <trkpt lat="47.59534" lon="2.2248588">
        <ele>175</ele>
        <time>2022-05-12T07:49:40Z</time>
      </trkpt>
      <trkpt lat="47.59535" lon="2.2248697">
        <ele>175</ele>
        <time>2022-05-12T07:49:41Z</time>
      </trkpt>
      <trkpt lat="47.595356" lon="2.224882">
        <ele>175</ele>
        <time>2022-05-12T07:49:42Z</time>
      </trkpt>
      <trkpt lat="47.59536" lon="2.2248926">
        <ele>175</ele>
        <time>2022-05-12T07:49:43Z</time>
      </trkpt>
      <trkpt lat="47.59537" lon="2.2249045">
        <ele>175</ele>
        <time>2022-05-12T07:49:44Z</time>
      </trkpt>
      <trkpt lat="47.595375" lon="2.2249155">
        <ele>175</ele>
        <time>2022-05-12T07:49:45Z</time>
      </trkpt>
      <trkpt lat="47.595383" lon="2.2249284">
        <ele>175</ele>
        <time>2022-05-12T07:49:46Z</time>
      </trkpt>
      <trkpt lat="47.59539" lon="2.2249386">
        <ele>175</ele>
        <time>2022-05-12T07:49:47Z</time>
      </trkpt>
      <trkpt lat="47.595398" lon="2.2249484">
        <ele>175</ele>
        <time>2022-05-12T07:49:48Z</time>
      </trkpt>
      <trkpt lat="47.59541" lon="2.2249572">
        <ele>175</ele>
        <time>2022-05-12T07:49:49Z</time>
      </trkpt>
      <trkpt lat="47.59542" lon="2.2249684">
        <ele>174</ele>
        <time>2022-05-12T07:49:50Z</time>
      </trkpt>
      <trkpt lat="47.59543" lon="2.224986">
        <ele>174</ele>
        <time>2022-05-12T07:49:51Z</time>
      </trkpt>
      <trkpt lat="47.595436" lon="2.225003">
        <ele>175</ele>
        <time>2022-05-12T07:49:52Z</time>
      </trkpt>
      <trkpt lat="47.595444" lon="2.2250183">
        <ele>174</ele>
        <time>2022-05-12T07:49:53Z</time>
      </trkpt>
      <trkpt lat="47.59545" lon="2.2250276">
        <ele>174</ele>
        <time>2022-05-12T07:49:54Z</time>
      </trkpt>
      <trkpt lat="47.59546" lon="2.2250369">
        <ele>174</ele>
        <time>2022-05-12T07:49:55Z</time>
      </trkpt>
      <trkpt lat="47.595467" lon="2.225047">
        <ele>174</ele>
        <time>2022-05-12T07:49:56Z</time>
      </trkpt>
      <trkpt lat="47.595478" lon="2.2250607">
        <ele>174</ele>
        <time>2022-05-12T07:49:57Z</time>
      </trkpt>
      <trkpt lat="47.59549" lon="2.2250748">
        <ele>174</ele>
        <time>2022-05-12T07:49:58Z</time>
      </trkpt>
      <trkpt lat="47.595497" lon="2.225095">
        <ele>174</ele>
        <time>2022-05-12T07:49:59Z</time>
      </trkpt>
      <trkpt lat="47.59551" lon="2.2251134">
        <ele>174</ele>
        <time>2022-05-12T07:50:00Z</time>
      </trkpt>
      <trkpt lat="47.595516" lon="2.2251265">
        <ele>174</ele>
        <time>2022-05-12T07:50:01Z</time>
      </trkpt>
      <trkpt lat="47.59553" lon="2.2251406">
        <ele>174</ele>
        <time>2022-05-12T07:50:02Z</time>
      </trkpt>
      <trkpt lat="47.595543" lon="2.2251565">
        <ele>174</ele>
        <time>2022-05-12T07:50:03Z</time>
      </trkpt>
      <trkpt lat="47.59555" lon="2.225168">
        <ele>174</ele>
        <time>2022-05-12T07:50:04Z</time>
      </trkpt>
      <trkpt lat="47.595562" lon="2.225175">
        <ele>175</ele>
        <time>2022-05-12T07:50:05Z</time>
      </trkpt>
      <trkpt lat="47.595577" lon="2.2251832">
        <ele>175</ele>
        <time>2022-05-12T07:50:06Z</time>
      </trkpt>
      <trkpt lat="47.595585" lon="2.225196">
        <ele>174</ele>
        <time>2022-05-12T07:50:07Z</time>
      </trkpt>
      <trkpt lat="47.595592" lon="2.2252114">
        <ele>174</ele>
        <time>2022-05-12T07:50:08Z</time>
      </trkpt>
      <trkpt lat="47.5956" lon="2.225226">
        <ele>173</ele>
        <time>2022-05-12T07:50:09Z</time>
      </trkpt>
      <trkpt lat="47.595604" lon="2.2252378">
        <ele>173</ele>
        <time>2022-05-12T07:50:10Z</time>
      </trkpt>
      <trkpt lat="47.59561" lon="2.2252455">
        <ele>173</ele>
        <time>2022-05-12T07:50:11Z</time>
      </trkpt>
      <trkpt lat="47.59562" lon="2.2252543">
        <ele>173</ele>
        <time>2022-05-12T07:50:12Z</time>
      </trkpt>
      <trkpt lat="47.595627" lon="2.2252653">
        <ele>173</ele>
        <time>2022-05-12T07:50:13Z</time>
      </trkpt>
      <trkpt lat="47.595634" lon="2.225273">
        <ele>173</ele>
        <time>2022-05-12T07:50:14Z</time>
      </trkpt>
      <trkpt lat="47.595642" lon="2.2252874">
        <ele>173</ele>
        <time>2022-05-12T07:50:15Z</time>
      </trkpt>
      <trkpt lat="47.59565" lon="2.2253015">
        <ele>173</ele>
        <time>2022-05-12T07:50:16Z</time>
      </trkpt>
      <trkpt lat="47.595654" lon="2.2253158">
        <ele>173</ele>
        <time>2022-05-12T07:50:17Z</time>
      </trkpt>
      <trkpt lat="47.59566" lon="2.225329">
        <ele>172</ele>
        <time>2022-05-12T07:50:18Z</time>
      </trkpt>
      <trkpt lat="47.59567" lon="2.2253442">
        <ele>172</ele>
        <time>2022-05-12T07:50:19Z</time>
      </trkpt>
      <trkpt lat="47.595673" lon="2.225356">
        <ele>172</ele>
        <time>2022-05-12T07:50:20Z</time>
      </trkpt>
      <trkpt lat="47.59568" lon="2.225371">
        <ele>173</ele>
        <time>2022-05-12T07:50:21Z</time>
      </trkpt>
      <trkpt lat="47.595688" lon="2.2253878">
        <ele>173</ele>
        <time>2022-05-12T07:50:22Z</time>
      </trkpt>
      <trkpt lat="47.595695" lon="2.225404">
        <ele>172</ele>
        <time>2022-05-12T07:50:23Z</time>
      </trkpt>
      <trkpt lat="47.595703" lon="2.2254176">
        <ele>172</ele>
        <time>2022-05-12T07:50:24Z</time>
      </trkpt>
      <trkpt lat="47.59571" lon="2.225431">
        <ele>172</ele>
        <time>2022-05-12T07:50:25Z</time>
      </trkpt>
      <trkpt lat="47.595715" lon="2.2254424">
        <ele>172</ele>
        <time>2022-05-12T07:50:26Z</time>
      </trkpt>
      <trkpt lat="47.595722" lon="2.2254539">
        <ele>172</ele>
        <time>2022-05-12T07:50:27Z</time>
      </trkpt>
      <trkpt lat="47.595734" lon="2.2254698">
        <ele>172</ele>
        <time>2022-05-12T07:50:28Z</time>
      </trkpt>
      <trkpt lat="47.59574" lon="2.2254834">
        <ele>172</ele>
        <time>2022-05-12T07:50:29Z</time>
      </trkpt>
      <trkpt lat="47.595745" lon="2.2254982">
        <ele>172</ele>
        <time>2022-05-12T07:50:30Z</time>
      </trkpt>
      <trkpt lat="47.595757" lon="2.2255116">
        <ele>171</ele>
        <time>2022-05-12T07:50:31Z</time>
      </trkpt>
      <trkpt lat="47.595764" lon="2.2255282">
        <ele>171</ele>
        <time>2022-05-12T07:50:32Z</time>
      </trkpt>
      <trkpt lat="47.59577" lon="2.2255452">
        <ele>171</ele>
        <time>2022-05-12T07:50:33Z</time>
      </trkpt>
      <trkpt lat="47.595783" lon="2.225557">
        <ele>171</ele>
        <time>2022-05-12T07:50:34Z</time>
      </trkpt>
      <trkpt lat="47.59579" lon="2.2255735">
        <ele>172</ele>
        <time>2022-05-12T07:50:35Z</time>
      </trkpt>
      <trkpt lat="47.595795" lon="2.22559">
        <ele>172</ele>
        <time>2022-05-12T07:50:36Z</time>
      </trkpt>
      <trkpt lat="47.595806" lon="2.225608">
        <ele>172</ele>
        <time>2022-05-12T07:50:37Z</time>
      </trkpt>
      <trkpt lat="47.595814" lon="2.225625">
        <ele>172</ele>
        <time>2022-05-12T07:50:38Z</time>
      </trkpt>
      <trkpt lat="47.59582" lon="2.2256384">
        <ele>171</ele>
        <time>2022-05-12T07:50:39Z</time>
      </trkpt>
      <trkpt lat="47.595825" lon="2.2256467">
        <ele>172</ele>
        <time>2022-05-12T07:50:40Z</time>
      </trkpt>
      <trkpt lat="47.59583" lon="2.2256563">
        <ele>172</ele>
        <time>2022-05-12T07:50:41Z</time>
      </trkpt>
      <trkpt lat="47.595837" lon="2.2256649">
        <ele>172</ele>
        <time>2022-05-12T07:50:42Z</time>
      </trkpt>
      <trkpt lat="47.595844" lon="2.225677">
        <ele>171</ele>
        <time>2022-05-12T07:50:43Z</time>
      </trkpt>
      <trkpt lat="47.59585" lon="2.2256866">
        <ele>171</ele>
        <time>2022-05-12T07:50:44Z</time>
      </trkpt>
      <trkpt lat="47.595863" lon="2.2256954">
        <ele>172</ele>
        <time>2022-05-12T07:50:45Z</time>
      </trkpt>
      <trkpt lat="47.595875" lon="2.2257082">
        <ele>171</ele>
        <time>2022-05-12T07:50:46Z</time>
      </trkpt>
      <trkpt lat="47.595882" lon="2.2257185">
        <ele>171</ele>
        <time>2022-05-12T07:50:47Z</time>
      </trkpt>
      <trkpt lat="47.595886" lon="2.2257266">
        <ele>170</ele>
        <time>2022-05-12T07:50:48Z</time>
      </trkpt>
      <trkpt lat="47.595894" lon="2.225739">
        <ele>170</ele>
        <time>2022-05-12T07:50:49Z</time>
      </trkpt>
      <trkpt lat="47.5959" lon="2.2257488">
        <ele>170</ele>
        <time>2022-05-12T07:50:50Z</time>
      </trkpt>
      <trkpt lat="47.59591" lon="2.2257628">
        <ele>170</ele>
        <time>2022-05-12T07:50:51Z</time>
      </trkpt>
      <trkpt lat="47.59592" lon="2.2257795">
        <ele>170</ele>
        <time>2022-05-12T07:50:52Z</time>
      </trkpt>
      <trkpt lat="47.595932" lon="2.22579">
        <ele>171</ele>
        <time>2022-05-12T07:50:53Z</time>
      </trkpt>
      <trkpt lat="47.59594" lon="2.2258039">
        <ele>170</ele>
        <time>2022-05-12T07:50:54Z</time>
      </trkpt>
      <trkpt lat="47.595947" lon="2.2258139">
        <ele>170</ele>
        <time>2022-05-12T07:50:55Z</time>
      </trkpt>
      <trkpt lat="47.59596" lon="2.2258253">
        <ele>170</ele>
        <time>2022-05-12T07:50:56Z</time>
      </trkpt>
      <trkpt lat="47.595966" lon="2.2258394">
        <ele>170</ele>
        <time>2022-05-12T07:50:57Z</time>
      </trkpt>
      <trkpt lat="47.595974" lon="2.2258534">
        <ele>170</ele>
        <time>2022-05-12T07:50:58Z</time>
      </trkpt>
      <trkpt lat="47.59598" lon="2.2258637">
        <ele>170</ele>
        <time>2022-05-12T07:50:59Z</time>
      </trkpt>
      <trkpt lat="47.595993" lon="2.2258747">
        <ele>170</ele>
        <time>2022-05-12T07:51:00Z</time>
      </trkpt>
      <trkpt lat="47.596" lon="2.2258875">
        <ele>170</ele>
        <time>2022-05-12T07:51:01Z</time>
      </trkpt>
      <trkpt lat="47.596012" lon="2.2259014">
        <ele>171</ele>
        <time>2022-05-12T07:51:02Z</time>
      </trkpt>
      <trkpt lat="47.596024" lon="2.2259142">
        <ele>171</ele>
        <time>2022-05-12T07:51:03Z</time>
      </trkpt>
      <trkpt lat="47.59603" lon="2.225932">
        <ele>171</ele>
        <time>2022-05-12T07:51:04Z</time>
      </trkpt>
      <trkpt lat="47.59604" lon="2.225951">
        <ele>172</ele>
        <time>2022-05-12T07:51:05Z</time>
      </trkpt>
      <trkpt lat="47.596046" lon="2.2259636">
        <ele>171</ele>
        <time>2022-05-12T07:51:06Z</time>
      </trkpt>
      <trkpt lat="47.596058" lon="2.2259798">
        <ele>171</ele>
        <time>2022-05-12T07:51:07Z</time>
      </trkpt>
      <trkpt lat="47.59607" lon="2.2259958">
        <ele>171</ele>
        <time>2022-05-12T07:51:08Z</time>
      </trkpt>
      <trkpt lat="47.59608" lon="2.2260144">
        <ele>171</ele>
        <time>2022-05-12T07:51:09Z</time>
      </trkpt>
      <trkpt lat="47.59609" lon="2.2260323">
        <ele>171</ele>
        <time>2022-05-12T07:51:10Z</time>
      </trkpt>
      <trkpt lat="47.596096" lon="2.2260454">
        <ele>171</ele>
        <time>2022-05-12T07:51:11Z</time>
      </trkpt>
      <trkpt lat="47.596104" lon="2.2260568">
        <ele>171</ele>
        <time>2022-05-12T07:51:12Z</time>
      </trkpt>
      <trkpt lat="47.59611" lon="2.226067">
        <ele>171</ele>
        <time>2022-05-12T07:51:13Z</time>
      </trkpt>
      <trkpt lat="47.59612" lon="2.2260745">
        <ele>170</ele>
        <time>2022-05-12T07:51:14Z</time>
      </trkpt>
      <trkpt lat="47.596127" lon="2.2260797">
        <ele>170</ele>
        <time>2022-05-12T07:51:15Z</time>
      </trkpt>
      <trkpt lat="47.596134" lon="2.2260869">
        <ele>169</ele>
        <time>2022-05-12T07:51:16Z</time>
      </trkpt>
      <trkpt lat="47.596138" lon="2.2260954">
        <ele>168</ele>
        <time>2022-05-12T07:51:17Z</time>
      </trkpt>
      <trkpt lat="47.596146" lon="2.226102">
        <ele>168</ele>
        <time>2022-05-12T07:51:18Z</time>
      </trkpt>
      <trkpt lat="47.596157" lon="2.2261121">
        <ele>168</ele>
        <time>2022-05-12T07:51:19Z</time>
      </trkpt>
      <trkpt lat="47.596165" lon="2.2261243">
        <ele>168</ele>
        <time>2022-05-12T07:51:20Z</time>
      </trkpt>
      <trkpt lat="47.596176" lon="2.2261357">
        <ele>168</ele>
        <time>2022-05-12T07:51:21Z</time>
      </trkpt>
      <trkpt lat="47.596184" lon="2.2261474">
        <ele>168</ele>
        <time>2022-05-12T07:51:22Z</time>
      </trkpt>
      <trkpt lat="47.59619" lon="2.2261584">
        <ele>168</ele>
        <time>2022-05-12T07:51:23Z</time>
      </trkpt>
      <trkpt lat="47.5962" lon="2.2261689">
        <ele>167</ele>
        <time>2022-05-12T07:51:24Z</time>
      </trkpt>
      <trkpt lat="47.59621" lon="2.226183">
        <ele>167</ele>
        <time>2022-05-12T07:51:25Z</time>
      </trkpt>
      <trkpt lat="47.596222" lon="2.2262015">
        <ele>167</ele>
        <time>2022-05-12T07:51:26Z</time>
      </trkpt>
      <trkpt lat="47.59623" lon="2.2262194">
        <ele>168</ele>
        <time>2022-05-12T07:51:27Z</time>
      </trkpt>
      <trkpt lat="47.596237" lon="2.2262359">
        <ele>168</ele>
        <time>2022-05-12T07:51:28Z</time>
      </trkpt>
      <trkpt lat="47.596245" lon="2.2262518">
        <ele>168</ele>
        <time>2022-05-12T07:51:29Z</time>
      </trkpt>
      <trkpt lat="47.596252" lon="2.2262743">
        <ele>168</ele>
        <time>2022-05-12T07:51:30Z</time>
      </trkpt>
      <trkpt lat="47.59626" lon="2.226289">
        <ele>168</ele>
        <time>2022-05-12T07:51:31Z</time>
      </trkpt>
      <trkpt lat="47.596268" lon="2.226301">
        <ele>168</ele>
        <time>2022-05-12T07:51:32Z</time>
      </trkpt>
      <trkpt lat="47.596275" lon="2.2263134">
        <ele>168</ele>
        <time>2022-05-12T07:51:33Z</time>
      </trkpt>
      <trkpt lat="47.596283" lon="2.2263288">
        <ele>168</ele>
        <time>2022-05-12T07:51:34Z</time>
      </trkpt>
      <trkpt lat="47.596294" lon="2.226344">
        <ele>168</ele>
        <time>2022-05-12T07:51:35Z</time>
      </trkpt>
      <trkpt lat="47.596302" lon="2.2263606">
        <ele>169</ele>
        <time>2022-05-12T07:51:36Z</time>
      </trkpt>
      <trkpt lat="47.596313" lon="2.226375">
        <ele>168</ele>
        <time>2022-05-12T07:51:37Z</time>
      </trkpt>
      <trkpt lat="47.59632" lon="2.2263896">
        <ele>168</ele>
        <time>2022-05-12T07:51:38Z</time>
      </trkpt>
      <trkpt lat="47.596325" lon="2.2264042">
        <ele>168</ele>
        <time>2022-05-12T07:51:39Z</time>
      </trkpt>
      <trkpt lat="47.59633" lon="2.2264147">
        <ele>167</ele>
        <time>2022-05-12T07:51:40Z</time>
      </trkpt>
      <trkpt lat="47.596336" lon="2.2264254">
        <ele>167</ele>
        <time>2022-05-12T07:51:41Z</time>
      </trkpt>
      <trkpt lat="47.596344" lon="2.2264428">
        <ele>168</ele>
        <time>2022-05-12T07:51:42Z</time>
      </trkpt>
      <trkpt lat="47.59635" lon="2.2264562">
        <ele>168</ele>
        <time>2022-05-12T07:51:43Z</time>
      </trkpt>
      <trkpt lat="47.596363" lon="2.2264714">
        <ele>168</ele>
        <time>2022-05-12T07:51:44Z</time>
      </trkpt>
      <trkpt lat="47.596375" lon="2.2264867">
        <ele>168</ele>
        <time>2022-05-12T07:51:45Z</time>
      </trkpt>
      <trkpt lat="47.596386" lon="2.2265">
        <ele>168</ele>
        <time>2022-05-12T07:51:46Z</time>
      </trkpt>
      <trkpt lat="47.596394" lon="2.2265162">
        <ele>168</ele>
        <time>2022-05-12T07:51:47Z</time>
      </trkpt>
      <trkpt lat="47.5964" lon="2.2265286">
        <ele>168</ele>
        <time>2022-05-12T07:51:48Z</time>
      </trkpt>
      <trkpt lat="47.59641" lon="2.2265403">
        <ele>168</ele>
        <time>2022-05-12T07:51:49Z</time>
      </trkpt>
      <trkpt lat="47.596416" lon="2.2265608">
        <ele>168</ele>
        <time>2022-05-12T07:51:50Z</time>
      </trkpt>
      <trkpt lat="47.596428" lon="2.226578">
        <ele>168</ele>
        <time>2022-05-12T07:51:51Z</time>
      </trkpt>
      <trkpt lat="47.596436" lon="2.2265956">
        <ele>168</ele>
        <time>2022-05-12T07:51:52Z</time>
      </trkpt>
      <trkpt lat="47.596447" lon="2.2266138">
        <ele>168</ele>
        <time>2022-05-12T07:51:53Z</time>
      </trkpt>
      <trkpt lat="47.59646" lon="2.2266269">
        <ele>168</ele>
        <time>2022-05-12T07:51:54Z</time>
      </trkpt>
      <trkpt lat="47.596466" lon="2.2266376">
        <ele>168</ele>
        <time>2022-05-12T07:51:55Z</time>
      </trkpt>
      <trkpt lat="47.596474" lon="2.2266502">
        <ele>168</ele>
        <time>2022-05-12T07:51:56Z</time>
      </trkpt>
      <trkpt lat="47.59648" lon="2.2266607">
        <ele>168</ele>
        <time>2022-05-12T07:51:57Z</time>
      </trkpt>
      <trkpt lat="47.59649" lon="2.226676">
        <ele>168</ele>
        <time>2022-05-12T07:51:58Z</time>
      </trkpt>
      <trkpt lat="47.596497" lon="2.2266917">
        <ele>168</ele>
        <time>2022-05-12T07:51:59Z</time>
      </trkpt>
      <trkpt lat="47.596504" lon="2.2267022">
        <ele>168</ele>
        <time>2022-05-12T07:52:00Z</time>
      </trkpt>
      <trkpt lat="47.59651" lon="2.2267153">
        <ele>168</ele>
        <time>2022-05-12T07:52:01Z</time>
      </trkpt>
      <trkpt lat="47.59652" lon="2.2267292">
        <ele>168</ele>
        <time>2022-05-12T07:52:02Z</time>
      </trkpt>
      <trkpt lat="47.596527" lon="2.2267418">
        <ele>168</ele>
        <time>2022-05-12T07:52:03Z</time>
      </trkpt>
      <trkpt lat="47.596535" lon="2.226752">
        <ele>169</ele>
        <time>2022-05-12T07:52:04Z</time>
      </trkpt>
      <trkpt lat="47.596546" lon="2.2267601">
        <ele>169</ele>
        <time>2022-05-12T07:52:05Z</time>
      </trkpt>
      <trkpt lat="47.596554" lon="2.2267666">
        <ele>170</ele>
        <time>2022-05-12T07:52:06Z</time>
      </trkpt>
      <trkpt lat="47.59656" lon="2.2267814">
        <ele>170</ele>
        <time>2022-05-12T07:52:07Z</time>
      </trkpt>
      <trkpt lat="47.596573" lon="2.2268002">
        <ele>171</ele>
        <time>2022-05-12T07:52:08Z</time>
      </trkpt>
      <trkpt lat="47.59658" lon="2.226823">
        <ele>171</ele>
        <time>2022-05-12T07:52:09Z</time>
      </trkpt>
      <trkpt lat="47.59659" lon="2.2268395">
        <ele>172</ele>
        <time>2022-05-12T07:52:10Z</time>
      </trkpt>
      <trkpt lat="47.596592" lon="2.226851">
        <ele>171</ele>
        <time>2022-05-12T07:52:11Z</time>
      </trkpt>
      <trkpt lat="47.5966" lon="2.2268639">
        <ele>171</ele>
        <time>2022-05-12T07:52:12Z</time>
      </trkpt>
      <trkpt lat="47.596603" lon="2.2268755">
        <ele>172</ele>
        <time>2022-05-12T07:52:13Z</time>
      </trkpt>
      <trkpt lat="47.59661" lon="2.2268887">
        <ele>172</ele>
        <time>2022-05-12T07:52:14Z</time>
      </trkpt>
      <trkpt lat="47.59662" lon="2.2269003">
        <ele>173</ele>
        <time>2022-05-12T07:52:15Z</time>
      </trkpt>
      <trkpt lat="47.596626" lon="2.2269125">
        <ele>173</ele>
        <time>2022-05-12T07:52:16Z</time>
      </trkpt>
      <trkpt lat="47.596634" lon="2.2269225">
        <ele>172</ele>
        <time>2022-05-12T07:52:17Z</time>
      </trkpt>
      <trkpt lat="47.596634" lon="2.2269382">
        <ele>172</ele>
        <time>2022-05-12T07:52:18Z</time>
      </trkpt>
      <trkpt lat="47.59664" lon="2.2269504">
        <ele>172</ele>
        <time>2022-05-12T07:52:19Z</time>
      </trkpt>
      <trkpt lat="47.59665" lon="2.2269669">
        <ele>172</ele>
        <time>2022-05-12T07:52:20Z</time>
      </trkpt>
      <trkpt lat="47.596657" lon="2.226983">
        <ele>172</ele>
        <time>2022-05-12T07:52:21Z</time>
      </trkpt>
      <trkpt lat="47.596664" lon="2.2269971">
        <ele>172</ele>
        <time>2022-05-12T07:52:22Z</time>
      </trkpt>
      <trkpt lat="47.596672" lon="2.2270029">
        <ele>172</ele>
        <time>2022-05-12T07:52:23Z</time>
      </trkpt>
      <trkpt lat="47.596684" lon="2.2270086">
        <ele>172</ele>
        <time>2022-05-12T07:52:24Z</time>
      </trkpt>
      <trkpt lat="47.596695" lon="2.2270198">
        <ele>172</ele>
        <time>2022-05-12T07:52:25Z</time>
      </trkpt>
      <trkpt lat="47.596703" lon="2.22703">
        <ele>172</ele>
        <time>2022-05-12T07:52:26Z</time>
      </trkpt>
      <trkpt lat="47.59671" lon="2.2270386">
        <ele>172</ele>
        <time>2022-05-12T07:52:27Z</time>
      </trkpt>
      <trkpt lat="47.596714" lon="2.227048">
        <ele>173</ele>
        <time>2022-05-12T07:52:28Z</time>
      </trkpt>
      <trkpt lat="47.596718" lon="2.2270586">
        <ele>173</ele>
        <time>2022-05-12T07:52:29Z</time>
      </trkpt>
      <trkpt lat="47.596725" lon="2.2270715">
        <ele>173</ele>
        <time>2022-05-12T07:52:30Z</time>
      </trkpt>
      <trkpt lat="47.596733" lon="2.2270868">
        <ele>173</ele>
        <time>2022-05-12T07:52:31Z</time>
      </trkpt>
      <trkpt lat="47.596745" lon="2.2270985">
        <ele>174</ele>
        <time>2022-05-12T07:52:32Z</time>
      </trkpt>
      <trkpt lat="47.596752" lon="2.2271116">
        <ele>174</ele>
        <time>2022-05-12T07:52:33Z</time>
      </trkpt>
      <trkpt lat="47.596756" lon="2.2271252">
        <ele>174</ele>
        <time>2022-05-12T07:52:34Z</time>
      </trkpt>
      <trkpt lat="47.596764" lon="2.2271397">
        <ele>174</ele>
        <time>2022-05-12T07:52:35Z</time>
      </trkpt>
      <trkpt lat="47.59677" lon="2.2271533">
        <ele>175</ele>
        <time>2022-05-12T07:52:36Z</time>
      </trkpt>
      <trkpt lat="47.59678" lon="2.2271674">
        <ele>175</ele>
        <time>2022-05-12T07:52:37Z</time>
      </trkpt>
      <trkpt lat="47.59679" lon="2.227182">
        <ele>175</ele>
        <time>2022-05-12T07:52:38Z</time>
      </trkpt>
      <trkpt lat="47.596798" lon="2.2271962">
        <ele>175</ele>
        <time>2022-05-12T07:52:39Z</time>
      </trkpt>
      <trkpt lat="47.59681" lon="2.2272089">
        <ele>176</ele>
        <time>2022-05-12T07:52:40Z</time>
      </trkpt>
      <trkpt lat="47.596817" lon="2.2272193">
        <ele>176</ele>
        <time>2022-05-12T07:52:41Z</time>
      </trkpt>
      <trkpt lat="47.596825" lon="2.2272286">
        <ele>176</ele>
        <time>2022-05-12T07:52:42Z</time>
      </trkpt>
      <trkpt lat="47.596832" lon="2.227239">
        <ele>176</ele>
        <time>2022-05-12T07:52:43Z</time>
      </trkpt>
      <trkpt lat="47.596844" lon="2.2272491">
        <ele>177</ele>
        <time>2022-05-12T07:52:44Z</time>
      </trkpt>
      <trkpt lat="47.59685" lon="2.2272613">
        <ele>177</ele>
        <time>2022-05-12T07:52:45Z</time>
      </trkpt>
      <trkpt lat="47.59686" lon="2.2272785">
        <ele>177</ele>
        <time>2022-05-12T07:52:46Z</time>
      </trkpt>
      <trkpt lat="47.596863" lon="2.2273002">
        <ele>176</ele>
        <time>2022-05-12T07:52:47Z</time>
      </trkpt>
      <trkpt lat="47.596867" lon="2.227316">
        <ele>176</ele>
        <time>2022-05-12T07:52:48Z</time>
      </trkpt>
      <trkpt lat="47.596874" lon="2.2273335">
        <ele>175</ele>
        <time>2022-05-12T07:52:49Z</time>
      </trkpt>
      <trkpt lat="47.59688" lon="2.2273505">
        <ele>175</ele>
        <time>2022-05-12T07:52:50Z</time>
      </trkpt>
      <trkpt lat="47.596893" lon="2.2273662">
        <ele>175</ele>
        <time>2022-05-12T07:52:51Z</time>
      </trkpt>
      <trkpt lat="47.5969" lon="2.2273855">
        <ele>175</ele>
        <time>2022-05-12T07:52:52Z</time>
      </trkpt>
      <trkpt lat="47.59691" lon="2.2274017">
        <ele>175</ele>
        <time>2022-05-12T07:52:53Z</time>
      </trkpt>
      <trkpt lat="47.596912" lon="2.2274148">
        <ele>175</ele>
        <time>2022-05-12T07:52:54Z</time>
      </trkpt>
      <trkpt lat="47.596924" lon="2.22743">
        <ele>175</ele>
        <time>2022-05-12T07:52:55Z</time>
      </trkpt>
      <trkpt lat="47.59693" lon="2.2274437">
        <ele>175</ele>
        <time>2022-05-12T07:52:56Z</time>
      </trkpt>
      <trkpt lat="47.59694" lon="2.2274597">
        <ele>175</ele>
        <time>2022-05-12T07:52:57Z</time>
      </trkpt>
      <trkpt lat="47.596947" lon="2.2274754">
        <ele>175</ele>
        <time>2022-05-12T07:52:58Z</time>
      </trkpt>
      <trkpt lat="47.59696" lon="2.2274857">
        <ele>175</ele>
        <time>2022-05-12T07:52:59Z</time>
      </trkpt>
      <trkpt lat="47.59697" lon="2.2274983">
        <ele>176</ele>
        <time>2022-05-12T07:53:00Z</time>
      </trkpt>
      <trkpt lat="47.596977" lon="2.227516">
        <ele>176</ele>
        <time>2022-05-12T07:53:01Z</time>
      </trkpt>
      <trkpt lat="47.596985" lon="2.2275293">
        <ele>176</ele>
        <time>2022-05-12T07:53:02Z</time>
      </trkpt>
      <trkpt lat="47.59699" lon="2.227541">
        <ele>176</ele>
        <time>2022-05-12T07:53:03Z</time>
      </trkpt>
      <trkpt lat="47.596996" lon="2.2275505">
        <ele>176</ele>
        <time>2022-05-12T07:53:04Z</time>
      </trkpt>
      <trkpt lat="47.597004" lon="2.2275577">
        <ele>176</ele>
        <time>2022-05-12T07:53:05Z</time>
      </trkpt>
      <trkpt lat="47.59701" lon="2.2275734">
        <ele>176</ele>
        <time>2022-05-12T07:53:06Z</time>
      </trkpt>
      <trkpt lat="47.597023" lon="2.2275906">
        <ele>176</ele>
        <time>2022-05-12T07:53:07Z</time>
      </trkpt>
      <trkpt lat="47.597034" lon="2.2276044">
        <ele>177</ele>
        <time>2022-05-12T07:53:08Z</time>
      </trkpt>
      <trkpt lat="47.597042" lon="2.2276165">
        <ele>177</ele>
        <time>2022-05-12T07:53:09Z</time>
      </trkpt>
      <trkpt lat="47.59705" lon="2.227627">
        <ele>177</ele>
        <time>2022-05-12T07:53:10Z</time>
      </trkpt>
      <trkpt lat="47.597057" lon="2.2276423">
        <ele>177</ele>
        <time>2022-05-12T07:53:11Z</time>
      </trkpt>
      <trkpt lat="47.59707" lon="2.2276535">
        <ele>176</ele>
        <time>2022-05-12T07:53:12Z</time>
      </trkpt>
      <trkpt lat="47.59708" lon="2.2276638">
        <ele>175</ele>
        <time>2022-05-12T07:53:13Z</time>
      </trkpt>
      <trkpt lat="47.597088" lon="2.2276702">
        <ele>174</ele>
        <time>2022-05-12T07:53:14Z</time>
      </trkpt>
      <trkpt lat="47.5971" lon="2.2276783">
        <ele>174</ele>
        <time>2022-05-12T07:53:15Z</time>
      </trkpt>
      <trkpt lat="47.59711" lon="2.227693">
        <ele>175</ele>
        <time>2022-05-12T07:53:16Z</time>
      </trkpt>
      <trkpt lat="47.59711" lon="2.227706">
        <ele>175</ele>
        <time>2022-05-12T07:53:17Z</time>
      </trkpt>
      <trkpt lat="47.59711" lon="2.2277126">
        <ele>175</ele>
        <time>2022-05-12T07:53:18Z</time>
      </trkpt>
      <trkpt lat="47.597115" lon="2.2277186">
        <ele>174</ele>
        <time>2022-05-12T07:53:19Z</time>
      </trkpt>
      <trkpt lat="47.597126" lon="2.227732">
        <ele>175</ele>
        <time>2022-05-12T07:53:20Z</time>
      </trkpt>
      <trkpt lat="47.597134" lon="2.2277443">
        <ele>174</ele>
        <time>2022-05-12T07:53:21Z</time>
      </trkpt>
      <trkpt lat="47.597137" lon="2.2277613">
        <ele>174</ele>
        <time>2022-05-12T07:53:22Z</time>
      </trkpt>
      <trkpt lat="47.59714" lon="2.2277744">
        <ele>174</ele>
        <time>2022-05-12T07:53:23Z</time>
      </trkpt>
      <trkpt lat="47.59715" lon="2.2277877">
        <ele>174</ele>
        <time>2022-05-12T07:53:24Z</time>
      </trkpt>
      <trkpt lat="47.597157" lon="2.2278">
        <ele>174</ele>
        <time>2022-05-12T07:53:25Z</time>
      </trkpt>
      <trkpt lat="47.59716" lon="2.2278113">
        <ele>174</ele>
        <time>2022-05-12T07:53:26Z</time>
      </trkpt>
      <trkpt lat="47.597164" lon="2.227821">
        <ele>174</ele>
        <time>2022-05-12T07:53:27Z</time>
      </trkpt>
      <trkpt lat="47.597164" lon="2.227826">
        <ele>174</ele>
        <time>2022-05-12T07:53:28Z</time>
      </trkpt>
      <trkpt lat="47.597168" lon="2.2278345">
        <ele>174</ele>
        <time>2022-05-12T07:53:29Z</time>
      </trkpt>
      <trkpt lat="47.59717" lon="2.2278423">
        <ele>174</ele>
        <time>2022-05-12T07:53:30Z</time>
      </trkpt>
      <trkpt lat="47.597176" lon="2.2278533">
        <ele>174</ele>
        <time>2022-05-12T07:53:31Z</time>
      </trkpt>
      <trkpt lat="47.597183" lon="2.2278643">
        <ele>174</ele>
        <time>2022-05-12T07:53:32Z</time>
      </trkpt>
      <trkpt lat="47.597187" lon="2.2278764">
        <ele>174</ele>
        <time>2022-05-12T07:53:33Z</time>
      </trkpt>
      <trkpt lat="47.597195" lon="2.227886">
        <ele>174</ele>
        <time>2022-05-12T07:53:34Z</time>
      </trkpt>
      <trkpt lat="47.5972" lon="2.227897">
        <ele>174</ele>
        <time>2022-05-12T07:53:35Z</time>
      </trkpt>
      <trkpt lat="47.597206" lon="2.2279084">
        <ele>173</ele>
        <time>2022-05-12T07:53:36Z</time>
      </trkpt>
      <trkpt lat="47.59721" lon="2.2279158">
        <ele>173</ele>
        <time>2022-05-12T07:53:37Z</time>
      </trkpt>
      <trkpt lat="47.597214" lon="2.227924">
        <ele>173</ele>
        <time>2022-05-12T07:53:38Z</time>
      </trkpt>
      <trkpt lat="47.597218" lon="2.2279356">
        <ele>173</ele>
        <time>2022-05-12T07:53:39Z</time>
      </trkpt>
      <trkpt lat="47.597225" lon="2.2279482">
        <ele>173</ele>
        <time>2022-05-12T07:53:40Z</time>
      </trkpt>
      <trkpt lat="47.597233" lon="2.2279599">
        <ele>173</ele>
        <time>2022-05-12T07:53:41Z</time>
      </trkpt>
      <trkpt lat="47.59724" lon="2.2279656">
        <ele>173</ele>
        <time>2022-05-12T07:53:42Z</time>
      </trkpt>
      <trkpt lat="47.597248" lon="2.2279742">
        <ele>174</ele>
        <time>2022-05-12T07:53:43Z</time>
      </trkpt>
      <trkpt lat="47.59725" lon="2.2279818">
        <ele>174</ele>
        <time>2022-05-12T07:53:44Z</time>
      </trkpt>
      <trkpt lat="47.597256" lon="2.2279882">
        <ele>174</ele>
        <time>2022-05-12T07:53:45Z</time>
      </trkpt>
      <trkpt lat="47.597267" lon="2.2279985">
        <ele>174</ele>
        <time>2022-05-12T07:53:46Z</time>
      </trkpt>
      <trkpt lat="47.59728" lon="2.2280087">
        <ele>174</ele>
        <time>2022-05-12T07:53:47Z</time>
      </trkpt>
      <trkpt lat="47.59729" lon="2.2280183">
        <ele>173</ele>
        <time>2022-05-12T07:53:48Z</time>
      </trkpt>
      <trkpt lat="47.5973" lon="2.228028">
        <ele>173</ele>
        <time>2022-05-12T07:53:49Z</time>
      </trkpt>
      <trkpt lat="47.597313" lon="2.2280393">
        <ele>174</ele>
        <time>2022-05-12T07:53:50Z</time>
      </trkpt>
      <trkpt lat="47.59732" lon="2.2280521">
        <ele>174</ele>
        <time>2022-05-12T07:53:51Z</time>
      </trkpt>
      <trkpt lat="47.59733" lon="2.2280686">
        <ele>175</ele>
        <time>2022-05-12T07:53:52Z</time>
      </trkpt>
      <trkpt lat="47.597336" lon="2.228083">
        <ele>175</ele>
        <time>2022-05-12T07:53:53Z</time>
      </trkpt>
      <trkpt lat="47.597343" lon="2.2280967">
        <ele>174</ele>
        <time>2022-05-12T07:53:54Z</time>
      </trkpt>
      <trkpt lat="47.597347" lon="2.2281077">
        <ele>174</ele>
        <time>2022-05-12T07:53:55Z</time>
      </trkpt>
      <trkpt lat="47.597355" lon="2.2281175">
        <ele>174</ele>
        <time>2022-05-12T07:53:56Z</time>
      </trkpt>
      <trkpt lat="47.597366" lon="2.2281337">
        <ele>174</ele>
        <time>2022-05-12T07:53:57Z</time>
      </trkpt>
      <trkpt lat="47.597374" lon="2.228147">
        <ele>173</ele>
        <time>2022-05-12T07:53:58Z</time>
      </trkpt>
      <trkpt lat="47.597378" lon="2.2281516">
        <ele>173</ele>
        <time>2022-05-12T07:53:59Z</time>
      </trkpt>
      <trkpt lat="47.59738" lon="2.2281651">
        <ele>172</ele>
        <time>2022-05-12T07:54:00Z</time>
      </trkpt>
      <trkpt lat="47.59738" lon="2.2281725">
        <ele>172</ele>
        <time>2022-05-12T07:54:01Z</time>
      </trkpt>
      <trkpt lat="47.597378" lon="2.2281723">
        <ele>172</ele>
        <time>2022-05-12T07:54:02Z</time>
      </trkpt>
      <trkpt lat="47.59738" lon="2.2281723">
        <ele>172</ele>
        <time>2022-05-12T07:54:03Z</time>
      </trkpt>
      <trkpt lat="47.59738" lon="2.2281723">
        <ele>172</ele>
        <time>2022-05-12T07:54:04Z</time>
      </trkpt>
      <trkpt lat="47.59738" lon="2.2281723">
        <ele>172</ele>
        <time>2022-05-12T07:54:04Z</time>
      </trkpt>
      <trkpt lat="47.59738" lon="2.2281723">
        <ele>172</ele>
        <time>2022-05-12T07:54:04Z</time>
      </trkpt>
      <trkpt lat="47.59743" lon="2.2282093">
        <ele>173</ele>
        <time>2022-05-12T07:54:39Z</time>
      </trkpt>
      <trkpt lat="47.59743" lon="2.2282093">
        <ele>173</ele>
        <time>2022-05-12T07:54:40Z</time>
      </trkpt>
      <trkpt lat="47.59743" lon="2.2282012">
        <ele>172</ele>
        <time>2022-05-12T07:54:41Z</time>
      </trkpt>
      <trkpt lat="47.59743" lon="2.2282012">
        <ele>172</ele>
        <time>2022-05-12T07:54:41Z</time>
      </trkpt>
      <trkpt lat="47.59743" lon="2.2282012">
        <ele>172</ele>
        <time>2022-05-12T07:54:41Z</time>
      </trkpt>
      <trkpt lat="47.59743" lon="2.2282012">
        <ele>172</ele>
        <time>2022-05-12T07:54:41Z</time>
      </trkpt>
      <trkpt lat="47.59743" lon="2.2282245">
        <ele>164</ele>
        <time>2022-05-12T07:54:58Z</time>
      </trkpt>
      <trkpt lat="47.59743" lon="2.2282362">
        <ele>164</ele>
        <time>2022-05-12T07:54:59Z</time>
      </trkpt>
      <trkpt lat="47.597435" lon="2.2282393">
        <ele>163</ele>
        <time>2022-05-12T07:55:00Z</time>
      </trkpt>
      <trkpt lat="47.597435" lon="2.2282524">
        <ele>163</ele>
        <time>2022-05-12T07:55:01Z</time>
      </trkpt>
      <trkpt lat="47.597435" lon="2.2282524">
        <ele>163</ele>
        <time>2022-05-12T07:55:01Z</time>
      </trkpt>
      <trkpt lat="47.59744" lon="2.2282636">
        <ele>162</ele>
        <time>2022-05-12T07:55:03Z</time>
      </trkpt>
      <trkpt lat="47.59743" lon="2.2282872">
        <ele>162</ele>
        <time>2022-05-12T07:55:04Z</time>
      </trkpt>
      <trkpt lat="47.59743" lon="2.2282872">
        <ele>162</ele>
        <time>2022-05-12T07:55:04Z</time>
      </trkpt>
      <trkpt lat="47.597427" lon="2.2282984">
        <ele>162</ele>
        <time>2022-05-12T07:55:06Z</time>
      </trkpt>
      <trkpt lat="47.597427" lon="2.2283049">
        <ele>161</ele>
        <time>2022-05-12T07:55:07Z</time>
      </trkpt>
      <trkpt lat="47.59743" lon="2.2283032">
        <ele>160</ele>
        <time>2022-05-12T07:55:08Z</time>
      </trkpt>
      <trkpt lat="47.597435" lon="2.2282982">
        <ele>160</ele>
        <time>2022-05-12T07:55:09Z</time>
      </trkpt>
      <trkpt lat="47.597443" lon="2.2282965">
        <ele>160</ele>
        <time>2022-05-12T07:55:10Z</time>
      </trkpt>
      <trkpt lat="47.597443" lon="2.2282965">
        <ele>160</ele>
        <time>2022-05-12T07:55:11Z</time>
      </trkpt>
      <trkpt lat="47.597443" lon="2.2282965">
        <ele>160</ele>
        <time>2022-05-12T07:55:11Z</time>
      </trkpt>
      <trkpt lat="47.597443" lon="2.2282965">
        <ele>160</ele>
        <time>2022-05-12T07:55:11Z</time>
      </trkpt>
      <trkpt lat="47.59744" lon="2.2283676">
        <ele>157</ele>
        <time>2022-05-12T07:55:35Z</time>
      </trkpt>
      <trkpt lat="47.59743" lon="2.228374">
        <ele>156</ele>
        <time>2022-05-12T07:55:36Z</time>
      </trkpt>
      <trkpt lat="47.597424" lon="2.228385">
        <ele>156</ele>
        <time>2022-05-12T07:55:37Z</time>
      </trkpt>
      <trkpt lat="47.59742" lon="2.2283926">
        <ele>156</ele>
        <time>2022-05-12T07:55:38Z</time>
      </trkpt>
      <trkpt lat="47.597416" lon="2.2283912">
        <ele>155</ele>
        <time>2022-05-12T07:55:39Z</time>
      </trkpt>
      <trkpt lat="47.59742" lon="2.2283907">
        <ele>155</ele>
        <time>2022-05-12T07:55:40Z</time>
      </trkpt>
      <trkpt lat="47.59742" lon="2.22839">
        <ele>155</ele>
        <time>2022-05-12T07:55:41Z</time>
      </trkpt>
      <trkpt lat="47.59742" lon="2.22839">
        <ele>155</ele>
        <time>2022-05-12T07:55:42Z</time>
      </trkpt>
      <trkpt lat="47.59742" lon="2.22839">
        <ele>155</ele>
        <time>2022-05-12T07:55:43Z</time>
      </trkpt>
      <trkpt lat="47.59742" lon="2.22839">
        <ele>155</ele>
        <time>2022-05-12T07:55:43Z</time>
      </trkpt>
      <trkpt lat="47.59742" lon="2.22839">
        <ele>155</ele>
        <time>2022-05-12T07:55:43Z</time>
      </trkpt>
      <trkpt lat="47.597374" lon="2.2284555">
        <ele>158</ele>
        <time>2022-05-12T07:56:24Z</time>
      </trkpt>
      <trkpt lat="47.597374" lon="2.2284653">
        <ele>159</ele>
        <time>2022-05-12T07:56:25Z</time>
      </trkpt>
      <trkpt lat="47.597366" lon="2.2284708">
        <ele>160</ele>
        <time>2022-05-12T07:56:26Z</time>
      </trkpt>
      <trkpt lat="47.597363" lon="2.228481">
        <ele>160</ele>
        <time>2022-05-12T07:56:27Z</time>
      </trkpt>
      <trkpt lat="47.59736" lon="2.228489">
        <ele>161</ele>
        <time>2022-05-12T07:56:28Z</time>
      </trkpt>
      <trkpt lat="47.597363" lon="2.2284966">
        <ele>161</ele>
        <time>2022-05-12T07:56:29Z</time>
      </trkpt>
      <trkpt lat="47.597363" lon="2.228497">
        <ele>161</ele>
        <time>2022-05-12T07:56:30Z</time>
      </trkpt>
      <trkpt lat="47.597363" lon="2.2284968">
        <ele>161</ele>
        <time>2022-05-12T07:56:31Z</time>
      </trkpt>
      <trkpt lat="47.597363" lon="2.2284963">
        <ele>161</ele>
        <time>2022-05-12T07:56:32Z</time>
      </trkpt>
      <trkpt lat="47.597363" lon="2.2284963">
        <ele>161</ele>
        <time>2022-05-12T07:56:32Z</time>
      </trkpt>
      <trkpt lat="47.597363" lon="2.2284963">
        <ele>161</ele>
        <time>2022-05-12T07:56:32Z</time>
      </trkpt>
      <trkpt lat="47.59729" lon="2.228556">
        <ele>163</ele>
        <time>2022-05-12T07:57:30Z</time>
      </trkpt>
      <trkpt lat="47.59728" lon="2.2285645">
        <ele>163</ele>
        <time>2022-05-12T07:57:31Z</time>
      </trkpt>
      <trkpt lat="47.597267" lon="2.2285724">
        <ele>163</ele>
        <time>2022-05-12T07:57:32Z</time>
      </trkpt>
      <trkpt lat="47.59725" lon="2.2285757">
        <ele>163</ele>
        <time>2022-05-12T07:57:33Z</time>
      </trkpt>
      <trkpt lat="47.597237" lon="2.2285817">
        <ele>163</ele>
        <time>2022-05-12T07:57:34Z</time>
      </trkpt>
      <trkpt lat="47.597233" lon="2.2285876">
        <ele>164</ele>
        <time>2022-05-12T07:57:35Z</time>
      </trkpt>
      <trkpt lat="47.59723" lon="2.2285879">
        <ele>166</ele>
        <time>2022-05-12T07:57:36Z</time>
      </trkpt>
      <trkpt lat="47.597225" lon="2.228593">
        <ele>166</ele>
        <time>2022-05-12T07:57:37Z</time>
      </trkpt>
      <trkpt lat="47.597218" lon="2.2285967">
        <ele>166</ele>
        <time>2022-05-12T07:57:38Z</time>
      </trkpt>
      <trkpt lat="47.597206" lon="2.2286005">
        <ele>167</ele>
        <time>2022-05-12T07:57:39Z</time>
      </trkpt>
      <trkpt lat="47.5972" lon="2.2286026">
        <ele>167</ele>
        <time>2022-05-12T07:57:40Z</time>
      </trkpt>
      <trkpt lat="47.59719" lon="2.2286136">
        <ele>167</ele>
        <time>2022-05-12T07:57:41Z</time>
      </trkpt>
      <trkpt lat="47.59719" lon="2.228624">
        <ele>167</ele>
        <time>2022-05-12T07:57:42Z</time>
      </trkpt>
      <trkpt lat="47.59719" lon="2.2286274">
        <ele>167</ele>
        <time>2022-05-12T07:57:43Z</time>
      </trkpt>
      <trkpt lat="47.59719" lon="2.228628">
        <ele>167</ele>
        <time>2022-05-12T07:57:44Z</time>
      </trkpt>
      <trkpt lat="47.59719" lon="2.228628">
        <ele>167</ele>
        <time>2022-05-12T07:57:45Z</time>
      </trkpt>
      <trkpt lat="47.59719" lon="2.228628">
        <ele>167</ele>
        <time>2022-05-12T07:57:46Z</time>
      </trkpt>
      <trkpt lat="47.597187" lon="2.2286305">
        <ele>167</ele>
        <time>2022-05-12T07:57:47Z</time>
      </trkpt>
      <trkpt lat="47.597176" lon="2.2286434">
        <ele>168</ele>
        <time>2022-05-12T07:57:48Z</time>
      </trkpt>
      <trkpt lat="47.59717" lon="2.2286553">
        <ele>168</ele>
        <time>2022-05-12T07:57:49Z</time>
      </trkpt>
      <trkpt lat="47.597164" lon="2.2286642">
        <ele>168</ele>
        <time>2022-05-12T07:57:50Z</time>
      </trkpt>
      <trkpt lat="47.59716" lon="2.228675">
        <ele>169</ele>
        <time>2022-05-12T07:57:51Z</time>
      </trkpt>
      <trkpt lat="47.597157" lon="2.2286937">
        <ele>169</ele>
        <time>2022-05-12T07:57:52Z</time>
      </trkpt>
      <trkpt lat="47.59715" lon="2.2287114">
        <ele>169</ele>
        <time>2022-05-12T07:57:53Z</time>
      </trkpt>
      <trkpt lat="47.59714" lon="2.2287214">
        <ele>169</ele>
        <time>2022-05-12T07:57:54Z</time>
      </trkpt>
      <trkpt lat="47.597134" lon="2.2287292">
        <ele>169</ele>
        <time>2022-05-12T07:57:55Z</time>
      </trkpt>
      <trkpt lat="47.597122" lon="2.22874">
        <ele>169</ele>
        <time>2022-05-12T07:57:56Z</time>
      </trkpt>
      <trkpt lat="47.59711" lon="2.2287526">
        <ele>170</ele>
        <time>2022-05-12T07:57:57Z</time>
      </trkpt>
      <trkpt lat="47.5971" lon="2.228768">
        <ele>170</ele>
        <time>2022-05-12T07:57:58Z</time>
      </trkpt>
      <trkpt lat="47.597095" lon="2.228783">
        <ele>170</ele>
        <time>2022-05-12T07:57:59Z</time>
      </trkpt>
      <trkpt lat="47.59709" lon="2.228798">
        <ele>170</ele>
        <time>2022-05-12T07:58:00Z</time>
      </trkpt>
      <trkpt lat="47.59709" lon="2.2288148">
        <ele>170</ele>
        <time>2022-05-12T07:58:01Z</time>
      </trkpt>
      <trkpt lat="47.597095" lon="2.2288346">
        <ele>170</ele>
        <time>2022-05-12T07:58:02Z</time>
      </trkpt>
      <trkpt lat="47.59709" lon="2.2288504">
        <ele>170</ele>
        <time>2022-05-12T07:58:03Z</time>
      </trkpt>
      <trkpt lat="47.59709" lon="2.228868">
        <ele>170</ele>
        <time>2022-05-12T07:58:04Z</time>
      </trkpt>
      <trkpt lat="47.597088" lon="2.228884">
        <ele>171</ele>
        <time>2022-05-12T07:58:05Z</time>
      </trkpt>
      <trkpt lat="47.597084" lon="2.2288976">
        <ele>171</ele>
        <time>2022-05-12T07:58:06Z</time>
      </trkpt>
      <trkpt lat="47.597084" lon="2.228913">
        <ele>171</ele>
        <time>2022-05-12T07:58:07Z</time>
      </trkpt>
      <trkpt lat="47.59708" lon="2.228933">
        <ele>171</ele>
        <time>2022-05-12T07:58:08Z</time>
      </trkpt>
      <trkpt lat="47.597076" lon="2.2289414">
        <ele>172</ele>
        <time>2022-05-12T07:58:09Z</time>
      </trkpt>
      <trkpt lat="47.597073" lon="2.2289598">
        <ele>172</ele>
        <time>2022-05-12T07:58:10Z</time>
      </trkpt>
      <trkpt lat="47.59706" lon="2.2289715">
        <ele>172</ele>
        <time>2022-05-12T07:58:11Z</time>
      </trkpt>
      <trkpt lat="47.597054" lon="2.2289882">
        <ele>172</ele>
        <time>2022-05-12T07:58:12Z</time>
      </trkpt>
      <trkpt lat="47.597046" lon="2.229004">
        <ele>173</ele>
        <time>2022-05-12T07:58:13Z</time>
      </trkpt>
      <trkpt lat="47.597034" lon="2.229018">
        <ele>173</ele>
        <time>2022-05-12T07:58:14Z</time>
      </trkpt>
      <trkpt lat="47.597023" lon="2.2290292">
        <ele>174</ele>
        <time>2022-05-12T07:58:15Z</time>
      </trkpt>
      <trkpt lat="47.597015" lon="2.229045">
        <ele>174</ele>
        <time>2022-05-12T07:58:16Z</time>
      </trkpt>
      <trkpt lat="47.59701" lon="2.2290585">
        <ele>174</ele>
        <time>2022-05-12T07:58:17Z</time>
      </trkpt>
      <trkpt lat="47.597004" lon="2.2290716">
        <ele>175</ele>
        <time>2022-05-12T07:58:18Z</time>
      </trkpt>
      <trkpt lat="47.596992" lon="2.229086">
        <ele>176</ele>
        <time>2022-05-12T07:58:19Z</time>
      </trkpt>
      <trkpt lat="47.596985" lon="2.2290907">
        <ele>176</ele>
        <time>2022-05-12T07:58:20Z</time>
      </trkpt>
      <trkpt lat="47.59698" lon="2.2290912">
        <ele>176</ele>
        <time>2022-05-12T07:58:21Z</time>
      </trkpt>
      <trkpt lat="47.59698" lon="2.229102">
        <ele>177</ele>
        <time>2022-05-12T07:58:22Z</time>
      </trkpt>
      <trkpt lat="47.596973" lon="2.2291107">
        <ele>177</ele>
        <time>2022-05-12T07:58:23Z</time>
      </trkpt>
      <trkpt lat="47.596966" lon="2.229117">
        <ele>177</ele>
        <time>2022-05-12T07:58:24Z</time>
      </trkpt>
      <trkpt lat="47.59695" lon="2.2291186">
        <ele>177</ele>
        <time>2022-05-12T07:58:25Z</time>
      </trkpt>
      <trkpt lat="47.59694" lon="2.229121">
        <ele>177</ele>
        <time>2022-05-12T07:58:26Z</time>
      </trkpt>
      <trkpt lat="47.596924" lon="2.2291262">
        <ele>177</ele>
        <time>2022-05-12T07:58:27Z</time>
      </trkpt>
      <trkpt lat="47.596912" lon="2.2291298">
        <ele>177</ele>
        <time>2022-05-12T07:58:28Z</time>
      </trkpt>
      <trkpt lat="47.5969" lon="2.2291331">
        <ele>178</ele>
        <time>2022-05-12T07:58:29Z</time>
      </trkpt>
      <trkpt lat="47.59689" lon="2.2291358">
        <ele>178</ele>
        <time>2022-05-12T07:58:30Z</time>
      </trkpt>
      <trkpt lat="47.596878" lon="2.2291481">
        <ele>178</ele>
        <time>2022-05-12T07:58:31Z</time>
      </trkpt>
      <trkpt lat="47.59687" lon="2.2291553">
        <ele>178</ele>
        <time>2022-05-12T07:58:32Z</time>
      </trkpt>
      <trkpt lat="47.596863" lon="2.2291622">
        <ele>178</ele>
        <time>2022-05-12T07:58:33Z</time>
      </trkpt>
      <trkpt lat="47.596855" lon="2.2291691">
        <ele>178</ele>
        <time>2022-05-12T07:58:34Z</time>
      </trkpt>
      <trkpt lat="47.596848" lon="2.2291741">
        <ele>178</ele>
        <time>2022-05-12T07:58:35Z</time>
      </trkpt>
      <trkpt lat="47.596832" lon="2.2291706">
        <ele>178</ele>
        <time>2022-05-12T07:58:36Z</time>
      </trkpt>
      <trkpt lat="47.596813" lon="2.229176">
        <ele>178</ele>
        <time>2022-05-12T07:58:37Z</time>
      </trkpt>
      <trkpt lat="47.596794" lon="2.2291887">
        <ele>178</ele>
        <time>2022-05-12T07:58:38Z</time>
      </trkpt>
      <trkpt lat="47.596783" lon="2.2291985">
        <ele>179</ele>
        <time>2022-05-12T07:58:39Z</time>
      </trkpt>
      <trkpt lat="47.596775" lon="2.2291992">
        <ele>178</ele>
        <time>2022-05-12T07:58:40Z</time>
      </trkpt>
      <trkpt lat="47.596764" lon="2.229199">
        <ele>178</ele>
        <time>2022-05-12T07:58:41Z</time>
      </trkpt>
      <trkpt lat="47.59676" lon="2.2292013">
        <ele>178</ele>
        <time>2022-05-12T07:58:42Z</time>
      </trkpt>
      <trkpt lat="47.596756" lon="2.229203">
        <ele>177</ele>
        <time>2022-05-12T07:58:43Z</time>
      </trkpt>
      <trkpt lat="47.596745" lon="2.2292085">
        <ele>177</ele>
        <time>2022-05-12T07:58:44Z</time>
      </trkpt>
      <trkpt lat="47.596737" lon="2.2292116">
        <ele>177</ele>
        <time>2022-05-12T07:58:45Z</time>
      </trkpt>
      <trkpt lat="47.59673" lon="2.229216">
        <ele>176</ele>
        <time>2022-05-12T07:58:46Z</time>
      </trkpt>
      <trkpt lat="47.596714" lon="2.229224">
        <ele>176</ele>
        <time>2022-05-12T07:58:47Z</time>
      </trkpt>
      <trkpt lat="47.596706" lon="2.2292275">
        <ele>176</ele>
        <time>2022-05-12T07:58:48Z</time>
      </trkpt>
      <trkpt lat="47.596703" lon="2.2292273">
        <ele>176</ele>
        <time>2022-05-12T07:58:49Z</time>
      </trkpt>
      <trkpt lat="47.59669" lon="2.229228">
        <ele>176</ele>
        <time>2022-05-12T07:58:50Z</time>
      </trkpt>
      <trkpt lat="47.59668" lon="2.229236">
        <ele>176</ele>
        <time>2022-05-12T07:58:51Z</time>
      </trkpt>
      <trkpt lat="47.59667" lon="2.2292492">
        <ele>175</ele>
        <time>2022-05-12T07:58:52Z</time>
      </trkpt>
      <trkpt lat="47.596657" lon="2.2292604">
        <ele>175</ele>
        <time>2022-05-12T07:58:53Z</time>
      </trkpt>
      <trkpt lat="47.596638" lon="2.22927">
        <ele>175</ele>
        <time>2022-05-12T07:58:54Z</time>
      </trkpt>
      <trkpt lat="47.59663" lon="2.2292752">
        <ele>175</ele>
        <time>2022-05-12T07:58:55Z</time>
      </trkpt>
      <trkpt lat="47.59662" lon="2.2292743">
        <ele>175</ele>
        <time>2022-05-12T07:58:56Z</time>
      </trkpt>
      <trkpt lat="47.596603" lon="2.2292836">
        <ele>175</ele>
        <time>2022-05-12T07:58:57Z</time>
      </trkpt>
      <trkpt lat="47.596596" lon="2.229284">
        <ele>174</ele>
        <time>2022-05-12T07:58:58Z</time>
      </trkpt>
      <trkpt lat="47.596584" lon="2.2292922">
        <ele>175</ele>
        <time>2022-05-12T07:58:59Z</time>
      </trkpt>
      <trkpt lat="47.596577" lon="2.2293007">
        <ele>175</ele>
        <time>2022-05-12T07:59:00Z</time>
      </trkpt>
      <trkpt lat="47.59657" lon="2.2293048">
        <ele>175</ele>
        <time>2022-05-12T07:59:01Z</time>
      </trkpt>
      <trkpt lat="47.596558" lon="2.2293174">
        <ele>175</ele>
        <time>2022-05-12T07:59:02Z</time>
      </trkpt>
      <trkpt lat="47.59655" lon="2.2293277">
        <ele>175</ele>
        <time>2022-05-12T07:59:03Z</time>
      </trkpt>
      <trkpt lat="47.59654" lon="2.2293286">
        <ele>175</ele>
        <time>2022-05-12T07:59:04Z</time>
      </trkpt>
      <trkpt lat="47.59653" lon="2.2293322">
        <ele>175</ele>
        <time>2022-05-12T07:59:05Z</time>
      </trkpt>
      <trkpt lat="47.59652" lon="2.2293382">
        <ele>175</ele>
        <time>2022-05-12T07:59:06Z</time>
      </trkpt>
      <trkpt lat="47.59651" lon="2.2293417">
        <ele>175</ele>
        <time>2022-05-12T07:59:07Z</time>
      </trkpt>
      <trkpt lat="47.5965" lon="2.2293453">
        <ele>176</ele>
        <time>2022-05-12T07:59:08Z</time>
      </trkpt>
      <trkpt lat="47.59649" lon="2.229352">
        <ele>176</ele>
        <time>2022-05-12T07:59:09Z</time>
      </trkpt>
      <trkpt lat="47.596478" lon="2.229357">
        <ele>176</ele>
        <time>2022-05-12T07:59:10Z</time>
      </trkpt>
      <trkpt lat="47.596462" lon="2.2293544">
        <ele>176</ele>
        <time>2022-05-12T07:59:11Z</time>
      </trkpt>
      <trkpt lat="47.596443" lon="2.2293568">
        <ele>176</ele>
        <time>2022-05-12T07:59:12Z</time>
      </trkpt>
      <trkpt lat="47.596424" lon="2.2293618">
        <ele>176</ele>
        <time>2022-05-12T07:59:13Z</time>
      </trkpt>
      <trkpt lat="47.596413" lon="2.2293644">
        <ele>175</ele>
        <time>2022-05-12T07:59:14Z</time>
      </trkpt>
      <trkpt lat="47.5964" lon="2.229372">
        <ele>175</ele>
        <time>2022-05-12T07:59:15Z</time>
      </trkpt>
      <trkpt lat="47.596397" lon="2.2293866">
        <ele>175</ele>
        <time>2022-05-12T07:59:16Z</time>
      </trkpt>
      <trkpt lat="47.596394" lon="2.229394">
        <ele>176</ele>
        <time>2022-05-12T07:59:17Z</time>
      </trkpt>
      <trkpt lat="47.596386" lon="2.2294037">
        <ele>175</ele>
        <time>2022-05-12T07:59:18Z</time>
      </trkpt>
      <trkpt lat="47.596375" lon="2.2294087">
        <ele>174</ele>
        <time>2022-05-12T07:59:19Z</time>
      </trkpt>
      <trkpt lat="47.596363" lon="2.2294092">
        <ele>174</ele>
        <time>2022-05-12T07:59:20Z</time>
      </trkpt>
      <trkpt lat="47.596355" lon="2.2294014">
        <ele>174</ele>
        <time>2022-05-12T07:59:21Z</time>
      </trkpt>
      <trkpt lat="47.59635" lon="2.229397">
        <ele>174</ele>
        <time>2022-05-12T07:59:22Z</time>
      </trkpt>
      <trkpt lat="47.596344" lon="2.229396">
        <ele>174</ele>
        <time>2022-05-12T07:59:23Z</time>
      </trkpt>
      <trkpt lat="47.596336" lon="2.2294059">
        <ele>174</ele>
        <time>2022-05-12T07:59:24Z</time>
      </trkpt>
      <trkpt lat="47.596325" lon="2.229415">
        <ele>174</ele>
        <time>2022-05-12T07:59:25Z</time>
      </trkpt>
      <trkpt lat="47.596313" lon="2.2294283">
        <ele>174</ele>
        <time>2022-05-12T07:59:26Z</time>
      </trkpt>
      <trkpt lat="47.596302" lon="2.2294397">
        <ele>174</ele>
        <time>2022-05-12T07:59:27Z</time>
      </trkpt>
      <trkpt lat="47.59629" lon="2.2294512">
        <ele>174</ele>
        <time>2022-05-12T07:59:28Z</time>
      </trkpt>
      <trkpt lat="47.59628" lon="2.2294636">
        <ele>174</ele>
        <time>2022-05-12T07:59:29Z</time>
      </trkpt>
      <trkpt lat="47.59627" lon="2.2294714">
        <ele>174</ele>
        <time>2022-05-12T07:59:30Z</time>
      </trkpt>
      <trkpt lat="47.596252" lon="2.2294824">
        <ele>174</ele>
        <time>2022-05-12T07:59:31Z</time>
      </trkpt>
      <trkpt lat="47.596233" lon="2.2294927">
        <ele>173</ele>
        <time>2022-05-12T07:59:32Z</time>
      </trkpt>
      <trkpt lat="47.596214" lon="2.229498">
        <ele>173</ele>
        <time>2022-05-12T07:59:33Z</time>
      </trkpt>
      <trkpt lat="47.5962" lon="2.2295055">
        <ele>173</ele>
        <time>2022-05-12T07:59:34Z</time>
      </trkpt>
      <trkpt lat="47.596188" lon="2.22951">
        <ele>173</ele>
        <time>2022-05-12T07:59:35Z</time>
      </trkpt>
      <trkpt lat="47.596176" lon="2.229516">
        <ele>173</ele>
        <time>2022-05-12T07:59:36Z</time>
      </trkpt>
      <trkpt lat="47.596165" lon="2.2295187">
        <ele>173</ele>
        <time>2022-05-12T07:59:37Z</time>
      </trkpt>
      <trkpt lat="47.59615" lon="2.229525">
        <ele>173</ele>
        <time>2022-05-12T07:59:38Z</time>
      </trkpt>
      <trkpt lat="47.596138" lon="2.2295327">
        <ele>173</ele>
        <time>2022-05-12T07:59:39Z</time>
      </trkpt>
      <trkpt lat="47.59613" lon="2.2295437">
        <ele>173</ele>
        <time>2022-05-12T07:59:40Z</time>
      </trkpt>
      <trkpt lat="47.59612" lon="2.2295504">
        <ele>173</ele>
        <time>2022-05-12T07:59:41Z</time>
      </trkpt>
      <trkpt lat="47.596107" lon="2.229564">
        <ele>173</ele>
        <time>2022-05-12T07:59:42Z</time>
      </trkpt>
      <trkpt lat="47.596104" lon="2.2295806">
        <ele>172</ele>
        <time>2022-05-12T07:59:43Z</time>
      </trkpt>
      <trkpt lat="47.5961" lon="2.229586">
        <ele>172</ele>
        <time>2022-05-12T07:59:44Z</time>
      </trkpt>
      <trkpt lat="47.5961" lon="2.229594">
        <ele>172</ele>
        <time>2022-05-12T07:59:45Z</time>
      </trkpt>
      <trkpt lat="47.596092" lon="2.2296047">
        <ele>172</ele>
        <time>2022-05-12T07:59:46Z</time>
      </trkpt>
      <trkpt lat="47.59608" lon="2.2296128">
        <ele>172</ele>
        <time>2022-05-12T07:59:47Z</time>
      </trkpt>
      <trkpt lat="47.596073" lon="2.2296247">
        <ele>173</ele>
        <time>2022-05-12T07:59:48Z</time>
      </trkpt>
      <trkpt lat="47.59606" lon="2.2296367">
        <ele>173</ele>
        <time>2022-05-12T07:59:49Z</time>
      </trkpt>
      <trkpt lat="47.596058" lon="2.2296505">
        <ele>173</ele>
        <time>2022-05-12T07:59:50Z</time>
      </trkpt>
      <trkpt lat="47.59605" lon="2.229667">
        <ele>173</ele>
        <time>2022-05-12T07:59:51Z</time>
      </trkpt>
      <trkpt lat="47.596043" lon="2.2296793">
        <ele>172</ele>
        <time>2022-05-12T07:59:52Z</time>
      </trkpt>
      <trkpt lat="47.596035" lon="2.2296956">
        <ele>172</ele>
        <time>2022-05-12T07:59:53Z</time>
      </trkpt>
      <trkpt lat="47.596027" lon="2.2296948">
        <ele>172</ele>
        <time>2022-05-12T07:59:54Z</time>
      </trkpt>
      <trkpt lat="47.596027" lon="2.2296948">
        <ele>172</ele>
        <time>2022-05-12T07:59:55Z</time>
      </trkpt>
      <trkpt lat="47.596027" lon="2.2296948">
        <ele>172</ele>
        <time>2022-05-12T07:59:56Z</time>
      </trkpt>
      <trkpt lat="47.595997" lon="2.2297113">
        <ele>173</ele>
        <time>2022-05-12T07:59:57Z</time>
      </trkpt>
      <trkpt lat="47.595993" lon="2.229717">
        <ele>172</ele>
        <time>2022-05-12T07:59:58Z</time>
      </trkpt>
      <trkpt lat="47.595974" lon="2.229728">
        <ele>171</ele>
        <time>2022-05-12T07:59:59Z</time>
      </trkpt>
      <trkpt lat="47.595963" lon="2.2297316">
        <ele>171</ele>
        <time>2022-05-12T08:00:00Z</time>
      </trkpt>
      <trkpt lat="47.595943" lon="2.2297413">
        <ele>171</ele>
        <time>2022-05-12T08:00:01Z</time>
      </trkpt>
      <trkpt lat="47.595932" lon="2.2297504">
        <ele>170</ele>
        <time>2022-05-12T08:00:02Z</time>
      </trkpt>
      <trkpt lat="47.59592" lon="2.2297585">
        <ele>169</ele>
        <time>2022-05-12T08:00:03Z</time>
      </trkpt>
      <trkpt lat="47.595913" lon="2.2297678">
        <ele>169</ele>
        <time>2022-05-12T08:00:04Z</time>
      </trkpt>
      <trkpt lat="47.595905" lon="2.229778">
        <ele>169</ele>
        <time>2022-05-12T08:00:05Z</time>
      </trkpt>
      <trkpt lat="47.595894" lon="2.2297916">
        <ele>169</ele>
        <time>2022-05-12T08:00:06Z</time>
      </trkpt>
      <trkpt lat="47.595886" lon="2.2298007">
        <ele>169</ele>
        <time>2022-05-12T08:00:07Z</time>
      </trkpt>
      <trkpt lat="47.59588" lon="2.2298105">
        <ele>169</ele>
        <time>2022-05-12T08:00:08Z</time>
      </trkpt>
      <trkpt lat="47.595863" lon="2.2298245">
        <ele>169</ele>
        <time>2022-05-12T08:00:09Z</time>
      </trkpt>
      <trkpt lat="47.59585" lon="2.2298326">
        <ele>169</ele>
        <time>2022-05-12T08:00:10Z</time>
      </trkpt>
      <trkpt lat="47.59584" lon="2.2298439">
        <ele>168</ele>
        <time>2022-05-12T08:00:11Z</time>
      </trkpt>
      <trkpt lat="47.59583" lon="2.2298532">
        <ele>168</ele>
        <time>2022-05-12T08:00:12Z</time>
      </trkpt>
      <trkpt lat="47.595818" lon="2.2298617">
        <ele>168</ele>
        <time>2022-05-12T08:00:13Z</time>
      </trkpt>
      <trkpt lat="47.595806" lon="2.2298672">
        <ele>167</ele>
        <time>2022-05-12T08:00:14Z</time>
      </trkpt>
      <trkpt lat="47.59579" lon="2.2298784">
        <ele>167</ele>
        <time>2022-05-12T08:00:15Z</time>
      </trkpt>
      <trkpt lat="47.595783" lon="2.2298844">
        <ele>167</ele>
        <time>2022-05-12T08:00:16Z</time>
      </trkpt>
      <trkpt lat="47.595776" lon="2.2298899">
        <ele>167</ele>
        <time>2022-05-12T08:00:17Z</time>
      </trkpt>
      <trkpt lat="47.595764" lon="2.2298965">
        <ele>166</ele>
        <time>2022-05-12T08:00:18Z</time>
      </trkpt>
      <trkpt lat="47.59575" lon="2.2299051">
        <ele>166</ele>
        <time>2022-05-12T08:00:19Z</time>
      </trkpt>
      <trkpt lat="47.59574" lon="2.229912">
        <ele>165</ele>
        <time>2022-05-12T08:00:20Z</time>
      </trkpt>
      <trkpt lat="47.595734" lon="2.2299228">
        <ele>165</ele>
        <time>2022-05-12T08:00:21Z</time>
      </trkpt>
      <trkpt lat="47.595722" lon="2.229938">
        <ele>165</ele>
        <time>2022-05-12T08:00:22Z</time>
      </trkpt>
      <trkpt lat="47.595715" lon="2.2299542">
        <ele>164</ele>
        <time>2022-05-12T08:00:23Z</time>
      </trkpt>
      <trkpt lat="47.595703" lon="2.2299676">
        <ele>164</ele>
        <time>2022-05-12T08:00:24Z</time>
      </trkpt>
      <trkpt lat="47.59569" lon="2.229983">
        <ele>164</ele>
        <time>2022-05-12T08:00:25Z</time>
      </trkpt>
      <trkpt lat="47.595684" lon="2.2300034">
        <ele>164</ele>
        <time>2022-05-12T08:00:26Z</time>
      </trkpt>
      <trkpt lat="47.595676" lon="2.2300177">
        <ele>164</ele>
        <time>2022-05-12T08:00:27Z</time>
      </trkpt>
      <trkpt lat="47.595665" lon="2.2300322">
        <ele>164</ele>
        <time>2022-05-12T08:00:28Z</time>
      </trkpt>
      <trkpt lat="47.595654" lon="2.2300432">
        <ele>165</ele>
        <time>2022-05-12T08:00:29Z</time>
      </trkpt>
      <trkpt lat="47.595642" lon="2.2300515">
        <ele>165</ele>
        <time>2022-05-12T08:00:30Z</time>
      </trkpt>
      <trkpt lat="47.595634" lon="2.2300625">
        <ele>165</ele>
        <time>2022-05-12T08:00:31Z</time>
      </trkpt>
      <trkpt lat="47.595627" lon="2.2300751">
        <ele>165</ele>
        <time>2022-05-12T08:00:32Z</time>
      </trkpt>
      <trkpt lat="47.59561" lon="2.2300847">
        <ele>165</ele>
        <time>2022-05-12T08:00:33Z</time>
      </trkpt>
      <trkpt lat="47.595604" lon="2.2301006">
        <ele>165</ele>
        <time>2022-05-12T08:00:34Z</time>
      </trkpt>
      <trkpt lat="47.595596" lon="2.2301185">
        <ele>165</ele>
        <time>2022-05-12T08:00:35Z</time>
      </trkpt>
      <trkpt lat="47.59559" lon="2.230133">
        <ele>166</ele>
        <time>2022-05-12T08:00:36Z</time>
      </trkpt>
      <trkpt lat="47.595577" lon="2.2301404">
        <ele>167</ele>
        <time>2022-05-12T08:00:37Z</time>
      </trkpt>
      <trkpt lat="47.59557" lon="2.2301505">
        <ele>166</ele>
        <time>2022-05-12T08:00:38Z</time>
      </trkpt>
      <trkpt lat="47.59557" lon="2.230167">
        <ele>166</ele>
        <time>2022-05-12T08:00:39Z</time>
      </trkpt>
      <trkpt lat="47.595566" lon="2.2301826">
        <ele>166</ele>
        <time>2022-05-12T08:00:40Z</time>
      </trkpt>
      <trkpt lat="47.59556" lon="2.2301946">
        <ele>166</ele>
        <time>2022-05-12T08:00:41Z</time>
      </trkpt>
      <trkpt lat="47.595554" lon="2.230211">
        <ele>167</ele>
        <time>2022-05-12T08:00:42Z</time>
      </trkpt>
      <trkpt lat="47.595554" lon="2.2302237">
        <ele>167</ele>
        <time>2022-05-12T08:00:43Z</time>
      </trkpt>
      <trkpt lat="47.59556" lon="2.2302427">
        <ele>168</ele>
        <time>2022-05-12T08:00:44Z</time>
      </trkpt>
      <trkpt lat="47.59556" lon="2.2302594">
        <ele>168</ele>
        <time>2022-05-12T08:00:45Z</time>
      </trkpt>
      <trkpt lat="47.59556" lon="2.2302697">
        <ele>168</ele>
        <time>2022-05-12T08:00:46Z</time>
      </trkpt>
      <trkpt lat="47.59555" lon="2.2302825">
        <ele>168</ele>
        <time>2022-05-12T08:00:47Z</time>
      </trkpt>
      <trkpt lat="47.59555" lon="2.2302897">
        <ele>168</ele>
        <time>2022-05-12T08:00:48Z</time>
      </trkpt>
      <trkpt lat="47.595543" lon="2.2303023">
        <ele>168</ele>
        <time>2022-05-12T08:00:49Z</time>
      </trkpt>
      <trkpt lat="47.595535" lon="2.2303126">
        <ele>168</ele>
        <time>2022-05-12T08:00:50Z</time>
      </trkpt>
      <trkpt lat="47.595524" lon="2.2303252">
        <ele>168</ele>
        <time>2022-05-12T08:00:51Z</time>
      </trkpt>
      <trkpt lat="47.595516" lon="2.23034">
        <ele>168</ele>
        <time>2022-05-12T08:00:52Z</time>
      </trkpt>
      <trkpt lat="47.595516" lon="2.230358">
        <ele>169</ele>
        <time>2022-05-12T08:00:53Z</time>
      </trkpt>
      <trkpt lat="47.59551" lon="2.2303808">
        <ele>169</ele>
        <time>2022-05-12T08:00:54Z</time>
      </trkpt>
      <trkpt lat="47.595505" lon="2.230399">
        <ele>169</ele>
        <time>2022-05-12T08:00:55Z</time>
      </trkpt>
      <trkpt lat="47.595505" lon="2.230418">
        <ele>168</ele>
        <time>2022-05-12T08:00:56Z</time>
      </trkpt>
      <trkpt lat="47.595505" lon="2.2304344">
        <ele>168</ele>
        <time>2022-05-12T08:00:57Z</time>
      </trkpt>
      <trkpt lat="47.595505" lon="2.2304344">
        <ele>168</ele>
        <time>2022-05-12T08:00:58Z</time>
      </trkpt>
      <trkpt lat="47.595497" lon="2.2304597">
        <ele>168</ele>
        <time>2022-05-12T08:00:59Z</time>
      </trkpt>
      <trkpt lat="47.595497" lon="2.2304804">
        <ele>168</ele>
        <time>2022-05-12T08:01:00Z</time>
      </trkpt>
      <trkpt lat="47.595497" lon="2.2305">
        <ele>168</ele>
        <time>2022-05-12T08:01:01Z</time>
      </trkpt>
      <trkpt lat="47.595497" lon="2.2305176">
        <ele>168</ele>
        <time>2022-05-12T08:01:02Z</time>
      </trkpt>
      <trkpt lat="47.59549" lon="2.230542">
        <ele>168</ele>
        <time>2022-05-12T08:01:03Z</time>
      </trkpt>
      <trkpt lat="47.59548" lon="2.2305634">
        <ele>169</ele>
        <time>2022-05-12T08:01:04Z</time>
      </trkpt>
      <trkpt lat="47.595474" lon="2.2305844">
        <ele>169</ele>
        <time>2022-05-12T08:01:05Z</time>
      </trkpt>
      <trkpt lat="47.59547" lon="2.230604">
        <ele>168</ele>
        <time>2022-05-12T08:01:06Z</time>
      </trkpt>
      <trkpt lat="47.595467" lon="2.230622">
        <ele>168</ele>
        <time>2022-05-12T08:01:07Z</time>
      </trkpt>
      <trkpt lat="47.59546" lon="2.230637">
        <ele>168</ele>
        <time>2022-05-12T08:01:08Z</time>
      </trkpt>
      <trkpt lat="47.595455" lon="2.230649">
        <ele>168</ele>
        <time>2022-05-12T08:01:09Z</time>
      </trkpt>
      <trkpt lat="47.59545" lon="2.2306619">
        <ele>168</ele>
        <time>2022-05-12T08:01:10Z</time>
      </trkpt>
      <trkpt lat="47.595444" lon="2.2306783">
        <ele>168</ele>
        <time>2022-05-12T08:01:11Z</time>
      </trkpt>
      <trkpt lat="47.595436" lon="2.2306874">
        <ele>167</ele>
        <time>2022-05-12T08:01:12Z</time>
      </trkpt>
      <trkpt lat="47.595432" lon="2.230695">
        <ele>167</ele>
        <time>2022-05-12T08:01:13Z</time>
      </trkpt>
      <trkpt lat="47.59543" lon="2.2306988">
        <ele>167</ele>
        <time>2022-05-12T08:01:14Z</time>
      </trkpt>
      <trkpt lat="47.59543" lon="2.2306988">
        <ele>167</ele>
        <time>2022-05-12T08:01:15Z</time>
      </trkpt>
      <trkpt lat="47.59543" lon="2.2306988">
        <ele>167</ele>
        <time>2022-05-12T08:01:16Z</time>
      </trkpt>
      <trkpt lat="47.595398" lon="2.2307148">
        <ele>166</ele>
        <time>2022-05-12T08:01:17Z</time>
      </trkpt>
      <trkpt lat="47.595383" lon="2.2307172">
        <ele>166</ele>
        <time>2022-05-12T08:01:18Z</time>
      </trkpt>
      <trkpt lat="47.595375" lon="2.2307231">
        <ele>166</ele>
        <time>2022-05-12T08:01:19Z</time>
      </trkpt>
      <trkpt lat="47.595367" lon="2.2307243">
        <ele>165</ele>
        <time>2022-05-12T08:01:20Z</time>
      </trkpt>
      <trkpt lat="47.595367" lon="2.2307243">
        <ele>165</ele>
        <time>2022-05-12T08:01:21Z</time>
      </trkpt>
      <trkpt lat="47.595367" lon="2.2307243">
        <ele>165</ele>
        <time>2022-05-12T08:01:22Z</time>
      </trkpt>
      <trkpt lat="47.59535" lon="2.2307415">
        <ele>165</ele>
        <time>2022-05-12T08:01:23Z</time>
      </trkpt>
      <trkpt lat="47.595345" lon="2.2307525">
        <ele>165</ele>
        <time>2022-05-12T08:01:24Z</time>
      </trkpt>
      <trkpt lat="47.59534" lon="2.2307596">
        <ele>165</ele>
        <time>2022-05-12T08:01:25Z</time>
      </trkpt>
      <trkpt lat="47.595333" lon="2.2307706">
        <ele>165</ele>
        <time>2022-05-12T08:01:26Z</time>
      </trkpt>
      <trkpt lat="47.59533" lon="2.2307813">
        <ele>165</ele>
        <time>2022-05-12T08:01:27Z</time>
      </trkpt>
      <trkpt lat="47.59532" lon="2.2307951">
        <ele>166</ele>
        <time>2022-05-12T08:01:28Z</time>
      </trkpt>
      <trkpt lat="47.595314" lon="2.2308152">
        <ele>166</ele>
        <time>2022-05-12T08:01:29Z</time>
      </trkpt>
      <trkpt lat="47.595306" lon="2.2308245">
        <ele>166</ele>
        <time>2022-05-12T08:01:30Z</time>
      </trkpt>
      <trkpt lat="47.595295" lon="2.2308311">
        <ele>166</ele>
        <time>2022-05-12T08:01:31Z</time>
      </trkpt>
      <trkpt lat="47.595287" lon="2.2308447">
        <ele>167</ele>
        <time>2022-05-12T08:01:32Z</time>
      </trkpt>
      <trkpt lat="47.595276" lon="2.230856">
        <ele>167</ele>
        <time>2022-05-12T08:01:33Z</time>
      </trkpt>
      <trkpt lat="47.59527" lon="2.2308617">
        <ele>167</ele>
        <time>2022-05-12T08:01:34Z</time>
      </trkpt>
      <trkpt lat="47.595257" lon="2.2308671">
        <ele>167</ele>
        <time>2022-05-12T08:01:35Z</time>
      </trkpt>
      <trkpt lat="47.595245" lon="2.2308743">
        <ele>167</ele>
        <time>2022-05-12T08:01:36Z</time>
      </trkpt>
      <trkpt lat="47.595238" lon="2.2308798">
        <ele>167</ele>
        <time>2022-05-12T08:01:37Z</time>
      </trkpt>
      <trkpt lat="47.595226" lon="2.2308898">
        <ele>167</ele>
        <time>2022-05-12T08:01:38Z</time>
      </trkpt>
      <trkpt lat="47.59522" lon="2.2308931">
        <ele>168</ele>
        <time>2022-05-12T08:01:39Z</time>
      </trkpt>
      <trkpt lat="47.59521" lon="2.2309017">
        <ele>169</ele>
        <time>2022-05-12T08:01:40Z</time>
      </trkpt>
      <trkpt lat="47.595203" lon="2.2309115">
        <ele>169</ele>
        <time>2022-05-12T08:01:41Z</time>
      </trkpt>
      <trkpt lat="47.595192" lon="2.2309215">
        <ele>169</ele>
        <time>2022-05-12T08:01:42Z</time>
      </trkpt>
      <trkpt lat="47.59518" lon="2.230933">
        <ele>169</ele>
        <time>2022-05-12T08:01:43Z</time>
      </trkpt>
      <trkpt lat="47.595165" lon="2.2309408">
        <ele>169</ele>
        <time>2022-05-12T08:01:44Z</time>
      </trkpt>
      <trkpt lat="47.595158" lon="2.2309513">
        <ele>168</ele>
        <time>2022-05-12T08:01:45Z</time>
      </trkpt>
      <trkpt lat="47.595154" lon="2.2309637">
        <ele>168</ele>
        <time>2022-05-12T08:01:46Z</time>
      </trkpt>
      <trkpt lat="47.595146" lon="2.230977">
        <ele>167</ele>
        <time>2022-05-12T08:01:47Z</time>
      </trkpt>
      <trkpt lat="47.59514" lon="2.2309906">
        <ele>167</ele>
        <time>2022-05-12T08:01:48Z</time>
      </trkpt>
      <trkpt lat="47.59513" lon="2.231001">
        <ele>166</ele>
        <time>2022-05-12T08:01:49Z</time>
      </trkpt>
      <trkpt lat="47.59512" lon="2.231011">
        <ele>166</ele>
        <time>2022-05-12T08:01:50Z</time>
      </trkpt>
      <trkpt lat="47.595108" lon="2.2310197">
        <ele>165</ele>
        <time>2022-05-12T08:01:51Z</time>
      </trkpt>
      <trkpt lat="47.595093" lon="2.2310305">
        <ele>165</ele>
        <time>2022-05-12T08:01:52Z</time>
      </trkpt>
      <trkpt lat="47.595085" lon="2.2310379">
        <ele>164</ele>
        <time>2022-05-12T08:01:53Z</time>
      </trkpt>
      <trkpt lat="47.595074" lon="2.2310436">
        <ele>164</ele>
        <time>2022-05-12T08:01:54Z</time>
      </trkpt>
      <trkpt lat="47.59506" lon="2.2310448">
        <ele>164</ele>
        <time>2022-05-12T08:01:55Z</time>
      </trkpt>
      <trkpt lat="47.595047" lon="2.2310455">
        <ele>165</ele>
        <time>2022-05-12T08:01:56Z</time>
      </trkpt>
      <trkpt lat="47.595036" lon="2.2310503">
        <ele>165</ele>
        <time>2022-05-12T08:01:57Z</time>
      </trkpt>
      <trkpt lat="47.595024" lon="2.2310553">
        <ele>165</ele>
        <time>2022-05-12T08:01:58Z</time>
      </trkpt>
      <trkpt lat="47.595013" lon="2.2310634">
        <ele>165</ele>
        <time>2022-05-12T08:01:59Z</time>
      </trkpt>
      <trkpt lat="47.594997" lon="2.2310684">
        <ele>166</ele>
        <time>2022-05-12T08:02:00Z</time>
      </trkpt>
      <trkpt lat="47.594986" lon="2.2310739">
        <ele>166</ele>
        <time>2022-05-12T08:02:01Z</time>
      </trkpt>
      <trkpt lat="47.594975" lon="2.231079">
        <ele>166</ele>
        <time>2022-05-12T08:02:02Z</time>
      </trkpt>
      <trkpt lat="47.594963" lon="2.2310855">
        <ele>166</ele>
        <time>2022-05-12T08:02:03Z</time>
      </trkpt>
      <trkpt lat="47.594948" lon="2.23109">
        <ele>166</ele>
        <time>2022-05-12T08:02:04Z</time>
      </trkpt>
      <trkpt lat="47.594936" lon="2.2310953">
        <ele>166</ele>
        <time>2022-05-12T08:02:05Z</time>
      </trkpt>
      <trkpt lat="47.594925" lon="2.2311003">
        <ele>166</ele>
        <time>2022-05-12T08:02:06Z</time>
      </trkpt>
      <trkpt lat="47.594917" lon="2.2310972">
        <ele>166</ele>
        <time>2022-05-12T08:02:07Z</time>
      </trkpt>
      <trkpt lat="47.594906" lon="2.2310936">
        <ele>166</ele>
        <time>2022-05-12T08:02:08Z</time>
      </trkpt>
      <trkpt lat="47.594894" lon="2.2310956">
        <ele>166</ele>
        <time>2022-05-12T08:02:09Z</time>
      </trkpt>
      <trkpt lat="47.59488" lon="2.2310991">
        <ele>166</ele>
        <time>2022-05-12T08:02:10Z</time>
      </trkpt>
      <trkpt lat="47.594864" lon="2.231102">
        <ele>166</ele>
        <time>2022-05-12T08:02:11Z</time>
      </trkpt>
      <trkpt lat="47.59485" lon="2.2311087">
        <ele>166</ele>
        <time>2022-05-12T08:02:12Z</time>
      </trkpt>
      <trkpt lat="47.594837" lon="2.2311096">
        <ele>167</ele>
        <time>2022-05-12T08:02:13Z</time>
      </trkpt>
      <trkpt lat="47.594822" lon="2.231114">
        <ele>167</ele>
        <time>2022-05-12T08:02:14Z</time>
      </trkpt>
      <trkpt lat="47.594807" lon="2.2311192">
        <ele>167</ele>
        <time>2022-05-12T08:02:15Z</time>
      </trkpt>
      <trkpt lat="47.59479" lon="2.2311227">
        <ele>167</ele>
        <time>2022-05-12T08:02:16Z</time>
      </trkpt>
      <trkpt lat="47.594776" lon="2.2311256">
        <ele>167</ele>
        <time>2022-05-12T08:02:17Z</time>
      </trkpt>
      <trkpt lat="47.59476" lon="2.2311301">
        <ele>167</ele>
        <time>2022-05-12T08:02:18Z</time>
      </trkpt>
      <trkpt lat="47.594746" lon="2.2311354">
        <ele>167</ele>
        <time>2022-05-12T08:02:19Z</time>
      </trkpt>
      <trkpt lat="47.59473" lon="2.2311406">
        <ele>168</ele>
        <time>2022-05-12T08:02:20Z</time>
      </trkpt>
      <trkpt lat="47.59472" lon="2.2311451">
        <ele>167</ele>
        <time>2022-05-12T08:02:21Z</time>
      </trkpt>
      <trkpt lat="47.594707" lon="2.231146">
        <ele>167</ele>
        <time>2022-05-12T08:02:22Z</time>
      </trkpt>
      <trkpt lat="47.594692" lon="2.231152">
        <ele>167</ele>
        <time>2022-05-12T08:02:23Z</time>
      </trkpt>
      <trkpt lat="47.594685" lon="2.2311568">
        <ele>167</ele>
        <time>2022-05-12T08:02:24Z</time>
      </trkpt>
      <trkpt lat="47.594677" lon="2.2311552">
        <ele>168</ele>
        <time>2022-05-12T08:02:25Z</time>
      </trkpt>
      <trkpt lat="47.59467" lon="2.2311547">
        <ele>168</ele>
        <time>2022-05-12T08:02:26Z</time>
      </trkpt>
      <trkpt lat="47.59466" lon="2.231156">
        <ele>168</ele>
        <time>2022-05-12T08:02:27Z</time>
      </trkpt>
      <trkpt lat="47.59466" lon="2.231156">
        <ele>168</ele>
        <time>2022-05-12T08:02:28Z</time>
      </trkpt>
      <trkpt lat="47.594646" lon="2.2311528">
        <ele>168</ele>
        <time>2022-05-12T08:02:29Z</time>
      </trkpt>
      <trkpt lat="47.594635" lon="2.2311525">
        <ele>169</ele>
        <time>2022-05-12T08:02:30Z</time>
      </trkpt>
      <trkpt lat="47.594627" lon="2.2311535">
        <ele>169</ele>
        <time>2022-05-12T08:02:31Z</time>
      </trkpt>
      <trkpt lat="47.59462" lon="2.2311502">
        <ele>169</ele>
        <time>2022-05-12T08:02:32Z</time>
      </trkpt>
      <trkpt lat="47.59462" lon="2.2311502">
        <ele>169</ele>
        <time>2022-05-12T08:02:33Z</time>
      </trkpt>
      <trkpt lat="47.594604" lon="2.2311485">
        <ele>169</ele>
        <time>2022-05-12T08:02:34Z</time>
      </trkpt>
      <trkpt lat="47.594597" lon="2.2311463">
        <ele>169</ele>
        <time>2022-05-12T08:02:35Z</time>
      </trkpt>
      <trkpt lat="47.594585" lon="2.2311432">
        <ele>169</ele>
        <time>2022-05-12T08:02:36Z</time>
      </trkpt>
      <trkpt lat="47.594574" lon="2.231141">
        <ele>170</ele>
        <time>2022-05-12T08:02:37Z</time>
      </trkpt>
      <trkpt lat="47.594566" lon="2.2311378">
        <ele>170</ele>
        <time>2022-05-12T08:02:38Z</time>
      </trkpt>
      <trkpt lat="47.59456" lon="2.2311351">
        <ele>170</ele>
        <time>2022-05-12T08:02:39Z</time>
      </trkpt>
      <trkpt lat="47.594547" lon="2.231131">
        <ele>170</ele>
        <time>2022-05-12T08:02:40Z</time>
      </trkpt>
      <trkpt lat="47.594536" lon="2.2311275">
        <ele>170</ele>
        <time>2022-05-12T08:02:41Z</time>
      </trkpt>
      <trkpt lat="47.594524" lon="2.2311225">
        <ele>170</ele>
        <time>2022-05-12T08:02:42Z</time>
      </trkpt>
      <trkpt lat="47.594513" lon="2.231117">
        <ele>170</ele>
        <time>2022-05-12T08:02:43Z</time>
      </trkpt>
      <trkpt lat="47.5945" lon="2.2311099">
        <ele>170</ele>
        <time>2022-05-12T08:02:44Z</time>
      </trkpt>
      <trkpt lat="47.594494" lon="2.2311006">
        <ele>170</ele>
        <time>2022-05-12T08:02:45Z</time>
      </trkpt>
      <trkpt lat="47.594486" lon="2.2310941">
        <ele>170</ele>
        <time>2022-05-12T08:02:46Z</time>
      </trkpt>
      <trkpt lat="47.594475" lon="2.2310894">
        <ele>170</ele>
        <time>2022-05-12T08:02:47Z</time>
      </trkpt>
      <trkpt lat="47.594463" lon="2.2310858">
        <ele>170</ele>
        <time>2022-05-12T08:02:48Z</time>
      </trkpt>
      <trkpt lat="47.594456" lon="2.2310786">
        <ele>169</ele>
        <time>2022-05-12T08:02:49Z</time>
      </trkpt>
      <trkpt lat="47.594448" lon="2.2310717">
        <ele>169</ele>
        <time>2022-05-12T08:02:50Z</time>
      </trkpt>
      <trkpt lat="47.594437" lon="2.2310686">
        <ele>169</ele>
        <time>2022-05-12T08:02:51Z</time>
      </trkpt>
      <trkpt lat="47.594425" lon="2.231069">
        <ele>169</ele>
        <time>2022-05-12T08:02:52Z</time>
      </trkpt>
      <trkpt lat="47.59441" lon="2.2310674">
        <ele>169</ele>
        <time>2022-05-12T08:02:53Z</time>
      </trkpt>
      <trkpt lat="47.5944" lon="2.2310627">
        <ele>168</ele>
        <time>2022-05-12T08:02:54Z</time>
      </trkpt>
      <trkpt lat="47.594387" lon="2.2310581">
        <ele>168</ele>
        <time>2022-05-12T08:02:55Z</time>
      </trkpt>
      <trkpt lat="47.594376" lon="2.2310505">
        <ele>168</ele>
        <time>2022-05-12T08:02:56Z</time>
      </trkpt>
      <trkpt lat="47.594376" lon="2.2310505">
        <ele>168</ele>
        <time>2022-05-12T08:02:57Z</time>
      </trkpt>
      <trkpt lat="47.594376" lon="2.2310505">
        <ele>168</ele>
        <time>2022-05-12T08:02:58Z</time>
      </trkpt>
      <trkpt lat="47.594353" lon="2.2310297">
        <ele>169</ele>
        <time>2022-05-12T08:02:59Z</time>
      </trkpt>
      <trkpt lat="47.594345" lon="2.231024">
        <ele>169</ele>
        <time>2022-05-12T08:03:00Z</time>
      </trkpt>
      <trkpt lat="47.594334" lon="2.2310176">
        <ele>170</ele>
        <time>2022-05-12T08:03:01Z</time>
      </trkpt>
      <trkpt lat="47.594322" lon="2.231013">
        <ele>170</ele>
        <time>2022-05-12T08:03:02Z</time>
      </trkpt>
      <trkpt lat="47.594322" lon="2.231013">
        <ele>170</ele>
        <time>2022-05-12T08:03:03Z</time>
      </trkpt>
      <trkpt lat="47.594307" lon="2.2310045">
        <ele>171</ele>
        <time>2022-05-12T08:03:04Z</time>
      </trkpt>
      <trkpt lat="47.594296" lon="2.2309997">
        <ele>171</ele>
        <time>2022-05-12T08:03:05Z</time>
      </trkpt>
      <trkpt lat="47.594284" lon="2.230994">
        <ele>171</ele>
        <time>2022-05-12T08:03:06Z</time>
      </trkpt>
      <trkpt lat="47.594273" lon="2.2309883">
        <ele>171</ele>
        <time>2022-05-12T08:03:07Z</time>
      </trkpt>
      <trkpt lat="47.59426" lon="2.2309813">
        <ele>171</ele>
        <time>2022-05-12T08:03:08Z</time>
      </trkpt>
      <trkpt lat="47.59425" lon="2.2309732">
        <ele>171</ele>
        <time>2022-05-12T08:03:09Z</time>
      </trkpt>
      <trkpt lat="47.594246" lon="2.2309685">
        <ele>171</ele>
        <time>2022-05-12T08:03:10Z</time>
      </trkpt>
      <trkpt lat="47.594234" lon="2.2309647">
        <ele>172</ele>
        <time>2022-05-12T08:03:11Z</time>
      </trkpt>
      <trkpt lat="47.594227" lon="2.2309587">
        <ele>172</ele>
        <time>2022-05-12T08:03:12Z</time>
      </trkpt>
      <trkpt lat="47.59422" lon="2.2309535">
        <ele>171</ele>
        <time>2022-05-12T08:03:13Z</time>
      </trkpt>
      <trkpt lat="47.594208" lon="2.2309482">
        <ele>172</ele>
        <time>2022-05-12T08:03:14Z</time>
      </trkpt>
      <trkpt lat="47.594196" lon="2.2309434">
        <ele>171</ele>
        <time>2022-05-12T08:03:15Z</time>
      </trkpt>
      <trkpt lat="47.59418" lon="2.2309365">
        <ele>171</ele>
        <time>2022-05-12T08:03:16Z</time>
      </trkpt>
      <trkpt lat="47.59417" lon="2.2309258">
        <ele>171</ele>
        <time>2022-05-12T08:03:17Z</time>
      </trkpt>
      <trkpt lat="47.594154" lon="2.2309163">
        <ele>171</ele>
        <time>2022-05-12T08:03:18Z</time>
      </trkpt>
      <trkpt lat="47.594143" lon="2.2309115">
        <ele>171</ele>
        <time>2022-05-12T08:03:19Z</time>
      </trkpt>
      <trkpt lat="47.594128" lon="2.2309093">
        <ele>172</ele>
        <time>2022-05-12T08:03:20Z</time>
      </trkpt>
      <trkpt lat="47.594112" lon="2.230906">
        <ele>172</ele>
        <time>2022-05-12T08:03:21Z</time>
      </trkpt>
      <trkpt lat="47.5941" lon="2.2308993">
        <ele>172</ele>
        <time>2022-05-12T08:03:22Z</time>
      </trkpt>
      <trkpt lat="47.594086" lon="2.2308934">
        <ele>171</ele>
        <time>2022-05-12T08:03:23Z</time>
      </trkpt>
      <trkpt lat="47.59407" lon="2.2308862">
        <ele>171</ele>
        <time>2022-05-12T08:03:24Z</time>
      </trkpt>
      <trkpt lat="47.59406" lon="2.230882">
        <ele>171</ele>
        <time>2022-05-12T08:03:25Z</time>
      </trkpt>
      <trkpt lat="47.594048" lon="2.2308757">
        <ele>171</ele>
        <time>2022-05-12T08:03:26Z</time>
      </trkpt>
      <trkpt lat="47.59404" lon="2.2308724">
        <ele>170</ele>
        <time>2022-05-12T08:03:27Z</time>
      </trkpt>
      <trkpt lat="47.59404" lon="2.2308724">
        <ele>170</ele>
        <time>2022-05-12T08:03:28Z</time>
      </trkpt>
      <trkpt lat="47.59404" lon="2.2308724">
        <ele>170</ele>
        <time>2022-05-12T08:03:29Z</time>
      </trkpt>
      <trkpt lat="47.594013" lon="2.2308674">
        <ele>171</ele>
        <time>2022-05-12T08:03:30Z</time>
      </trkpt>
      <trkpt lat="47.594" lon="2.230866">
        <ele>172</ele>
        <time>2022-05-12T08:03:31Z</time>
      </trkpt>
      <trkpt lat="47.593994" lon="2.230861">
        <ele>172</ele>
        <time>2022-05-12T08:03:32Z</time>
      </trkpt>
      <trkpt lat="47.593983" lon="2.2308564">
        <ele>171</ele>
        <time>2022-05-12T08:03:33Z</time>
      </trkpt>
      <trkpt lat="47.593983" lon="2.2308564">
        <ele>171</ele>
        <time>2022-05-12T08:03:34Z</time>
      </trkpt>
      <trkpt lat="47.593983" lon="2.2308564">
        <ele>171</ele>
        <time>2022-05-12T08:03:35Z</time>
      </trkpt>
      <trkpt lat="47.593956" lon="2.2308493">
        <ele>172</ele>
        <time>2022-05-12T08:03:36Z</time>
      </trkpt>
      <trkpt lat="47.593945" lon="2.2308438">
        <ele>172</ele>
        <time>2022-05-12T08:03:37Z</time>
      </trkpt>
      <trkpt lat="47.59393" lon="2.2308383">
        <ele>172</ele>
        <time>2022-05-12T08:03:38Z</time>
      </trkpt>
      <trkpt lat="47.59392" lon="2.230835">
        <ele>172</ele>
        <time>2022-05-12T08:03:39Z</time>
      </trkpt>
      <trkpt lat="47.59391" lon="2.2308276">
        <ele>172</ele>
        <time>2022-05-12T08:03:40Z</time>
      </trkpt>
      <trkpt lat="47.5939" lon="2.2308195">
        <ele>172</ele>
        <time>2022-05-12T08:03:41Z</time>
      </trkpt>
      <trkpt lat="47.5939" lon="2.2308195">
        <ele>172</ele>
        <time>2022-05-12T08:03:42Z</time>
      </trkpt>
      <trkpt lat="47.593876" lon="2.230806">
        <ele>172</ele>
        <time>2022-05-12T08:03:43Z</time>
      </trkpt>
      <trkpt lat="47.59386" lon="2.2307942">
        <ele>172</ele>
        <time>2022-05-12T08:03:44Z</time>
      </trkpt>
      <trkpt lat="47.59385" lon="2.2307878">
        <ele>172</ele>
        <time>2022-05-12T08:03:45Z</time>
      </trkpt>
      <trkpt lat="47.593834" lon="2.230784">
        <ele>172</ele>
        <time>2022-05-12T08:03:46Z</time>
      </trkpt>
      <trkpt lat="47.593822" lon="2.2307823">
        <ele>171</ele>
        <time>2022-05-12T08:03:47Z</time>
      </trkpt>
      <trkpt lat="47.59381" lon="2.2307794">
        <ele>171</ele>
        <time>2022-05-12T08:03:48Z</time>
      </trkpt>
      <trkpt lat="47.5938" lon="2.2307768">
        <ele>171</ele>
        <time>2022-05-12T08:03:49Z</time>
      </trkpt>
      <trkpt lat="47.5938" lon="2.2307768">
        <ele>171</ele>
        <time>2022-05-12T08:03:50Z</time>
      </trkpt>
      <trkpt lat="47.5938" lon="2.2307768">
        <ele>171</ele>
        <time>2022-05-12T08:03:51Z</time>
      </trkpt>
      <trkpt lat="47.59377" lon="2.2307658">
        <ele>171</ele>
        <time>2022-05-12T08:03:52Z</time>
      </trkpt>
      <trkpt lat="47.593758" lon="2.230758">
        <ele>171</ele>
        <time>2022-05-12T08:03:53Z</time>
      </trkpt>
      <trkpt lat="47.593746" lon="2.2307544">
        <ele>171</ele>
        <time>2022-05-12T08:03:54Z</time>
      </trkpt>
      <trkpt lat="47.59373" lon="2.2307498">
        <ele>171</ele>
        <time>2022-05-12T08:03:55Z</time>
      </trkpt>
      <trkpt lat="47.59372" lon="2.2307432">
        <ele>171</ele>
        <time>2022-05-12T08:03:56Z</time>
      </trkpt>
      <trkpt lat="47.593704" lon="2.2307355">
        <ele>171</ele>
        <time>2022-05-12T08:03:57Z</time>
      </trkpt>
      <trkpt lat="47.593693" lon="2.230727">
        <ele>171</ele>
        <time>2022-05-12T08:03:58Z</time>
      </trkpt>
      <trkpt lat="47.59368" lon="2.2307239">
        <ele>171</ele>
        <time>2022-05-12T08:03:59Z</time>
      </trkpt>
      <trkpt lat="47.593678" lon="2.2307215">
        <ele>171</ele>
        <time>2022-05-12T08:04:00Z</time>
      </trkpt>
      <trkpt lat="47.593666" lon="2.230716">
        <ele>171</ele>
        <time>2022-05-12T08:04:01Z</time>
      </trkpt>
      <trkpt lat="47.593655" lon="2.230709">
        <ele>172</ele>
        <time>2022-05-12T08:04:02Z</time>
      </trkpt>
      <trkpt lat="47.59364" lon="2.230699">
        <ele>172</ele>
        <time>2022-05-12T08:04:03Z</time>
      </trkpt>
      <trkpt lat="47.593628" lon="2.230695">
        <ele>172</ele>
        <time>2022-05-12T08:04:04Z</time>
      </trkpt>
      <trkpt lat="47.59362" lon="2.2306905">
        <ele>172</ele>
        <time>2022-05-12T08:04:05Z</time>
      </trkpt>
      <trkpt lat="47.593613" lon="2.2306867">
        <ele>172</ele>
        <time>2022-05-12T08:04:06Z</time>
      </trkpt>
      <trkpt lat="47.593605" lon="2.2306817">
        <ele>172</ele>
        <time>2022-05-12T08:04:07Z</time>
      </trkpt>
      <trkpt lat="47.593594" lon="2.2306736">
        <ele>172</ele>
        <time>2022-05-12T08:04:08Z</time>
      </trkpt>
      <trkpt lat="47.59358" lon="2.2306685">
        <ele>172</ele>
        <time>2022-05-12T08:04:09Z</time>
      </trkpt>
      <trkpt lat="47.593567" lon="2.2306654">
        <ele>172</ele>
        <time>2022-05-12T08:04:10Z</time>
      </trkpt>
      <trkpt lat="47.593555" lon="2.2306597">
        <ele>172</ele>
        <time>2022-05-12T08:04:11Z</time>
      </trkpt>
      <trkpt lat="47.593544" lon="2.2306538">
        <ele>172</ele>
        <time>2022-05-12T08:04:12Z</time>
      </trkpt>
      <trkpt lat="47.593544" lon="2.2306495">
        <ele>172</ele>
        <time>2022-05-12T08:04:13Z</time>
      </trkpt>
      <trkpt lat="47.593536" lon="2.2306447">
        <ele>172</ele>
        <time>2022-05-12T08:04:14Z</time>
      </trkpt>
      <trkpt lat="47.59353" lon="2.2306383">
        <ele>173</ele>
        <time>2022-05-12T08:04:15Z</time>
      </trkpt>
      <trkpt lat="47.593517" lon="2.2306373">
        <ele>173</ele>
        <time>2022-05-12T08:04:16Z</time>
      </trkpt>
      <trkpt lat="47.59351" lon="2.230635">
        <ele>173</ele>
        <time>2022-05-12T08:04:17Z</time>
      </trkpt>
      <trkpt lat="47.593502" lon="2.2306323">
        <ele>174</ele>
        <time>2022-05-12T08:04:18Z</time>
      </trkpt>
      <trkpt lat="47.59349" lon="2.2306287">
        <ele>174</ele>
        <time>2022-05-12T08:04:19Z</time>
      </trkpt>
      <trkpt lat="47.593483" lon="2.2306278">
        <ele>174</ele>
        <time>2022-05-12T08:04:20Z</time>
      </trkpt>
      <trkpt lat="47.593483" lon="2.2306304">
        <ele>174</ele>
        <time>2022-05-12T08:04:21Z</time>
      </trkpt>
      <trkpt lat="47.593483" lon="2.2306247">
        <ele>175</ele>
        <time>2022-05-12T08:04:22Z</time>
      </trkpt>
      <trkpt lat="47.593483" lon="2.230622">
        <ele>175</ele>
        <time>2022-05-12T08:04:23Z</time>
      </trkpt>
      <trkpt lat="47.593483" lon="2.230622">
        <ele>175</ele>
        <time>2022-05-12T08:04:24Z</time>
      </trkpt>
      <trkpt lat="47.593483" lon="2.230622">
        <ele>175</ele>
        <time>2022-05-12T08:04:24Z</time>
      </trkpt>
      <trkpt lat="47.593483" lon="2.230622">
        <ele>175</ele>
        <time>2022-05-12T08:04:24Z</time>
      </trkpt>
      <trkpt lat="47.59339" lon="2.2306457">
        <ele>180</ele>
        <time>2022-05-12T08:14:09Z</time>
      </trkpt>
      <trkpt lat="47.59338" lon="2.230649">
        <ele>180</ele>
        <time>2022-05-12T08:14:10Z</time>
      </trkpt>
      <trkpt lat="47.593372" lon="2.2306504">
        <ele>180</ele>
        <time>2022-05-12T08:14:11Z</time>
      </trkpt>
      <trkpt lat="47.593365" lon="2.2306523">
        <ele>180</ele>
        <time>2022-05-12T08:14:12Z</time>
      </trkpt>
      <trkpt lat="47.593357" lon="2.2306511">
        <ele>180</ele>
        <time>2022-05-12T08:14:13Z</time>
      </trkpt>
      <trkpt lat="47.59335" lon="2.2306528">
        <ele>180</ele>
        <time>2022-05-12T08:14:14Z</time>
      </trkpt>
      <trkpt lat="47.59334" lon="2.2306547">
        <ele>179</ele>
        <time>2022-05-12T08:14:15Z</time>
      </trkpt>
      <trkpt lat="47.59333" lon="2.230662">
        <ele>180</ele>
        <time>2022-05-12T08:14:16Z</time>
      </trkpt>
      <trkpt lat="47.59332" lon="2.2306669">
        <ele>179</ele>
        <time>2022-05-12T08:14:17Z</time>
      </trkpt>
      <trkpt lat="47.593307" lon="2.2306712">
        <ele>179</ele>
        <time>2022-05-12T08:14:18Z</time>
      </trkpt>
      <trkpt lat="47.5933" lon="2.2306774">
        <ele>179</ele>
        <time>2022-05-12T08:14:19Z</time>
      </trkpt>
      <trkpt lat="47.59329" lon="2.2306807">
        <ele>179</ele>
        <time>2022-05-12T08:14:20Z</time>
      </trkpt>
      <trkpt lat="47.59328" lon="2.2306886">
        <ele>178</ele>
        <time>2022-05-12T08:14:21Z</time>
      </trkpt>
      <trkpt lat="47.59327" lon="2.2306955">
        <ele>177</ele>
        <time>2022-05-12T08:14:22Z</time>
      </trkpt>
      <trkpt lat="47.593258" lon="2.230704">
        <ele>177</ele>
        <time>2022-05-12T08:14:23Z</time>
      </trkpt>
      <trkpt lat="47.59325" lon="2.2307072">
        <ele>177</ele>
        <time>2022-05-12T08:14:24Z</time>
      </trkpt>
      <trkpt lat="47.593243" lon="2.2307098">
        <ele>177</ele>
        <time>2022-05-12T08:14:25Z</time>
      </trkpt>
      <trkpt lat="47.593243" lon="2.2307098">
        <ele>177</ele>
        <time>2022-05-12T08:14:26Z</time>
      </trkpt>
      <trkpt lat="47.593227" lon="2.2307246">
        <ele>176</ele>
        <time>2022-05-12T08:14:27Z</time>
      </trkpt>
      <trkpt lat="47.593216" lon="2.2307315">
        <ele>176</ele>
        <time>2022-05-12T08:14:28Z</time>
      </trkpt>
      <trkpt lat="47.59321" lon="2.2307396">
        <ele>176</ele>
        <time>2022-05-12T08:14:29Z</time>
      </trkpt>
      <trkpt lat="47.5932" lon="2.2307467">
        <ele>175</ele>
        <time>2022-05-12T08:14:30Z</time>
      </trkpt>
      <trkpt lat="47.59319" lon="2.230756">
        <ele>175</ele>
        <time>2022-05-12T08:14:31Z</time>
      </trkpt>
      <trkpt lat="47.593174" lon="2.230762">
        <ele>175</ele>
        <time>2022-05-12T08:14:32Z</time>
      </trkpt>
      <trkpt lat="47.59316" lon="2.2307637">
        <ele>175</ele>
        <time>2022-05-12T08:14:33Z</time>
      </trkpt>
      <trkpt lat="47.59315" lon="2.2307668">
        <ele>175</ele>
        <time>2022-05-12T08:14:34Z</time>
      </trkpt>
      <trkpt lat="47.59314" lon="2.2307718">
        <ele>176</ele>
        <time>2022-05-12T08:14:35Z</time>
      </trkpt>
      <trkpt lat="47.593132" lon="2.2307713">
        <ele>176</ele>
        <time>2022-05-12T08:14:36Z</time>
      </trkpt>
      <trkpt lat="47.59312" lon="2.230772">
        <ele>175</ele>
        <time>2022-05-12T08:14:37Z</time>
      </trkpt>
      <trkpt lat="47.59311" lon="2.2307727">
        <ele>175</ele>
        <time>2022-05-12T08:14:38Z</time>
      </trkpt>
      <trkpt lat="47.5931" lon="2.2307754">
        <ele>175</ele>
        <time>2022-05-12T08:14:39Z</time>
      </trkpt>
      <trkpt lat="47.59309" lon="2.2307777">
        <ele>174</ele>
        <time>2022-05-12T08:14:40Z</time>
      </trkpt>
      <trkpt lat="47.593075" lon="2.2307808">
        <ele>174</ele>
        <time>2022-05-12T08:14:41Z</time>
      </trkpt>
      <trkpt lat="47.593067" lon="2.2307777">
        <ele>174</ele>
        <time>2022-05-12T08:14:42Z</time>
      </trkpt>
      <trkpt lat="47.593052" lon="2.2307782">
        <ele>174</ele>
        <time>2022-05-12T08:14:43Z</time>
      </trkpt>
      <trkpt lat="47.593044" lon="2.2307813">
        <ele>174</ele>
        <time>2022-05-12T08:14:44Z</time>
      </trkpt>
      <trkpt lat="47.593037" lon="2.2307918">
        <ele>174</ele>
        <time>2022-05-12T08:14:45Z</time>
      </trkpt>
      <trkpt lat="47.59303" lon="2.230802">
        <ele>174</ele>
        <time>2022-05-12T08:14:46Z</time>
      </trkpt>
      <trkpt lat="47.59302" lon="2.2308142">
        <ele>173</ele>
        <time>2022-05-12T08:14:47Z</time>
      </trkpt>
      <trkpt lat="47.593014" lon="2.2308204">
        <ele>174</ele>
        <time>2022-05-12T08:14:48Z</time>
      </trkpt>
      <trkpt lat="47.593006" lon="2.2308261">
        <ele>174</ele>
        <time>2022-05-12T08:14:49Z</time>
      </trkpt>
      <trkpt lat="47.592995" lon="2.2308295">
        <ele>174</ele>
        <time>2022-05-12T08:14:50Z</time>
      </trkpt>
      <trkpt lat="47.59299" lon="2.230838">
        <ele>174</ele>
        <time>2022-05-12T08:14:51Z</time>
      </trkpt>
      <trkpt lat="47.592983" lon="2.230846">
        <ele>174</ele>
        <time>2022-05-12T08:14:52Z</time>
      </trkpt>
      <trkpt lat="47.59297" lon="2.230846">
        <ele>174</ele>
        <time>2022-05-12T08:14:53Z</time>
      </trkpt>
      <trkpt lat="47.592957" lon="2.2308488">
        <ele>174</ele>
        <time>2022-05-12T08:14:54Z</time>
      </trkpt>
      <trkpt lat="47.592945" lon="2.2308555">
        <ele>175</ele>
        <time>2022-05-12T08:14:55Z</time>
      </trkpt>
      <trkpt lat="47.592934" lon="2.2308621">
        <ele>175</ele>
        <time>2022-05-12T08:14:56Z</time>
      </trkpt>
      <trkpt lat="47.592926" lon="2.2308695">
        <ele>176</ele>
        <time>2022-05-12T08:14:57Z</time>
      </trkpt>
      <trkpt lat="47.592915" lon="2.2308736">
        <ele>175</ele>
        <time>2022-05-12T08:14:58Z</time>
      </trkpt>
      <trkpt lat="47.592903" lon="2.2308795">
        <ele>175</ele>
        <time>2022-05-12T08:14:59Z</time>
      </trkpt>
      <trkpt lat="47.59289" lon="2.2308855">
        <ele>176</ele>
        <time>2022-05-12T08:15:00Z</time>
      </trkpt>
      <trkpt lat="47.592884" lon="2.2308946">
        <ele>176</ele>
        <time>2022-05-12T08:15:01Z</time>
      </trkpt>
      <trkpt lat="47.592876" lon="2.2309031">
        <ele>176</ele>
        <time>2022-05-12T08:15:02Z</time>
      </trkpt>
      <trkpt lat="47.59287" lon="2.2309039">
        <ele>176</ele>
        <time>2022-05-12T08:15:03Z</time>
      </trkpt>
      <trkpt lat="47.59286" lon="2.230903">
        <ele>176</ele>
        <time>2022-05-12T08:15:04Z</time>
      </trkpt>
      <trkpt lat="47.59286" lon="2.230903">
        <ele>176</ele>
        <time>2022-05-12T08:15:05Z</time>
      </trkpt>
      <trkpt lat="47.59286" lon="2.230903">
        <ele>176</ele>
        <time>2022-05-12T08:15:06Z</time>
      </trkpt>
      <trkpt lat="47.59284" lon="2.2309182">
        <ele>176</ele>
        <time>2022-05-12T08:15:07Z</time>
      </trkpt>
      <trkpt lat="47.592827" lon="2.2309263">
        <ele>175</ele>
        <time>2022-05-12T08:15:08Z</time>
      </trkpt>
      <trkpt lat="47.59282" lon="2.230927">
        <ele>175</ele>
        <time>2022-05-12T08:15:09Z</time>
      </trkpt>
      <trkpt lat="47.592808" lon="2.2309313">
        <ele>174</ele>
        <time>2022-05-12T08:15:10Z</time>
      </trkpt>
      <trkpt lat="47.592796" lon="2.230933">
        <ele>174</ele>
        <time>2022-05-12T08:15:11Z</time>
      </trkpt>
      <trkpt lat="47.59279" lon="2.2309313">
        <ele>174</ele>
        <time>2022-05-12T08:15:12Z</time>
      </trkpt>
      <trkpt lat="47.592777" lon="2.2309313">
        <ele>174</ele>
        <time>2022-05-12T08:15:13Z</time>
      </trkpt>
      <trkpt lat="47.59277" lon="2.2309299">
        <ele>174</ele>
        <time>2022-05-12T08:15:14Z</time>
      </trkpt>
      <trkpt lat="47.59276" lon="2.2309341">
        <ele>174</ele>
        <time>2022-05-12T08:15:15Z</time>
      </trkpt>
      <trkpt lat="47.592747" lon="2.230934">
        <ele>174</ele>
        <time>2022-05-12T08:15:16Z</time>
      </trkpt>
      <trkpt lat="47.592735" lon="2.2309296">
        <ele>174</ele>
        <time>2022-05-12T08:15:17Z</time>
      </trkpt>
      <trkpt lat="47.592724" lon="2.230932">
        <ele>175</ele>
        <time>2022-05-12T08:15:18Z</time>
      </trkpt>
      <trkpt lat="47.592716" lon="2.2309327">
        <ele>175</ele>
        <time>2022-05-12T08:15:19Z</time>
      </trkpt>
      <trkpt lat="47.5927" lon="2.2309422">
        <ele>175</ele>
        <time>2022-05-12T08:15:21Z</time>
      </trkpt>
      <trkpt lat="47.592697" lon="2.2309487">
        <ele>176</ele>
        <time>2022-05-12T08:15:22Z</time>
      </trkpt>
      <trkpt lat="47.59269" lon="2.2309535">
        <ele>177</ele>
        <time>2022-05-12T08:15:23Z</time>
      </trkpt>
      <trkpt lat="47.592678" lon="2.2309613">
        <ele>176</ele>
        <time>2022-05-12T08:15:24Z</time>
      </trkpt>
      <trkpt lat="47.592667" lon="2.2309742">
        <ele>176</ele>
        <time>2022-05-12T08:15:25Z</time>
      </trkpt>
      <trkpt lat="47.59266" lon="2.2309837">
        <ele>176</ele>
        <time>2022-05-12T08:15:26Z</time>
      </trkpt>
      <trkpt lat="47.592655" lon="2.2309911">
        <ele>176</ele>
        <time>2022-05-12T08:15:27Z</time>
      </trkpt>
      <trkpt lat="47.592648" lon="2.2309952">
        <ele>176</ele>
        <time>2022-05-12T08:15:28Z</time>
      </trkpt>
      <trkpt lat="47.592648" lon="2.2309952">
        <ele>176</ele>
        <time>2022-05-12T08:15:29Z</time>
      </trkpt>
      <trkpt lat="47.59263" lon="2.231009">
        <ele>176</ele>
        <time>2022-05-12T08:15:30Z</time>
      </trkpt>
      <trkpt lat="47.592617" lon="2.2310145">
        <ele>176</ele>
        <time>2022-05-12T08:15:31Z</time>
      </trkpt>
      <trkpt lat="47.592606" lon="2.2310164">
        <ele>176</ele>
        <time>2022-05-12T08:15:32Z</time>
      </trkpt>
      <trkpt lat="47.59259" lon="2.2310169">
        <ele>176</ele>
        <time>2022-05-12T08:15:33Z</time>
      </trkpt>
      <trkpt lat="47.592575" lon="2.231026">
        <ele>176</ele>
        <time>2022-05-12T08:15:34Z</time>
      </trkpt>
      <trkpt lat="47.592567" lon="2.231037">
        <ele>176</ele>
        <time>2022-05-12T08:15:35Z</time>
      </trkpt>
      <trkpt lat="47.592564" lon="2.2310436">
        <ele>177</ele>
        <time>2022-05-12T08:15:36Z</time>
      </trkpt>
      <trkpt lat="47.592556" lon="2.2310507">
        <ele>176</ele>
        <time>2022-05-12T08:15:37Z</time>
      </trkpt>
      <trkpt lat="47.59255" lon="2.2310598">
        <ele>176</ele>
        <time>2022-05-12T08:15:38Z</time>
      </trkpt>
      <trkpt lat="47.59254" lon="2.2310696">
        <ele>176</ele>
        <time>2022-05-12T08:15:39Z</time>
      </trkpt>
      <trkpt lat="47.592533" lon="2.2310815">
        <ele>176</ele>
        <time>2022-05-12T08:15:40Z</time>
      </trkpt>
      <trkpt lat="47.592525" lon="2.2310858">
        <ele>175</ele>
        <time>2022-05-12T08:15:41Z</time>
      </trkpt>
      <trkpt lat="47.592518" lon="2.2310917">
        <ele>175</ele>
        <time>2022-05-12T08:15:42Z</time>
      </trkpt>
      <trkpt lat="47.592506" lon="2.2310982">
        <ele>175</ele>
        <time>2022-05-12T08:15:43Z</time>
      </trkpt>
      <trkpt lat="47.592495" lon="2.2311027">
        <ele>175</ele>
        <time>2022-05-12T08:15:44Z</time>
      </trkpt>
      <trkpt lat="47.592487" lon="2.2311087">
        <ele>175</ele>
        <time>2022-05-12T08:15:45Z</time>
      </trkpt>
      <trkpt lat="47.592472" lon="2.2311106">
        <ele>175</ele>
        <time>2022-05-12T08:15:46Z</time>
      </trkpt>
      <trkpt lat="47.592457" lon="2.2311072">
        <ele>175</ele>
        <time>2022-05-12T08:15:47Z</time>
      </trkpt>
      <trkpt lat="47.592445" lon="2.2311058">
        <ele>175</ele>
        <time>2022-05-12T08:15:48Z</time>
      </trkpt>
      <trkpt lat="47.592438" lon="2.2311106">
        <ele>175</ele>
        <time>2022-05-12T08:15:49Z</time>
      </trkpt>
      <trkpt lat="47.59243" lon="2.231118">
        <ele>175</ele>
        <time>2022-05-12T08:15:50Z</time>
      </trkpt>
      <trkpt lat="47.59242" lon="2.2311237">
        <ele>175</ele>
        <time>2022-05-12T08:15:51Z</time>
      </trkpt>
      <trkpt lat="47.59241" lon="2.2311301">
        <ele>175</ele>
        <time>2022-05-12T08:15:52Z</time>
      </trkpt>
      <trkpt lat="47.5924" lon="2.2311397">
        <ele>175</ele>
        <time>2022-05-12T08:15:53Z</time>
      </trkpt>
      <trkpt lat="47.592392" lon="2.231148">
        <ele>175</ele>
        <time>2022-05-12T08:15:54Z</time>
      </trkpt>
      <trkpt lat="47.592384" lon="2.2311544">
        <ele>175</ele>
        <time>2022-05-12T08:15:55Z</time>
      </trkpt>
      <trkpt lat="47.59238" lon="2.2311656">
        <ele>174</ele>
        <time>2022-05-12T08:15:56Z</time>
      </trkpt>
      <trkpt lat="47.59237" lon="2.2311702">
        <ele>174</ele>
        <time>2022-05-12T08:15:57Z</time>
      </trkpt>
      <trkpt lat="47.59235" lon="2.2311704">
        <ele>173</ele>
        <time>2022-05-12T08:15:58Z</time>
      </trkpt>
      <trkpt lat="47.59234" lon="2.2311702">
        <ele>173</ele>
        <time>2022-05-12T08:15:59Z</time>
      </trkpt>
      <trkpt lat="47.592327" lon="2.2311704">
        <ele>174</ele>
        <time>2022-05-12T08:16:00Z</time>
      </trkpt>
      <trkpt lat="47.592316" lon="2.2311695">
        <ele>174</ele>
        <time>2022-05-12T08:16:01Z</time>
      </trkpt>
      <trkpt lat="47.592304" lon="2.2311757">
        <ele>174</ele>
        <time>2022-05-12T08:16:02Z</time>
      </trkpt>
      <trkpt lat="47.592293" lon="2.2311802">
        <ele>174</ele>
        <time>2022-05-12T08:16:03Z</time>
      </trkpt>
      <trkpt lat="47.592278" lon="2.2311823">
        <ele>173</ele>
        <time>2022-05-12T08:16:04Z</time>
      </trkpt>
      <trkpt lat="47.592262" lon="2.2311842">
        <ele>174</ele>
        <time>2022-05-12T08:16:05Z</time>
      </trkpt>
      <trkpt lat="47.59225" lon="2.2311866">
        <ele>175</ele>
        <time>2022-05-12T08:16:06Z</time>
      </trkpt>
      <trkpt lat="47.59224" lon="2.2311938">
        <ele>175</ele>
        <time>2022-05-12T08:16:07Z</time>
      </trkpt>
      <trkpt lat="47.592224" lon="2.2312064">
        <ele>176</ele>
        <time>2022-05-12T08:16:08Z</time>
      </trkpt>
      <trkpt lat="47.592205" lon="2.2312162">
        <ele>176</ele>
        <time>2022-05-12T08:16:09Z</time>
      </trkpt>
      <trkpt lat="47.592197" lon="2.231221">
        <ele>176</ele>
        <time>2022-05-12T08:16:10Z</time>
      </trkpt>
      <trkpt lat="47.592186" lon="2.2312298">
        <ele>176</ele>
        <time>2022-05-12T08:16:11Z</time>
      </trkpt>
      <trkpt lat="47.592175" lon="2.2312346">
        <ele>176</ele>
        <time>2022-05-12T08:16:12Z</time>
      </trkpt>
      <trkpt lat="47.592163" lon="2.2312398">
        <ele>176</ele>
        <time>2022-05-12T08:16:13Z</time>
      </trkpt>
      <trkpt lat="47.59215" lon="2.231245">
        <ele>176</ele>
        <time>2022-05-12T08:16:14Z</time>
      </trkpt>
      <trkpt lat="47.59214" lon="2.2312505">
        <ele>176</ele>
        <time>2022-05-12T08:16:15Z</time>
      </trkpt>
      <trkpt lat="47.59213" lon="2.2312553">
        <ele>175</ele>
        <time>2022-05-12T08:16:16Z</time>
      </trkpt>
      <trkpt lat="47.592117" lon="2.231259">
        <ele>175</ele>
        <time>2022-05-12T08:16:17Z</time>
      </trkpt>
      <trkpt lat="47.59211" lon="2.2312603">
        <ele>176</ele>
        <time>2022-05-12T08:16:18Z</time>
      </trkpt>
      <trkpt lat="47.5921" lon="2.2312613">
        <ele>177</ele>
        <time>2022-05-12T08:16:19Z</time>
      </trkpt>
      <trkpt lat="47.592087" lon="2.2312682">
        <ele>178</ele>
        <time>2022-05-12T08:16:20Z</time>
      </trkpt>
      <trkpt lat="47.59208" lon="2.231279">
        <ele>178</ele>
        <time>2022-05-12T08:16:21Z</time>
      </trkpt>
      <trkpt lat="47.592064" lon="2.2312875">
        <ele>178</ele>
        <time>2022-05-12T08:16:22Z</time>
      </trkpt>
      <trkpt lat="47.592052" lon="2.2312946">
        <ele>177</ele>
        <time>2022-05-12T08:16:23Z</time>
      </trkpt>
      <trkpt lat="47.59204" lon="2.2313068">
        <ele>177</ele>
        <time>2022-05-12T08:16:24Z</time>
      </trkpt>
      <trkpt lat="47.59203" lon="2.2313192">
        <ele>176</ele>
        <time>2022-05-12T08:16:25Z</time>
      </trkpt>
      <trkpt lat="47.592014" lon="2.2313278">
        <ele>176</ele>
        <time>2022-05-12T08:16:26Z</time>
      </trkpt>
      <trkpt lat="47.592" lon="2.2313368">
        <ele>176</ele>
        <time>2022-05-12T08:16:27Z</time>
      </trkpt>
      <trkpt lat="47.591988" lon="2.2313452">
        <ele>176</ele>
        <time>2022-05-12T08:16:28Z</time>
      </trkpt>
      <trkpt lat="47.591972" lon="2.2313528">
        <ele>176</ele>
        <time>2022-05-12T08:16:29Z</time>
      </trkpt>
      <trkpt lat="47.59196" lon="2.2313614">
        <ele>176</ele>
        <time>2022-05-12T08:16:30Z</time>
      </trkpt>
      <trkpt lat="47.59195" lon="2.231371">
        <ele>176</ele>
        <time>2022-05-12T08:16:31Z</time>
      </trkpt>
      <trkpt lat="47.59194" lon="2.231377">
        <ele>176</ele>
        <time>2022-05-12T08:16:32Z</time>
      </trkpt>
      <trkpt lat="47.591934" lon="2.2313783">
        <ele>176</ele>
        <time>2022-05-12T08:16:33Z</time>
      </trkpt>
      <trkpt lat="47.59192" lon="2.23138">
        <ele>176</ele>
        <time>2022-05-12T08:16:34Z</time>
      </trkpt>
      <trkpt lat="47.591908" lon="2.2313793">
        <ele>176</ele>
        <time>2022-05-12T08:16:35Z</time>
      </trkpt>
      <trkpt lat="47.591892" lon="2.2313812">
        <ele>176</ele>
        <time>2022-05-12T08:16:36Z</time>
      </trkpt>
      <trkpt lat="47.591885" lon="2.2313879">
        <ele>176</ele>
        <time>2022-05-12T08:16:37Z</time>
      </trkpt>
      <trkpt lat="47.591873" lon="2.231398">
        <ele>175</ele>
        <time>2022-05-12T08:16:38Z</time>
      </trkpt>
      <trkpt lat="47.591866" lon="2.23141">
        <ele>174</ele>
        <time>2022-05-12T08:16:39Z</time>
      </trkpt>
      <trkpt lat="47.591858" lon="2.2314181">
        <ele>174</ele>
        <time>2022-05-12T08:16:40Z</time>
      </trkpt>
      <trkpt lat="47.591846" lon="2.231424">
        <ele>173</ele>
        <time>2022-05-12T08:16:41Z</time>
      </trkpt>
      <trkpt lat="47.59184" lon="2.2314298">
        <ele>173</ele>
        <time>2022-05-12T08:16:42Z</time>
      </trkpt>
      <trkpt lat="47.591827" lon="2.2314255">
        <ele>174</ele>
        <time>2022-05-12T08:16:43Z</time>
      </trkpt>
      <trkpt lat="47.59182" lon="2.2314298">
        <ele>173</ele>
        <time>2022-05-12T08:16:44Z</time>
      </trkpt>
      <trkpt lat="47.591812" lon="2.2314353">
        <ele>173</ele>
        <time>2022-05-12T08:16:45Z</time>
      </trkpt>
      <trkpt lat="47.591805" lon="2.2314398">
        <ele>172</ele>
        <time>2022-05-12T08:16:46Z</time>
      </trkpt>
      <trkpt lat="47.59179" lon="2.2314441">
        <ele>172</ele>
        <time>2022-05-12T08:16:47Z</time>
      </trkpt>
      <trkpt lat="47.591778" lon="2.2314508">
        <ele>172</ele>
        <time>2022-05-12T08:16:48Z</time>
      </trkpt>
      <trkpt lat="47.591766" lon="2.2314596">
        <ele>172</ele>
        <time>2022-05-12T08:16:49Z</time>
      </trkpt>
      <trkpt lat="47.59175" lon="2.231463">
        <ele>172</ele>
        <time>2022-05-12T08:16:50Z</time>
      </trkpt>
      <trkpt lat="47.591736" lon="2.231467">
        <ele>172</ele>
        <time>2022-05-12T08:16:51Z</time>
      </trkpt>
      <trkpt lat="47.591724" lon="2.23147">
        <ele>172</ele>
        <time>2022-05-12T08:16:52Z</time>
      </trkpt>
      <trkpt lat="47.591717" lon="2.2314794">
        <ele>173</ele>
        <time>2022-05-12T08:16:53Z</time>
      </trkpt>
      <trkpt lat="47.591705" lon="2.2314858">
        <ele>174</ele>
        <time>2022-05-12T08:16:54Z</time>
      </trkpt>
      <trkpt lat="47.591694" lon="2.2314904">
        <ele>174</ele>
        <time>2022-05-12T08:16:55Z</time>
      </trkpt>
      <trkpt lat="47.59168" lon="2.231495">
        <ele>174</ele>
        <time>2022-05-12T08:16:56Z</time>
      </trkpt>
      <trkpt lat="47.591667" lon="2.2315013">
        <ele>174</ele>
        <time>2022-05-12T08:16:57Z</time>
      </trkpt>
      <trkpt lat="47.591656" lon="2.2315116">
        <ele>174</ele>
        <time>2022-05-12T08:16:58Z</time>
      </trkpt>
      <trkpt lat="47.59164" lon="2.231518">
        <ele>174</ele>
        <time>2022-05-12T08:16:59Z</time>
      </trkpt>
      <trkpt lat="47.591625" lon="2.231523">
        <ele>174</ele>
        <time>2022-05-12T08:17:00Z</time>
      </trkpt>
      <trkpt lat="47.591614" lon="2.2315333">
        <ele>173</ele>
        <time>2022-05-12T08:17:01Z</time>
      </trkpt>
      <trkpt lat="47.5916" lon="2.2315416">
        <ele>173</ele>
        <time>2022-05-12T08:17:02Z</time>
      </trkpt>
      <trkpt lat="47.591583" lon="2.2315524">
        <ele>172</ele>
        <time>2022-05-12T08:17:03Z</time>
      </trkpt>
      <trkpt lat="47.59157" lon="2.2315648">
        <ele>172</ele>
        <time>2022-05-12T08:17:04Z</time>
      </trkpt>
      <trkpt lat="47.591557" lon="2.231575">
        <ele>171</ele>
        <time>2022-05-12T08:17:05Z</time>
      </trkpt>
      <trkpt lat="47.59155" lon="2.2315807">
        <ele>172</ele>
        <time>2022-05-12T08:17:06Z</time>
      </trkpt>
      <trkpt lat="47.59154" lon="2.231583">
        <ele>172</ele>
        <time>2022-05-12T08:17:07Z</time>
      </trkpt>
      <trkpt lat="47.591526" lon="2.2315896">
        <ele>172</ele>
        <time>2022-05-12T08:17:08Z</time>
      </trkpt>
      <trkpt lat="47.59151" lon="2.231596">
        <ele>172</ele>
        <time>2022-05-12T08:17:09Z</time>
      </trkpt>
      <trkpt lat="47.591496" lon="2.2316036">
        <ele>172</ele>
        <time>2022-05-12T08:17:10Z</time>
      </trkpt>
      <trkpt lat="47.591484" lon="2.2316148">
        <ele>173</ele>
        <time>2022-05-12T08:17:11Z</time>
      </trkpt>
      <trkpt lat="47.591473" lon="2.2316203">
        <ele>172</ele>
        <time>2022-05-12T08:17:12Z</time>
      </trkpt>
      <trkpt lat="47.59146" lon="2.2316227">
        <ele>172</ele>
        <time>2022-05-12T08:17:13Z</time>
      </trkpt>
      <trkpt lat="47.591454" lon="2.2316253">
        <ele>171</ele>
        <time>2022-05-12T08:17:14Z</time>
      </trkpt>
      <trkpt lat="47.591442" lon="2.2316256">
        <ele>171</ele>
        <time>2022-05-12T08:17:15Z</time>
      </trkpt>
      <trkpt lat="47.591442" lon="2.2316256">
        <ele>171</ele>
        <time>2022-05-12T08:17:16Z</time>
      </trkpt>
      <trkpt lat="47.591442" lon="2.2316256">
        <ele>171</ele>
        <time>2022-05-12T08:17:17Z</time>
      </trkpt>
      <trkpt lat="47.591415" lon="2.23163">
        <ele>171</ele>
        <time>2022-05-12T08:17:18Z</time>
      </trkpt>
      <trkpt lat="47.591404" lon="2.231631">
        <ele>171</ele>
        <time>2022-05-12T08:17:19Z</time>
      </trkpt>
      <trkpt lat="47.591396" lon="2.2316291">
        <ele>172</ele>
        <time>2022-05-12T08:17:20Z</time>
      </trkpt>
      <trkpt lat="47.59139" lon="2.2316344">
        <ele>172</ele>
        <time>2022-05-12T08:17:21Z</time>
      </trkpt>
      <trkpt lat="47.591377" lon="2.2316408">
        <ele>172</ele>
        <time>2022-05-12T08:17:22Z</time>
      </trkpt>
      <trkpt lat="47.59137" lon="2.2316449">
        <ele>173</ele>
        <time>2022-05-12T08:17:23Z</time>
      </trkpt>
      <trkpt lat="47.591354" lon="2.2316513">
        <ele>173</ele>
        <time>2022-05-12T08:17:24Z</time>
      </trkpt>
      <trkpt lat="47.591343" lon="2.2316556">
        <ele>173</ele>
        <time>2022-05-12T08:17:25Z</time>
      </trkpt>
      <trkpt lat="47.59133" lon="2.2316632">
        <ele>173</ele>
        <time>2022-05-12T08:17:26Z</time>
      </trkpt>
      <trkpt lat="47.59132" lon="2.231663">
        <ele>173</ele>
        <time>2022-05-12T08:17:27Z</time>
      </trkpt>
      <trkpt lat="47.591312" lon="2.2316675">
        <ele>173</ele>
        <time>2022-05-12T08:17:28Z</time>
      </trkpt>
      <trkpt lat="47.5913" lon="2.2316735">
        <ele>173</ele>
        <time>2022-05-12T08:17:29Z</time>
      </trkpt>
      <trkpt lat="47.5913" lon="2.2316735">
        <ele>173</ele>
        <time>2022-05-12T08:17:30Z</time>
      </trkpt>
      <trkpt lat="47.591286" lon="2.2316787">
        <ele>173</ele>
        <time>2022-05-12T08:17:31Z</time>
      </trkpt>
      <trkpt lat="47.59127" lon="2.231681">
        <ele>173</ele>
        <time>2022-05-12T08:17:32Z</time>
      </trkpt>
      <trkpt lat="47.591255" lon="2.2316842">
        <ele>173</ele>
        <time>2022-05-12T08:17:33Z</time>
      </trkpt>
      <trkpt lat="47.591244" lon="2.2316904">
        <ele>173</ele>
        <time>2022-05-12T08:17:34Z</time>
      </trkpt>
      <trkpt lat="47.591232" lon="2.2316968">
        <ele>174</ele>
        <time>2022-05-12T08:17:35Z</time>
      </trkpt>
      <trkpt lat="47.59122" lon="2.2317014">
        <ele>175</ele>
        <time>2022-05-12T08:17:36Z</time>
      </trkpt>
      <trkpt lat="47.591213" lon="2.2317052">
        <ele>175</ele>
        <time>2022-05-12T08:17:37Z</time>
      </trkpt>
      <trkpt lat="47.5912" lon="2.2317095">
        <ele>175</ele>
        <time>2022-05-12T08:17:38Z</time>
      </trkpt>
      <trkpt lat="47.59119" lon="2.231713">
        <ele>175</ele>
        <time>2022-05-12T08:17:39Z</time>
      </trkpt>
      <trkpt lat="47.591183" lon="2.2317216">
        <ele>175</ele>
        <time>2022-05-12T08:17:40Z</time>
      </trkpt>
      <trkpt lat="47.591183" lon="2.2317216">
        <ele>175</ele>
        <time>2022-05-12T08:17:41Z</time>
      </trkpt>
      <trkpt lat="47.591183" lon="2.2317216">
        <ele>175</ele>
        <time>2022-05-12T08:17:42Z</time>
      </trkpt>
      <trkpt lat="47.591152" lon="2.2317388">
        <ele>176</ele>
        <time>2022-05-12T08:17:43Z</time>
      </trkpt>
      <trkpt lat="47.591137" lon="2.2317462">
        <ele>175</ele>
        <time>2022-05-12T08:17:44Z</time>
      </trkpt>
      <trkpt lat="47.591125" lon="2.2317514">
        <ele>176</ele>
        <time>2022-05-12T08:17:45Z</time>
      </trkpt>
      <trkpt lat="47.591114" lon="2.2317545">
        <ele>176</ele>
        <time>2022-05-12T08:17:46Z</time>
      </trkpt>
      <trkpt lat="47.591103" lon="2.2317624">
        <ele>176</ele>
        <time>2022-05-12T08:17:47Z</time>
      </trkpt>
      <trkpt lat="47.591103" lon="2.2317624">
        <ele>176</ele>
        <time>2022-05-12T08:17:48Z</time>
      </trkpt>
      <trkpt lat="47.591103" lon="2.2317624">
        <ele>176</ele>
        <time>2022-05-12T08:17:49Z</time>
      </trkpt>
      <trkpt lat="47.591084" lon="2.231789">
        <ele>175</ele>
        <time>2022-05-12T08:17:50Z</time>
      </trkpt>
      <trkpt lat="47.591076" lon="2.2318041">
        <ele>176</ele>
        <time>2022-05-12T08:17:51Z</time>
      </trkpt>
      <trkpt lat="47.591064" lon="2.2318163">
        <ele>176</ele>
        <time>2022-05-12T08:17:52Z</time>
      </trkpt>
      <trkpt lat="47.591053" lon="2.231822">
        <ele>175</ele>
        <time>2022-05-12T08:17:53Z</time>
      </trkpt>
      <trkpt lat="47.59104" lon="2.2318273">
        <ele>175</ele>
        <time>2022-05-12T08:17:54Z</time>
      </trkpt>
      <trkpt lat="47.59103" lon="2.231836">
        <ele>176</ele>
        <time>2022-05-12T08:17:55Z</time>
      </trkpt>
      <trkpt lat="47.59102" lon="2.2318435">
        <ele>177</ele>
        <time>2022-05-12T08:17:56Z</time>
      </trkpt>
      <trkpt lat="47.591007" lon="2.2318497">
        <ele>177</ele>
        <time>2022-05-12T08:17:57Z</time>
      </trkpt>
      <trkpt lat="47.590996" lon="2.23186">
        <ele>177</ele>
        <time>2022-05-12T08:17:58Z</time>
      </trkpt>
      <trkpt lat="47.59099" lon="2.2318692">
        <ele>178</ele>
        <time>2022-05-12T08:17:59Z</time>
      </trkpt>
      <trkpt lat="47.59098" lon="2.231876">
        <ele>177</ele>
        <time>2022-05-12T08:18:00Z</time>
      </trkpt>
      <trkpt lat="47.590973" lon="2.2318888">
        <ele>177</ele>
        <time>2022-05-12T08:18:01Z</time>
      </trkpt>
      <trkpt lat="47.59096" lon="2.231893">
        <ele>176</ele>
        <time>2022-05-12T08:18:02Z</time>
      </trkpt>
      <trkpt lat="47.59095" lon="2.2319002">
        <ele>177</ele>
        <time>2022-05-12T08:18:03Z</time>
      </trkpt>
      <trkpt lat="47.590935" lon="2.2319064">
        <ele>178</ele>
        <time>2022-05-12T08:18:04Z</time>
      </trkpt>
      <trkpt lat="47.590927" lon="2.2319124">
        <ele>178</ele>
        <time>2022-05-12T08:18:05Z</time>
      </trkpt>
      <trkpt lat="47.590916" lon="2.2319124">
        <ele>177</ele>
        <time>2022-05-12T08:18:06Z</time>
      </trkpt>
      <trkpt lat="47.590908" lon="2.23192">
        <ele>177</ele>
        <time>2022-05-12T08:18:07Z</time>
      </trkpt>
      <trkpt lat="47.590897" lon="2.2319262">
        <ele>177</ele>
        <time>2022-05-12T08:18:08Z</time>
      </trkpt>
      <trkpt lat="47.59089" lon="2.2319357">
        <ele>177</ele>
        <time>2022-05-12T08:18:09Z</time>
      </trkpt>
      <trkpt lat="47.59088" lon="2.2319431">
        <ele>177</ele>
        <time>2022-05-12T08:18:10Z</time>
      </trkpt>
      <trkpt lat="47.59087" lon="2.231949">
        <ele>177</ele>
        <time>2022-05-12T08:18:11Z</time>
      </trkpt>
      <trkpt lat="47.59086" lon="2.2319574">
        <ele>177</ele>
        <time>2022-05-12T08:18:12Z</time>
      </trkpt>
      <trkpt lat="47.59085" lon="2.2319627">
        <ele>178</ele>
        <time>2022-05-12T08:18:13Z</time>
      </trkpt>
      <trkpt lat="47.590843" lon="2.2319672">
        <ele>178</ele>
        <time>2022-05-12T08:18:14Z</time>
      </trkpt>
      <trkpt lat="47.590836" lon="2.2319767">
        <ele>178</ele>
        <time>2022-05-12T08:18:15Z</time>
      </trkpt>
      <trkpt lat="47.590824" lon="2.231989">
        <ele>178</ele>
        <time>2022-05-12T08:18:16Z</time>
      </trkpt>
      <trkpt lat="47.590813" lon="2.2319965">
        <ele>179</ele>
        <time>2022-05-12T08:18:17Z</time>
      </trkpt>
      <trkpt lat="47.5908" lon="2.2319987">
        <ele>179</ele>
        <time>2022-05-12T08:18:18Z</time>
      </trkpt>
      <trkpt lat="47.590786" lon="2.2319968">
        <ele>179</ele>
        <time>2022-05-12T08:18:19Z</time>
      </trkpt>
      <trkpt lat="47.590775" lon="2.232001">
        <ele>179</ele>
        <time>2022-05-12T08:18:20Z</time>
      </trkpt>
      <trkpt lat="47.590763" lon="2.2320065">
        <ele>180</ele>
        <time>2022-05-12T08:18:21Z</time>
      </trkpt>
      <trkpt lat="47.590755" lon="2.2320113">
        <ele>180</ele>
        <time>2022-05-12T08:18:22Z</time>
      </trkpt>
      <trkpt lat="47.59075" lon="2.2320147">
        <ele>179</ele>
        <time>2022-05-12T08:18:23Z</time>
      </trkpt>
      <trkpt lat="47.59074" lon="2.232021">
        <ele>179</ele>
        <time>2022-05-12T08:18:24Z</time>
      </trkpt>
      <trkpt lat="47.590733" lon="2.2320335">
        <ele>179</ele>
        <time>2022-05-12T08:18:25Z</time>
      </trkpt>
      <trkpt lat="47.59072" lon="2.2320466">
        <ele>179</ele>
        <time>2022-05-12T08:18:26Z</time>
      </trkpt>
      <trkpt lat="47.590714" lon="2.2320552">
        <ele>179</ele>
        <time>2022-05-12T08:18:27Z</time>
      </trkpt>
      <trkpt lat="47.5907" lon="2.2320576">
        <ele>179</ele>
        <time>2022-05-12T08:18:28Z</time>
      </trkpt>
      <trkpt lat="47.59069" lon="2.2320642">
        <ele>179</ele>
        <time>2022-05-12T08:18:29Z</time>
      </trkpt>
      <trkpt lat="47.59068" lon="2.2320743">
        <ele>179</ele>
        <time>2022-05-12T08:18:30Z</time>
      </trkpt>
      <trkpt lat="47.590668" lon="2.2320843">
        <ele>178</ele>
        <time>2022-05-12T08:18:31Z</time>
      </trkpt>
      <trkpt lat="47.590656" lon="2.2320902">
        <ele>178</ele>
        <time>2022-05-12T08:18:32Z</time>
      </trkpt>
      <trkpt lat="47.590645" lon="2.2320938">
        <ele>178</ele>
        <time>2022-05-12T08:18:33Z</time>
      </trkpt>
      <trkpt lat="47.59064" lon="2.2321012">
        <ele>178</ele>
        <time>2022-05-12T08:18:34Z</time>
      </trkpt>
      <trkpt lat="47.59063" lon="2.2321095">
        <ele>178</ele>
        <time>2022-05-12T08:18:35Z</time>
      </trkpt>
      <trkpt lat="47.590622" lon="2.232118">
        <ele>178</ele>
        <time>2022-05-12T08:18:36Z</time>
      </trkpt>
      <trkpt lat="47.590614" lon="2.2321274">
        <ele>178</ele>
        <time>2022-05-12T08:18:37Z</time>
      </trkpt>
      <trkpt lat="47.59061" lon="2.2321358">
        <ele>178</ele>
        <time>2022-05-12T08:18:38Z</time>
      </trkpt>
      <trkpt lat="47.5906" lon="2.2321436">
        <ele>177</ele>
        <time>2022-05-12T08:18:39Z</time>
      </trkpt>
      <trkpt lat="47.590584" lon="2.232147">
        <ele>178</ele>
        <time>2022-05-12T08:18:40Z</time>
      </trkpt>
      <trkpt lat="47.59057" lon="2.2321482">
        <ele>177</ele>
        <time>2022-05-12T08:18:41Z</time>
      </trkpt>
      <trkpt lat="47.590553" lon="2.2321622">
        <ele>177</ele>
        <time>2022-05-12T08:18:42Z</time>
      </trkpt>
      <trkpt lat="47.590546" lon="2.2321694">
        <ele>177</ele>
        <time>2022-05-12T08:18:43Z</time>
      </trkpt>
      <trkpt lat="47.590534" lon="2.2321794">
        <ele>176</ele>
        <time>2022-05-12T08:18:44Z</time>
      </trkpt>
      <trkpt lat="47.590523" lon="2.232189">
        <ele>177</ele>
        <time>2022-05-12T08:18:45Z</time>
      </trkpt>
      <trkpt lat="47.59051" lon="2.2321947">
        <ele>177</ele>
        <time>2022-05-12T08:18:46Z</time>
      </trkpt>
      <trkpt lat="47.590504" lon="2.2322">
        <ele>177</ele>
        <time>2022-05-12T08:18:47Z</time>
      </trkpt>
      <trkpt lat="47.590492" lon="2.232203">
        <ele>176</ele>
        <time>2022-05-12T08:18:48Z</time>
      </trkpt>
      <trkpt lat="47.59048" lon="2.232203">
        <ele>176</ele>
        <time>2022-05-12T08:18:49Z</time>
      </trkpt>
      <trkpt lat="47.59047" lon="2.23221">
        <ele>176</ele>
        <time>2022-05-12T08:18:50Z</time>
      </trkpt>
      <trkpt lat="47.590454" lon="2.2322204">
        <ele>176</ele>
        <time>2022-05-12T08:18:51Z</time>
      </trkpt>
      <trkpt lat="47.590443" lon="2.2322278">
        <ele>176</ele>
        <time>2022-05-12T08:18:52Z</time>
      </trkpt>
      <trkpt lat="47.59043" lon="2.2322328">
        <ele>176</ele>
        <time>2022-05-12T08:18:53Z</time>
      </trkpt>
      <trkpt lat="47.590424" lon="2.232234">
        <ele>176</ele>
        <time>2022-05-12T08:18:54Z</time>
      </trkpt>
      <trkpt lat="47.59042" lon="2.2322357">
        <ele>176</ele>
        <time>2022-05-12T08:18:55Z</time>
      </trkpt>
      <trkpt lat="47.59041" lon="2.232238">
        <ele>176</ele>
        <time>2022-05-12T08:18:56Z</time>
      </trkpt>
      <trkpt lat="47.590397" lon="2.2322397">
        <ele>176</ele>
        <time>2022-05-12T08:18:57Z</time>
      </trkpt>
      <trkpt lat="47.590385" lon="2.2322433">
        <ele>176</ele>
        <time>2022-05-12T08:18:58Z</time>
      </trkpt>
      <trkpt lat="47.590374" lon="2.232253">
        <ele>176</ele>
        <time>2022-05-12T08:18:59Z</time>
      </trkpt>
      <trkpt lat="47.59036" lon="2.232259">
        <ele>176</ele>
        <time>2022-05-12T08:19:00Z</time>
      </trkpt>
      <trkpt lat="47.590347" lon="2.2322655">
        <ele>176</ele>
        <time>2022-05-12T08:19:01Z</time>
      </trkpt>
      <trkpt lat="47.59034" lon="2.232273">
        <ele>176</ele>
        <time>2022-05-12T08:19:02Z</time>
      </trkpt>
      <trkpt lat="47.59033" lon="2.232285">
        <ele>176</ele>
        <time>2022-05-12T08:19:03Z</time>
      </trkpt>
      <trkpt lat="47.59032" lon="2.2322903">
        <ele>176</ele>
        <time>2022-05-12T08:19:04Z</time>
      </trkpt>
      <trkpt lat="47.59031" lon="2.2322955">
        <ele>175</ele>
        <time>2022-05-12T08:19:05Z</time>
      </trkpt>
      <trkpt lat="47.590298" lon="2.232302">
        <ele>175</ele>
        <time>2022-05-12T08:19:06Z</time>
      </trkpt>
      <trkpt lat="47.590286" lon="2.2323077">
        <ele>175</ele>
        <time>2022-05-12T08:19:07Z</time>
      </trkpt>
      <trkpt lat="47.590275" lon="2.2323089">
        <ele>176</ele>
        <time>2022-05-12T08:19:08Z</time>
      </trkpt>
      <trkpt lat="47.59026" lon="2.232313">
        <ele>176</ele>
        <time>2022-05-12T08:19:09Z</time>
      </trkpt>
      <trkpt lat="47.59025" lon="2.2323136">
        <ele>176</ele>
        <time>2022-05-12T08:19:10Z</time>
      </trkpt>
      <trkpt lat="47.59024" lon="2.232319">
        <ele>176</ele>
        <time>2022-05-12T08:19:11Z</time>
      </trkpt>
      <trkpt lat="47.590233" lon="2.2323267">
        <ele>177</ele>
        <time>2022-05-12T08:19:12Z</time>
      </trkpt>
      <trkpt lat="47.59022" lon="2.2323325">
        <ele>177</ele>
        <time>2022-05-12T08:19:13Z</time>
      </trkpt>
      <trkpt lat="47.590214" lon="2.2323372">
        <ele>176</ele>
        <time>2022-05-12T08:19:14Z</time>
      </trkpt>
      <trkpt lat="47.590202" lon="2.232348">
        <ele>176</ele>
        <time>2022-05-12T08:19:15Z</time>
      </trkpt>
      <trkpt lat="47.5902" lon="2.2323563">
        <ele>176</ele>
        <time>2022-05-12T08:19:16Z</time>
      </trkpt>
      <trkpt lat="47.59019" lon="2.2323616">
        <ele>177</ele>
        <time>2022-05-12T08:19:17Z</time>
      </trkpt>
      <trkpt lat="47.59018" lon="2.2323725">
        <ele>178</ele>
        <time>2022-05-12T08:19:18Z</time>
      </trkpt>
      <trkpt lat="47.59017" lon="2.2323813">
        <ele>178</ele>
        <time>2022-05-12T08:19:19Z</time>
      </trkpt>
      <trkpt lat="47.59016" lon="2.232389">
        <ele>177</ele>
        <time>2022-05-12T08:19:20Z</time>
      </trkpt>
      <trkpt lat="47.59015" lon="2.2323976">
        <ele>177</ele>
        <time>2022-05-12T08:19:21Z</time>
      </trkpt>
      <trkpt lat="47.590137" lon="2.232409">
        <ele>177</ele>
        <time>2022-05-12T08:19:22Z</time>
      </trkpt>
      <trkpt lat="47.590126" lon="2.2324193">
        <ele>177</ele>
        <time>2022-05-12T08:19:23Z</time>
      </trkpt>
      <trkpt lat="47.590115" lon="2.232428">
        <ele>177</ele>
        <time>2022-05-12T08:19:24Z</time>
      </trkpt>
      <trkpt lat="47.5901" lon="2.2324336">
        <ele>177</ele>
        <time>2022-05-12T08:19:25Z</time>
      </trkpt>
      <trkpt lat="47.590088" lon="2.2324395">
        <ele>176</ele>
        <time>2022-05-12T08:19:26Z</time>
      </trkpt>
      <trkpt lat="47.590076" lon="2.2324479">
        <ele>176</ele>
        <time>2022-05-12T08:19:27Z</time>
      </trkpt>
      <trkpt lat="47.59006" lon="2.2324543">
        <ele>176</ele>
        <time>2022-05-12T08:19:28Z</time>
      </trkpt>
      <trkpt lat="47.590054" lon="2.2324655">
        <ele>176</ele>
        <time>2022-05-12T08:19:29Z</time>
      </trkpt>
      <trkpt lat="47.590042" lon="2.232473">
        <ele>176</ele>
        <time>2022-05-12T08:19:30Z</time>
      </trkpt>
      <trkpt lat="47.59003" lon="2.232476">
        <ele>176</ele>
        <time>2022-05-12T08:19:31Z</time>
      </trkpt>
      <trkpt lat="47.59002" lon="2.2324822">
        <ele>176</ele>
        <time>2022-05-12T08:19:32Z</time>
      </trkpt>
      <trkpt lat="47.590008" lon="2.232487">
        <ele>177</ele>
        <time>2022-05-12T08:19:33Z</time>
      </trkpt>
      <trkpt lat="47.59" lon="2.2324955">
        <ele>177</ele>
        <time>2022-05-12T08:19:34Z</time>
      </trkpt>
      <trkpt lat="47.589993" lon="2.232502">
        <ele>177</ele>
        <time>2022-05-12T08:19:35Z</time>
      </trkpt>
      <trkpt lat="47.589985" lon="2.2325072">
        <ele>177</ele>
        <time>2022-05-12T08:19:36Z</time>
      </trkpt>
      <trkpt lat="47.589973" lon="2.232514">
        <ele>177</ele>
        <time>2022-05-12T08:19:37Z</time>
      </trkpt>
      <trkpt lat="47.589962" lon="2.2325215">
        <ele>178</ele>
        <time>2022-05-12T08:19:38Z</time>
      </trkpt>
      <trkpt lat="47.589954" lon="2.2325294">
        <ele>178</ele>
        <time>2022-05-12T08:19:39Z</time>
      </trkpt>
      <trkpt lat="47.589947" lon="2.2325366">
        <ele>178</ele>
        <time>2022-05-12T08:19:40Z</time>
      </trkpt>
      <trkpt lat="47.589935" lon="2.232545">
        <ele>177</ele>
        <time>2022-05-12T08:19:41Z</time>
      </trkpt>
      <trkpt lat="47.589928" lon="2.2325516">
        <ele>177</ele>
        <time>2022-05-12T08:19:42Z</time>
      </trkpt>
      <trkpt lat="47.58992" lon="2.2325585">
        <ele>177</ele>
        <time>2022-05-12T08:19:43Z</time>
      </trkpt>
      <trkpt lat="47.58991" lon="2.2325604">
        <ele>176</ele>
        <time>2022-05-12T08:19:44Z</time>
      </trkpt>
      <trkpt lat="47.5899" lon="2.2325652">
        <ele>176</ele>
        <time>2022-05-12T08:19:45Z</time>
      </trkpt>
      <trkpt lat="47.589893" lon="2.2325716">
        <ele>177</ele>
        <time>2022-05-12T08:19:46Z</time>
      </trkpt>
      <trkpt lat="47.589886" lon="2.2325735">
        <ele>176</ele>
        <time>2022-05-12T08:19:47Z</time>
      </trkpt>
      <trkpt lat="47.58987" lon="2.2325797">
        <ele>176</ele>
        <time>2022-05-12T08:19:48Z</time>
      </trkpt>
      <trkpt lat="47.58986" lon="2.2325828">
        <ele>175</ele>
        <time>2022-05-12T08:19:49Z</time>
      </trkpt>
      <trkpt lat="47.589848" lon="2.2325895">
        <ele>176</ele>
        <time>2022-05-12T08:19:50Z</time>
      </trkpt>
      <trkpt lat="47.58984" lon="2.2325966">
        <ele>175</ele>
        <time>2022-05-12T08:19:51Z</time>
      </trkpt>
      <trkpt lat="47.58983" lon="2.2326014">
        <ele>176</ele>
        <time>2022-05-12T08:19:52Z</time>
      </trkpt>
      <trkpt lat="47.589817" lon="2.2326052">
        <ele>175</ele>
        <time>2022-05-12T08:19:53Z</time>
      </trkpt>
      <trkpt lat="47.589806" lon="2.2326086">
        <ele>175</ele>
        <time>2022-05-12T08:19:54Z</time>
      </trkpt>
      <trkpt lat="47.58979" lon="2.2326105">
        <ele>175</ele>
        <time>2022-05-12T08:19:55Z</time>
      </trkpt>
      <trkpt lat="47.589775" lon="2.2326202">
        <ele>175</ele>
        <time>2022-05-12T08:19:56Z</time>
      </trkpt>
      <trkpt lat="47.589756" lon="2.2326288">
        <ele>176</ele>
        <time>2022-05-12T08:19:57Z</time>
      </trkpt>
      <trkpt lat="47.58975" lon="2.2326372">
        <ele>176</ele>
        <time>2022-05-12T08:19:58Z</time>
      </trkpt>
      <trkpt lat="47.589737" lon="2.2326465">
        <ele>177</ele>
        <time>2022-05-12T08:19:59Z</time>
      </trkpt>
      <trkpt lat="47.589725" lon="2.2326548">
        <ele>177</ele>
        <time>2022-05-12T08:20:00Z</time>
      </trkpt>
      <trkpt lat="47.589714" lon="2.232661">
        <ele>177</ele>
        <time>2022-05-12T08:20:01Z</time>
      </trkpt>
      <trkpt lat="47.58971" lon="2.2326634">
        <ele>178</ele>
        <time>2022-05-12T08:20:02Z</time>
      </trkpt>
      <trkpt lat="47.5897" lon="2.2326748">
        <ele>178</ele>
        <time>2022-05-12T08:20:03Z</time>
      </trkpt>
      <trkpt lat="47.589687" lon="2.2326806">
        <ele>178</ele>
        <time>2022-05-12T08:20:04Z</time>
      </trkpt>
      <trkpt lat="47.589672" lon="2.232687">
        <ele>177</ele>
        <time>2022-05-12T08:20:05Z</time>
      </trkpt>
      <trkpt lat="47.58966" lon="2.232699">
        <ele>177</ele>
        <time>2022-05-12T08:20:06Z</time>
      </trkpt>
      <trkpt lat="47.589653" lon="2.2327075">
        <ele>177</ele>
        <time>2022-05-12T08:20:07Z</time>
      </trkpt>
      <trkpt lat="47.58964" lon="2.232712">
        <ele>177</ele>
        <time>2022-05-12T08:20:08Z</time>
      </trkpt>
      <trkpt lat="47.589634" lon="2.232719">
        <ele>177</ele>
        <time>2022-05-12T08:20:09Z</time>
      </trkpt>
      <trkpt lat="47.589626" lon="2.2327256">
        <ele>177</ele>
        <time>2022-05-12T08:20:10Z</time>
      </trkpt>
      <trkpt lat="47.589626" lon="2.2327297">
        <ele>177</ele>
        <time>2022-05-12T08:20:11Z</time>
      </trkpt>
      <trkpt lat="47.58962" lon="2.2327402">
        <ele>177</ele>
        <time>2022-05-12T08:20:12Z</time>
      </trkpt>
      <trkpt lat="47.58962" lon="2.232745">
        <ele>177</ele>
        <time>2022-05-12T08:20:13Z</time>
      </trkpt>
      <trkpt lat="47.58961" lon="2.232751">
        <ele>177</ele>
        <time>2022-05-12T08:20:14Z</time>
      </trkpt>
      <trkpt lat="47.5896" lon="2.232758">
        <ele>177</ele>
        <time>2022-05-12T08:20:15Z</time>
      </trkpt>
      <trkpt lat="47.58959" lon="2.2327664">
        <ele>178</ele>
        <time>2022-05-12T08:20:16Z</time>
      </trkpt>
      <trkpt lat="47.589573" lon="2.2327695">
        <ele>178</ele>
        <time>2022-05-12T08:20:17Z</time>
      </trkpt>
      <trkpt lat="47.589565" lon="2.232775">
        <ele>178</ele>
        <time>2022-05-12T08:20:18Z</time>
      </trkpt>
      <trkpt lat="47.589554" lon="2.232779">
        <ele>178</ele>
        <time>2022-05-12T08:20:19Z</time>
      </trkpt>
      <trkpt lat="47.589546" lon="2.2327867">
        <ele>177</ele>
        <time>2022-05-12T08:20:20Z</time>
      </trkpt>
      <trkpt lat="47.58954" lon="2.2327936">
        <ele>177</ele>
        <time>2022-05-12T08:20:21Z</time>
      </trkpt>
      <trkpt lat="47.589527" lon="2.2328024">
        <ele>177</ele>
        <time>2022-05-12T08:20:22Z</time>
      </trkpt>
      <trkpt lat="47.589516" lon="2.2328126">
        <ele>178</ele>
        <time>2022-05-12T08:20:23Z</time>
      </trkpt>
      <trkpt lat="47.5895" lon="2.232821">
        <ele>179</ele>
        <time>2022-05-12T08:20:24Z</time>
      </trkpt>
      <trkpt lat="47.589493" lon="2.2328327">
        <ele>179</ele>
        <time>2022-05-12T08:20:25Z</time>
      </trkpt>
      <trkpt lat="47.58948" lon="2.2328415">
        <ele>178</ele>
        <time>2022-05-12T08:20:26Z</time>
      </trkpt>
      <trkpt lat="47.58947" lon="2.2328472">
        <ele>179</ele>
        <time>2022-05-12T08:20:27Z</time>
      </trkpt>
      <trkpt lat="47.58946" lon="2.2328475">
        <ele>179</ele>
        <time>2022-05-12T08:20:28Z</time>
      </trkpt>
      <trkpt lat="47.58945" lon="2.2328522">
        <ele>179</ele>
        <time>2022-05-12T08:20:30Z</time>
      </trkpt>
      <trkpt lat="47.589443" lon="2.2328603">
        <ele>179</ele>
        <time>2022-05-12T08:20:31Z</time>
      </trkpt>
      <trkpt lat="47.58943" lon="2.2328677">
        <ele>179</ele>
        <time>2022-05-12T08:20:32Z</time>
      </trkpt>
      <trkpt lat="47.589424" lon="2.2328708">
        <ele>179</ele>
        <time>2022-05-12T08:20:33Z</time>
      </trkpt>
      <trkpt lat="47.58941" lon="2.2328746">
        <ele>179</ele>
        <time>2022-05-12T08:20:34Z</time>
      </trkpt>
      <trkpt lat="47.5894" lon="2.232883">
        <ele>179</ele>
        <time>2022-05-12T08:20:35Z</time>
      </trkpt>
      <trkpt lat="47.589394" lon="2.232887">
        <ele>179</ele>
        <time>2022-05-12T08:20:36Z</time>
      </trkpt>
      <trkpt lat="47.589386" lon="2.2328975">
        <ele>178</ele>
        <time>2022-05-12T08:20:37Z</time>
      </trkpt>
      <trkpt lat="47.58938" lon="2.232907">
        <ele>178</ele>
        <time>2022-05-12T08:20:38Z</time>
      </trkpt>
      <trkpt lat="47.589367" lon="2.232914">
        <ele>178</ele>
        <time>2022-05-12T08:20:39Z</time>
      </trkpt>
      <trkpt lat="47.589355" lon="2.2329183">
        <ele>178</ele>
        <time>2022-05-12T08:20:40Z</time>
      </trkpt>
      <trkpt lat="47.589344" lon="2.2329245">
        <ele>177</ele>
        <time>2022-05-12T08:20:41Z</time>
      </trkpt>
      <trkpt lat="47.589336" lon="2.2329311">
        <ele>177</ele>
        <time>2022-05-12T08:20:42Z</time>
      </trkpt>
      <trkpt lat="47.58933" lon="2.2329361">
        <ele>178</ele>
        <time>2022-05-12T08:20:43Z</time>
      </trkpt>
      <trkpt lat="47.58932" lon="2.23294">
        <ele>177</ele>
        <time>2022-05-12T08:20:44Z</time>
      </trkpt>
      <trkpt lat="47.589314" lon="2.2329478">
        <ele>177</ele>
        <time>2022-05-12T08:20:45Z</time>
      </trkpt>
      <trkpt lat="47.589306" lon="2.232953">
        <ele>177</ele>
        <time>2022-05-12T08:20:46Z</time>
      </trkpt>
      <trkpt lat="47.589294" lon="2.2329564">
        <ele>177</ele>
        <time>2022-05-12T08:20:47Z</time>
      </trkpt>
      <trkpt lat="47.589287" lon="2.2329671">
        <ele>177</ele>
        <time>2022-05-12T08:20:48Z</time>
      </trkpt>
      <trkpt lat="47.589283" lon="2.2329729">
        <ele>177</ele>
        <time>2022-05-12T08:20:49Z</time>
      </trkpt>
      <trkpt lat="47.58927" lon="2.232982">
        <ele>178</ele>
        <time>2022-05-12T08:20:50Z</time>
      </trkpt>
      <trkpt lat="47.589264" lon="2.2329879">
        <ele>177</ele>
        <time>2022-05-12T08:20:51Z</time>
      </trkpt>
      <trkpt lat="47.58926" lon="2.2329955">
        <ele>177</ele>
        <time>2022-05-12T08:20:52Z</time>
      </trkpt>
      <trkpt lat="47.589252" lon="2.2330027">
        <ele>178</ele>
        <time>2022-05-12T08:20:53Z</time>
      </trkpt>
      <trkpt lat="47.58924" lon="2.23301">
        <ele>177</ele>
        <time>2022-05-12T08:20:54Z</time>
      </trkpt>
      <trkpt lat="47.58923" lon="2.2330177">
        <ele>177</ele>
        <time>2022-05-12T08:20:55Z</time>
      </trkpt>
      <trkpt lat="47.589222" lon="2.2330275">
        <ele>177</ele>
        <time>2022-05-12T08:20:56Z</time>
      </trkpt>
      <trkpt lat="47.58922" lon="2.2330365">
        <ele>178</ele>
        <time>2022-05-12T08:20:57Z</time>
      </trkpt>
      <trkpt lat="47.589207" lon="2.233043">
        <ele>177</ele>
        <time>2022-05-12T08:20:58Z</time>
      </trkpt>
      <trkpt lat="47.5892" lon="2.2330527">
        <ele>177</ele>
        <time>2022-05-12T08:20:59Z</time>
      </trkpt>
      <trkpt lat="47.589188" lon="2.23306">
        <ele>177</ele>
        <time>2022-05-12T08:21:00Z</time>
      </trkpt>
      <trkpt lat="47.589176" lon="2.2330675">
        <ele>176</ele>
        <time>2022-05-12T08:21:01Z</time>
      </trkpt>
      <trkpt lat="47.58917" lon="2.2330744">
        <ele>177</ele>
        <time>2022-05-12T08:21:02Z</time>
      </trkpt>
      <trkpt lat="47.58916" lon="2.23308">
        <ele>177</ele>
        <time>2022-05-12T08:21:03Z</time>
      </trkpt>
      <trkpt lat="47.589146" lon="2.2330885">
        <ele>177</ele>
        <time>2022-05-12T08:21:04Z</time>
      </trkpt>
      <trkpt lat="47.589138" lon="2.2330985">
        <ele>177</ele>
        <time>2022-05-12T08:21:05Z</time>
      </trkpt>
      <trkpt lat="47.589127" lon="2.2331076">
        <ele>177</ele>
        <time>2022-05-12T08:21:06Z</time>
      </trkpt>
      <trkpt lat="47.58911" lon="2.233112">
        <ele>177</ele>
        <time>2022-05-12T08:21:07Z</time>
      </trkpt>
      <trkpt lat="47.589096" lon="2.2331195">
        <ele>178</ele>
        <time>2022-05-12T08:21:08Z</time>
      </trkpt>
      <trkpt lat="47.589085" lon="2.233125">
        <ele>178</ele>
        <time>2022-05-12T08:21:09Z</time>
      </trkpt>
      <trkpt lat="47.589073" lon="2.2331364">
        <ele>178</ele>
        <time>2022-05-12T08:21:10Z</time>
      </trkpt>
      <trkpt lat="47.58906" lon="2.233141">
        <ele>177</ele>
        <time>2022-05-12T08:21:11Z</time>
      </trkpt>
      <trkpt lat="47.589046" lon="2.2331479">
        <ele>177</ele>
        <time>2022-05-12T08:21:12Z</time>
      </trkpt>
      <trkpt lat="47.58903" lon="2.2331493">
        <ele>177</ele>
        <time>2022-05-12T08:21:13Z</time>
      </trkpt>
      <trkpt lat="47.58902" lon="2.2331526">
        <ele>177</ele>
        <time>2022-05-12T08:21:14Z</time>
      </trkpt>
      <trkpt lat="47.58901" lon="2.233163">
        <ele>177</ele>
        <time>2022-05-12T08:21:15Z</time>
      </trkpt>
      <trkpt lat="47.588997" lon="2.2331688">
        <ele>178</ele>
        <time>2022-05-12T08:21:16Z</time>
      </trkpt>
      <trkpt lat="47.588985" lon="2.233168">
        <ele>178</ele>
        <time>2022-05-12T08:21:17Z</time>
      </trkpt>
      <trkpt lat="47.588974" lon="2.2331722">
        <ele>179</ele>
        <time>2022-05-12T08:21:18Z</time>
      </trkpt>
      <trkpt lat="47.588966" lon="2.2331774">
        <ele>179</ele>
        <time>2022-05-12T08:21:19Z</time>
      </trkpt>
      <trkpt lat="47.58895" lon="2.2331762">
        <ele>179</ele>
        <time>2022-05-12T08:21:20Z</time>
      </trkpt>
      <trkpt lat="47.588943" lon="2.2331808">
        <ele>180</ele>
        <time>2022-05-12T08:21:21Z</time>
      </trkpt>
      <trkpt lat="47.58893" lon="2.2331889">
        <ele>180</ele>
        <time>2022-05-12T08:21:22Z</time>
      </trkpt>
      <trkpt lat="47.58892" lon="2.233197">
        <ele>180</ele>
        <time>2022-05-12T08:21:23Z</time>
      </trkpt>
      <trkpt lat="47.588913" lon="2.2332084">
        <ele>180</ele>
        <time>2022-05-12T08:21:24Z</time>
      </trkpt>
      <trkpt lat="47.5889" lon="2.233217">
        <ele>179</ele>
        <time>2022-05-12T08:21:25Z</time>
      </trkpt>
      <trkpt lat="47.58889" lon="2.2332284">
        <ele>179</ele>
        <time>2022-05-12T08:21:26Z</time>
      </trkpt>
      <trkpt lat="47.58888" lon="2.2332442">
        <ele>179</ele>
        <time>2022-05-12T08:21:27Z</time>
      </trkpt>
      <trkpt lat="47.588863" lon="2.233256">
        <ele>178</ele>
        <time>2022-05-12T08:21:28Z</time>
      </trkpt>
      <trkpt lat="47.588852" lon="2.2332644">
        <ele>179</ele>
        <time>2022-05-12T08:21:29Z</time>
      </trkpt>
      <trkpt lat="47.588844" lon="2.2332702">
        <ele>178</ele>
        <time>2022-05-12T08:21:30Z</time>
      </trkpt>
      <trkpt lat="47.588833" lon="2.2332737">
        <ele>178</ele>
        <time>2022-05-12T08:21:31Z</time>
      </trkpt>
      <trkpt lat="47.588818" lon="2.2332811">
        <ele>179</ele>
        <time>2022-05-12T08:21:32Z</time>
      </trkpt>
      <trkpt lat="47.588806" lon="2.2332942">
        <ele>179</ele>
        <time>2022-05-12T08:21:33Z</time>
      </trkpt>
      <trkpt lat="47.588795" lon="2.2333066">
        <ele>178</ele>
        <time>2022-05-12T08:21:34Z</time>
      </trkpt>
      <trkpt lat="47.58878" lon="2.233311">
        <ele>178</ele>
        <time>2022-05-12T08:21:35Z</time>
      </trkpt>
      <trkpt lat="47.588764" lon="2.2333148">
        <ele>178</ele>
        <time>2022-05-12T08:21:36Z</time>
      </trkpt>
      <trkpt lat="47.588753" lon="2.2333164">
        <ele>178</ele>
        <time>2022-05-12T08:21:37Z</time>
      </trkpt>
      <trkpt lat="47.58874" lon="2.2333288">
        <ele>178</ele>
        <time>2022-05-12T08:21:38Z</time>
      </trkpt>
      <trkpt lat="47.588737" lon="2.2333395">
        <ele>178</ele>
        <time>2022-05-12T08:21:39Z</time>
      </trkpt>
      <trkpt lat="47.58873" lon="2.2333477">
        <ele>178</ele>
        <time>2022-05-12T08:21:40Z</time>
      </trkpt>
      <trkpt lat="47.58872" lon="2.233361">
        <ele>177</ele>
        <time>2022-05-12T08:21:41Z</time>
      </trkpt>
      <trkpt lat="47.588703" lon="2.2333708">
        <ele>177</ele>
        <time>2022-05-12T08:21:42Z</time>
      </trkpt>
      <trkpt lat="47.58869" lon="2.2333865">
        <ele>177</ele>
        <time>2022-05-12T08:21:43Z</time>
      </trkpt>
      <trkpt lat="47.588684" lon="2.233393">
        <ele>177</ele>
        <time>2022-05-12T08:21:44Z</time>
      </trkpt>
      <trkpt lat="47.58868" lon="2.2333992">
        <ele>176</ele>
        <time>2022-05-12T08:21:45Z</time>
      </trkpt>
      <trkpt lat="47.588676" lon="2.2334082">
        <ele>176</ele>
        <time>2022-05-12T08:21:46Z</time>
      </trkpt>
      <trkpt lat="47.588665" lon="2.2334156">
        <ele>176</ele>
        <time>2022-05-12T08:21:47Z</time>
      </trkpt>
      <trkpt lat="47.588657" lon="2.2334185">
        <ele>176</ele>
        <time>2022-05-12T08:21:48Z</time>
      </trkpt>
      <trkpt lat="47.58865" lon="2.2334201">
        <ele>176</ele>
        <time>2022-05-12T08:21:49Z</time>
      </trkpt>
      <trkpt lat="47.58864" lon="2.2334254">
        <ele>176</ele>
        <time>2022-05-12T08:21:50Z</time>
      </trkpt>
      <trkpt lat="47.588627" lon="2.2334287">
        <ele>177</ele>
        <time>2022-05-12T08:21:51Z</time>
      </trkpt>
      <trkpt lat="47.58861" lon="2.2334328">
        <ele>177</ele>
        <time>2022-05-12T08:21:52Z</time>
      </trkpt>
      <trkpt lat="47.5886" lon="2.2334354">
        <ele>177</ele>
        <time>2022-05-12T08:21:53Z</time>
      </trkpt>
      <trkpt lat="47.588593" lon="2.2334445">
        <ele>176</ele>
        <time>2022-05-12T08:21:54Z</time>
      </trkpt>
      <trkpt lat="47.588585" lon="2.23345">
        <ele>176</ele>
        <time>2022-05-12T08:21:55Z</time>
      </trkpt>
      <trkpt lat="47.588577" lon="2.2334619">
        <ele>176</ele>
        <time>2022-05-12T08:21:56Z</time>
      </trkpt>
      <trkpt lat="47.58857" lon="2.233472">
        <ele>176</ele>
        <time>2022-05-12T08:21:57Z</time>
      </trkpt>
      <trkpt lat="47.58856" lon="2.2334774">
        <ele>177</ele>
        <time>2022-05-12T08:21:58Z</time>
      </trkpt>
      <trkpt lat="47.588547" lon="2.2334852">
        <ele>176</ele>
        <time>2022-05-12T08:21:59Z</time>
      </trkpt>
      <trkpt lat="47.588535" lon="2.2334986">
        <ele>176</ele>
        <time>2022-05-12T08:22:00Z</time>
      </trkpt>
      <trkpt lat="47.588528" lon="2.2335095">
        <ele>176</ele>
        <time>2022-05-12T08:22:01Z</time>
      </trkpt>
      <trkpt lat="47.588516" lon="2.2335198">
        <ele>175</ele>
        <time>2022-05-12T08:22:02Z</time>
      </trkpt>
      <trkpt lat="47.58851" lon="2.2335274">
        <ele>175</ele>
        <time>2022-05-12T08:22:03Z</time>
      </trkpt>
      <trkpt lat="47.5885" lon="2.2335372">
        <ele>175</ele>
        <time>2022-05-12T08:22:04Z</time>
      </trkpt>
      <trkpt lat="47.588493" lon="2.233548">
        <ele>175</ele>
        <time>2022-05-12T08:22:05Z</time>
      </trkpt>
      <trkpt lat="47.58848" lon="2.233558">
        <ele>175</ele>
        <time>2022-05-12T08:22:06Z</time>
      </trkpt>
      <trkpt lat="47.58847" lon="2.233568">
        <ele>174</ele>
        <time>2022-05-12T08:22:07Z</time>
      </trkpt>
      <trkpt lat="47.588463" lon="2.2335794">
        <ele>174</ele>
        <time>2022-05-12T08:22:08Z</time>
      </trkpt>
      <trkpt lat="47.58846" lon="2.2335935">
        <ele>174</ele>
        <time>2022-05-12T08:22:09Z</time>
      </trkpt>
      <trkpt lat="47.588448" lon="2.2336075">
        <ele>173</ele>
        <time>2022-05-12T08:22:10Z</time>
      </trkpt>
      <trkpt lat="47.588436" lon="2.2336211">
        <ele>173</ele>
        <time>2022-05-12T08:22:11Z</time>
      </trkpt>
      <trkpt lat="47.58843" lon="2.2336307">
        <ele>174</ele>
        <time>2022-05-12T08:22:12Z</time>
      </trkpt>
      <trkpt lat="47.588413" lon="2.233642">
        <ele>174</ele>
        <time>2022-05-12T08:22:13Z</time>
      </trkpt>
      <trkpt lat="47.58841" lon="2.233649">
        <ele>174</ele>
        <time>2022-05-12T08:22:14Z</time>
      </trkpt>
      <trkpt lat="47.588394" lon="2.2336595">
        <ele>175</ele>
        <time>2022-05-12T08:22:15Z</time>
      </trkpt>
      <trkpt lat="47.588387" lon="2.2336714">
        <ele>175</ele>
        <time>2022-05-12T08:22:16Z</time>
      </trkpt>
      <trkpt lat="47.588375" lon="2.2336793">
        <ele>175</ele>
        <time>2022-05-12T08:22:17Z</time>
      </trkpt>
      <trkpt lat="47.588364" lon="2.233689">
        <ele>175</ele>
        <time>2022-05-12T08:22:18Z</time>
      </trkpt>
      <trkpt lat="47.588352" lon="2.2336946">
        <ele>175</ele>
        <time>2022-05-12T08:22:19Z</time>
      </trkpt>
      <trkpt lat="47.58834" lon="2.2337086">
        <ele>175</ele>
        <time>2022-05-12T08:22:20Z</time>
      </trkpt>
      <trkpt lat="47.58833" lon="2.2337153">
        <ele>176</ele>
        <time>2022-05-12T08:22:21Z</time>
      </trkpt>
      <trkpt lat="47.58832" lon="2.2337227">
        <ele>176</ele>
        <time>2022-05-12T08:22:22Z</time>
      </trkpt>
      <trkpt lat="47.588314" lon="2.2337315">
        <ele>175</ele>
        <time>2022-05-12T08:22:23Z</time>
      </trkpt>
      <trkpt lat="47.588306" lon="2.2337427">
        <ele>175</ele>
        <time>2022-05-12T08:22:24Z</time>
      </trkpt>
      <trkpt lat="47.588303" lon="2.2337563">
        <ele>175</ele>
        <time>2022-05-12T08:22:25Z</time>
      </trkpt>
      <trkpt lat="47.588295" lon="2.23377">
        <ele>175</ele>
        <time>2022-05-12T08:22:26Z</time>
      </trkpt>
      <trkpt lat="47.58829" lon="2.2337785">
        <ele>174</ele>
        <time>2022-05-12T08:22:27Z</time>
      </trkpt>
      <trkpt lat="47.58828" lon="2.233778">
        <ele>173</ele>
        <time>2022-05-12T08:22:28Z</time>
      </trkpt>
      <trkpt lat="47.58827" lon="2.233785">
        <ele>173</ele>
        <time>2022-05-12T08:22:29Z</time>
      </trkpt>
      <trkpt lat="47.588253" lon="2.2337933">
        <ele>173</ele>
        <time>2022-05-12T08:22:30Z</time>
      </trkpt>
      <trkpt lat="47.58825" lon="2.2337933">
        <ele>172</ele>
        <time>2022-05-12T08:22:31Z</time>
      </trkpt>
      <trkpt lat="47.588234" lon="2.2337992">
        <ele>172</ele>
        <time>2022-05-12T08:22:32Z</time>
      </trkpt>
      <trkpt lat="47.588223" lon="2.2338068">
        <ele>172</ele>
        <time>2022-05-12T08:22:33Z</time>
      </trkpt>
      <trkpt lat="47.58821" lon="2.2338154">
        <ele>172</ele>
        <time>2022-05-12T08:22:34Z</time>
      </trkpt>
      <trkpt lat="47.588196" lon="2.2338243">
        <ele>172</ele>
        <time>2022-05-12T08:22:35Z</time>
      </trkpt>
      <trkpt lat="47.58818" lon="2.2338352">
        <ele>172</ele>
        <time>2022-05-12T08:22:36Z</time>
      </trkpt>
      <trkpt lat="47.58817" lon="2.2338407">
        <ele>171</ele>
        <time>2022-05-12T08:22:37Z</time>
      </trkpt>
      <trkpt lat="47.588158" lon="2.2338479">
        <ele>171</ele>
        <time>2022-05-12T08:22:38Z</time>
      </trkpt>
      <trkpt lat="47.58815" lon="2.2338583">
        <ele>171</ele>
        <time>2022-05-12T08:22:39Z</time>
      </trkpt>
      <trkpt lat="47.588142" lon="2.2338686">
        <ele>171</ele>
        <time>2022-05-12T08:22:40Z</time>
      </trkpt>
      <trkpt lat="47.58813" lon="2.2338743">
        <ele>172</ele>
        <time>2022-05-12T08:22:41Z</time>
      </trkpt>
      <trkpt lat="47.58812" lon="2.2338808">
        <ele>172</ele>
        <time>2022-05-12T08:22:42Z</time>
      </trkpt>
      <trkpt lat="47.588104" lon="2.233881">
        <ele>172</ele>
        <time>2022-05-12T08:22:43Z</time>
      </trkpt>
      <trkpt lat="47.588093" lon="2.2338865">
        <ele>173</ele>
        <time>2022-05-12T08:22:44Z</time>
      </trkpt>
      <trkpt lat="47.58808" lon="2.2338908">
        <ele>173</ele>
        <time>2022-05-12T08:22:45Z</time>
      </trkpt>
      <trkpt lat="47.58807" lon="2.2339005">
        <ele>173</ele>
        <time>2022-05-12T08:22:46Z</time>
      </trkpt>
      <trkpt lat="47.588062" lon="2.2339108">
        <ele>174</ele>
        <time>2022-05-12T08:22:47Z</time>
      </trkpt>
      <trkpt lat="47.58805" lon="2.2339191">
        <ele>174</ele>
        <time>2022-05-12T08:22:48Z</time>
      </trkpt>
      <trkpt lat="47.588043" lon="2.2339218">
        <ele>173</ele>
        <time>2022-05-12T08:22:49Z</time>
      </trkpt>
      <trkpt lat="47.588036" lon="2.2339308">
        <ele>173</ele>
        <time>2022-05-12T08:22:50Z</time>
      </trkpt>
      <trkpt lat="47.588024" lon="2.2339394">
        <ele>173</ele>
        <time>2022-05-12T08:22:51Z</time>
      </trkpt>
      <trkpt lat="47.588013" lon="2.2339423">
        <ele>173</ele>
        <time>2022-05-12T08:22:52Z</time>
      </trkpt>
      <trkpt lat="47.588013" lon="2.2339442">
        <ele>173</ele>
        <time>2022-05-12T08:22:53Z</time>
      </trkpt>
      <trkpt lat="47.588" lon="2.2339509">
        <ele>174</ele>
        <time>2022-05-12T08:22:54Z</time>
      </trkpt>
      <trkpt lat="47.587994" lon="2.2339573">
        <ele>174</ele>
        <time>2022-05-12T08:22:55Z</time>
      </trkpt>
      <trkpt lat="47.587982" lon="2.2339654">
        <ele>173</ele>
        <time>2022-05-12T08:22:56Z</time>
      </trkpt>
      <trkpt lat="47.587975" lon="2.233972">
        <ele>173</ele>
        <time>2022-05-12T08:22:57Z</time>
      </trkpt>
      <trkpt lat="47.58797" lon="2.2339816">
        <ele>173</ele>
        <time>2022-05-12T08:22:58Z</time>
      </trkpt>
      <trkpt lat="47.58796" lon="2.233993">
        <ele>173</ele>
        <time>2022-05-12T08:22:59Z</time>
      </trkpt>
      <trkpt lat="47.58795" lon="2.2340019">
        <ele>174</ele>
        <time>2022-05-12T08:23:00Z</time>
      </trkpt>
      <trkpt lat="47.58794" lon="2.2340121">
        <ele>174</ele>
        <time>2022-05-12T08:23:01Z</time>
      </trkpt>
      <trkpt lat="47.587925" lon="2.2340221">
        <ele>174</ele>
        <time>2022-05-12T08:23:02Z</time>
      </trkpt>
      <trkpt lat="47.587914" lon="2.2340276">
        <ele>175</ele>
        <time>2022-05-12T08:23:03Z</time>
      </trkpt>
      <trkpt lat="47.587906" lon="2.2340314">
        <ele>175</ele>
        <time>2022-05-12T08:23:04Z</time>
      </trkpt>
      <trkpt lat="47.5879" lon="2.2340431">
        <ele>175</ele>
        <time>2022-05-12T08:23:05Z</time>
      </trkpt>
      <trkpt lat="47.587887" lon="2.2340508">
        <ele>176</ele>
        <time>2022-05-12T08:23:06Z</time>
      </trkpt>
      <trkpt lat="47.58788" lon="2.2340527">
        <ele>176</ele>
        <time>2022-05-12T08:23:07Z</time>
      </trkpt>
      <trkpt lat="47.587868" lon="2.2340603">
        <ele>176</ele>
        <time>2022-05-12T08:23:08Z</time>
      </trkpt>
      <trkpt lat="47.58786" lon="2.234061">
        <ele>177</ele>
        <time>2022-05-12T08:23:09Z</time>
      </trkpt>
      <trkpt lat="47.58785" lon="2.2340648">
        <ele>177</ele>
        <time>2022-05-12T08:23:10Z</time>
      </trkpt>
      <trkpt lat="47.58784" lon="2.2340686">
        <ele>176</ele>
        <time>2022-05-12T08:23:11Z</time>
      </trkpt>
      <trkpt lat="47.587833" lon="2.2340775">
        <ele>177</ele>
        <time>2022-05-12T08:23:12Z</time>
      </trkpt>
      <trkpt lat="47.587822" lon="2.234083">
        <ele>177</ele>
        <time>2022-05-12T08:23:13Z</time>
      </trkpt>
      <trkpt lat="47.58782" lon="2.2340915">
        <ele>177</ele>
        <time>2022-05-12T08:23:14Z</time>
      </trkpt>
      <trkpt lat="47.587807" lon="2.2340977">
        <ele>177</ele>
        <time>2022-05-12T08:23:15Z</time>
      </trkpt>
      <trkpt lat="47.587795" lon="2.2341006">
        <ele>177</ele>
        <time>2022-05-12T08:23:16Z</time>
      </trkpt>
      <trkpt lat="47.587784" lon="2.2341099">
        <ele>176</ele>
        <time>2022-05-12T08:23:17Z</time>
      </trkpt>
      <trkpt lat="47.587765" lon="2.2341201">
        <ele>177</ele>
        <time>2022-05-12T08:23:18Z</time>
      </trkpt>
      <trkpt lat="47.587753" lon="2.2341297">
        <ele>178</ele>
        <time>2022-05-12T08:23:19Z</time>
      </trkpt>
      <trkpt lat="47.58774" lon="2.2341368">
        <ele>178</ele>
        <time>2022-05-12T08:23:20Z</time>
      </trkpt>
      <trkpt lat="47.58773" lon="2.2341433">
        <ele>178</ele>
        <time>2022-05-12T08:23:21Z</time>
      </trkpt>
      <trkpt lat="47.587723" lon="2.2341518">
        <ele>178</ele>
        <time>2022-05-12T08:23:22Z</time>
      </trkpt>
      <trkpt lat="47.587715" lon="2.2341635">
        <ele>178</ele>
        <time>2022-05-12T08:23:23Z</time>
      </trkpt>
      <trkpt lat="47.587708" lon="2.234172">
        <ele>178</ele>
        <time>2022-05-12T08:23:24Z</time>
      </trkpt>
      <trkpt lat="47.587696" lon="2.234179">
        <ele>178</ele>
        <time>2022-05-12T08:23:25Z</time>
      </trkpt>
      <trkpt lat="47.58769" lon="2.2341905">
        <ele>178</ele>
        <time>2022-05-12T08:23:26Z</time>
      </trkpt>
      <trkpt lat="47.587677" lon="2.2342021">
        <ele>177</ele>
        <time>2022-05-12T08:23:27Z</time>
      </trkpt>
      <trkpt lat="47.587666" lon="2.2342143">
        <ele>177</ele>
        <time>2022-05-12T08:23:28Z</time>
      </trkpt>
      <trkpt lat="47.587654" lon="2.2342253">
        <ele>177</ele>
        <time>2022-05-12T08:23:29Z</time>
      </trkpt>
      <trkpt lat="47.587643" lon="2.234232">
        <ele>177</ele>
        <time>2022-05-12T08:23:30Z</time>
      </trkpt>
      <trkpt lat="47.58763" lon="2.2342408">
        <ele>177</ele>
        <time>2022-05-12T08:23:31Z</time>
      </trkpt>
      <trkpt lat="47.58762" lon="2.234251">
        <ele>176</ele>
        <time>2022-05-12T08:23:32Z</time>
      </trkpt>
      <trkpt lat="47.58761" lon="2.2342591">
        <ele>176</ele>
        <time>2022-05-12T08:23:33Z</time>
      </trkpt>
      <trkpt lat="47.587597" lon="2.234269">
        <ele>176</ele>
        <time>2022-05-12T08:23:34Z</time>
      </trkpt>
      <trkpt lat="47.587585" lon="2.234276">
        <ele>176</ele>
        <time>2022-05-12T08:23:35Z</time>
      </trkpt>
      <trkpt lat="47.58757" lon="2.2342806">
        <ele>177</ele>
        <time>2022-05-12T08:23:36Z</time>
      </trkpt>
      <trkpt lat="47.587563" lon="2.2342904">
        <ele>177</ele>
        <time>2022-05-12T08:23:37Z</time>
      </trkpt>
      <trkpt lat="47.58755" lon="2.2342978">
        <ele>176</ele>
        <time>2022-05-12T08:23:38Z</time>
      </trkpt>
      <trkpt lat="47.58754" lon="2.234303">
        <ele>176</ele>
        <time>2022-05-12T08:23:39Z</time>
      </trkpt>
      <trkpt lat="47.58753" lon="2.234309">
        <ele>176</ele>
        <time>2022-05-12T08:23:40Z</time>
      </trkpt>
      <trkpt lat="47.58752" lon="2.2343094">
        <ele>177</ele>
        <time>2022-05-12T08:23:41Z</time>
      </trkpt>
      <trkpt lat="47.587517" lon="2.2343118">
        <ele>177</ele>
        <time>2022-05-12T08:23:42Z</time>
      </trkpt>
      <trkpt lat="47.587513" lon="2.2343135">
        <ele>177</ele>
        <time>2022-05-12T08:23:43Z</time>
      </trkpt>
      <trkpt lat="47.5875" lon="2.2343192">
        <ele>176</ele>
        <time>2022-05-12T08:23:44Z</time>
      </trkpt>
      <trkpt lat="47.58749" lon="2.2343247">
        <ele>175</ele>
        <time>2022-05-12T08:23:45Z</time>
      </trkpt>
      <trkpt lat="47.587482" lon="2.234328">
        <ele>176</ele>
        <time>2022-05-12T08:23:46Z</time>
      </trkpt>
      <trkpt lat="47.587475" lon="2.2343378">
        <ele>176</ele>
        <time>2022-05-12T08:23:47Z</time>
      </trkpt>
      <trkpt lat="47.587463" lon="2.2343473">
        <ele>176</ele>
        <time>2022-05-12T08:23:48Z</time>
      </trkpt>
      <trkpt lat="47.587456" lon="2.2343578">
        <ele>176</ele>
        <time>2022-05-12T08:23:49Z</time>
      </trkpt>
      <trkpt lat="47.58745" lon="2.2343643">
        <ele>176</ele>
        <time>2022-05-12T08:23:50Z</time>
      </trkpt>
      <trkpt lat="47.58744" lon="2.2343695">
        <ele>176</ele>
        <time>2022-05-12T08:23:51Z</time>
      </trkpt>
      <trkpt lat="47.58743" lon="2.2343707">
        <ele>176</ele>
        <time>2022-05-12T08:23:52Z</time>
      </trkpt>
      <trkpt lat="47.587418" lon="2.2343743">
        <ele>176</ele>
        <time>2022-05-12T08:23:53Z</time>
      </trkpt>
      <trkpt lat="47.587414" lon="2.2343776">
        <ele>176</ele>
        <time>2022-05-12T08:23:54Z</time>
      </trkpt>
      <trkpt lat="47.587402" lon="2.2343855">
        <ele>176</ele>
        <time>2022-05-12T08:23:55Z</time>
      </trkpt>
      <trkpt lat="47.587395" lon="2.2343924">
        <ele>176</ele>
        <time>2022-05-12T08:23:56Z</time>
      </trkpt>
      <trkpt lat="47.587387" lon="2.2344007">
        <ele>175</ele>
        <time>2022-05-12T08:23:57Z</time>
      </trkpt>
      <trkpt lat="47.587376" lon="2.2344115">
        <ele>175</ele>
        <time>2022-05-12T08:23:58Z</time>
      </trkpt>
      <trkpt lat="47.587368" lon="2.2344174">
        <ele>175</ele>
        <time>2022-05-12T08:23:59Z</time>
      </trkpt>
      <trkpt lat="47.58736" lon="2.2344215">
        <ele>175</ele>
        <time>2022-05-12T08:24:00Z</time>
      </trkpt>
      <trkpt lat="47.58735" lon="2.2344284">
        <ele>175</ele>
        <time>2022-05-12T08:24:01Z</time>
      </trkpt>
      <trkpt lat="47.587337" lon="2.234439">
        <ele>174</ele>
        <time>2022-05-12T08:24:02Z</time>
      </trkpt>
      <trkpt lat="47.587326" lon="2.234448">
        <ele>174</ele>
        <time>2022-05-12T08:24:03Z</time>
      </trkpt>
      <trkpt lat="47.587315" lon="2.2344542">
        <ele>175</ele>
        <time>2022-05-12T08:24:04Z</time>
      </trkpt>
      <trkpt lat="47.587307" lon="2.2344625">
        <ele>175</ele>
        <time>2022-05-12T08:24:05Z</time>
      </trkpt>
      <trkpt lat="47.58729" lon="2.2344685">
        <ele>175</ele>
        <time>2022-05-12T08:24:06Z</time>
      </trkpt>
      <trkpt lat="47.58728" lon="2.2344775">
        <ele>175</ele>
        <time>2022-05-12T08:24:07Z</time>
      </trkpt>
      <trkpt lat="47.58727" lon="2.234487">
        <ele>176</ele>
        <time>2022-05-12T08:24:08Z</time>
      </trkpt>
      <trkpt lat="47.58726" lon="2.2344944">
        <ele>175</ele>
        <time>2022-05-12T08:24:09Z</time>
      </trkpt>
      <trkpt lat="47.587257" lon="2.2345028">
        <ele>175</ele>
        <time>2022-05-12T08:24:10Z</time>
      </trkpt>
      <trkpt lat="47.587254" lon="2.2345066">
        <ele>175</ele>
        <time>2022-05-12T08:24:11Z</time>
      </trkpt>
      <trkpt lat="47.587254" lon="2.2345066">
        <ele>175</ele>
        <time>2022-05-12T08:24:12Z</time>
      </trkpt>
      <trkpt lat="47.587254" lon="2.2345066">
        <ele>175</ele>
        <time>2022-05-12T08:24:13Z</time>
      </trkpt>
      <trkpt lat="47.58723" lon="2.234522">
        <ele>175</ele>
        <time>2022-05-12T08:24:14Z</time>
      </trkpt>
      <trkpt lat="47.58722" lon="2.2345278">
        <ele>175</ele>
        <time>2022-05-12T08:24:15Z</time>
      </trkpt>
      <trkpt lat="47.587208" lon="2.2345333">
        <ele>175</ele>
        <time>2022-05-12T08:24:16Z</time>
      </trkpt>
      <trkpt lat="47.587193" lon="2.2345405">
        <ele>176</ele>
        <time>2022-05-12T08:24:17Z</time>
      </trkpt>
      <trkpt lat="47.587173" lon="2.2345438">
        <ele>176</ele>
        <time>2022-05-12T08:24:18Z</time>
      </trkpt>
      <trkpt lat="47.58716" lon="2.2345512">
        <ele>177</ele>
        <time>2022-05-12T08:24:19Z</time>
      </trkpt>
      <trkpt lat="47.58715" lon="2.2345603">
        <ele>177</ele>
        <time>2022-05-12T08:24:20Z</time>
      </trkpt>
      <trkpt lat="47.587135" lon="2.2345731">
        <ele>178</ele>
        <time>2022-05-12T08:24:21Z</time>
      </trkpt>
      <trkpt lat="47.587124" lon="2.2345822">
        <ele>178</ele>
        <time>2022-05-12T08:24:22Z</time>
      </trkpt>
      <trkpt lat="47.587105" lon="2.2345896">
        <ele>178</ele>
        <time>2022-05-12T08:24:23Z</time>
      </trkpt>
      <trkpt lat="47.587093" lon="2.2345977">
        <ele>178</ele>
        <time>2022-05-12T08:24:24Z</time>
      </trkpt>
      <trkpt lat="47.587082" lon="2.2346041">
        <ele>178</ele>
        <time>2022-05-12T08:24:25Z</time>
      </trkpt>
      <trkpt lat="47.587067" lon="2.2346087">
        <ele>177</ele>
        <time>2022-05-12T08:24:26Z</time>
      </trkpt>
      <trkpt lat="47.587055" lon="2.23461">
        <ele>177</ele>
        <time>2022-05-12T08:24:27Z</time>
      </trkpt>
      <trkpt lat="47.587048" lon="2.2346172">
        <ele>177</ele>
        <time>2022-05-12T08:24:28Z</time>
      </trkpt>
      <trkpt lat="47.58704" lon="2.2346268">
        <ele>177</ele>
        <time>2022-05-12T08:24:29Z</time>
      </trkpt>
      <trkpt lat="47.587032" lon="2.2346354">
        <ele>178</ele>
        <time>2022-05-12T08:24:30Z</time>
      </trkpt>
      <trkpt lat="47.587025" lon="2.2346435">
        <ele>178</ele>
        <time>2022-05-12T08:24:31Z</time>
      </trkpt>
      <trkpt lat="47.587017" lon="2.2346556">
        <ele>179</ele>
        <time>2022-05-12T08:24:32Z</time>
      </trkpt>
      <trkpt lat="47.58701" lon="2.2346685">
        <ele>179</ele>
        <time>2022-05-12T08:24:33Z</time>
      </trkpt>
      <trkpt lat="47.587" lon="2.2346773">
        <ele>180</ele>
        <time>2022-05-12T08:24:34Z</time>
      </trkpt>
      <trkpt lat="47.58699" lon="2.234686">
        <ele>180</ele>
        <time>2022-05-12T08:24:35Z</time>
      </trkpt>
      <trkpt lat="47.586975" lon="2.2346952">
        <ele>180</ele>
        <time>2022-05-12T08:24:36Z</time>
      </trkpt>
      <trkpt lat="47.586964" lon="2.2347016">
        <ele>180</ele>
        <time>2022-05-12T08:24:37Z</time>
      </trkpt>
      <trkpt lat="47.58695" lon="2.2347093">
        <ele>181</ele>
        <time>2022-05-12T08:24:38Z</time>
      </trkpt>
      <trkpt lat="47.586933" lon="2.2347107">
        <ele>181</ele>
        <time>2022-05-12T08:24:39Z</time>
      </trkpt>
      <trkpt lat="47.586926" lon="2.234716">
        <ele>181</ele>
        <time>2022-05-12T08:24:40Z</time>
      </trkpt>
      <trkpt lat="47.586918" lon="2.2347233">
        <ele>181</ele>
        <time>2022-05-12T08:24:41Z</time>
      </trkpt>
      <trkpt lat="47.586906" lon="2.2347324">
        <ele>181</ele>
        <time>2022-05-12T08:24:42Z</time>
      </trkpt>
      <trkpt lat="47.5869" lon="2.2347436">
        <ele>181</ele>
        <time>2022-05-12T08:24:43Z</time>
      </trkpt>
      <trkpt lat="47.58689" lon="2.234751">
        <ele>181</ele>
        <time>2022-05-12T08:24:44Z</time>
      </trkpt>
      <trkpt lat="47.586884" lon="2.234759">
        <ele>181</ele>
        <time>2022-05-12T08:24:45Z</time>
      </trkpt>
      <trkpt lat="47.58687" lon="2.2347643">
        <ele>180</ele>
        <time>2022-05-12T08:24:46Z</time>
      </trkpt>
      <trkpt lat="47.586857" lon="2.2347682">
        <ele>180</ele>
        <time>2022-05-12T08:24:47Z</time>
      </trkpt>
      <trkpt lat="47.58685" lon="2.234776">
        <ele>180</ele>
        <time>2022-05-12T08:24:48Z</time>
      </trkpt>
      <trkpt lat="47.58684" lon="2.234781">
        <ele>180</ele>
        <time>2022-05-12T08:24:49Z</time>
      </trkpt>
      <trkpt lat="47.586826" lon="2.234788">
        <ele>180</ele>
        <time>2022-05-12T08:24:50Z</time>
      </trkpt>
      <trkpt lat="47.586815" lon="2.2347991">
        <ele>180</ele>
        <time>2022-05-12T08:24:51Z</time>
      </trkpt>
      <trkpt lat="47.586803" lon="2.2348115">
        <ele>180</ele>
        <time>2022-05-12T08:24:52Z</time>
      </trkpt>
      <trkpt lat="47.586792" lon="2.234816">
        <ele>180</ele>
        <time>2022-05-12T08:24:53Z</time>
      </trkpt>
      <trkpt lat="47.586784" lon="2.234823">
        <ele>181</ele>
        <time>2022-05-12T08:24:54Z</time>
      </trkpt>
      <trkpt lat="47.58678" lon="2.2348335">
        <ele>181</ele>
        <time>2022-05-12T08:24:55Z</time>
      </trkpt>
      <trkpt lat="47.58677" lon="2.2348402">
        <ele>181</ele>
        <time>2022-05-12T08:24:56Z</time>
      </trkpt>
      <trkpt lat="47.586758" lon="2.2348454">
        <ele>182</ele>
        <time>2022-05-12T08:24:57Z</time>
      </trkpt>
      <trkpt lat="47.586742" lon="2.234854">
        <ele>182</ele>
        <time>2022-05-12T08:24:58Z</time>
      </trkpt>
      <trkpt lat="47.58673" lon="2.2348616">
        <ele>182</ele>
        <time>2022-05-12T08:24:59Z</time>
      </trkpt>
      <trkpt lat="47.586723" lon="2.234869">
        <ele>183</ele>
        <time>2022-05-12T08:25:00Z</time>
      </trkpt>
      <trkpt lat="47.58671" lon="2.2348812">
        <ele>183</ele>
        <time>2022-05-12T08:25:01Z</time>
      </trkpt>
      <trkpt lat="47.5867" lon="2.2348895">
        <ele>184</ele>
        <time>2022-05-12T08:25:02Z</time>
      </trkpt>
      <trkpt lat="47.586693" lon="2.2349">
        <ele>184</ele>
        <time>2022-05-12T08:25:03Z</time>
      </trkpt>
      <trkpt lat="47.586685" lon="2.2349029">
        <ele>184</ele>
        <time>2022-05-12T08:25:04Z</time>
      </trkpt>
      <trkpt lat="47.586674" lon="2.2349095">
        <ele>185</ele>
        <time>2022-05-12T08:25:05Z</time>
      </trkpt>
      <trkpt lat="47.586662" lon="2.2349164">
        <ele>185</ele>
        <time>2022-05-12T08:25:06Z</time>
      </trkpt>
      <trkpt lat="47.58665" lon="2.2349203">
        <ele>185</ele>
        <time>2022-05-12T08:25:07Z</time>
      </trkpt>
      <trkpt lat="47.58664" lon="2.2349262">
        <ele>185</ele>
        <time>2022-05-12T08:25:08Z</time>
      </trkpt>
      <trkpt lat="47.586628" lon="2.2349322">
        <ele>185</ele>
        <time>2022-05-12T08:25:09Z</time>
      </trkpt>
      <trkpt lat="47.586617" lon="2.2349393">
        <ele>185</ele>
        <time>2022-05-12T08:25:10Z</time>
      </trkpt>
      <trkpt lat="47.586605" lon="2.234947">
        <ele>185</ele>
        <time>2022-05-12T08:25:11Z</time>
      </trkpt>
      <trkpt lat="47.586594" lon="2.2349563">
        <ele>185</ele>
        <time>2022-05-12T08:25:12Z</time>
      </trkpt>
      <trkpt lat="47.586582" lon="2.2349622">
        <ele>185</ele>
        <time>2022-05-12T08:25:13Z</time>
      </trkpt>
      <trkpt lat="47.586575" lon="2.234971">
        <ele>185</ele>
        <time>2022-05-12T08:25:14Z</time>
      </trkpt>
      <trkpt lat="47.586563" lon="2.2349825">
        <ele>185</ele>
        <time>2022-05-12T08:25:15Z</time>
      </trkpt>
      <trkpt lat="47.586555" lon="2.2349913">
        <ele>185</ele>
        <time>2022-05-12T08:25:16Z</time>
      </trkpt>
      <trkpt lat="47.586548" lon="2.235001">
        <ele>185</ele>
        <time>2022-05-12T08:25:17Z</time>
      </trkpt>
      <trkpt lat="47.586536" lon="2.2350059">
        <ele>185</ele>
        <time>2022-05-12T08:25:18Z</time>
      </trkpt>
      <trkpt lat="47.586533" lon="2.2350092">
        <ele>184</ele>
        <time>2022-05-12T08:25:19Z</time>
      </trkpt>
      <trkpt lat="47.586525" lon="2.2350202">
        <ele>185</ele>
        <time>2022-05-12T08:25:20Z</time>
      </trkpt>
      <trkpt lat="47.586514" lon="2.2350268">
        <ele>185</ele>
        <time>2022-05-12T08:25:21Z</time>
      </trkpt>
      <trkpt lat="47.586502" lon="2.2350357">
        <ele>185</ele>
        <time>2022-05-12T08:25:22Z</time>
      </trkpt>
      <trkpt lat="47.58649" lon="2.2350404">
        <ele>185</ele>
        <time>2022-05-12T08:25:23Z</time>
      </trkpt>
      <trkpt lat="47.58648" lon="2.2350457">
        <ele>184</ele>
        <time>2022-05-12T08:25:24Z</time>
      </trkpt>
      <trkpt lat="47.58647" lon="2.2350492">
        <ele>184</ele>
        <time>2022-05-12T08:25:25Z</time>
      </trkpt>
      <trkpt lat="47.58646" lon="2.2350576">
        <ele>185</ele>
        <time>2022-05-12T08:25:26Z</time>
      </trkpt>
      <trkpt lat="47.586445" lon="2.2350645">
        <ele>184</ele>
        <time>2022-05-12T08:25:27Z</time>
      </trkpt>
      <trkpt lat="47.586433" lon="2.2350714">
        <ele>184</ele>
        <time>2022-05-12T08:25:28Z</time>
      </trkpt>
      <trkpt lat="47.586422" lon="2.2350752">
        <ele>184</ele>
        <time>2022-05-12T08:25:29Z</time>
      </trkpt>
      <trkpt lat="47.58641" lon="2.235086">
        <ele>185</ele>
        <time>2022-05-12T08:25:30Z</time>
      </trkpt>
      <trkpt lat="47.5864" lon="2.2350943">
        <ele>184</ele>
        <time>2022-05-12T08:25:31Z</time>
      </trkpt>
      <trkpt lat="47.586388" lon="2.235099">
        <ele>184</ele>
        <time>2022-05-12T08:25:32Z</time>
      </trkpt>
      <trkpt lat="47.586372" lon="2.235105">
        <ele>184</ele>
        <time>2022-05-12T08:25:33Z</time>
      </trkpt>
      <trkpt lat="47.586365" lon="2.2351112">
        <ele>185</ele>
        <time>2022-05-12T08:25:34Z</time>
      </trkpt>
      <trkpt lat="47.586357" lon="2.2351193">
        <ele>185</ele>
        <time>2022-05-12T08:25:35Z</time>
      </trkpt>
      <trkpt lat="47.58635" lon="2.2351298">
        <ele>185</ele>
        <time>2022-05-12T08:25:36Z</time>
      </trkpt>
      <trkpt lat="47.586334" lon="2.2351353">
        <ele>185</ele>
        <time>2022-05-12T08:25:37Z</time>
      </trkpt>
      <trkpt lat="47.586327" lon="2.23514">
        <ele>185</ele>
        <time>2022-05-12T08:25:38Z</time>
      </trkpt>
      <trkpt lat="47.58632" lon="2.2351434">
        <ele>185</ele>
        <time>2022-05-12T08:25:39Z</time>
      </trkpt>
      <trkpt lat="47.58631" lon="2.2351506">
        <ele>184</ele>
        <time>2022-05-12T08:25:40Z</time>
      </trkpt>
      <trkpt lat="47.586304" lon="2.2351642">
        <ele>184</ele>
        <time>2022-05-12T08:25:41Z</time>
      </trkpt>
      <trkpt lat="47.586292" lon="2.2351694">
        <ele>184</ele>
        <time>2022-05-12T08:25:42Z</time>
      </trkpt>
      <trkpt lat="47.586277" lon="2.2351751">
        <ele>183</ele>
        <time>2022-05-12T08:25:43Z</time>
      </trkpt>
      <trkpt lat="47.586266" lon="2.2351856">
        <ele>183</ele>
        <time>2022-05-12T08:25:44Z</time>
      </trkpt>
      <trkpt lat="47.586258" lon="2.2351894">
        <ele>183</ele>
        <time>2022-05-12T08:25:45Z</time>
      </trkpt>
      <trkpt lat="47.58625" lon="2.2351944">
        <ele>183</ele>
        <time>2022-05-12T08:25:46Z</time>
      </trkpt>
      <trkpt lat="47.586243" lon="2.2352026">
        <ele>183</ele>
        <time>2022-05-12T08:25:47Z</time>
      </trkpt>
      <trkpt lat="47.58623" lon="2.235217">
        <ele>184</ele>
        <time>2022-05-12T08:25:48Z</time>
      </trkpt>
      <trkpt lat="47.58622" lon="2.2352254">
        <ele>183</ele>
        <time>2022-05-12T08:25:49Z</time>
      </trkpt>
      <trkpt lat="47.586212" lon="2.235239">
        <ele>183</ele>
        <time>2022-05-12T08:25:50Z</time>
      </trkpt>
      <trkpt lat="47.5862" lon="2.2352436">
        <ele>183</ele>
        <time>2022-05-12T08:25:51Z</time>
      </trkpt>
      <trkpt lat="47.586193" lon="2.23525">
        <ele>182</ele>
        <time>2022-05-12T08:25:52Z</time>
      </trkpt>
      <trkpt lat="47.586185" lon="2.235256">
        <ele>182</ele>
        <time>2022-05-12T08:25:53Z</time>
      </trkpt>
      <trkpt lat="47.586178" lon="2.235262">
        <ele>181</ele>
        <time>2022-05-12T08:25:54Z</time>
      </trkpt>
      <trkpt lat="47.58617" lon="2.2352679">
        <ele>181</ele>
        <time>2022-05-12T08:25:55Z</time>
      </trkpt>
      <trkpt lat="47.586163" lon="2.2352717">
        <ele>181</ele>
        <time>2022-05-12T08:25:56Z</time>
      </trkpt>
      <trkpt lat="47.586155" lon="2.2352839">
        <ele>181</ele>
        <time>2022-05-12T08:25:57Z</time>
      </trkpt>
      <trkpt lat="47.586143" lon="2.2352908">
        <ele>181</ele>
        <time>2022-05-12T08:25:58Z</time>
      </trkpt>
      <trkpt lat="47.586132" lon="2.235299">
        <ele>181</ele>
        <time>2022-05-12T08:25:59Z</time>
      </trkpt>
      <trkpt lat="47.586117" lon="2.2353086">
        <ele>181</ele>
        <time>2022-05-12T08:26:00Z</time>
      </trkpt>
      <trkpt lat="47.586105" lon="2.235316">
        <ele>182</ele>
        <time>2022-05-12T08:26:01Z</time>
      </trkpt>
      <trkpt lat="47.58609" lon="2.2353241">
        <ele>182</ele>
        <time>2022-05-12T08:26:02Z</time>
      </trkpt>
      <trkpt lat="47.58608" lon="2.2353315">
        <ele>182</ele>
        <time>2022-05-12T08:26:03Z</time>
      </trkpt>
      <trkpt lat="47.586063" lon="2.2353394">
        <ele>182</ele>
        <time>2022-05-12T08:26:04Z</time>
      </trkpt>
      <trkpt lat="47.586056" lon="2.2353487">
        <ele>183</ele>
        <time>2022-05-12T08:26:05Z</time>
      </trkpt>
      <trkpt lat="47.58605" lon="2.2353551">
        <ele>182</ele>
        <time>2022-05-12T08:26:06Z</time>
      </trkpt>
      <trkpt lat="47.586033" lon="2.2353597">
        <ele>182</ele>
        <time>2022-05-12T08:26:07Z</time>
      </trkpt>
      <trkpt lat="47.58602" lon="2.2353632">
        <ele>182</ele>
        <time>2022-05-12T08:26:08Z</time>
      </trkpt>
      <trkpt lat="47.58601" lon="2.2353714">
        <ele>181</ele>
        <time>2022-05-12T08:26:09Z</time>
      </trkpt>
      <trkpt lat="47.586" lon="2.2353804">
        <ele>181</ele>
        <time>2022-05-12T08:26:10Z</time>
      </trkpt>
      <trkpt lat="47.58599" lon="2.2353828">
        <ele>181</ele>
        <time>2022-05-12T08:26:11Z</time>
      </trkpt>
      <trkpt lat="47.585983" lon="2.2353778">
        <ele>180</ele>
        <time>2022-05-12T08:26:12Z</time>
      </trkpt>
      <trkpt lat="47.585968" lon="2.235377">
        <ele>181</ele>
        <time>2022-05-12T08:26:13Z</time>
      </trkpt>
      <trkpt lat="47.58596" lon="2.2353761">
        <ele>181</ele>
        <time>2022-05-12T08:26:14Z</time>
      </trkpt>
      <trkpt lat="47.585957" lon="2.2353783">
        <ele>182</ele>
        <time>2022-05-12T08:26:15Z</time>
      </trkpt>
      <trkpt lat="47.58595" lon="2.2353866">
        <ele>183</ele>
        <time>2022-05-12T08:26:16Z</time>
      </trkpt>
      <trkpt lat="47.585938" lon="2.2353883">
        <ele>183</ele>
        <time>2022-05-12T08:26:17Z</time>
      </trkpt>
      <trkpt lat="47.585926" lon="2.2353942">
        <ele>183</ele>
        <time>2022-05-12T08:26:18Z</time>
      </trkpt>
      <trkpt lat="47.58592" lon="2.235397">
        <ele>184</ele>
        <time>2022-05-12T08:26:19Z</time>
      </trkpt>
      <trkpt lat="47.585907" lon="2.2354">
        <ele>184</ele>
        <time>2022-05-12T08:26:20Z</time>
      </trkpt>
      <trkpt lat="47.585896" lon="2.2354066">
        <ele>184</ele>
        <time>2022-05-12T08:26:21Z</time>
      </trkpt>
      <trkpt lat="47.58589" lon="2.235408">
        <ele>184</ele>
        <time>2022-05-12T08:26:22Z</time>
      </trkpt>
      <trkpt lat="47.585888" lon="2.235414">
        <ele>184</ele>
        <time>2022-05-12T08:26:23Z</time>
      </trkpt>
      <trkpt lat="47.58588" lon="2.235415">
        <ele>184</ele>
        <time>2022-05-12T08:26:24Z</time>
      </trkpt>
      <trkpt lat="47.58587" lon="2.2354214">
        <ele>184</ele>
        <time>2022-05-12T08:26:25Z</time>
      </trkpt>
      <trkpt lat="47.58586" lon="2.2354302">
        <ele>184</ele>
        <time>2022-05-12T08:26:26Z</time>
      </trkpt>
      <trkpt lat="47.58585" lon="2.2354336">
        <ele>184</ele>
        <time>2022-05-12T08:26:27Z</time>
      </trkpt>
      <trkpt lat="47.58584" lon="2.2354426">
        <ele>184</ele>
        <time>2022-05-12T08:26:28Z</time>
      </trkpt>
      <trkpt lat="47.585827" lon="2.2354527">
        <ele>184</ele>
        <time>2022-05-12T08:26:29Z</time>
      </trkpt>
      <trkpt lat="47.585815" lon="2.2354584">
        <ele>183</ele>
        <time>2022-05-12T08:26:30Z</time>
      </trkpt>
      <trkpt lat="47.585808" lon="2.2354693">
        <ele>183</ele>
        <time>2022-05-12T08:26:31Z</time>
      </trkpt>
      <trkpt lat="47.585796" lon="2.2354777">
        <ele>183</ele>
        <time>2022-05-12T08:26:32Z</time>
      </trkpt>
      <trkpt lat="47.585793" lon="2.235485">
        <ele>183</ele>
        <time>2022-05-12T08:26:33Z</time>
      </trkpt>
      <trkpt lat="47.585785" lon="2.2354927">
        <ele>183</ele>
        <time>2022-05-12T08:26:34Z</time>
      </trkpt>
      <trkpt lat="47.585777" lon="2.235495">
        <ele>183</ele>
        <time>2022-05-12T08:26:35Z</time>
      </trkpt>
      <trkpt lat="47.585766" lon="2.2355027">
        <ele>183</ele>
        <time>2022-05-12T08:26:36Z</time>
      </trkpt>
      <trkpt lat="47.585754" lon="2.2355087">
        <ele>182</ele>
        <time>2022-05-12T08:26:37Z</time>
      </trkpt>
      <trkpt lat="47.585743" lon="2.2355196">
        <ele>182</ele>
        <time>2022-05-12T08:26:38Z</time>
      </trkpt>
      <trkpt lat="47.58573" lon="2.2355373">
        <ele>182</ele>
        <time>2022-05-12T08:26:39Z</time>
      </trkpt>
      <trkpt lat="47.58572" lon="2.2355502">
        <ele>182</ele>
        <time>2022-05-12T08:26:40Z</time>
      </trkpt>
      <trkpt lat="47.585712" lon="2.2355635">
        <ele>182</ele>
        <time>2022-05-12T08:26:41Z</time>
      </trkpt>
      <trkpt lat="47.585697" lon="2.235568">
        <ele>182</ele>
        <time>2022-05-12T08:26:42Z</time>
      </trkpt>
      <trkpt lat="47.585682" lon="2.2355704">
        <ele>183</ele>
        <time>2022-05-12T08:26:43Z</time>
      </trkpt>
      <trkpt lat="47.585663" lon="2.2355726">
        <ele>183</ele>
        <time>2022-05-12T08:26:44Z</time>
      </trkpt>
      <trkpt lat="47.58565" lon="2.2355838">
        <ele>183</ele>
        <time>2022-05-12T08:26:45Z</time>
      </trkpt>
      <trkpt lat="47.585636" lon="2.2355902">
        <ele>183</ele>
        <time>2022-05-12T08:26:46Z</time>
      </trkpt>
      <trkpt lat="47.585625" lon="2.235597">
        <ele>183</ele>
        <time>2022-05-12T08:26:47Z</time>
      </trkpt>
      <trkpt lat="47.58562" lon="2.2355998">
        <ele>183</ele>
        <time>2022-05-12T08:26:48Z</time>
      </trkpt>
      <trkpt lat="47.585606" lon="2.2356055">
        <ele>183</ele>
        <time>2022-05-12T08:26:49Z</time>
      </trkpt>
      <trkpt lat="47.585598" lon="2.2356079">
        <ele>182</ele>
        <time>2022-05-12T08:26:50Z</time>
      </trkpt>
      <trkpt lat="47.585583" lon="2.2356114">
        <ele>182</ele>
        <time>2022-05-12T08:26:51Z</time>
      </trkpt>
      <trkpt lat="47.585567" lon="2.2356155">
        <ele>182</ele>
        <time>2022-05-12T08:26:52Z</time>
      </trkpt>
      <trkpt lat="47.585564" lon="2.2356224">
        <ele>182</ele>
        <time>2022-05-12T08:26:53Z</time>
      </trkpt>
      <trkpt lat="47.585556" lon="2.235633">
        <ele>182</ele>
        <time>2022-05-12T08:26:54Z</time>
      </trkpt>
      <trkpt lat="47.58555" lon="2.2356436">
        <ele>182</ele>
        <time>2022-05-12T08:26:55Z</time>
      </trkpt>
      <trkpt lat="47.58554" lon="2.2356544">
        <ele>182</ele>
        <time>2022-05-12T08:26:56Z</time>
      </trkpt>
      <trkpt lat="47.585533" lon="2.2356586">
        <ele>182</ele>
        <time>2022-05-12T08:26:57Z</time>
      </trkpt>
      <trkpt lat="47.58552" lon="2.2356663">
        <ele>182</ele>
        <time>2022-05-12T08:26:58Z</time>
      </trkpt>
      <trkpt lat="47.58551" lon="2.235677">
        <ele>181</ele>
        <time>2022-05-12T08:26:59Z</time>
      </trkpt>
      <trkpt lat="47.5855" lon="2.235682">
        <ele>181</ele>
        <time>2022-05-12T08:27:00Z</time>
      </trkpt>
      <trkpt lat="47.58549" lon="2.2356906">
        <ele>181</ele>
        <time>2022-05-12T08:27:01Z</time>
      </trkpt>
      <trkpt lat="47.585484" lon="2.2356997">
        <ele>181</ele>
        <time>2022-05-12T08:27:02Z</time>
      </trkpt>
      <trkpt lat="47.585476" lon="2.2357097">
        <ele>181</ele>
        <time>2022-05-12T08:27:03Z</time>
      </trkpt>
      <trkpt lat="47.58547" lon="2.2357183">
        <ele>181</ele>
        <time>2022-05-12T08:27:04Z</time>
      </trkpt>
      <trkpt lat="47.585457" lon="2.2357283">
        <ele>182</ele>
        <time>2022-05-12T08:27:05Z</time>
      </trkpt>
      <trkpt lat="47.585445" lon="2.2357395">
        <ele>181</ele>
        <time>2022-05-12T08:27:06Z</time>
      </trkpt>
      <trkpt lat="47.585438" lon="2.2357483">
        <ele>181</ele>
        <time>2022-05-12T08:27:07Z</time>
      </trkpt>
      <trkpt lat="47.58543" lon="2.2357543">
        <ele>181</ele>
        <time>2022-05-12T08:27:08Z</time>
      </trkpt>
      <trkpt lat="47.585415" lon="2.2357643">
        <ele>182</ele>
        <time>2022-05-12T08:27:09Z</time>
      </trkpt>
      <trkpt lat="47.585403" lon="2.2357712">
        <ele>182</ele>
        <time>2022-05-12T08:27:10Z</time>
      </trkpt>
      <trkpt lat="47.585396" lon="2.23578">
        <ele>182</ele>
        <time>2022-05-12T08:27:11Z</time>
      </trkpt>
      <trkpt lat="47.58539" lon="2.2357843">
        <ele>182</ele>
        <time>2022-05-12T08:27:12Z</time>
      </trkpt>
      <trkpt lat="47.585373" lon="2.2357926">
        <ele>183</ele>
        <time>2022-05-12T08:27:13Z</time>
      </trkpt>
      <trkpt lat="47.58536" lon="2.2357943">
        <ele>183</ele>
        <time>2022-05-12T08:27:14Z</time>
      </trkpt>
      <trkpt lat="47.58535" lon="2.235796">
        <ele>183</ele>
        <time>2022-05-12T08:27:15Z</time>
      </trkpt>
      <trkpt lat="47.58534" lon="2.2358036">
        <ele>183</ele>
        <time>2022-05-12T08:27:16Z</time>
      </trkpt>
      <trkpt lat="47.58533" lon="2.2358134">
        <ele>183</ele>
        <time>2022-05-12T08:27:17Z</time>
      </trkpt>
      <trkpt lat="47.585327" lon="2.2358203">
        <ele>184</ele>
        <time>2022-05-12T08:27:18Z</time>
      </trkpt>
      <trkpt lat="47.585316" lon="2.2358239">
        <ele>184</ele>
        <time>2022-05-12T08:27:19Z</time>
      </trkpt>
      <trkpt lat="47.585308" lon="2.2358341">
        <ele>185</ele>
        <time>2022-05-12T08:27:20Z</time>
      </trkpt>
      <trkpt lat="47.585297" lon="2.2358406">
        <ele>184</ele>
        <time>2022-05-12T08:27:21Z</time>
      </trkpt>
      <trkpt lat="47.585285" lon="2.235851">
        <ele>184</ele>
        <time>2022-05-12T08:27:22Z</time>
      </trkpt>
      <trkpt lat="47.585274" lon="2.235859">
        <ele>184</ele>
        <time>2022-05-12T08:27:23Z</time>
      </trkpt>
      <trkpt lat="47.58527" lon="2.2358665">
        <ele>184</ele>
        <time>2022-05-12T08:27:24Z</time>
      </trkpt>
      <trkpt lat="47.585262" lon="2.2358708">
        <ele>185</ele>
        <time>2022-05-12T08:27:25Z</time>
      </trkpt>
      <trkpt lat="47.58525" lon="2.2358727">
        <ele>184</ele>
        <time>2022-05-12T08:27:26Z</time>
      </trkpt>
      <trkpt lat="47.585243" lon="2.2358704">
        <ele>184</ele>
        <time>2022-05-12T08:27:27Z</time>
      </trkpt>
      <trkpt lat="47.58523" lon="2.2358747">
        <ele>183</ele>
        <time>2022-05-12T08:27:28Z</time>
      </trkpt>
      <trkpt lat="47.58522" lon="2.235878">
        <ele>183</ele>
        <time>2022-05-12T08:27:29Z</time>
      </trkpt>
      <trkpt lat="47.585213" lon="2.2358851">
        <ele>182</ele>
        <time>2022-05-12T08:27:30Z</time>
      </trkpt>
      <trkpt lat="47.5852" lon="2.2358897">
        <ele>182</ele>
        <time>2022-05-12T08:27:31Z</time>
      </trkpt>
      <trkpt lat="47.585194" lon="2.2358966">
        <ele>182</ele>
        <time>2022-05-12T08:27:32Z</time>
      </trkpt>
      <trkpt lat="47.585182" lon="2.2359">
        <ele>182</ele>
        <time>2022-05-12T08:27:33Z</time>
      </trkpt>
      <trkpt lat="47.585175" lon="2.235903">
        <ele>182</ele>
        <time>2022-05-12T08:27:34Z</time>
      </trkpt>
      <trkpt lat="47.585163" lon="2.2359123">
        <ele>182</ele>
        <time>2022-05-12T08:27:35Z</time>
      </trkpt>
      <trkpt lat="47.58515" lon="2.2359245">
        <ele>182</ele>
        <time>2022-05-12T08:27:36Z</time>
      </trkpt>
      <trkpt lat="47.585144" lon="2.2359333">
        <ele>182</ele>
        <time>2022-05-12T08:27:37Z</time>
      </trkpt>
      <trkpt lat="47.58513" lon="2.2359393">
        <ele>181</ele>
        <time>2022-05-12T08:27:38Z</time>
      </trkpt>
      <trkpt lat="47.585117" lon="2.235949">
        <ele>181</ele>
        <time>2022-05-12T08:27:39Z</time>
      </trkpt>
      <trkpt lat="47.585102" lon="2.235958">
        <ele>181</ele>
        <time>2022-05-12T08:27:40Z</time>
      </trkpt>
      <trkpt lat="47.58509" lon="2.2359672">
        <ele>182</ele>
        <time>2022-05-12T08:27:41Z</time>
      </trkpt>
      <trkpt lat="47.585075" lon="2.2359734">
        <ele>181</ele>
        <time>2022-05-12T08:27:42Z</time>
      </trkpt>
      <trkpt lat="47.585064" lon="2.2359822">
        <ele>181</ele>
        <time>2022-05-12T08:27:43Z</time>
      </trkpt>
      <trkpt lat="47.585052" lon="2.2359953">
        <ele>181</ele>
        <time>2022-05-12T08:27:44Z</time>
      </trkpt>
      <trkpt lat="47.585045" lon="2.2360048">
        <ele>181</ele>
        <time>2022-05-12T08:27:45Z</time>
      </trkpt>
      <trkpt lat="47.585033" lon="2.236015">
        <ele>181</ele>
        <time>2022-05-12T08:27:46Z</time>
      </trkpt>
      <trkpt lat="47.585022" lon="2.2360268">
        <ele>180</ele>
        <time>2022-05-12T08:27:47Z</time>
      </trkpt>
      <trkpt lat="47.58501" lon="2.2360442">
        <ele>181</ele>
        <time>2022-05-12T08:27:48Z</time>
      </trkpt>
      <trkpt lat="47.584995" lon="2.236059">
        <ele>181</ele>
        <time>2022-05-12T08:27:49Z</time>
      </trkpt>
      <trkpt lat="47.584984" lon="2.2360659">
        <ele>180</ele>
        <time>2022-05-12T08:27:50Z</time>
      </trkpt>
      <trkpt lat="47.584972" lon="2.2360766">
        <ele>180</ele>
        <time>2022-05-12T08:27:51Z</time>
      </trkpt>
      <trkpt lat="47.584957" lon="2.2360876">
        <ele>180</ele>
        <time>2022-05-12T08:27:52Z</time>
      </trkpt>
      <trkpt lat="47.584946" lon="2.2360923">
        <ele>181</ele>
        <time>2022-05-12T08:27:53Z</time>
      </trkpt>
      <trkpt lat="47.584938" lon="2.236103">
        <ele>180</ele>
        <time>2022-05-12T08:27:54Z</time>
      </trkpt>
      <trkpt lat="47.58493" lon="2.2361083">
        <ele>181</ele>
        <time>2022-05-12T08:27:55Z</time>
      </trkpt>
      <trkpt lat="47.58492" lon="2.2361166">
        <ele>180</ele>
        <time>2022-05-12T08:27:56Z</time>
      </trkpt>
      <trkpt lat="47.58491" lon="2.2361267">
        <ele>180</ele>
        <time>2022-05-12T08:27:57Z</time>
      </trkpt>
      <trkpt lat="47.584908" lon="2.2361379">
        <ele>180</ele>
        <time>2022-05-12T08:27:58Z</time>
      </trkpt>
      <trkpt lat="47.584896" lon="2.236148">
        <ele>181</ele>
        <time>2022-05-12T08:27:59Z</time>
      </trkpt>
      <trkpt lat="47.584885" lon="2.236156">
        <ele>181</ele>
        <time>2022-05-12T08:28:00Z</time>
      </trkpt>
      <trkpt lat="47.584873" lon="2.236164">
        <ele>181</ele>
        <time>2022-05-12T08:28:01Z</time>
      </trkpt>
      <trkpt lat="47.584866" lon="2.2361681">
        <ele>181</ele>
        <time>2022-05-12T08:28:02Z</time>
      </trkpt>
      <trkpt lat="47.584858" lon="2.2361736">
        <ele>180</ele>
        <time>2022-05-12T08:28:03Z</time>
      </trkpt>
      <trkpt lat="47.584846" lon="2.23618">
        <ele>180</ele>
        <time>2022-05-12T08:28:04Z</time>
      </trkpt>
      <trkpt lat="47.584835" lon="2.2361898">
        <ele>180</ele>
        <time>2022-05-12T08:28:05Z</time>
      </trkpt>
      <trkpt lat="47.58482" lon="2.236199">
        <ele>180</ele>
        <time>2022-05-12T08:28:06Z</time>
      </trkpt>
      <trkpt lat="47.58481" lon="2.2362025">
        <ele>180</ele>
        <time>2022-05-12T08:28:07Z</time>
      </trkpt>
      <trkpt lat="47.584797" lon="2.23621">
        <ele>180</ele>
        <time>2022-05-12T08:28:08Z</time>
      </trkpt>
      <trkpt lat="47.58479" lon="2.236219">
        <ele>180</ele>
        <time>2022-05-12T08:28:09Z</time>
      </trkpt>
      <trkpt lat="47.58478" lon="2.2362247">
        <ele>180</ele>
        <time>2022-05-12T08:28:10Z</time>
      </trkpt>
      <trkpt lat="47.584774" lon="2.236226">
        <ele>180</ele>
        <time>2022-05-12T08:28:11Z</time>
      </trkpt>
      <trkpt lat="47.58476" lon="2.2362342">
        <ele>179</ele>
        <time>2022-05-12T08:28:12Z</time>
      </trkpt>
      <trkpt lat="47.58475" lon="2.2362363">
        <ele>180</ele>
        <time>2022-05-12T08:28:13Z</time>
      </trkpt>
      <trkpt lat="47.58474" lon="2.2362394">
        <ele>179</ele>
        <time>2022-05-12T08:28:14Z</time>
      </trkpt>
      <trkpt lat="47.584736" lon="2.2362447">
        <ele>179</ele>
        <time>2022-05-12T08:28:15Z</time>
      </trkpt>
      <trkpt lat="47.58473" lon="2.236253">
        <ele>179</ele>
        <time>2022-05-12T08:28:16Z</time>
      </trkpt>
      <trkpt lat="47.584717" lon="2.23626">
        <ele>179</ele>
        <time>2022-05-12T08:28:17Z</time>
      </trkpt>
      <trkpt lat="47.584705" lon="2.2362666">
        <ele>179</ele>
        <time>2022-05-12T08:28:18Z</time>
      </trkpt>
      <trkpt lat="47.584698" lon="2.236273">
        <ele>179</ele>
        <time>2022-05-12T08:28:19Z</time>
      </trkpt>
      <trkpt lat="47.584682" lon="2.2362852">
        <ele>179</ele>
        <time>2022-05-12T08:28:20Z</time>
      </trkpt>
      <trkpt lat="47.584675" lon="2.236294">
        <ele>179</ele>
        <time>2022-05-12T08:28:21Z</time>
      </trkpt>
      <trkpt lat="47.584663" lon="2.2363064">
        <ele>179</ele>
        <time>2022-05-12T08:28:22Z</time>
      </trkpt>
      <trkpt lat="47.584652" lon="2.236315">
        <ele>179</ele>
        <time>2022-05-12T08:28:23Z</time>
      </trkpt>
      <trkpt lat="47.58464" lon="2.2363274">
        <ele>179</ele>
        <time>2022-05-12T08:28:24Z</time>
      </trkpt>
      <trkpt lat="47.584625" lon="2.2363381">
        <ele>179</ele>
        <time>2022-05-12T08:28:25Z</time>
      </trkpt>
      <trkpt lat="47.584618" lon="2.2363496">
        <ele>179</ele>
        <time>2022-05-12T08:28:26Z</time>
      </trkpt>
      <trkpt lat="47.58461" lon="2.2363572">
        <ele>179</ele>
        <time>2022-05-12T08:28:27Z</time>
      </trkpt>
      <trkpt lat="47.584602" lon="2.2363698">
        <ele>179</ele>
        <time>2022-05-12T08:28:28Z</time>
      </trkpt>
      <trkpt lat="47.58459" lon="2.2363832">
        <ele>179</ele>
        <time>2022-05-12T08:28:29Z</time>
      </trkpt>
      <trkpt lat="47.584583" lon="2.236395">
        <ele>179</ele>
        <time>2022-05-12T08:28:30Z</time>
      </trkpt>
      <trkpt lat="47.584576" lon="2.2364042">
        <ele>179</ele>
        <time>2022-05-12T08:28:31Z</time>
      </trkpt>
      <trkpt lat="47.584564" lon="2.2364092">
        <ele>180</ele>
        <time>2022-05-12T08:28:32Z</time>
      </trkpt>
      <trkpt lat="47.584557" lon="2.2364154">
        <ele>180</ele>
        <time>2022-05-12T08:28:33Z</time>
      </trkpt>
      <trkpt lat="47.58454" lon="2.236423">
        <ele>180</ele>
        <time>2022-05-12T08:28:34Z</time>
      </trkpt>
      <trkpt lat="47.584534" lon="2.236431">
        <ele>180</ele>
        <time>2022-05-12T08:28:35Z</time>
      </trkpt>
      <trkpt lat="47.58452" lon="2.2364357">
        <ele>180</ele>
        <time>2022-05-12T08:28:36Z</time>
      </trkpt>
      <trkpt lat="47.584507" lon="2.2364383">
        <ele>181</ele>
        <time>2022-05-12T08:28:37Z</time>
      </trkpt>
      <trkpt lat="47.58449" lon="2.2364419">
        <ele>180</ele>
        <time>2022-05-12T08:28:38Z</time>
      </trkpt>
      <trkpt lat="47.584484" lon="2.2364488">
        <ele>181</ele>
        <time>2022-05-12T08:28:39Z</time>
      </trkpt>
      <trkpt lat="47.58447" lon="2.2364595">
        <ele>180</ele>
        <time>2022-05-12T08:28:40Z</time>
      </trkpt>
      <trkpt lat="47.584457" lon="2.23647">
        <ele>180</ele>
        <time>2022-05-12T08:28:41Z</time>
      </trkpt>
      <trkpt lat="47.58445" lon="2.2364814">
        <ele>180</ele>
        <time>2022-05-12T08:28:42Z</time>
      </trkpt>
      <trkpt lat="47.584435" lon="2.2364922">
        <ele>180</ele>
        <time>2022-05-12T08:28:43Z</time>
      </trkpt>
      <trkpt lat="47.584427" lon="2.2364972">
        <ele>180</ele>
        <time>2022-05-12T08:28:44Z</time>
      </trkpt>
      <trkpt lat="47.584415" lon="2.2365031">
        <ele>181</ele>
        <time>2022-05-12T08:28:45Z</time>
      </trkpt>
      <trkpt lat="47.584404" lon="2.2365081">
        <ele>181</ele>
        <time>2022-05-12T08:28:46Z</time>
      </trkpt>
      <trkpt lat="47.58439" lon="2.2365139">
        <ele>181</ele>
        <time>2022-05-12T08:28:47Z</time>
      </trkpt>
      <trkpt lat="47.584377" lon="2.236523">
        <ele>182</ele>
        <time>2022-05-12T08:28:48Z</time>
      </trkpt>
      <trkpt lat="47.584366" lon="2.2365317">
        <ele>182</ele>
        <time>2022-05-12T08:28:49Z</time>
      </trkpt>
      <trkpt lat="47.584354" lon="2.2365365">
        <ele>182</ele>
        <time>2022-05-12T08:28:50Z</time>
      </trkpt>
      <trkpt lat="47.584343" lon="2.236541">
        <ele>182</ele>
        <time>2022-05-12T08:28:51Z</time>
      </trkpt>
      <trkpt lat="47.58433" lon="2.236546">
        <ele>182</ele>
        <time>2022-05-12T08:28:52Z</time>
      </trkpt>
      <trkpt lat="47.584324" lon="2.2365565">
        <ele>182</ele>
        <time>2022-05-12T08:28:53Z</time>
      </trkpt>
      <trkpt lat="47.584312" lon="2.236564">
        <ele>182</ele>
        <time>2022-05-12T08:28:54Z</time>
      </trkpt>
      <trkpt lat="47.5843" lon="2.236571">
        <ele>183</ele>
        <time>2022-05-12T08:28:55Z</time>
      </trkpt>
      <trkpt lat="47.58429" lon="2.2365832">
        <ele>182</ele>
        <time>2022-05-12T08:28:56Z</time>
      </trkpt>
      <trkpt lat="47.58428" lon="2.2365952">
        <ele>182</ele>
        <time>2022-05-12T08:28:57Z</time>
      </trkpt>
      <trkpt lat="47.584267" lon="2.2366045">
        <ele>182</ele>
        <time>2022-05-12T08:28:58Z</time>
      </trkpt>
      <trkpt lat="47.584255" lon="2.2366123">
        <ele>182</ele>
        <time>2022-05-12T08:28:59Z</time>
      </trkpt>
      <trkpt lat="47.584244" lon="2.2366161">
        <ele>183</ele>
        <time>2022-05-12T08:29:00Z</time>
      </trkpt>
      <trkpt lat="47.584232" lon="2.236624">
        <ele>183</ele>
        <time>2022-05-12T08:29:01Z</time>
      </trkpt>
      <trkpt lat="47.58422" lon="2.2366323">
        <ele>183</ele>
        <time>2022-05-12T08:29:02Z</time>
      </trkpt>
      <trkpt lat="47.584213" lon="2.2366395">
        <ele>183</ele>
        <time>2022-05-12T08:29:03Z</time>
      </trkpt>
      <trkpt lat="47.584206" lon="2.2366447">
        <ele>183</ele>
        <time>2022-05-12T08:29:04Z</time>
      </trkpt>
      <trkpt lat="47.584198" lon="2.2366526">
        <ele>183</ele>
        <time>2022-05-12T08:29:05Z</time>
      </trkpt>
      <trkpt lat="47.584187" lon="2.236657">
        <ele>184</ele>
        <time>2022-05-12T08:29:06Z</time>
      </trkpt>
      <trkpt lat="47.58417" lon="2.2366629">
        <ele>184</ele>
        <time>2022-05-12T08:29:07Z</time>
      </trkpt>
      <trkpt lat="47.58416" lon="2.2366714">
        <ele>183</ele>
        <time>2022-05-12T08:29:08Z</time>
      </trkpt>
      <trkpt lat="47.584145" lon="2.2366776">
        <ele>184</ele>
        <time>2022-05-12T08:29:09Z</time>
      </trkpt>
      <trkpt lat="47.584137" lon="2.2366834">
        <ele>184</ele>
        <time>2022-05-12T08:29:10Z</time>
      </trkpt>
      <trkpt lat="47.584126" lon="2.2366905">
        <ele>184</ele>
        <time>2022-05-12T08:29:11Z</time>
      </trkpt>
      <trkpt lat="47.584118" lon="2.236699">
        <ele>184</ele>
        <time>2022-05-12T08:29:12Z</time>
      </trkpt>
      <trkpt lat="47.584106" lon="2.2367067">
        <ele>184</ele>
        <time>2022-05-12T08:29:13Z</time>
      </trkpt>
      <trkpt lat="47.584095" lon="2.2367148">
        <ele>184</ele>
        <time>2022-05-12T08:29:14Z</time>
      </trkpt>
      <trkpt lat="47.58408" lon="2.2367263">
        <ele>184</ele>
        <time>2022-05-12T08:29:15Z</time>
      </trkpt>
      <trkpt lat="47.584072" lon="2.2367337">
        <ele>184</ele>
        <time>2022-05-12T08:29:16Z</time>
      </trkpt>
      <trkpt lat="47.584064" lon="2.2367437">
        <ele>184</ele>
        <time>2022-05-12T08:29:17Z</time>
      </trkpt>
      <trkpt lat="47.584053" lon="2.2367523">
        <ele>184</ele>
        <time>2022-05-12T08:29:18Z</time>
      </trkpt>
      <trkpt lat="47.584045" lon="2.2367604">
        <ele>184</ele>
        <time>2022-05-12T08:29:19Z</time>
      </trkpt>
      <trkpt lat="47.58403" lon="2.2367668">
        <ele>184</ele>
        <time>2022-05-12T08:29:20Z</time>
      </trkpt>
      <trkpt lat="47.58402" lon="2.2367713">
        <ele>184</ele>
        <time>2022-05-12T08:29:21Z</time>
      </trkpt>
      <trkpt lat="47.58401" lon="2.2367783">
        <ele>184</ele>
        <time>2022-05-12T08:29:22Z</time>
      </trkpt>
      <trkpt lat="47.584" lon="2.2367876">
        <ele>184</ele>
        <time>2022-05-12T08:29:23Z</time>
      </trkpt>
      <trkpt lat="47.583992" lon="2.2367966">
        <ele>185</ele>
        <time>2022-05-12T08:29:24Z</time>
      </trkpt>
      <trkpt lat="47.583984" lon="2.2368045">
        <ele>185</ele>
        <time>2022-05-12T08:29:25Z</time>
      </trkpt>
      <trkpt lat="47.583977" lon="2.2368195">
        <ele>185</ele>
        <time>2022-05-12T08:29:26Z</time>
      </trkpt>
      <trkpt lat="47.58397" lon="2.2368293">
        <ele>186</ele>
        <time>2022-05-12T08:29:27Z</time>
      </trkpt>
      <trkpt lat="47.58396" lon="2.236839">
        <ele>185</ele>
        <time>2022-05-12T08:29:28Z</time>
      </trkpt>
      <trkpt lat="47.583954" lon="2.23685">
        <ele>185</ele>
        <time>2022-05-12T08:29:29Z</time>
      </trkpt>
      <trkpt lat="47.583942" lon="2.2368617">
        <ele>185</ele>
        <time>2022-05-12T08:29:30Z</time>
      </trkpt>
      <trkpt lat="47.58394" lon="2.2368743">
        <ele>186</ele>
        <time>2022-05-12T08:29:31Z</time>
      </trkpt>
      <trkpt lat="47.58393" lon="2.2368865">
        <ele>185</ele>
        <time>2022-05-12T08:29:32Z</time>
      </trkpt>
      <trkpt lat="47.583923" lon="2.2369037">
        <ele>186</ele>
        <time>2022-05-12T08:29:33Z</time>
      </trkpt>
      <trkpt lat="47.58391" lon="2.2369173">
        <ele>186</ele>
        <time>2022-05-12T08:29:34Z</time>
      </trkpt>
      <trkpt lat="47.583904" lon="2.2369316">
        <ele>186</ele>
        <time>2022-05-12T08:29:35Z</time>
      </trkpt>
      <trkpt lat="47.583897" lon="2.2369437">
        <ele>186</ele>
        <time>2022-05-12T08:29:36Z</time>
      </trkpt>
      <trkpt lat="47.583885" lon="2.2369585">
        <ele>186</ele>
        <time>2022-05-12T08:29:37Z</time>
      </trkpt>
      <trkpt lat="47.583874" lon="2.2369711">
        <ele>186</ele>
        <time>2022-05-12T08:29:38Z</time>
      </trkpt>
      <trkpt lat="47.583866" lon="2.2369862">
        <ele>186</ele>
        <time>2022-05-12T08:29:39Z</time>
      </trkpt>
      <trkpt lat="47.583855" lon="2.237">
        <ele>186</ele>
        <time>2022-05-12T08:29:40Z</time>
      </trkpt>
      <trkpt lat="47.58385" lon="2.2370148">
        <ele>186</ele>
        <time>2022-05-12T08:29:41Z</time>
      </trkpt>
      <trkpt lat="47.583843" lon="2.2370248">
        <ele>187</ele>
        <time>2022-05-12T08:29:42Z</time>
      </trkpt>
      <trkpt lat="47.583836" lon="2.2370398">
        <ele>187</ele>
        <time>2022-05-12T08:29:43Z</time>
      </trkpt>
      <trkpt lat="47.58383" lon="2.2370558">
        <ele>187</ele>
        <time>2022-05-12T08:29:44Z</time>
      </trkpt>
      <trkpt lat="47.583828" lon="2.2370694">
        <ele>187</ele>
        <time>2022-05-12T08:29:45Z</time>
      </trkpt>
      <trkpt lat="47.583817" lon="2.237079">
        <ele>188</ele>
        <time>2022-05-12T08:29:46Z</time>
      </trkpt>
      <trkpt lat="47.5838" lon="2.2370906">
        <ele>188</ele>
        <time>2022-05-12T08:29:47Z</time>
      </trkpt>
      <trkpt lat="47.583794" lon="2.2371001">
        <ele>188</ele>
        <time>2022-05-12T08:29:48Z</time>
      </trkpt>
      <trkpt lat="47.583782" lon="2.2371109">
        <ele>188</ele>
        <time>2022-05-12T08:29:49Z</time>
      </trkpt>
      <trkpt lat="47.583775" lon="2.2371242">
        <ele>188</ele>
        <time>2022-05-12T08:29:50Z</time>
      </trkpt>
      <trkpt lat="47.583767" lon="2.2371364">
        <ele>187</ele>
        <time>2022-05-12T08:29:51Z</time>
      </trkpt>
      <trkpt lat="47.58376" lon="2.237152">
        <ele>187</ele>
        <time>2022-05-12T08:29:52Z</time>
      </trkpt>
      <trkpt lat="47.58375" lon="2.237165">
        <ele>186</ele>
        <time>2022-05-12T08:29:53Z</time>
      </trkpt>
      <trkpt lat="47.58374" lon="2.2371755">
        <ele>186</ele>
        <time>2022-05-12T08:29:54Z</time>
      </trkpt>
      <trkpt lat="47.58373" lon="2.2371862">
        <ele>186</ele>
        <time>2022-05-12T08:29:55Z</time>
      </trkpt>
      <trkpt lat="47.583725" lon="2.2371979">
        <ele>186</ele>
        <time>2022-05-12T08:29:56Z</time>
      </trkpt>
      <trkpt lat="47.583717" lon="2.2372105">
        <ele>186</ele>
        <time>2022-05-12T08:29:57Z</time>
      </trkpt>
      <trkpt lat="47.58371" lon="2.2372217">
        <ele>185</ele>
        <time>2022-05-12T08:29:58Z</time>
      </trkpt>
      <trkpt lat="47.5837" lon="2.2372332">
        <ele>185</ele>
        <time>2022-05-12T08:29:59Z</time>
      </trkpt>
      <trkpt lat="47.58369" lon="2.2372477">
        <ele>185</ele>
        <time>2022-05-12T08:30:00Z</time>
      </trkpt>
      <trkpt lat="47.583683" lon="2.2372613">
        <ele>186</ele>
        <time>2022-05-12T08:30:01Z</time>
      </trkpt>
      <trkpt lat="47.58368" lon="2.2372718">
        <ele>185</ele>
        <time>2022-05-12T08:30:02Z</time>
      </trkpt>
      <trkpt lat="47.583668" lon="2.2372837">
        <ele>185</ele>
        <time>2022-05-12T08:30:03Z</time>
      </trkpt>
      <trkpt lat="47.58366" lon="2.2372968">
        <ele>185</ele>
        <time>2022-05-12T08:30:04Z</time>
      </trkpt>
      <trkpt lat="47.583656" lon="2.2373078">
        <ele>185</ele>
        <time>2022-05-12T08:30:05Z</time>
      </trkpt>
      <trkpt lat="47.58365" lon="2.2373178">
        <ele>185</ele>
        <time>2022-05-12T08:30:06Z</time>
      </trkpt>
      <trkpt lat="47.583645" lon="2.23733">
        <ele>185</ele>
        <time>2022-05-12T08:30:07Z</time>
      </trkpt>
      <trkpt lat="47.583637" lon="2.237343">
        <ele>185</ele>
        <time>2022-05-12T08:30:08Z</time>
      </trkpt>
      <trkpt lat="47.58363" lon="2.2373562">
        <ele>185</ele>
        <time>2022-05-12T08:30:09Z</time>
      </trkpt>
      <trkpt lat="47.583622" lon="2.2373698">
        <ele>185</ele>
        <time>2022-05-12T08:30:10Z</time>
      </trkpt>
      <trkpt lat="47.58361" lon="2.2373848">
        <ele>185</ele>
        <time>2022-05-12T08:30:11Z</time>
      </trkpt>
      <trkpt lat="47.583603" lon="2.237397">
        <ele>185</ele>
        <time>2022-05-12T08:30:12Z</time>
      </trkpt>
      <trkpt lat="47.58359" lon="2.2374108">
        <ele>185</ele>
        <time>2022-05-12T08:30:13Z</time>
      </trkpt>
      <trkpt lat="47.58358" lon="2.2374241">
        <ele>185</ele>
        <time>2022-05-12T08:30:14Z</time>
      </trkpt>
      <trkpt lat="47.583572" lon="2.2374372">
        <ele>185</ele>
        <time>2022-05-12T08:30:15Z</time>
      </trkpt>
      <trkpt lat="47.583565" lon="2.2374504">
        <ele>185</ele>
        <time>2022-05-12T08:30:16Z</time>
      </trkpt>
      <trkpt lat="47.583557" lon="2.2374625">
        <ele>184</ele>
        <time>2022-05-12T08:30:17Z</time>
      </trkpt>
      <trkpt lat="47.583546" lon="2.2374752">
        <ele>184</ele>
        <time>2022-05-12T08:30:18Z</time>
      </trkpt>
      <trkpt lat="47.583538" lon="2.2374892">
        <ele>184</ele>
        <time>2022-05-12T08:30:19Z</time>
      </trkpt>
      <trkpt lat="47.58353" lon="2.2375045">
        <ele>184</ele>
        <time>2022-05-12T08:30:20Z</time>
      </trkpt>
      <trkpt lat="47.583523" lon="2.237526">
        <ele>184</ele>
        <time>2022-05-12T08:30:21Z</time>
      </trkpt>
      <trkpt lat="47.58351" lon="2.237539">
        <ele>184</ele>
        <time>2022-05-12T08:30:22Z</time>
      </trkpt>
      <trkpt lat="47.5835" lon="2.237552">
        <ele>183</ele>
        <time>2022-05-12T08:30:23Z</time>
      </trkpt>
      <trkpt lat="47.58349" lon="2.2375646">
        <ele>184</ele>
        <time>2022-05-12T08:30:24Z</time>
      </trkpt>
      <trkpt lat="47.58348" lon="2.237577">
        <ele>183</ele>
        <time>2022-05-12T08:30:25Z</time>
      </trkpt>
      <trkpt lat="47.58347" lon="2.2375898">
        <ele>183</ele>
        <time>2022-05-12T08:30:26Z</time>
      </trkpt>
      <trkpt lat="47.583466" lon="2.237601">
        <ele>183</ele>
        <time>2022-05-12T08:30:27Z</time>
      </trkpt>
      <trkpt lat="47.58346" lon="2.2376113">
        <ele>183</ele>
        <time>2022-05-12T08:30:28Z</time>
      </trkpt>
      <trkpt lat="47.583458" lon="2.2376223">
        <ele>183</ele>
        <time>2022-05-12T08:30:29Z</time>
      </trkpt>
      <trkpt lat="47.58345" lon="2.2376337">
        <ele>183</ele>
        <time>2022-05-12T08:30:30Z</time>
      </trkpt>
      <trkpt lat="47.583443" lon="2.2376485">
        <ele>183</ele>
        <time>2022-05-12T08:30:31Z</time>
      </trkpt>
      <trkpt lat="47.583435" lon="2.2376604">
        <ele>184</ele>
        <time>2022-05-12T08:30:32Z</time>
      </trkpt>
      <trkpt lat="47.583427" lon="2.2376728">
        <ele>184</ele>
        <time>2022-05-12T08:30:33Z</time>
      </trkpt>
      <trkpt lat="47.58342" lon="2.237684">
        <ele>184</ele>
        <time>2022-05-12T08:30:34Z</time>
      </trkpt>
      <trkpt lat="47.583412" lon="2.2376938">
        <ele>184</ele>
        <time>2022-05-12T08:30:35Z</time>
      </trkpt>
      <trkpt lat="47.5834" lon="2.2377076">
        <ele>184</ele>
        <time>2022-05-12T08:30:36Z</time>
      </trkpt>
      <trkpt lat="47.58339" lon="2.237719">
        <ele>183</ele>
        <time>2022-05-12T08:30:37Z</time>
      </trkpt>
      <trkpt lat="47.58338" lon="2.2377307">
        <ele>183</ele>
        <time>2022-05-12T08:30:38Z</time>
      </trkpt>
      <trkpt lat="47.583374" lon="2.2377465">
        <ele>184</ele>
        <time>2022-05-12T08:30:39Z</time>
      </trkpt>
      <trkpt lat="47.583363" lon="2.237762">
        <ele>184</ele>
        <time>2022-05-12T08:30:40Z</time>
      </trkpt>
      <trkpt lat="47.583355" lon="2.2377737">
        <ele>184</ele>
        <time>2022-05-12T08:30:41Z</time>
      </trkpt>
      <trkpt lat="47.58335" lon="2.2377858">
        <ele>184</ele>
        <time>2022-05-12T08:30:42Z</time>
      </trkpt>
      <trkpt lat="47.583344" lon="2.2377987">
        <ele>183</ele>
        <time>2022-05-12T08:30:43Z</time>
      </trkpt>
      <trkpt lat="47.583336" lon="2.237812">
        <ele>183</ele>
        <time>2022-05-12T08:30:44Z</time>
      </trkpt>
      <trkpt lat="47.583324" lon="2.2378228">
        <ele>183</ele>
        <time>2022-05-12T08:30:45Z</time>
      </trkpt>
      <trkpt lat="47.58332" lon="2.2378373">
        <ele>183</ele>
        <time>2022-05-12T08:30:46Z</time>
      </trkpt>
      <trkpt lat="47.58331" lon="2.2378523">
        <ele>183</ele>
        <time>2022-05-12T08:30:47Z</time>
      </trkpt>
      <trkpt lat="47.583298" lon="2.2378678">
        <ele>183</ele>
        <time>2022-05-12T08:30:48Z</time>
      </trkpt>
      <trkpt lat="47.58329" lon="2.2378812">
        <ele>182</ele>
        <time>2022-05-12T08:30:49Z</time>
      </trkpt>
      <trkpt lat="47.58328" lon="2.2378905">
        <ele>183</ele>
        <time>2022-05-12T08:30:50Z</time>
      </trkpt>
      <trkpt lat="47.583275" lon="2.2379">
        <ele>183</ele>
        <time>2022-05-12T08:30:51Z</time>
      </trkpt>
      <trkpt lat="47.583267" lon="2.2379086">
        <ele>183</ele>
        <time>2022-05-12T08:30:52Z</time>
      </trkpt>
      <trkpt lat="47.58326" lon="2.2379203">
        <ele>184</ele>
        <time>2022-05-12T08:30:53Z</time>
      </trkpt>
      <trkpt lat="47.583252" lon="2.2379317">
        <ele>183</ele>
        <time>2022-05-12T08:30:54Z</time>
      </trkpt>
      <trkpt lat="47.58324" lon="2.2379453">
        <ele>184</ele>
        <time>2022-05-12T08:30:55Z</time>
      </trkpt>
      <trkpt lat="47.583237" lon="2.2379582">
        <ele>183</ele>
        <time>2022-05-12T08:30:56Z</time>
      </trkpt>
      <trkpt lat="47.583237" lon="2.237972">
        <ele>183</ele>
        <time>2022-05-12T08:30:57Z</time>
      </trkpt>
      <trkpt lat="47.583225" lon="2.2379863">
        <ele>183</ele>
        <time>2022-05-12T08:30:58Z</time>
      </trkpt>
      <trkpt lat="47.58321" lon="2.238002">
        <ele>183</ele>
        <time>2022-05-12T08:30:59Z</time>
      </trkpt>
      <trkpt lat="47.583202" lon="2.2380152">
        <ele>182</ele>
        <time>2022-05-12T08:31:00Z</time>
      </trkpt>
      <trkpt lat="47.58319" lon="2.238028">
        <ele>182</ele>
        <time>2022-05-12T08:31:01Z</time>
      </trkpt>
      <trkpt lat="47.583183" lon="2.238041">
        <ele>183</ele>
        <time>2022-05-12T08:31:02Z</time>
      </trkpt>
      <trkpt lat="47.58318" lon="2.2380526">
        <ele>182</ele>
        <time>2022-05-12T08:31:03Z</time>
      </trkpt>
      <trkpt lat="47.583168" lon="2.23806">
        <ele>182</ele>
        <time>2022-05-12T08:31:04Z</time>
      </trkpt>
      <trkpt lat="47.58316" lon="2.2380726">
        <ele>182</ele>
        <time>2022-05-12T08:31:05Z</time>
      </trkpt>
      <trkpt lat="47.583153" lon="2.2380831">
        <ele>182</ele>
        <time>2022-05-12T08:31:06Z</time>
      </trkpt>
      <trkpt lat="47.583145" lon="2.2381">
        <ele>181</ele>
        <time>2022-05-12T08:31:07Z</time>
      </trkpt>
      <trkpt lat="47.583134" lon="2.2381165">
        <ele>182</ele>
        <time>2022-05-12T08:31:08Z</time>
      </trkpt>
      <trkpt lat="47.583126" lon="2.2381282">
        <ele>182</ele>
        <time>2022-05-12T08:31:09Z</time>
      </trkpt>
      <trkpt lat="47.583115" lon="2.2381432">
        <ele>182</ele>
        <time>2022-05-12T08:31:10Z</time>
      </trkpt>
      <trkpt lat="47.583107" lon="2.2381537">
        <ele>182</ele>
        <time>2022-05-12T08:31:11Z</time>
      </trkpt>
      <trkpt lat="47.583096" lon="2.238166">
        <ele>182</ele>
        <time>2022-05-12T08:31:12Z</time>
      </trkpt>
      <trkpt lat="47.583084" lon="2.2381783">
        <ele>182</ele>
        <time>2022-05-12T08:31:13Z</time>
      </trkpt>
      <trkpt lat="47.583076" lon="2.2381914">
        <ele>182</ele>
        <time>2022-05-12T08:31:14Z</time>
      </trkpt>
      <trkpt lat="47.58307" lon="2.2382014">
        <ele>182</ele>
        <time>2022-05-12T08:31:15Z</time>
      </trkpt>
      <trkpt lat="47.58306" lon="2.2382112">
        <ele>183</ele>
        <time>2022-05-12T08:31:16Z</time>
      </trkpt>
      <trkpt lat="47.583054" lon="2.2382278">
        <ele>183</ele>
        <time>2022-05-12T08:31:17Z</time>
      </trkpt>
      <trkpt lat="47.583046" lon="2.238247">
        <ele>182</ele>
        <time>2022-05-12T08:31:18Z</time>
      </trkpt>
      <trkpt lat="47.58304" lon="2.2382588">
        <ele>182</ele>
        <time>2022-05-12T08:31:19Z</time>
      </trkpt>
      <trkpt lat="47.583035" lon="2.2382736">
        <ele>182</ele>
        <time>2022-05-12T08:31:20Z</time>
      </trkpt>
      <trkpt lat="47.583027" lon="2.238288">
        <ele>182</ele>
        <time>2022-05-12T08:31:21Z</time>
      </trkpt>
      <trkpt lat="47.583023" lon="2.2383013">
        <ele>183</ele>
        <time>2022-05-12T08:31:22Z</time>
      </trkpt>
      <trkpt lat="47.58302" lon="2.2383122">
        <ele>182</ele>
        <time>2022-05-12T08:31:23Z</time>
      </trkpt>
      <trkpt lat="47.583015" lon="2.2383263">
        <ele>183</ele>
        <time>2022-05-12T08:31:24Z</time>
      </trkpt>
      <trkpt lat="47.58301" lon="2.238342">
        <ele>183</ele>
        <time>2022-05-12T08:31:25Z</time>
      </trkpt>
      <trkpt lat="47.583004" lon="2.2383533">
        <ele>183</ele>
        <time>2022-05-12T08:31:26Z</time>
      </trkpt>
      <trkpt lat="47.582996" lon="2.2383637">
        <ele>184</ele>
        <time>2022-05-12T08:31:27Z</time>
      </trkpt>
      <trkpt lat="47.58299" lon="2.2383752">
        <ele>184</ele>
        <time>2022-05-12T08:31:28Z</time>
      </trkpt>
      <trkpt lat="47.58298" lon="2.2383878">
        <ele>184</ele>
        <time>2022-05-12T08:31:29Z</time>
      </trkpt>
      <trkpt lat="47.58297" lon="2.2384026">
        <ele>184</ele>
        <time>2022-05-12T08:31:30Z</time>
      </trkpt>
      <trkpt lat="47.582962" lon="2.238417">
        <ele>184</ele>
        <time>2022-05-12T08:31:31Z</time>
      </trkpt>
      <trkpt lat="47.58295" lon="2.2384315">
        <ele>184</ele>
        <time>2022-05-12T08:31:32Z</time>
      </trkpt>
      <trkpt lat="47.58294" lon="2.2384424">
        <ele>184</ele>
        <time>2022-05-12T08:31:33Z</time>
      </trkpt>
      <trkpt lat="47.582935" lon="2.2384584">
        <ele>184</ele>
        <time>2022-05-12T08:31:34Z</time>
      </trkpt>
      <trkpt lat="47.58293" lon="2.238472">
        <ele>185</ele>
        <time>2022-05-12T08:31:35Z</time>
      </trkpt>
      <trkpt lat="47.582924" lon="2.2384815">
        <ele>185</ele>
        <time>2022-05-12T08:31:36Z</time>
      </trkpt>
      <trkpt lat="47.582916" lon="2.2384892">
        <ele>185</ele>
        <time>2022-05-12T08:31:37Z</time>
      </trkpt>
      <trkpt lat="47.58291" lon="2.2384996">
        <ele>185</ele>
        <time>2022-05-12T08:31:38Z</time>
      </trkpt>
      <trkpt lat="47.5829" lon="2.238514">
        <ele>184</ele>
        <time>2022-05-12T08:31:39Z</time>
      </trkpt>
      <trkpt lat="47.582897" lon="2.2385304">
        <ele>184</ele>
        <time>2022-05-12T08:31:40Z</time>
      </trkpt>
      <trkpt lat="47.582893" lon="2.2385464">
        <ele>183</ele>
        <time>2022-05-12T08:31:41Z</time>
      </trkpt>
      <trkpt lat="47.58289" lon="2.2385628">
        <ele>183</ele>
        <time>2022-05-12T08:31:42Z</time>
      </trkpt>
      <trkpt lat="47.582882" lon="2.238573">
        <ele>183</ele>
        <time>2022-05-12T08:31:43Z</time>
      </trkpt>
      <trkpt lat="47.58287" lon="2.2385802">
        <ele>183</ele>
        <time>2022-05-12T08:31:44Z</time>
      </trkpt>
      <trkpt lat="47.582855" lon="2.2385874">
        <ele>183</ele>
        <time>2022-05-12T08:31:45Z</time>
      </trkpt>
      <trkpt lat="47.582848" lon="2.2385972">
        <ele>183</ele>
        <time>2022-05-12T08:31:46Z</time>
      </trkpt>
      <trkpt lat="47.582836" lon="2.2386045">
        <ele>184</ele>
        <time>2022-05-12T08:31:47Z</time>
      </trkpt>
      <trkpt lat="47.58283" lon="2.2386189">
        <ele>183</ele>
        <time>2022-05-12T08:31:48Z</time>
      </trkpt>
      <trkpt lat="47.58282" lon="2.2386324">
        <ele>183</ele>
        <time>2022-05-12T08:31:49Z</time>
      </trkpt>
      <trkpt lat="47.582806" lon="2.2386448">
        <ele>184</ele>
        <time>2022-05-12T08:31:50Z</time>
      </trkpt>
      <trkpt lat="47.5828" lon="2.2386591">
        <ele>184</ele>
        <time>2022-05-12T08:31:51Z</time>
      </trkpt>
      <trkpt lat="47.58279" lon="2.238671">
        <ele>184</ele>
        <time>2022-05-12T08:31:52Z</time>
      </trkpt>
      <trkpt lat="47.582787" lon="2.2386823">
        <ele>183</ele>
        <time>2022-05-12T08:31:53Z</time>
      </trkpt>
      <trkpt lat="47.58278" lon="2.2386973">
        <ele>183</ele>
        <time>2022-05-12T08:31:54Z</time>
      </trkpt>
      <trkpt lat="47.58277" lon="2.2387128">
        <ele>183</ele>
        <time>2022-05-12T08:31:55Z</time>
      </trkpt>
      <trkpt lat="47.58277" lon="2.2387247">
        <ele>183</ele>
        <time>2022-05-12T08:31:56Z</time>
      </trkpt>
      <trkpt lat="47.582767" lon="2.2387347">
        <ele>182</ele>
        <time>2022-05-12T08:31:57Z</time>
      </trkpt>
      <trkpt lat="47.582764" lon="2.2387471">
        <ele>182</ele>
        <time>2022-05-12T08:31:58Z</time>
      </trkpt>
      <trkpt lat="47.582756" lon="2.2387562">
        <ele>182</ele>
        <time>2022-05-12T08:31:59Z</time>
      </trkpt>
      <trkpt lat="47.582745" lon="2.2387679">
        <ele>182</ele>
        <time>2022-05-12T08:32:00Z</time>
      </trkpt>
      <trkpt lat="47.58274" lon="2.2387795">
        <ele>182</ele>
        <time>2022-05-12T08:32:01Z</time>
      </trkpt>
      <trkpt lat="47.582737" lon="2.238795">
        <ele>183</ele>
        <time>2022-05-12T08:32:02Z</time>
      </trkpt>
      <trkpt lat="47.58273" lon="2.2388093">
        <ele>183</ele>
        <time>2022-05-12T08:32:03Z</time>
      </trkpt>
      <trkpt lat="47.582726" lon="2.2388284">
        <ele>183</ele>
        <time>2022-05-12T08:32:04Z</time>
      </trkpt>
      <trkpt lat="47.582718" lon="2.2388406">
        <ele>183</ele>
        <time>2022-05-12T08:32:05Z</time>
      </trkpt>
      <trkpt lat="47.582714" lon="2.2388504">
        <ele>184</ele>
        <time>2022-05-12T08:32:06Z</time>
      </trkpt>
      <trkpt lat="47.58271" lon="2.2388606">
        <ele>184</ele>
        <time>2022-05-12T08:32:07Z</time>
      </trkpt>
      <trkpt lat="47.5827" lon="2.2388716">
        <ele>185</ele>
        <time>2022-05-12T08:32:08Z</time>
      </trkpt>
      <trkpt lat="47.58269" lon="2.2388825">
        <ele>186</ele>
        <time>2022-05-12T08:32:09Z</time>
      </trkpt>
      <trkpt lat="47.582684" lon="2.2388935">
        <ele>186</ele>
        <time>2022-05-12T08:32:10Z</time>
      </trkpt>
      <trkpt lat="47.58268" lon="2.2389054">
        <ele>186</ele>
        <time>2022-05-12T08:32:11Z</time>
      </trkpt>
      <trkpt lat="47.58267" lon="2.2389157">
        <ele>186</ele>
        <time>2022-05-12T08:32:12Z</time>
      </trkpt>
      <trkpt lat="47.582657" lon="2.2389266">
        <ele>186</ele>
        <time>2022-05-12T08:32:13Z</time>
      </trkpt>
      <trkpt lat="47.582653" lon="2.23894">
        <ele>186</ele>
        <time>2022-05-12T08:32:14Z</time>
      </trkpt>
      <trkpt lat="47.582645" lon="2.2389493">
        <ele>186</ele>
        <time>2022-05-12T08:32:15Z</time>
      </trkpt>
      <trkpt lat="47.582638" lon="2.238961">
        <ele>186</ele>
        <time>2022-05-12T08:32:16Z</time>
      </trkpt>
      <trkpt lat="47.582626" lon="2.238972">
        <ele>187</ele>
        <time>2022-05-12T08:32:17Z</time>
      </trkpt>
      <trkpt lat="47.58262" lon="2.238985">
        <ele>186</ele>
        <time>2022-05-12T08:32:18Z</time>
      </trkpt>
      <trkpt lat="47.582607" lon="2.2389948">
        <ele>186</ele>
        <time>2022-05-12T08:32:19Z</time>
      </trkpt>
      <trkpt lat="47.582596" lon="2.2390049">
        <ele>187</ele>
        <time>2022-05-12T08:32:20Z</time>
      </trkpt>
      <trkpt lat="47.58259" lon="2.2390199">
        <ele>187</ele>
        <time>2022-05-12T08:32:21Z</time>
      </trkpt>
      <trkpt lat="47.582577" lon="2.23903">
        <ele>187</ele>
        <time>2022-05-12T08:32:22Z</time>
      </trkpt>
      <trkpt lat="47.582565" lon="2.2390432">
        <ele>187</ele>
        <time>2022-05-12T08:32:23Z</time>
      </trkpt>
      <trkpt lat="47.58256" lon="2.2390563">
        <ele>187</ele>
        <time>2022-05-12T08:32:24Z</time>
      </trkpt>
      <trkpt lat="47.582558" lon="2.2390673">
        <ele>187</ele>
        <time>2022-05-12T08:32:25Z</time>
      </trkpt>
      <trkpt lat="47.58255" lon="2.2390795">
        <ele>187</ele>
        <time>2022-05-12T08:32:26Z</time>
      </trkpt>
      <trkpt lat="47.582546" lon="2.2390902">
        <ele>187</ele>
        <time>2022-05-12T08:32:27Z</time>
      </trkpt>
      <trkpt lat="47.582542" lon="2.2391016">
        <ele>187</ele>
        <time>2022-05-12T08:32:28Z</time>
      </trkpt>
      <trkpt lat="47.58254" lon="2.2391162">
        <ele>187</ele>
        <time>2022-05-12T08:32:29Z</time>
      </trkpt>
      <trkpt lat="47.58253" lon="2.2391326">
        <ele>187</ele>
        <time>2022-05-12T08:32:30Z</time>
      </trkpt>
      <trkpt lat="47.58252" lon="2.2391448">
        <ele>186</ele>
        <time>2022-05-12T08:32:31Z</time>
      </trkpt>
      <trkpt lat="47.582504" lon="2.239157">
        <ele>186</ele>
        <time>2022-05-12T08:32:32Z</time>
      </trkpt>
      <trkpt lat="47.582493" lon="2.239166">
        <ele>187</ele>
        <time>2022-05-12T08:32:33Z</time>
      </trkpt>
      <trkpt lat="47.582485" lon="2.2391763">
        <ele>187</ele>
        <time>2022-05-12T08:32:34Z</time>
      </trkpt>
      <trkpt lat="47.582478" lon="2.2391832">
        <ele>188</ele>
        <time>2022-05-12T08:32:35Z</time>
      </trkpt>
      <trkpt lat="47.582466" lon="2.2391927">
        <ele>188</ele>
        <time>2022-05-12T08:32:36Z</time>
      </trkpt>
      <trkpt lat="47.582455" lon="2.2392006">
        <ele>188</ele>
        <time>2022-05-12T08:32:37Z</time>
      </trkpt>
      <trkpt lat="47.582443" lon="2.2392101">
        <ele>188</ele>
        <time>2022-05-12T08:32:38Z</time>
      </trkpt>
      <trkpt lat="47.582436" lon="2.2392178">
        <ele>189</ele>
        <time>2022-05-12T08:32:39Z</time>
      </trkpt>
      <trkpt lat="47.582424" lon="2.2392292">
        <ele>188</ele>
        <time>2022-05-12T08:32:40Z</time>
      </trkpt>
      <trkpt lat="47.582417" lon="2.2392392">
        <ele>188</ele>
        <time>2022-05-12T08:32:41Z</time>
      </trkpt>
      <trkpt lat="47.58241" lon="2.2392485">
        <ele>188</ele>
        <time>2022-05-12T08:32:42Z</time>
      </trkpt>
      <trkpt lat="47.5824" lon="2.2392626">
        <ele>188</ele>
        <time>2022-05-12T08:32:43Z</time>
      </trkpt>
      <trkpt lat="47.582394" lon="2.2392778">
        <ele>189</ele>
        <time>2022-05-12T08:32:44Z</time>
      </trkpt>
      <trkpt lat="47.58239" lon="2.239292">
        <ele>189</ele>
        <time>2022-05-12T08:32:45Z</time>
      </trkpt>
      <trkpt lat="47.582375" lon="2.2393024">
        <ele>189</ele>
        <time>2022-05-12T08:32:46Z</time>
      </trkpt>
      <trkpt lat="47.58236" lon="2.2393146">
        <ele>189</ele>
        <time>2022-05-12T08:32:47Z</time>
      </trkpt>
      <trkpt lat="47.582348" lon="2.2393274">
        <ele>189</ele>
        <time>2022-05-12T08:32:48Z</time>
      </trkpt>
      <trkpt lat="47.582336" lon="2.239338">
        <ele>188</ele>
        <time>2022-05-12T08:32:49Z</time>
      </trkpt>
      <trkpt lat="47.582317" lon="2.2393656">
        <ele>188</ele>
        <time>2022-05-12T08:32:51Z</time>
      </trkpt>
      <trkpt lat="47.582306" lon="2.2393756">
        <ele>189</ele>
        <time>2022-05-12T08:32:52Z</time>
      </trkpt>
      <trkpt lat="47.582294" lon="2.2393858">
        <ele>188</ele>
        <time>2022-05-12T08:32:53Z</time>
      </trkpt>
      <trkpt lat="47.582287" lon="2.2393942">
        <ele>188</ele>
        <time>2022-05-12T08:32:54Z</time>
      </trkpt>
      <trkpt lat="47.58228" lon="2.239403">
        <ele>187</ele>
        <time>2022-05-12T08:32:55Z</time>
      </trkpt>
      <trkpt lat="47.582268" lon="2.2394104">
        <ele>187</ele>
        <time>2022-05-12T08:32:56Z</time>
      </trkpt>
      <trkpt lat="47.58226" lon="2.23942">
        <ele>187</ele>
        <time>2022-05-12T08:32:57Z</time>
      </trkpt>
      <trkpt lat="47.58225" lon="2.2394304">
        <ele>187</ele>
        <time>2022-05-12T08:32:58Z</time>
      </trkpt>
      <trkpt lat="47.58224" lon="2.23944">
        <ele>187</ele>
        <time>2022-05-12T08:32:59Z</time>
      </trkpt>
      <trkpt lat="47.582233" lon="2.2394538">
        <ele>187</ele>
        <time>2022-05-12T08:33:00Z</time>
      </trkpt>
      <trkpt lat="47.582226" lon="2.239465">
        <ele>186</ele>
        <time>2022-05-12T08:33:01Z</time>
      </trkpt>
      <trkpt lat="47.58222" lon="2.239475">
        <ele>186</ele>
        <time>2022-05-12T08:33:02Z</time>
      </trkpt>
      <trkpt lat="47.582207" lon="2.2394817">
        <ele>186</ele>
        <time>2022-05-12T08:33:03Z</time>
      </trkpt>
      <trkpt lat="47.582195" lon="2.2394888">
        <ele>187</ele>
        <time>2022-05-12T08:33:04Z</time>
      </trkpt>
      <trkpt lat="47.582188" lon="2.2394986">
        <ele>186</ele>
        <time>2022-05-12T08:33:05Z</time>
      </trkpt>
      <trkpt lat="47.582176" lon="2.2395039">
        <ele>186</ele>
        <time>2022-05-12T08:33:06Z</time>
      </trkpt>
      <trkpt lat="47.582165" lon="2.2395108">
        <ele>187</ele>
        <time>2022-05-12T08:33:07Z</time>
      </trkpt>
      <trkpt lat="47.582153" lon="2.2395205">
        <ele>186</ele>
        <time>2022-05-12T08:33:08Z</time>
      </trkpt>
      <trkpt lat="47.582153" lon="2.2395205">
        <ele>186</ele>
        <time>2022-05-12T08:33:09Z</time>
      </trkpt>
      <trkpt lat="47.58214" lon="2.2395434">
        <ele>186</ele>
        <time>2022-05-12T08:33:10Z</time>
      </trkpt>
      <trkpt lat="47.582134" lon="2.2395601">
        <ele>186</ele>
        <time>2022-05-12T08:33:11Z</time>
      </trkpt>
      <trkpt lat="47.582123" lon="2.239572">
        <ele>187</ele>
        <time>2022-05-12T08:33:12Z</time>
      </trkpt>
      <trkpt lat="47.58211" lon="2.239583">
        <ele>187</ele>
        <time>2022-05-12T08:33:13Z</time>
      </trkpt>
      <trkpt lat="47.5821" lon="2.239595">
        <ele>187</ele>
        <time>2022-05-12T08:33:14Z</time>
      </trkpt>
      <trkpt lat="47.582085" lon="2.2396045">
        <ele>187</ele>
        <time>2022-05-12T08:33:15Z</time>
      </trkpt>
      <trkpt lat="47.582077" lon="2.2396176">
        <ele>187</ele>
        <time>2022-05-12T08:33:16Z</time>
      </trkpt>
      <trkpt lat="47.58207" lon="2.239633">
        <ele>187</ele>
        <time>2022-05-12T08:33:17Z</time>
      </trkpt>
      <trkpt lat="47.582058" lon="2.2396524">
        <ele>187</ele>
        <time>2022-05-12T08:33:18Z</time>
      </trkpt>
      <trkpt lat="47.58205" lon="2.2396708">
        <ele>187</ele>
        <time>2022-05-12T08:33:19Z</time>
      </trkpt>
      <trkpt lat="47.58204" lon="2.2396832">
        <ele>186</ele>
        <time>2022-05-12T08:33:20Z</time>
      </trkpt>
      <trkpt lat="47.582027" lon="2.2396944">
        <ele>186</ele>
        <time>2022-05-12T08:33:21Z</time>
      </trkpt>
      <trkpt lat="47.582016" lon="2.2397084">
        <ele>186</ele>
        <time>2022-05-12T08:33:22Z</time>
      </trkpt>
      <trkpt lat="47.58201" lon="2.2397218">
        <ele>186</ele>
        <time>2022-05-12T08:33:23Z</time>
      </trkpt>
      <trkpt lat="47.582" lon="2.2397351">
        <ele>186</ele>
        <time>2022-05-12T08:33:24Z</time>
      </trkpt>
      <trkpt lat="47.581993" lon="2.2397473">
        <ele>186</ele>
        <time>2022-05-12T08:33:25Z</time>
      </trkpt>
      <trkpt lat="47.58199" lon="2.2397559">
        <ele>186</ele>
        <time>2022-05-12T08:33:26Z</time>
      </trkpt>
      <trkpt lat="47.58198" lon="2.2397642">
        <ele>186</ele>
        <time>2022-05-12T08:33:27Z</time>
      </trkpt>
      <trkpt lat="47.581978" lon="2.2397723">
        <ele>186</ele>
        <time>2022-05-12T08:33:28Z</time>
      </trkpt>
      <trkpt lat="47.581974" lon="2.2397819">
        <ele>186</ele>
        <time>2022-05-12T08:33:29Z</time>
      </trkpt>
      <trkpt lat="47.581966" lon="2.2397923">
        <ele>186</ele>
        <time>2022-05-12T08:33:30Z</time>
      </trkpt>
      <trkpt lat="47.581955" lon="2.2398033">
        <ele>186</ele>
        <time>2022-05-12T08:33:31Z</time>
      </trkpt>
      <trkpt lat="47.58195" lon="2.239815">
        <ele>186</ele>
        <time>2022-05-12T08:33:32Z</time>
      </trkpt>
      <trkpt lat="47.581944" lon="2.2398286">
        <ele>186</ele>
        <time>2022-05-12T08:33:33Z</time>
      </trkpt>
      <trkpt lat="47.581936" lon="2.2398424">
        <ele>186</ele>
        <time>2022-05-12T08:33:34Z</time>
      </trkpt>
      <trkpt lat="47.58192" lon="2.2398612">
        <ele>186</ele>
        <time>2022-05-12T08:33:35Z</time>
      </trkpt>
      <trkpt lat="47.58191" lon="2.2398791">
        <ele>186</ele>
        <time>2022-05-12T08:33:36Z</time>
      </trkpt>
      <trkpt lat="47.581898" lon="2.2398934">
        <ele>187</ele>
        <time>2022-05-12T08:33:37Z</time>
      </trkpt>
      <trkpt lat="47.581882" lon="2.2399065">
        <ele>187</ele>
        <time>2022-05-12T08:33:38Z</time>
      </trkpt>
      <trkpt lat="47.58187" lon="2.2399154">
        <ele>188</ele>
        <time>2022-05-12T08:33:39Z</time>
      </trkpt>
      <trkpt lat="47.58186" lon="2.2399263">
        <ele>187</ele>
        <time>2022-05-12T08:33:40Z</time>
      </trkpt>
      <trkpt lat="47.581852" lon="2.239946">
        <ele>187</ele>
        <time>2022-05-12T08:33:41Z</time>
      </trkpt>
      <trkpt lat="47.58185" lon="2.2399588">
        <ele>186</ele>
        <time>2022-05-12T08:33:42Z</time>
      </trkpt>
      <trkpt lat="47.581844" lon="2.2399724">
        <ele>186</ele>
        <time>2022-05-12T08:33:43Z</time>
      </trkpt>
      <trkpt lat="47.581837" lon="2.2399876">
        <ele>186</ele>
        <time>2022-05-12T08:33:44Z</time>
      </trkpt>
      <trkpt lat="47.58183" lon="2.2400022">
        <ele>186</ele>
        <time>2022-05-12T08:33:45Z</time>
      </trkpt>
      <trkpt lat="47.58182" lon="2.2400172">
        <ele>186</ele>
        <time>2022-05-12T08:33:46Z</time>
      </trkpt>
      <trkpt lat="47.581814" lon="2.240033">
        <ele>186</ele>
        <time>2022-05-12T08:33:47Z</time>
      </trkpt>
      <trkpt lat="47.581806" lon="2.2400491">
        <ele>186</ele>
        <time>2022-05-12T08:33:48Z</time>
      </trkpt>
      <trkpt lat="47.581795" lon="2.240058">
        <ele>186</ele>
        <time>2022-05-12T08:33:49Z</time>
      </trkpt>
      <trkpt lat="47.581783" lon="2.2400737">
        <ele>186</ele>
        <time>2022-05-12T08:33:50Z</time>
      </trkpt>
      <trkpt lat="47.581776" lon="2.240087">
        <ele>185</ele>
        <time>2022-05-12T08:33:51Z</time>
      </trkpt>
      <trkpt lat="47.581768" lon="2.2401001">
        <ele>185</ele>
        <time>2022-05-12T08:33:52Z</time>
      </trkpt>
      <trkpt lat="47.58176" lon="2.240114">
        <ele>185</ele>
        <time>2022-05-12T08:33:53Z</time>
      </trkpt>
      <trkpt lat="47.581753" lon="2.2401261">
        <ele>186</ele>
        <time>2022-05-12T08:33:54Z</time>
      </trkpt>
      <trkpt lat="47.581745" lon="2.2401388">
        <ele>185</ele>
        <time>2022-05-12T08:33:55Z</time>
      </trkpt>
      <trkpt lat="47.581738" lon="2.2401507">
        <ele>186</ele>
        <time>2022-05-12T08:33:56Z</time>
      </trkpt>
      <trkpt lat="47.581734" lon="2.2401612">
        <ele>185</ele>
        <time>2022-05-12T08:33:57Z</time>
      </trkpt>
      <trkpt lat="47.581726" lon="2.2401733">
        <ele>185</ele>
        <time>2022-05-12T08:33:58Z</time>
      </trkpt>
      <trkpt lat="47.58171" lon="2.2401848">
        <ele>185</ele>
        <time>2022-05-12T08:33:59Z</time>
      </trkpt>
      <trkpt lat="47.581703" lon="2.240197">
        <ele>185</ele>
        <time>2022-05-12T08:34:00Z</time>
      </trkpt>
      <trkpt lat="47.581688" lon="2.2402055">
        <ele>185</ele>
        <time>2022-05-12T08:34:01Z</time>
      </trkpt>
      <trkpt lat="47.581676" lon="2.2402143">
        <ele>185</ele>
        <time>2022-05-12T08:34:02Z</time>
      </trkpt>
      <trkpt lat="47.58167" lon="2.2402234">
        <ele>185</ele>
        <time>2022-05-12T08:34:03Z</time>
      </trkpt>
      <trkpt lat="47.581654" lon="2.2402337">
        <ele>185</ele>
        <time>2022-05-12T08:34:04Z</time>
      </trkpt>
      <trkpt lat="47.581642" lon="2.2402446">
        <ele>185</ele>
        <time>2022-05-12T08:34:05Z</time>
      </trkpt>
      <trkpt lat="47.581627" lon="2.2402582">
        <ele>185</ele>
        <time>2022-05-12T08:34:06Z</time>
      </trkpt>
      <trkpt lat="47.581615" lon="2.2402735">
        <ele>186</ele>
        <time>2022-05-12T08:34:07Z</time>
      </trkpt>
      <trkpt lat="47.581604" lon="2.2402902">
        <ele>185</ele>
        <time>2022-05-12T08:34:08Z</time>
      </trkpt>
      <trkpt lat="47.581596" lon="2.240304">
        <ele>186</ele>
        <time>2022-05-12T08:34:09Z</time>
      </trkpt>
      <trkpt lat="47.58159" lon="2.2403173">
        <ele>186</ele>
        <time>2022-05-12T08:34:10Z</time>
      </trkpt>
      <trkpt lat="47.58158" lon="2.2403264">
        <ele>186</ele>
        <time>2022-05-12T08:34:11Z</time>
      </trkpt>
      <trkpt lat="47.581573" lon="2.2403345">
        <ele>186</ele>
        <time>2022-05-12T08:34:12Z</time>
      </trkpt>
      <trkpt lat="47.581562" lon="2.2403457">
        <ele>187</ele>
        <time>2022-05-12T08:34:13Z</time>
      </trkpt>
      <trkpt lat="47.581554" lon="2.2403579">
        <ele>187</ele>
        <time>2022-05-12T08:34:14Z</time>
      </trkpt>
      <trkpt lat="47.581547" lon="2.2403717">
        <ele>187</ele>
        <time>2022-05-12T08:34:15Z</time>
      </trkpt>
      <trkpt lat="47.58154" lon="2.2403834">
        <ele>188</ele>
        <time>2022-05-12T08:34:16Z</time>
      </trkpt>
      <trkpt lat="47.581528" lon="2.2403927">
        <ele>188</ele>
        <time>2022-05-12T08:34:17Z</time>
      </trkpt>
      <trkpt lat="47.58152" lon="2.2404008">
        <ele>188</ele>
        <time>2022-05-12T08:34:18Z</time>
      </trkpt>
      <trkpt lat="47.581512" lon="2.2404099">
        <ele>188</ele>
        <time>2022-05-12T08:34:19Z</time>
      </trkpt>
      <trkpt lat="47.581505" lon="2.240421">
        <ele>188</ele>
        <time>2022-05-12T08:34:20Z</time>
      </trkpt>
      <trkpt lat="47.581497" lon="2.2404346">
        <ele>188</ele>
        <time>2022-05-12T08:34:21Z</time>
      </trkpt>
      <trkpt lat="47.581482" lon="2.2404466">
        <ele>188</ele>
        <time>2022-05-12T08:34:22Z</time>
      </trkpt>
      <trkpt lat="47.581467" lon="2.2404559">
        <ele>188</ele>
        <time>2022-05-12T08:34:23Z</time>
      </trkpt>
      <trkpt lat="47.58145" lon="2.2404704">
        <ele>188</ele>
        <time>2022-05-12T08:34:24Z</time>
      </trkpt>
      <trkpt lat="47.58144" lon="2.240484">
        <ele>189</ele>
        <time>2022-05-12T08:34:25Z</time>
      </trkpt>
      <trkpt lat="47.58143" lon="2.2404957">
        <ele>188</ele>
        <time>2022-05-12T08:34:26Z</time>
      </trkpt>
      <trkpt lat="47.581417" lon="2.240508">
        <ele>188</ele>
        <time>2022-05-12T08:34:27Z</time>
      </trkpt>
      <trkpt lat="47.581406" lon="2.2405257">
        <ele>188</ele>
        <time>2022-05-12T08:34:28Z</time>
      </trkpt>
      <trkpt lat="47.581398" lon="2.2405427">
        <ele>188</ele>
        <time>2022-05-12T08:34:29Z</time>
      </trkpt>
      <trkpt lat="47.581387" lon="2.2405589">
        <ele>189</ele>
        <time>2022-05-12T08:34:30Z</time>
      </trkpt>
      <trkpt lat="47.58138" lon="2.2405713">
        <ele>189</ele>
        <time>2022-05-12T08:34:31Z</time>
      </trkpt>
      <trkpt lat="47.581367" lon="2.2405806">
        <ele>190</ele>
        <time>2022-05-12T08:34:32Z</time>
      </trkpt>
      <trkpt lat="47.581356" lon="2.2405891">
        <ele>189</ele>
        <time>2022-05-12T08:34:33Z</time>
      </trkpt>
      <trkpt lat="47.58135" lon="2.2406042">
        <ele>189</ele>
        <time>2022-05-12T08:34:34Z</time>
      </trkpt>
      <trkpt lat="47.58134" lon="2.2406182">
        <ele>189</ele>
        <time>2022-05-12T08:34:35Z</time>
      </trkpt>
      <trkpt lat="47.581333" lon="2.240631">
        <ele>189</ele>
        <time>2022-05-12T08:34:36Z</time>
      </trkpt>
      <trkpt lat="47.581326" lon="2.2406435">
        <ele>189</ele>
        <time>2022-05-12T08:34:37Z</time>
      </trkpt>
      <trkpt lat="47.581318" lon="2.2406492">
        <ele>189</ele>
        <time>2022-05-12T08:34:38Z</time>
      </trkpt>
      <trkpt lat="47.581314" lon="2.2406504">
        <ele>189</ele>
        <time>2022-05-12T08:34:39Z</time>
      </trkpt>
      <trkpt lat="47.581306" lon="2.2406576">
        <ele>188</ele>
        <time>2022-05-12T08:34:40Z</time>
      </trkpt>
      <trkpt lat="47.581295" lon="2.2406685">
        <ele>188</ele>
        <time>2022-05-12T08:34:41Z</time>
      </trkpt>
      <trkpt lat="47.58129" lon="2.2406812">
        <ele>188</ele>
        <time>2022-05-12T08:34:42Z</time>
      </trkpt>
      <trkpt lat="47.581284" lon="2.240693">
        <ele>188</ele>
        <time>2022-05-12T08:34:43Z</time>
      </trkpt>
      <trkpt lat="47.581272" lon="2.240702">
        <ele>188</ele>
        <time>2022-05-12T08:34:44Z</time>
      </trkpt>
      <trkpt lat="47.581264" lon="2.240717">
        <ele>188</ele>
        <time>2022-05-12T08:34:45Z</time>
      </trkpt>
      <trkpt lat="47.58126" lon="2.2407303">
        <ele>188</ele>
        <time>2022-05-12T08:34:46Z</time>
      </trkpt>
      <trkpt lat="47.58126" lon="2.240744">
        <ele>187</ele>
        <time>2022-05-12T08:34:47Z</time>
      </trkpt>
      <trkpt lat="47.581257" lon="2.240757">
        <ele>187</ele>
        <time>2022-05-12T08:34:48Z</time>
      </trkpt>
      <trkpt lat="47.581253" lon="2.240769">
        <ele>187</ele>
        <time>2022-05-12T08:34:49Z</time>
      </trkpt>
      <trkpt lat="47.58124" lon="2.2407758">
        <ele>188</ele>
        <time>2022-05-12T08:34:50Z</time>
      </trkpt>
      <trkpt lat="47.581226" lon="2.2407854">
        <ele>188</ele>
        <time>2022-05-12T08:34:51Z</time>
      </trkpt>
      <trkpt lat="47.58122" lon="2.2408018">
        <ele>188</ele>
        <time>2022-05-12T08:34:52Z</time>
      </trkpt>
      <trkpt lat="47.581207" lon="2.2408159">
        <ele>188</ele>
        <time>2022-05-12T08:34:53Z</time>
      </trkpt>
      <trkpt lat="47.5812" lon="2.2408285">
        <ele>188</ele>
        <time>2022-05-12T08:34:54Z</time>
      </trkpt>
      <trkpt lat="47.581184" lon="2.2408397">
        <ele>189</ele>
        <time>2022-05-12T08:34:55Z</time>
      </trkpt>
      <trkpt lat="47.581177" lon="2.2408519">
        <ele>188</ele>
        <time>2022-05-12T08:34:56Z</time>
      </trkpt>
      <trkpt lat="47.58117" lon="2.2408628">
        <ele>188</ele>
        <time>2022-05-12T08:34:57Z</time>
      </trkpt>
      <trkpt lat="47.581165" lon="2.240877">
        <ele>189</ele>
        <time>2022-05-12T08:34:58Z</time>
      </trkpt>
      <trkpt lat="47.581154" lon="2.240893">
        <ele>189</ele>
        <time>2022-05-12T08:34:59Z</time>
      </trkpt>
      <trkpt lat="47.581142" lon="2.2409062">
        <ele>189</ele>
        <time>2022-05-12T08:35:00Z</time>
      </trkpt>
      <trkpt lat="47.581142" lon="2.2409062">
        <ele>189</ele>
        <time>2022-05-12T08:35:00Z</time>
      </trkpt>
      <trkpt lat="47.581123" lon="2.24093">
        <ele>189</ele>
        <time>2022-05-12T08:35:02Z</time>
      </trkpt>
      <trkpt lat="47.581116" lon="2.2409399">
        <ele>190</ele>
        <time>2022-05-12T08:35:03Z</time>
      </trkpt>
      <trkpt lat="47.581112" lon="2.2409449">
        <ele>190</ele>
        <time>2022-05-12T08:35:04Z</time>
      </trkpt>
      <trkpt lat="47.581104" lon="2.2409499">
        <ele>190</ele>
        <time>2022-05-12T08:35:05Z</time>
      </trkpt>
      <trkpt lat="47.581097" lon="2.2409544">
        <ele>189</ele>
        <time>2022-05-12T08:35:06Z</time>
      </trkpt>
      <trkpt lat="47.58109" lon="2.240963">
        <ele>190</ele>
        <time>2022-05-12T08:35:07Z</time>
      </trkpt>
      <trkpt lat="47.581078" lon="2.240972">
        <ele>189</ele>
        <time>2022-05-12T08:35:08Z</time>
      </trkpt>
      <trkpt lat="47.581066" lon="2.2409844">
        <ele>189</ele>
        <time>2022-05-12T08:35:09Z</time>
      </trkpt>
      <trkpt lat="47.581055" lon="2.2409978">
        <ele>189</ele>
        <time>2022-05-12T08:35:10Z</time>
      </trkpt>
      <trkpt lat="47.581047" lon="2.241008">
        <ele>189</ele>
        <time>2022-05-12T08:35:11Z</time>
      </trkpt>
      <trkpt lat="47.581036" lon="2.241019">
        <ele>189</ele>
        <time>2022-05-12T08:35:12Z</time>
      </trkpt>
      <trkpt lat="47.581024" lon="2.2410288">
        <ele>189</ele>
        <time>2022-05-12T08:35:13Z</time>
      </trkpt>
      <trkpt lat="47.581017" lon="2.2410388">
        <ele>189</ele>
        <time>2022-05-12T08:35:14Z</time>
      </trkpt>
      <trkpt lat="47.581005" lon="2.2410426">
        <ele>189</ele>
        <time>2022-05-12T08:35:15Z</time>
      </trkpt>
      <trkpt lat="47.58099" lon="2.2410522">
        <ele>189</ele>
        <time>2022-05-12T08:35:16Z</time>
      </trkpt>
      <trkpt lat="47.58098" lon="2.2410634">
        <ele>189</ele>
        <time>2022-05-12T08:35:17Z</time>
      </trkpt>
      <trkpt lat="47.580967" lon="2.2410774">
        <ele>189</ele>
        <time>2022-05-12T08:35:18Z</time>
      </trkpt>
      <trkpt lat="47.580956" lon="2.2410886">
        <ele>189</ele>
        <time>2022-05-12T08:35:19Z</time>
      </trkpt>
      <trkpt lat="47.580944" lon="2.2410989">
        <ele>189</ele>
        <time>2022-05-12T08:35:20Z</time>
      </trkpt>
      <trkpt lat="47.580933" lon="2.2411113">
        <ele>189</ele>
        <time>2022-05-12T08:35:21Z</time>
      </trkpt>
      <trkpt lat="47.58093" lon="2.2411253">
        <ele>189</ele>
        <time>2022-05-12T08:35:22Z</time>
      </trkpt>
      <trkpt lat="47.580917" lon="2.2411382">
        <ele>188</ele>
        <time>2022-05-12T08:35:23Z</time>
      </trkpt>
      <trkpt lat="47.58091" lon="2.2411516">
        <ele>188</ele>
        <time>2022-05-12T08:35:24Z</time>
      </trkpt>
      <trkpt lat="47.580902" lon="2.2411668">
        <ele>188</ele>
        <time>2022-05-12T08:35:25Z</time>
      </trkpt>
      <trkpt lat="47.580894" lon="2.2411819">
        <ele>188</ele>
        <time>2022-05-12T08:35:26Z</time>
      </trkpt>
      <trkpt lat="47.580887" lon="2.2411935">
        <ele>188</ele>
        <time>2022-05-12T08:35:27Z</time>
      </trkpt>
      <trkpt lat="47.58088" lon="2.2411988">
        <ele>188</ele>
        <time>2022-05-12T08:35:28Z</time>
      </trkpt>
      <trkpt lat="47.58087" lon="2.2412024">
        <ele>189</ele>
        <time>2022-05-12T08:35:29Z</time>
      </trkpt>
      <trkpt lat="47.580868" lon="2.2412086">
        <ele>189</ele>
        <time>2022-05-12T08:35:30Z</time>
      </trkpt>
      <trkpt lat="47.58086" lon="2.2412112">
        <ele>189</ele>
        <time>2022-05-12T08:35:31Z</time>
      </trkpt>
      <trkpt lat="47.580853" lon="2.2412171">
        <ele>189</ele>
        <time>2022-05-12T08:35:32Z</time>
      </trkpt>
      <trkpt lat="47.58085" lon="2.2412262">
        <ele>189</ele>
        <time>2022-05-12T08:35:33Z</time>
      </trkpt>
      <trkpt lat="47.58084" lon="2.2412353">
        <ele>189</ele>
        <time>2022-05-12T08:35:34Z</time>
      </trkpt>
      <trkpt lat="47.580833" lon="2.2412446">
        <ele>190</ele>
        <time>2022-05-12T08:35:35Z</time>
      </trkpt>
      <trkpt lat="47.580826" lon="2.2412543">
        <ele>191</ele>
        <time>2022-05-12T08:35:36Z</time>
      </trkpt>
      <trkpt lat="47.580814" lon="2.241263">
        <ele>191</ele>
        <time>2022-05-12T08:35:37Z</time>
      </trkpt>
      <trkpt lat="47.580807" lon="2.241278">
        <ele>191</ele>
        <time>2022-05-12T08:35:38Z</time>
      </trkpt>
      <trkpt lat="47.580795" lon="2.2412903">
        <ele>191</ele>
        <time>2022-05-12T08:35:39Z</time>
      </trkpt>
      <trkpt lat="47.580788" lon="2.2413013">
        <ele>191</ele>
        <time>2022-05-12T08:35:40Z</time>
      </trkpt>
      <trkpt lat="47.580776" lon="2.2413125">
        <ele>191</ele>
        <time>2022-05-12T08:35:41Z</time>
      </trkpt>
      <trkpt lat="47.58077" lon="2.2413247">
        <ele>192</ele>
        <time>2022-05-12T08:35:42Z</time>
      </trkpt>
      <trkpt lat="47.580757" lon="2.2413394">
        <ele>192</ele>
        <time>2022-05-12T08:35:43Z</time>
      </trkpt>
      <trkpt lat="47.580753" lon="2.2413518">
        <ele>192</ele>
        <time>2022-05-12T08:35:44Z</time>
      </trkpt>
      <trkpt lat="47.58075" lon="2.2413597">
        <ele>192</ele>
        <time>2022-05-12T08:35:45Z</time>
      </trkpt>
      <trkpt lat="47.580746" lon="2.2413738">
        <ele>192</ele>
        <time>2022-05-12T08:35:46Z</time>
      </trkpt>
      <trkpt lat="47.580738" lon="2.2413895">
        <ele>192</ele>
        <time>2022-05-12T08:35:47Z</time>
      </trkpt>
      <trkpt lat="47.58073" lon="2.241405">
        <ele>192</ele>
        <time>2022-05-12T08:35:48Z</time>
      </trkpt>
      <trkpt lat="47.580727" lon="2.2414231">
        <ele>192</ele>
        <time>2022-05-12T08:35:49Z</time>
      </trkpt>
      <trkpt lat="47.580727" lon="2.2414358">
        <ele>192</ele>
        <time>2022-05-12T08:35:50Z</time>
      </trkpt>
      <trkpt lat="47.580727" lon="2.2414477">
        <ele>192</ele>
        <time>2022-05-12T08:35:51Z</time>
      </trkpt>
      <trkpt lat="47.580727" lon="2.2414598">
        <ele>192</ele>
        <time>2022-05-12T08:35:52Z</time>
      </trkpt>
      <trkpt lat="47.580727" lon="2.24147">
        <ele>192</ele>
        <time>2022-05-12T08:35:53Z</time>
      </trkpt>
      <trkpt lat="47.58073" lon="2.2414834">
        <ele>192</ele>
        <time>2022-05-12T08:35:54Z</time>
      </trkpt>
      <trkpt lat="47.58073" lon="2.2414966">
        <ele>192</ele>
        <time>2022-05-12T08:35:55Z</time>
      </trkpt>
      <trkpt lat="47.58073" lon="2.2415133">
        <ele>192</ele>
        <time>2022-05-12T08:35:56Z</time>
      </trkpt>
      <trkpt lat="47.58073" lon="2.2415318">
        <ele>192</ele>
        <time>2022-05-12T08:35:57Z</time>
      </trkpt>
      <trkpt lat="47.58073" lon="2.2415526">
        <ele>192</ele>
        <time>2022-05-12T08:35:58Z</time>
      </trkpt>
      <trkpt lat="47.58073" lon="2.241571">
        <ele>191</ele>
        <time>2022-05-12T08:35:59Z</time>
      </trkpt>
      <trkpt lat="47.580727" lon="2.2415824">
        <ele>191</ele>
        <time>2022-05-12T08:36:00Z</time>
      </trkpt>
      <trkpt lat="47.580727" lon="2.2415938">
        <ele>192</ele>
        <time>2022-05-12T08:36:01Z</time>
      </trkpt>
      <trkpt lat="47.580723" lon="2.2416093">
        <ele>192</ele>
        <time>2022-05-12T08:36:02Z</time>
      </trkpt>
      <trkpt lat="47.58072" lon="2.241623">
        <ele>192</ele>
        <time>2022-05-12T08:36:03Z</time>
      </trkpt>
      <trkpt lat="47.580715" lon="2.2416368">
        <ele>192</ele>
        <time>2022-05-12T08:36:04Z</time>
      </trkpt>
      <trkpt lat="47.58071" lon="2.2416518">
        <ele>192</ele>
        <time>2022-05-12T08:36:05Z</time>
      </trkpt>
      <trkpt lat="47.580708" lon="2.2416644">
        <ele>192</ele>
        <time>2022-05-12T08:36:06Z</time>
      </trkpt>
      <trkpt lat="47.580704" lon="2.2416735">
        <ele>192</ele>
        <time>2022-05-12T08:36:07Z</time>
      </trkpt>
      <trkpt lat="47.580696" lon="2.2416854">
        <ele>192</ele>
        <time>2022-05-12T08:36:08Z</time>
      </trkpt>
      <trkpt lat="47.580692" lon="2.2416964">
        <ele>192</ele>
        <time>2022-05-12T08:36:09Z</time>
      </trkpt>
      <trkpt lat="47.58069" lon="2.2417114">
        <ele>192</ele>
        <time>2022-05-12T08:36:10Z</time>
      </trkpt>
      <trkpt lat="47.58069" lon="2.2417216">
        <ele>193</ele>
        <time>2022-05-12T08:36:11Z</time>
      </trkpt>
      <trkpt lat="47.580685" lon="2.2417338">
        <ele>193</ele>
        <time>2022-05-12T08:36:12Z</time>
      </trkpt>
      <trkpt lat="47.58068" lon="2.2417464">
        <ele>193</ele>
        <time>2022-05-12T08:36:13Z</time>
      </trkpt>
      <trkpt lat="47.58068" lon="2.2417622">
        <ele>193</ele>
        <time>2022-05-12T08:36:14Z</time>
      </trkpt>
      <trkpt lat="47.580677" lon="2.2417784">
        <ele>193</ele>
        <time>2022-05-12T08:36:15Z</time>
      </trkpt>
      <trkpt lat="47.580677" lon="2.2417958">
        <ele>192</ele>
        <time>2022-05-12T08:36:16Z</time>
      </trkpt>
      <trkpt lat="47.580677" lon="2.2418113">
        <ele>191</ele>
        <time>2022-05-12T08:36:17Z</time>
      </trkpt>
      <trkpt lat="47.580677" lon="2.2418303">
        <ele>191</ele>
        <time>2022-05-12T08:36:18Z</time>
      </trkpt>
      <trkpt lat="47.580677" lon="2.241846">
        <ele>191</ele>
        <time>2022-05-12T08:36:19Z</time>
      </trkpt>
      <trkpt lat="47.580677" lon="2.2418587">
        <ele>191</ele>
        <time>2022-05-12T08:36:20Z</time>
      </trkpt>
      <trkpt lat="47.580677" lon="2.241875">
        <ele>190</ele>
        <time>2022-05-12T08:36:21Z</time>
      </trkpt>
      <trkpt lat="47.580677" lon="2.2418904">
        <ele>190</ele>
        <time>2022-05-12T08:36:22Z</time>
      </trkpt>
      <trkpt lat="47.580673" lon="2.241909">
        <ele>190</ele>
        <time>2022-05-12T08:36:23Z</time>
      </trkpt>
      <trkpt lat="47.580673" lon="2.2419288">
        <ele>190</ele>
        <time>2022-05-12T08:36:24Z</time>
      </trkpt>
      <trkpt lat="47.580673" lon="2.2419438">
        <ele>190</ele>
        <time>2022-05-12T08:36:25Z</time>
      </trkpt>
      <trkpt lat="47.580673" lon="2.241962">
        <ele>190</ele>
        <time>2022-05-12T08:36:26Z</time>
      </trkpt>
      <trkpt lat="47.580673" lon="2.2419808">
        <ele>190</ele>
        <time>2022-05-12T08:36:27Z</time>
      </trkpt>
      <trkpt lat="47.58067" lon="2.2420008">
        <ele>189</ele>
        <time>2022-05-12T08:36:28Z</time>
      </trkpt>
      <trkpt lat="47.58067" lon="2.2420228">
        <ele>188</ele>
        <time>2022-05-12T08:36:29Z</time>
      </trkpt>
      <trkpt lat="47.58066" lon="2.2420404">
        <ele>188</ele>
        <time>2022-05-12T08:36:30Z</time>
      </trkpt>
      <trkpt lat="47.580666" lon="2.242056">
        <ele>189</ele>
        <time>2022-05-12T08:36:31Z</time>
      </trkpt>
      <trkpt lat="47.58067" lon="2.2420688">
        <ele>189</ele>
        <time>2022-05-12T08:36:32Z</time>
      </trkpt>
      <trkpt lat="47.58067" lon="2.242087">
        <ele>189</ele>
        <time>2022-05-12T08:36:33Z</time>
      </trkpt>
      <trkpt lat="47.580673" lon="2.2421017">
        <ele>189</ele>
        <time>2022-05-12T08:36:34Z</time>
      </trkpt>
      <trkpt lat="47.580677" lon="2.2421143">
        <ele>190</ele>
        <time>2022-05-12T08:36:35Z</time>
      </trkpt>
      <trkpt lat="47.58068" lon="2.2421205">
        <ele>192</ele>
        <time>2022-05-12T08:36:36Z</time>
      </trkpt>
      <trkpt lat="47.580685" lon="2.2421324">
        <ele>192</ele>
        <time>2022-05-12T08:36:37Z</time>
      </trkpt>
      <trkpt lat="47.58069" lon="2.2421455">
        <ele>192</ele>
        <time>2022-05-12T08:36:38Z</time>
      </trkpt>
      <trkpt lat="47.580692" lon="2.2421594">
        <ele>192</ele>
        <time>2022-05-12T08:36:39Z</time>
      </trkpt>
      <trkpt lat="47.580692" lon="2.2421784">
        <ele>191</ele>
        <time>2022-05-12T08:36:40Z</time>
      </trkpt>
      <trkpt lat="47.580696" lon="2.2421966">
        <ele>191</ele>
        <time>2022-05-12T08:36:41Z</time>
      </trkpt>
      <trkpt lat="47.580704" lon="2.2422094">
        <ele>191</ele>
        <time>2022-05-12T08:36:42Z</time>
      </trkpt>
      <trkpt lat="47.58071" lon="2.2422254">
        <ele>191</ele>
        <time>2022-05-12T08:36:43Z</time>
      </trkpt>
      <trkpt lat="47.58072" lon="2.24224">
        <ele>191</ele>
        <time>2022-05-12T08:36:44Z</time>
      </trkpt>
      <trkpt lat="47.580723" lon="2.2422552">
        <ele>191</ele>
        <time>2022-05-12T08:36:45Z</time>
      </trkpt>
      <trkpt lat="47.580727" lon="2.242276">
        <ele>190</ele>
        <time>2022-05-12T08:36:46Z</time>
      </trkpt>
      <trkpt lat="47.58073" lon="2.2422867">
        <ele>191</ele>
        <time>2022-05-12T08:36:47Z</time>
      </trkpt>
      <trkpt lat="47.580738" lon="2.2422986">
        <ele>191</ele>
        <time>2022-05-12T08:36:48Z</time>
      </trkpt>
      <trkpt lat="47.58074" lon="2.242314">
        <ele>191</ele>
        <time>2022-05-12T08:36:49Z</time>
      </trkpt>
      <trkpt lat="47.58075" lon="2.2423272">
        <ele>191</ele>
        <time>2022-05-12T08:36:50Z</time>
      </trkpt>
      <trkpt lat="47.580753" lon="2.2423394">
        <ele>191</ele>
        <time>2022-05-12T08:36:51Z</time>
      </trkpt>
      <trkpt lat="47.580753" lon="2.2423546">
        <ele>191</ele>
        <time>2022-05-12T08:36:52Z</time>
      </trkpt>
      <trkpt lat="47.580757" lon="2.2423666">
        <ele>192</ele>
        <time>2022-05-12T08:36:53Z</time>
      </trkpt>
      <trkpt lat="47.580765" lon="2.242383">
        <ele>192</ele>
        <time>2022-05-12T08:36:54Z</time>
      </trkpt>
      <trkpt lat="47.580772" lon="2.2423954">
        <ele>192</ele>
        <time>2022-05-12T08:36:55Z</time>
      </trkpt>
      <trkpt lat="47.58078" lon="2.2424076">
        <ele>193</ele>
        <time>2022-05-12T08:36:56Z</time>
      </trkpt>
      <trkpt lat="47.580788" lon="2.2424204">
        <ele>193</ele>
        <time>2022-05-12T08:36:57Z</time>
      </trkpt>
      <trkpt lat="47.580795" lon="2.2424324">
        <ele>193</ele>
        <time>2022-05-12T08:36:58Z</time>
      </trkpt>
      <trkpt lat="47.5808" lon="2.2424457">
        <ele>193</ele>
        <time>2022-05-12T08:36:59Z</time>
      </trkpt>
      <trkpt lat="47.580807" lon="2.242461">
        <ele>193</ele>
        <time>2022-05-12T08:37:00Z</time>
      </trkpt>
      <trkpt lat="47.580814" lon="2.242472">
        <ele>193</ele>
        <time>2022-05-12T08:37:01Z</time>
      </trkpt>
      <trkpt lat="47.580822" lon="2.242483">
        <ele>193</ele>
        <time>2022-05-12T08:37:02Z</time>
      </trkpt>
      <trkpt lat="47.580822" lon="2.2424934">
        <ele>193</ele>
        <time>2022-05-12T08:37:03Z</time>
      </trkpt>
      <trkpt lat="47.58083" lon="2.2425003">
        <ele>194</ele>
        <time>2022-05-12T08:37:04Z</time>
      </trkpt>
      <trkpt lat="47.580837" lon="2.24251">
        <ele>194</ele>
        <time>2022-05-12T08:37:05Z</time>
      </trkpt>
      <trkpt lat="47.580845" lon="2.2425225">
        <ele>194</ele>
        <time>2022-05-12T08:37:06Z</time>
      </trkpt>
      <trkpt lat="47.580853" lon="2.24253">
        <ele>194</ele>
        <time>2022-05-12T08:37:07Z</time>
      </trkpt>
      <trkpt lat="47.580856" lon="2.242538">
        <ele>194</ele>
        <time>2022-05-12T08:37:08Z</time>
      </trkpt>
      <trkpt lat="47.580864" lon="2.2425487">
        <ele>194</ele>
        <time>2022-05-12T08:37:09Z</time>
      </trkpt>
      <trkpt lat="47.580868" lon="2.2425578">
        <ele>194</ele>
        <time>2022-05-12T08:37:10Z</time>
      </trkpt>
      <trkpt lat="47.58087" lon="2.2425694">
        <ele>194</ele>
        <time>2022-05-12T08:37:11Z</time>
      </trkpt>
      <trkpt lat="47.580875" lon="2.2425814">
        <ele>193</ele>
        <time>2022-05-12T08:37:12Z</time>
      </trkpt>
      <trkpt lat="47.58088" lon="2.2425952">
        <ele>194</ele>
        <time>2022-05-12T08:37:13Z</time>
      </trkpt>
      <trkpt lat="47.580883" lon="2.2426124">
        <ele>194</ele>
        <time>2022-05-12T08:37:14Z</time>
      </trkpt>
      <trkpt lat="47.580887" lon="2.2426229">
        <ele>194</ele>
        <time>2022-05-12T08:37:15Z</time>
      </trkpt>
      <trkpt lat="47.58089" lon="2.2426345">
        <ele>195</ele>
        <time>2022-05-12T08:37:16Z</time>
      </trkpt>
      <trkpt lat="47.580894" lon="2.2426476">
        <ele>194</ele>
        <time>2022-05-12T08:37:17Z</time>
      </trkpt>
      <trkpt lat="47.580902" lon="2.2426617">
        <ele>194</ele>
        <time>2022-05-12T08:37:18Z</time>
      </trkpt>
      <trkpt lat="47.580906" lon="2.2426732">
        <ele>194</ele>
        <time>2022-05-12T08:37:19Z</time>
      </trkpt>
      <trkpt lat="47.580914" lon="2.2426882">
        <ele>194</ele>
        <time>2022-05-12T08:37:20Z</time>
      </trkpt>
      <trkpt lat="47.580917" lon="2.2426984">
        <ele>194</ele>
        <time>2022-05-12T08:37:21Z</time>
      </trkpt>
      <trkpt lat="47.58093" lon="2.2427104">
        <ele>194</ele>
        <time>2022-05-12T08:37:22Z</time>
      </trkpt>
      <trkpt lat="47.580933" lon="2.2427275">
        <ele>194</ele>
        <time>2022-05-12T08:37:23Z</time>
      </trkpt>
      <trkpt lat="47.580936" lon="2.242741">
        <ele>194</ele>
        <time>2022-05-12T08:37:24Z</time>
      </trkpt>
      <trkpt lat="47.580944" lon="2.2427506">
        <ele>193</ele>
        <time>2022-05-12T08:37:25Z</time>
      </trkpt>
      <trkpt lat="47.58095" lon="2.2427642">
        <ele>194</ele>
        <time>2022-05-12T08:37:26Z</time>
      </trkpt>
      <trkpt lat="47.58095" lon="2.242777">
        <ele>194</ele>
        <time>2022-05-12T08:37:27Z</time>
      </trkpt>
      <trkpt lat="47.58096" lon="2.2427871">
        <ele>194</ele>
        <time>2022-05-12T08:37:28Z</time>
      </trkpt>
      <trkpt lat="47.58096" lon="2.2427995">
        <ele>194</ele>
        <time>2022-05-12T08:37:29Z</time>
      </trkpt>
      <trkpt lat="47.580967" lon="2.2428112">
        <ele>194</ele>
        <time>2022-05-12T08:37:30Z</time>
      </trkpt>
      <trkpt lat="47.58097" lon="2.2428262">
        <ele>194</ele>
        <time>2022-05-12T08:37:31Z</time>
      </trkpt>
      <trkpt lat="47.580975" lon="2.2428408">
        <ele>194</ele>
        <time>2022-05-12T08:37:32Z</time>
      </trkpt>
      <trkpt lat="47.580982" lon="2.2428572">
        <ele>195</ele>
        <time>2022-05-12T08:37:33Z</time>
      </trkpt>
      <trkpt lat="47.58099" lon="2.2428722">
        <ele>194</ele>
        <time>2022-05-12T08:37:34Z</time>
      </trkpt>
      <trkpt lat="47.581" lon="2.2428877">
        <ele>194</ele>
        <time>2022-05-12T08:37:35Z</time>
      </trkpt>
      <trkpt lat="47.58101" lon="2.2428977">
        <ele>194</ele>
        <time>2022-05-12T08:37:36Z</time>
      </trkpt>
      <trkpt lat="47.581013" lon="2.2429125">
        <ele>194</ele>
        <time>2022-05-12T08:37:37Z</time>
      </trkpt>
      <trkpt lat="47.581017" lon="2.2429223">
        <ele>195</ele>
        <time>2022-05-12T08:37:38Z</time>
      </trkpt>
      <trkpt lat="47.581024" lon="2.2429328">
        <ele>195</ele>
        <time>2022-05-12T08:37:39Z</time>
      </trkpt>
      <trkpt lat="47.581036" lon="2.2429428">
        <ele>195</ele>
        <time>2022-05-12T08:37:40Z</time>
      </trkpt>
      <trkpt lat="47.581043" lon="2.2429485">
        <ele>195</ele>
        <time>2022-05-12T08:37:41Z</time>
      </trkpt>
      <trkpt lat="47.58105" lon="2.2429597">
        <ele>195</ele>
        <time>2022-05-12T08:37:42Z</time>
      </trkpt>
      <trkpt lat="47.58106" lon="2.2429738">
        <ele>195</ele>
        <time>2022-05-12T08:37:43Z</time>
      </trkpt>
      <trkpt lat="47.581062" lon="2.242984">
        <ele>195</ele>
        <time>2022-05-12T08:37:44Z</time>
      </trkpt>
      <trkpt lat="47.58107" lon="2.2429917">
        <ele>195</ele>
        <time>2022-05-12T08:37:45Z</time>
      </trkpt>
      <trkpt lat="47.581078" lon="2.243">
        <ele>196</ele>
        <time>2022-05-12T08:37:46Z</time>
      </trkpt>
      <trkpt lat="47.581085" lon="2.2430053">
        <ele>196</ele>
        <time>2022-05-12T08:37:47Z</time>
      </trkpt>
      <trkpt lat="47.58109" lon="2.2430186">
        <ele>195</ele>
        <time>2022-05-12T08:37:48Z</time>
      </trkpt>
      <trkpt lat="47.58109" lon="2.2430325">
        <ele>195</ele>
        <time>2022-05-12T08:37:49Z</time>
      </trkpt>
      <trkpt lat="47.58109" lon="2.2430325">
        <ele>195</ele>
        <time>2022-05-12T08:37:50Z</time>
      </trkpt>
      <trkpt lat="47.58109" lon="2.2430325">
        <ele>195</ele>
        <time>2022-05-12T08:37:51Z</time>
      </trkpt>
      <trkpt lat="47.5811" lon="2.2430608">
        <ele>195</ele>
        <time>2022-05-12T08:37:52Z</time>
      </trkpt>
      <trkpt lat="47.581104" lon="2.2430725">
        <ele>195</ele>
        <time>2022-05-12T08:37:53Z</time>
      </trkpt>
      <trkpt lat="47.58111" lon="2.243085">
        <ele>195</ele>
        <time>2022-05-12T08:37:54Z</time>
      </trkpt>
      <trkpt lat="47.581112" lon="2.2430992">
        <ele>196</ele>
        <time>2022-05-12T08:37:55Z</time>
      </trkpt>
      <trkpt lat="47.581112" lon="2.243111">
        <ele>196</ele>
        <time>2022-05-12T08:37:56Z</time>
      </trkpt>
      <trkpt lat="47.581112" lon="2.243111">
        <ele>196</ele>
        <time>2022-05-12T08:37:57Z</time>
      </trkpt>
      <trkpt lat="47.581112" lon="2.243111">
        <ele>196</ele>
        <time>2022-05-12T08:37:58Z</time>
      </trkpt>
      <trkpt lat="47.581127" lon="2.2431405">
        <ele>196</ele>
        <time>2022-05-12T08:37:59Z</time>
      </trkpt>
      <trkpt lat="47.58113" lon="2.2431526">
        <ele>197</ele>
        <time>2022-05-12T08:38:00Z</time>
      </trkpt>
      <trkpt lat="47.581135" lon="2.2431648">
        <ele>197</ele>
        <time>2022-05-12T08:38:01Z</time>
      </trkpt>
      <trkpt lat="47.58114" lon="2.2431808">
        <ele>197</ele>
        <time>2022-05-12T08:38:02Z</time>
      </trkpt>
      <trkpt lat="47.58114" lon="2.2431984">
        <ele>197</ele>
        <time>2022-05-12T08:38:03Z</time>
      </trkpt>
      <trkpt lat="47.58114" lon="2.2432165">
        <ele>198</ele>
        <time>2022-05-12T08:38:04Z</time>
      </trkpt>
      <trkpt lat="47.58114" lon="2.2432165">
        <ele>198</ele>
        <time>2022-05-12T08:38:05Z</time>
      </trkpt>
      <trkpt lat="47.58114" lon="2.2432165">
        <ele>198</ele>
        <time>2022-05-12T08:38:06Z</time>
      </trkpt>
      <trkpt lat="47.581158" lon="2.2432523">
        <ele>198</ele>
        <time>2022-05-12T08:38:07Z</time>
      </trkpt>
      <trkpt lat="47.581165" lon="2.2432668">
        <ele>199</ele>
        <time>2022-05-12T08:38:08Z</time>
      </trkpt>
      <trkpt lat="47.581173" lon="2.2432876">
        <ele>198</ele>
        <time>2022-05-12T08:38:09Z</time>
      </trkpt>
      <trkpt lat="47.581184" lon="2.2433014">
        <ele>199</ele>
        <time>2022-05-12T08:38:10Z</time>
      </trkpt>
      <trkpt lat="47.58119" lon="2.2433138">
        <ele>198</ele>
        <time>2022-05-12T08:38:11Z</time>
      </trkpt>
      <trkpt lat="47.581196" lon="2.2433267">
        <ele>198</ele>
        <time>2022-05-12T08:38:12Z</time>
      </trkpt>
      <trkpt lat="47.5812" lon="2.2433453">
        <ele>197</ele>
        <time>2022-05-12T08:38:13Z</time>
      </trkpt>
      <trkpt lat="47.5812" lon="2.243366">
        <ele>197</ele>
        <time>2022-05-12T08:38:14Z</time>
      </trkpt>
      <trkpt lat="47.5812" lon="2.2433825">
        <ele>197</ele>
        <time>2022-05-12T08:38:15Z</time>
      </trkpt>
      <trkpt lat="47.5812" lon="2.243396">
        <ele>197</ele>
        <time>2022-05-12T08:38:16Z</time>
      </trkpt>
      <trkpt lat="47.5812" lon="2.243396">
        <ele>197</ele>
        <time>2022-05-12T08:38:17Z</time>
      </trkpt>
      <trkpt lat="47.5812" lon="2.243396">
        <ele>197</ele>
        <time>2022-05-12T08:38:18Z</time>
      </trkpt>
      <trkpt lat="47.581215" lon="2.243429">
        <ele>198</ele>
        <time>2022-05-12T08:38:19Z</time>
      </trkpt>
      <trkpt lat="47.58122" lon="2.2434413">
        <ele>198</ele>
        <time>2022-05-12T08:38:20Z</time>
      </trkpt>
      <trkpt lat="47.581223" lon="2.2434485">
        <ele>198</ele>
        <time>2022-05-12T08:38:21Z</time>
      </trkpt>
      <trkpt lat="47.58123" lon="2.2434587">
        <ele>198</ele>
        <time>2022-05-12T08:38:22Z</time>
      </trkpt>
      <trkpt lat="47.58124" lon="2.243471">
        <ele>198</ele>
        <time>2022-05-12T08:38:23Z</time>
      </trkpt>
      <trkpt lat="47.581253" lon="2.2434888">
        <ele>197</ele>
        <time>2022-05-12T08:38:24Z</time>
      </trkpt>
      <trkpt lat="47.581264" lon="2.2435038">
        <ele>197</ele>
        <time>2022-05-12T08:38:25Z</time>
      </trkpt>
      <trkpt lat="47.58127" lon="2.2435112">
        <ele>197</ele>
        <time>2022-05-12T08:38:26Z</time>
      </trkpt>
      <trkpt lat="47.58128" lon="2.243517">
        <ele>197</ele>
        <time>2022-05-12T08:38:27Z</time>
      </trkpt>
      <trkpt lat="47.581284" lon="2.243528">
        <ele>197</ele>
        <time>2022-05-12T08:38:28Z</time>
      </trkpt>
      <trkpt lat="47.581287" lon="2.2435427">
        <ele>196</ele>
        <time>2022-05-12T08:38:29Z</time>
      </trkpt>
      <trkpt lat="47.581295" lon="2.2435553">
        <ele>196</ele>
        <time>2022-05-12T08:38:30Z</time>
      </trkpt>
      <trkpt lat="47.581306" lon="2.2435734">
        <ele>196</ele>
        <time>2022-05-12T08:38:31Z</time>
      </trkpt>
      <trkpt lat="47.581314" lon="2.2435896">
        <ele>196</ele>
        <time>2022-05-12T08:38:32Z</time>
      </trkpt>
      <trkpt lat="47.58132" lon="2.2436004">
        <ele>197</ele>
        <time>2022-05-12T08:38:33Z</time>
      </trkpt>
      <trkpt lat="47.58133" lon="2.2436156">
        <ele>197</ele>
        <time>2022-05-12T08:38:34Z</time>
      </trkpt>
      <trkpt lat="47.58134" lon="2.2436283">
        <ele>198</ele>
        <time>2022-05-12T08:38:35Z</time>
      </trkpt>
      <trkpt lat="47.58135" lon="2.2436416">
        <ele>198</ele>
        <time>2022-05-12T08:38:36Z</time>
      </trkpt>
      <trkpt lat="47.58136" lon="2.243652">
        <ele>198</ele>
        <time>2022-05-12T08:38:37Z</time>
      </trkpt>
      <trkpt lat="47.58137" lon="2.2436638">
        <ele>198</ele>
        <time>2022-05-12T08:38:38Z</time>
      </trkpt>
      <trkpt lat="47.58138" lon="2.2436738">
        <ele>198</ele>
        <time>2022-05-12T08:38:39Z</time>
      </trkpt>
      <trkpt lat="47.581387" lon="2.2436838">
        <ele>198</ele>
        <time>2022-05-12T08:38:40Z</time>
      </trkpt>
      <trkpt lat="47.581394" lon="2.2436903">
        <ele>198</ele>
        <time>2022-05-12T08:38:41Z</time>
      </trkpt>
      <trkpt lat="47.581406" lon="2.2437027">
        <ele>198</ele>
        <time>2022-05-12T08:38:42Z</time>
      </trkpt>
      <trkpt lat="47.581417" lon="2.2437153">
        <ele>198</ele>
        <time>2022-05-12T08:38:43Z</time>
      </trkpt>
      <trkpt lat="47.581425" lon="2.2437296">
        <ele>198</ele>
        <time>2022-05-12T08:38:44Z</time>
      </trkpt>
      <trkpt lat="47.581432" lon="2.2437453">
        <ele>197</ele>
        <time>2022-05-12T08:38:45Z</time>
      </trkpt>
      <trkpt lat="47.581444" lon="2.2437577">
        <ele>197</ele>
        <time>2022-05-12T08:38:46Z</time>
      </trkpt>
      <trkpt lat="47.58145" lon="2.2437665">
        <ele>198</ele>
        <time>2022-05-12T08:38:47Z</time>
      </trkpt>
      <trkpt lat="47.58146" lon="2.2437754">
        <ele>198</ele>
        <time>2022-05-12T08:38:48Z</time>
      </trkpt>
      <trkpt lat="47.581467" lon="2.2437866">
        <ele>198</ele>
        <time>2022-05-12T08:38:49Z</time>
      </trkpt>
      <trkpt lat="47.581474" lon="2.2438023">
        <ele>198</ele>
        <time>2022-05-12T08:38:50Z</time>
      </trkpt>
      <trkpt lat="47.581486" lon="2.243819">
        <ele>198</ele>
        <time>2022-05-12T08:38:51Z</time>
      </trkpt>
      <trkpt lat="47.58149" lon="2.2438302">
        <ele>199</ele>
        <time>2022-05-12T08:38:52Z</time>
      </trkpt>
      <trkpt lat="47.581497" lon="2.2438407">
        <ele>199</ele>
        <time>2022-05-12T08:38:53Z</time>
      </trkpt>
      <trkpt lat="47.5815" lon="2.2438576">
        <ele>199</ele>
        <time>2022-05-12T08:38:54Z</time>
      </trkpt>
      <trkpt lat="47.581505" lon="2.243867">
        <ele>199</ele>
        <time>2022-05-12T08:38:55Z</time>
      </trkpt>
      <trkpt lat="47.58151" lon="2.2438798">
        <ele>199</ele>
        <time>2022-05-12T08:38:56Z</time>
      </trkpt>
      <trkpt lat="47.581516" lon="2.2438905">
        <ele>199</ele>
        <time>2022-05-12T08:38:57Z</time>
      </trkpt>
      <trkpt lat="47.581524" lon="2.243899">
        <ele>198</ele>
        <time>2022-05-12T08:38:58Z</time>
      </trkpt>
      <trkpt lat="47.581528" lon="2.2439127">
        <ele>198</ele>
        <time>2022-05-12T08:38:59Z</time>
      </trkpt>
      <trkpt lat="47.58153" lon="2.2439194">
        <ele>197</ele>
        <time>2022-05-12T08:39:00Z</time>
      </trkpt>
      <trkpt lat="47.581543" lon="2.2439337">
        <ele>197</ele>
        <time>2022-05-12T08:39:01Z</time>
      </trkpt>
      <trkpt lat="47.58155" lon="2.2439485">
        <ele>197</ele>
        <time>2022-05-12T08:39:02Z</time>
      </trkpt>
      <trkpt lat="47.581554" lon="2.2439635">
        <ele>197</ele>
        <time>2022-05-12T08:39:03Z</time>
      </trkpt>
      <trkpt lat="47.581566" lon="2.2439733">
        <ele>197</ele>
        <time>2022-05-12T08:39:04Z</time>
      </trkpt>
      <trkpt lat="47.58157" lon="2.2439835">
        <ele>197</ele>
        <time>2022-05-12T08:39:05Z</time>
      </trkpt>
      <trkpt lat="47.58158" lon="2.2439914">
        <ele>197</ele>
        <time>2022-05-12T08:39:06Z</time>
      </trkpt>
      <trkpt lat="47.58159" lon="2.244004">
        <ele>197</ele>
        <time>2022-05-12T08:39:07Z</time>
      </trkpt>
      <trkpt lat="47.581593" lon="2.2440145">
        <ele>196</ele>
        <time>2022-05-12T08:39:08Z</time>
      </trkpt>
      <trkpt lat="47.581596" lon="2.2440228">
        <ele>196</ele>
        <time>2022-05-12T08:39:09Z</time>
      </trkpt>
      <trkpt lat="47.581604" lon="2.24403">
        <ele>196</ele>
        <time>2022-05-12T08:39:10Z</time>
      </trkpt>
      <trkpt lat="47.58161" lon="2.244037">
        <ele>195</ele>
        <time>2022-05-12T08:39:11Z</time>
      </trkpt>
      <trkpt lat="47.581615" lon="2.244046">
        <ele>195</ele>
        <time>2022-05-12T08:39:12Z</time>
      </trkpt>
      <trkpt lat="47.58162" lon="2.244057">
        <ele>195</ele>
        <time>2022-05-12T08:39:13Z</time>
      </trkpt>
      <trkpt lat="47.581623" lon="2.244067">
        <ele>194</ele>
        <time>2022-05-12T08:39:14Z</time>
      </trkpt>
      <trkpt lat="47.58163" lon="2.2440794">
        <ele>194</ele>
        <time>2022-05-12T08:39:15Z</time>
      </trkpt>
      <trkpt lat="47.581635" lon="2.244092">
        <ele>194</ele>
        <time>2022-05-12T08:39:16Z</time>
      </trkpt>
      <trkpt lat="47.58164" lon="2.2441049">
        <ele>194</ele>
        <time>2022-05-12T08:39:17Z</time>
      </trkpt>
      <trkpt lat="47.58165" lon="2.2441144">
        <ele>195</ele>
        <time>2022-05-12T08:39:18Z</time>
      </trkpt>
      <trkpt lat="47.581654" lon="2.244125">
        <ele>195</ele>
        <time>2022-05-12T08:39:19Z</time>
      </trkpt>
      <trkpt lat="47.58166" lon="2.244132">
        <ele>195</ele>
        <time>2022-05-12T08:39:20Z</time>
      </trkpt>
      <trkpt lat="47.58166" lon="2.2441416">
        <ele>195</ele>
        <time>2022-05-12T08:39:21Z</time>
      </trkpt>
      <trkpt lat="47.581673" lon="2.2441475">
        <ele>195</ele>
        <time>2022-05-12T08:39:22Z</time>
      </trkpt>
      <trkpt lat="47.58168" lon="2.2441554">
        <ele>195</ele>
        <time>2022-05-12T08:39:23Z</time>
      </trkpt>
      <trkpt lat="47.581684" lon="2.2441673">
        <ele>195</ele>
        <time>2022-05-12T08:39:24Z</time>
      </trkpt>
      <trkpt lat="47.58169" lon="2.2441792">
        <ele>195</ele>
        <time>2022-05-12T08:39:25Z</time>
      </trkpt>
      <trkpt lat="47.581703" lon="2.2441955">
        <ele>196</ele>
        <time>2022-05-12T08:39:26Z</time>
      </trkpt>
      <trkpt lat="47.58171" lon="2.2442064">
        <ele>196</ele>
        <time>2022-05-12T08:39:27Z</time>
      </trkpt>
      <trkpt lat="47.58172" lon="2.2442198">
        <ele>197</ele>
        <time>2022-05-12T08:39:28Z</time>
      </trkpt>
      <trkpt lat="47.58173" lon="2.244229">
        <ele>197</ele>
        <time>2022-05-12T08:39:29Z</time>
      </trkpt>
      <trkpt lat="47.581738" lon="2.2442398">
        <ele>197</ele>
        <time>2022-05-12T08:39:30Z</time>
      </trkpt>
      <trkpt lat="47.58175" lon="2.2442517">
        <ele>198</ele>
        <time>2022-05-12T08:39:31Z</time>
      </trkpt>
      <trkpt lat="47.581753" lon="2.2442694">
        <ele>197</ele>
        <time>2022-05-12T08:39:32Z</time>
      </trkpt>
      <trkpt lat="47.581757" lon="2.2442815">
        <ele>197</ele>
        <time>2022-05-12T08:39:33Z</time>
      </trkpt>
      <trkpt lat="47.58176" lon="2.2442944">
        <ele>197</ele>
        <time>2022-05-12T08:39:34Z</time>
      </trkpt>
      <trkpt lat="47.581768" lon="2.2443035">
        <ele>198</ele>
        <time>2022-05-12T08:39:35Z</time>
      </trkpt>
      <trkpt lat="47.581776" lon="2.2443123">
        <ele>198</ele>
        <time>2022-05-12T08:39:36Z</time>
      </trkpt>
      <trkpt lat="47.581783" lon="2.2443228">
        <ele>198</ele>
        <time>2022-05-12T08:39:37Z</time>
      </trkpt>
      <trkpt lat="47.58179" lon="2.2443316">
        <ele>198</ele>
        <time>2022-05-12T08:39:38Z</time>
      </trkpt>
      <trkpt lat="47.5818" lon="2.2443426">
        <ele>198</ele>
        <time>2022-05-12T08:39:39Z</time>
      </trkpt>
      <trkpt lat="47.581806" lon="2.244357">
        <ele>198</ele>
        <time>2022-05-12T08:39:40Z</time>
      </trkpt>
      <trkpt lat="47.581806" lon="2.244371">
        <ele>197</ele>
        <time>2022-05-12T08:39:41Z</time>
      </trkpt>
      <trkpt lat="47.58181" lon="2.2443812">
        <ele>197</ele>
        <time>2022-05-12T08:39:42Z</time>
      </trkpt>
      <trkpt lat="47.581818" lon="2.2443953">
        <ele>197</ele>
        <time>2022-05-12T08:39:43Z</time>
      </trkpt>
      <trkpt lat="47.58182" lon="2.244409">
        <ele>196</ele>
        <time>2022-05-12T08:39:44Z</time>
      </trkpt>
      <trkpt lat="47.581833" lon="2.2444208">
        <ele>197</ele>
        <time>2022-05-12T08:39:45Z</time>
      </trkpt>
      <trkpt lat="47.58184" lon="2.2444358">
        <ele>196</ele>
        <time>2022-05-12T08:39:46Z</time>
      </trkpt>
      <trkpt lat="47.581844" lon="2.2444468">
        <ele>196</ele>
        <time>2022-05-12T08:39:47Z</time>
      </trkpt>
      <trkpt lat="47.581856" lon="2.2444587">
        <ele>196</ele>
        <time>2022-05-12T08:39:48Z</time>
      </trkpt>
      <trkpt lat="47.58186" lon="2.2444723">
        <ele>196</ele>
        <time>2022-05-12T08:39:49Z</time>
      </trkpt>
      <trkpt lat="47.581863" lon="2.2444878">
        <ele>196</ele>
        <time>2022-05-12T08:39:50Z</time>
      </trkpt>
      <trkpt lat="47.581875" lon="2.2445006">
        <ele>197</ele>
        <time>2022-05-12T08:39:51Z</time>
      </trkpt>
      <trkpt lat="47.581886" lon="2.2445135">
        <ele>198</ele>
        <time>2022-05-12T08:39:52Z</time>
      </trkpt>
      <trkpt lat="47.58189" lon="2.2445257">
        <ele>198</ele>
        <time>2022-05-12T08:39:53Z</time>
      </trkpt>
      <trkpt lat="47.5819" lon="2.2445374">
        <ele>198</ele>
        <time>2022-05-12T08:39:54Z</time>
      </trkpt>
      <trkpt lat="47.581905" lon="2.2445467">
        <ele>198</ele>
        <time>2022-05-12T08:39:55Z</time>
      </trkpt>
      <trkpt lat="47.581913" lon="2.2445564">
        <ele>198</ele>
        <time>2022-05-12T08:39:56Z</time>
      </trkpt>
      <trkpt lat="47.58192" lon="2.2445664">
        <ele>198</ele>
        <time>2022-05-12T08:39:57Z</time>
      </trkpt>
      <trkpt lat="47.581932" lon="2.244574">
        <ele>198</ele>
        <time>2022-05-12T08:39:58Z</time>
      </trkpt>
      <trkpt lat="47.581944" lon="2.2445824">
        <ele>198</ele>
        <time>2022-05-12T08:39:59Z</time>
      </trkpt>
      <trkpt lat="47.58195" lon="2.2445943">
        <ele>198</ele>
        <time>2022-05-12T08:40:00Z</time>
      </trkpt>
      <trkpt lat="47.581955" lon="2.2445996">
        <ele>198</ele>
        <time>2022-05-12T08:40:01Z</time>
      </trkpt>
      <trkpt lat="47.581955" lon="2.2446055">
        <ele>198</ele>
        <time>2022-05-12T08:40:02Z</time>
      </trkpt>
      <trkpt lat="47.581955" lon="2.2446055">
        <ele>198</ele>
        <time>2022-05-12T08:40:03Z</time>
      </trkpt>
      <trkpt lat="47.58195" lon="2.2446032">
        <ele>198</ele>
        <time>2022-05-12T08:40:04Z</time>
      </trkpt>
      <trkpt lat="47.581955" lon="2.2446053">
        <ele>197</ele>
        <time>2022-05-12T08:40:05Z</time>
      </trkpt>
      <trkpt lat="47.581955" lon="2.2446053">
        <ele>197</ele>
        <time>2022-05-12T08:40:05Z</time>
      </trkpt>
      <trkpt lat="47.581955" lon="2.2446053">
        <ele>197</ele>
        <time>2022-05-12T08:40:05Z</time>
      </trkpt>
      <trkpt lat="47.581978" lon="2.2446957">
        <ele>196</ele>
        <time>2022-05-12T08:40:23Z</time>
      </trkpt>
      <trkpt lat="47.581978" lon="2.244696">
        <ele>196</ele>
        <time>2022-05-12T08:40:24Z</time>
      </trkpt>
      <trkpt lat="47.581978" lon="2.2446964">
        <ele>196</ele>
        <time>2022-05-12T08:40:25Z</time>
      </trkpt>
      <trkpt lat="47.581978" lon="2.2446964">
        <ele>196</ele>
        <time>2022-05-12T08:40:25Z</time>
      </trkpt>
      <trkpt lat="47.581978" lon="2.2446964">
        <ele>196</ele>
        <time>2022-05-12T08:40:25Z</time>
      </trkpt>
      <trkpt lat="47.581955" lon="2.2447507">
        <ele>197</ele>
        <time>2022-05-12T08:40:34Z</time>
      </trkpt>
      <trkpt lat="47.581944" lon="2.2447581">
        <ele>197</ele>
        <time>2022-05-12T08:40:35Z</time>
      </trkpt>
      <trkpt lat="47.581944" lon="2.2447588">
        <ele>197</ele>
        <time>2022-05-12T08:40:36Z</time>
      </trkpt>
      <trkpt lat="47.581944" lon="2.2447586">
        <ele>197</ele>
        <time>2022-05-12T08:40:37Z</time>
      </trkpt>
      <trkpt lat="47.581944" lon="2.244749">
        <ele>196</ele>
        <time>2022-05-12T08:40:38Z</time>
      </trkpt>
      <trkpt lat="47.58194" lon="2.2447462">
        <ele>197</ele>
        <time>2022-05-12T08:40:39Z</time>
      </trkpt>
      <trkpt lat="47.581932" lon="2.2447526">
        <ele>196</ele>
        <time>2022-05-12T08:40:40Z</time>
      </trkpt>
      <trkpt lat="47.58192" lon="2.2447581">
        <ele>196</ele>
        <time>2022-05-12T08:40:41Z</time>
      </trkpt>
      <trkpt lat="47.581913" lon="2.244767">
        <ele>195</ele>
        <time>2022-05-12T08:40:42Z</time>
      </trkpt>
      <trkpt lat="47.581913" lon="2.2447689">
        <ele>195</ele>
        <time>2022-05-12T08:40:43Z</time>
      </trkpt>
      <trkpt lat="47.581905" lon="2.2447693">
        <ele>195</ele>
        <time>2022-05-12T08:40:44Z</time>
      </trkpt>
      <trkpt lat="47.581905" lon="2.2447693">
        <ele>195</ele>
        <time>2022-05-12T08:40:44Z</time>
      </trkpt>
      <trkpt lat="47.581905" lon="2.2447693">
        <ele>195</ele>
        <time>2022-05-12T08:40:44Z</time>
      </trkpt>
      <trkpt lat="47.581917" lon="2.244803">
        <ele>191</ele>
        <time>2022-05-12T08:41:56Z</time>
      </trkpt>
      <trkpt lat="47.581917" lon="2.2448068">
        <ele>191</ele>
        <time>2022-05-12T08:41:57Z</time>
      </trkpt>
      <trkpt lat="47.581917" lon="2.2448068">
        <ele>191</ele>
        <time>2022-05-12T08:41:58Z</time>
      </trkpt>
      <trkpt lat="47.581917" lon="2.2448068">
        <ele>191</ele>
        <time>2022-05-12T08:41:58Z</time>
      </trkpt>
      <trkpt lat="47.581917" lon="2.2448068">
        <ele>191</ele>
        <time>2022-05-12T08:41:58Z</time>
      </trkpt>
      <trkpt lat="47.58196" lon="2.2448275">
        <ele>192</ele>
        <time>2022-05-12T08:42:31Z</time>
      </trkpt>
      <trkpt lat="47.58197" lon="2.2448337">
        <ele>192</ele>
        <time>2022-05-12T08:42:32Z</time>
      </trkpt>
      <trkpt lat="47.581978" lon="2.2448375">
        <ele>192</ele>
        <time>2022-05-12T08:42:33Z</time>
      </trkpt>
      <trkpt lat="47.581993" lon="2.2448452">
        <ele>192</ele>
        <time>2022-05-12T08:42:34Z</time>
      </trkpt>
      <trkpt lat="47.58201" lon="2.2448502">
        <ele>192</ele>
        <time>2022-05-12T08:42:35Z</time>
      </trkpt>
      <trkpt lat="47.58202" lon="2.244857">
        <ele>192</ele>
        <time>2022-05-12T08:42:36Z</time>
      </trkpt>
      <trkpt lat="47.582035" lon="2.2448666">
        <ele>192</ele>
        <time>2022-05-12T08:42:37Z</time>
      </trkpt>
      <trkpt lat="47.582047" lon="2.2448792">
        <ele>192</ele>
        <time>2022-05-12T08:42:38Z</time>
      </trkpt>
      <trkpt lat="47.582054" lon="2.2448883">
        <ele>192</ele>
        <time>2022-05-12T08:42:39Z</time>
      </trkpt>
      <trkpt lat="47.582058" lon="2.2449017">
        <ele>191</ele>
        <time>2022-05-12T08:42:40Z</time>
      </trkpt>
      <trkpt lat="47.582066" lon="2.2449102">
        <ele>191</ele>
        <time>2022-05-12T08:42:41Z</time>
      </trkpt>
      <trkpt lat="47.58207" lon="2.2449243">
        <ele>190</ele>
        <time>2022-05-12T08:42:42Z</time>
      </trkpt>
      <trkpt lat="47.58208" lon="2.244938">
        <ele>190</ele>
        <time>2022-05-12T08:42:43Z</time>
      </trkpt>
      <trkpt lat="47.58209" lon="2.2449548">
        <ele>189</ele>
        <time>2022-05-12T08:42:44Z</time>
      </trkpt>
      <trkpt lat="47.582092" lon="2.2449698">
        <ele>189</ele>
        <time>2022-05-12T08:42:45Z</time>
      </trkpt>
      <trkpt lat="47.5821" lon="2.244982">
        <ele>189</ele>
        <time>2022-05-12T08:42:46Z</time>
      </trkpt>
      <trkpt lat="47.582096" lon="2.244998">
        <ele>189</ele>
        <time>2022-05-12T08:42:47Z</time>
      </trkpt>
      <trkpt lat="47.5821" lon="2.2450132">
        <ele>189</ele>
        <time>2022-05-12T08:42:48Z</time>
      </trkpt>
      <trkpt lat="47.5821" lon="2.2450306">
        <ele>189</ele>
        <time>2022-05-12T08:42:49Z</time>
      </trkpt>
      <trkpt lat="47.582104" lon="2.245049">
        <ele>189</ele>
        <time>2022-05-12T08:42:50Z</time>
      </trkpt>
      <trkpt lat="47.582104" lon="2.2450616">
        <ele>188</ele>
        <time>2022-05-12T08:42:51Z</time>
      </trkpt>
      <trkpt lat="47.582108" lon="2.2450767">
        <ele>188</ele>
        <time>2022-05-12T08:42:52Z</time>
      </trkpt>
      <trkpt lat="47.582108" lon="2.2450907">
        <ele>188</ele>
        <time>2022-05-12T08:42:53Z</time>
      </trkpt>
      <trkpt lat="47.58211" lon="2.2451034">
        <ele>188</ele>
        <time>2022-05-12T08:42:54Z</time>
      </trkpt>
      <trkpt lat="47.58211" lon="2.245121">
        <ele>188</ele>
        <time>2022-05-12T08:42:55Z</time>
      </trkpt>
      <trkpt lat="47.582108" lon="2.2451377">
        <ele>187</ele>
        <time>2022-05-12T08:42:56Z</time>
      </trkpt>
      <trkpt lat="47.5821" lon="2.2451513">
        <ele>187</ele>
        <time>2022-05-12T08:42:57Z</time>
      </trkpt>
      <trkpt lat="47.582092" lon="2.2451572">
        <ele>187</ele>
        <time>2022-05-12T08:42:58Z</time>
      </trkpt>
      <trkpt lat="47.58208" lon="2.2451637">
        <ele>186</ele>
        <time>2022-05-12T08:42:59Z</time>
      </trkpt>
      <trkpt lat="47.58207" lon="2.2451777">
        <ele>187</ele>
        <time>2022-05-12T08:43:00Z</time>
      </trkpt>
      <trkpt lat="47.58206" lon="2.2451894">
        <ele>187</ele>
        <time>2022-05-12T08:43:01Z</time>
      </trkpt>
      <trkpt lat="47.58205" lon="2.2451992">
        <ele>187</ele>
        <time>2022-05-12T08:43:02Z</time>
      </trkpt>
      <trkpt lat="47.582043" lon="2.2452106">
        <ele>187</ele>
        <time>2022-05-12T08:43:03Z</time>
      </trkpt>
      <trkpt lat="47.58203" lon="2.2452257">
        <ele>186</ele>
        <time>2022-05-12T08:43:04Z</time>
      </trkpt>
      <trkpt lat="47.582027" lon="2.2452364">
        <ele>187</ele>
        <time>2022-05-12T08:43:05Z</time>
      </trkpt>
      <trkpt lat="47.582027" lon="2.2452419">
        <ele>187</ele>
        <time>2022-05-12T08:43:06Z</time>
      </trkpt>
      <trkpt lat="47.582027" lon="2.245245">
        <ele>187</ele>
        <time>2022-05-12T08:43:07Z</time>
      </trkpt>
      <trkpt lat="47.582035" lon="2.245254">
        <ele>188</ele>
        <time>2022-05-12T08:43:08Z</time>
      </trkpt>
      <trkpt lat="47.582035" lon="2.2452612">
        <ele>188</ele>
        <time>2022-05-12T08:43:09Z</time>
      </trkpt>
      <trkpt lat="47.582035" lon="2.245263">
        <ele>189</ele>
        <time>2022-05-12T08:43:10Z</time>
      </trkpt>
      <trkpt lat="47.58203" lon="2.2452617">
        <ele>189</ele>
        <time>2022-05-12T08:43:11Z</time>
      </trkpt>
      <trkpt lat="47.58203" lon="2.2452617">
        <ele>189</ele>
        <time>2022-05-12T08:43:11Z</time>
      </trkpt>
      <trkpt lat="47.58203" lon="2.2452617">
        <ele>189</ele>
        <time>2022-05-12T08:43:11Z</time>
      </trkpt>
      <trkpt lat="47.58198" lon="2.2452788">
        <ele>191</ele>
        <time>2022-05-12T08:43:17Z</time>
      </trkpt>
      <trkpt lat="47.581974" lon="2.2452877">
        <ele>191</ele>
        <time>2022-05-12T08:43:18Z</time>
      </trkpt>
      <trkpt lat="47.581966" lon="2.2452967">
        <ele>191</ele>
        <time>2022-05-12T08:43:19Z</time>
      </trkpt>
      <trkpt lat="47.58196" lon="2.245304">
        <ele>192</ele>
        <time>2022-05-12T08:43:20Z</time>
      </trkpt>
      <trkpt lat="47.581955" lon="2.2453105">
        <ele>192</ele>
        <time>2022-05-12T08:43:21Z</time>
      </trkpt>
      <trkpt lat="47.58195" lon="2.2453125">
        <ele>192</ele>
        <time>2022-05-12T08:43:22Z</time>
      </trkpt>
      <trkpt lat="47.581947" lon="2.2453105">
        <ele>192</ele>
        <time>2022-05-12T08:43:23Z</time>
      </trkpt>
      <trkpt lat="47.581947" lon="2.245311">
        <ele>192</ele>
        <time>2022-05-12T08:43:24Z</time>
      </trkpt>
      <trkpt lat="47.58194" lon="2.245317">
        <ele>192</ele>
        <time>2022-05-12T08:43:25Z</time>
      </trkpt>
      <trkpt lat="47.581932" lon="2.2453265">
        <ele>192</ele>
        <time>2022-05-12T08:43:26Z</time>
      </trkpt>
      <trkpt lat="47.581924" lon="2.2453325">
        <ele>192</ele>
        <time>2022-05-12T08:43:27Z</time>
      </trkpt>
      <trkpt lat="47.581913" lon="2.245341">
        <ele>192</ele>
        <time>2022-05-12T08:43:28Z</time>
      </trkpt>
      <trkpt lat="47.581905" lon="2.245347">
        <ele>192</ele>
        <time>2022-05-12T08:43:29Z</time>
      </trkpt>
      <trkpt lat="47.5819" lon="2.245355">
        <ele>193</ele>
        <time>2022-05-12T08:43:30Z</time>
      </trkpt>
      <trkpt lat="47.581894" lon="2.2453644">
        <ele>193</ele>
        <time>2022-05-12T08:43:31Z</time>
      </trkpt>
      <trkpt lat="47.58189" lon="2.2453706">
        <ele>193</ele>
        <time>2022-05-12T08:43:32Z</time>
      </trkpt>
      <trkpt lat="47.58189" lon="2.2453709">
        <ele>193</ele>
        <time>2022-05-12T08:43:33Z</time>
      </trkpt>
      <trkpt lat="47.58189" lon="2.2453732">
        <ele>193</ele>
        <time>2022-05-12T08:43:34Z</time>
      </trkpt>
      <trkpt lat="47.581886" lon="2.2453797">
        <ele>194</ele>
        <time>2022-05-12T08:43:35Z</time>
      </trkpt>
      <trkpt lat="47.58188" lon="2.2453873">
        <ele>194</ele>
        <time>2022-05-12T08:43:36Z</time>
      </trkpt>
      <trkpt lat="47.581875" lon="2.2453892">
        <ele>194</ele>
        <time>2022-05-12T08:43:37Z</time>
      </trkpt>
      <trkpt lat="47.581867" lon="2.2453883">
        <ele>195</ele>
        <time>2022-05-12T08:43:38Z</time>
      </trkpt>
      <trkpt lat="47.58186" lon="2.2453845">
        <ele>194</ele>
        <time>2022-05-12T08:43:39Z</time>
      </trkpt>
      <trkpt lat="47.581852" lon="2.24538">
        <ele>194</ele>
        <time>2022-05-12T08:43:40Z</time>
      </trkpt>
      <trkpt lat="47.58185" lon="2.2453725">
        <ele>194</ele>
        <time>2022-05-12T08:43:41Z</time>
      </trkpt>
      <trkpt lat="47.58185" lon="2.2453725">
        <ele>194</ele>
        <time>2022-05-12T08:43:42Z</time>
      </trkpt>
      <trkpt lat="47.58185" lon="2.2453725">
        <ele>194</ele>
        <time>2022-05-12T08:43:43Z</time>
      </trkpt>
      <trkpt lat="47.58185" lon="2.2453725">
        <ele>194</ele>
        <time>2022-05-12T08:43:44Z</time>
      </trkpt>
      <trkpt lat="47.581844" lon="2.2453635">
        <ele>193</ele>
        <time>2022-05-12T08:43:45Z</time>
      </trkpt>
      <trkpt lat="47.581844" lon="2.2453637">
        <ele>193</ele>
        <time>2022-05-12T08:43:46Z</time>
      </trkpt>
      <trkpt lat="47.581844" lon="2.2453637">
        <ele>193</ele>
        <time>2022-05-12T08:43:47Z</time>
      </trkpt>
      <trkpt lat="47.581844" lon="2.2453637">
        <ele>193</ele>
        <time>2022-05-12T08:43:47Z</time>
      </trkpt>
      <trkpt lat="47.581844" lon="2.2453637">
        <ele>193</ele>
        <time>2022-05-12T08:43:47Z</time>
      </trkpt>
      <trkpt lat="47.581818" lon="2.245304">
        <ele>191</ele>
        <time>2022-05-12T08:43:59Z</time>
      </trkpt>
      <trkpt lat="47.581814" lon="2.2452922">
        <ele>191</ele>
        <time>2022-05-12T08:44:00Z</time>
      </trkpt>
      <trkpt lat="47.581814" lon="2.245279">
        <ele>191</ele>
        <time>2022-05-12T08:44:01Z</time>
      </trkpt>
      <trkpt lat="47.58181" lon="2.2452633">
        <ele>191</ele>
        <time>2022-05-12T08:44:02Z</time>
      </trkpt>
      <trkpt lat="47.581806" lon="2.2452488">
        <ele>191</ele>
        <time>2022-05-12T08:44:03Z</time>
      </trkpt>
      <trkpt lat="47.581802" lon="2.245237">
        <ele>191</ele>
        <time>2022-05-12T08:44:04Z</time>
      </trkpt>
      <trkpt lat="47.5818" lon="2.245224">
        <ele>191</ele>
        <time>2022-05-12T08:44:05Z</time>
      </trkpt>
      <trkpt lat="47.58179" lon="2.2452095">
        <ele>190</ele>
        <time>2022-05-12T08:44:06Z</time>
      </trkpt>
      <trkpt lat="47.581783" lon="2.2452006">
        <ele>190</ele>
        <time>2022-05-12T08:44:07Z</time>
      </trkpt>
      <trkpt lat="47.581783" lon="2.2451904">
        <ele>189</ele>
        <time>2022-05-12T08:44:08Z</time>
      </trkpt>
      <trkpt lat="47.581776" lon="2.245179">
        <ele>189</ele>
        <time>2022-05-12T08:44:09Z</time>
      </trkpt>
      <trkpt lat="47.58177" lon="2.245165">
        <ele>189</ele>
        <time>2022-05-12T08:44:10Z</time>
      </trkpt>
      <trkpt lat="47.581764" lon="2.2451508">
        <ele>189</ele>
        <time>2022-05-12T08:44:11Z</time>
      </trkpt>
      <trkpt lat="47.581757" lon="2.2451453">
        <ele>190</ele>
        <time>2022-05-12T08:44:12Z</time>
      </trkpt>
      <trkpt lat="47.581753" lon="2.245135">
        <ele>189</ele>
        <time>2022-05-12T08:44:13Z</time>
      </trkpt>
      <trkpt lat="47.58175" lon="2.2451196">
        <ele>189</ele>
        <time>2022-05-12T08:44:14Z</time>
      </trkpt>
      <trkpt lat="47.58174" lon="2.2451112">
        <ele>190</ele>
        <time>2022-05-12T08:44:15Z</time>
      </trkpt>
      <trkpt lat="47.581738" lon="2.245102">
        <ele>190</ele>
        <time>2022-05-12T08:44:16Z</time>
      </trkpt>
      <trkpt lat="47.58173" lon="2.245091">
        <ele>190</ele>
        <time>2022-05-12T08:44:17Z</time>
      </trkpt>
      <trkpt lat="47.581726" lon="2.2450795">
        <ele>190</ele>
        <time>2022-05-12T08:44:18Z</time>
      </trkpt>
      <trkpt lat="47.581722" lon="2.2450688">
        <ele>190</ele>
        <time>2022-05-12T08:44:19Z</time>
      </trkpt>
      <trkpt lat="47.581715" lon="2.2450597">
        <ele>189</ele>
        <time>2022-05-12T08:44:20Z</time>
      </trkpt>
      <trkpt lat="47.581707" lon="2.2450454">
        <ele>189</ele>
        <time>2022-05-12T08:44:21Z</time>
      </trkpt>
      <trkpt lat="47.5817" lon="2.2450333">
        <ele>189</ele>
        <time>2022-05-12T08:44:22Z</time>
      </trkpt>
      <trkpt lat="47.58169" lon="2.245023">
        <ele>189</ele>
        <time>2022-05-12T08:44:23Z</time>
      </trkpt>
      <trkpt lat="47.581684" lon="2.2450123">
        <ele>190</ele>
        <time>2022-05-12T08:44:24Z</time>
      </trkpt>
      <trkpt lat="47.58168" lon="2.2449992">
        <ele>190</ele>
        <time>2022-05-12T08:44:25Z</time>
      </trkpt>
      <trkpt lat="47.581673" lon="2.2449863">
        <ele>190</ele>
        <time>2022-05-12T08:44:26Z</time>
      </trkpt>
      <trkpt lat="47.581665" lon="2.2449763">
        <ele>189</ele>
        <time>2022-05-12T08:44:27Z</time>
      </trkpt>
      <trkpt lat="47.581657" lon="2.244959">
        <ele>189</ele>
        <time>2022-05-12T08:44:28Z</time>
      </trkpt>
      <trkpt lat="47.581654" lon="2.244946">
        <ele>189</ele>
        <time>2022-05-12T08:44:29Z</time>
      </trkpt>
      <trkpt lat="47.581646" lon="2.2449348">
        <ele>188</ele>
        <time>2022-05-12T08:44:30Z</time>
      </trkpt>
      <trkpt lat="47.581642" lon="2.2449212">
        <ele>188</ele>
        <time>2022-05-12T08:44:31Z</time>
      </trkpt>
      <trkpt lat="47.581635" lon="2.2449067">
        <ele>188</ele>
        <time>2022-05-12T08:44:32Z</time>
      </trkpt>
      <trkpt lat="47.581627" lon="2.2448945">
        <ele>188</ele>
        <time>2022-05-12T08:44:33Z</time>
      </trkpt>
      <trkpt lat="47.581623" lon="2.2448792">
        <ele>188</ele>
        <time>2022-05-12T08:44:34Z</time>
      </trkpt>
      <trkpt lat="47.581615" lon="2.244864">
        <ele>188</ele>
        <time>2022-05-12T08:44:35Z</time>
      </trkpt>
      <trkpt lat="47.581608" lon="2.2448545">
        <ele>189</ele>
        <time>2022-05-12T08:44:36Z</time>
      </trkpt>
      <trkpt lat="47.5816" lon="2.2448437">
        <ele>189</ele>
        <time>2022-05-12T08:44:37Z</time>
      </trkpt>
      <trkpt lat="47.58159" lon="2.2448335">
        <ele>190</ele>
        <time>2022-05-12T08:44:38Z</time>
      </trkpt>
      <trkpt lat="47.58158" lon="2.2448192">
        <ele>190</ele>
        <time>2022-05-12T08:44:39Z</time>
      </trkpt>
      <trkpt lat="47.581573" lon="2.2448049">
        <ele>190</ele>
        <time>2022-05-12T08:44:40Z</time>
      </trkpt>
      <trkpt lat="47.581566" lon="2.244787">
        <ele>190</ele>
        <time>2022-05-12T08:44:41Z</time>
      </trkpt>
      <trkpt lat="47.58156" lon="2.2447746">
        <ele>189</ele>
        <time>2022-05-12T08:44:42Z</time>
      </trkpt>
      <trkpt lat="47.581547" lon="2.244758">
        <ele>189</ele>
        <time>2022-05-12T08:44:43Z</time>
      </trkpt>
      <trkpt lat="47.581543" lon="2.2447453">
        <ele>190</ele>
        <time>2022-05-12T08:44:44Z</time>
      </trkpt>
      <trkpt lat="47.58154" lon="2.2447343">
        <ele>190</ele>
        <time>2022-05-12T08:44:45Z</time>
      </trkpt>
      <trkpt lat="47.581535" lon="2.2447214">
        <ele>189</ele>
        <time>2022-05-12T08:44:46Z</time>
      </trkpt>
      <trkpt lat="47.58153" lon="2.2447107">
        <ele>190</ele>
        <time>2022-05-12T08:44:47Z</time>
      </trkpt>
      <trkpt lat="47.581524" lon="2.2447007">
        <ele>190</ele>
        <time>2022-05-12T08:44:48Z</time>
      </trkpt>
      <trkpt lat="47.581512" lon="2.244691">
        <ele>191</ele>
        <time>2022-05-12T08:44:49Z</time>
      </trkpt>
      <trkpt lat="47.581505" lon="2.244677">
        <ele>191</ele>
        <time>2022-05-12T08:44:50Z</time>
      </trkpt>
      <trkpt lat="47.58149" lon="2.2446647">
        <ele>190</ele>
        <time>2022-05-12T08:44:51Z</time>
      </trkpt>
      <trkpt lat="47.581482" lon="2.2446566">
        <ele>190</ele>
        <time>2022-05-12T08:44:52Z</time>
      </trkpt>
      <trkpt lat="47.58147" lon="2.2446465">
        <ele>190</ele>
        <time>2022-05-12T08:44:53Z</time>
      </trkpt>
      <trkpt lat="47.581463" lon="2.2446332">
        <ele>190</ele>
        <time>2022-05-12T08:44:54Z</time>
      </trkpt>
      <trkpt lat="47.58145" lon="2.2446198">
        <ele>189</ele>
        <time>2022-05-12T08:44:55Z</time>
      </trkpt>
      <trkpt lat="47.581444" lon="2.2446094">
        <ele>189</ele>
        <time>2022-05-12T08:44:56Z</time>
      </trkpt>
      <trkpt lat="47.581436" lon="2.2445967">
        <ele>189</ele>
        <time>2022-05-12T08:44:57Z</time>
      </trkpt>
      <trkpt lat="47.58143" lon="2.2445822">
        <ele>189</ele>
        <time>2022-05-12T08:44:58Z</time>
      </trkpt>
      <trkpt lat="47.581417" lon="2.2445667">
        <ele>189</ele>
        <time>2022-05-12T08:44:59Z</time>
      </trkpt>
      <trkpt lat="47.581406" lon="2.2445583">
        <ele>189</ele>
        <time>2022-05-12T08:45:00Z</time>
      </trkpt>
      <trkpt lat="47.58139" lon="2.2445452">
        <ele>190</ele>
        <time>2022-05-12T08:45:01Z</time>
      </trkpt>
      <trkpt lat="47.581383" lon="2.244539">
        <ele>190</ele>
        <time>2022-05-12T08:45:02Z</time>
      </trkpt>
      <trkpt lat="47.581375" lon="2.24453">
        <ele>190</ele>
        <time>2022-05-12T08:45:03Z</time>
      </trkpt>
      <trkpt lat="47.581367" lon="2.244522">
        <ele>190</ele>
        <time>2022-05-12T08:45:04Z</time>
      </trkpt>
      <trkpt lat="47.58136" lon="2.2445064">
        <ele>191</ele>
        <time>2022-05-12T08:45:05Z</time>
      </trkpt>
      <trkpt lat="47.581352" lon="2.2444923">
        <ele>191</ele>
        <time>2022-05-12T08:45:06Z</time>
      </trkpt>
      <trkpt lat="47.58135" lon="2.2444785">
        <ele>190</ele>
        <time>2022-05-12T08:45:07Z</time>
      </trkpt>
      <trkpt lat="47.58134" lon="2.2444649">
        <ele>190</ele>
        <time>2022-05-12T08:45:08Z</time>
      </trkpt>
      <trkpt lat="47.58133" lon="2.2444553">
        <ele>190</ele>
        <time>2022-05-12T08:45:09Z</time>
      </trkpt>
      <trkpt lat="47.58132" lon="2.244442">
        <ele>190</ele>
        <time>2022-05-12T08:45:10Z</time>
      </trkpt>
      <trkpt lat="47.581314" lon="2.2444243">
        <ele>190</ele>
        <time>2022-05-12T08:45:11Z</time>
      </trkpt>
      <trkpt lat="47.581303" lon="2.2444103">
        <ele>191</ele>
        <time>2022-05-12T08:45:12Z</time>
      </trkpt>
      <trkpt lat="47.581295" lon="2.2443957">
        <ele>191</ele>
        <time>2022-05-12T08:45:13Z</time>
      </trkpt>
      <trkpt lat="47.581287" lon="2.2443862">
        <ele>191</ele>
        <time>2022-05-12T08:45:14Z</time>
      </trkpt>
      <trkpt lat="47.58128" lon="2.2443817">
        <ele>190</ele>
        <time>2022-05-12T08:45:15Z</time>
      </trkpt>
      <trkpt lat="47.58127" lon="2.2443707">
        <ele>190</ele>
        <time>2022-05-12T08:45:16Z</time>
      </trkpt>
      <trkpt lat="47.58126" lon="2.2443604">
        <ele>191</ele>
        <time>2022-05-12T08:45:17Z</time>
      </trkpt>
      <trkpt lat="47.581253" lon="2.244349">
        <ele>191</ele>
        <time>2022-05-12T08:45:18Z</time>
      </trkpt>
      <trkpt lat="47.58124" lon="2.2443326">
        <ele>192</ele>
        <time>2022-05-12T08:45:19Z</time>
      </trkpt>
      <trkpt lat="47.581234" lon="2.2443192">
        <ele>192</ele>
        <time>2022-05-12T08:45:20Z</time>
      </trkpt>
      <trkpt lat="47.581226" lon="2.2443047">
        <ele>193</ele>
        <time>2022-05-12T08:45:21Z</time>
      </trkpt>
      <trkpt lat="47.581215" lon="2.244289">
        <ele>193</ele>
        <time>2022-05-12T08:45:22Z</time>
      </trkpt>
      <trkpt lat="47.581207" lon="2.2442775">
        <ele>193</ele>
        <time>2022-05-12T08:45:23Z</time>
      </trkpt>
      <trkpt lat="47.581196" lon="2.2442675">
        <ele>193</ele>
        <time>2022-05-12T08:45:24Z</time>
      </trkpt>
      <trkpt lat="47.58119" lon="2.2442513">
        <ele>193</ele>
        <time>2022-05-12T08:45:25Z</time>
      </trkpt>
      <trkpt lat="47.581177" lon="2.2442365">
        <ele>193</ele>
        <time>2022-05-12T08:45:26Z</time>
      </trkpt>
      <trkpt lat="47.58117" lon="2.2442212">
        <ele>193</ele>
        <time>2022-05-12T08:45:27Z</time>
      </trkpt>
      <trkpt lat="47.58116" lon="2.244215">
        <ele>193</ele>
        <time>2022-05-12T08:45:28Z</time>
      </trkpt>
      <trkpt lat="47.581158" lon="2.2442052">
        <ele>193</ele>
        <time>2022-05-12T08:45:29Z</time>
      </trkpt>
      <trkpt lat="47.58115" lon="2.2441916">
        <ele>193</ele>
        <time>2022-05-12T08:45:30Z</time>
      </trkpt>
      <trkpt lat="47.581142" lon="2.2441773">
        <ele>193</ele>
        <time>2022-05-12T08:45:31Z</time>
      </trkpt>
      <trkpt lat="47.581135" lon="2.2441661">
        <ele>193</ele>
        <time>2022-05-12T08:45:32Z</time>
      </trkpt>
      <trkpt lat="47.581127" lon="2.2441516">
        <ele>193</ele>
        <time>2022-05-12T08:45:33Z</time>
      </trkpt>
      <trkpt lat="47.581123" lon="2.2441347">
        <ele>193</ele>
        <time>2022-05-12T08:45:34Z</time>
      </trkpt>
      <trkpt lat="47.581116" lon="2.2441216">
        <ele>193</ele>
        <time>2022-05-12T08:45:35Z</time>
      </trkpt>
      <trkpt lat="47.58111" lon="2.2441075">
        <ele>193</ele>
        <time>2022-05-12T08:45:36Z</time>
      </trkpt>
      <trkpt lat="47.581097" lon="2.2440963">
        <ele>193</ele>
        <time>2022-05-12T08:45:37Z</time>
      </trkpt>
      <trkpt lat="47.581093" lon="2.2440858">
        <ele>193</ele>
        <time>2022-05-12T08:45:38Z</time>
      </trkpt>
      <trkpt lat="47.58108" lon="2.2440712">
        <ele>193</ele>
        <time>2022-05-12T08:45:39Z</time>
      </trkpt>
      <trkpt lat="47.581074" lon="2.2440577">
        <ele>193</ele>
        <time>2022-05-12T08:45:40Z</time>
      </trkpt>
      <trkpt lat="47.581066" lon="2.2440438">
        <ele>193</ele>
        <time>2022-05-12T08:45:41Z</time>
      </trkpt>
      <trkpt lat="47.58106" lon="2.2440324">
        <ele>193</ele>
        <time>2022-05-12T08:45:42Z</time>
      </trkpt>
      <trkpt lat="47.58105" lon="2.2440197">
        <ele>194</ele>
        <time>2022-05-12T08:45:43Z</time>
      </trkpt>
      <trkpt lat="47.58104" lon="2.2440052">
        <ele>194</ele>
        <time>2022-05-12T08:45:44Z</time>
      </trkpt>
      <trkpt lat="47.581036" lon="2.2439938">
        <ele>194</ele>
        <time>2022-05-12T08:45:45Z</time>
      </trkpt>
      <trkpt lat="47.58103" lon="2.243979">
        <ele>194</ele>
        <time>2022-05-12T08:45:46Z</time>
      </trkpt>
      <trkpt lat="47.581028" lon="2.2439651">
        <ele>195</ele>
        <time>2022-05-12T08:45:47Z</time>
      </trkpt>
      <trkpt lat="47.58102" lon="2.243951">
        <ele>195</ele>
        <time>2022-05-12T08:45:48Z</time>
      </trkpt>
      <trkpt lat="47.58101" lon="2.2439375">
        <ele>195</ele>
        <time>2022-05-12T08:45:49Z</time>
      </trkpt>
      <trkpt lat="47.581005" lon="2.2439253">
        <ele>195</ele>
        <time>2022-05-12T08:45:50Z</time>
      </trkpt>
      <trkpt lat="47.580997" lon="2.2439127">
        <ele>195</ele>
        <time>2022-05-12T08:45:51Z</time>
      </trkpt>
      <trkpt lat="47.580997" lon="2.2439003">
        <ele>194</ele>
        <time>2022-05-12T08:45:52Z</time>
      </trkpt>
      <trkpt lat="47.58099" lon="2.243888">
        <ele>194</ele>
        <time>2022-05-12T08:45:53Z</time>
      </trkpt>
      <trkpt lat="47.580982" lon="2.2438734">
        <ele>194</ele>
        <time>2022-05-12T08:45:54Z</time>
      </trkpt>
      <trkpt lat="47.580975" lon="2.2438612">
        <ele>194</ele>
        <time>2022-05-12T08:45:55Z</time>
      </trkpt>
      <trkpt lat="47.580967" lon="2.243848">
        <ele>194</ele>
        <time>2022-05-12T08:45:56Z</time>
      </trkpt>
      <trkpt lat="47.580963" lon="2.243836">
        <ele>194</ele>
        <time>2022-05-12T08:45:57Z</time>
      </trkpt>
      <trkpt lat="47.580956" lon="2.243823">
        <ele>194</ele>
        <time>2022-05-12T08:45:58Z</time>
      </trkpt>
      <trkpt lat="47.58095" lon="2.243804">
        <ele>194</ele>
        <time>2022-05-12T08:45:59Z</time>
      </trkpt>
      <trkpt lat="47.580944" lon="2.2437901">
        <ele>193</ele>
        <time>2022-05-12T08:46:00Z</time>
      </trkpt>
      <trkpt lat="47.580944" lon="2.2437747">
        <ele>193</ele>
        <time>2022-05-12T08:46:01Z</time>
      </trkpt>
      <trkpt lat="47.580944" lon="2.2437706">
        <ele>193</ele>
        <time>2022-05-12T08:46:02Z</time>
      </trkpt>
      <trkpt lat="47.58094" lon="2.2437663">
        <ele>192</ele>
        <time>2022-05-12T08:46:03Z</time>
      </trkpt>
      <trkpt lat="47.58093" lon="2.2437592">
        <ele>191</ele>
        <time>2022-05-12T08:46:04Z</time>
      </trkpt>
      <trkpt lat="47.580917" lon="2.2437506">
        <ele>191</ele>
        <time>2022-05-12T08:46:05Z</time>
      </trkpt>
      <trkpt lat="47.580906" lon="2.2437365">
        <ele>191</ele>
        <time>2022-05-12T08:46:06Z</time>
      </trkpt>
      <trkpt lat="47.5809" lon="2.243721">
        <ele>191</ele>
        <time>2022-05-12T08:46:07Z</time>
      </trkpt>
      <trkpt lat="47.58089" lon="2.243702">
        <ele>191</ele>
        <time>2022-05-12T08:46:08Z</time>
      </trkpt>
      <trkpt lat="47.580883" lon="2.2436867">
        <ele>191</ele>
        <time>2022-05-12T08:46:09Z</time>
      </trkpt>
      <trkpt lat="47.580875" lon="2.243675">
        <ele>190</ele>
        <time>2022-05-12T08:46:10Z</time>
      </trkpt>
      <trkpt lat="47.58087" lon="2.2436666">
        <ele>190</ele>
        <time>2022-05-12T08:46:11Z</time>
      </trkpt>
      <trkpt lat="47.580864" lon="2.2436593">
        <ele>191</ele>
        <time>2022-05-12T08:46:12Z</time>
      </trkpt>
      <trkpt lat="47.580856" lon="2.243648">
        <ele>191</ele>
        <time>2022-05-12T08:46:13Z</time>
      </trkpt>
      <trkpt lat="47.58085" lon="2.243636">
        <ele>191</ele>
        <time>2022-05-12T08:46:14Z</time>
      </trkpt>
      <trkpt lat="47.58084" lon="2.2436247">
        <ele>192</ele>
        <time>2022-05-12T08:46:15Z</time>
      </trkpt>
      <trkpt lat="47.580833" lon="2.243612">
        <ele>192</ele>
        <time>2022-05-12T08:46:16Z</time>
      </trkpt>
      <trkpt lat="47.580826" lon="2.2436008">
        <ele>193</ele>
        <time>2022-05-12T08:46:17Z</time>
      </trkpt>
      <trkpt lat="47.580814" lon="2.243589">
        <ele>193</ele>
        <time>2022-05-12T08:46:18Z</time>
      </trkpt>
      <trkpt lat="47.580803" lon="2.243579">
        <ele>193</ele>
        <time>2022-05-12T08:46:19Z</time>
      </trkpt>
      <trkpt lat="47.580795" lon="2.2435696">
        <ele>193</ele>
        <time>2022-05-12T08:46:20Z</time>
      </trkpt>
      <trkpt lat="47.580788" lon="2.2435594">
        <ele>193</ele>
        <time>2022-05-12T08:46:21Z</time>
      </trkpt>
      <trkpt lat="47.58078" lon="2.24355">
        <ele>193</ele>
        <time>2022-05-12T08:46:22Z</time>
      </trkpt>
      <trkpt lat="47.580772" lon="2.2435377">
        <ele>192</ele>
        <time>2022-05-12T08:46:23Z</time>
      </trkpt>
      <trkpt lat="47.580765" lon="2.2435253">
        <ele>192</ele>
        <time>2022-05-12T08:46:24Z</time>
      </trkpt>
      <trkpt lat="47.580753" lon="2.2435129">
        <ele>192</ele>
        <time>2022-05-12T08:46:25Z</time>
      </trkpt>
      <trkpt lat="47.580746" lon="2.2434978">
        <ele>193</ele>
        <time>2022-05-12T08:46:26Z</time>
      </trkpt>
      <trkpt lat="47.580738" lon="2.2434807">
        <ele>193</ele>
        <time>2022-05-12T08:46:27Z</time>
      </trkpt>
      <trkpt lat="47.58073" lon="2.2434661">
        <ele>194</ele>
        <time>2022-05-12T08:46:28Z</time>
      </trkpt>
      <trkpt lat="47.58073" lon="2.2434554">
        <ele>194</ele>
        <time>2022-05-12T08:46:29Z</time>
      </trkpt>
      <trkpt lat="47.580723" lon="2.243442">
        <ele>194</ele>
        <time>2022-05-12T08:46:30Z</time>
      </trkpt>
      <trkpt lat="47.58072" lon="2.2434304">
        <ele>195</ele>
        <time>2022-05-12T08:46:31Z</time>
      </trkpt>
      <trkpt lat="47.580715" lon="2.243423">
        <ele>194</ele>
        <time>2022-05-12T08:46:32Z</time>
      </trkpt>
      <trkpt lat="47.580715" lon="2.2434142">
        <ele>194</ele>
        <time>2022-05-12T08:46:33Z</time>
      </trkpt>
      <trkpt lat="47.580708" lon="2.2434006">
        <ele>194</ele>
        <time>2022-05-12T08:46:34Z</time>
      </trkpt>
      <trkpt lat="47.5807" lon="2.2433844">
        <ele>193</ele>
        <time>2022-05-12T08:46:35Z</time>
      </trkpt>
      <trkpt lat="47.580692" lon="2.2433684">
        <ele>193</ele>
        <time>2022-05-12T08:46:36Z</time>
      </trkpt>
      <trkpt lat="47.580685" lon="2.243356">
        <ele>193</ele>
        <time>2022-05-12T08:46:37Z</time>
      </trkpt>
      <trkpt lat="47.580673" lon="2.2433481">
        <ele>193</ele>
        <time>2022-05-12T08:46:38Z</time>
      </trkpt>
      <trkpt lat="47.580666" lon="2.243333">
        <ele>193</ele>
        <time>2022-05-12T08:46:39Z</time>
      </trkpt>
      <trkpt lat="47.580658" lon="2.2433207">
        <ele>192</ele>
        <time>2022-05-12T08:46:40Z</time>
      </trkpt>
      <trkpt lat="47.58065" lon="2.2433097">
        <ele>192</ele>
        <time>2022-05-12T08:46:41Z</time>
      </trkpt>
      <trkpt lat="47.580643" lon="2.2432952">
        <ele>192</ele>
        <time>2022-05-12T08:46:42Z</time>
      </trkpt>
      <trkpt lat="47.580635" lon="2.2432811">
        <ele>191</ele>
        <time>2022-05-12T08:46:43Z</time>
      </trkpt>
      <trkpt lat="47.580627" lon="2.2432654">
        <ele>191</ele>
        <time>2022-05-12T08:46:44Z</time>
      </trkpt>
      <trkpt lat="47.580624" lon="2.2432523">
        <ele>191</ele>
        <time>2022-05-12T08:46:45Z</time>
      </trkpt>
      <trkpt lat="47.580612" lon="2.2432375">
        <ele>191</ele>
        <time>2022-05-12T08:46:46Z</time>
      </trkpt>
      <trkpt lat="47.58061" lon="2.2432227">
        <ele>191</ele>
        <time>2022-05-12T08:46:47Z</time>
      </trkpt>
      <trkpt lat="47.580597" lon="2.2432065">
        <ele>190</ele>
        <time>2022-05-12T08:46:48Z</time>
      </trkpt>
      <trkpt lat="47.580585" lon="2.2431898">
        <ele>190</ele>
        <time>2022-05-12T08:46:49Z</time>
      </trkpt>
      <trkpt lat="47.580578" lon="2.243174">
        <ele>191</ele>
        <time>2022-05-12T08:46:50Z</time>
      </trkpt>
      <trkpt lat="47.58057" lon="2.2431626">
        <ele>191</ele>
        <time>2022-05-12T08:46:51Z</time>
      </trkpt>
      <trkpt lat="47.580563" lon="2.2431529">
        <ele>190</ele>
        <time>2022-05-12T08:46:52Z</time>
      </trkpt>
      <trkpt lat="47.580555" lon="2.2431412">
        <ele>190</ele>
        <time>2022-05-12T08:46:53Z</time>
      </trkpt>
      <trkpt lat="47.58055" lon="2.243135">
        <ele>190</ele>
        <time>2022-05-12T08:46:54Z</time>
      </trkpt>
      <trkpt lat="47.58054" lon="2.243126">
        <ele>190</ele>
        <time>2022-05-12T08:46:55Z</time>
      </trkpt>
      <trkpt lat="47.580532" lon="2.2431154">
        <ele>190</ele>
        <time>2022-05-12T08:46:56Z</time>
      </trkpt>
      <trkpt lat="47.58052" lon="2.243104">
        <ele>190</ele>
        <time>2022-05-12T08:46:57Z</time>
      </trkpt>
      <trkpt lat="47.58051" lon="2.2430933">
        <ele>190</ele>
        <time>2022-05-12T08:46:58Z</time>
      </trkpt>
      <trkpt lat="47.580498" lon="2.2430854">
        <ele>190</ele>
        <time>2022-05-12T08:46:59Z</time>
      </trkpt>
      <trkpt lat="47.580486" lon="2.2430813">
        <ele>190</ele>
        <time>2022-05-12T08:47:00Z</time>
      </trkpt>
      <trkpt lat="47.58048" lon="2.243078">
        <ele>190</ele>
        <time>2022-05-12T08:47:01Z</time>
      </trkpt>
      <trkpt lat="47.58047" lon="2.2430737">
        <ele>190</ele>
        <time>2022-05-12T08:47:02Z</time>
      </trkpt>
      <trkpt lat="47.580467" lon="2.2430637">
        <ele>190</ele>
        <time>2022-05-12T08:47:03Z</time>
      </trkpt>
      <trkpt lat="47.580463" lon="2.24306">
        <ele>190</ele>
        <time>2022-05-12T08:47:04Z</time>
      </trkpt>
      <trkpt lat="47.580456" lon="2.24305">
        <ele>190</ele>
        <time>2022-05-12T08:47:05Z</time>
      </trkpt>
      <trkpt lat="47.58045" lon="2.24304">
        <ele>190</ele>
        <time>2022-05-12T08:47:06Z</time>
      </trkpt>
      <trkpt lat="47.58044" lon="2.243026">
        <ele>190</ele>
        <time>2022-05-12T08:47:07Z</time>
      </trkpt>
      <trkpt lat="47.580437" lon="2.2430143">
        <ele>190</ele>
        <time>2022-05-12T08:47:08Z</time>
      </trkpt>
      <trkpt lat="47.58043" lon="2.2430022">
        <ele>190</ele>
        <time>2022-05-12T08:47:09Z</time>
      </trkpt>
      <trkpt lat="47.580418" lon="2.2429898">
        <ele>190</ele>
        <time>2022-05-12T08:47:10Z</time>
      </trkpt>
      <trkpt lat="47.580414" lon="2.242978">
        <ele>190</ele>
        <time>2022-05-12T08:47:11Z</time>
      </trkpt>
      <trkpt lat="47.580406" lon="2.242964">
        <ele>189</ele>
        <time>2022-05-12T08:47:12Z</time>
      </trkpt>
      <trkpt lat="47.5804" lon="2.242949">
        <ele>189</ele>
        <time>2022-05-12T08:47:13Z</time>
      </trkpt>
      <trkpt lat="47.580395" lon="2.2429352">
        <ele>189</ele>
        <time>2022-05-12T08:47:14Z</time>
      </trkpt>
      <trkpt lat="47.580387" lon="2.2429273">
        <ele>190</ele>
        <time>2022-05-12T08:47:15Z</time>
      </trkpt>
      <trkpt lat="47.58038" lon="2.2429132">
        <ele>190</ele>
        <time>2022-05-12T08:47:16Z</time>
      </trkpt>
      <trkpt lat="47.580376" lon="2.2429013">
        <ele>190</ele>
        <time>2022-05-12T08:47:17Z</time>
      </trkpt>
      <trkpt lat="47.580364" lon="2.2428892">
        <ele>190</ele>
        <time>2022-05-12T08:47:18Z</time>
      </trkpt>
      <trkpt lat="47.580357" lon="2.242872">
        <ele>190</ele>
        <time>2022-05-12T08:47:19Z</time>
      </trkpt>
      <trkpt lat="47.58035" lon="2.2428617">
        <ele>191</ele>
        <time>2022-05-12T08:47:20Z</time>
      </trkpt>
      <trkpt lat="47.580338" lon="2.2428532">
        <ele>192</ele>
        <time>2022-05-12T08:47:21Z</time>
      </trkpt>
      <trkpt lat="47.58033" lon="2.2428427">
        <ele>192</ele>
        <time>2022-05-12T08:47:22Z</time>
      </trkpt>
      <trkpt lat="47.58032" lon="2.2428324">
        <ele>192</ele>
        <time>2022-05-12T08:47:23Z</time>
      </trkpt>
      <trkpt lat="47.580307" lon="2.2428174">
        <ele>192</ele>
        <time>2022-05-12T08:47:24Z</time>
      </trkpt>
      <trkpt lat="47.580296" lon="2.2428076">
        <ele>193</ele>
        <time>2022-05-12T08:47:25Z</time>
      </trkpt>
      <trkpt lat="47.580284" lon="2.2428002">
        <ele>193</ele>
        <time>2022-05-12T08:47:26Z</time>
      </trkpt>
      <trkpt lat="47.580273" lon="2.2427917">
        <ele>193</ele>
        <time>2022-05-12T08:47:27Z</time>
      </trkpt>
      <trkpt lat="47.580265" lon="2.2427824">
        <ele>193</ele>
        <time>2022-05-12T08:47:28Z</time>
      </trkpt>
      <trkpt lat="47.580254" lon="2.2427728">
        <ele>193</ele>
        <time>2022-05-12T08:47:29Z</time>
      </trkpt>
      <trkpt lat="47.580246" lon="2.242763">
        <ele>193</ele>
        <time>2022-05-12T08:47:30Z</time>
      </trkpt>
      <trkpt lat="47.58024" lon="2.2427518">
        <ele>193</ele>
        <time>2022-05-12T08:47:31Z</time>
      </trkpt>
      <trkpt lat="47.580227" lon="2.2427404">
        <ele>193</ele>
        <time>2022-05-12T08:47:32Z</time>
      </trkpt>
      <trkpt lat="47.58022" lon="2.242728">
        <ele>193</ele>
        <time>2022-05-12T08:47:33Z</time>
      </trkpt>
      <trkpt lat="47.580208" lon="2.2427127">
        <ele>193</ele>
        <time>2022-05-12T08:47:34Z</time>
      </trkpt>
      <trkpt lat="47.580196" lon="2.2426965">
        <ele>194</ele>
        <time>2022-05-12T08:47:35Z</time>
      </trkpt>
      <trkpt lat="47.580185" lon="2.2426863">
        <ele>194</ele>
        <time>2022-05-12T08:47:36Z</time>
      </trkpt>
      <trkpt lat="47.580177" lon="2.2426744">
        <ele>194</ele>
        <time>2022-05-12T08:47:37Z</time>
      </trkpt>
      <trkpt lat="47.58017" lon="2.2426665">
        <ele>194</ele>
        <time>2022-05-12T08:47:38Z</time>
      </trkpt>
      <trkpt lat="47.580166" lon="2.2426577">
        <ele>195</ele>
        <time>2022-05-12T08:47:39Z</time>
      </trkpt>
      <trkpt lat="47.58016" lon="2.2426505">
        <ele>195</ele>
        <time>2022-05-12T08:47:40Z</time>
      </trkpt>
      <trkpt lat="47.58015" lon="2.242639">
        <ele>195</ele>
        <time>2022-05-12T08:47:41Z</time>
      </trkpt>
      <trkpt lat="47.580143" lon="2.2426257">
        <ele>195</ele>
        <time>2022-05-12T08:47:42Z</time>
      </trkpt>
      <trkpt lat="47.580135" lon="2.2426088">
        <ele>194</ele>
        <time>2022-05-12T08:47:43Z</time>
      </trkpt>
      <trkpt lat="47.580128" lon="2.242596">
        <ele>194</ele>
        <time>2022-05-12T08:47:44Z</time>
      </trkpt>
      <trkpt lat="47.58012" lon="2.242587">
        <ele>194</ele>
        <time>2022-05-12T08:47:45Z</time>
      </trkpt>
      <trkpt lat="47.580112" lon="2.2425752">
        <ele>193</ele>
        <time>2022-05-12T08:47:46Z</time>
      </trkpt>
      <trkpt lat="47.580105" lon="2.2425656">
        <ele>193</ele>
        <time>2022-05-12T08:47:47Z</time>
      </trkpt>
      <trkpt lat="47.580097" lon="2.242557">
        <ele>193</ele>
        <time>2022-05-12T08:47:48Z</time>
      </trkpt>
      <trkpt lat="47.580093" lon="2.2425444">
        <ele>193</ele>
        <time>2022-05-12T08:47:49Z</time>
      </trkpt>
      <trkpt lat="47.580086" lon="2.2425325">
        <ele>193</ele>
        <time>2022-05-12T08:47:50Z</time>
      </trkpt>
      <trkpt lat="47.580074" lon="2.242519">
        <ele>193</ele>
        <time>2022-05-12T08:47:51Z</time>
      </trkpt>
      <trkpt lat="47.58007" lon="2.2425041">
        <ele>194</ele>
        <time>2022-05-12T08:47:52Z</time>
      </trkpt>
      <trkpt lat="47.580063" lon="2.242489">
        <ele>194</ele>
        <time>2022-05-12T08:47:53Z</time>
      </trkpt>
      <trkpt lat="47.580055" lon="2.2424808">
        <ele>194</ele>
        <time>2022-05-12T08:47:54Z</time>
      </trkpt>
      <trkpt lat="47.58005" lon="2.2424695">
        <ele>195</ele>
        <time>2022-05-12T08:47:55Z</time>
      </trkpt>
      <trkpt lat="47.58004" lon="2.2424624">
        <ele>195</ele>
        <time>2022-05-12T08:47:56Z</time>
      </trkpt>
      <trkpt lat="47.580025" lon="2.24246">
        <ele>195</ele>
        <time>2022-05-12T08:47:57Z</time>
      </trkpt>
      <trkpt lat="47.58001" lon="2.2424586">
        <ele>196</ele>
        <time>2022-05-12T08:47:58Z</time>
      </trkpt>
      <trkpt lat="47.579998" lon="2.2424495">
        <ele>196</ele>
        <time>2022-05-12T08:47:59Z</time>
      </trkpt>
      <trkpt lat="47.57999" lon="2.2424386">
        <ele>196</ele>
        <time>2022-05-12T08:48:00Z</time>
      </trkpt>
      <trkpt lat="47.57998" lon="2.2424314">
        <ele>196</ele>
        <time>2022-05-12T08:48:01Z</time>
      </trkpt>
      <trkpt lat="47.579964" lon="2.2424207">
        <ele>197</ele>
        <time>2022-05-12T08:48:02Z</time>
      </trkpt>
      <trkpt lat="47.57995" lon="2.2424197">
        <ele>197</ele>
        <time>2022-05-12T08:48:03Z</time>
      </trkpt>
      <trkpt lat="47.579937" lon="2.2424104">
        <ele>197</ele>
        <time>2022-05-12T08:48:04Z</time>
      </trkpt>
      <trkpt lat="47.579926" lon="2.2424052">
        <ele>197</ele>
        <time>2022-05-12T08:48:05Z</time>
      </trkpt>
      <trkpt lat="47.579918" lon="2.2424">
        <ele>197</ele>
        <time>2022-05-12T08:48:06Z</time>
      </trkpt>
      <trkpt lat="47.57991" lon="2.2423964">
        <ele>196</ele>
        <time>2022-05-12T08:48:07Z</time>
      </trkpt>
      <trkpt lat="47.579903" lon="2.242391">
        <ele>195</ele>
        <time>2022-05-12T08:48:08Z</time>
      </trkpt>
      <trkpt lat="47.57989" lon="2.2423813">
        <ele>195</ele>
        <time>2022-05-12T08:48:09Z</time>
      </trkpt>
      <trkpt lat="47.579884" lon="2.2423744">
        <ele>195</ele>
        <time>2022-05-12T08:48:10Z</time>
      </trkpt>
      <trkpt lat="47.579876" lon="2.2423654">
        <ele>195</ele>
        <time>2022-05-12T08:48:11Z</time>
      </trkpt>
      <trkpt lat="47.579872" lon="2.2423558">
        <ele>195</ele>
        <time>2022-05-12T08:48:12Z</time>
      </trkpt>
      <trkpt lat="47.579865" lon="2.2423468">
        <ele>195</ele>
        <time>2022-05-12T08:48:13Z</time>
      </trkpt>
      <trkpt lat="47.579857" lon="2.2423372">
        <ele>194</ele>
        <time>2022-05-12T08:48:14Z</time>
      </trkpt>
      <trkpt lat="47.57985" lon="2.2423286">
        <ele>194</ele>
        <time>2022-05-12T08:48:15Z</time>
      </trkpt>
      <trkpt lat="47.579838" lon="2.242319">
        <ele>194</ele>
        <time>2022-05-12T08:48:16Z</time>
      </trkpt>
      <trkpt lat="47.579826" lon="2.2423108">
        <ele>194</ele>
        <time>2022-05-12T08:48:17Z</time>
      </trkpt>
      <trkpt lat="47.57982" lon="2.2422972">
        <ele>194</ele>
        <time>2022-05-12T08:48:18Z</time>
      </trkpt>
      <trkpt lat="47.57981" lon="2.2422848">
        <ele>194</ele>
        <time>2022-05-12T08:48:19Z</time>
      </trkpt>
      <trkpt lat="47.579803" lon="2.242272">
        <ele>195</ele>
        <time>2022-05-12T08:48:20Z</time>
      </trkpt>
      <trkpt lat="47.579792" lon="2.242266">
        <ele>196</ele>
        <time>2022-05-12T08:48:21Z</time>
      </trkpt>
      <trkpt lat="47.57978" lon="2.2422607">
        <ele>197</ele>
        <time>2022-05-12T08:48:22Z</time>
      </trkpt>
      <trkpt lat="47.57978" lon="2.2422545">
        <ele>197</ele>
        <time>2022-05-12T08:48:23Z</time>
      </trkpt>
      <trkpt lat="47.57978" lon="2.242249">
        <ele>197</ele>
        <time>2022-05-12T08:48:24Z</time>
      </trkpt>
      <trkpt lat="47.57978" lon="2.242249">
        <ele>197</ele>
        <time>2022-05-12T08:48:25Z</time>
      </trkpt>
      <trkpt lat="47.579773" lon="2.2422488">
        <ele>197</ele>
        <time>2022-05-12T08:48:26Z</time>
      </trkpt>
      <trkpt lat="47.579765" lon="2.242243">
        <ele>197</ele>
        <time>2022-05-12T08:48:27Z</time>
      </trkpt>
      <trkpt lat="47.579754" lon="2.2422357">
        <ele>197</ele>
        <time>2022-05-12T08:48:28Z</time>
      </trkpt>
      <trkpt lat="47.579742" lon="2.24223">
        <ele>197</ele>
        <time>2022-05-12T08:48:29Z</time>
      </trkpt>
      <trkpt lat="47.57973" lon="2.2422256">
        <ele>196</ele>
        <time>2022-05-12T08:48:30Z</time>
      </trkpt>
      <trkpt lat="47.579723" lon="2.2422135">
        <ele>196</ele>
        <time>2022-05-12T08:48:31Z</time>
      </trkpt>
      <trkpt lat="47.579716" lon="2.2422051">
        <ele>196</ele>
        <time>2022-05-12T08:48:32Z</time>
      </trkpt>
      <trkpt lat="47.579704" lon="2.242198">
        <ele>196</ele>
        <time>2022-05-12T08:48:33Z</time>
      </trkpt>
      <trkpt lat="47.579693" lon="2.2421916">
        <ele>196</ele>
        <time>2022-05-12T08:48:34Z</time>
      </trkpt>
      <trkpt lat="47.57968" lon="2.2421854">
        <ele>196</ele>
        <time>2022-05-12T08:48:35Z</time>
      </trkpt>
      <trkpt lat="47.57967" lon="2.2421865">
        <ele>196</ele>
        <time>2022-05-12T08:48:36Z</time>
      </trkpt>
      <trkpt lat="47.579662" lon="2.2421832">
        <ele>196</ele>
        <time>2022-05-12T08:48:37Z</time>
      </trkpt>
      <trkpt lat="47.57965" lon="2.242174">
        <ele>196</ele>
        <time>2022-05-12T08:48:38Z</time>
      </trkpt>
      <trkpt lat="47.57964" lon="2.2421699">
        <ele>197</ele>
        <time>2022-05-12T08:48:39Z</time>
      </trkpt>
      <trkpt lat="47.57963" lon="2.2421641">
        <ele>197</ele>
        <time>2022-05-12T08:48:40Z</time>
      </trkpt>
      <trkpt lat="47.579624" lon="2.2421582">
        <ele>197</ele>
        <time>2022-05-12T08:48:41Z</time>
      </trkpt>
      <trkpt lat="47.579613" lon="2.2421498">
        <ele>197</ele>
        <time>2022-05-12T08:48:42Z</time>
      </trkpt>
      <trkpt lat="47.579605" lon="2.2421453">
        <ele>198</ele>
        <time>2022-05-12T08:48:43Z</time>
      </trkpt>
      <trkpt lat="47.579597" lon="2.242135">
        <ele>197</ele>
        <time>2022-05-12T08:48:44Z</time>
      </trkpt>
      <trkpt lat="47.579586" lon="2.2421257">
        <ele>197</ele>
        <time>2022-05-12T08:48:45Z</time>
      </trkpt>
      <trkpt lat="47.579575" lon="2.2421172">
        <ele>197</ele>
        <time>2022-05-12T08:48:46Z</time>
      </trkpt>
      <trkpt lat="47.579563" lon="2.2421138">
        <ele>197</ele>
        <time>2022-05-12T08:48:47Z</time>
      </trkpt>
      <trkpt lat="47.579556" lon="2.2421148">
        <ele>196</ele>
        <time>2022-05-12T08:48:48Z</time>
      </trkpt>
      <trkpt lat="47.579548" lon="2.2421134">
        <ele>196</ele>
        <time>2022-05-12T08:48:49Z</time>
      </trkpt>
      <trkpt lat="47.579548" lon="2.2421134">
        <ele>196</ele>
        <time>2022-05-12T08:48:50Z</time>
      </trkpt>
      <trkpt lat="47.579548" lon="2.2421134">
        <ele>196</ele>
        <time>2022-05-12T08:48:51Z</time>
      </trkpt>
      <trkpt lat="47.57953" lon="2.2421007">
        <ele>195</ele>
        <time>2022-05-12T08:48:52Z</time>
      </trkpt>
      <trkpt lat="47.57952" lon="2.2420928">
        <ele>195</ele>
        <time>2022-05-12T08:48:53Z</time>
      </trkpt>
      <trkpt lat="47.579517" lon="2.2420917">
        <ele>194</ele>
        <time>2022-05-12T08:48:54Z</time>
      </trkpt>
      <trkpt lat="47.579517" lon="2.2420886">
        <ele>195</ele>
        <time>2022-05-12T08:48:55Z</time>
      </trkpt>
      <trkpt lat="47.579517" lon="2.2420886">
        <ele>195</ele>
        <time>2022-05-12T08:48:56Z</time>
      </trkpt>
      <trkpt lat="47.579517" lon="2.2420816">
        <ele>195</ele>
        <time>2022-05-12T08:48:57Z</time>
      </trkpt>
      <trkpt lat="47.579517" lon="2.2420816">
        <ele>195</ele>
        <time>2022-05-12T08:48:58Z</time>
      </trkpt>
      <trkpt lat="47.579517" lon="2.2420816">
        <ele>195</ele>
        <time>2022-05-12T08:48:59Z</time>
      </trkpt>
      <trkpt lat="47.579517" lon="2.2420816">
        <ele>195</ele>
        <time>2022-05-12T08:49:00Z</time>
      </trkpt>
      <trkpt lat="47.579517" lon="2.2420816">
        <ele>195</ele>
        <time>2022-05-12T08:49:01Z</time>
      </trkpt>
      <trkpt lat="47.579517" lon="2.2420816">
        <ele>195</ele>
        <time>2022-05-12T08:49:02Z</time>
      </trkpt>
      <trkpt lat="47.579517" lon="2.2420816">
        <ele>195</ele>
        <time>2022-05-12T08:49:02Z</time>
      </trkpt>
      <trkpt lat="47.579517" lon="2.2420816">
        <ele>195</ele>
        <time>2022-05-12T08:49:02Z</time>
      </trkpt>
      <trkpt lat="47.579483" lon="2.2420053">
        <ele>192</ele>
        <time>2022-05-12T08:49:23Z</time>
      </trkpt>
      <trkpt lat="47.579475" lon="2.242003">
        <ele>192</ele>
        <time>2022-05-12T08:49:24Z</time>
      </trkpt>
      <trkpt lat="47.579464" lon="2.2419944">
        <ele>192</ele>
        <time>2022-05-12T08:49:25Z</time>
      </trkpt>
      <trkpt lat="47.57946" lon="2.2419872">
        <ele>191</ele>
        <time>2022-05-12T08:49:26Z</time>
      </trkpt>
      <trkpt lat="47.579453" lon="2.241978">
        <ele>191</ele>
        <time>2022-05-12T08:49:27Z</time>
      </trkpt>
      <trkpt lat="47.579453" lon="2.2419717">
        <ele>191</ele>
        <time>2022-05-12T08:49:28Z</time>
      </trkpt>
      <trkpt lat="47.57945" lon="2.241961">
        <ele>191</ele>
        <time>2022-05-12T08:49:29Z</time>
      </trkpt>
      <trkpt lat="47.579445" lon="2.2419517">
        <ele>190</ele>
        <time>2022-05-12T08:49:30Z</time>
      </trkpt>
      <trkpt lat="47.57944" lon="2.2419386">
        <ele>190</ele>
        <time>2022-05-12T08:49:31Z</time>
      </trkpt>
      <trkpt lat="47.579433" lon="2.2419298">
        <ele>189</ele>
        <time>2022-05-12T08:49:32Z</time>
      </trkpt>
      <trkpt lat="47.579422" lon="2.241921">
        <ele>190</ele>
        <time>2022-05-12T08:49:33Z</time>
      </trkpt>
      <trkpt lat="47.579414" lon="2.2419112">
        <ele>189</ele>
        <time>2022-05-12T08:49:34Z</time>
      </trkpt>
      <trkpt lat="47.579407" lon="2.2419038">
        <ele>190</ele>
        <time>2022-05-12T08:49:35Z</time>
      </trkpt>
      <trkpt lat="47.5794" lon="2.24189">
        <ele>189</ele>
        <time>2022-05-12T08:49:36Z</time>
      </trkpt>
      <trkpt lat="47.579395" lon="2.2418733">
        <ele>189</ele>
        <time>2022-05-12T08:49:37Z</time>
      </trkpt>
      <trkpt lat="47.57939" lon="2.2418616">
        <ele>189</ele>
        <time>2022-05-12T08:49:38Z</time>
      </trkpt>
      <trkpt lat="47.579384" lon="2.2418513">
        <ele>188</ele>
        <time>2022-05-12T08:49:39Z</time>
      </trkpt>
      <trkpt lat="47.57938" lon="2.2418373">
        <ele>188</ele>
        <time>2022-05-12T08:49:40Z</time>
      </trkpt>
      <trkpt lat="47.579372" lon="2.2418277">
        <ele>188</ele>
        <time>2022-05-12T08:49:41Z</time>
      </trkpt>
      <trkpt lat="47.57937" lon="2.2418172">
        <ele>187</ele>
        <time>2022-05-12T08:49:42Z</time>
      </trkpt>
      <trkpt lat="47.579365" lon="2.2418091">
        <ele>187</ele>
        <time>2022-05-12T08:49:43Z</time>
      </trkpt>
      <trkpt lat="47.579353" lon="2.2418015">
        <ele>187</ele>
        <time>2022-05-12T08:49:44Z</time>
      </trkpt>
      <trkpt lat="47.579346" lon="2.2417867">
        <ele>187</ele>
        <time>2022-05-12T08:49:45Z</time>
      </trkpt>
      <trkpt lat="47.57934" lon="2.241774">
        <ele>187</ele>
        <time>2022-05-12T08:49:46Z</time>
      </trkpt>
      <trkpt lat="47.579334" lon="2.2417667">
        <ele>187</ele>
        <time>2022-05-12T08:49:47Z</time>
      </trkpt>
      <trkpt lat="47.579323" lon="2.2417586">
        <ele>187</ele>
        <time>2022-05-12T08:49:48Z</time>
      </trkpt>
      <trkpt lat="47.57931" lon="2.2417488">
        <ele>187</ele>
        <time>2022-05-12T08:49:49Z</time>
      </trkpt>
      <trkpt lat="47.5793" lon="2.241736">
        <ele>186</ele>
        <time>2022-05-12T08:49:50Z</time>
      </trkpt>
      <trkpt lat="47.579285" lon="2.2417278">
        <ele>187</ele>
        <time>2022-05-12T08:49:51Z</time>
      </trkpt>
      <trkpt lat="47.579277" lon="2.241717">
        <ele>186</ele>
        <time>2022-05-12T08:49:52Z</time>
      </trkpt>
      <trkpt lat="47.579266" lon="2.2417078">
        <ele>186</ele>
        <time>2022-05-12T08:49:53Z</time>
      </trkpt>
      <trkpt lat="47.579258" lon="2.2416966">
        <ele>186</ele>
        <time>2022-05-12T08:49:54Z</time>
      </trkpt>
      <trkpt lat="47.579247" lon="2.2416892">
        <ele>186</ele>
        <time>2022-05-12T08:49:55Z</time>
      </trkpt>
      <trkpt lat="47.57924" lon="2.24168">
        <ele>187</ele>
        <time>2022-05-12T08:49:56Z</time>
      </trkpt>
      <trkpt lat="47.579227" lon="2.2416725">
        <ele>186</ele>
        <time>2022-05-12T08:49:57Z</time>
      </trkpt>
      <trkpt lat="47.57922" lon="2.2416615">
        <ele>186</ele>
        <time>2022-05-12T08:49:58Z</time>
      </trkpt>
      <trkpt lat="47.579212" lon="2.2416537">
        <ele>186</ele>
        <time>2022-05-12T08:49:59Z</time>
      </trkpt>
      <trkpt lat="47.5792" lon="2.2416456">
        <ele>186</ele>
        <time>2022-05-12T08:50:00Z</time>
      </trkpt>
      <trkpt lat="47.579193" lon="2.2416332">
        <ele>186</ele>
        <time>2022-05-12T08:50:01Z</time>
      </trkpt>
      <trkpt lat="47.579185" lon="2.241621">
        <ele>186</ele>
        <time>2022-05-12T08:50:02Z</time>
      </trkpt>
      <trkpt lat="47.57918" lon="2.2415986">
        <ele>186</ele>
        <time>2022-05-12T08:50:03Z</time>
      </trkpt>
      <trkpt lat="47.579178" lon="2.241583">
        <ele>186</ele>
        <time>2022-05-12T08:50:04Z</time>
      </trkpt>
      <trkpt lat="47.579174" lon="2.241568">
        <ele>186</ele>
        <time>2022-05-12T08:50:05Z</time>
      </trkpt>
      <trkpt lat="47.579166" lon="2.2415538">
        <ele>186</ele>
        <time>2022-05-12T08:50:06Z</time>
      </trkpt>
      <trkpt lat="47.57916" lon="2.24154">
        <ele>186</ele>
        <time>2022-05-12T08:50:07Z</time>
      </trkpt>
      <trkpt lat="47.57915" lon="2.241523">
        <ele>186</ele>
        <time>2022-05-12T08:50:08Z</time>
      </trkpt>
      <trkpt lat="47.579147" lon="2.241505">
        <ele>186</ele>
        <time>2022-05-12T08:50:09Z</time>
      </trkpt>
      <trkpt lat="47.57914" lon="2.2414925">
        <ele>186</ele>
        <time>2022-05-12T08:50:10Z</time>
      </trkpt>
      <trkpt lat="47.579136" lon="2.2414818">
        <ele>186</ele>
        <time>2022-05-12T08:50:11Z</time>
      </trkpt>
      <trkpt lat="47.579124" lon="2.2414727">
        <ele>185</ele>
        <time>2022-05-12T08:50:12Z</time>
      </trkpt>
      <trkpt lat="47.579117" lon="2.2414608">
        <ele>185</ele>
        <time>2022-05-12T08:50:13Z</time>
      </trkpt>
      <trkpt lat="47.57911" lon="2.2414498">
        <ele>185</ele>
        <time>2022-05-12T08:50:14Z</time>
      </trkpt>
      <trkpt lat="47.5791" lon="2.2414398">
        <ele>185</ele>
        <time>2022-05-12T08:50:15Z</time>
      </trkpt>
      <trkpt lat="47.57909" lon="2.2414277">
        <ele>185</ele>
        <time>2022-05-12T08:50:16Z</time>
      </trkpt>
      <trkpt lat="47.579086" lon="2.2414188">
        <ele>185</ele>
        <time>2022-05-12T08:50:17Z</time>
      </trkpt>
      <trkpt lat="47.57908" lon="2.2414107">
        <ele>185</ele>
        <time>2022-05-12T08:50:18Z</time>
      </trkpt>
      <trkpt lat="47.579075" lon="2.2414012">
        <ele>187</ele>
        <time>2022-05-12T08:50:19Z</time>
      </trkpt>
      <trkpt lat="47.579067" lon="2.2413888">
        <ele>188</ele>
        <time>2022-05-12T08:50:20Z</time>
      </trkpt>
      <trkpt lat="47.57906" lon="2.2413774">
        <ele>188</ele>
        <time>2022-05-12T08:50:21Z</time>
      </trkpt>
      <trkpt lat="47.579052" lon="2.2413676">
        <ele>188</ele>
        <time>2022-05-12T08:50:22Z</time>
      </trkpt>
      <trkpt lat="47.57905" lon="2.2413554">
        <ele>189</ele>
        <time>2022-05-12T08:50:23Z</time>
      </trkpt>
      <trkpt lat="47.57904" lon="2.2413435">
        <ele>189</ele>
        <time>2022-05-12T08:50:24Z</time>
      </trkpt>
      <trkpt lat="47.579037" lon="2.2413309">
        <ele>189</ele>
        <time>2022-05-12T08:50:25Z</time>
      </trkpt>
      <trkpt lat="47.579033" lon="2.2413185">
        <ele>190</ele>
        <time>2022-05-12T08:50:26Z</time>
      </trkpt>
      <trkpt lat="47.579025" lon="2.2413042">
        <ele>189</ele>
        <time>2022-05-12T08:50:27Z</time>
      </trkpt>
      <trkpt lat="47.579018" lon="2.241292">
        <ele>189</ele>
        <time>2022-05-12T08:50:28Z</time>
      </trkpt>
      <trkpt lat="47.57901" lon="2.2412798">
        <ele>189</ele>
        <time>2022-05-12T08:50:29Z</time>
      </trkpt>
      <trkpt lat="47.579002" lon="2.241264">
        <ele>190</ele>
        <time>2022-05-12T08:50:30Z</time>
      </trkpt>
      <trkpt lat="47.578995" lon="2.2412539">
        <ele>189</ele>
        <time>2022-05-12T08:50:31Z</time>
      </trkpt>
      <trkpt lat="47.578987" lon="2.2412448">
        <ele>189</ele>
        <time>2022-05-12T08:50:32Z</time>
      </trkpt>
      <trkpt lat="47.578976" lon="2.2412333">
        <ele>189</ele>
        <time>2022-05-12T08:50:33Z</time>
      </trkpt>
      <trkpt lat="47.57897" lon="2.2412198">
        <ele>188</ele>
        <time>2022-05-12T08:50:34Z</time>
      </trkpt>
      <trkpt lat="47.578964" lon="2.2412102">
        <ele>188</ele>
        <time>2022-05-12T08:50:35Z</time>
      </trkpt>
      <trkpt lat="47.578953" lon="2.2412019">
        <ele>188</ele>
        <time>2022-05-12T08:50:36Z</time>
      </trkpt>
      <trkpt lat="47.57895" lon="2.2411895">
        <ele>188</ele>
        <time>2022-05-12T08:50:37Z</time>
      </trkpt>
      <trkpt lat="47.578945" lon="2.2411723">
        <ele>187</ele>
        <time>2022-05-12T08:50:38Z</time>
      </trkpt>
      <trkpt lat="47.578938" lon="2.241158">
        <ele>187</ele>
        <time>2022-05-12T08:50:39Z</time>
      </trkpt>
      <trkpt lat="47.578934" lon="2.2411408">
        <ele>187</ele>
        <time>2022-05-12T08:50:40Z</time>
      </trkpt>
      <trkpt lat="47.57893" lon="2.2411246">
        <ele>187</ele>
        <time>2022-05-12T08:50:41Z</time>
      </trkpt>
      <trkpt lat="47.578922" lon="2.2411127">
        <ele>187</ele>
        <time>2022-05-12T08:50:42Z</time>
      </trkpt>
      <trkpt lat="47.57892" lon="2.2410989">
        <ele>186</ele>
        <time>2022-05-12T08:50:43Z</time>
      </trkpt>
      <trkpt lat="47.578915" lon="2.2410908">
        <ele>186</ele>
        <time>2022-05-12T08:50:44Z</time>
      </trkpt>
      <trkpt lat="47.57891" lon="2.2410784">
        <ele>186</ele>
        <time>2022-05-12T08:50:45Z</time>
      </trkpt>
      <trkpt lat="47.578907" lon="2.2410734">
        <ele>187</ele>
        <time>2022-05-12T08:50:46Z</time>
      </trkpt>
      <trkpt lat="47.578903" lon="2.24106">
        <ele>186</ele>
        <time>2022-05-12T08:50:47Z</time>
      </trkpt>
      <trkpt lat="47.5789" lon="2.241047">
        <ele>186</ele>
        <time>2022-05-12T08:50:48Z</time>
      </trkpt>
      <trkpt lat="47.5789" lon="2.2410307">
        <ele>186</ele>
        <time>2022-05-12T08:50:49Z</time>
      </trkpt>
      <trkpt lat="47.578896" lon="2.2410202">
        <ele>186</ele>
        <time>2022-05-12T08:50:50Z</time>
      </trkpt>
      <trkpt lat="47.578888" lon="2.241003">
        <ele>186</ele>
        <time>2022-05-12T08:50:51Z</time>
      </trkpt>
      <trkpt lat="47.578888" lon="2.240991">
        <ele>185</ele>
        <time>2022-05-12T08:50:52Z</time>
      </trkpt>
      <trkpt lat="47.57888" lon="2.2409763">
        <ele>185</ele>
        <time>2022-05-12T08:50:53Z</time>
      </trkpt>
      <trkpt lat="47.578873" lon="2.2409616">
        <ele>185</ele>
        <time>2022-05-12T08:50:54Z</time>
      </trkpt>
      <trkpt lat="47.578865" lon="2.2409496">
        <ele>186</ele>
        <time>2022-05-12T08:50:55Z</time>
      </trkpt>
      <trkpt lat="47.578857" lon="2.2409382">
        <ele>186</ele>
        <time>2022-05-12T08:50:56Z</time>
      </trkpt>
      <trkpt lat="47.57885" lon="2.2409277">
        <ele>186</ele>
        <time>2022-05-12T08:50:57Z</time>
      </trkpt>
      <trkpt lat="47.578842" lon="2.2409198">
        <ele>186</ele>
        <time>2022-05-12T08:50:58Z</time>
      </trkpt>
      <trkpt lat="47.578835" lon="2.2409074">
        <ele>186</ele>
        <time>2022-05-12T08:50:59Z</time>
      </trkpt>
      <trkpt lat="47.57883" lon="2.2408936">
        <ele>186</ele>
        <time>2022-05-12T08:51:00Z</time>
      </trkpt>
      <trkpt lat="47.57883" lon="2.2408824">
        <ele>186</ele>
        <time>2022-05-12T08:51:01Z</time>
      </trkpt>
      <trkpt lat="47.578823" lon="2.2408667">
        <ele>185</ele>
        <time>2022-05-12T08:51:02Z</time>
      </trkpt>
      <trkpt lat="47.578815" lon="2.2408493">
        <ele>185</ele>
        <time>2022-05-12T08:51:03Z</time>
      </trkpt>
      <trkpt lat="47.578808" lon="2.2408369">
        <ele>185</ele>
        <time>2022-05-12T08:51:04Z</time>
      </trkpt>
      <trkpt lat="47.578804" lon="2.2408211">
        <ele>185</ele>
        <time>2022-05-12T08:51:05Z</time>
      </trkpt>
      <trkpt lat="47.5788" lon="2.2408001">
        <ele>185</ele>
        <time>2022-05-12T08:51:06Z</time>
      </trkpt>
      <trkpt lat="47.578796" lon="2.2407827">
        <ele>184</ele>
        <time>2022-05-12T08:51:07Z</time>
      </trkpt>
      <trkpt lat="47.57879" lon="2.2407668">
        <ele>184</ele>
        <time>2022-05-12T08:51:08Z</time>
      </trkpt>
      <trkpt lat="47.57878" lon="2.2407537">
        <ele>184</ele>
        <time>2022-05-12T08:51:09Z</time>
      </trkpt>
      <trkpt lat="47.578777" lon="2.2407403">
        <ele>184</ele>
        <time>2022-05-12T08:51:10Z</time>
      </trkpt>
      <trkpt lat="47.578773" lon="2.2407286">
        <ele>185</ele>
        <time>2022-05-12T08:51:11Z</time>
      </trkpt>
      <trkpt lat="47.578766" lon="2.240716">
        <ele>185</ele>
        <time>2022-05-12T08:51:12Z</time>
      </trkpt>
      <trkpt lat="47.578762" lon="2.2407055">
        <ele>185</ele>
        <time>2022-05-12T08:51:13Z</time>
      </trkpt>
      <trkpt lat="47.578754" lon="2.2406988">
        <ele>185</ele>
        <time>2022-05-12T08:51:14Z</time>
      </trkpt>
      <trkpt lat="47.578743" lon="2.240694">
        <ele>186</ele>
        <time>2022-05-12T08:51:15Z</time>
      </trkpt>
      <trkpt lat="47.57874" lon="2.240682">
        <ele>186</ele>
        <time>2022-05-12T08:51:16Z</time>
      </trkpt>
      <trkpt lat="47.57873" lon="2.2406669">
        <ele>186</ele>
        <time>2022-05-12T08:51:17Z</time>
      </trkpt>
      <trkpt lat="47.578724" lon="2.240655">
        <ele>186</ele>
        <time>2022-05-12T08:51:18Z</time>
      </trkpt>
      <trkpt lat="47.57872" lon="2.2406425">
        <ele>186</ele>
        <time>2022-05-12T08:51:19Z</time>
      </trkpt>
      <trkpt lat="47.578712" lon="2.2406278">
        <ele>187</ele>
        <time>2022-05-12T08:51:20Z</time>
      </trkpt>
      <trkpt lat="47.57871" lon="2.2406144">
        <ele>187</ele>
        <time>2022-05-12T08:51:21Z</time>
      </trkpt>
      <trkpt lat="47.5787" lon="2.240602">
        <ele>186</ele>
        <time>2022-05-12T08:51:22Z</time>
      </trkpt>
      <trkpt lat="47.578697" lon="2.240588">
        <ele>186</ele>
        <time>2022-05-12T08:51:23Z</time>
      </trkpt>
      <trkpt lat="47.57869" lon="2.2405794">
        <ele>186</ele>
        <time>2022-05-12T08:51:24Z</time>
      </trkpt>
      <trkpt lat="47.57868" lon="2.2405674">
        <ele>187</ele>
        <time>2022-05-12T08:51:25Z</time>
      </trkpt>
      <trkpt lat="47.57867" lon="2.2405558">
        <ele>187</ele>
        <time>2022-05-12T08:51:26Z</time>
      </trkpt>
      <trkpt lat="47.578663" lon="2.2405424">
        <ele>187</ele>
        <time>2022-05-12T08:51:27Z</time>
      </trkpt>
      <trkpt lat="47.57865" lon="2.2405305">
        <ele>188</ele>
        <time>2022-05-12T08:51:28Z</time>
      </trkpt>
      <trkpt lat="47.578648" lon="2.2405143">
        <ele>188</ele>
        <time>2022-05-12T08:51:29Z</time>
      </trkpt>
      <trkpt lat="47.57864" lon="2.2404976">
        <ele>188</ele>
        <time>2022-05-12T08:51:30Z</time>
      </trkpt>
      <trkpt lat="47.578632" lon="2.2404811">
        <ele>188</ele>
        <time>2022-05-12T08:51:31Z</time>
      </trkpt>
      <trkpt lat="47.578625" lon="2.2404642">
        <ele>189</ele>
        <time>2022-05-12T08:51:32Z</time>
      </trkpt>
      <trkpt lat="47.578617" lon="2.2404444">
        <ele>188</ele>
        <time>2022-05-12T08:51:33Z</time>
      </trkpt>
      <trkpt lat="47.578613" lon="2.2404308">
        <ele>188</ele>
        <time>2022-05-12T08:51:34Z</time>
      </trkpt>
      <trkpt lat="47.578606" lon="2.2404158">
        <ele>187</ele>
        <time>2022-05-12T08:51:35Z</time>
      </trkpt>
      <trkpt lat="47.5786" lon="2.2404032">
        <ele>186</ele>
        <time>2022-05-12T08:51:36Z</time>
      </trkpt>
      <trkpt lat="47.578598" lon="2.240392">
        <ele>186</ele>
        <time>2022-05-12T08:51:37Z</time>
      </trkpt>
      <trkpt lat="47.57859" lon="2.2403815">
        <ele>186</ele>
        <time>2022-05-12T08:51:38Z</time>
      </trkpt>
      <trkpt lat="47.578587" lon="2.2403677">
        <ele>186</ele>
        <time>2022-05-12T08:51:39Z</time>
      </trkpt>
      <trkpt lat="47.578575" lon="2.2403562">
        <ele>186</ele>
        <time>2022-05-12T08:51:40Z</time>
      </trkpt>
      <trkpt lat="47.578564" lon="2.2403436">
        <ele>186</ele>
        <time>2022-05-12T08:51:41Z</time>
      </trkpt>
      <trkpt lat="47.578556" lon="2.240333">
        <ele>186</ele>
        <time>2022-05-12T08:51:42Z</time>
      </trkpt>
      <trkpt lat="47.578552" lon="2.2403178">
        <ele>186</ele>
        <time>2022-05-12T08:51:43Z</time>
      </trkpt>
      <trkpt lat="47.57855" lon="2.2403033">
        <ele>186</ele>
        <time>2022-05-12T08:51:44Z</time>
      </trkpt>
      <trkpt lat="47.578545" lon="2.240289">
        <ele>186</ele>
        <time>2022-05-12T08:51:45Z</time>
      </trkpt>
      <trkpt lat="47.57854" lon="2.240273">
        <ele>186</ele>
        <time>2022-05-12T08:51:46Z</time>
      </trkpt>
      <trkpt lat="47.578537" lon="2.240257">
        <ele>185</ele>
        <time>2022-05-12T08:51:47Z</time>
      </trkpt>
      <trkpt lat="47.57853" lon="2.2402396">
        <ele>185</ele>
        <time>2022-05-12T08:51:48Z</time>
      </trkpt>
      <trkpt lat="47.57852" lon="2.2402248">
        <ele>185</ele>
        <time>2022-05-12T08:51:49Z</time>
      </trkpt>
      <trkpt lat="47.578514" lon="2.2402136">
        <ele>185</ele>
        <time>2022-05-12T08:51:50Z</time>
      </trkpt>
      <trkpt lat="47.578506" lon="2.240203">
        <ele>185</ele>
        <time>2022-05-12T08:51:51Z</time>
      </trkpt>
      <trkpt lat="47.578503" lon="2.2401896">
        <ele>185</ele>
        <time>2022-05-12T08:51:52Z</time>
      </trkpt>
      <trkpt lat="47.578495" lon="2.2401772">
        <ele>185</ele>
        <time>2022-05-12T08:51:53Z</time>
      </trkpt>
      <trkpt lat="47.57849" lon="2.2401648">
        <ele>185</ele>
        <time>2022-05-12T08:51:54Z</time>
      </trkpt>
      <trkpt lat="47.578487" lon="2.240149">
        <ele>185</ele>
        <time>2022-05-12T08:51:55Z</time>
      </trkpt>
      <trkpt lat="47.578484" lon="2.2401307">
        <ele>186</ele>
        <time>2022-05-12T08:51:56Z</time>
      </trkpt>
      <trkpt lat="47.578476" lon="2.2401145">
        <ele>185</ele>
        <time>2022-05-12T08:51:57Z</time>
      </trkpt>
      <trkpt lat="47.578472" lon="2.240097">
        <ele>185</ele>
        <time>2022-05-12T08:51:58Z</time>
      </trkpt>
      <trkpt lat="47.57847" lon="2.2400813">
        <ele>185</ele>
        <time>2022-05-12T08:51:59Z</time>
      </trkpt>
      <trkpt lat="47.578457" lon="2.2400675">
        <ele>186</ele>
        <time>2022-05-12T08:52:00Z</time>
      </trkpt>
      <trkpt lat="47.57845" lon="2.2400525">
        <ele>186</ele>
        <time>2022-05-12T08:52:01Z</time>
      </trkpt>
      <trkpt lat="47.57844" lon="2.2400389">
        <ele>186</ele>
        <time>2022-05-12T08:52:02Z</time>
      </trkpt>
      <trkpt lat="47.578434" lon="2.2400227">
        <ele>187</ele>
        <time>2022-05-12T08:52:03Z</time>
      </trkpt>
      <trkpt lat="47.57843" lon="2.2400079">
        <ele>186</ele>
        <time>2022-05-12T08:52:04Z</time>
      </trkpt>
      <trkpt lat="47.578426" lon="2.2399979">
        <ele>186</ele>
        <time>2022-05-12T08:52:05Z</time>
      </trkpt>
      <trkpt lat="47.578415" lon="2.2399867">
        <ele>187</ele>
        <time>2022-05-12T08:52:06Z</time>
      </trkpt>
      <trkpt lat="47.57841" lon="2.239973">
        <ele>187</ele>
        <time>2022-05-12T08:52:07Z</time>
      </trkpt>
      <trkpt lat="47.578403" lon="2.2399647">
        <ele>186</ele>
        <time>2022-05-12T08:52:08Z</time>
      </trkpt>
      <trkpt lat="47.578396" lon="2.2399535">
        <ele>186</ele>
        <time>2022-05-12T08:52:09Z</time>
      </trkpt>
      <trkpt lat="47.57839" lon="2.2399397">
        <ele>186</ele>
        <time>2022-05-12T08:52:10Z</time>
      </trkpt>
      <trkpt lat="47.57838" lon="2.2399275">
        <ele>185</ele>
        <time>2022-05-12T08:52:11Z</time>
      </trkpt>
      <trkpt lat="47.57837" lon="2.2399147">
        <ele>186</ele>
        <time>2022-05-12T08:52:12Z</time>
      </trkpt>
      <trkpt lat="47.57836" lon="2.2399015">
        <ele>185</ele>
        <time>2022-05-12T08:52:13Z</time>
      </trkpt>
      <trkpt lat="47.578354" lon="2.2398922">
        <ele>186</ele>
        <time>2022-05-12T08:52:14Z</time>
      </trkpt>
      <trkpt lat="47.578342" lon="2.2398832">
        <ele>186</ele>
        <time>2022-05-12T08:52:15Z</time>
      </trkpt>
      <trkpt lat="47.57834" lon="2.2398705">
        <ele>186</ele>
        <time>2022-05-12T08:52:16Z</time>
      </trkpt>
      <trkpt lat="47.578335" lon="2.2398555">
        <ele>186</ele>
        <time>2022-05-12T08:52:17Z</time>
      </trkpt>
      <trkpt lat="47.578335" lon="2.2398443">
        <ele>186</ele>
        <time>2022-05-12T08:52:18Z</time>
      </trkpt>
      <trkpt lat="47.57833" lon="2.2398314">
        <ele>186</ele>
        <time>2022-05-12T08:52:19Z</time>
      </trkpt>
      <trkpt lat="47.578323" lon="2.2398188">
        <ele>187</ele>
        <time>2022-05-12T08:52:20Z</time>
      </trkpt>
      <trkpt lat="47.578312" lon="2.2398071">
        <ele>187</ele>
        <time>2022-05-12T08:52:21Z</time>
      </trkpt>
      <trkpt lat="47.5783" lon="2.2397933">
        <ele>188</ele>
        <time>2022-05-12T08:52:22Z</time>
      </trkpt>
      <trkpt lat="47.578293" lon="2.2397776">
        <ele>188</ele>
        <time>2022-05-12T08:52:23Z</time>
      </trkpt>
      <trkpt lat="47.57829" lon="2.2397606">
        <ele>188</ele>
        <time>2022-05-12T08:52:24Z</time>
      </trkpt>
      <trkpt lat="47.57828" lon="2.2397506">
        <ele>188</ele>
        <time>2022-05-12T08:52:25Z</time>
      </trkpt>
      <trkpt lat="47.578274" lon="2.2397377">
        <ele>187</ele>
        <time>2022-05-12T08:52:26Z</time>
      </trkpt>
      <trkpt lat="47.578266" lon="2.239725">
        <ele>187</ele>
        <time>2022-05-12T08:52:27Z</time>
      </trkpt>
      <trkpt lat="47.578262" lon="2.239711">
        <ele>187</ele>
        <time>2022-05-12T08:52:28Z</time>
      </trkpt>
      <trkpt lat="47.57826" lon="2.2397015">
        <ele>187</ele>
        <time>2022-05-12T08:52:29Z</time>
      </trkpt>
      <trkpt lat="47.57825" lon="2.2396905">
        <ele>187</ele>
        <time>2022-05-12T08:52:30Z</time>
      </trkpt>
      <trkpt lat="47.578247" lon="2.239678">
        <ele>186</ele>
        <time>2022-05-12T08:52:31Z</time>
      </trkpt>
      <trkpt lat="47.57824" lon="2.2396674">
        <ele>186</ele>
        <time>2022-05-12T08:52:32Z</time>
      </trkpt>
      <trkpt lat="47.578228" lon="2.2396533">
        <ele>186</ele>
        <time>2022-05-12T08:52:33Z</time>
      </trkpt>
      <trkpt lat="47.578217" lon="2.2396414">
        <ele>185</ele>
        <time>2022-05-12T08:52:34Z</time>
      </trkpt>
      <trkpt lat="47.578213" lon="2.2396252">
        <ele>185</ele>
        <time>2022-05-12T08:52:35Z</time>
      </trkpt>
      <trkpt lat="47.57821" lon="2.23961">
        <ele>185</ele>
        <time>2022-05-12T08:52:36Z</time>
      </trkpt>
      <trkpt lat="47.578205" lon="2.2395968">
        <ele>184</ele>
        <time>2022-05-12T08:52:37Z</time>
      </trkpt>
      <trkpt lat="47.578197" lon="2.2395813">
        <ele>184</ele>
        <time>2022-05-12T08:52:38Z</time>
      </trkpt>
      <trkpt lat="47.578194" lon="2.2395651">
        <ele>184</ele>
        <time>2022-05-12T08:52:39Z</time>
      </trkpt>
      <trkpt lat="47.578186" lon="2.2395515">
        <ele>184</ele>
        <time>2022-05-12T08:52:40Z</time>
      </trkpt>
      <trkpt lat="47.578182" lon="2.2395422">
        <ele>184</ele>
        <time>2022-05-12T08:52:41Z</time>
      </trkpt>
      <trkpt lat="47.578175" lon="2.2395363">
        <ele>184</ele>
        <time>2022-05-12T08:52:42Z</time>
      </trkpt>
      <trkpt lat="47.57817" lon="2.239527">
        <ele>186</ele>
        <time>2022-05-12T08:52:43Z</time>
      </trkpt>
      <trkpt lat="47.57817" lon="2.2395205">
        <ele>187</ele>
        <time>2022-05-12T08:52:44Z</time>
      </trkpt>
      <trkpt lat="47.578163" lon="2.2395172">
        <ele>189</ele>
        <time>2022-05-12T08:52:45Z</time>
      </trkpt>
      <trkpt lat="47.57815" lon="2.2395105">
        <ele>190</ele>
        <time>2022-05-12T08:52:46Z</time>
      </trkpt>
      <trkpt lat="47.578144" lon="2.2395005">
        <ele>191</ele>
        <time>2022-05-12T08:52:47Z</time>
      </trkpt>
      <trkpt lat="47.57814" lon="2.239498">
        <ele>191</ele>
        <time>2022-05-12T08:52:48Z</time>
      </trkpt>
      <trkpt lat="47.578136" lon="2.2394986">
        <ele>192</ele>
        <time>2022-05-12T08:52:49Z</time>
      </trkpt>
      <trkpt lat="47.57813" lon="2.239498">
        <ele>192</ele>
        <time>2022-05-12T08:52:50Z</time>
      </trkpt>
      <trkpt lat="47.57812" lon="2.2394917">
        <ele>192</ele>
        <time>2022-05-12T08:52:51Z</time>
      </trkpt>
      <trkpt lat="47.578117" lon="2.2394793">
        <ele>192</ele>
        <time>2022-05-12T08:52:52Z</time>
      </trkpt>
      <trkpt lat="47.578114" lon="2.2394624">
        <ele>193</ele>
        <time>2022-05-12T08:52:53Z</time>
      </trkpt>
      <trkpt lat="47.578106" lon="2.2394495">
        <ele>194</ele>
        <time>2022-05-12T08:52:54Z</time>
      </trkpt>
      <trkpt lat="47.578106" lon="2.239433">
        <ele>195</ele>
        <time>2022-05-12T08:52:55Z</time>
      </trkpt>
      <trkpt lat="47.578102" lon="2.2394264">
        <ele>195</ele>
        <time>2022-05-12T08:52:56Z</time>
      </trkpt>
      <trkpt lat="47.578094" lon="2.239415">
        <ele>196</ele>
        <time>2022-05-12T08:52:57Z</time>
      </trkpt>
      <trkpt lat="47.578094" lon="2.2394006">
        <ele>196</ele>
        <time>2022-05-12T08:52:58Z</time>
      </trkpt>
      <trkpt lat="47.57809" lon="2.2393854">
        <ele>196</ele>
        <time>2022-05-12T08:52:59Z</time>
      </trkpt>
      <trkpt lat="47.578083" lon="2.2393684">
        <ele>196</ele>
        <time>2022-05-12T08:53:00Z</time>
      </trkpt>
      <trkpt lat="47.57808" lon="2.239354">
        <ele>197</ele>
        <time>2022-05-12T08:53:01Z</time>
      </trkpt>
      <trkpt lat="47.57807" lon="2.2393405">
        <ele>198</ele>
        <time>2022-05-12T08:53:02Z</time>
      </trkpt>
      <trkpt lat="47.578064" lon="2.239337">
        <ele>198</ele>
        <time>2022-05-12T08:53:03Z</time>
      </trkpt>
      <trkpt lat="47.57806" lon="2.2393346">
        <ele>198</ele>
        <time>2022-05-12T08:53:04Z</time>
      </trkpt>
      <trkpt lat="47.578053" lon="2.239329">
        <ele>198</ele>
        <time>2022-05-12T08:53:05Z</time>
      </trkpt>
      <trkpt lat="47.57805" lon="2.2393248">
        <ele>198</ele>
        <time>2022-05-12T08:53:06Z</time>
      </trkpt>
      <trkpt lat="47.578045" lon="2.2393157">
        <ele>199</ele>
        <time>2022-05-12T08:53:07Z</time>
      </trkpt>
      <trkpt lat="47.57804" lon="2.2393062">
        <ele>200</ele>
        <time>2022-05-12T08:53:08Z</time>
      </trkpt>
      <trkpt lat="47.578037" lon="2.2392938">
        <ele>200</ele>
        <time>2022-05-12T08:53:09Z</time>
      </trkpt>
      <trkpt lat="47.57803" lon="2.239283">
        <ele>201</ele>
        <time>2022-05-12T08:53:10Z</time>
      </trkpt>
      <trkpt lat="47.578022" lon="2.239267">
        <ele>201</ele>
        <time>2022-05-12T08:53:11Z</time>
      </trkpt>
      <trkpt lat="47.57802" lon="2.2392533">
        <ele>201</ele>
        <time>2022-05-12T08:53:12Z</time>
      </trkpt>
      <trkpt lat="47.57801" lon="2.239237">
        <ele>201</ele>
        <time>2022-05-12T08:53:13Z</time>
      </trkpt>
      <trkpt lat="47.578007" lon="2.2392244">
        <ele>201</ele>
        <time>2022-05-12T08:53:14Z</time>
      </trkpt>
      <trkpt lat="47.578" lon="2.239208">
        <ele>202</ele>
        <time>2022-05-12T08:53:15Z</time>
      </trkpt>
      <trkpt lat="47.57799" lon="2.239192">
        <ele>202</ele>
        <time>2022-05-12T08:53:16Z</time>
      </trkpt>
      <trkpt lat="47.577988" lon="2.239176">
        <ele>202</ele>
        <time>2022-05-12T08:53:17Z</time>
      </trkpt>
      <trkpt lat="47.57798" lon="2.239161">
        <ele>202</ele>
        <time>2022-05-12T08:53:18Z</time>
      </trkpt>
      <trkpt lat="47.577972" lon="2.239147">
        <ele>202</ele>
        <time>2022-05-12T08:53:19Z</time>
      </trkpt>
      <trkpt lat="47.57797" lon="2.2391326">
        <ele>202</ele>
        <time>2022-05-12T08:53:20Z</time>
      </trkpt>
      <trkpt lat="47.57796" lon="2.2391174">
        <ele>202</ele>
        <time>2022-05-12T08:53:21Z</time>
      </trkpt>
      <trkpt lat="47.57796" lon="2.2391174">
        <ele>156.25</ele>
        <time>2022-05-12T08:53:21Z</time>
      </trkpt>
      <trkpt lat="47.57777364" lon="2.23851077">
        <ele>153.55</ele>
        <time>2022-05-12T08:54:01Z</time>
      </trkpt>
      <trkpt lat="47.57770025" lon="2.23827186">
        <ele>153.15</ele>
        <time>2022-05-12T08:54:16Z</time>
      </trkpt>
      <trkpt lat="47.57771602" lon="2.2376057">
        <ele>157.28</ele>
        <time>2022-05-12T08:54:56Z</time>
      </trkpt>
      <trkpt lat="47.57772245" lon="2.23733402">
        <ele>159.27</ele>
        <time>2022-05-12T08:55:12Z</time>
      </trkpt>
      <trkpt lat="47.57772245" lon="2.23733402">
        <ele>159.27</ele>
        <time>2022-05-12T08:55:12Z</time>
      </trkpt>
      <trkpt lat="47.57789572" lon="2.23671893">
        <ele>161.38</ele>
        <time>2022-05-12T08:55:49Z</time>
      </trkpt>
      <trkpt lat="47.57806899" lon="2.23610383">
        <ele>159.71</ele>
        <time>2022-05-12T08:56:29Z</time>
      </trkpt>
      <trkpt lat="47.57824226" lon="2.23548873">
        <ele>158.68</ele>
        <time>2022-05-12T08:57:09Z</time>
      </trkpt>
      <trkpt lat="47.57841553" lon="2.23487363">
        <ele>157.58</ele>
        <time>2022-05-12T08:57:48Z</time>
      </trkpt>
      <trkpt lat="47.57842539" lon="2.23483862">
        <ele>157.54</ele>
        <time>2022-05-12T08:57:51Z</time>
      </trkpt>
      <trkpt lat="47.57842539" lon="2.23483862">
        <ele>157.54</ele>
        <time>2022-05-12T08:57:51Z</time>
      </trkpt>
      <trkpt lat="47.57836759" lon="2.23417757">
        <ele>158.83</ele>
        <time>2022-05-12T08:58:38Z</time>
      </trkpt>
      <trkpt lat="47.5783218" lon="2.23365398">
        <ele>158.57</ele>
        <time>2022-05-12T08:59:07Z</time>
      </trkpt>
      <trkpt lat="47.5783218" lon="2.23365398">
        <ele>158.57</ele>
        <time>2022-05-12T08:59:07Z</time>
      </trkpt>
      <trkpt lat="47.57811044" lon="2.23306564">
        <ele>155.38</ele>
        <time>2022-05-12T08:59:58Z</time>
      </trkpt>
      <trkpt lat="47.57789907" lon="2.2324773">
        <ele>153.93</ele>
        <time>2022-05-12T09:00:36Z</time>
      </trkpt>
      <trkpt lat="47.577744" lon="2.23204567">
        <ele>153.33</ele>
        <time>2022-05-12T09:01:03Z</time>
      </trkpt>
      <trkpt lat="47.577744" lon="2.23204567">
        <ele>153.33</ele>
        <time>2022-05-12T09:01:03Z</time>
      </trkpt>
      <trkpt lat="47.57753915" lon="2.23145229">
        <ele>154.05</ele>
        <time>2022-05-12T09:01:48Z</time>
      </trkpt>
      <trkpt lat="47.57742212" lon="2.23111331">
        <ele>154.56</ele>
        <time>2022-05-12T09:02:10Z</time>
      </trkpt>
      <trkpt lat="47.57742212" lon="2.23111331">
        <ele>154.56</ele>
        <time>2022-05-12T09:02:10Z</time>
      </trkpt>
      <trkpt lat="47.57717794" lon="2.23068005">
        <ele>155.28</ele>
        <time>2022-05-12T09:02:42Z</time>
      </trkpt>
      <trkpt lat="47.57717794" lon="2.23068005">
        <ele>155.28</ele>
        <time>2022-05-12T09:02:42Z</time>
      </trkpt>
      <trkpt lat="47.57679617" lon="2.23032787">
        <ele>154.53</ele>
        <time>2022-05-12T09:03:20Z</time>
      </trkpt>
      <trkpt lat="47.57656148" lon="2.23011138">
        <ele>153.8</ele>
        <time>2022-05-12T09:03:44Z</time>
      </trkpt>
      <trkpt lat="47.57656148" lon="2.23011138">
        <ele>153.8</ele>
        <time>2022-05-12T09:03:44Z</time>
      </trkpt>
      <trkpt lat="47.57656148" lon="2.23011138">
        <ele>153.8</ele>
        <time>2022-05-12T09:03:56Z</time>
      </trkpt>
      <trkpt lat="47.57617648" lon="2.22995215">
        <ele>152.78</ele>
        <time>2022-05-12T09:04:31Z</time>
      </trkpt>
      <trkpt lat="47.57572882" lon="2.22988937">
        <ele>152.97</ele>
        <time>2022-05-12T09:05:11Z</time>
      </trkpt>
      <trkpt lat="47.57551325" lon="2.22985913">
        <ele>153.93</ele>
        <time>2022-05-12T09:05:30Z</time>
      </trkpt>
      <trkpt lat="47.57551325" lon="2.22985913">
        <ele>153.93</ele>
        <time>2022-05-12T09:05:30Z</time>
      </trkpt>
      <trkpt lat="47.57551325" lon="2.22985913">
        <ele>153.93</ele>
        <time>2022-05-12T09:05:36Z</time>
      </trkpt>
      <trkpt lat="47.57555653" lon="2.22933609">
        <ele>152.84</ele>
        <time>2022-05-12T09:06:08Z</time>
      </trkpt>
      <trkpt lat="47.57555653" lon="2.22933609">
        <ele>152.84</ele>
        <time>2022-05-12T09:06:08Z</time>
      </trkpt>
      <trkpt lat="47.57566756" lon="2.22899158">
        <ele>152.23</ele>
        <time>2022-05-12T09:06:30Z</time>
      </trkpt>
      <trkpt lat="47.5759158" lon="2.22859126">
        <ele>151.86</ele>
        <time>2022-05-12T09:07:03Z</time>
      </trkpt>
      <trkpt lat="47.5759158" lon="2.22859126">
        <ele>151.86</ele>
        <time>2022-05-12T09:07:03Z</time>
      </trkpt>
      <trkpt lat="47.57612939" lon="2.22828023">
        <ele>150.44</ele>
        <time>2022-05-12T09:07:28Z</time>
      </trkpt>
      <trkpt lat="47.57618511" lon="2.22820491">
        <ele>150.09</ele>
        <time>2022-05-12T09:07:34Z</time>
      </trkpt>
      <trkpt lat="47.57612677" lon="2.22808217">
        <ele>150.55</ele>
        <time>2022-05-12T09:07:43Z</time>
      </trkpt>
    </trkseg>
  </trk>
</gpx>